<?xml version="1.0" encoding="UTF-8" standalone="no" ?>
<gpx xmlns="http://www.topografix.com/GPX/1/1" xmlns:xsi="http://www.w3.org/2001/XMLSchema-instance" xsi:schemaLocation="http://www.topografix.com/GPX/1/1 http://www.topografix.com/GPX/1/1/gpx.xsd" version="1.1" creator="VisuGPX - https://www.visugpx.com">
  <metadata>
    <name>Lus la croix haute - La Batie</name>
    <desc><![CDATA[Lus la croix haute -> Grenoble premier jour. Arret à La Batie.
]]></desc>
  </metadata>
  <trk>
    <name><![CDATA[Lus-la Batie]]></name>
    <desc><![CDATA[]]></desc>
    <trkseg>
      <trkpt lat="44.67111" lon="5.69731">
        <ele>1063</ele>
        <time>2013-09-14T07:48:30.553Z</time>
      </trkpt>
      <trkpt lat="44.67111" lon="5.69731">
        <ele>1063</ele>
        <time>2013-09-14T07:48:30.553Z</time>
      </trkpt>
      <trkpt lat="44.67111" lon="5.69731">
        <ele>1063</ele>
        <time>2013-09-14T07:48:33.576Z</time>
      </trkpt>
      <trkpt lat="44.67104" lon="5.69742">
        <ele>1078</ele>
        <time>2013-09-14T07:48:34.575Z</time>
      </trkpt>
      <trkpt lat="44.67104" lon="5.69742">
        <ele>1078</ele>
        <time>2013-09-14T07:48:34.575Z</time>
      </trkpt>
      <trkpt lat="44.67104" lon="5.69742">
        <ele>1078</ele>
        <time>2013-09-14T07:48:40.574Z</time>
      </trkpt>
      <trkpt lat="44.67097" lon="5.6975">
        <ele>1082</ele>
        <time>2013-09-14T07:48:42.000Z</time>
      </trkpt>
      <trkpt lat="44.67097" lon="5.6975">
        <ele>1082</ele>
        <time>2013-09-14T07:48:42.000Z</time>
      </trkpt>
      <trkpt lat="44.67097" lon="5.6975">
        <ele>1081</ele>
        <time>2013-09-14T07:49:20.000Z</time>
      </trkpt>
      <trkpt lat="44.67092" lon="5.69748">
        <ele>1081</ele>
        <time>2013-09-14T07:49:29.000Z</time>
      </trkpt>
      <trkpt lat="44.67094" lon="5.69757">
        <ele>1081</ele>
        <time>2013-09-14T07:49:32.000Z</time>
      </trkpt>
      <trkpt lat="44.67099" lon="5.69763">
        <ele>1081</ele>
        <time>2013-09-14T07:49:34.000Z</time>
      </trkpt>
      <trkpt lat="44.67104" lon="5.69766">
        <ele>1080</ele>
        <time>2013-09-14T07:49:36.000Z</time>
      </trkpt>
      <trkpt lat="44.67112" lon="5.6977">
        <ele>1080</ele>
        <time>2013-09-14T07:49:38.000Z</time>
      </trkpt>
      <trkpt lat="44.6712" lon="5.6977">
        <ele>1080</ele>
        <time>2013-09-14T07:49:40.000Z</time>
      </trkpt>
      <trkpt lat="44.67129" lon="5.69772">
        <ele>1079</ele>
        <time>2013-09-14T07:49:42.000Z</time>
      </trkpt>
      <trkpt lat="44.67134" lon="5.69772">
        <ele>1078</ele>
        <time>2013-09-14T07:49:43.000Z</time>
      </trkpt>
      <trkpt lat="44.67141" lon="5.69772">
        <ele>1077</ele>
        <time>2013-09-14T07:49:44.000Z</time>
      </trkpt>
      <trkpt lat="44.67147" lon="5.69774">
        <ele>1075</ele>
        <time>2013-09-14T07:49:45.000Z</time>
      </trkpt>
      <trkpt lat="44.67154" lon="5.69774">
        <ele>1074</ele>
        <time>2013-09-14T07:49:46.000Z</time>
      </trkpt>
      <trkpt lat="44.6716" lon="5.69774">
        <ele>1072</ele>
        <time>2013-09-14T07:49:47.000Z</time>
      </trkpt>
      <trkpt lat="44.67168" lon="5.69774">
        <ele>1071</ele>
        <time>2013-09-14T07:49:48.000Z</time>
      </trkpt>
      <trkpt lat="44.67175" lon="5.69774">
        <ele>1069</ele>
        <time>2013-09-14T07:49:49.000Z</time>
      </trkpt>
      <trkpt lat="44.67183" lon="5.69774">
        <ele>1068</ele>
        <time>2013-09-14T07:49:50.000Z</time>
      </trkpt>
      <trkpt lat="44.67189" lon="5.69774">
        <ele>1067</ele>
        <time>2013-09-14T07:49:51.000Z</time>
      </trkpt>
      <trkpt lat="44.67196" lon="5.69774">
        <ele>1066</ele>
        <time>2013-09-14T07:49:52.000Z</time>
      </trkpt>
      <trkpt lat="44.67201" lon="5.69776">
        <ele>1065</ele>
        <time>2013-09-14T07:49:53.000Z</time>
      </trkpt>
      <trkpt lat="44.67208" lon="5.6978">
        <ele>1064</ele>
        <time>2013-09-14T07:49:55.000Z</time>
      </trkpt>
      <trkpt lat="44.67214" lon="5.69789">
        <ele>1064</ele>
        <time>2013-09-14T07:50:00.000Z</time>
      </trkpt>
      <trkpt lat="44.67214" lon="5.69789">
        <ele>1064</ele>
        <time>2013-09-14T07:50:00.000Z</time>
      </trkpt>
      <trkpt lat="44.67214" lon="5.69789">
        <ele>1064</ele>
        <time>2013-09-14T07:50:16.000Z</time>
      </trkpt>
      <trkpt lat="44.67222" lon="5.69793">
        <ele>1064</ele>
        <time>2013-09-14T07:50:22.000Z</time>
      </trkpt>
      <trkpt lat="44.67227" lon="5.69791">
        <ele>1064</ele>
        <time>2013-09-14T07:50:24.000Z</time>
      </trkpt>
      <trkpt lat="44.67233" lon="5.69791">
        <ele>1064</ele>
        <time>2013-09-14T07:50:26.000Z</time>
      </trkpt>
      <trkpt lat="44.67239" lon="5.69791">
        <ele>1063</ele>
        <time>2013-09-14T07:50:28.000Z</time>
      </trkpt>
      <trkpt lat="44.67245" lon="5.69791">
        <ele>1063</ele>
        <time>2013-09-14T07:50:30.000Z</time>
      </trkpt>
      <trkpt lat="44.6725" lon="5.69791">
        <ele>1063</ele>
        <time>2013-09-14T07:50:32.000Z</time>
      </trkpt>
      <trkpt lat="44.67256" lon="5.69791">
        <ele>1063</ele>
        <time>2013-09-14T07:50:34.000Z</time>
      </trkpt>
      <trkpt lat="44.67259" lon="5.69787">
        <ele>1063</ele>
        <time>2013-09-14T07:50:36.000Z</time>
      </trkpt>
      <trkpt lat="44.67259" lon="5.69787">
        <ele>1063</ele>
        <time>2013-09-14T07:50:36.000Z</time>
      </trkpt>
      <trkpt lat="44.67259" lon="5.69787">
        <ele>1063</ele>
        <time>2013-09-14T07:50:37.000Z</time>
      </trkpt>
      <trkpt lat="44.67262" lon="5.69778">
        <ele>1063</ele>
        <time>2013-09-14T07:50:39.000Z</time>
      </trkpt>
      <trkpt lat="44.67263" lon="5.69772">
        <ele>1063</ele>
        <time>2013-09-14T07:50:41.000Z</time>
      </trkpt>
      <trkpt lat="44.67264" lon="5.69766">
        <ele>1062</ele>
        <time>2013-09-14T07:50:43.000Z</time>
      </trkpt>
      <trkpt lat="44.67266" lon="5.69755">
        <ele>1062</ele>
        <time>2013-09-14T07:50:47.000Z</time>
      </trkpt>
      <trkpt lat="44.67266" lon="5.69755">
        <ele>1062</ele>
        <time>2013-09-14T07:50:47.000Z</time>
      </trkpt>
      <trkpt lat="44.67266" lon="5.69755">
        <ele>1062</ele>
        <time>2013-09-14T07:50:50.000Z</time>
      </trkpt>
      <trkpt lat="44.67267" lon="5.69748">
        <ele>1062</ele>
        <time>2013-09-14T07:50:51.000Z</time>
      </trkpt>
      <trkpt lat="44.67267" lon="5.69748">
        <ele>1062</ele>
        <time>2013-09-14T07:50:51.000Z</time>
      </trkpt>
      <trkpt lat="44.67267" lon="5.69748">
        <ele>1062</ele>
        <time>2013-09-14T07:50:53.000Z</time>
      </trkpt>
      <trkpt lat="44.6727" lon="5.6974">
        <ele>1062</ele>
        <time>2013-09-14T07:50:54.000Z</time>
      </trkpt>
      <trkpt lat="44.6727" lon="5.6974">
        <ele>1062</ele>
        <time>2013-09-14T07:50:54.000Z</time>
      </trkpt>
      <trkpt lat="44.6727" lon="5.6974">
        <ele>1062</ele>
        <time>2013-09-14T07:50:59.000Z</time>
      </trkpt>
      <trkpt lat="44.67274" lon="5.69729">
        <ele>1062</ele>
        <time>2013-09-14T07:51:00.000Z</time>
      </trkpt>
      <trkpt lat="44.67274" lon="5.69729">
        <ele>1062</ele>
        <time>2013-09-14T07:51:00.000Z</time>
      </trkpt>
      <trkpt lat="44.67274" lon="5.69729">
        <ele>1062</ele>
        <time>2013-09-14T07:51:05.000Z</time>
      </trkpt>
      <trkpt lat="44.6728" lon="5.6972">
        <ele>1062</ele>
        <time>2013-09-14T07:51:06.000Z</time>
      </trkpt>
      <trkpt lat="44.6728" lon="5.6972">
        <ele>1062</ele>
        <time>2013-09-14T07:51:06.000Z</time>
      </trkpt>
      <trkpt lat="44.6728" lon="5.6972">
        <ele>1062</ele>
        <time>2013-09-14T07:51:09.000Z</time>
      </trkpt>
      <trkpt lat="44.67286" lon="5.69714">
        <ele>1062</ele>
        <time>2013-09-14T07:51:10.000Z</time>
      </trkpt>
      <trkpt lat="44.67286" lon="5.69714">
        <ele>1062</ele>
        <time>2013-09-14T07:51:10.000Z</time>
      </trkpt>
      <trkpt lat="44.67286" lon="5.69714">
        <ele>1062</ele>
        <time>2013-09-14T07:51:13.000Z</time>
      </trkpt>
      <trkpt lat="44.67291" lon="5.69712">
        <ele>1062</ele>
        <time>2013-09-14T07:51:14.000Z</time>
      </trkpt>
      <trkpt lat="44.67291" lon="5.69712">
        <ele>1062</ele>
        <time>2013-09-14T07:51:14.000Z</time>
      </trkpt>
      <trkpt lat="44.67291" lon="5.69712">
        <ele>1062</ele>
        <time>2013-09-14T07:51:19.000Z</time>
      </trkpt>
      <trkpt lat="44.673" lon="5.69705">
        <ele>1062</ele>
        <time>2013-09-14T07:51:20.000Z</time>
      </trkpt>
      <trkpt lat="44.673" lon="5.69705">
        <ele>1062</ele>
        <time>2013-09-14T07:51:20.000Z</time>
      </trkpt>
      <trkpt lat="44.673" lon="5.69705">
        <ele>1062</ele>
        <time>2013-09-14T07:51:23.000Z</time>
      </trkpt>
      <trkpt lat="44.67306" lon="5.69701">
        <ele>1062</ele>
        <time>2013-09-14T07:51:24.000Z</time>
      </trkpt>
      <trkpt lat="44.67306" lon="5.69701">
        <ele>1062</ele>
        <time>2013-09-14T07:51:24.000Z</time>
      </trkpt>
      <trkpt lat="44.67306" lon="5.69701">
        <ele>1062</ele>
        <time>2013-09-14T07:51:26.000Z</time>
      </trkpt>
      <trkpt lat="44.6731" lon="5.69697">
        <ele>1062</ele>
        <time>2013-09-14T07:51:27.000Z</time>
      </trkpt>
      <trkpt lat="44.6731" lon="5.69697">
        <ele>1062</ele>
        <time>2013-09-14T07:51:27.000Z</time>
      </trkpt>
      <trkpt lat="44.6731" lon="5.69697">
        <ele>1062</ele>
        <time>2013-09-14T07:51:29.000Z</time>
      </trkpt>
      <trkpt lat="44.67315" lon="5.69695">
        <ele>1062</ele>
        <time>2013-09-14T07:51:30.000Z</time>
      </trkpt>
      <trkpt lat="44.67315" lon="5.69695">
        <ele>1062</ele>
        <time>2013-09-14T07:51:30.000Z</time>
      </trkpt>
      <trkpt lat="44.67315" lon="5.69695">
        <ele>1062</ele>
        <time>2013-09-14T07:51:32.000Z</time>
      </trkpt>
      <trkpt lat="44.67319" lon="5.69693">
        <ele>1063</ele>
        <time>2013-09-14T07:51:33.000Z</time>
      </trkpt>
      <trkpt lat="44.67319" lon="5.69693">
        <ele>1063</ele>
        <time>2013-09-14T07:51:33.000Z</time>
      </trkpt>
      <trkpt lat="44.67319" lon="5.69693">
        <ele>1063</ele>
        <time>2013-09-14T07:51:35.000Z</time>
      </trkpt>
      <trkpt lat="44.67324" lon="5.6969">
        <ele>1063</ele>
        <time>2013-09-14T07:51:36.000Z</time>
      </trkpt>
      <trkpt lat="44.67324" lon="5.6969">
        <ele>1063</ele>
        <time>2013-09-14T07:51:36.000Z</time>
      </trkpt>
      <trkpt lat="44.67324" lon="5.6969">
        <ele>1063</ele>
        <time>2013-09-14T07:51:38.000Z</time>
      </trkpt>
      <trkpt lat="44.6733" lon="5.69686">
        <ele>1063</ele>
        <time>2013-09-14T07:51:39.000Z</time>
      </trkpt>
      <trkpt lat="44.6733" lon="5.69686">
        <ele>1063</ele>
        <time>2013-09-14T07:51:39.000Z</time>
      </trkpt>
      <trkpt lat="44.6733" lon="5.69686">
        <ele>1063</ele>
        <time>2013-09-14T07:51:41.000Z</time>
      </trkpt>
      <trkpt lat="44.67335" lon="5.69684">
        <ele>1063</ele>
        <time>2013-09-14T07:51:42.000Z</time>
      </trkpt>
      <trkpt lat="44.67335" lon="5.69684">
        <ele>1063</ele>
        <time>2013-09-14T07:51:42.000Z</time>
      </trkpt>
      <trkpt lat="44.67335" lon="5.69684">
        <ele>1063</ele>
        <time>2013-09-14T07:51:44.000Z</time>
      </trkpt>
      <trkpt lat="44.6734" lon="5.69682">
        <ele>1064</ele>
        <time>2013-09-14T07:51:45.000Z</time>
      </trkpt>
      <trkpt lat="44.6734" lon="5.69682">
        <ele>1064</ele>
        <time>2013-09-14T07:51:45.000Z</time>
      </trkpt>
      <trkpt lat="44.6734" lon="5.69682">
        <ele>1064</ele>
        <time>2013-09-14T07:51:46.000Z</time>
      </trkpt>
      <trkpt lat="44.67345" lon="5.6968">
        <ele>1064</ele>
        <time>2013-09-14T07:51:48.000Z</time>
      </trkpt>
      <trkpt lat="44.6735" lon="5.69678">
        <ele>1064</ele>
        <time>2013-09-14T07:51:52.000Z</time>
      </trkpt>
      <trkpt lat="44.67354" lon="5.69675">
        <ele>1064</ele>
        <time>2013-09-14T07:51:55.000Z</time>
      </trkpt>
      <trkpt lat="44.67364" lon="5.69665">
        <ele>1065</ele>
        <time>2013-09-14T07:52:04.000Z</time>
      </trkpt>
      <trkpt lat="44.67364" lon="5.69665">
        <ele>1065</ele>
        <time>2013-09-14T07:52:04.000Z</time>
      </trkpt>
      <trkpt lat="44.67364" lon="5.69665">
        <ele>1065</ele>
        <time>2013-09-14T07:52:07.000Z</time>
      </trkpt>
      <trkpt lat="44.67368" lon="5.69658">
        <ele>1066</ele>
        <time>2013-09-14T07:52:08.000Z</time>
      </trkpt>
      <trkpt lat="44.67368" lon="5.69658">
        <ele>1066</ele>
        <time>2013-09-14T07:52:08.000Z</time>
      </trkpt>
      <trkpt lat="44.67368" lon="5.69658">
        <ele>1066</ele>
        <time>2013-09-14T07:52:09.000Z</time>
      </trkpt>
      <trkpt lat="44.67372" lon="5.69652">
        <ele>1066</ele>
        <time>2013-09-14T07:52:12.000Z</time>
      </trkpt>
      <trkpt lat="44.67372" lon="5.69652">
        <ele>1066</ele>
        <time>2013-09-14T07:52:12.000Z</time>
      </trkpt>
      <trkpt lat="44.67372" lon="5.69652">
        <ele>1067</ele>
        <time>2013-09-14T07:52:14.000Z</time>
      </trkpt>
      <trkpt lat="44.67378" lon="5.69645">
        <ele>1067</ele>
        <time>2013-09-14T07:52:18.000Z</time>
      </trkpt>
      <trkpt lat="44.67378" lon="5.69645">
        <ele>1067</ele>
        <time>2013-09-14T07:52:18.000Z</time>
      </trkpt>
      <trkpt lat="44.67378" lon="5.69645">
        <ele>1067</ele>
        <time>2013-09-14T07:52:19.000Z</time>
      </trkpt>
      <trkpt lat="44.67382" lon="5.69641">
        <ele>1068</ele>
        <time>2013-09-14T07:52:21.000Z</time>
      </trkpt>
      <trkpt lat="44.67385" lon="5.69637">
        <ele>1068</ele>
        <time>2013-09-14T07:52:24.000Z</time>
      </trkpt>
      <trkpt lat="44.6739" lon="5.69632">
        <ele>1068</ele>
        <time>2013-09-14T07:52:28.000Z</time>
      </trkpt>
      <trkpt lat="44.6739" lon="5.69632">
        <ele>1068</ele>
        <time>2013-09-14T07:52:28.000Z</time>
      </trkpt>
      <trkpt lat="44.6739" lon="5.69632">
        <ele>1068</ele>
        <time>2013-09-14T07:52:30.000Z</time>
      </trkpt>
      <trkpt lat="44.67396" lon="5.69624">
        <ele>1069</ele>
        <time>2013-09-14T07:52:34.000Z</time>
      </trkpt>
      <trkpt lat="44.674" lon="5.69622">
        <ele>1069</ele>
        <time>2013-09-14T07:52:37.000Z</time>
      </trkpt>
      <trkpt lat="44.67408" lon="5.69615">
        <ele>1070</ele>
        <time>2013-09-14T07:52:43.000Z</time>
      </trkpt>
      <trkpt lat="44.67408" lon="5.69615">
        <ele>1070</ele>
        <time>2013-09-14T07:52:43.000Z</time>
      </trkpt>
      <trkpt lat="44.67408" lon="5.69615">
        <ele>1070</ele>
        <time>2013-09-14T07:52:45.000Z</time>
      </trkpt>
      <trkpt lat="44.67418" lon="5.69611">
        <ele>1070</ele>
        <time>2013-09-14T07:52:50.000Z</time>
      </trkpt>
      <trkpt lat="44.67418" lon="5.69611">
        <ele>1070</ele>
        <time>2013-09-14T07:52:50.000Z</time>
      </trkpt>
      <trkpt lat="44.67418" lon="5.69611">
        <ele>1070</ele>
        <time>2013-09-14T07:52:55.000Z</time>
      </trkpt>
      <trkpt lat="44.67426" lon="5.69607">
        <ele>1071</ele>
        <time>2013-09-14T07:52:56.000Z</time>
      </trkpt>
      <trkpt lat="44.6743" lon="5.69609">
        <ele>1071</ele>
        <time>2013-09-14T07:53:01.000Z</time>
      </trkpt>
      <trkpt lat="44.6743" lon="5.69609">
        <ele>1071</ele>
        <time>2013-09-14T07:53:01.000Z</time>
      </trkpt>
      <trkpt lat="44.6743" lon="5.69609">
        <ele>1071</ele>
        <time>2013-09-14T07:53:02.000Z</time>
      </trkpt>
      <trkpt lat="44.67436" lon="5.69609">
        <ele>1072</ele>
        <time>2013-09-14T07:53:07.000Z</time>
      </trkpt>
      <trkpt lat="44.67441" lon="5.69607">
        <ele>1072</ele>
        <time>2013-09-14T07:53:12.000Z</time>
      </trkpt>
      <trkpt lat="44.67445" lon="5.69605">
        <ele>1073</ele>
        <time>2013-09-14T07:53:16.000Z</time>
      </trkpt>
      <trkpt lat="44.6745" lon="5.696">
        <ele>1073</ele>
        <time>2013-09-14T07:53:20.000Z</time>
      </trkpt>
      <trkpt lat="44.67454" lon="5.69596">
        <ele>1073</ele>
        <time>2013-09-14T07:53:24.000Z</time>
      </trkpt>
      <trkpt lat="44.67458" lon="5.69592">
        <ele>1073</ele>
        <time>2013-09-14T07:53:28.000Z</time>
      </trkpt>
      <trkpt lat="44.67463" lon="5.6959">
        <ele>1074</ele>
        <time>2013-09-14T07:53:32.000Z</time>
      </trkpt>
      <trkpt lat="44.67468" lon="5.69585">
        <ele>1074</ele>
        <time>2013-09-14T07:53:36.000Z</time>
      </trkpt>
      <trkpt lat="44.67472" lon="5.69581">
        <ele>1075</ele>
        <time>2013-09-14T07:53:39.000Z</time>
      </trkpt>
      <trkpt lat="44.67477" lon="5.69577">
        <ele>1075</ele>
        <time>2013-09-14T07:53:42.000Z</time>
      </trkpt>
      <trkpt lat="44.67481" lon="5.69572">
        <ele>1076</ele>
        <time>2013-09-14T07:53:45.000Z</time>
      </trkpt>
      <trkpt lat="44.67485" lon="5.69568">
        <ele>1076</ele>
        <time>2013-09-14T07:53:48.000Z</time>
      </trkpt>
      <trkpt lat="44.67489" lon="5.69566">
        <ele>1077</ele>
        <time>2013-09-14T07:53:51.000Z</time>
      </trkpt>
      <trkpt lat="44.67495" lon="5.69562">
        <ele>1077</ele>
        <time>2013-09-14T07:53:54.000Z</time>
      </trkpt>
      <trkpt lat="44.67499" lon="5.6956">
        <ele>1078</ele>
        <time>2013-09-14T07:53:57.000Z</time>
      </trkpt>
      <trkpt lat="44.67504" lon="5.69557">
        <ele>1079</ele>
        <time>2013-09-14T07:54:00.000Z</time>
      </trkpt>
      <trkpt lat="44.67509" lon="5.69553">
        <ele>1079</ele>
        <time>2013-09-14T07:54:03.000Z</time>
      </trkpt>
      <trkpt lat="44.67513" lon="5.69551">
        <ele>1080</ele>
        <time>2013-09-14T07:54:06.000Z</time>
      </trkpt>
      <trkpt lat="44.67518" lon="5.69549">
        <ele>1080</ele>
        <time>2013-09-14T07:54:09.000Z</time>
      </trkpt>
      <trkpt lat="44.67523" lon="5.69547">
        <ele>1081</ele>
        <time>2013-09-14T07:54:12.000Z</time>
      </trkpt>
      <trkpt lat="44.67527" lon="5.69544">
        <ele>1081</ele>
        <time>2013-09-14T07:54:15.000Z</time>
      </trkpt>
      <trkpt lat="44.67531" lon="5.69542">
        <ele>1082</ele>
        <time>2013-09-14T07:54:18.000Z</time>
      </trkpt>
      <trkpt lat="44.67536" lon="5.6954">
        <ele>1082</ele>
        <time>2013-09-14T07:54:21.000Z</time>
      </trkpt>
      <trkpt lat="44.67541" lon="5.69538">
        <ele>1083</ele>
        <time>2013-09-14T07:54:25.000Z</time>
      </trkpt>
      <trkpt lat="44.67545" lon="5.69536">
        <ele>1083</ele>
        <time>2013-09-14T07:54:28.000Z</time>
      </trkpt>
      <trkpt lat="44.6755" lon="5.69534">
        <ele>1084</ele>
        <time>2013-09-14T07:54:32.000Z</time>
      </trkpt>
      <trkpt lat="44.67554" lon="5.6953">
        <ele>1085</ele>
        <time>2013-09-14T07:54:36.000Z</time>
      </trkpt>
      <trkpt lat="44.67554" lon="5.69536">
        <ele>1087</ele>
        <time>2013-09-14T07:55:15.000Z</time>
      </trkpt>
      <trkpt lat="44.67554" lon="5.69536">
        <ele>1087</ele>
        <time>2013-09-14T07:55:15.000Z</time>
      </trkpt>
      <trkpt lat="44.67554" lon="5.69536">
        <ele>1088</ele>
        <time>2013-09-14T07:55:37.000Z</time>
      </trkpt>
      <trkpt lat="44.67559" lon="5.69534">
        <ele>1090</ele>
        <time>2013-09-14T07:55:49.000Z</time>
      </trkpt>
      <trkpt lat="44.67564" lon="5.69527">
        <ele>1091</ele>
        <time>2013-09-14T07:55:51.000Z</time>
      </trkpt>
      <trkpt lat="44.67569" lon="5.69525">
        <ele>1095</ele>
        <time>2013-09-14T07:55:52.000Z</time>
      </trkpt>
      <trkpt lat="44.67576" lon="5.69517">
        <ele>1101</ele>
        <time>2013-09-14T07:55:54.000Z</time>
      </trkpt>
      <trkpt lat="44.67581" lon="5.69512">
        <ele>1102</ele>
        <time>2013-09-14T07:55:55.000Z</time>
      </trkpt>
      <trkpt lat="44.67588" lon="5.69504">
        <ele>1104</ele>
        <time>2013-09-14T07:55:57.000Z</time>
      </trkpt>
      <trkpt lat="44.67595" lon="5.69493">
        <ele>1104</ele>
        <time>2013-09-14T07:55:59.000Z</time>
      </trkpt>
      <trkpt lat="44.67602" lon="5.69482">
        <ele>1105</ele>
        <time>2013-09-14T07:56:01.000Z</time>
      </trkpt>
      <trkpt lat="44.67608" lon="5.69474">
        <ele>1105</ele>
        <time>2013-09-14T07:56:03.000Z</time>
      </trkpt>
      <trkpt lat="44.67613" lon="5.69469">
        <ele>1105</ele>
        <time>2013-09-14T07:56:04.000Z</time>
      </trkpt>
      <trkpt lat="44.6762" lon="5.69461">
        <ele>1105</ele>
        <time>2013-09-14T07:56:06.000Z</time>
      </trkpt>
      <trkpt lat="44.67627" lon="5.69454">
        <ele>1106</ele>
        <time>2013-09-14T07:56:08.000Z</time>
      </trkpt>
      <trkpt lat="44.67633" lon="5.69446">
        <ele>1106</ele>
        <time>2013-09-14T07:56:10.000Z</time>
      </trkpt>
      <trkpt lat="44.6764" lon="5.69437">
        <ele>1106</ele>
        <time>2013-09-14T07:56:12.000Z</time>
      </trkpt>
      <trkpt lat="44.67643" lon="5.69431">
        <ele>1106</ele>
        <time>2013-09-14T07:56:13.000Z</time>
      </trkpt>
      <trkpt lat="44.67645" lon="5.69424">
        <ele>1106</ele>
        <time>2013-09-14T07:56:14.000Z</time>
      </trkpt>
      <trkpt lat="44.67649" lon="5.69422">
        <ele>1106</ele>
        <time>2013-09-14T07:56:15.000Z</time>
      </trkpt>
      <trkpt lat="44.67654" lon="5.69414">
        <ele>1107</ele>
        <time>2013-09-14T07:56:17.000Z</time>
      </trkpt>
      <trkpt lat="44.67657" lon="5.69407">
        <ele>1107</ele>
        <time>2013-09-14T07:56:19.000Z</time>
      </trkpt>
      <trkpt lat="44.67662" lon="5.69399">
        <ele>1107</ele>
        <time>2013-09-14T07:56:21.000Z</time>
      </trkpt>
      <trkpt lat="44.67665" lon="5.69392">
        <ele>1107</ele>
        <time>2013-09-14T07:56:22.000Z</time>
      </trkpt>
      <trkpt lat="44.6767" lon="5.69388">
        <ele>1107</ele>
        <time>2013-09-14T07:56:23.000Z</time>
      </trkpt>
      <trkpt lat="44.67673" lon="5.69381">
        <ele>1107</ele>
        <time>2013-09-14T07:56:24.000Z</time>
      </trkpt>
      <trkpt lat="44.67677" lon="5.69377">
        <ele>1107</ele>
        <time>2013-09-14T07:56:25.000Z</time>
      </trkpt>
      <trkpt lat="44.67682" lon="5.69371">
        <ele>1107</ele>
        <time>2013-09-14T07:56:26.000Z</time>
      </trkpt>
      <trkpt lat="44.67686" lon="5.69366">
        <ele>1107</ele>
        <time>2013-09-14T07:56:27.000Z</time>
      </trkpt>
      <trkpt lat="44.67691" lon="5.69362">
        <ele>1107</ele>
        <time>2013-09-14T07:56:28.000Z</time>
      </trkpt>
      <trkpt lat="44.67696" lon="5.69358">
        <ele>1107</ele>
        <time>2013-09-14T07:56:29.000Z</time>
      </trkpt>
      <trkpt lat="44.67701" lon="5.69354">
        <ele>1107</ele>
        <time>2013-09-14T07:56:30.000Z</time>
      </trkpt>
      <trkpt lat="44.67706" lon="5.69349">
        <ele>1106</ele>
        <time>2013-09-14T07:56:31.000Z</time>
      </trkpt>
      <trkpt lat="44.67712" lon="5.69345">
        <ele>1106</ele>
        <time>2013-09-14T07:56:32.000Z</time>
      </trkpt>
      <trkpt lat="44.67717" lon="5.69341">
        <ele>1106</ele>
        <time>2013-09-14T07:56:33.000Z</time>
      </trkpt>
      <trkpt lat="44.67722" lon="5.69336">
        <ele>1106</ele>
        <time>2013-09-14T07:56:34.000Z</time>
      </trkpt>
      <trkpt lat="44.67726" lon="5.69332">
        <ele>1106</ele>
        <time>2013-09-14T07:56:35.000Z</time>
      </trkpt>
      <trkpt lat="44.67731" lon="5.69328">
        <ele>1107</ele>
        <time>2013-09-14T07:56:36.000Z</time>
      </trkpt>
      <trkpt lat="44.67735" lon="5.69324">
        <ele>1107</ele>
        <time>2013-09-14T07:56:37.000Z</time>
      </trkpt>
      <trkpt lat="44.67742" lon="5.69315">
        <ele>1108</ele>
        <time>2013-09-14T07:56:39.000Z</time>
      </trkpt>
      <trkpt lat="44.67747" lon="5.69308">
        <ele>1108</ele>
        <time>2013-09-14T07:56:41.000Z</time>
      </trkpt>
      <trkpt lat="44.67753" lon="5.69302">
        <ele>1108</ele>
        <time>2013-09-14T07:56:43.000Z</time>
      </trkpt>
      <trkpt lat="44.6776" lon="5.69296">
        <ele>1108</ele>
        <time>2013-09-14T07:56:45.000Z</time>
      </trkpt>
      <trkpt lat="44.67767" lon="5.69291">
        <ele>1109</ele>
        <time>2013-09-14T07:56:47.000Z</time>
      </trkpt>
      <trkpt lat="44.67775" lon="5.69285">
        <ele>1110</ele>
        <time>2013-09-14T07:56:49.000Z</time>
      </trkpt>
      <trkpt lat="44.6778" lon="5.69281">
        <ele>1110</ele>
        <time>2013-09-14T07:56:50.000Z</time>
      </trkpt>
      <trkpt lat="44.67784" lon="5.69278">
        <ele>1111</ele>
        <time>2013-09-14T07:56:51.000Z</time>
      </trkpt>
      <trkpt lat="44.67789" lon="5.69274">
        <ele>1111</ele>
        <time>2013-09-14T07:56:52.000Z</time>
      </trkpt>
      <trkpt lat="44.67796" lon="5.69263">
        <ele>1111</ele>
        <time>2013-09-14T07:56:54.000Z</time>
      </trkpt>
      <trkpt lat="44.67804" lon="5.69255">
        <ele>1112</ele>
        <time>2013-09-14T07:56:56.000Z</time>
      </trkpt>
      <trkpt lat="44.6781" lon="5.69246">
        <ele>1112</ele>
        <time>2013-09-14T07:56:58.000Z</time>
      </trkpt>
      <trkpt lat="44.67817" lon="5.69238">
        <ele>1112</ele>
        <time>2013-09-14T07:57:00.000Z</time>
      </trkpt>
      <trkpt lat="44.67823" lon="5.69233">
        <ele>1112</ele>
        <time>2013-09-14T07:57:02.000Z</time>
      </trkpt>
      <trkpt lat="44.6783" lon="5.69227">
        <ele>1112</ele>
        <time>2013-09-14T07:57:04.000Z</time>
      </trkpt>
      <trkpt lat="44.67835" lon="5.69223">
        <ele>1112</ele>
        <time>2013-09-14T07:57:06.000Z</time>
      </trkpt>
      <trkpt lat="44.67841" lon="5.69216">
        <ele>1112</ele>
        <time>2013-09-14T07:57:08.000Z</time>
      </trkpt>
      <trkpt lat="44.67846" lon="5.69208">
        <ele>1112</ele>
        <time>2013-09-14T07:57:10.000Z</time>
      </trkpt>
      <trkpt lat="44.67849" lon="5.69199">
        <ele>1112</ele>
        <time>2013-09-14T07:57:12.000Z</time>
      </trkpt>
      <trkpt lat="44.67851" lon="5.69193">
        <ele>1112</ele>
        <time>2013-09-14T07:57:13.000Z</time>
      </trkpt>
      <trkpt lat="44.67854" lon="5.69184">
        <ele>1112</ele>
        <time>2013-09-14T07:57:15.000Z</time>
      </trkpt>
      <trkpt lat="44.67856" lon="5.69175">
        <ele>1112</ele>
        <time>2013-09-14T07:57:17.000Z</time>
      </trkpt>
      <trkpt lat="44.6786" lon="5.69169">
        <ele>1112</ele>
        <time>2013-09-14T07:57:19.000Z</time>
      </trkpt>
      <trkpt lat="44.67862" lon="5.6916">
        <ele>1112</ele>
        <time>2013-09-14T07:57:21.000Z</time>
      </trkpt>
      <trkpt lat="44.67865" lon="5.69154">
        <ele>1112</ele>
        <time>2013-09-14T07:57:23.000Z</time>
      </trkpt>
      <trkpt lat="44.67868" lon="5.69148">
        <ele>1112</ele>
        <time>2013-09-14T07:57:25.000Z</time>
      </trkpt>
      <trkpt lat="44.67871" lon="5.69141">
        <ele>1112</ele>
        <time>2013-09-14T07:57:27.000Z</time>
      </trkpt>
      <trkpt lat="44.67876" lon="5.69135">
        <ele>1112</ele>
        <time>2013-09-14T07:57:29.000Z</time>
      </trkpt>
      <trkpt lat="44.6788" lon="5.6913">
        <ele>1112</ele>
        <time>2013-09-14T07:57:31.000Z</time>
      </trkpt>
      <trkpt lat="44.67883" lon="5.69124">
        <ele>1112</ele>
        <time>2013-09-14T07:57:33.000Z</time>
      </trkpt>
      <trkpt lat="44.67888" lon="5.69118">
        <ele>1112</ele>
        <time>2013-09-14T07:57:35.000Z</time>
      </trkpt>
      <trkpt lat="44.67892" lon="5.69111">
        <ele>1112</ele>
        <time>2013-09-14T07:57:37.000Z</time>
      </trkpt>
      <trkpt lat="44.67897" lon="5.69102">
        <ele>1112</ele>
        <time>2013-09-14T07:57:40.000Z</time>
      </trkpt>
      <trkpt lat="44.67901" lon="5.69098">
        <ele>1112</ele>
        <time>2013-09-14T07:57:42.000Z</time>
      </trkpt>
      <trkpt lat="44.67907" lon="5.69092">
        <ele>1112</ele>
        <time>2013-09-14T07:57:44.000Z</time>
      </trkpt>
      <trkpt lat="44.67913" lon="5.69085">
        <ele>1112</ele>
        <time>2013-09-14T07:57:46.000Z</time>
      </trkpt>
      <trkpt lat="44.6792" lon="5.69079">
        <ele>1112</ele>
        <time>2013-09-14T07:57:48.000Z</time>
      </trkpt>
      <trkpt lat="44.67927" lon="5.69072">
        <ele>1112</ele>
        <time>2013-09-14T07:57:50.000Z</time>
      </trkpt>
      <trkpt lat="44.67932" lon="5.69068">
        <ele>1112</ele>
        <time>2013-09-14T07:57:52.000Z</time>
      </trkpt>
      <trkpt lat="44.67938" lon="5.69064">
        <ele>1112</ele>
        <time>2013-09-14T07:57:54.000Z</time>
      </trkpt>
      <trkpt lat="44.67943" lon="5.6906">
        <ele>1112</ele>
        <time>2013-09-14T07:57:56.000Z</time>
      </trkpt>
      <trkpt lat="44.6795" lon="5.69055">
        <ele>1112</ele>
        <time>2013-09-14T07:57:58.000Z</time>
      </trkpt>
      <trkpt lat="44.67956" lon="5.69051">
        <ele>1112</ele>
        <time>2013-09-14T07:58:00.000Z</time>
      </trkpt>
      <trkpt lat="44.67962" lon="5.69044">
        <ele>1112</ele>
        <time>2013-09-14T07:58:02.000Z</time>
      </trkpt>
      <trkpt lat="44.67968" lon="5.6904">
        <ele>1112</ele>
        <time>2013-09-14T07:58:04.000Z</time>
      </trkpt>
      <trkpt lat="44.67974" lon="5.69034">
        <ele>1112</ele>
        <time>2013-09-14T07:58:07.000Z</time>
      </trkpt>
      <trkpt lat="44.67979" lon="5.69027">
        <ele>1112</ele>
        <time>2013-09-14T07:58:09.000Z</time>
      </trkpt>
      <trkpt lat="44.67992" lon="5.69017">
        <ele>1113</ele>
        <time>2013-09-14T07:58:21.000Z</time>
      </trkpt>
      <trkpt lat="44.67992" lon="5.69017">
        <ele>1113</ele>
        <time>2013-09-14T07:58:21.000Z</time>
      </trkpt>
      <trkpt lat="44.67992" lon="5.69017">
        <ele>1113</ele>
        <time>2013-09-14T07:58:23.000Z</time>
      </trkpt>
      <trkpt lat="44.67997" lon="5.69017">
        <ele>1113</ele>
        <time>2013-09-14T07:58:24.000Z</time>
      </trkpt>
      <trkpt lat="44.67997" lon="5.69017">
        <ele>1113</ele>
        <time>2013-09-14T07:58:24.000Z</time>
      </trkpt>
      <trkpt lat="44.67997" lon="5.69017">
        <ele>1113</ele>
        <time>2013-09-14T07:58:26.000Z</time>
      </trkpt>
      <trkpt lat="44.68003" lon="5.69017">
        <ele>1113</ele>
        <time>2013-09-14T07:58:27.000Z</time>
      </trkpt>
      <trkpt lat="44.68013" lon="5.69008">
        <ele>1114</ele>
        <time>2013-09-14T07:58:33.000Z</time>
      </trkpt>
      <trkpt lat="44.68013" lon="5.69008">
        <ele>1114</ele>
        <time>2013-09-14T07:58:33.000Z</time>
      </trkpt>
      <trkpt lat="44.68013" lon="5.69008">
        <ele>1114</ele>
        <time>2013-09-14T07:58:37.000Z</time>
      </trkpt>
      <trkpt lat="44.68017" lon="5.68997">
        <ele>1114</ele>
        <time>2013-09-14T07:58:38.000Z</time>
      </trkpt>
      <trkpt lat="44.68017" lon="5.68997">
        <ele>1114</ele>
        <time>2013-09-14T07:58:38.000Z</time>
      </trkpt>
      <trkpt lat="44.68017" lon="5.68997">
        <ele>1114</ele>
        <time>2013-09-14T07:58:43.000Z</time>
      </trkpt>
      <trkpt lat="44.68019" lon="5.68991">
        <ele>1114</ele>
        <time>2013-09-14T07:58:44.000Z</time>
      </trkpt>
      <trkpt lat="44.68019" lon="5.68991">
        <ele>1114</ele>
        <time>2013-09-14T07:58:44.000Z</time>
      </trkpt>
      <trkpt lat="44.68019" lon="5.68991">
        <ele>1114</ele>
        <time>2013-09-14T07:58:51.000Z</time>
      </trkpt>
      <trkpt lat="44.68014" lon="5.69">
        <ele>1114</ele>
        <time>2013-09-14T07:58:52.000Z</time>
      </trkpt>
      <trkpt lat="44.68014" lon="5.69">
        <ele>1114</ele>
        <time>2013-09-14T07:58:52.000Z</time>
      </trkpt>
      <trkpt lat="44.68014" lon="5.69">
        <ele>1114</ele>
        <time>2013-09-14T07:58:57.000Z</time>
      </trkpt>
      <trkpt lat="44.68018" lon="5.68995">
        <ele>1115</ele>
        <time>2013-09-14T07:58:58.000Z</time>
      </trkpt>
      <trkpt lat="44.68018" lon="5.68995">
        <ele>1115</ele>
        <time>2013-09-14T07:58:58.000Z</time>
      </trkpt>
      <trkpt lat="44.68018" lon="5.68995">
        <ele>1115</ele>
        <time>2013-09-14T07:59:02.000Z</time>
      </trkpt>
      <trkpt lat="44.6802" lon="5.68984">
        <ele>1115</ele>
        <time>2013-09-14T07:59:03.000Z</time>
      </trkpt>
      <trkpt lat="44.6802" lon="5.68984">
        <ele>1115</ele>
        <time>2013-09-14T07:59:03.000Z</time>
      </trkpt>
      <trkpt lat="44.6802" lon="5.68984">
        <ele>1115</ele>
        <time>2013-09-14T07:59:05.000Z</time>
      </trkpt>
      <trkpt lat="44.68019" lon="5.68978">
        <ele>1115</ele>
        <time>2013-09-14T07:59:06.000Z</time>
      </trkpt>
      <trkpt lat="44.68019" lon="5.68978">
        <ele>1115</ele>
        <time>2013-09-14T07:59:06.000Z</time>
      </trkpt>
      <trkpt lat="44.68019" lon="5.68978">
        <ele>1115</ele>
        <time>2013-09-14T07:59:10.000Z</time>
      </trkpt>
      <trkpt lat="44.68017" lon="5.68967">
        <ele>1116</ele>
        <time>2013-09-14T07:59:11.000Z</time>
      </trkpt>
      <trkpt lat="44.68017" lon="5.68967">
        <ele>1116</ele>
        <time>2013-09-14T07:59:11.000Z</time>
      </trkpt>
      <trkpt lat="44.68017" lon="5.68967">
        <ele>1116</ele>
        <time>2013-09-14T07:59:14.000Z</time>
      </trkpt>
      <trkpt lat="44.68015" lon="5.68959">
        <ele>1116</ele>
        <time>2013-09-14T07:59:15.000Z</time>
      </trkpt>
      <trkpt lat="44.68015" lon="5.68959">
        <ele>1116</ele>
        <time>2013-09-14T07:59:15.000Z</time>
      </trkpt>
      <trkpt lat="44.68015" lon="5.68959">
        <ele>1116</ele>
        <time>2013-09-14T07:59:18.000Z</time>
      </trkpt>
      <trkpt lat="44.68016" lon="5.6895">
        <ele>1116</ele>
        <time>2013-09-14T07:59:19.000Z</time>
      </trkpt>
      <trkpt lat="44.68016" lon="5.6895">
        <ele>1116</ele>
        <time>2013-09-14T07:59:19.000Z</time>
      </trkpt>
      <trkpt lat="44.68016" lon="5.6895">
        <ele>1116</ele>
        <time>2013-09-14T07:59:22.000Z</time>
      </trkpt>
      <trkpt lat="44.68019" lon="5.68944">
        <ele>1117</ele>
        <time>2013-09-14T07:59:23.000Z</time>
      </trkpt>
      <trkpt lat="44.68019" lon="5.68944">
        <ele>1117</ele>
        <time>2013-09-14T07:59:23.000Z</time>
      </trkpt>
      <trkpt lat="44.68019" lon="5.68944">
        <ele>1117</ele>
        <time>2013-09-14T07:59:25.000Z</time>
      </trkpt>
      <trkpt lat="44.68029" lon="5.68935">
        <ele>1117</ele>
        <time>2013-09-14T07:59:30.000Z</time>
      </trkpt>
      <trkpt lat="44.68029" lon="5.68935">
        <ele>1117</ele>
        <time>2013-09-14T07:59:30.000Z</time>
      </trkpt>
      <trkpt lat="44.68029" lon="5.68935">
        <ele>1117</ele>
        <time>2013-09-14T07:59:32.000Z</time>
      </trkpt>
      <trkpt lat="44.68034" lon="5.68942">
        <ele>1117</ele>
        <time>2013-09-14T07:59:33.000Z</time>
      </trkpt>
      <trkpt lat="44.68034" lon="5.68942">
        <ele>1117</ele>
        <time>2013-09-14T07:59:33.000Z</time>
      </trkpt>
      <trkpt lat="44.68034" lon="5.68942">
        <ele>1117</ele>
        <time>2013-09-14T07:59:35.000Z</time>
      </trkpt>
      <trkpt lat="44.68041" lon="5.6895">
        <ele>1117</ele>
        <time>2013-09-14T07:59:36.000Z</time>
      </trkpt>
      <trkpt lat="44.68046" lon="5.68957">
        <ele>1117</ele>
        <time>2013-09-14T07:59:38.000Z</time>
      </trkpt>
      <trkpt lat="44.6805" lon="5.68963">
        <ele>1118</ele>
        <time>2013-09-14T07:59:40.000Z</time>
      </trkpt>
      <trkpt lat="44.68056" lon="5.68965">
        <ele>1118</ele>
        <time>2013-09-14T07:59:42.000Z</time>
      </trkpt>
      <trkpt lat="44.6806" lon="5.68967">
        <ele>1118</ele>
        <time>2013-09-14T07:59:44.000Z</time>
      </trkpt>
      <trkpt lat="44.68066" lon="5.68969">
        <ele>1118</ele>
        <time>2013-09-14T07:59:46.000Z</time>
      </trkpt>
      <trkpt lat="44.68071" lon="5.68969">
        <ele>1118</ele>
        <time>2013-09-14T07:59:48.000Z</time>
      </trkpt>
      <trkpt lat="44.68076" lon="5.68972">
        <ele>1118</ele>
        <time>2013-09-14T07:59:50.000Z</time>
      </trkpt>
      <trkpt lat="44.68082" lon="5.68972">
        <ele>1118</ele>
        <time>2013-09-14T07:59:52.000Z</time>
      </trkpt>
      <trkpt lat="44.68087" lon="5.68972">
        <ele>1119</ele>
        <time>2013-09-14T07:59:54.000Z</time>
      </trkpt>
      <trkpt lat="44.68087" lon="5.68972">
        <ele>1119</ele>
        <time>2013-09-14T07:59:54.000Z</time>
      </trkpt>
      <trkpt lat="44.68087" lon="5.68972">
        <ele>1119</ele>
        <time>2013-09-14T07:59:58.000Z</time>
      </trkpt>
      <trkpt lat="44.68098" lon="5.68972">
        <ele>1119</ele>
        <time>2013-09-14T07:59:59.000Z</time>
      </trkpt>
      <trkpt lat="44.68098" lon="5.68972">
        <ele>1119</ele>
        <time>2013-09-14T07:59:59.000Z</time>
      </trkpt>
      <trkpt lat="44.68098" lon="5.68972">
        <ele>1119</ele>
        <time>2013-09-14T08:00:01.000Z</time>
      </trkpt>
      <trkpt lat="44.68103" lon="5.68972">
        <ele>1119</ele>
        <time>2013-09-14T08:00:02.000Z</time>
      </trkpt>
      <trkpt lat="44.6811" lon="5.68972">
        <ele>1119</ele>
        <time>2013-09-14T08:00:05.000Z</time>
      </trkpt>
      <trkpt lat="44.68115" lon="5.68969">
        <ele>1120</ele>
        <time>2013-09-14T08:00:08.000Z</time>
      </trkpt>
      <trkpt lat="44.68119" lon="5.68967">
        <ele>1120</ele>
        <time>2013-09-14T08:00:10.000Z</time>
      </trkpt>
      <trkpt lat="44.68124" lon="5.68965">
        <ele>1120</ele>
        <time>2013-09-14T08:00:12.000Z</time>
      </trkpt>
      <trkpt lat="44.68129" lon="5.68961">
        <ele>1120</ele>
        <time>2013-09-14T08:00:15.000Z</time>
      </trkpt>
      <trkpt lat="44.68133" lon="5.68959">
        <ele>1121</ele>
        <time>2013-09-14T08:00:17.000Z</time>
      </trkpt>
      <trkpt lat="44.68138" lon="5.68957">
        <ele>1121</ele>
        <time>2013-09-14T08:00:20.000Z</time>
      </trkpt>
      <trkpt lat="44.68144" lon="5.68954">
        <ele>1121</ele>
        <time>2013-09-14T08:00:23.000Z</time>
      </trkpt>
      <trkpt lat="44.68148" lon="5.68952">
        <ele>1121</ele>
        <time>2013-09-14T08:00:26.000Z</time>
      </trkpt>
      <trkpt lat="44.68152" lon="5.6895">
        <ele>1121</ele>
        <time>2013-09-14T08:00:28.000Z</time>
      </trkpt>
      <trkpt lat="44.68159" lon="5.68948">
        <ele>1122</ele>
        <time>2013-09-14T08:00:32.000Z</time>
      </trkpt>
      <trkpt lat="44.68164" lon="5.68946">
        <ele>1122</ele>
        <time>2013-09-14T08:00:35.000Z</time>
      </trkpt>
      <trkpt lat="44.68171" lon="5.68946">
        <ele>1122</ele>
        <time>2013-09-14T08:00:39.000Z</time>
      </trkpt>
      <trkpt lat="44.68177" lon="5.68946">
        <ele>1123</ele>
        <time>2013-09-14T08:00:43.000Z</time>
      </trkpt>
      <trkpt lat="44.68184" lon="5.68946">
        <ele>1123</ele>
        <time>2013-09-14T08:00:47.000Z</time>
      </trkpt>
      <trkpt lat="44.68188" lon="5.68948">
        <ele>1123</ele>
        <time>2013-09-14T08:00:50.000Z</time>
      </trkpt>
      <trkpt lat="44.68194" lon="5.68948">
        <ele>1124</ele>
        <time>2013-09-14T08:00:54.000Z</time>
      </trkpt>
      <trkpt lat="44.682" lon="5.68946">
        <ele>1124</ele>
        <time>2013-09-14T08:00:58.000Z</time>
      </trkpt>
      <trkpt lat="44.68205" lon="5.68946">
        <ele>1124</ele>
        <time>2013-09-14T08:01:01.000Z</time>
      </trkpt>
      <trkpt lat="44.6821" lon="5.68944">
        <ele>1124</ele>
        <time>2013-09-14T08:01:05.000Z</time>
      </trkpt>
      <trkpt lat="44.68216" lon="5.68942">
        <ele>1125</ele>
        <time>2013-09-14T08:01:09.000Z</time>
      </trkpt>
      <trkpt lat="44.6822" lon="5.68939">
        <ele>1125</ele>
        <time>2013-09-14T08:01:12.000Z</time>
      </trkpt>
      <trkpt lat="44.68224" lon="5.68937">
        <ele>1125</ele>
        <time>2013-09-14T08:01:15.000Z</time>
      </trkpt>
      <trkpt lat="44.68229" lon="5.68933">
        <ele>1125</ele>
        <time>2013-09-14T08:01:18.000Z</time>
      </trkpt>
      <trkpt lat="44.68233" lon="5.68929">
        <ele>1126</ele>
        <time>2013-09-14T08:01:22.000Z</time>
      </trkpt>
      <trkpt lat="44.68237" lon="5.68926">
        <ele>1126</ele>
        <time>2013-09-14T08:01:25.000Z</time>
      </trkpt>
      <trkpt lat="44.68242" lon="5.68922">
        <ele>1126</ele>
        <time>2013-09-14T08:01:28.000Z</time>
      </trkpt>
      <trkpt lat="44.68246" lon="5.68918">
        <ele>1127</ele>
        <time>2013-09-14T08:01:31.000Z</time>
      </trkpt>
      <trkpt lat="44.6825" lon="5.68914">
        <ele>1127</ele>
        <time>2013-09-14T08:01:34.000Z</time>
      </trkpt>
      <trkpt lat="44.68254" lon="5.68907">
        <ele>1127</ele>
        <time>2013-09-14T08:01:37.000Z</time>
      </trkpt>
      <trkpt lat="44.68259" lon="5.68903">
        <ele>1127</ele>
        <time>2013-09-14T08:01:40.000Z</time>
      </trkpt>
      <trkpt lat="44.68263" lon="5.68899">
        <ele>1128</ele>
        <time>2013-09-14T08:01:43.000Z</time>
      </trkpt>
      <trkpt lat="44.68267" lon="5.68896">
        <ele>1128</ele>
        <time>2013-09-14T08:01:45.000Z</time>
      </trkpt>
      <trkpt lat="44.68273" lon="5.68894">
        <ele>1128</ele>
        <time>2013-09-14T08:01:48.000Z</time>
      </trkpt>
      <trkpt lat="44.68277" lon="5.68892">
        <ele>1128</ele>
        <time>2013-09-14T08:01:50.000Z</time>
      </trkpt>
      <trkpt lat="44.68282" lon="5.6889">
        <ele>1129</ele>
        <time>2013-09-14T08:01:52.000Z</time>
      </trkpt>
      <trkpt lat="44.68287" lon="5.68888">
        <ele>1129</ele>
        <time>2013-09-14T08:01:54.000Z</time>
      </trkpt>
      <trkpt lat="44.68291" lon="5.68886">
        <ele>1129</ele>
        <time>2013-09-14T08:01:56.000Z</time>
      </trkpt>
      <trkpt lat="44.68295" lon="5.68884">
        <ele>1129</ele>
        <time>2013-09-14T08:01:58.000Z</time>
      </trkpt>
      <trkpt lat="44.683" lon="5.68882">
        <ele>1130</ele>
        <time>2013-09-14T08:02:00.000Z</time>
      </trkpt>
      <trkpt lat="44.68305" lon="5.68882">
        <ele>1130</ele>
        <time>2013-09-14T08:02:02.000Z</time>
      </trkpt>
      <trkpt lat="44.68309" lon="5.68879">
        <ele>1130</ele>
        <time>2013-09-14T08:02:04.000Z</time>
      </trkpt>
      <trkpt lat="44.68314" lon="5.68877">
        <ele>1130</ele>
        <time>2013-09-14T08:02:06.000Z</time>
      </trkpt>
      <trkpt lat="44.6832" lon="5.68875">
        <ele>1130</ele>
        <time>2013-09-14T08:02:08.000Z</time>
      </trkpt>
      <trkpt lat="44.68325" lon="5.68873">
        <ele>1130</ele>
        <time>2013-09-14T08:02:10.000Z</time>
      </trkpt>
      <trkpt lat="44.68332" lon="5.68871">
        <ele>1131</ele>
        <time>2013-09-14T08:02:12.000Z</time>
      </trkpt>
      <trkpt lat="44.68338" lon="5.68866">
        <ele>1131</ele>
        <time>2013-09-14T08:02:14.000Z</time>
      </trkpt>
      <trkpt lat="44.68342" lon="5.68864">
        <ele>1132</ele>
        <time>2013-09-14T08:02:15.000Z</time>
      </trkpt>
      <trkpt lat="44.68351" lon="5.68862">
        <ele>1133</ele>
        <time>2013-09-14T08:02:17.000Z</time>
      </trkpt>
      <trkpt lat="44.68355" lon="5.6886">
        <ele>1133</ele>
        <time>2013-09-14T08:02:18.000Z</time>
      </trkpt>
      <trkpt lat="44.6836" lon="5.68858">
        <ele>1133</ele>
        <time>2013-09-14T08:02:19.000Z</time>
      </trkpt>
      <trkpt lat="44.68365" lon="5.68856">
        <ele>1133</ele>
        <time>2013-09-14T08:02:20.000Z</time>
      </trkpt>
      <trkpt lat="44.68374" lon="5.68854">
        <ele>1133</ele>
        <time>2013-09-14T08:02:22.000Z</time>
      </trkpt>
      <trkpt lat="44.68381" lon="5.68849">
        <ele>1133</ele>
        <time>2013-09-14T08:02:24.000Z</time>
      </trkpt>
      <trkpt lat="44.68387" lon="5.68845">
        <ele>1133</ele>
        <time>2013-09-14T08:02:26.000Z</time>
      </trkpt>
      <trkpt lat="44.68392" lon="5.68843">
        <ele>1133</ele>
        <time>2013-09-14T08:02:27.000Z</time>
      </trkpt>
      <trkpt lat="44.68398" lon="5.68836">
        <ele>1133</ele>
        <time>2013-09-14T08:02:29.000Z</time>
      </trkpt>
      <trkpt lat="44.68402" lon="5.6883">
        <ele>1133</ele>
        <time>2013-09-14T08:02:30.000Z</time>
      </trkpt>
      <trkpt lat="44.68409" lon="5.68819">
        <ele>1133</ele>
        <time>2013-09-14T08:02:32.000Z</time>
      </trkpt>
      <trkpt lat="44.68415" lon="5.68808">
        <ele>1133</ele>
        <time>2013-09-14T08:02:34.000Z</time>
      </trkpt>
      <trkpt lat="44.68421" lon="5.68798">
        <ele>1134</ele>
        <time>2013-09-14T08:02:36.000Z</time>
      </trkpt>
      <trkpt lat="44.68427" lon="5.68789">
        <ele>1135</ele>
        <time>2013-09-14T08:02:38.000Z</time>
      </trkpt>
      <trkpt lat="44.6843" lon="5.68783">
        <ele>1135</ele>
        <time>2013-09-14T08:02:39.000Z</time>
      </trkpt>
      <trkpt lat="44.68435" lon="5.68778">
        <ele>1135</ele>
        <time>2013-09-14T08:02:40.000Z</time>
      </trkpt>
      <trkpt lat="44.68439" lon="5.68772">
        <ele>1135</ele>
        <time>2013-09-14T08:02:41.000Z</time>
      </trkpt>
      <trkpt lat="44.68443" lon="5.68763">
        <ele>1135</ele>
        <time>2013-09-14T08:02:42.000Z</time>
      </trkpt>
      <trkpt lat="44.68448" lon="5.68755">
        <ele>1135</ele>
        <time>2013-09-14T08:02:43.000Z</time>
      </trkpt>
      <trkpt lat="44.68452" lon="5.68746">
        <ele>1135</ele>
        <time>2013-09-14T08:02:44.000Z</time>
      </trkpt>
      <trkpt lat="44.68454" lon="5.68738">
        <ele>1134</ele>
        <time>2013-09-14T08:02:45.000Z</time>
      </trkpt>
      <trkpt lat="44.68457" lon="5.68727">
        <ele>1134</ele>
        <time>2013-09-14T08:02:46.000Z</time>
      </trkpt>
      <trkpt lat="44.68462" lon="5.6872">
        <ele>1134</ele>
        <time>2013-09-14T08:02:47.000Z</time>
      </trkpt>
      <trkpt lat="44.68466" lon="5.68714">
        <ele>1134</ele>
        <time>2013-09-14T08:02:48.000Z</time>
      </trkpt>
      <trkpt lat="44.68471" lon="5.6871">
        <ele>1134</ele>
        <time>2013-09-14T08:02:49.000Z</time>
      </trkpt>
      <trkpt lat="44.68475" lon="5.68703">
        <ele>1133</ele>
        <time>2013-09-14T08:02:50.000Z</time>
      </trkpt>
      <trkpt lat="44.6848" lon="5.68699">
        <ele>1133</ele>
        <time>2013-09-14T08:02:51.000Z</time>
      </trkpt>
      <trkpt lat="44.68484" lon="5.68695">
        <ele>1133</ele>
        <time>2013-09-14T08:02:52.000Z</time>
      </trkpt>
      <trkpt lat="44.6849" lon="5.68686">
        <ele>1133</ele>
        <time>2013-09-14T08:02:54.000Z</time>
      </trkpt>
      <trkpt lat="44.68495" lon="5.68682">
        <ele>1133</ele>
        <time>2013-09-14T08:02:55.000Z</time>
      </trkpt>
      <trkpt lat="44.68502" lon="5.68671">
        <ele>1134</ele>
        <time>2013-09-14T08:02:57.000Z</time>
      </trkpt>
      <trkpt lat="44.68508" lon="5.68663">
        <ele>1134</ele>
        <time>2013-09-14T08:02:59.000Z</time>
      </trkpt>
      <trkpt lat="44.68512" lon="5.68652">
        <ele>1135</ele>
        <time>2013-09-14T08:03:01.000Z</time>
      </trkpt>
      <trkpt lat="44.68516" lon="5.68648">
        <ele>1135</ele>
        <time>2013-09-14T08:03:02.000Z</time>
      </trkpt>
      <trkpt lat="44.6852" lon="5.68641">
        <ele>1135</ele>
        <time>2013-09-14T08:03:03.000Z</time>
      </trkpt>
      <trkpt lat="44.68527" lon="5.68635">
        <ele>1135</ele>
        <time>2013-09-14T08:03:04.000Z</time>
      </trkpt>
      <trkpt lat="44.68532" lon="5.68628">
        <ele>1135</ele>
        <time>2013-09-14T08:03:05.000Z</time>
      </trkpt>
      <trkpt lat="44.68538" lon="5.68624">
        <ele>1136</ele>
        <time>2013-09-14T08:03:06.000Z</time>
      </trkpt>
      <trkpt lat="44.68542" lon="5.68618">
        <ele>1136</ele>
        <time>2013-09-14T08:03:07.000Z</time>
      </trkpt>
      <trkpt lat="44.68546" lon="5.68611">
        <ele>1137</ele>
        <time>2013-09-14T08:03:08.000Z</time>
      </trkpt>
      <trkpt lat="44.6855" lon="5.68605">
        <ele>1137</ele>
        <time>2013-09-14T08:03:09.000Z</time>
      </trkpt>
      <trkpt lat="44.68553" lon="5.68598">
        <ele>1138</ele>
        <time>2013-09-14T08:03:10.000Z</time>
      </trkpt>
      <trkpt lat="44.68556" lon="5.68592">
        <ele>1138</ele>
        <time>2013-09-14T08:03:11.000Z</time>
      </trkpt>
      <trkpt lat="44.68558" lon="5.68585">
        <ele>1136</ele>
        <time>2013-09-14T08:03:12.000Z</time>
      </trkpt>
      <trkpt lat="44.68561" lon="5.68577">
        <ele>1134</ele>
        <time>2013-09-14T08:03:13.000Z</time>
      </trkpt>
      <trkpt lat="44.68564" lon="5.6857">
        <ele>1133</ele>
        <time>2013-09-14T08:03:14.000Z</time>
      </trkpt>
      <trkpt lat="44.68567" lon="5.68562">
        <ele>1131</ele>
        <time>2013-09-14T08:03:15.000Z</time>
      </trkpt>
      <trkpt lat="44.68569" lon="5.68553">
        <ele>1130</ele>
        <time>2013-09-14T08:03:16.000Z</time>
      </trkpt>
      <trkpt lat="44.68572" lon="5.68547">
        <ele>1129</ele>
        <time>2013-09-14T08:03:17.000Z</time>
      </trkpt>
      <trkpt lat="44.68575" lon="5.68538">
        <ele>1128</ele>
        <time>2013-09-14T08:03:18.000Z</time>
      </trkpt>
      <trkpt lat="44.6858" lon="5.68532">
        <ele>1127</ele>
        <time>2013-09-14T08:03:19.000Z</time>
      </trkpt>
      <trkpt lat="44.68583" lon="5.68525">
        <ele>1127</ele>
        <time>2013-09-14T08:03:20.000Z</time>
      </trkpt>
      <trkpt lat="44.68587" lon="5.68519">
        <ele>1126</ele>
        <time>2013-09-14T08:03:21.000Z</time>
      </trkpt>
      <trkpt lat="44.68591" lon="5.68512">
        <ele>1126</ele>
        <time>2013-09-14T08:03:22.000Z</time>
      </trkpt>
      <trkpt lat="44.68596" lon="5.68506">
        <ele>1126</ele>
        <time>2013-09-14T08:03:23.000Z</time>
      </trkpt>
      <trkpt lat="44.686" lon="5.685">
        <ele>1125</ele>
        <time>2013-09-14T08:03:24.000Z</time>
      </trkpt>
      <trkpt lat="44.68604" lon="5.68495">
        <ele>1125</ele>
        <time>2013-09-14T08:03:25.000Z</time>
      </trkpt>
      <trkpt lat="44.68608" lon="5.68489">
        <ele>1125</ele>
        <time>2013-09-14T08:03:26.000Z</time>
      </trkpt>
      <trkpt lat="44.68615" lon="5.68482">
        <ele>1125</ele>
        <time>2013-09-14T08:03:28.000Z</time>
      </trkpt>
      <trkpt lat="44.68624" lon="5.68472">
        <ele>1125</ele>
        <time>2013-09-14T08:03:33.000Z</time>
      </trkpt>
      <trkpt lat="44.68624" lon="5.68472">
        <ele>1125</ele>
        <time>2013-09-14T08:03:33.000Z</time>
      </trkpt>
      <trkpt lat="44.68624" lon="5.68472">
        <ele>1125</ele>
        <time>2013-09-14T08:03:37.000Z</time>
      </trkpt>
      <trkpt lat="44.68631" lon="5.68465">
        <ele>1124</ele>
        <time>2013-09-14T08:03:38.000Z</time>
      </trkpt>
      <trkpt lat="44.68631" lon="5.68465">
        <ele>1124</ele>
        <time>2013-09-14T08:03:38.000Z</time>
      </trkpt>
      <trkpt lat="44.68631" lon="5.68465">
        <ele>1124</ele>
        <time>2013-09-14T08:04:48.000Z</time>
      </trkpt>
      <trkpt lat="44.68636" lon="5.6845">
        <ele>1122</ele>
        <time>2013-09-14T08:04:49.000Z</time>
      </trkpt>
      <trkpt lat="44.68636" lon="5.6845">
        <ele>1122</ele>
        <time>2013-09-14T08:04:49.000Z</time>
      </trkpt>
      <trkpt lat="44.68636" lon="5.6845">
        <ele>1122</ele>
        <time>2013-09-14T08:04:50.000Z</time>
      </trkpt>
      <trkpt lat="44.68633" lon="5.68435">
        <ele>1122</ele>
        <time>2013-09-14T08:04:51.000Z</time>
      </trkpt>
      <trkpt lat="44.68632" lon="5.68427">
        <ele>1122</ele>
        <time>2013-09-14T08:04:52.000Z</time>
      </trkpt>
      <trkpt lat="44.6863" lon="5.68416">
        <ele>1121</ele>
        <time>2013-09-14T08:04:54.000Z</time>
      </trkpt>
      <trkpt lat="44.6863" lon="5.68405">
        <ele>1121</ele>
        <time>2013-09-14T08:04:56.000Z</time>
      </trkpt>
      <trkpt lat="44.6863" lon="5.68399">
        <ele>1119</ele>
        <time>2013-09-14T08:04:57.000Z</time>
      </trkpt>
      <trkpt lat="44.6863" lon="5.6839">
        <ele>1117</ele>
        <time>2013-09-14T08:04:58.000Z</time>
      </trkpt>
      <trkpt lat="44.6863" lon="5.68384">
        <ele>1116</ele>
        <time>2013-09-14T08:04:59.000Z</time>
      </trkpt>
      <trkpt lat="44.6863" lon="5.68377">
        <ele>1114</ele>
        <time>2013-09-14T08:05:00.000Z</time>
      </trkpt>
      <trkpt lat="44.6863" lon="5.68371">
        <ele>1114</ele>
        <time>2013-09-14T08:05:01.000Z</time>
      </trkpt>
      <trkpt lat="44.68629" lon="5.6836">
        <ele>1113</ele>
        <time>2013-09-14T08:05:03.000Z</time>
      </trkpt>
      <trkpt lat="44.68628" lon="5.68352">
        <ele>1112</ele>
        <time>2013-09-14T08:05:05.000Z</time>
      </trkpt>
      <trkpt lat="44.68628" lon="5.68345">
        <ele>1112</ele>
        <time>2013-09-14T08:05:06.000Z</time>
      </trkpt>
      <trkpt lat="44.68627" lon="5.68336">
        <ele>1112</ele>
        <time>2013-09-14T08:05:08.000Z</time>
      </trkpt>
      <trkpt lat="44.68627" lon="5.6833">
        <ele>1112</ele>
        <time>2013-09-14T08:05:09.000Z</time>
      </trkpt>
      <trkpt lat="44.68628" lon="5.68321">
        <ele>1112</ele>
        <time>2013-09-14T08:05:11.000Z</time>
      </trkpt>
      <trkpt lat="44.68628" lon="5.68313">
        <ele>1112</ele>
        <time>2013-09-14T08:05:13.000Z</time>
      </trkpt>
      <trkpt lat="44.68628" lon="5.68304">
        <ele>1112</ele>
        <time>2013-09-14T08:05:15.000Z</time>
      </trkpt>
      <trkpt lat="44.68629" lon="5.68296">
        <ele>1112</ele>
        <time>2013-09-14T08:05:17.000Z</time>
      </trkpt>
      <trkpt lat="44.68629" lon="5.68287">
        <ele>1112</ele>
        <time>2013-09-14T08:05:19.000Z</time>
      </trkpt>
      <trkpt lat="44.6863" lon="5.68281">
        <ele>1112</ele>
        <time>2013-09-14T08:05:21.000Z</time>
      </trkpt>
      <trkpt lat="44.68632" lon="5.68272">
        <ele>1112</ele>
        <time>2013-09-14T08:05:23.000Z</time>
      </trkpt>
      <trkpt lat="44.68634" lon="5.68266">
        <ele>1112</ele>
        <time>2013-09-14T08:05:25.000Z</time>
      </trkpt>
      <trkpt lat="44.68635" lon="5.68259">
        <ele>1112</ele>
        <time>2013-09-14T08:05:27.000Z</time>
      </trkpt>
      <trkpt lat="44.68642" lon="5.68251">
        <ele>1112</ele>
        <time>2013-09-14T08:05:31.000Z</time>
      </trkpt>
      <trkpt lat="44.68642" lon="5.68251">
        <ele>1112</ele>
        <time>2013-09-14T08:05:31.000Z</time>
      </trkpt>
      <trkpt lat="44.68642" lon="5.68251">
        <ele>1112</ele>
        <time>2013-09-14T08:05:33.000Z</time>
      </trkpt>
      <trkpt lat="44.68646" lon="5.68244">
        <ele>1112</ele>
        <time>2013-09-14T08:05:34.000Z</time>
      </trkpt>
      <trkpt lat="44.68646" lon="5.68244">
        <ele>1112</ele>
        <time>2013-09-14T08:05:34.000Z</time>
      </trkpt>
      <trkpt lat="44.68646" lon="5.68244">
        <ele>1112</ele>
        <time>2013-09-14T08:05:38.000Z</time>
      </trkpt>
      <trkpt lat="44.68655" lon="5.68236">
        <ele>1112</ele>
        <time>2013-09-14T08:05:39.000Z</time>
      </trkpt>
      <trkpt lat="44.68655" lon="5.68236">
        <ele>1112</ele>
        <time>2013-09-14T08:05:39.000Z</time>
      </trkpt>
      <trkpt lat="44.68655" lon="5.68236">
        <ele>1112</ele>
        <time>2013-09-14T08:05:43.000Z</time>
      </trkpt>
      <trkpt lat="44.68662" lon="5.68225">
        <ele>1112</ele>
        <time>2013-09-14T08:05:44.000Z</time>
      </trkpt>
      <trkpt lat="44.68662" lon="5.68225">
        <ele>1112</ele>
        <time>2013-09-14T08:05:44.000Z</time>
      </trkpt>
      <trkpt lat="44.68662" lon="5.68225">
        <ele>1112</ele>
        <time>2013-09-14T08:05:45.000Z</time>
      </trkpt>
      <trkpt lat="44.68668" lon="5.68206">
        <ele>1112</ele>
        <time>2013-09-14T08:05:51.000Z</time>
      </trkpt>
      <trkpt lat="44.6867" lon="5.68199">
        <ele>1112</ele>
        <time>2013-09-14T08:05:53.000Z</time>
      </trkpt>
      <trkpt lat="44.6867" lon="5.68193">
        <ele>1112</ele>
        <time>2013-09-14T08:05:55.000Z</time>
      </trkpt>
      <trkpt lat="44.68671" lon="5.68184">
        <ele>1112</ele>
        <time>2013-09-14T08:05:57.000Z</time>
      </trkpt>
      <trkpt lat="44.68671" lon="5.68173">
        <ele>1112</ele>
        <time>2013-09-14T08:05:59.000Z</time>
      </trkpt>
      <trkpt lat="44.68672" lon="5.68165">
        <ele>1112</ele>
        <time>2013-09-14T08:06:01.000Z</time>
      </trkpt>
      <trkpt lat="44.68672" lon="5.68158">
        <ele>1112</ele>
        <time>2013-09-14T08:06:02.000Z</time>
      </trkpt>
      <trkpt lat="44.68673" lon="5.68148">
        <ele>1113</ele>
        <time>2013-09-14T08:06:04.000Z</time>
      </trkpt>
      <trkpt lat="44.68675" lon="5.68139">
        <ele>1113</ele>
        <time>2013-09-14T08:06:06.000Z</time>
      </trkpt>
      <trkpt lat="44.68677" lon="5.6813">
        <ele>1113</ele>
        <time>2013-09-14T08:06:08.000Z</time>
      </trkpt>
      <trkpt lat="44.68678" lon="5.68124">
        <ele>1113</ele>
        <time>2013-09-14T08:06:09.000Z</time>
      </trkpt>
      <trkpt lat="44.68681" lon="5.68115">
        <ele>1113</ele>
        <time>2013-09-14T08:06:11.000Z</time>
      </trkpt>
      <trkpt lat="44.68685" lon="5.68105">
        <ele>1114</ele>
        <time>2013-09-14T08:06:13.000Z</time>
      </trkpt>
      <trkpt lat="44.68689" lon="5.68094">
        <ele>1114</ele>
        <time>2013-09-14T08:06:15.000Z</time>
      </trkpt>
      <trkpt lat="44.68692" lon="5.68083">
        <ele>1114</ele>
        <time>2013-09-14T08:06:17.000Z</time>
      </trkpt>
      <trkpt lat="44.68695" lon="5.68072">
        <ele>1114</ele>
        <time>2013-09-14T08:06:19.000Z</time>
      </trkpt>
      <trkpt lat="44.68698" lon="5.68062">
        <ele>1114</ele>
        <time>2013-09-14T08:06:21.000Z</time>
      </trkpt>
      <trkpt lat="44.68698" lon="5.68055">
        <ele>1114</ele>
        <time>2013-09-14T08:06:22.000Z</time>
      </trkpt>
      <trkpt lat="44.687" lon="5.68047">
        <ele>1114</ele>
        <time>2013-09-14T08:06:24.000Z</time>
      </trkpt>
      <trkpt lat="44.68701" lon="5.6804">
        <ele>1114</ele>
        <time>2013-09-14T08:06:25.000Z</time>
      </trkpt>
      <trkpt lat="44.68702" lon="5.68032">
        <ele>1114</ele>
        <time>2013-09-14T08:06:27.000Z</time>
      </trkpt>
      <trkpt lat="44.68703" lon="5.68025">
        <ele>1114</ele>
        <time>2013-09-14T08:06:28.000Z</time>
      </trkpt>
      <trkpt lat="44.68704" lon="5.68017">
        <ele>1114</ele>
        <time>2013-09-14T08:06:30.000Z</time>
      </trkpt>
      <trkpt lat="44.68708" lon="5.68008">
        <ele>1114</ele>
        <time>2013-09-14T08:06:32.000Z</time>
      </trkpt>
      <trkpt lat="44.68712" lon="5.68002">
        <ele>1114</ele>
        <time>2013-09-14T08:06:34.000Z</time>
      </trkpt>
      <trkpt lat="44.68717" lon="5.67993">
        <ele>1113</ele>
        <time>2013-09-14T08:06:36.000Z</time>
      </trkpt>
      <trkpt lat="44.6872" lon="5.67984">
        <ele>1113</ele>
        <time>2013-09-14T08:06:38.000Z</time>
      </trkpt>
      <trkpt lat="44.68723" lon="5.67976">
        <ele>1113</ele>
        <time>2013-09-14T08:06:40.000Z</time>
      </trkpt>
      <trkpt lat="44.68728" lon="5.67967">
        <ele>1113</ele>
        <time>2013-09-14T08:06:42.000Z</time>
      </trkpt>
      <trkpt lat="44.68731" lon="5.67961">
        <ele>1113</ele>
        <time>2013-09-14T08:06:44.000Z</time>
      </trkpt>
      <trkpt lat="44.68735" lon="5.67954">
        <ele>1112</ele>
        <time>2013-09-14T08:06:46.000Z</time>
      </trkpt>
      <trkpt lat="44.68738" lon="5.67948">
        <ele>1112</ele>
        <time>2013-09-14T08:06:48.000Z</time>
      </trkpt>
      <trkpt lat="44.68742" lon="5.67942">
        <ele>1112</ele>
        <time>2013-09-14T08:06:50.000Z</time>
      </trkpt>
      <trkpt lat="44.68745" lon="5.67933">
        <ele>1112</ele>
        <time>2013-09-14T08:06:52.000Z</time>
      </trkpt>
      <trkpt lat="44.68748" lon="5.67927">
        <ele>1112</ele>
        <time>2013-09-14T08:06:54.000Z</time>
      </trkpt>
      <trkpt lat="44.68749" lon="5.67918">
        <ele>1112</ele>
        <time>2013-09-14T08:06:56.000Z</time>
      </trkpt>
      <trkpt lat="44.6875" lon="5.67909">
        <ele>1112</ele>
        <time>2013-09-14T08:06:58.000Z</time>
      </trkpt>
      <trkpt lat="44.6875" lon="5.67901">
        <ele>1112</ele>
        <time>2013-09-14T08:07:00.000Z</time>
      </trkpt>
      <trkpt lat="44.6875" lon="5.67892">
        <ele>1112</ele>
        <time>2013-09-14T08:07:02.000Z</time>
      </trkpt>
      <trkpt lat="44.6875" lon="5.67886">
        <ele>1112</ele>
        <time>2013-09-14T08:07:04.000Z</time>
      </trkpt>
      <trkpt lat="44.68749" lon="5.67877">
        <ele>1112</ele>
        <time>2013-09-14T08:07:06.000Z</time>
      </trkpt>
      <trkpt lat="44.68749" lon="5.67869">
        <ele>1112</ele>
        <time>2013-09-14T08:07:08.000Z</time>
      </trkpt>
      <trkpt lat="44.68748" lon="5.6786">
        <ele>1112</ele>
        <time>2013-09-14T08:07:10.000Z</time>
      </trkpt>
      <trkpt lat="44.68748" lon="5.67852">
        <ele>1112</ele>
        <time>2013-09-14T08:07:12.000Z</time>
      </trkpt>
      <trkpt lat="44.68747" lon="5.67845">
        <ele>1112</ele>
        <time>2013-09-14T08:07:14.000Z</time>
      </trkpt>
      <trkpt lat="44.68749" lon="5.67839">
        <ele>1112</ele>
        <time>2013-09-14T08:07:16.000Z</time>
      </trkpt>
      <trkpt lat="44.68749" lon="5.6783">
        <ele>1112</ele>
        <time>2013-09-14T08:07:18.000Z</time>
      </trkpt>
      <trkpt lat="44.68751" lon="5.67824">
        <ele>1112</ele>
        <time>2013-09-14T08:07:20.000Z</time>
      </trkpt>
      <trkpt lat="44.68753" lon="5.67817">
        <ele>1112</ele>
        <time>2013-09-14T08:07:22.000Z</time>
      </trkpt>
      <trkpt lat="44.68758" lon="5.67809">
        <ele>1112</ele>
        <time>2013-09-14T08:07:25.000Z</time>
      </trkpt>
      <trkpt lat="44.68761" lon="5.67802">
        <ele>1112</ele>
        <time>2013-09-14T08:07:28.000Z</time>
      </trkpt>
      <trkpt lat="44.68761" lon="5.67802">
        <ele>1112</ele>
        <time>2013-09-14T08:07:28.000Z</time>
      </trkpt>
      <trkpt lat="44.68761" lon="5.67802">
        <ele>1112</ele>
        <time>2013-09-14T08:07:30.000Z</time>
      </trkpt>
      <trkpt lat="44.68763" lon="5.67791">
        <ele>1112</ele>
        <time>2013-09-14T08:07:31.000Z</time>
      </trkpt>
      <trkpt lat="44.68763" lon="5.67791">
        <ele>1112</ele>
        <time>2013-09-14T08:07:31.000Z</time>
      </trkpt>
      <trkpt lat="44.68763" lon="5.67791">
        <ele>1112</ele>
        <time>2013-09-14T08:07:34.000Z</time>
      </trkpt>
      <trkpt lat="44.68766" lon="5.67774">
        <ele>1112</ele>
        <time>2013-09-14T08:07:35.000Z</time>
      </trkpt>
      <trkpt lat="44.68767" lon="5.67766">
        <ele>1112</ele>
        <time>2013-09-14T08:07:37.000Z</time>
      </trkpt>
      <trkpt lat="44.68767" lon="5.67766">
        <ele>1112</ele>
        <time>2013-09-14T08:07:37.000Z</time>
      </trkpt>
      <trkpt lat="44.68767" lon="5.67766">
        <ele>1112</ele>
        <time>2013-09-14T08:07:40.000Z</time>
      </trkpt>
      <trkpt lat="44.6877" lon="5.67753">
        <ele>1112</ele>
        <time>2013-09-14T08:07:41.000Z</time>
      </trkpt>
      <trkpt lat="44.6877" lon="5.67753">
        <ele>1112</ele>
        <time>2013-09-14T08:07:41.000Z</time>
      </trkpt>
      <trkpt lat="44.6877" lon="5.67753">
        <ele>1112</ele>
        <time>2013-09-14T08:07:44.000Z</time>
      </trkpt>
      <trkpt lat="44.68774" lon="5.67742">
        <ele>1112</ele>
        <time>2013-09-14T08:07:45.000Z</time>
      </trkpt>
      <trkpt lat="44.68774" lon="5.67742">
        <ele>1112</ele>
        <time>2013-09-14T08:07:45.000Z</time>
      </trkpt>
      <trkpt lat="44.68774" lon="5.67742">
        <ele>1112</ele>
        <time>2013-09-14T08:07:49.000Z</time>
      </trkpt>
      <trkpt lat="44.68777" lon="5.67729">
        <ele>1112</ele>
        <time>2013-09-14T08:07:50.000Z</time>
      </trkpt>
      <trkpt lat="44.68777" lon="5.67729">
        <ele>1112</ele>
        <time>2013-09-14T08:07:50.000Z</time>
      </trkpt>
      <trkpt lat="44.68777" lon="5.67729">
        <ele>1112</ele>
        <time>2013-09-14T08:07:53.000Z</time>
      </trkpt>
      <trkpt lat="44.6878" lon="5.67716">
        <ele>1112</ele>
        <time>2013-09-14T08:07:54.000Z</time>
      </trkpt>
      <trkpt lat="44.6878" lon="5.67716">
        <ele>1112</ele>
        <time>2013-09-14T08:07:54.000Z</time>
      </trkpt>
      <trkpt lat="44.6878" lon="5.67716">
        <ele>1112</ele>
        <time>2013-09-14T08:07:57.000Z</time>
      </trkpt>
      <trkpt lat="44.68781" lon="5.67703">
        <ele>1111</ele>
        <time>2013-09-14T08:07:58.000Z</time>
      </trkpt>
      <trkpt lat="44.68781" lon="5.67703">
        <ele>1111</ele>
        <time>2013-09-14T08:07:58.000Z</time>
      </trkpt>
      <trkpt lat="44.68781" lon="5.67703">
        <ele>1111</ele>
        <time>2013-09-14T08:08:00.000Z</time>
      </trkpt>
      <trkpt lat="44.68781" lon="5.67693">
        <ele>1111</ele>
        <time>2013-09-14T08:08:01.000Z</time>
      </trkpt>
      <trkpt lat="44.68781" lon="5.67693">
        <ele>1111</ele>
        <time>2013-09-14T08:08:01.000Z</time>
      </trkpt>
      <trkpt lat="44.68781" lon="5.67693">
        <ele>1111</ele>
        <time>2013-09-14T08:08:03.000Z</time>
      </trkpt>
      <trkpt lat="44.68781" lon="5.67684">
        <ele>1111</ele>
        <time>2013-09-14T08:08:04.000Z</time>
      </trkpt>
      <trkpt lat="44.6878" lon="5.67678">
        <ele>1111</ele>
        <time>2013-09-14T08:08:06.000Z</time>
      </trkpt>
      <trkpt lat="44.68779" lon="5.67671">
        <ele>1111</ele>
        <time>2013-09-14T08:08:09.000Z</time>
      </trkpt>
      <trkpt lat="44.68778" lon="5.67665">
        <ele>1111</ele>
        <time>2013-09-14T08:08:14.000Z</time>
      </trkpt>
      <trkpt lat="44.68778" lon="5.67665">
        <ele>1111</ele>
        <time>2013-09-14T08:08:14.000Z</time>
      </trkpt>
      <trkpt lat="44.68778" lon="5.67665">
        <ele>1111</ele>
        <time>2013-09-14T08:08:15.000Z</time>
      </trkpt>
      <trkpt lat="44.68779" lon="5.67658">
        <ele>1111</ele>
        <time>2013-09-14T08:08:20.000Z</time>
      </trkpt>
      <trkpt lat="44.68779" lon="5.67658">
        <ele>1111</ele>
        <time>2013-09-14T08:08:20.000Z</time>
      </trkpt>
      <trkpt lat="44.68779" lon="5.67658">
        <ele>1111</ele>
        <time>2013-09-14T08:08:25.000Z</time>
      </trkpt>
      <trkpt lat="44.68773" lon="5.6766">
        <ele>1111</ele>
        <time>2013-09-14T08:08:30.000Z</time>
      </trkpt>
      <trkpt lat="44.68768" lon="5.67665">
        <ele>1112</ele>
        <time>2013-09-14T08:08:34.000Z</time>
      </trkpt>
      <trkpt lat="44.68768" lon="5.67665">
        <ele>1112</ele>
        <time>2013-09-14T08:08:34.000Z</time>
      </trkpt>
      <trkpt lat="44.68768" lon="5.67665">
        <ele>1112</ele>
        <time>2013-09-14T08:08:35.000Z</time>
      </trkpt>
      <trkpt lat="44.68766" lon="5.67658">
        <ele>1114</ele>
        <time>2013-09-14T08:09:04.000Z</time>
      </trkpt>
      <trkpt lat="44.68772" lon="5.67658">
        <ele>1114</ele>
        <time>2013-09-14T08:09:14.000Z</time>
      </trkpt>
      <trkpt lat="44.68775" lon="5.67663">
        <ele>1114</ele>
        <time>2013-09-14T08:09:23.000Z</time>
      </trkpt>
      <trkpt lat="44.68777" lon="5.67656">
        <ele>1115</ele>
        <time>2013-09-14T08:09:34.000Z</time>
      </trkpt>
      <trkpt lat="44.68777" lon="5.6765">
        <ele>1115</ele>
        <time>2013-09-14T08:09:36.000Z</time>
      </trkpt>
      <trkpt lat="44.68777" lon="5.67641">
        <ele>1115</ele>
        <time>2013-09-14T08:09:38.000Z</time>
      </trkpt>
      <trkpt lat="44.68777" lon="5.67633">
        <ele>1115</ele>
        <time>2013-09-14T08:09:40.000Z</time>
      </trkpt>
      <trkpt lat="44.68778" lon="5.67624">
        <ele>1115</ele>
        <time>2013-09-14T08:09:42.000Z</time>
      </trkpt>
      <trkpt lat="44.68778" lon="5.67616">
        <ele>1115</ele>
        <time>2013-09-14T08:09:44.000Z</time>
      </trkpt>
      <trkpt lat="44.68778" lon="5.67607">
        <ele>1115</ele>
        <time>2013-09-14T08:09:46.000Z</time>
      </trkpt>
      <trkpt lat="44.68778" lon="5.67598">
        <ele>1115</ele>
        <time>2013-09-14T08:09:48.000Z</time>
      </trkpt>
      <trkpt lat="44.68778" lon="5.67592">
        <ele>1115</ele>
        <time>2013-09-14T08:09:50.000Z</time>
      </trkpt>
      <trkpt lat="44.68779" lon="5.67583">
        <ele>1116</ele>
        <time>2013-09-14T08:09:52.000Z</time>
      </trkpt>
      <trkpt lat="44.6878" lon="5.67575">
        <ele>1116</ele>
        <time>2013-09-14T08:09:54.000Z</time>
      </trkpt>
      <trkpt lat="44.68782" lon="5.67568">
        <ele>1116</ele>
        <time>2013-09-14T08:09:56.000Z</time>
      </trkpt>
      <trkpt lat="44.68783" lon="5.67562">
        <ele>1116</ele>
        <time>2013-09-14T08:09:58.000Z</time>
      </trkpt>
      <trkpt lat="44.68784" lon="5.67555">
        <ele>1117</ele>
        <time>2013-09-14T08:10:00.000Z</time>
      </trkpt>
      <trkpt lat="44.68786" lon="5.67547">
        <ele>1117</ele>
        <time>2013-09-14T08:10:02.000Z</time>
      </trkpt>
      <trkpt lat="44.68786" lon="5.6754">
        <ele>1117</ele>
        <time>2013-09-14T08:10:04.000Z</time>
      </trkpt>
      <trkpt lat="44.68786" lon="5.67532">
        <ele>1117</ele>
        <time>2013-09-14T08:10:06.000Z</time>
      </trkpt>
      <trkpt lat="44.68786" lon="5.67523">
        <ele>1118</ele>
        <time>2013-09-14T08:10:08.000Z</time>
      </trkpt>
      <trkpt lat="44.68786" lon="5.67517">
        <ele>1118</ele>
        <time>2013-09-14T08:10:09.000Z</time>
      </trkpt>
      <trkpt lat="44.68786" lon="5.67508">
        <ele>1118</ele>
        <time>2013-09-14T08:10:11.000Z</time>
      </trkpt>
      <trkpt lat="44.68786" lon="5.67497">
        <ele>1119</ele>
        <time>2013-09-14T08:10:13.000Z</time>
      </trkpt>
      <trkpt lat="44.68786" lon="5.67489">
        <ele>1119</ele>
        <time>2013-09-14T08:10:15.000Z</time>
      </trkpt>
      <trkpt lat="44.68784" lon="5.67478">
        <ele>1119</ele>
        <time>2013-09-14T08:10:17.000Z</time>
      </trkpt>
      <trkpt lat="44.68784" lon="5.6747">
        <ele>1120</ele>
        <time>2013-09-14T08:10:19.000Z</time>
      </trkpt>
      <trkpt lat="44.68783" lon="5.67463">
        <ele>1120</ele>
        <time>2013-09-14T08:10:20.000Z</time>
      </trkpt>
      <trkpt lat="44.68783" lon="5.67454">
        <ele>1120</ele>
        <time>2013-09-14T08:10:22.000Z</time>
      </trkpt>
      <trkpt lat="44.68783" lon="5.67444">
        <ele>1121</ele>
        <time>2013-09-14T08:10:24.000Z</time>
      </trkpt>
      <trkpt lat="44.68782" lon="5.67435">
        <ele>1121</ele>
        <time>2013-09-14T08:10:26.000Z</time>
      </trkpt>
      <trkpt lat="44.68782" lon="5.67427">
        <ele>1121</ele>
        <time>2013-09-14T08:10:28.000Z</time>
      </trkpt>
      <trkpt lat="44.68782" lon="5.67418">
        <ele>1122</ele>
        <time>2013-09-14T08:10:30.000Z</time>
      </trkpt>
      <trkpt lat="44.68782" lon="5.67412">
        <ele>1122</ele>
        <time>2013-09-14T08:10:31.000Z</time>
      </trkpt>
      <trkpt lat="44.68782" lon="5.67403">
        <ele>1122</ele>
        <time>2013-09-14T08:10:33.000Z</time>
      </trkpt>
      <trkpt lat="44.68782" lon="5.67394">
        <ele>1123</ele>
        <time>2013-09-14T08:10:35.000Z</time>
      </trkpt>
      <trkpt lat="44.68782" lon="5.67384">
        <ele>1123</ele>
        <time>2013-09-14T08:10:37.000Z</time>
      </trkpt>
      <trkpt lat="44.68782" lon="5.67375">
        <ele>1123</ele>
        <time>2013-09-14T08:10:39.000Z</time>
      </trkpt>
      <trkpt lat="44.68783" lon="5.67367">
        <ele>1124</ele>
        <time>2013-09-14T08:10:41.000Z</time>
      </trkpt>
      <trkpt lat="44.68783" lon="5.67358">
        <ele>1124</ele>
        <time>2013-09-14T08:10:43.000Z</time>
      </trkpt>
      <trkpt lat="44.68786" lon="5.67349">
        <ele>1124</ele>
        <time>2013-09-14T08:10:45.000Z</time>
      </trkpt>
      <trkpt lat="44.68786" lon="5.67343">
        <ele>1124</ele>
        <time>2013-09-14T08:10:47.000Z</time>
      </trkpt>
      <trkpt lat="44.68788" lon="5.67334">
        <ele>1125</ele>
        <time>2013-09-14T08:10:49.000Z</time>
      </trkpt>
      <trkpt lat="44.68788" lon="5.67326">
        <ele>1125</ele>
        <time>2013-09-14T08:10:51.000Z</time>
      </trkpt>
      <trkpt lat="44.68789" lon="5.67319">
        <ele>1125</ele>
        <time>2013-09-14T08:10:53.000Z</time>
      </trkpt>
      <trkpt lat="44.68789" lon="5.67311">
        <ele>1125</ele>
        <time>2013-09-14T08:10:55.000Z</time>
      </trkpt>
      <trkpt lat="44.68788" lon="5.67304">
        <ele>1126</ele>
        <time>2013-09-14T08:10:57.000Z</time>
      </trkpt>
      <trkpt lat="44.68786" lon="5.67296">
        <ele>1126</ele>
        <time>2013-09-14T08:10:59.000Z</time>
      </trkpt>
      <trkpt lat="44.68782" lon="5.67289">
        <ele>1126</ele>
        <time>2013-09-14T08:11:01.000Z</time>
      </trkpt>
      <trkpt lat="44.68779" lon="5.67283">
        <ele>1126</ele>
        <time>2013-09-14T08:11:03.000Z</time>
      </trkpt>
      <trkpt lat="44.68775" lon="5.67276">
        <ele>1127</ele>
        <time>2013-09-14T08:11:05.000Z</time>
      </trkpt>
      <trkpt lat="44.6877" lon="5.6727">
        <ele>1127</ele>
        <time>2013-09-14T08:11:07.000Z</time>
      </trkpt>
      <trkpt lat="44.68765" lon="5.67264">
        <ele>1127</ele>
        <time>2013-09-14T08:11:09.000Z</time>
      </trkpt>
      <trkpt lat="44.68761" lon="5.67255">
        <ele>1128</ele>
        <time>2013-09-14T08:11:11.000Z</time>
      </trkpt>
      <trkpt lat="44.68756" lon="5.67248">
        <ele>1128</ele>
        <time>2013-09-14T08:11:13.000Z</time>
      </trkpt>
      <trkpt lat="44.68751" lon="5.67242">
        <ele>1128</ele>
        <time>2013-09-14T08:11:15.000Z</time>
      </trkpt>
      <trkpt lat="44.68747" lon="5.67236">
        <ele>1129</ele>
        <time>2013-09-14T08:11:17.000Z</time>
      </trkpt>
      <trkpt lat="44.68742" lon="5.67229">
        <ele>1129</ele>
        <time>2013-09-14T08:11:19.000Z</time>
      </trkpt>
      <trkpt lat="44.68738" lon="5.67221">
        <ele>1129</ele>
        <time>2013-09-14T08:11:21.000Z</time>
      </trkpt>
      <trkpt lat="44.68736" lon="5.67214">
        <ele>1130</ele>
        <time>2013-09-14T08:11:23.000Z</time>
      </trkpt>
      <trkpt lat="44.68734" lon="5.67206">
        <ele>1130</ele>
        <time>2013-09-14T08:11:25.000Z</time>
      </trkpt>
      <trkpt lat="44.68732" lon="5.67199">
        <ele>1130</ele>
        <time>2013-09-14T08:11:27.000Z</time>
      </trkpt>
      <trkpt lat="44.68731" lon="5.67191">
        <ele>1131</ele>
        <time>2013-09-14T08:11:29.000Z</time>
      </trkpt>
      <trkpt lat="44.68729" lon="5.67182">
        <ele>1131</ele>
        <time>2013-09-14T08:11:31.000Z</time>
      </trkpt>
      <trkpt lat="44.68728" lon="5.67173">
        <ele>1132</ele>
        <time>2013-09-14T08:11:34.000Z</time>
      </trkpt>
      <trkpt lat="44.68728" lon="5.67167">
        <ele>1132</ele>
        <time>2013-09-14T08:11:37.000Z</time>
      </trkpt>
      <trkpt lat="44.68729" lon="5.67161">
        <ele>1132</ele>
        <time>2013-09-14T08:11:39.000Z</time>
      </trkpt>
      <trkpt lat="44.6873" lon="5.67154">
        <ele>1133</ele>
        <time>2013-09-14T08:11:41.000Z</time>
      </trkpt>
      <trkpt lat="44.68732" lon="5.67148">
        <ele>1133</ele>
        <time>2013-09-14T08:11:43.000Z</time>
      </trkpt>
      <trkpt lat="44.68734" lon="5.67141">
        <ele>1133</ele>
        <time>2013-09-14T08:11:45.000Z</time>
      </trkpt>
      <trkpt lat="44.68737" lon="5.67135">
        <ele>1134</ele>
        <time>2013-09-14T08:11:47.000Z</time>
      </trkpt>
      <trkpt lat="44.6874" lon="5.67126">
        <ele>1134</ele>
        <time>2013-09-14T08:11:49.000Z</time>
      </trkpt>
      <trkpt lat="44.68745" lon="5.6712">
        <ele>1135</ele>
        <time>2013-09-14T08:11:51.000Z</time>
      </trkpt>
      <trkpt lat="44.68749" lon="5.67111">
        <ele>1136</ele>
        <time>2013-09-14T08:11:54.000Z</time>
      </trkpt>
      <trkpt lat="44.68751" lon="5.67105">
        <ele>1136</ele>
        <time>2013-09-14T08:11:56.000Z</time>
      </trkpt>
      <trkpt lat="44.68753" lon="5.67098">
        <ele>1137</ele>
        <time>2013-09-14T08:11:58.000Z</time>
      </trkpt>
      <trkpt lat="44.68754" lon="5.67092">
        <ele>1137</ele>
        <time>2013-09-14T08:12:00.000Z</time>
      </trkpt>
      <trkpt lat="44.68754" lon="5.67086">
        <ele>1138</ele>
        <time>2013-09-14T08:12:02.000Z</time>
      </trkpt>
      <trkpt lat="44.68753" lon="5.67079">
        <ele>1138</ele>
        <time>2013-09-14T08:12:04.000Z</time>
      </trkpt>
      <trkpt lat="44.68754" lon="5.6707">
        <ele>1139</ele>
        <time>2013-09-14T08:12:07.000Z</time>
      </trkpt>
      <trkpt lat="44.68756" lon="5.67062">
        <ele>1139</ele>
        <time>2013-09-14T08:12:10.000Z</time>
      </trkpt>
      <trkpt lat="44.68754" lon="5.67055">
        <ele>1140</ele>
        <time>2013-09-14T08:12:12.000Z</time>
      </trkpt>
      <trkpt lat="44.68751" lon="5.67047">
        <ele>1140</ele>
        <time>2013-09-14T08:12:14.000Z</time>
      </trkpt>
      <trkpt lat="44.68748" lon="5.67038">
        <ele>1140</ele>
        <time>2013-09-14T08:12:16.000Z</time>
      </trkpt>
      <trkpt lat="44.68745" lon="5.6703">
        <ele>1141</ele>
        <time>2013-09-14T08:12:18.000Z</time>
      </trkpt>
      <trkpt lat="44.68743" lon="5.67023">
        <ele>1141</ele>
        <time>2013-09-14T08:12:20.000Z</time>
      </trkpt>
      <trkpt lat="44.68742" lon="5.67015">
        <ele>1141</ele>
        <time>2013-09-14T08:12:22.000Z</time>
      </trkpt>
      <trkpt lat="44.6874" lon="5.67008">
        <ele>1141</ele>
        <time>2013-09-14T08:12:24.000Z</time>
      </trkpt>
      <trkpt lat="44.6874" lon="5.67002">
        <ele>1142</ele>
        <time>2013-09-14T08:12:26.000Z</time>
      </trkpt>
      <trkpt lat="44.6874" lon="5.66993">
        <ele>1142</ele>
        <time>2013-09-14T08:12:28.000Z</time>
      </trkpt>
      <trkpt lat="44.68739" lon="5.66987">
        <ele>1142</ele>
        <time>2013-09-14T08:12:30.000Z</time>
      </trkpt>
      <trkpt lat="44.68739" lon="5.6698">
        <ele>1142</ele>
        <time>2013-09-14T08:12:32.000Z</time>
      </trkpt>
      <trkpt lat="44.68739" lon="5.66972">
        <ele>1142</ele>
        <time>2013-09-14T08:12:34.000Z</time>
      </trkpt>
      <trkpt lat="44.68739" lon="5.66963">
        <ele>1142</ele>
        <time>2013-09-14T08:12:36.000Z</time>
      </trkpt>
      <trkpt lat="44.68739" lon="5.66957">
        <ele>1142</ele>
        <time>2013-09-14T08:12:38.000Z</time>
      </trkpt>
      <trkpt lat="44.6874" lon="5.66948">
        <ele>1143</ele>
        <time>2013-09-14T08:12:40.000Z</time>
      </trkpt>
      <trkpt lat="44.6874" lon="5.6694">
        <ele>1143</ele>
        <time>2013-09-14T08:12:42.000Z</time>
      </trkpt>
      <trkpt lat="44.6874" lon="5.66931">
        <ele>1143</ele>
        <time>2013-09-14T08:12:44.000Z</time>
      </trkpt>
      <trkpt lat="44.6874" lon="5.66922">
        <ele>1143</ele>
        <time>2013-09-14T08:12:46.000Z</time>
      </trkpt>
      <trkpt lat="44.68739" lon="5.66914">
        <ele>1144</ele>
        <time>2013-09-14T08:12:48.000Z</time>
      </trkpt>
      <trkpt lat="44.68736" lon="5.66907">
        <ele>1144</ele>
        <time>2013-09-14T08:12:50.000Z</time>
      </trkpt>
      <trkpt lat="44.68733" lon="5.66901">
        <ele>1144</ele>
        <time>2013-09-14T08:12:52.000Z</time>
      </trkpt>
      <trkpt lat="44.68729" lon="5.66894">
        <ele>1144</ele>
        <time>2013-09-14T08:12:54.000Z</time>
      </trkpt>
      <trkpt lat="44.68724" lon="5.6689">
        <ele>1145</ele>
        <time>2013-09-14T08:12:56.000Z</time>
      </trkpt>
      <trkpt lat="44.6872" lon="5.66884">
        <ele>1145</ele>
        <time>2013-09-14T08:12:58.000Z</time>
      </trkpt>
      <trkpt lat="44.68716" lon="5.6688">
        <ele>1145</ele>
        <time>2013-09-14T08:13:00.000Z</time>
      </trkpt>
      <trkpt lat="44.68711" lon="5.66873">
        <ele>1145</ele>
        <time>2013-09-14T08:13:02.000Z</time>
      </trkpt>
      <trkpt lat="44.68708" lon="5.66867">
        <ele>1145</ele>
        <time>2013-09-14T08:13:04.000Z</time>
      </trkpt>
      <trkpt lat="44.68705" lon="5.6686">
        <ele>1145</ele>
        <time>2013-09-14T08:13:06.000Z</time>
      </trkpt>
      <trkpt lat="44.68702" lon="5.66854">
        <ele>1145</ele>
        <time>2013-09-14T08:13:08.000Z</time>
      </trkpt>
      <trkpt lat="44.68698" lon="5.66845">
        <ele>1145</ele>
        <time>2013-09-14T08:13:10.000Z</time>
      </trkpt>
      <trkpt lat="44.68694" lon="5.66839">
        <ele>1146</ele>
        <time>2013-09-14T08:13:12.000Z</time>
      </trkpt>
      <trkpt lat="44.68691" lon="5.66832">
        <ele>1146</ele>
        <time>2013-09-14T08:13:14.000Z</time>
      </trkpt>
      <trkpt lat="44.68689" lon="5.66824">
        <ele>1146</ele>
        <time>2013-09-14T08:13:16.000Z</time>
      </trkpt>
      <trkpt lat="44.68687" lon="5.66817">
        <ele>1146</ele>
        <time>2013-09-14T08:13:18.000Z</time>
      </trkpt>
      <trkpt lat="44.68684" lon="5.66809">
        <ele>1146</ele>
        <time>2013-09-14T08:13:20.000Z</time>
      </trkpt>
      <trkpt lat="44.68681" lon="5.66802">
        <ele>1146</ele>
        <time>2013-09-14T08:13:22.000Z</time>
      </trkpt>
      <trkpt lat="44.68679" lon="5.66796">
        <ele>1146</ele>
        <time>2013-09-14T08:13:24.000Z</time>
      </trkpt>
      <trkpt lat="44.68676" lon="5.66789">
        <ele>1147</ele>
        <time>2013-09-14T08:13:26.000Z</time>
      </trkpt>
      <trkpt lat="44.68674" lon="5.66783">
        <ele>1147</ele>
        <time>2013-09-14T08:13:28.000Z</time>
      </trkpt>
      <trkpt lat="44.68671" lon="5.66774">
        <ele>1147</ele>
        <time>2013-09-14T08:13:30.000Z</time>
      </trkpt>
      <trkpt lat="44.68668" lon="5.66768">
        <ele>1147</ele>
        <time>2013-09-14T08:13:32.000Z</time>
      </trkpt>
      <trkpt lat="44.68665" lon="5.66759">
        <ele>1147</ele>
        <time>2013-09-14T08:13:35.000Z</time>
      </trkpt>
      <trkpt lat="44.6866" lon="5.66751">
        <ele>1148</ele>
        <time>2013-09-14T08:13:38.000Z</time>
      </trkpt>
      <trkpt lat="44.68655" lon="5.66742">
        <ele>1148</ele>
        <time>2013-09-14T08:13:41.000Z</time>
      </trkpt>
      <trkpt lat="44.68649" lon="5.66734">
        <ele>1148</ele>
        <time>2013-09-14T08:13:44.000Z</time>
      </trkpt>
      <trkpt lat="44.68644" lon="5.66727">
        <ele>1148</ele>
        <time>2013-09-14T08:13:47.000Z</time>
      </trkpt>
      <trkpt lat="44.68641" lon="5.66721">
        <ele>1148</ele>
        <time>2013-09-14T08:13:49.000Z</time>
      </trkpt>
      <trkpt lat="44.68637" lon="5.66714">
        <ele>1148</ele>
        <time>2013-09-14T08:13:51.000Z</time>
      </trkpt>
      <trkpt lat="44.68634" lon="5.66708">
        <ele>1148</ele>
        <time>2013-09-14T08:13:53.000Z</time>
      </trkpt>
      <trkpt lat="44.68631" lon="5.66701">
        <ele>1148</ele>
        <time>2013-09-14T08:13:55.000Z</time>
      </trkpt>
      <trkpt lat="44.68626" lon="5.66693">
        <ele>1149</ele>
        <time>2013-09-14T08:13:58.000Z</time>
      </trkpt>
      <trkpt lat="44.68621" lon="5.66684">
        <ele>1149</ele>
        <time>2013-09-14T08:14:01.000Z</time>
      </trkpt>
      <trkpt lat="44.68617" lon="5.66676">
        <ele>1149</ele>
        <time>2013-09-14T08:14:04.000Z</time>
      </trkpt>
      <trkpt lat="44.68612" lon="5.66669">
        <ele>1149</ele>
        <time>2013-09-14T08:14:07.000Z</time>
      </trkpt>
      <trkpt lat="44.68607" lon="5.66663">
        <ele>1149</ele>
        <time>2013-09-14T08:14:09.000Z</time>
      </trkpt>
      <trkpt lat="44.68604" lon="5.66656">
        <ele>1149</ele>
        <time>2013-09-14T08:14:11.000Z</time>
      </trkpt>
      <trkpt lat="44.686" lon="5.66652">
        <ele>1149</ele>
        <time>2013-09-14T08:14:13.000Z</time>
      </trkpt>
      <trkpt lat="44.68596" lon="5.66646">
        <ele>1149</ele>
        <time>2013-09-14T08:14:15.000Z</time>
      </trkpt>
      <trkpt lat="44.68591" lon="5.66639">
        <ele>1149</ele>
        <time>2013-09-14T08:14:17.000Z</time>
      </trkpt>
      <trkpt lat="44.68587" lon="5.66633">
        <ele>1149</ele>
        <time>2013-09-14T08:14:19.000Z</time>
      </trkpt>
      <trkpt lat="44.68582" lon="5.66626">
        <ele>1149</ele>
        <time>2013-09-14T08:14:21.000Z</time>
      </trkpt>
      <trkpt lat="44.68577" lon="5.6662">
        <ele>1149</ele>
        <time>2013-09-14T08:14:23.000Z</time>
      </trkpt>
      <trkpt lat="44.68573" lon="5.66613">
        <ele>1150</ele>
        <time>2013-09-14T08:14:25.000Z</time>
      </trkpt>
      <trkpt lat="44.68569" lon="5.66607">
        <ele>1150</ele>
        <time>2013-09-14T08:14:27.000Z</time>
      </trkpt>
      <trkpt lat="44.68564" lon="5.666">
        <ele>1150</ele>
        <time>2013-09-14T08:14:29.000Z</time>
      </trkpt>
      <trkpt lat="44.6856" lon="5.66594">
        <ele>1150</ele>
        <time>2013-09-14T08:14:31.000Z</time>
      </trkpt>
      <trkpt lat="44.68557" lon="5.66588">
        <ele>1150</ele>
        <time>2013-09-14T08:14:33.000Z</time>
      </trkpt>
      <trkpt lat="44.68554" lon="5.66581">
        <ele>1150</ele>
        <time>2013-09-14T08:14:35.000Z</time>
      </trkpt>
      <trkpt lat="44.6855" lon="5.66573">
        <ele>1151</ele>
        <time>2013-09-14T08:14:37.000Z</time>
      </trkpt>
      <trkpt lat="44.68547" lon="5.66566">
        <ele>1151</ele>
        <time>2013-09-14T08:14:39.000Z</time>
      </trkpt>
      <trkpt lat="44.68544" lon="5.6656">
        <ele>1151</ele>
        <time>2013-09-14T08:14:41.000Z</time>
      </trkpt>
      <trkpt lat="44.6854" lon="5.66556">
        <ele>1151</ele>
        <time>2013-09-14T08:14:43.000Z</time>
      </trkpt>
      <trkpt lat="44.68536" lon="5.66551">
        <ele>1152</ele>
        <time>2013-09-14T08:14:45.000Z</time>
      </trkpt>
      <trkpt lat="44.6853" lon="5.66547">
        <ele>1152</ele>
        <time>2013-09-14T08:14:47.000Z</time>
      </trkpt>
      <trkpt lat="44.68526" lon="5.66543">
        <ele>1152</ele>
        <time>2013-09-14T08:14:49.000Z</time>
      </trkpt>
      <trkpt lat="44.6852" lon="5.66538">
        <ele>1152</ele>
        <time>2013-09-14T08:14:51.000Z</time>
      </trkpt>
      <trkpt lat="44.68515" lon="5.66536">
        <ele>1153</ele>
        <time>2013-09-14T08:14:53.000Z</time>
      </trkpt>
      <trkpt lat="44.6851" lon="5.66534">
        <ele>1153</ele>
        <time>2013-09-14T08:14:55.000Z</time>
      </trkpt>
      <trkpt lat="44.68504" lon="5.6653">
        <ele>1153</ele>
        <time>2013-09-14T08:14:57.000Z</time>
      </trkpt>
      <trkpt lat="44.685" lon="5.66528">
        <ele>1153</ele>
        <time>2013-09-14T08:14:59.000Z</time>
      </trkpt>
      <trkpt lat="44.68495" lon="5.66523">
        <ele>1154</ele>
        <time>2013-09-14T08:15:01.000Z</time>
      </trkpt>
      <trkpt lat="44.68489" lon="5.66517">
        <ele>1154</ele>
        <time>2013-09-14T08:15:03.000Z</time>
      </trkpt>
      <trkpt lat="44.68485" lon="5.66512">
        <ele>1154</ele>
        <time>2013-09-14T08:15:05.000Z</time>
      </trkpt>
      <trkpt lat="44.6848" lon="5.66506">
        <ele>1154</ele>
        <time>2013-09-14T08:15:08.000Z</time>
      </trkpt>
      <trkpt lat="44.68475" lon="5.66502">
        <ele>1155</ele>
        <time>2013-09-14T08:15:10.000Z</time>
      </trkpt>
      <trkpt lat="44.68471" lon="5.66498">
        <ele>1155</ele>
        <time>2013-09-14T08:15:12.000Z</time>
      </trkpt>
      <trkpt lat="44.68466" lon="5.66495">
        <ele>1155</ele>
        <time>2013-09-14T08:15:15.000Z</time>
      </trkpt>
      <trkpt lat="44.68466" lon="5.66495">
        <ele>1155</ele>
        <time>2013-09-14T08:15:15.000Z</time>
      </trkpt>
      <trkpt lat="44.68466" lon="5.66495">
        <ele>1155</ele>
        <time>2013-09-14T08:15:16.000Z</time>
      </trkpt>
      <trkpt lat="44.68465" lon="5.66502">
        <ele>1156</ele>
        <time>2013-09-14T08:15:40.000Z</time>
      </trkpt>
      <trkpt lat="44.68465" lon="5.66502">
        <ele>1156</ele>
        <time>2013-09-14T08:15:40.000Z</time>
      </trkpt>
      <trkpt lat="44.68465" lon="5.66502">
        <ele>1156</ele>
        <time>2013-09-14T08:15:41.000Z</time>
      </trkpt>
      <trkpt lat="44.68469" lon="5.66498">
        <ele>1156</ele>
        <time>2013-09-14T08:16:05.000Z</time>
      </trkpt>
      <trkpt lat="44.68469" lon="5.66498">
        <ele>1156</ele>
        <time>2013-09-14T08:16:05.000Z</time>
      </trkpt>
      <trkpt lat="44.68469" lon="5.66498">
        <ele>1157</ele>
        <time>2013-09-14T08:16:16.000Z</time>
      </trkpt>
      <trkpt lat="44.68464" lon="5.66491">
        <ele>1158</ele>
        <time>2013-09-14T08:16:21.000Z</time>
      </trkpt>
      <trkpt lat="44.68464" lon="5.66491">
        <ele>1158</ele>
        <time>2013-09-14T08:16:21.000Z</time>
      </trkpt>
      <trkpt lat="44.68464" lon="5.66491">
        <ele>1158</ele>
        <time>2013-09-14T08:16:22.000Z</time>
      </trkpt>
      <trkpt lat="44.68466" lon="5.66498">
        <ele>1159</ele>
        <time>2013-09-14T08:16:31.000Z</time>
      </trkpt>
      <trkpt lat="44.68471" lon="5.66498">
        <ele>1159</ele>
        <time>2013-09-14T08:16:34.000Z</time>
      </trkpt>
      <trkpt lat="44.68473" lon="5.66491">
        <ele>1160</ele>
        <time>2013-09-14T08:16:37.000Z</time>
      </trkpt>
      <trkpt lat="44.68469" lon="5.66485">
        <ele>1160</ele>
        <time>2013-09-14T08:16:44.000Z</time>
      </trkpt>
      <trkpt lat="44.68469" lon="5.66485">
        <ele>1160</ele>
        <time>2013-09-14T08:16:44.000Z</time>
      </trkpt>
      <trkpt lat="44.68469" lon="5.66485">
        <ele>1161</ele>
        <time>2013-09-14T08:16:45.000Z</time>
      </trkpt>
      <trkpt lat="44.68467" lon="5.66478">
        <ele>1161</ele>
        <time>2013-09-14T08:16:50.000Z</time>
      </trkpt>
      <trkpt lat="44.68467" lon="5.66478">
        <ele>1161</ele>
        <time>2013-09-14T08:16:50.000Z</time>
      </trkpt>
      <trkpt lat="44.68467" lon="5.66478">
        <ele>1161</ele>
        <time>2013-09-14T08:16:55.000Z</time>
      </trkpt>
      <trkpt lat="44.68466" lon="5.66472">
        <ele>1162</ele>
        <time>2013-09-14T08:16:58.000Z</time>
      </trkpt>
      <trkpt lat="44.68465" lon="5.66465">
        <ele>1162</ele>
        <time>2013-09-14T08:17:01.000Z</time>
      </trkpt>
      <trkpt lat="44.68464" lon="5.66459">
        <ele>1163</ele>
        <time>2013-09-14T08:17:04.000Z</time>
      </trkpt>
      <trkpt lat="44.6846" lon="5.66452">
        <ele>1163</ele>
        <time>2013-09-14T08:17:08.000Z</time>
      </trkpt>
      <trkpt lat="44.68459" lon="5.66446">
        <ele>1164</ele>
        <time>2013-09-14T08:17:10.000Z</time>
      </trkpt>
      <trkpt lat="44.68458" lon="5.6644">
        <ele>1164</ele>
        <time>2013-09-14T08:17:13.000Z</time>
      </trkpt>
      <trkpt lat="44.68457" lon="5.66433">
        <ele>1164</ele>
        <time>2013-09-14T08:17:15.000Z</time>
      </trkpt>
      <trkpt lat="44.68457" lon="5.66427">
        <ele>1164</ele>
        <time>2013-09-14T08:17:18.000Z</time>
      </trkpt>
      <trkpt lat="44.68456" lon="5.6642">
        <ele>1165</ele>
        <time>2013-09-14T08:17:21.000Z</time>
      </trkpt>
      <trkpt lat="44.68454" lon="5.66414">
        <ele>1165</ele>
        <time>2013-09-14T08:17:24.000Z</time>
      </trkpt>
      <trkpt lat="44.68453" lon="5.66407">
        <ele>1165</ele>
        <time>2013-09-14T08:17:27.000Z</time>
      </trkpt>
      <trkpt lat="44.68452" lon="5.66399">
        <ele>1165</ele>
        <time>2013-09-14T08:17:30.000Z</time>
      </trkpt>
      <trkpt lat="44.68451" lon="5.66392">
        <ele>1166</ele>
        <time>2013-09-14T08:17:33.000Z</time>
      </trkpt>
      <trkpt lat="44.68448" lon="5.66386">
        <ele>1166</ele>
        <time>2013-09-14T08:17:36.000Z</time>
      </trkpt>
      <trkpt lat="44.68445" lon="5.6638">
        <ele>1166</ele>
        <time>2013-09-14T08:17:39.000Z</time>
      </trkpt>
      <trkpt lat="44.68444" lon="5.66373">
        <ele>1167</ele>
        <time>2013-09-14T08:17:42.000Z</time>
      </trkpt>
      <trkpt lat="44.68444" lon="5.66367">
        <ele>1167</ele>
        <time>2013-09-14T08:17:45.000Z</time>
      </trkpt>
      <trkpt lat="44.68444" lon="5.6636">
        <ele>1167</ele>
        <time>2013-09-14T08:17:48.000Z</time>
      </trkpt>
      <trkpt lat="44.68446" lon="5.66354">
        <ele>1167</ele>
        <time>2013-09-14T08:17:51.000Z</time>
      </trkpt>
      <trkpt lat="44.68446" lon="5.66347">
        <ele>1168</ele>
        <time>2013-09-14T08:17:54.000Z</time>
      </trkpt>
      <trkpt lat="44.68446" lon="5.66341">
        <ele>1168</ele>
        <time>2013-09-14T08:17:57.000Z</time>
      </trkpt>
      <trkpt lat="44.68446" lon="5.66334">
        <ele>1168</ele>
        <time>2013-09-14T08:17:59.000Z</time>
      </trkpt>
      <trkpt lat="44.68445" lon="5.66328">
        <ele>1168</ele>
        <time>2013-09-14T08:18:02.000Z</time>
      </trkpt>
      <trkpt lat="44.68444" lon="5.66322">
        <ele>1168</ele>
        <time>2013-09-14T08:18:05.000Z</time>
      </trkpt>
      <trkpt lat="44.68444" lon="5.66315">
        <ele>1169</ele>
        <time>2013-09-14T08:18:08.000Z</time>
      </trkpt>
      <trkpt lat="44.68443" lon="5.66309">
        <ele>1169</ele>
        <time>2013-09-14T08:18:11.000Z</time>
      </trkpt>
      <trkpt lat="44.68445" lon="5.66302">
        <ele>1170</ele>
        <time>2013-09-14T08:18:15.000Z</time>
      </trkpt>
      <trkpt lat="44.68449" lon="5.66296">
        <ele>1170</ele>
        <time>2013-09-14T08:18:19.000Z</time>
      </trkpt>
      <trkpt lat="44.68451" lon="5.66289">
        <ele>1171</ele>
        <time>2013-09-14T08:18:23.000Z</time>
      </trkpt>
      <trkpt lat="44.68453" lon="5.66283">
        <ele>1171</ele>
        <time>2013-09-14T08:18:26.000Z</time>
      </trkpt>
      <trkpt lat="44.68453" lon="5.66283">
        <ele>1171</ele>
        <time>2013-09-14T08:18:26.000Z</time>
      </trkpt>
      <trkpt lat="44.68453" lon="5.66283">
        <ele>1172</ele>
        <time>2013-09-14T08:18:27.000Z</time>
      </trkpt>
      <trkpt lat="44.68455" lon="5.66276">
        <ele>1172</ele>
        <time>2013-09-14T08:18:31.000Z</time>
      </trkpt>
      <trkpt lat="44.68457" lon="5.6627">
        <ele>1172</ele>
        <time>2013-09-14T08:18:35.000Z</time>
      </trkpt>
      <trkpt lat="44.68462" lon="5.66266">
        <ele>1173</ele>
        <time>2013-09-14T08:18:40.000Z</time>
      </trkpt>
      <trkpt lat="44.68464" lon="5.66259">
        <ele>1174</ele>
        <time>2013-09-14T08:18:44.000Z</time>
      </trkpt>
      <trkpt lat="44.68466" lon="5.66253">
        <ele>1174</ele>
        <time>2013-09-14T08:18:47.000Z</time>
      </trkpt>
      <trkpt lat="44.68467" lon="5.66246">
        <ele>1174</ele>
        <time>2013-09-14T08:18:50.000Z</time>
      </trkpt>
      <trkpt lat="44.68468" lon="5.6624">
        <ele>1174</ele>
        <time>2013-09-14T08:18:53.000Z</time>
      </trkpt>
      <trkpt lat="44.6847" lon="5.66234">
        <ele>1175</ele>
        <time>2013-09-14T08:18:57.000Z</time>
      </trkpt>
      <trkpt lat="44.68474" lon="5.66227">
        <ele>1175</ele>
        <time>2013-09-14T08:19:01.000Z</time>
      </trkpt>
      <trkpt lat="44.68476" lon="5.66221">
        <ele>1175</ele>
        <time>2013-09-14T08:19:04.000Z</time>
      </trkpt>
      <trkpt lat="44.68481" lon="5.66216">
        <ele>1176</ele>
        <time>2013-09-14T08:19:08.000Z</time>
      </trkpt>
      <trkpt lat="44.68485" lon="5.6621">
        <ele>1176</ele>
        <time>2013-09-14T08:19:12.000Z</time>
      </trkpt>
      <trkpt lat="44.68489" lon="5.66206">
        <ele>1176</ele>
        <time>2013-09-14T08:19:16.000Z</time>
      </trkpt>
      <trkpt lat="44.68494" lon="5.66199">
        <ele>1177</ele>
        <time>2013-09-14T08:19:21.000Z</time>
      </trkpt>
      <trkpt lat="44.68498" lon="5.66193">
        <ele>1177</ele>
        <time>2013-09-14T08:19:25.000Z</time>
      </trkpt>
      <trkpt lat="44.68502" lon="5.66188">
        <ele>1177</ele>
        <time>2013-09-14T08:19:29.000Z</time>
      </trkpt>
      <trkpt lat="44.68506" lon="5.66182">
        <ele>1178</ele>
        <time>2013-09-14T08:19:33.000Z</time>
      </trkpt>
      <trkpt lat="44.68511" lon="5.66178">
        <ele>1178</ele>
        <time>2013-09-14T08:19:36.000Z</time>
      </trkpt>
      <trkpt lat="44.68514" lon="5.66171">
        <ele>1179</ele>
        <time>2013-09-14T08:19:40.000Z</time>
      </trkpt>
      <trkpt lat="44.68517" lon="5.66167">
        <ele>1179</ele>
        <time>2013-09-14T08:19:43.000Z</time>
      </trkpt>
      <trkpt lat="44.68522" lon="5.66161">
        <ele>1180</ele>
        <time>2013-09-14T08:19:47.000Z</time>
      </trkpt>
      <trkpt lat="44.68522" lon="5.66161">
        <ele>1180</ele>
        <time>2013-09-14T08:19:47.000Z</time>
      </trkpt>
      <trkpt lat="44.68522" lon="5.66161">
        <ele>1180</ele>
        <time>2013-09-14T08:19:48.000Z</time>
      </trkpt>
      <trkpt lat="44.68526" lon="5.66156">
        <ele>1180</ele>
        <time>2013-09-14T08:19:52.000Z</time>
      </trkpt>
      <trkpt lat="44.6853" lon="5.66152">
        <ele>1181</ele>
        <time>2013-09-14T08:19:56.000Z</time>
      </trkpt>
      <trkpt lat="44.68536" lon="5.6615">
        <ele>1182</ele>
        <time>2013-09-14T08:20:00.000Z</time>
      </trkpt>
      <trkpt lat="44.6854" lon="5.66146">
        <ele>1183</ele>
        <time>2013-09-14T08:20:04.000Z</time>
      </trkpt>
      <trkpt lat="44.68544" lon="5.66139">
        <ele>1184</ele>
        <time>2013-09-14T08:20:08.000Z</time>
      </trkpt>
      <trkpt lat="44.68546" lon="5.66133">
        <ele>1185</ele>
        <time>2013-09-14T08:20:11.000Z</time>
      </trkpt>
      <trkpt lat="44.6855" lon="5.66128">
        <ele>1186</ele>
        <time>2013-09-14T08:20:15.000Z</time>
      </trkpt>
      <trkpt lat="44.68555" lon="5.66124">
        <ele>1186</ele>
        <time>2013-09-14T08:20:18.000Z</time>
      </trkpt>
      <trkpt lat="44.68559" lon="5.66118">
        <ele>1187</ele>
        <time>2013-09-14T08:20:22.000Z</time>
      </trkpt>
      <trkpt lat="44.68562" lon="5.66111">
        <ele>1187</ele>
        <time>2013-09-14T08:20:25.000Z</time>
      </trkpt>
      <trkpt lat="44.68567" lon="5.66105">
        <ele>1187</ele>
        <time>2013-09-14T08:20:29.000Z</time>
      </trkpt>
      <trkpt lat="44.68571" lon="5.66098">
        <ele>1188</ele>
        <time>2013-09-14T08:20:34.000Z</time>
      </trkpt>
      <trkpt lat="44.68575" lon="5.66094">
        <ele>1188</ele>
        <time>2013-09-14T08:20:39.000Z</time>
      </trkpt>
      <trkpt lat="44.68578" lon="5.66088">
        <ele>1189</ele>
        <time>2013-09-14T08:20:44.000Z</time>
      </trkpt>
      <trkpt lat="44.68583" lon="5.66083">
        <ele>1190</ele>
        <time>2013-09-14T08:20:49.000Z</time>
      </trkpt>
      <trkpt lat="44.68583" lon="5.66083">
        <ele>1190</ele>
        <time>2013-09-14T08:20:49.000Z</time>
      </trkpt>
      <trkpt lat="44.68583" lon="5.66083">
        <ele>1190</ele>
        <time>2013-09-14T08:20:50.000Z</time>
      </trkpt>
      <trkpt lat="44.68587" lon="5.66079">
        <ele>1191</ele>
        <time>2013-09-14T08:20:55.000Z</time>
      </trkpt>
      <trkpt lat="44.68587" lon="5.66079">
        <ele>1191</ele>
        <time>2013-09-14T08:20:55.000Z</time>
      </trkpt>
      <trkpt lat="44.68587" lon="5.66079">
        <ele>1191</ele>
        <time>2013-09-14T08:20:56.000Z</time>
      </trkpt>
      <trkpt lat="44.68591" lon="5.66075">
        <ele>1192</ele>
        <time>2013-09-14T08:21:01.000Z</time>
      </trkpt>
      <trkpt lat="44.68596" lon="5.6607">
        <ele>1193</ele>
        <time>2013-09-14T08:21:06.000Z</time>
      </trkpt>
      <trkpt lat="44.686" lon="5.66068">
        <ele>1194</ele>
        <time>2013-09-14T08:21:10.000Z</time>
      </trkpt>
      <trkpt lat="44.68604" lon="5.66064">
        <ele>1195</ele>
        <time>2013-09-14T08:21:15.000Z</time>
      </trkpt>
      <trkpt lat="44.68608" lon="5.66062">
        <ele>1196</ele>
        <time>2013-09-14T08:21:19.000Z</time>
      </trkpt>
      <trkpt lat="44.68613" lon="5.66058">
        <ele>1197</ele>
        <time>2013-09-14T08:21:24.000Z</time>
      </trkpt>
      <trkpt lat="44.68615" lon="5.66051">
        <ele>1199</ele>
        <time>2013-09-14T08:21:34.000Z</time>
      </trkpt>
      <trkpt lat="44.68615" lon="5.66051">
        <ele>1199</ele>
        <time>2013-09-14T08:21:34.000Z</time>
      </trkpt>
      <trkpt lat="44.68615" lon="5.66051">
        <ele>1199</ele>
        <time>2013-09-14T08:21:35.000Z</time>
      </trkpt>
      <trkpt lat="44.68619" lon="5.66047">
        <ele>1200</ele>
        <time>2013-09-14T08:21:39.000Z</time>
      </trkpt>
      <trkpt lat="44.68624" lon="5.66045">
        <ele>1202</ele>
        <time>2013-09-14T08:21:44.000Z</time>
      </trkpt>
      <trkpt lat="44.68629" lon="5.66045">
        <ele>1204</ele>
        <time>2013-09-14T08:21:51.000Z</time>
      </trkpt>
      <trkpt lat="44.68629" lon="5.66045">
        <ele>1204</ele>
        <time>2013-09-14T08:21:51.000Z</time>
      </trkpt>
      <trkpt lat="44.68629" lon="5.66045">
        <ele>1204</ele>
        <time>2013-09-14T08:21:52.000Z</time>
      </trkpt>
      <trkpt lat="44.68634" lon="5.66043">
        <ele>1206</ele>
        <time>2013-09-14T08:22:00.000Z</time>
      </trkpt>
      <trkpt lat="44.68637" lon="5.66036">
        <ele>1206</ele>
        <time>2013-09-14T08:22:02.000Z</time>
      </trkpt>
      <trkpt lat="44.68642" lon="5.66032">
        <ele>1206</ele>
        <time>2013-09-14T08:22:07.000Z</time>
      </trkpt>
      <trkpt lat="44.68641" lon="5.66025">
        <ele>1206</ele>
        <time>2013-09-14T08:22:18.000Z</time>
      </trkpt>
      <trkpt lat="44.68646" lon="5.66025">
        <ele>1207</ele>
        <time>2013-09-14T08:22:23.000Z</time>
      </trkpt>
      <trkpt lat="44.6865" lon="5.66023">
        <ele>1207</ele>
        <time>2013-09-14T08:22:28.000Z</time>
      </trkpt>
      <trkpt lat="44.68655" lon="5.66017">
        <ele>1208</ele>
        <time>2013-09-14T08:22:34.000Z</time>
      </trkpt>
      <trkpt lat="44.68659" lon="5.66015">
        <ele>1209</ele>
        <time>2013-09-14T08:22:40.000Z</time>
      </trkpt>
      <trkpt lat="44.68663" lon="5.6601">
        <ele>1210</ele>
        <time>2013-09-14T08:22:53.000Z</time>
      </trkpt>
      <trkpt lat="44.68668" lon="5.66004">
        <ele>1210</ele>
        <time>2013-09-14T08:22:59.000Z</time>
      </trkpt>
      <trkpt lat="44.68672" lon="5.66002">
        <ele>1210</ele>
        <time>2013-09-14T08:23:03.000Z</time>
      </trkpt>
      <trkpt lat="44.68675" lon="5.65995">
        <ele>1210</ele>
        <time>2013-09-14T08:23:08.000Z</time>
      </trkpt>
      <trkpt lat="44.68679" lon="5.65991">
        <ele>1210</ele>
        <time>2013-09-14T08:23:12.000Z</time>
      </trkpt>
      <trkpt lat="44.68682" lon="5.65985">
        <ele>1210</ele>
        <time>2013-09-14T08:23:17.000Z</time>
      </trkpt>
      <trkpt lat="44.68686" lon="5.65978">
        <ele>1210</ele>
        <time>2013-09-14T08:23:22.000Z</time>
      </trkpt>
      <trkpt lat="44.68689" lon="5.65972">
        <ele>1211</ele>
        <time>2013-09-14T08:23:27.000Z</time>
      </trkpt>
      <trkpt lat="44.68691" lon="5.65965">
        <ele>1211</ele>
        <time>2013-09-14T08:23:32.000Z</time>
      </trkpt>
      <trkpt lat="44.68695" lon="5.65963">
        <ele>1213</ele>
        <time>2013-09-14T08:23:37.000Z</time>
      </trkpt>
      <trkpt lat="44.68699" lon="5.65957">
        <ele>1216</ele>
        <time>2013-09-14T08:23:44.000Z</time>
      </trkpt>
      <trkpt lat="44.68703" lon="5.65955">
        <ele>1218</ele>
        <time>2013-09-14T08:23:50.000Z</time>
      </trkpt>
      <trkpt lat="44.68703" lon="5.65955">
        <ele>1218</ele>
        <time>2013-09-14T08:23:50.000Z</time>
      </trkpt>
      <trkpt lat="44.68703" lon="5.65955">
        <ele>1219</ele>
        <time>2013-09-14T08:23:51.000Z</time>
      </trkpt>
      <trkpt lat="44.68703" lon="5.65948">
        <ele>1221</ele>
        <time>2013-09-14T08:23:57.000Z</time>
      </trkpt>
      <trkpt lat="44.68707" lon="5.65942">
        <ele>1224</ele>
        <time>2013-09-14T08:24:06.000Z</time>
      </trkpt>
      <trkpt lat="44.68707" lon="5.65942">
        <ele>1224</ele>
        <time>2013-09-14T08:24:06.000Z</time>
      </trkpt>
      <trkpt lat="44.68707" lon="5.65942">
        <ele>1224</ele>
        <time>2013-09-14T08:24:07.000Z</time>
      </trkpt>
      <trkpt lat="44.68711" lon="5.65938">
        <ele>1227</ele>
        <time>2013-09-14T08:24:14.000Z</time>
      </trkpt>
      <trkpt lat="44.68711" lon="5.65938">
        <ele>1227</ele>
        <time>2013-09-14T08:24:14.000Z</time>
      </trkpt>
      <trkpt lat="44.68711" lon="5.65938">
        <ele>1227</ele>
        <time>2013-09-14T08:24:15.000Z</time>
      </trkpt>
      <trkpt lat="44.68715" lon="5.65933">
        <ele>1229</ele>
        <time>2013-09-14T08:24:20.000Z</time>
      </trkpt>
      <trkpt lat="44.68719" lon="5.65929">
        <ele>1230</ele>
        <time>2013-09-14T08:24:25.000Z</time>
      </trkpt>
      <trkpt lat="44.68721" lon="5.65922">
        <ele>1231</ele>
        <time>2013-09-14T08:24:29.000Z</time>
      </trkpt>
      <trkpt lat="44.68721" lon="5.65916">
        <ele>1232</ele>
        <time>2013-09-14T08:24:33.000Z</time>
      </trkpt>
      <trkpt lat="44.68721" lon="5.65916">
        <ele>1232</ele>
        <time>2013-09-14T08:24:33.000Z</time>
      </trkpt>
      <trkpt lat="44.68721" lon="5.65916">
        <ele>1233</ele>
        <time>2013-09-14T08:24:34.000Z</time>
      </trkpt>
      <trkpt lat="44.68721" lon="5.6591">
        <ele>1233</ele>
        <time>2013-09-14T08:24:37.000Z</time>
      </trkpt>
      <trkpt lat="44.6872" lon="5.65903">
        <ele>1234</ele>
        <time>2013-09-14T08:24:41.000Z</time>
      </trkpt>
      <trkpt lat="44.6872" lon="5.65897">
        <ele>1235</ele>
        <time>2013-09-14T08:24:44.000Z</time>
      </trkpt>
      <trkpt lat="44.6872" lon="5.6589">
        <ele>1235</ele>
        <time>2013-09-14T08:24:48.000Z</time>
      </trkpt>
      <trkpt lat="44.68719" lon="5.65884">
        <ele>1236</ele>
        <time>2013-09-14T08:24:52.000Z</time>
      </trkpt>
      <trkpt lat="44.68716" lon="5.65877">
        <ele>1236</ele>
        <time>2013-09-14T08:25:05.000Z</time>
      </trkpt>
      <trkpt lat="44.68712" lon="5.65871">
        <ele>1237</ele>
        <time>2013-09-14T08:25:10.000Z</time>
      </trkpt>
      <trkpt lat="44.68712" lon="5.65864">
        <ele>1238</ele>
        <time>2013-09-14T08:25:14.000Z</time>
      </trkpt>
      <trkpt lat="44.68712" lon="5.65858">
        <ele>1238</ele>
        <time>2013-09-14T08:25:18.000Z</time>
      </trkpt>
      <trkpt lat="44.68716" lon="5.65852">
        <ele>1239</ele>
        <time>2013-09-14T08:25:23.000Z</time>
      </trkpt>
      <trkpt lat="44.68717" lon="5.65845">
        <ele>1240</ele>
        <time>2013-09-14T08:25:27.000Z</time>
      </trkpt>
      <trkpt lat="44.68718" lon="5.65839">
        <ele>1240</ele>
        <time>2013-09-14T08:25:32.000Z</time>
      </trkpt>
      <trkpt lat="44.68717" lon="5.65832">
        <ele>1241</ele>
        <time>2013-09-14T08:25:36.000Z</time>
      </trkpt>
      <trkpt lat="44.68717" lon="5.65832">
        <ele>1241</ele>
        <time>2013-09-14T08:25:36.000Z</time>
      </trkpt>
      <trkpt lat="44.68717" lon="5.65832">
        <ele>1241</ele>
        <time>2013-09-14T08:25:37.000Z</time>
      </trkpt>
      <trkpt lat="44.68715" lon="5.65826">
        <ele>1241</ele>
        <time>2013-09-14T08:25:41.000Z</time>
      </trkpt>
      <trkpt lat="44.68711" lon="5.6582">
        <ele>1241</ele>
        <time>2013-09-14T08:25:45.000Z</time>
      </trkpt>
      <trkpt lat="44.68711" lon="5.6582">
        <ele>1241</ele>
        <time>2013-09-14T08:25:45.000Z</time>
      </trkpt>
      <trkpt lat="44.68711" lon="5.6582">
        <ele>1242</ele>
        <time>2013-09-14T08:25:46.000Z</time>
      </trkpt>
      <trkpt lat="44.68708" lon="5.65813">
        <ele>1242</ele>
        <time>2013-09-14T08:25:50.000Z</time>
      </trkpt>
      <trkpt lat="44.68708" lon="5.65813">
        <ele>1242</ele>
        <time>2013-09-14T08:25:50.000Z</time>
      </trkpt>
      <trkpt lat="44.68708" lon="5.65813">
        <ele>1242</ele>
        <time>2013-09-14T08:25:51.000Z</time>
      </trkpt>
      <trkpt lat="44.68708" lon="5.65807">
        <ele>1243</ele>
        <time>2013-09-14T08:25:56.000Z</time>
      </trkpt>
      <trkpt lat="44.68712" lon="5.65809">
        <ele>1244</ele>
        <time>2013-09-14T08:26:07.000Z</time>
      </trkpt>
      <trkpt lat="44.68712" lon="5.65809">
        <ele>1244</ele>
        <time>2013-09-14T08:26:07.000Z</time>
      </trkpt>
      <trkpt lat="44.68712" lon="5.65809">
        <ele>1244</ele>
        <time>2013-09-14T08:26:08.000Z</time>
      </trkpt>
      <trkpt lat="44.68708" lon="5.65813">
        <ele>1245</ele>
        <time>2013-09-14T08:26:19.000Z</time>
      </trkpt>
      <trkpt lat="44.68708" lon="5.65813">
        <ele>1245</ele>
        <time>2013-09-14T08:26:19.000Z</time>
      </trkpt>
      <trkpt lat="44.68708" lon="5.65813">
        <ele>1246</ele>
        <time>2013-09-14T08:26:39.000Z</time>
      </trkpt>
      <trkpt lat="44.6871" lon="5.65807">
        <ele>1247</ele>
        <time>2013-09-14T08:26:48.000Z</time>
      </trkpt>
      <trkpt lat="44.6871" lon="5.65807">
        <ele>1247</ele>
        <time>2013-09-14T08:26:48.000Z</time>
      </trkpt>
      <trkpt lat="44.6871" lon="5.65807">
        <ele>1247</ele>
        <time>2013-09-14T08:26:50.000Z</time>
      </trkpt>
      <trkpt lat="44.68714" lon="5.658">
        <ele>1247</ele>
        <time>2013-09-14T08:26:58.000Z</time>
      </trkpt>
      <trkpt lat="44.68714" lon="5.658">
        <ele>1247</ele>
        <time>2013-09-14T08:26:58.000Z</time>
      </trkpt>
      <trkpt lat="44.68714" lon="5.658">
        <ele>1247</ele>
        <time>2013-09-14T08:27:00.000Z</time>
      </trkpt>
      <trkpt lat="44.68719" lon="5.658">
        <ele>1248</ele>
        <time>2013-09-14T08:27:18.000Z</time>
      </trkpt>
      <trkpt lat="44.68719" lon="5.658">
        <ele>1248</ele>
        <time>2013-09-14T08:27:18.000Z</time>
      </trkpt>
      <trkpt lat="44.68719" lon="5.658">
        <ele>1248</ele>
        <time>2013-09-14T08:27:21.000Z</time>
      </trkpt>
      <trkpt lat="44.68721" lon="5.65807">
        <ele>1249</ele>
        <time>2013-09-14T08:27:29.000Z</time>
      </trkpt>
      <trkpt lat="44.68724" lon="5.65813">
        <ele>1251</ele>
        <time>2013-09-14T08:27:35.000Z</time>
      </trkpt>
      <trkpt lat="44.68724" lon="5.65813">
        <ele>1251</ele>
        <time>2013-09-14T08:27:35.000Z</time>
      </trkpt>
      <trkpt lat="44.68724" lon="5.65813">
        <ele>1251</ele>
        <time>2013-09-14T08:27:37.000Z</time>
      </trkpt>
      <trkpt lat="44.68728" lon="5.6582">
        <ele>1252</ele>
        <time>2013-09-14T08:27:45.000Z</time>
      </trkpt>
      <trkpt lat="44.68733" lon="5.6582">
        <ele>1254</ele>
        <time>2013-09-14T08:27:52.000Z</time>
      </trkpt>
      <trkpt lat="44.68738" lon="5.6582">
        <ele>1255</ele>
        <time>2013-09-14T08:27:58.000Z</time>
      </trkpt>
      <trkpt lat="44.68745" lon="5.6582">
        <ele>1256</ele>
        <time>2013-09-14T08:28:03.000Z</time>
      </trkpt>
      <trkpt lat="44.6875" lon="5.6582">
        <ele>1257</ele>
        <time>2013-09-14T08:28:07.000Z</time>
      </trkpt>
      <trkpt lat="44.68755" lon="5.65817">
        <ele>1259</ele>
        <time>2013-09-14T08:28:12.000Z</time>
      </trkpt>
      <trkpt lat="44.68761" lon="5.65815">
        <ele>1260</ele>
        <time>2013-09-14T08:28:17.000Z</time>
      </trkpt>
      <trkpt lat="44.68761" lon="5.65815">
        <ele>1260</ele>
        <time>2013-09-14T08:28:17.000Z</time>
      </trkpt>
      <trkpt lat="44.68761" lon="5.65815">
        <ele>1260</ele>
        <time>2013-09-14T08:28:18.000Z</time>
      </trkpt>
      <trkpt lat="44.68766" lon="5.65815">
        <ele>1261</ele>
        <time>2013-09-14T08:28:22.000Z</time>
      </trkpt>
      <trkpt lat="44.68772" lon="5.65813">
        <ele>1262</ele>
        <time>2013-09-14T08:28:25.000Z</time>
      </trkpt>
      <trkpt lat="44.68776" lon="5.65811">
        <ele>1263</ele>
        <time>2013-09-14T08:28:29.000Z</time>
      </trkpt>
      <trkpt lat="44.6878" lon="5.65807">
        <ele>1263</ele>
        <time>2013-09-14T08:28:33.000Z</time>
      </trkpt>
      <trkpt lat="44.68786" lon="5.658">
        <ele>1264</ele>
        <time>2013-09-14T08:28:37.000Z</time>
      </trkpt>
      <trkpt lat="44.6879" lon="5.65794">
        <ele>1265</ele>
        <time>2013-09-14T08:28:41.000Z</time>
      </trkpt>
      <trkpt lat="44.6879" lon="5.65794">
        <ele>1265</ele>
        <time>2013-09-14T08:28:41.000Z</time>
      </trkpt>
      <trkpt lat="44.6879" lon="5.65794">
        <ele>1265</ele>
        <time>2013-09-14T08:28:42.000Z</time>
      </trkpt>
      <trkpt lat="44.68794" lon="5.65789">
        <ele>1266</ele>
        <time>2013-09-14T08:28:46.000Z</time>
      </trkpt>
      <trkpt lat="44.68798" lon="5.65785">
        <ele>1267</ele>
        <time>2013-09-14T08:28:50.000Z</time>
      </trkpt>
      <trkpt lat="44.68804" lon="5.65785">
        <ele>1267</ele>
        <time>2013-09-14T08:28:53.000Z</time>
      </trkpt>
      <trkpt lat="44.68808" lon="5.65783">
        <ele>1268</ele>
        <time>2013-09-14T08:29:06.000Z</time>
      </trkpt>
      <trkpt lat="44.68808" lon="5.65783">
        <ele>1268</ele>
        <time>2013-09-14T08:29:06.000Z</time>
      </trkpt>
      <trkpt lat="44.68808" lon="5.65783">
        <ele>1268</ele>
        <time>2013-09-14T08:29:07.000Z</time>
      </trkpt>
      <trkpt lat="44.68812" lon="5.65785">
        <ele>1269</ele>
        <time>2013-09-14T08:29:11.000Z</time>
      </trkpt>
      <trkpt lat="44.68817" lon="5.65783">
        <ele>1270</ele>
        <time>2013-09-14T08:29:18.000Z</time>
      </trkpt>
      <trkpt lat="44.68821" lon="5.65781">
        <ele>1271</ele>
        <time>2013-09-14T08:29:25.000Z</time>
      </trkpt>
      <trkpt lat="44.68821" lon="5.65781">
        <ele>1271</ele>
        <time>2013-09-14T08:29:25.000Z</time>
      </trkpt>
      <trkpt lat="44.68821" lon="5.65781">
        <ele>1271</ele>
        <time>2013-09-14T08:29:26.000Z</time>
      </trkpt>
      <trkpt lat="44.68825" lon="5.65776">
        <ele>1271</ele>
        <time>2013-09-14T08:29:30.000Z</time>
      </trkpt>
      <trkpt lat="44.6883" lon="5.6577">
        <ele>1271</ele>
        <time>2013-09-14T08:29:34.000Z</time>
      </trkpt>
      <trkpt lat="44.68834" lon="5.65766">
        <ele>1272</ele>
        <time>2013-09-14T08:29:40.000Z</time>
      </trkpt>
      <trkpt lat="44.68838" lon="5.65762">
        <ele>1272</ele>
        <time>2013-09-14T08:29:46.000Z</time>
      </trkpt>
      <trkpt lat="44.68842" lon="5.65755">
        <ele>1273</ele>
        <time>2013-09-14T08:29:54.000Z</time>
      </trkpt>
      <trkpt lat="44.68847" lon="5.65751">
        <ele>1274</ele>
        <time>2013-09-14T08:30:01.000Z</time>
      </trkpt>
      <trkpt lat="44.6885" lon="5.65744">
        <ele>1275</ele>
        <time>2013-09-14T08:30:07.000Z</time>
      </trkpt>
      <trkpt lat="44.6885" lon="5.65744">
        <ele>1275</ele>
        <time>2013-09-14T08:30:07.000Z</time>
      </trkpt>
      <trkpt lat="44.6885" lon="5.65744">
        <ele>1275</ele>
        <time>2013-09-14T08:30:08.000Z</time>
      </trkpt>
      <trkpt lat="44.68853" lon="5.6574">
        <ele>1276</ele>
        <time>2013-09-14T08:30:18.000Z</time>
      </trkpt>
      <trkpt lat="44.68857" lon="5.65738">
        <ele>1277</ele>
        <time>2013-09-14T08:30:24.000Z</time>
      </trkpt>
      <trkpt lat="44.68857" lon="5.65738">
        <ele>1277</ele>
        <time>2013-09-14T08:30:24.000Z</time>
      </trkpt>
      <trkpt lat="44.68857" lon="5.65738">
        <ele>1277</ele>
        <time>2013-09-14T08:30:25.000Z</time>
      </trkpt>
      <trkpt lat="44.68862" lon="5.65736">
        <ele>1278</ele>
        <time>2013-09-14T08:30:34.000Z</time>
      </trkpt>
      <trkpt lat="44.68862" lon="5.65736">
        <ele>1278</ele>
        <time>2013-09-14T08:30:34.000Z</time>
      </trkpt>
      <trkpt lat="44.68862" lon="5.65736">
        <ele>1278</ele>
        <time>2013-09-14T08:30:35.000Z</time>
      </trkpt>
      <trkpt lat="44.68866" lon="5.65734">
        <ele>1279</ele>
        <time>2013-09-14T08:30:42.000Z</time>
      </trkpt>
      <trkpt lat="44.68866" lon="5.65734">
        <ele>1279</ele>
        <time>2013-09-14T08:30:42.000Z</time>
      </trkpt>
      <trkpt lat="44.68866" lon="5.65734">
        <ele>1279</ele>
        <time>2013-09-14T08:30:45.000Z</time>
      </trkpt>
      <trkpt lat="44.6887" lon="5.65732">
        <ele>1280</ele>
        <time>2013-09-14T08:30:53.000Z</time>
      </trkpt>
      <trkpt lat="44.68874" lon="5.65727">
        <ele>1281</ele>
        <time>2013-09-14T08:30:59.000Z</time>
      </trkpt>
      <trkpt lat="44.68874" lon="5.65727">
        <ele>1281</ele>
        <time>2013-09-14T08:30:59.000Z</time>
      </trkpt>
      <trkpt lat="44.68874" lon="5.65727">
        <ele>1281</ele>
        <time>2013-09-14T08:31:00.000Z</time>
      </trkpt>
      <trkpt lat="44.68876" lon="5.65721">
        <ele>1281</ele>
        <time>2013-09-14T08:31:10.000Z</time>
      </trkpt>
      <trkpt lat="44.68876" lon="5.65721">
        <ele>1281</ele>
        <time>2013-09-14T08:31:10.000Z</time>
      </trkpt>
      <trkpt lat="44.68876" lon="5.65721">
        <ele>1281</ele>
        <time>2013-09-14T08:31:18.000Z</time>
      </trkpt>
      <trkpt lat="44.68879" lon="5.65725">
        <ele>1282</ele>
        <time>2013-09-14T08:32:09.000Z</time>
      </trkpt>
      <trkpt lat="44.68879" lon="5.65725">
        <ele>1282</ele>
        <time>2013-09-14T08:32:09.000Z</time>
      </trkpt>
      <trkpt lat="44.68879" lon="5.65725">
        <ele>1282</ele>
        <time>2013-09-14T08:32:10.000Z</time>
      </trkpt>
      <trkpt lat="44.68883" lon="5.65723">
        <ele>1282</ele>
        <time>2013-09-14T08:32:30.000Z</time>
      </trkpt>
      <trkpt lat="44.68883" lon="5.65723">
        <ele>1282</ele>
        <time>2013-09-14T08:32:30.000Z</time>
      </trkpt>
      <trkpt lat="44.68883" lon="5.65723">
        <ele>1282</ele>
        <time>2013-09-14T08:32:31.000Z</time>
      </trkpt>
      <trkpt lat="44.68887" lon="5.65721">
        <ele>1283</ele>
        <time>2013-09-14T08:32:37.000Z</time>
      </trkpt>
      <trkpt lat="44.68892" lon="5.65719">
        <ele>1283</ele>
        <time>2013-09-14T08:32:43.000Z</time>
      </trkpt>
      <trkpt lat="44.68896" lon="5.65712">
        <ele>1285</ele>
        <time>2013-09-14T08:32:50.000Z</time>
      </trkpt>
      <trkpt lat="44.68896" lon="5.65712">
        <ele>1285</ele>
        <time>2013-09-14T08:32:50.000Z</time>
      </trkpt>
      <trkpt lat="44.68896" lon="5.65712">
        <ele>1285</ele>
        <time>2013-09-14T08:32:51.000Z</time>
      </trkpt>
      <trkpt lat="44.689" lon="5.65708">
        <ele>1286</ele>
        <time>2013-09-14T08:32:56.000Z</time>
      </trkpt>
      <trkpt lat="44.689" lon="5.65708">
        <ele>1286</ele>
        <time>2013-09-14T08:32:56.000Z</time>
      </trkpt>
      <trkpt lat="44.689" lon="5.65708">
        <ele>1286</ele>
        <time>2013-09-14T08:32:57.000Z</time>
      </trkpt>
      <trkpt lat="44.68905" lon="5.65704">
        <ele>1288</ele>
        <time>2013-09-14T08:33:09.000Z</time>
      </trkpt>
      <trkpt lat="44.68905" lon="5.65704">
        <ele>1288</ele>
        <time>2013-09-14T08:33:09.000Z</time>
      </trkpt>
      <trkpt lat="44.68905" lon="5.65704">
        <ele>1288</ele>
        <time>2013-09-14T08:33:10.000Z</time>
      </trkpt>
      <trkpt lat="44.68906" lon="5.65697">
        <ele>1289</ele>
        <time>2013-09-14T08:33:14.000Z</time>
      </trkpt>
      <trkpt lat="44.68906" lon="5.65697">
        <ele>1289</ele>
        <time>2013-09-14T08:33:14.000Z</time>
      </trkpt>
      <trkpt lat="44.68906" lon="5.65697">
        <ele>1289</ele>
        <time>2013-09-14T08:33:15.000Z</time>
      </trkpt>
      <trkpt lat="44.68907" lon="5.65691">
        <ele>1290</ele>
        <time>2013-09-14T08:33:22.000Z</time>
      </trkpt>
      <trkpt lat="44.68909" lon="5.65684">
        <ele>1291</ele>
        <time>2013-09-14T08:33:26.000Z</time>
      </trkpt>
      <trkpt lat="44.68911" lon="5.65678">
        <ele>1292</ele>
        <time>2013-09-14T08:33:30.000Z</time>
      </trkpt>
      <trkpt lat="44.68911" lon="5.65678">
        <ele>1292</ele>
        <time>2013-09-14T08:33:30.000Z</time>
      </trkpt>
      <trkpt lat="44.68911" lon="5.65678">
        <ele>1292</ele>
        <time>2013-09-14T08:33:31.000Z</time>
      </trkpt>
      <trkpt lat="44.68913" lon="5.65671">
        <ele>1293</ele>
        <time>2013-09-14T08:33:34.000Z</time>
      </trkpt>
      <trkpt lat="44.68916" lon="5.65665">
        <ele>1294</ele>
        <time>2013-09-14T08:33:38.000Z</time>
      </trkpt>
      <trkpt lat="44.68921" lon="5.65658">
        <ele>1295</ele>
        <time>2013-09-14T08:33:43.000Z</time>
      </trkpt>
      <trkpt lat="44.68925" lon="5.65654">
        <ele>1296</ele>
        <time>2013-09-14T08:33:47.000Z</time>
      </trkpt>
      <trkpt lat="44.68929" lon="5.65652">
        <ele>1297</ele>
        <time>2013-09-14T08:33:50.000Z</time>
      </trkpt>
      <trkpt lat="44.68934" lon="5.6565">
        <ele>1298</ele>
        <time>2013-09-14T08:33:53.000Z</time>
      </trkpt>
      <trkpt lat="44.68938" lon="5.65646">
        <ele>1299</ele>
        <time>2013-09-14T08:33:57.000Z</time>
      </trkpt>
      <trkpt lat="44.68942" lon="5.65644">
        <ele>1299</ele>
        <time>2013-09-14T08:34:00.000Z</time>
      </trkpt>
      <trkpt lat="44.68946" lon="5.65639">
        <ele>1300</ele>
        <time>2013-09-14T08:34:04.000Z</time>
      </trkpt>
      <trkpt lat="44.68951" lon="5.65635">
        <ele>1301</ele>
        <time>2013-09-14T08:34:08.000Z</time>
      </trkpt>
      <trkpt lat="44.68955" lon="5.65631">
        <ele>1302</ele>
        <time>2013-09-14T08:34:12.000Z</time>
      </trkpt>
      <trkpt lat="44.68957" lon="5.65624">
        <ele>1302</ele>
        <time>2013-09-14T08:34:16.000Z</time>
      </trkpt>
      <trkpt lat="44.6896" lon="5.65618">
        <ele>1303</ele>
        <time>2013-09-14T08:34:21.000Z</time>
      </trkpt>
      <trkpt lat="44.6896" lon="5.65618">
        <ele>1303</ele>
        <time>2013-09-14T08:34:21.000Z</time>
      </trkpt>
      <trkpt lat="44.6896" lon="5.65618">
        <ele>1304</ele>
        <time>2013-09-14T08:34:22.000Z</time>
      </trkpt>
      <trkpt lat="44.68965" lon="5.65611">
        <ele>1305</ele>
        <time>2013-09-14T08:34:27.000Z</time>
      </trkpt>
      <trkpt lat="44.68965" lon="5.65611">
        <ele>1305</ele>
        <time>2013-09-14T08:34:27.000Z</time>
      </trkpt>
      <trkpt lat="44.68965" lon="5.65611">
        <ele>1305</ele>
        <time>2013-09-14T08:34:28.000Z</time>
      </trkpt>
      <trkpt lat="44.68969" lon="5.65607">
        <ele>1306</ele>
        <time>2013-09-14T08:34:32.000Z</time>
      </trkpt>
      <trkpt lat="44.68973" lon="5.65601">
        <ele>1307</ele>
        <time>2013-09-14T08:34:38.000Z</time>
      </trkpt>
      <trkpt lat="44.68973" lon="5.65601">
        <ele>1307</ele>
        <time>2013-09-14T08:34:38.000Z</time>
      </trkpt>
      <trkpt lat="44.68973" lon="5.65601">
        <ele>1307</ele>
        <time>2013-09-14T08:34:39.000Z</time>
      </trkpt>
      <trkpt lat="44.68978" lon="5.65594">
        <ele>1308</ele>
        <time>2013-09-14T08:34:44.000Z</time>
      </trkpt>
      <trkpt lat="44.68978" lon="5.65594">
        <ele>1308</ele>
        <time>2013-09-14T08:34:44.000Z</time>
      </trkpt>
      <trkpt lat="44.68978" lon="5.65594">
        <ele>1308</ele>
        <time>2013-09-14T08:34:45.000Z</time>
      </trkpt>
      <trkpt lat="44.68982" lon="5.6559">
        <ele>1309</ele>
        <time>2013-09-14T08:34:49.000Z</time>
      </trkpt>
      <trkpt lat="44.68986" lon="5.65583">
        <ele>1310</ele>
        <time>2013-09-14T08:34:54.000Z</time>
      </trkpt>
      <trkpt lat="44.6899" lon="5.65579">
        <ele>1311</ele>
        <time>2013-09-14T08:34:59.000Z</time>
      </trkpt>
      <trkpt lat="44.68995" lon="5.65573">
        <ele>1312</ele>
        <time>2013-09-14T08:35:04.000Z</time>
      </trkpt>
      <trkpt lat="44.68999" lon="5.65568">
        <ele>1313</ele>
        <time>2013-09-14T08:35:10.000Z</time>
      </trkpt>
      <trkpt lat="44.69003" lon="5.65564">
        <ele>1314</ele>
        <time>2013-09-14T08:35:14.000Z</time>
      </trkpt>
      <trkpt lat="44.69003" lon="5.65564">
        <ele>1314</ele>
        <time>2013-09-14T08:35:14.000Z</time>
      </trkpt>
      <trkpt lat="44.69003" lon="5.65564">
        <ele>1314</ele>
        <time>2013-09-14T08:35:15.000Z</time>
      </trkpt>
      <trkpt lat="44.69008" lon="5.6556">
        <ele>1315</ele>
        <time>2013-09-14T08:35:19.000Z</time>
      </trkpt>
      <trkpt lat="44.69008" lon="5.6556">
        <ele>1315</ele>
        <time>2013-09-14T08:35:19.000Z</time>
      </trkpt>
      <trkpt lat="44.69008" lon="5.6556">
        <ele>1315</ele>
        <time>2013-09-14T08:35:22.000Z</time>
      </trkpt>
      <trkpt lat="44.69012" lon="5.65558">
        <ele>1317</ele>
        <time>2013-09-14T08:35:28.000Z</time>
      </trkpt>
      <trkpt lat="44.69016" lon="5.65553">
        <ele>1318</ele>
        <time>2013-09-14T08:35:34.000Z</time>
      </trkpt>
      <trkpt lat="44.6902" lon="5.65549">
        <ele>1319</ele>
        <time>2013-09-14T08:35:39.000Z</time>
      </trkpt>
      <trkpt lat="44.69025" lon="5.65545">
        <ele>1320</ele>
        <time>2013-09-14T08:35:45.000Z</time>
      </trkpt>
      <trkpt lat="44.69029" lon="5.6554">
        <ele>1321</ele>
        <time>2013-09-14T08:35:51.000Z</time>
      </trkpt>
      <trkpt lat="44.69032" lon="5.65534">
        <ele>1322</ele>
        <time>2013-09-14T08:35:57.000Z</time>
      </trkpt>
      <trkpt lat="44.69032" lon="5.65534">
        <ele>1322</ele>
        <time>2013-09-14T08:35:57.000Z</time>
      </trkpt>
      <trkpt lat="44.69032" lon="5.65534">
        <ele>1322</ele>
        <time>2013-09-14T08:35:58.000Z</time>
      </trkpt>
      <trkpt lat="44.69036" lon="5.6553">
        <ele>1323</ele>
        <time>2013-09-14T08:36:04.000Z</time>
      </trkpt>
      <trkpt lat="44.69041" lon="5.65526">
        <ele>1324</ele>
        <time>2013-09-14T08:36:09.000Z</time>
      </trkpt>
      <trkpt lat="44.69041" lon="5.65526">
        <ele>1324</ele>
        <time>2013-09-14T08:36:09.000Z</time>
      </trkpt>
      <trkpt lat="44.69041" lon="5.65526">
        <ele>1324</ele>
        <time>2013-09-14T08:36:10.000Z</time>
      </trkpt>
      <trkpt lat="44.69045" lon="5.65519">
        <ele>1325</ele>
        <time>2013-09-14T08:36:15.000Z</time>
      </trkpt>
      <trkpt lat="44.69045" lon="5.65519">
        <ele>1325</ele>
        <time>2013-09-14T08:36:15.000Z</time>
      </trkpt>
      <trkpt lat="44.69045" lon="5.65519">
        <ele>1325</ele>
        <time>2013-09-14T08:36:16.000Z</time>
      </trkpt>
      <trkpt lat="44.69047" lon="5.65513">
        <ele>1326</ele>
        <time>2013-09-14T08:36:21.000Z</time>
      </trkpt>
      <trkpt lat="44.69052" lon="5.65506">
        <ele>1328</ele>
        <time>2013-09-14T08:36:35.000Z</time>
      </trkpt>
      <trkpt lat="44.69052" lon="5.65506">
        <ele>1328</ele>
        <time>2013-09-14T08:36:35.000Z</time>
      </trkpt>
      <trkpt lat="44.69052" lon="5.65506">
        <ele>1328</ele>
        <time>2013-09-14T08:36:36.000Z</time>
      </trkpt>
      <trkpt lat="44.69055" lon="5.65502">
        <ele>1328</ele>
        <time>2013-09-14T08:36:41.000Z</time>
      </trkpt>
      <trkpt lat="44.69055" lon="5.65502">
        <ele>1328</ele>
        <time>2013-09-14T08:36:41.000Z</time>
      </trkpt>
      <trkpt lat="44.69055" lon="5.65502">
        <ele>1329</ele>
        <time>2013-09-14T08:36:42.000Z</time>
      </trkpt>
      <trkpt lat="44.69056" lon="5.65495">
        <ele>1329</ele>
        <time>2013-09-14T08:36:46.000Z</time>
      </trkpt>
      <trkpt lat="44.6906" lon="5.65491">
        <ele>1330</ele>
        <time>2013-09-14T08:36:53.000Z</time>
      </trkpt>
      <trkpt lat="44.69064" lon="5.65485">
        <ele>1331</ele>
        <time>2013-09-14T08:36:59.000Z</time>
      </trkpt>
      <trkpt lat="44.69064" lon="5.65485">
        <ele>1331</ele>
        <time>2013-09-14T08:36:59.000Z</time>
      </trkpt>
      <trkpt lat="44.69064" lon="5.65485">
        <ele>1331</ele>
        <time>2013-09-14T08:37:01.000Z</time>
      </trkpt>
      <trkpt lat="44.69069" lon="5.6548">
        <ele>1332</ele>
        <time>2013-09-14T08:37:07.000Z</time>
      </trkpt>
      <trkpt lat="44.69069" lon="5.6548">
        <ele>1332</ele>
        <time>2013-09-14T08:37:07.000Z</time>
      </trkpt>
      <trkpt lat="44.69069" lon="5.6548">
        <ele>1332</ele>
        <time>2013-09-14T08:37:13.000Z</time>
      </trkpt>
      <trkpt lat="44.69073" lon="5.65478">
        <ele>1333</ele>
        <time>2013-09-14T08:37:19.000Z</time>
      </trkpt>
      <trkpt lat="44.69077" lon="5.65476">
        <ele>1333</ele>
        <time>2013-09-14T08:37:23.000Z</time>
      </trkpt>
      <trkpt lat="44.69079" lon="5.6547">
        <ele>1334</ele>
        <time>2013-09-14T08:37:29.000Z</time>
      </trkpt>
      <trkpt lat="44.69079" lon="5.6547">
        <ele>1334</ele>
        <time>2013-09-14T08:37:29.000Z</time>
      </trkpt>
      <trkpt lat="44.69079" lon="5.6547">
        <ele>1334</ele>
        <time>2013-09-14T08:37:30.000Z</time>
      </trkpt>
      <trkpt lat="44.69077" lon="5.65463">
        <ele>1335</ele>
        <time>2013-09-14T08:37:43.000Z</time>
      </trkpt>
      <trkpt lat="44.69077" lon="5.65463">
        <ele>1335</ele>
        <time>2013-09-14T08:37:43.000Z</time>
      </trkpt>
      <trkpt lat="44.69077" lon="5.65463">
        <ele>1335</ele>
        <time>2013-09-14T08:37:44.000Z</time>
      </trkpt>
      <trkpt lat="44.69076" lon="5.65457">
        <ele>1336</ele>
        <time>2013-09-14T08:37:49.000Z</time>
      </trkpt>
      <trkpt lat="44.69076" lon="5.65457">
        <ele>1336</ele>
        <time>2013-09-14T08:37:49.000Z</time>
      </trkpt>
      <trkpt lat="44.69076" lon="5.65457">
        <ele>1336</ele>
        <time>2013-09-14T08:37:50.000Z</time>
      </trkpt>
      <trkpt lat="44.69077" lon="5.6545">
        <ele>1337</ele>
        <time>2013-09-14T08:37:55.000Z</time>
      </trkpt>
      <trkpt lat="44.69077" lon="5.6545">
        <ele>1337</ele>
        <time>2013-09-14T08:37:55.000Z</time>
      </trkpt>
      <trkpt lat="44.69077" lon="5.6545">
        <ele>1337</ele>
        <time>2013-09-14T08:37:56.000Z</time>
      </trkpt>
      <trkpt lat="44.69082" lon="5.65448">
        <ele>1338</ele>
        <time>2013-09-14T08:38:01.000Z</time>
      </trkpt>
      <trkpt lat="44.69087" lon="5.65448">
        <ele>1339</ele>
        <time>2013-09-14T08:38:08.000Z</time>
      </trkpt>
      <trkpt lat="44.69092" lon="5.65448">
        <ele>1341</ele>
        <time>2013-09-14T08:38:14.000Z</time>
      </trkpt>
      <trkpt lat="44.69092" lon="5.65448">
        <ele>1341</ele>
        <time>2013-09-14T08:38:14.000Z</time>
      </trkpt>
      <trkpt lat="44.69092" lon="5.65448">
        <ele>1341</ele>
        <time>2013-09-14T08:38:15.000Z</time>
      </trkpt>
      <trkpt lat="44.69094" lon="5.65442">
        <ele>1342</ele>
        <time>2013-09-14T08:38:22.000Z</time>
      </trkpt>
      <trkpt lat="44.69094" lon="5.65442">
        <ele>1342</ele>
        <time>2013-09-14T08:38:22.000Z</time>
      </trkpt>
      <trkpt lat="44.69094" lon="5.65442">
        <ele>1342</ele>
        <time>2013-09-14T08:38:28.000Z</time>
      </trkpt>
      <trkpt lat="44.69099" lon="5.65438">
        <ele>1343</ele>
        <time>2013-09-14T08:38:34.000Z</time>
      </trkpt>
      <trkpt lat="44.69099" lon="5.65438">
        <ele>1343</ele>
        <time>2013-09-14T08:38:34.000Z</time>
      </trkpt>
      <trkpt lat="44.69099" lon="5.65438">
        <ele>1344</ele>
        <time>2013-09-14T08:38:35.000Z</time>
      </trkpt>
      <trkpt lat="44.69101" lon="5.65431">
        <ele>1346</ele>
        <time>2013-09-14T08:38:46.000Z</time>
      </trkpt>
      <trkpt lat="44.69101" lon="5.65431">
        <ele>1346</ele>
        <time>2013-09-14T08:38:46.000Z</time>
      </trkpt>
      <trkpt lat="44.69101" lon="5.65431">
        <ele>1347</ele>
        <time>2013-09-14T08:38:48.000Z</time>
      </trkpt>
      <trkpt lat="44.69102" lon="5.65425">
        <ele>1348</ele>
        <time>2013-09-14T08:38:54.000Z</time>
      </trkpt>
      <trkpt lat="44.69102" lon="5.65425">
        <ele>1348</ele>
        <time>2013-09-14T08:38:54.000Z</time>
      </trkpt>
      <trkpt lat="44.69102" lon="5.65425">
        <ele>1349</ele>
        <time>2013-09-14T08:38:55.000Z</time>
      </trkpt>
      <trkpt lat="44.69106" lon="5.65422">
        <ele>1350</ele>
        <time>2013-09-14T08:39:01.000Z</time>
      </trkpt>
      <trkpt lat="44.69106" lon="5.65422">
        <ele>1350</ele>
        <time>2013-09-14T08:39:01.000Z</time>
      </trkpt>
      <trkpt lat="44.69106" lon="5.65422">
        <ele>1350</ele>
        <time>2013-09-14T08:39:02.000Z</time>
      </trkpt>
      <trkpt lat="44.69112" lon="5.65422">
        <ele>1351</ele>
        <time>2013-09-14T08:39:09.000Z</time>
      </trkpt>
      <trkpt lat="44.69117" lon="5.65422">
        <ele>1352</ele>
        <time>2013-09-14T08:39:13.000Z</time>
      </trkpt>
      <trkpt lat="44.69121" lon="5.65418">
        <ele>1353</ele>
        <time>2013-09-14T08:39:19.000Z</time>
      </trkpt>
      <trkpt lat="44.69121" lon="5.65418">
        <ele>1353</ele>
        <time>2013-09-14T08:39:19.000Z</time>
      </trkpt>
      <trkpt lat="44.69121" lon="5.65418">
        <ele>1354</ele>
        <time>2013-09-14T08:39:20.000Z</time>
      </trkpt>
      <trkpt lat="44.69126" lon="5.65414">
        <ele>1354</ele>
        <time>2013-09-14T08:39:24.000Z</time>
      </trkpt>
      <trkpt lat="44.6913" lon="5.65408">
        <ele>1356</ele>
        <time>2013-09-14T08:39:30.000Z</time>
      </trkpt>
      <trkpt lat="44.6913" lon="5.65408">
        <ele>1356</ele>
        <time>2013-09-14T08:39:30.000Z</time>
      </trkpt>
      <trkpt lat="44.6913" lon="5.65408">
        <ele>1356</ele>
        <time>2013-09-14T08:39:31.000Z</time>
      </trkpt>
      <trkpt lat="44.69131" lon="5.65401">
        <ele>1357</ele>
        <time>2013-09-14T08:39:37.000Z</time>
      </trkpt>
      <trkpt lat="44.69131" lon="5.65401">
        <ele>1357</ele>
        <time>2013-09-14T08:39:37.000Z</time>
      </trkpt>
      <trkpt lat="44.69131" lon="5.65401">
        <ele>1358</ele>
        <time>2013-09-14T08:40:08.000Z</time>
      </trkpt>
      <trkpt lat="44.69136" lon="5.65401">
        <ele>1360</ele>
        <time>2013-09-14T08:41:26.000Z</time>
      </trkpt>
      <trkpt lat="44.69136" lon="5.65401">
        <ele>1360</ele>
        <time>2013-09-14T08:41:26.000Z</time>
      </trkpt>
      <trkpt lat="44.69136" lon="5.65401">
        <ele>1360</ele>
        <time>2013-09-14T08:41:38.000Z</time>
      </trkpt>
      <trkpt lat="44.69132" lon="5.65403">
        <ele>1361</ele>
        <time>2013-09-14T08:41:50.000Z</time>
      </trkpt>
      <trkpt lat="44.69132" lon="5.65403">
        <ele>1361</ele>
        <time>2013-09-14T08:41:50.000Z</time>
      </trkpt>
      <trkpt lat="44.69132" lon="5.65403">
        <ele>1361</ele>
        <time>2013-09-14T08:41:52.000Z</time>
      </trkpt>
      <trkpt lat="44.69136" lon="5.65399">
        <ele>1362</ele>
        <time>2013-09-14T08:42:08.000Z</time>
      </trkpt>
      <trkpt lat="44.69141" lon="5.65395">
        <ele>1363</ele>
        <time>2013-09-14T08:42:11.000Z</time>
      </trkpt>
      <trkpt lat="44.69145" lon="5.6539">
        <ele>1363</ele>
        <time>2013-09-14T08:42:14.000Z</time>
      </trkpt>
      <trkpt lat="44.69149" lon="5.65386">
        <ele>1363</ele>
        <time>2013-09-14T08:42:18.000Z</time>
      </trkpt>
      <trkpt lat="44.69151" lon="5.6538">
        <ele>1363</ele>
        <time>2013-09-14T08:42:33.000Z</time>
      </trkpt>
      <trkpt lat="44.69151" lon="5.6538">
        <ele>1363</ele>
        <time>2013-09-14T08:42:33.000Z</time>
      </trkpt>
      <trkpt lat="44.69151" lon="5.6538">
        <ele>1363</ele>
        <time>2013-09-14T08:42:36.000Z</time>
      </trkpt>
      <trkpt lat="44.69156" lon="5.65382">
        <ele>1364</ele>
        <time>2013-09-14T08:44:22.000Z</time>
      </trkpt>
      <trkpt lat="44.69156" lon="5.65382">
        <ele>1364</ele>
        <time>2013-09-14T08:44:22.000Z</time>
      </trkpt>
      <trkpt lat="44.69156" lon="5.65382">
        <ele>1364</ele>
        <time>2013-09-14T08:44:23.000Z</time>
      </trkpt>
      <trkpt lat="44.6916" lon="5.65384">
        <ele>1364</ele>
        <time>2013-09-14T08:44:28.000Z</time>
      </trkpt>
      <trkpt lat="44.69165" lon="5.65384">
        <ele>1364</ele>
        <time>2013-09-14T08:44:42.000Z</time>
      </trkpt>
      <trkpt lat="44.69165" lon="5.6539">
        <ele>1365</ele>
        <time>2013-09-14T08:44:55.000Z</time>
      </trkpt>
      <trkpt lat="44.69165" lon="5.65384">
        <ele>1365</ele>
        <time>2013-09-14T08:45:16.000Z</time>
      </trkpt>
      <trkpt lat="44.69161" lon="5.65382">
        <ele>1365</ele>
        <time>2013-09-14T08:45:23.000Z</time>
      </trkpt>
      <trkpt lat="44.69161" lon="5.65382">
        <ele>1365</ele>
        <time>2013-09-14T08:45:23.000Z</time>
      </trkpt>
      <trkpt lat="44.69161" lon="5.65382">
        <ele>1365</ele>
        <time>2013-09-14T08:45:25.000Z</time>
      </trkpt>
      <trkpt lat="44.69165" lon="5.6538">
        <ele>1366</ele>
        <time>2013-09-14T08:45:55.000Z</time>
      </trkpt>
      <trkpt lat="44.69165" lon="5.6538">
        <ele>1366</ele>
        <time>2013-09-14T08:45:55.000Z</time>
      </trkpt>
      <trkpt lat="44.69165" lon="5.6538">
        <ele>1366</ele>
        <time>2013-09-14T08:45:56.000Z</time>
      </trkpt>
      <trkpt lat="44.69166" lon="5.65386">
        <ele>1366</ele>
        <time>2013-09-14T08:46:04.000Z</time>
      </trkpt>
      <trkpt lat="44.69166" lon="5.65386">
        <ele>1366</ele>
        <time>2013-09-14T08:46:04.000Z</time>
      </trkpt>
      <trkpt lat="44.69166" lon="5.65386">
        <ele>1366</ele>
        <time>2013-09-14T08:46:05.000Z</time>
      </trkpt>
      <trkpt lat="44.69171" lon="5.65388">
        <ele>1366</ele>
        <time>2013-09-14T08:46:17.000Z</time>
      </trkpt>
      <trkpt lat="44.69171" lon="5.65388">
        <ele>1366</ele>
        <time>2013-09-14T08:46:17.000Z</time>
      </trkpt>
      <trkpt lat="44.69171" lon="5.65388">
        <ele>1366</ele>
        <time>2013-09-14T08:46:18.000Z</time>
      </trkpt>
      <trkpt lat="44.69168" lon="5.65382">
        <ele>1367</ele>
        <time>2013-09-14T08:46:28.000Z</time>
      </trkpt>
      <trkpt lat="44.69168" lon="5.65382">
        <ele>1367</ele>
        <time>2013-09-14T08:46:28.000Z</time>
      </trkpt>
      <trkpt lat="44.69168" lon="5.65382">
        <ele>1368</ele>
        <time>2013-09-14T08:46:43.000Z</time>
      </trkpt>
      <trkpt lat="44.69173" lon="5.65384">
        <ele>1369</ele>
        <time>2013-09-14T08:47:11.000Z</time>
      </trkpt>
      <trkpt lat="44.69173" lon="5.65384">
        <ele>1369</ele>
        <time>2013-09-14T08:47:11.000Z</time>
      </trkpt>
      <trkpt lat="44.69173" lon="5.65384">
        <ele>1369</ele>
        <time>2013-09-14T08:47:12.000Z</time>
      </trkpt>
      <trkpt lat="44.69168" lon="5.65386">
        <ele>1369</ele>
        <time>2013-09-14T08:47:30.000Z</time>
      </trkpt>
      <trkpt lat="44.69168" lon="5.65386">
        <ele>1369</ele>
        <time>2013-09-14T08:47:30.000Z</time>
      </trkpt>
      <trkpt lat="44.69168" lon="5.65386">
        <ele>1369</ele>
        <time>2013-09-14T08:47:32.000Z</time>
      </trkpt>
      <trkpt lat="44.69163" lon="5.65384">
        <ele>1369</ele>
        <time>2013-09-14T08:47:35.000Z</time>
      </trkpt>
      <trkpt lat="44.69158" lon="5.65382">
        <ele>1369</ele>
        <time>2013-09-14T08:47:38.000Z</time>
      </trkpt>
      <trkpt lat="44.69152" lon="5.65382">
        <ele>1369</ele>
        <time>2013-09-14T08:47:48.000Z</time>
      </trkpt>
      <trkpt lat="44.69152" lon="5.65382">
        <ele>1369</ele>
        <time>2013-09-14T08:47:48.000Z</time>
      </trkpt>
      <trkpt lat="44.69152" lon="5.65382">
        <ele>1369</ele>
        <time>2013-09-14T08:47:52.000Z</time>
      </trkpt>
      <trkpt lat="44.69156" lon="5.65386">
        <ele>1368</ele>
        <time>2013-09-14T08:47:56.000Z</time>
      </trkpt>
      <trkpt lat="44.6916" lon="5.65388">
        <ele>1368</ele>
        <time>2013-09-14T08:48:00.000Z</time>
      </trkpt>
      <trkpt lat="44.69164" lon="5.65386">
        <ele>1368</ele>
        <time>2013-09-14T08:48:03.000Z</time>
      </trkpt>
      <trkpt lat="44.6917" lon="5.65384">
        <ele>1368</ele>
        <time>2013-09-14T08:48:06.000Z</time>
      </trkpt>
      <trkpt lat="44.69176" lon="5.65382">
        <ele>1368</ele>
        <time>2013-09-14T08:48:09.000Z</time>
      </trkpt>
      <trkpt lat="44.69184" lon="5.6538">
        <ele>1368</ele>
        <time>2013-09-14T08:48:12.000Z</time>
      </trkpt>
      <trkpt lat="44.69189" lon="5.6538">
        <ele>1368</ele>
        <time>2013-09-14T08:48:14.000Z</time>
      </trkpt>
      <trkpt lat="44.69193" lon="5.65377">
        <ele>1368</ele>
        <time>2013-09-14T08:48:16.000Z</time>
      </trkpt>
      <trkpt lat="44.69198" lon="5.65375">
        <ele>1368</ele>
        <time>2013-09-14T08:48:18.000Z</time>
      </trkpt>
      <trkpt lat="44.69204" lon="5.65375">
        <ele>1368</ele>
        <time>2013-09-14T08:48:20.000Z</time>
      </trkpt>
      <trkpt lat="44.6921" lon="5.65373">
        <ele>1368</ele>
        <time>2013-09-14T08:48:22.000Z</time>
      </trkpt>
      <trkpt lat="44.69217" lon="5.65373">
        <ele>1368</ele>
        <time>2013-09-14T08:48:24.000Z</time>
      </trkpt>
      <trkpt lat="44.69224" lon="5.65371">
        <ele>1368</ele>
        <time>2013-09-14T08:48:26.000Z</time>
      </trkpt>
      <trkpt lat="44.69232" lon="5.65371">
        <ele>1368</ele>
        <time>2013-09-14T08:48:28.000Z</time>
      </trkpt>
      <trkpt lat="44.69238" lon="5.65369">
        <ele>1368</ele>
        <time>2013-09-14T08:48:30.000Z</time>
      </trkpt>
      <trkpt lat="44.69246" lon="5.65367">
        <ele>1368</ele>
        <time>2013-09-14T08:48:32.000Z</time>
      </trkpt>
      <trkpt lat="44.69252" lon="5.65364">
        <ele>1368</ele>
        <time>2013-09-14T08:48:34.000Z</time>
      </trkpt>
      <trkpt lat="44.6926" lon="5.65362">
        <ele>1369</ele>
        <time>2013-09-14T08:48:36.000Z</time>
      </trkpt>
      <trkpt lat="44.69266" lon="5.6536">
        <ele>1369</ele>
        <time>2013-09-14T08:48:38.000Z</time>
      </trkpt>
      <trkpt lat="44.69274" lon="5.65356">
        <ele>1369</ele>
        <time>2013-09-14T08:48:40.000Z</time>
      </trkpt>
      <trkpt lat="44.6928" lon="5.65354">
        <ele>1369</ele>
        <time>2013-09-14T08:48:42.000Z</time>
      </trkpt>
      <trkpt lat="44.69286" lon="5.65352">
        <ele>1369</ele>
        <time>2013-09-14T08:48:44.000Z</time>
      </trkpt>
      <trkpt lat="44.69293" lon="5.65347">
        <ele>1369</ele>
        <time>2013-09-14T08:48:46.000Z</time>
      </trkpt>
      <trkpt lat="44.693" lon="5.65345">
        <ele>1369</ele>
        <time>2013-09-14T08:48:48.000Z</time>
      </trkpt>
      <trkpt lat="44.69307" lon="5.65343">
        <ele>1369</ele>
        <time>2013-09-14T08:48:50.000Z</time>
      </trkpt>
      <trkpt lat="44.69314" lon="5.65341">
        <ele>1369</ele>
        <time>2013-09-14T08:48:52.000Z</time>
      </trkpt>
      <trkpt lat="44.69322" lon="5.65341">
        <ele>1369</ele>
        <time>2013-09-14T08:48:54.000Z</time>
      </trkpt>
      <trkpt lat="44.69329" lon="5.65339">
        <ele>1369</ele>
        <time>2013-09-14T08:48:56.000Z</time>
      </trkpt>
      <trkpt lat="44.69337" lon="5.65334">
        <ele>1369</ele>
        <time>2013-09-14T08:48:58.000Z</time>
      </trkpt>
      <trkpt lat="44.69344" lon="5.65332">
        <ele>1369</ele>
        <time>2013-09-14T08:49:00.000Z</time>
      </trkpt>
      <trkpt lat="44.69352" lon="5.65328">
        <ele>1369</ele>
        <time>2013-09-14T08:49:02.000Z</time>
      </trkpt>
      <trkpt lat="44.69356" lon="5.65326">
        <ele>1369</ele>
        <time>2013-09-14T08:49:03.000Z</time>
      </trkpt>
      <trkpt lat="44.69364" lon="5.65322">
        <ele>1368</ele>
        <time>2013-09-14T08:49:05.000Z</time>
      </trkpt>
      <trkpt lat="44.69371" lon="5.65317">
        <ele>1368</ele>
        <time>2013-09-14T08:49:07.000Z</time>
      </trkpt>
      <trkpt lat="44.69376" lon="5.65315">
        <ele>1368</ele>
        <time>2013-09-14T08:49:08.000Z</time>
      </trkpt>
      <trkpt lat="44.6938" lon="5.65313">
        <ele>1368</ele>
        <time>2013-09-14T08:49:09.000Z</time>
      </trkpt>
      <trkpt lat="44.69384" lon="5.65311">
        <ele>1368</ele>
        <time>2013-09-14T08:49:10.000Z</time>
      </trkpt>
      <trkpt lat="44.69388" lon="5.65309">
        <ele>1368</ele>
        <time>2013-09-14T08:49:11.000Z</time>
      </trkpt>
      <trkpt lat="44.69394" lon="5.65307">
        <ele>1367</ele>
        <time>2013-09-14T08:49:12.000Z</time>
      </trkpt>
      <trkpt lat="44.69398" lon="5.65304">
        <ele>1367</ele>
        <time>2013-09-14T08:49:13.000Z</time>
      </trkpt>
      <trkpt lat="44.69402" lon="5.65302">
        <ele>1367</ele>
        <time>2013-09-14T08:49:14.000Z</time>
      </trkpt>
      <trkpt lat="44.69408" lon="5.653">
        <ele>1367</ele>
        <time>2013-09-14T08:49:15.000Z</time>
      </trkpt>
      <trkpt lat="44.69412" lon="5.65298">
        <ele>1367</ele>
        <time>2013-09-14T08:49:16.000Z</time>
      </trkpt>
      <trkpt lat="44.69416" lon="5.65296">
        <ele>1367</ele>
        <time>2013-09-14T08:49:17.000Z</time>
      </trkpt>
      <trkpt lat="44.69421" lon="5.65294">
        <ele>1367</ele>
        <time>2013-09-14T08:49:18.000Z</time>
      </trkpt>
      <trkpt lat="44.69425" lon="5.65292">
        <ele>1367</ele>
        <time>2013-09-14T08:49:19.000Z</time>
      </trkpt>
      <trkpt lat="44.69429" lon="5.65289">
        <ele>1367</ele>
        <time>2013-09-14T08:49:20.000Z</time>
      </trkpt>
      <trkpt lat="44.69434" lon="5.65287">
        <ele>1367</ele>
        <time>2013-09-14T08:49:21.000Z</time>
      </trkpt>
      <trkpt lat="44.69438" lon="5.65285">
        <ele>1367</ele>
        <time>2013-09-14T08:49:22.000Z</time>
      </trkpt>
      <trkpt lat="44.69442" lon="5.65283">
        <ele>1367</ele>
        <time>2013-09-14T08:49:23.000Z</time>
      </trkpt>
      <trkpt lat="44.69446" lon="5.65281">
        <ele>1367</ele>
        <time>2013-09-14T08:49:24.000Z</time>
      </trkpt>
      <trkpt lat="44.69451" lon="5.65279">
        <ele>1367</ele>
        <time>2013-09-14T08:49:25.000Z</time>
      </trkpt>
      <trkpt lat="44.69455" lon="5.65277">
        <ele>1367</ele>
        <time>2013-09-14T08:49:26.000Z</time>
      </trkpt>
      <trkpt lat="44.6946" lon="5.65272">
        <ele>1367</ele>
        <time>2013-09-14T08:49:27.000Z</time>
      </trkpt>
      <trkpt lat="44.69465" lon="5.6527">
        <ele>1367</ele>
        <time>2013-09-14T08:49:28.000Z</time>
      </trkpt>
      <trkpt lat="44.69469" lon="5.65268">
        <ele>1367</ele>
        <time>2013-09-14T08:49:29.000Z</time>
      </trkpt>
      <trkpt lat="44.69473" lon="5.65266">
        <ele>1367</ele>
        <time>2013-09-14T08:49:30.000Z</time>
      </trkpt>
      <trkpt lat="44.69478" lon="5.65264">
        <ele>1367</ele>
        <time>2013-09-14T08:49:31.000Z</time>
      </trkpt>
      <trkpt lat="44.69483" lon="5.65262">
        <ele>1367</ele>
        <time>2013-09-14T08:49:32.000Z</time>
      </trkpt>
      <trkpt lat="44.69487" lon="5.65257">
        <ele>1367</ele>
        <time>2013-09-14T08:49:33.000Z</time>
      </trkpt>
      <trkpt lat="44.69491" lon="5.65255">
        <ele>1367</ele>
        <time>2013-09-14T08:49:34.000Z</time>
      </trkpt>
      <trkpt lat="44.69499" lon="5.65251">
        <ele>1367</ele>
        <time>2013-09-14T08:49:36.000Z</time>
      </trkpt>
      <trkpt lat="44.69503" lon="5.65249">
        <ele>1367</ele>
        <time>2013-09-14T08:49:37.000Z</time>
      </trkpt>
      <trkpt lat="44.69508" lon="5.65246">
        <ele>1367</ele>
        <time>2013-09-14T08:49:38.000Z</time>
      </trkpt>
      <trkpt lat="44.69512" lon="5.65244">
        <ele>1367</ele>
        <time>2013-09-14T08:49:39.000Z</time>
      </trkpt>
      <trkpt lat="44.69516" lon="5.65242">
        <ele>1368</ele>
        <time>2013-09-14T08:49:40.000Z</time>
      </trkpt>
      <trkpt lat="44.6952" lon="5.6524">
        <ele>1368</ele>
        <time>2013-09-14T08:49:41.000Z</time>
      </trkpt>
      <trkpt lat="44.69525" lon="5.65238">
        <ele>1368</ele>
        <time>2013-09-14T08:49:42.000Z</time>
      </trkpt>
      <trkpt lat="44.69529" lon="5.65236">
        <ele>1368</ele>
        <time>2013-09-14T08:49:43.000Z</time>
      </trkpt>
      <trkpt lat="44.69536" lon="5.65234">
        <ele>1368</ele>
        <time>2013-09-14T08:49:45.000Z</time>
      </trkpt>
      <trkpt lat="44.69541" lon="5.65232">
        <ele>1368</ele>
        <time>2013-09-14T08:49:46.000Z</time>
      </trkpt>
      <trkpt lat="44.69548" lon="5.65229">
        <ele>1368</ele>
        <time>2013-09-14T08:49:48.000Z</time>
      </trkpt>
      <trkpt lat="44.69553" lon="5.65227">
        <ele>1368</ele>
        <time>2013-09-14T08:49:49.000Z</time>
      </trkpt>
      <trkpt lat="44.6956" lon="5.65225">
        <ele>1368</ele>
        <time>2013-09-14T08:49:51.000Z</time>
      </trkpt>
      <trkpt lat="44.69568" lon="5.65221">
        <ele>1368</ele>
        <time>2013-09-14T08:49:53.000Z</time>
      </trkpt>
      <trkpt lat="44.69574" lon="5.65219">
        <ele>1368</ele>
        <time>2013-09-14T08:49:55.000Z</time>
      </trkpt>
      <trkpt lat="44.6958" lon="5.65216">
        <ele>1368</ele>
        <time>2013-09-14T08:49:57.000Z</time>
      </trkpt>
      <trkpt lat="44.69587" lon="5.65212">
        <ele>1368</ele>
        <time>2013-09-14T08:49:59.000Z</time>
      </trkpt>
      <trkpt lat="44.69594" lon="5.65208">
        <ele>1368</ele>
        <time>2013-09-14T08:50:01.000Z</time>
      </trkpt>
      <trkpt lat="44.69602" lon="5.65202">
        <ele>1368</ele>
        <time>2013-09-14T08:50:03.000Z</time>
      </trkpt>
      <trkpt lat="44.69606" lon="5.65199">
        <ele>1368</ele>
        <time>2013-09-14T08:50:04.000Z</time>
      </trkpt>
      <trkpt lat="44.6961" lon="5.65195">
        <ele>1368</ele>
        <time>2013-09-14T08:50:05.000Z</time>
      </trkpt>
      <trkpt lat="44.69617" lon="5.65186">
        <ele>1368</ele>
        <time>2013-09-14T08:50:07.000Z</time>
      </trkpt>
      <trkpt lat="44.69622" lon="5.65176">
        <ele>1368</ele>
        <time>2013-09-14T08:50:09.000Z</time>
      </trkpt>
      <trkpt lat="44.69629" lon="5.65165">
        <ele>1368</ele>
        <time>2013-09-14T08:50:11.000Z</time>
      </trkpt>
      <trkpt lat="44.69632" lon="5.65159">
        <ele>1368</ele>
        <time>2013-09-14T08:50:12.000Z</time>
      </trkpt>
      <trkpt lat="44.69636" lon="5.65152">
        <ele>1368</ele>
        <time>2013-09-14T08:50:13.000Z</time>
      </trkpt>
      <trkpt lat="44.6964" lon="5.65146">
        <ele>1368</ele>
        <time>2013-09-14T08:50:14.000Z</time>
      </trkpt>
      <trkpt lat="44.69643" lon="5.65139">
        <ele>1368</ele>
        <time>2013-09-14T08:50:15.000Z</time>
      </trkpt>
      <trkpt lat="44.69647" lon="5.65131">
        <ele>1368</ele>
        <time>2013-09-14T08:50:16.000Z</time>
      </trkpt>
      <trkpt lat="44.6965" lon="5.65124">
        <ele>1368</ele>
        <time>2013-09-14T08:50:17.000Z</time>
      </trkpt>
      <trkpt lat="44.69654" lon="5.65118">
        <ele>1368</ele>
        <time>2013-09-14T08:50:18.000Z</time>
      </trkpt>
      <trkpt lat="44.6966" lon="5.65109">
        <ele>1367</ele>
        <time>2013-09-14T08:50:19.000Z</time>
      </trkpt>
      <trkpt lat="44.69664" lon="5.65105">
        <ele>1367</ele>
        <time>2013-09-14T08:50:20.000Z</time>
      </trkpt>
      <trkpt lat="44.6967" lon="5.65098">
        <ele>1367</ele>
        <time>2013-09-14T08:50:21.000Z</time>
      </trkpt>
      <trkpt lat="44.69676" lon="5.65094">
        <ele>1368</ele>
        <time>2013-09-14T08:50:22.000Z</time>
      </trkpt>
      <trkpt lat="44.69682" lon="5.65092">
        <ele>1368</ele>
        <time>2013-09-14T08:50:23.000Z</time>
      </trkpt>
      <trkpt lat="44.69689" lon="5.6509">
        <ele>1368</ele>
        <time>2013-09-14T08:50:24.000Z</time>
      </trkpt>
      <trkpt lat="44.69695" lon="5.65088">
        <ele>1368</ele>
        <time>2013-09-14T08:50:25.000Z</time>
      </trkpt>
      <trkpt lat="44.69702" lon="5.65086">
        <ele>1368</ele>
        <time>2013-09-14T08:50:26.000Z</time>
      </trkpt>
      <trkpt lat="44.69708" lon="5.65084">
        <ele>1368</ele>
        <time>2013-09-14T08:50:27.000Z</time>
      </trkpt>
      <trkpt lat="44.69715" lon="5.65081">
        <ele>1368</ele>
        <time>2013-09-14T08:50:28.000Z</time>
      </trkpt>
      <trkpt lat="44.69721" lon="5.65081">
        <ele>1368</ele>
        <time>2013-09-14T08:50:29.000Z</time>
      </trkpt>
      <trkpt lat="44.69728" lon="5.65084">
        <ele>1368</ele>
        <time>2013-09-14T08:50:30.000Z</time>
      </trkpt>
      <trkpt lat="44.69733" lon="5.65084">
        <ele>1367</ele>
        <time>2013-09-14T08:50:31.000Z</time>
      </trkpt>
      <trkpt lat="44.69739" lon="5.65084">
        <ele>1367</ele>
        <time>2013-09-14T08:50:32.000Z</time>
      </trkpt>
      <trkpt lat="44.69746" lon="5.65086">
        <ele>1366</ele>
        <time>2013-09-14T08:50:33.000Z</time>
      </trkpt>
      <trkpt lat="44.69752" lon="5.65086">
        <ele>1366</ele>
        <time>2013-09-14T08:50:34.000Z</time>
      </trkpt>
      <trkpt lat="44.69758" lon="5.65088">
        <ele>1366</ele>
        <time>2013-09-14T08:50:35.000Z</time>
      </trkpt>
      <trkpt lat="44.69764" lon="5.65088">
        <ele>1365</ele>
        <time>2013-09-14T08:50:36.000Z</time>
      </trkpt>
      <trkpt lat="44.6977" lon="5.6509">
        <ele>1364</ele>
        <time>2013-09-14T08:50:37.000Z</time>
      </trkpt>
      <trkpt lat="44.69776" lon="5.65088">
        <ele>1364</ele>
        <time>2013-09-14T08:50:38.000Z</time>
      </trkpt>
      <trkpt lat="44.69782" lon="5.65088">
        <ele>1364</ele>
        <time>2013-09-14T08:50:39.000Z</time>
      </trkpt>
      <trkpt lat="44.69789" lon="5.65088">
        <ele>1363</ele>
        <time>2013-09-14T08:50:40.000Z</time>
      </trkpt>
      <trkpt lat="44.69795" lon="5.65086">
        <ele>1363</ele>
        <time>2013-09-14T08:50:41.000Z</time>
      </trkpt>
      <trkpt lat="44.698" lon="5.65084">
        <ele>1363</ele>
        <time>2013-09-14T08:50:42.000Z</time>
      </trkpt>
      <trkpt lat="44.69807" lon="5.65084">
        <ele>1363</ele>
        <time>2013-09-14T08:50:43.000Z</time>
      </trkpt>
      <trkpt lat="44.69813" lon="5.65081">
        <ele>1363</ele>
        <time>2013-09-14T08:50:44.000Z</time>
      </trkpt>
      <trkpt lat="44.69819" lon="5.65079">
        <ele>1363</ele>
        <time>2013-09-14T08:50:45.000Z</time>
      </trkpt>
      <trkpt lat="44.69825" lon="5.65077">
        <ele>1363</ele>
        <time>2013-09-14T08:50:46.000Z</time>
      </trkpt>
      <trkpt lat="44.6983" lon="5.65075">
        <ele>1363</ele>
        <time>2013-09-14T08:50:47.000Z</time>
      </trkpt>
      <trkpt lat="44.69837" lon="5.65071">
        <ele>1363</ele>
        <time>2013-09-14T08:50:48.000Z</time>
      </trkpt>
      <trkpt lat="44.69842" lon="5.65068">
        <ele>1363</ele>
        <time>2013-09-14T08:50:49.000Z</time>
      </trkpt>
      <trkpt lat="44.69849" lon="5.65066">
        <ele>1363</ele>
        <time>2013-09-14T08:50:50.000Z</time>
      </trkpt>
      <trkpt lat="44.69854" lon="5.65064">
        <ele>1363</ele>
        <time>2013-09-14T08:50:51.000Z</time>
      </trkpt>
      <trkpt lat="44.6986" lon="5.65062">
        <ele>1363</ele>
        <time>2013-09-14T08:50:52.000Z</time>
      </trkpt>
      <trkpt lat="44.69867" lon="5.6506">
        <ele>1363</ele>
        <time>2013-09-14T08:50:53.000Z</time>
      </trkpt>
      <trkpt lat="44.69873" lon="5.65058">
        <ele>1363</ele>
        <time>2013-09-14T08:50:54.000Z</time>
      </trkpt>
      <trkpt lat="44.6988" lon="5.65056">
        <ele>1363</ele>
        <time>2013-09-14T08:50:55.000Z</time>
      </trkpt>
      <trkpt lat="44.69885" lon="5.65053">
        <ele>1363</ele>
        <time>2013-09-14T08:50:56.000Z</time>
      </trkpt>
      <trkpt lat="44.69892" lon="5.65051">
        <ele>1362</ele>
        <time>2013-09-14T08:50:57.000Z</time>
      </trkpt>
      <trkpt lat="44.69898" lon="5.65049">
        <ele>1362</ele>
        <time>2013-09-14T08:50:58.000Z</time>
      </trkpt>
      <trkpt lat="44.69903" lon="5.65045">
        <ele>1362</ele>
        <time>2013-09-14T08:50:59.000Z</time>
      </trkpt>
      <trkpt lat="44.6991" lon="5.65043">
        <ele>1362</ele>
        <time>2013-09-14T08:51:00.000Z</time>
      </trkpt>
      <trkpt lat="44.69916" lon="5.65038">
        <ele>1362</ele>
        <time>2013-09-14T08:51:01.000Z</time>
      </trkpt>
      <trkpt lat="44.69922" lon="5.65034">
        <ele>1362</ele>
        <time>2013-09-14T08:51:02.000Z</time>
      </trkpt>
      <trkpt lat="44.69928" lon="5.65028">
        <ele>1362</ele>
        <time>2013-09-14T08:51:03.000Z</time>
      </trkpt>
      <trkpt lat="44.69934" lon="5.65023">
        <ele>1362</ele>
        <time>2013-09-14T08:51:04.000Z</time>
      </trkpt>
      <trkpt lat="44.6994" lon="5.65019">
        <ele>1362</ele>
        <time>2013-09-14T08:51:05.000Z</time>
      </trkpt>
      <trkpt lat="44.69946" lon="5.65017">
        <ele>1362</ele>
        <time>2013-09-14T08:51:06.000Z</time>
      </trkpt>
      <trkpt lat="44.69954" lon="5.65017">
        <ele>1362</ele>
        <time>2013-09-14T08:51:07.000Z</time>
      </trkpt>
      <trkpt lat="44.69961" lon="5.65015">
        <ele>1361</ele>
        <time>2013-09-14T08:51:08.000Z</time>
      </trkpt>
      <trkpt lat="44.69969" lon="5.65017">
        <ele>1361</ele>
        <time>2013-09-14T08:51:09.000Z</time>
      </trkpt>
      <trkpt lat="44.69976" lon="5.65019">
        <ele>1361</ele>
        <time>2013-09-14T08:51:10.000Z</time>
      </trkpt>
      <trkpt lat="44.69984" lon="5.65021">
        <ele>1361</ele>
        <time>2013-09-14T08:51:11.000Z</time>
      </trkpt>
      <trkpt lat="44.69991" lon="5.65021">
        <ele>1361</ele>
        <time>2013-09-14T08:51:12.000Z</time>
      </trkpt>
      <trkpt lat="44.69999" lon="5.65021">
        <ele>1361</ele>
        <time>2013-09-14T08:51:13.000Z</time>
      </trkpt>
      <trkpt lat="44.70006" lon="5.65019">
        <ele>1362</ele>
        <time>2013-09-14T08:51:14.000Z</time>
      </trkpt>
      <trkpt lat="44.70014" lon="5.65017">
        <ele>1362</ele>
        <time>2013-09-14T08:51:15.000Z</time>
      </trkpt>
      <trkpt lat="44.70021" lon="5.65013">
        <ele>1362</ele>
        <time>2013-09-14T08:51:16.000Z</time>
      </trkpt>
      <trkpt lat="44.70028" lon="5.65004">
        <ele>1361</ele>
        <time>2013-09-14T08:51:17.000Z</time>
      </trkpt>
      <trkpt lat="44.70033" lon="5.64996">
        <ele>1361</ele>
        <time>2013-09-14T08:51:18.000Z</time>
      </trkpt>
      <trkpt lat="44.7004" lon="5.64987">
        <ele>1361</ele>
        <time>2013-09-14T08:51:19.000Z</time>
      </trkpt>
      <trkpt lat="44.70045" lon="5.64978">
        <ele>1360</ele>
        <time>2013-09-14T08:51:20.000Z</time>
      </trkpt>
      <trkpt lat="44.7005" lon="5.6497">
        <ele>1360</ele>
        <time>2013-09-14T08:51:21.000Z</time>
      </trkpt>
      <trkpt lat="44.70056" lon="5.64961">
        <ele>1359</ele>
        <time>2013-09-14T08:51:22.000Z</time>
      </trkpt>
      <trkpt lat="44.7006" lon="5.64953">
        <ele>1359</ele>
        <time>2013-09-14T08:51:23.000Z</time>
      </trkpt>
      <trkpt lat="44.70064" lon="5.64944">
        <ele>1358</ele>
        <time>2013-09-14T08:51:24.000Z</time>
      </trkpt>
      <trkpt lat="44.7007" lon="5.64938">
        <ele>1358</ele>
        <time>2013-09-14T08:51:25.000Z</time>
      </trkpt>
      <trkpt lat="44.70077" lon="5.64931">
        <ele>1357</ele>
        <time>2013-09-14T08:51:26.000Z</time>
      </trkpt>
      <trkpt lat="44.70084" lon="5.64927">
        <ele>1357</ele>
        <time>2013-09-14T08:51:27.000Z</time>
      </trkpt>
      <trkpt lat="44.7009" lon="5.64922">
        <ele>1357</ele>
        <time>2013-09-14T08:51:28.000Z</time>
      </trkpt>
      <trkpt lat="44.70098" lon="5.6492">
        <ele>1357</ele>
        <time>2013-09-14T08:51:29.000Z</time>
      </trkpt>
      <trkpt lat="44.70105" lon="5.64916">
        <ele>1357</ele>
        <time>2013-09-14T08:51:30.000Z</time>
      </trkpt>
      <trkpt lat="44.70112" lon="5.64914">
        <ele>1357</ele>
        <time>2013-09-14T08:51:31.000Z</time>
      </trkpt>
      <trkpt lat="44.70119" lon="5.64912">
        <ele>1356</ele>
        <time>2013-09-14T08:51:32.000Z</time>
      </trkpt>
      <trkpt lat="44.70126" lon="5.6491">
        <ele>1356</ele>
        <time>2013-09-14T08:51:33.000Z</time>
      </trkpt>
      <trkpt lat="44.70132" lon="5.64905">
        <ele>1356</ele>
        <time>2013-09-14T08:51:34.000Z</time>
      </trkpt>
      <trkpt lat="44.70136" lon="5.64901">
        <ele>1357</ele>
        <time>2013-09-14T08:51:35.000Z</time>
      </trkpt>
      <trkpt lat="44.70138" lon="5.64895">
        <ele>1358</ele>
        <time>2013-09-14T08:51:36.000Z</time>
      </trkpt>
      <trkpt lat="44.70144" lon="5.64884">
        <ele>1359</ele>
        <time>2013-09-14T08:51:40.000Z</time>
      </trkpt>
      <trkpt lat="44.70149" lon="5.64882">
        <ele>1359</ele>
        <time>2013-09-14T08:52:59.000Z</time>
      </trkpt>
      <trkpt lat="44.70149" lon="5.64882">
        <ele>1359</ele>
        <time>2013-09-14T08:52:59.000Z</time>
      </trkpt>
      <trkpt lat="44.70149" lon="5.64882">
        <ele>1359</ele>
        <time>2013-09-14T08:53:00.000Z</time>
      </trkpt>
      <trkpt lat="44.70154" lon="5.64884">
        <ele>1359</ele>
        <time>2013-09-14T08:53:01.000Z</time>
      </trkpt>
      <trkpt lat="44.70154" lon="5.64884">
        <ele>1359</ele>
        <time>2013-09-14T08:53:01.000Z</time>
      </trkpt>
      <trkpt lat="44.70154" lon="5.64884">
        <ele>1359</ele>
        <time>2013-09-14T08:53:02.000Z</time>
      </trkpt>
      <trkpt lat="44.70162" lon="5.64884">
        <ele>1359</ele>
        <time>2013-09-14T08:53:03.000Z</time>
      </trkpt>
      <trkpt lat="44.70162" lon="5.64884">
        <ele>1359</ele>
        <time>2013-09-14T08:53:03.000Z</time>
      </trkpt>
      <trkpt lat="44.70162" lon="5.64884">
        <ele>1359</ele>
        <time>2013-09-14T08:53:04.000Z</time>
      </trkpt>
      <trkpt lat="44.70168" lon="5.64886">
        <ele>1359</ele>
        <time>2013-09-14T08:53:05.000Z</time>
      </trkpt>
      <trkpt lat="44.70168" lon="5.64886">
        <ele>1359</ele>
        <time>2013-09-14T08:53:05.000Z</time>
      </trkpt>
      <trkpt lat="44.70168" lon="5.64886">
        <ele>1359</ele>
        <time>2013-09-14T08:53:06.000Z</time>
      </trkpt>
      <trkpt lat="44.70174" lon="5.64886">
        <ele>1359</ele>
        <time>2013-09-14T08:53:07.000Z</time>
      </trkpt>
      <trkpt lat="44.70174" lon="5.64886">
        <ele>1359</ele>
        <time>2013-09-14T08:53:07.000Z</time>
      </trkpt>
      <trkpt lat="44.70174" lon="5.64886">
        <ele>1359</ele>
        <time>2013-09-14T08:53:08.000Z</time>
      </trkpt>
      <trkpt lat="44.70183" lon="5.64888">
        <ele>1358</ele>
        <time>2013-09-14T08:53:12.000Z</time>
      </trkpt>
      <trkpt lat="44.70183" lon="5.64888">
        <ele>1358</ele>
        <time>2013-09-14T08:53:12.000Z</time>
      </trkpt>
      <trkpt lat="44.70183" lon="5.64888">
        <ele>1358</ele>
        <time>2013-09-14T08:53:15.000Z</time>
      </trkpt>
      <trkpt lat="44.70189" lon="5.6489">
        <ele>1358</ele>
        <time>2013-09-14T08:53:16.000Z</time>
      </trkpt>
      <trkpt lat="44.70189" lon="5.6489">
        <ele>1358</ele>
        <time>2013-09-14T08:53:16.000Z</time>
      </trkpt>
      <trkpt lat="44.70189" lon="5.6489">
        <ele>1358</ele>
        <time>2013-09-14T08:53:19.000Z</time>
      </trkpt>
      <trkpt lat="44.70198" lon="5.64892">
        <ele>1356</ele>
        <time>2013-09-14T08:53:28.000Z</time>
      </trkpt>
      <trkpt lat="44.70207" lon="5.64892">
        <ele>1356</ele>
        <time>2013-09-14T08:53:39.000Z</time>
      </trkpt>
      <trkpt lat="44.70207" lon="5.64892">
        <ele>1356</ele>
        <time>2013-09-14T08:53:39.000Z</time>
      </trkpt>
      <trkpt lat="44.70207" lon="5.64892">
        <ele>1356</ele>
        <time>2013-09-14T08:53:44.000Z</time>
      </trkpt>
      <trkpt lat="44.70212" lon="5.64892">
        <ele>1356</ele>
        <time>2013-09-14T08:53:45.000Z</time>
      </trkpt>
      <trkpt lat="44.70212" lon="5.64892">
        <ele>1356</ele>
        <time>2013-09-14T08:53:45.000Z</time>
      </trkpt>
      <trkpt lat="44.70212" lon="5.64892">
        <ele>1356</ele>
        <time>2013-09-14T08:54:13.000Z</time>
      </trkpt>
      <trkpt lat="44.70218" lon="5.64892">
        <ele>1356</ele>
        <time>2013-09-14T08:54:14.000Z</time>
      </trkpt>
      <trkpt lat="44.70218" lon="5.64892">
        <ele>1356</ele>
        <time>2013-09-14T08:54:14.000Z</time>
      </trkpt>
      <trkpt lat="44.70218" lon="5.64892">
        <ele>1356</ele>
        <time>2013-09-14T08:54:17.000Z</time>
      </trkpt>
      <trkpt lat="44.70223" lon="5.64895">
        <ele>1356</ele>
        <time>2013-09-14T08:54:18.000Z</time>
      </trkpt>
      <trkpt lat="44.70223" lon="5.64895">
        <ele>1356</ele>
        <time>2013-09-14T08:54:18.000Z</time>
      </trkpt>
      <trkpt lat="44.70223" lon="5.64895">
        <ele>1356</ele>
        <time>2013-09-14T08:54:23.000Z</time>
      </trkpt>
      <trkpt lat="44.70228" lon="5.64897">
        <ele>1356</ele>
        <time>2013-09-14T08:54:24.000Z</time>
      </trkpt>
      <trkpt lat="44.70228" lon="5.64897">
        <ele>1356</ele>
        <time>2013-09-14T08:54:24.000Z</time>
      </trkpt>
      <trkpt lat="44.70228" lon="5.64897">
        <ele>1356</ele>
        <time>2013-09-14T08:54:26.000Z</time>
      </trkpt>
      <trkpt lat="44.70234" lon="5.64899">
        <ele>1357</ele>
        <time>2013-09-14T08:54:38.000Z</time>
      </trkpt>
      <trkpt lat="44.70234" lon="5.64899">
        <ele>1357</ele>
        <time>2013-09-14T08:54:38.000Z</time>
      </trkpt>
      <trkpt lat="44.70234" lon="5.64899">
        <ele>1357</ele>
        <time>2013-09-14T08:54:44.000Z</time>
      </trkpt>
      <trkpt lat="44.70238" lon="5.64903">
        <ele>1358</ele>
        <time>2013-09-14T08:54:53.000Z</time>
      </trkpt>
      <trkpt lat="44.70244" lon="5.64905">
        <ele>1358</ele>
        <time>2013-09-14T08:54:57.000Z</time>
      </trkpt>
      <trkpt lat="44.70249" lon="5.64905">
        <ele>1359</ele>
        <time>2013-09-14T08:55:02.000Z</time>
      </trkpt>
      <trkpt lat="44.70253" lon="5.6491">
        <ele>1359</ele>
        <time>2013-09-14T08:55:07.000Z</time>
      </trkpt>
      <trkpt lat="44.70256" lon="5.64914">
        <ele>1359</ele>
        <time>2013-09-14T08:55:11.000Z</time>
      </trkpt>
      <trkpt lat="44.70261" lon="5.64916">
        <ele>1359</ele>
        <time>2013-09-14T08:55:15.000Z</time>
      </trkpt>
      <trkpt lat="44.70266" lon="5.64916">
        <ele>1360</ele>
        <time>2013-09-14T08:55:21.000Z</time>
      </trkpt>
      <trkpt lat="44.70271" lon="5.64916">
        <ele>1360</ele>
        <time>2013-09-14T08:55:25.000Z</time>
      </trkpt>
      <trkpt lat="44.70276" lon="5.64914">
        <ele>1361</ele>
        <time>2013-09-14T08:55:29.000Z</time>
      </trkpt>
      <trkpt lat="44.7028" lon="5.64912">
        <ele>1361</ele>
        <time>2013-09-14T08:55:33.000Z</time>
      </trkpt>
      <trkpt lat="44.7028" lon="5.64912">
        <ele>1361</ele>
        <time>2013-09-14T08:55:33.000Z</time>
      </trkpt>
      <trkpt lat="44.7028" lon="5.64912">
        <ele>1361</ele>
        <time>2013-09-14T08:55:34.000Z</time>
      </trkpt>
      <trkpt lat="44.70284" lon="5.64905">
        <ele>1362</ele>
        <time>2013-09-14T08:55:41.000Z</time>
      </trkpt>
      <trkpt lat="44.70284" lon="5.64905">
        <ele>1362</ele>
        <time>2013-09-14T08:55:41.000Z</time>
      </trkpt>
      <trkpt lat="44.70284" lon="5.64905">
        <ele>1363</ele>
        <time>2013-09-14T08:55:42.000Z</time>
      </trkpt>
      <trkpt lat="44.70289" lon="5.64901">
        <ele>1364</ele>
        <time>2013-09-14T08:55:47.000Z</time>
      </trkpt>
      <trkpt lat="44.70289" lon="5.64901">
        <ele>1364</ele>
        <time>2013-09-14T08:55:47.000Z</time>
      </trkpt>
      <trkpt lat="44.70289" lon="5.64901">
        <ele>1364</ele>
        <time>2013-09-14T08:55:48.000Z</time>
      </trkpt>
      <trkpt lat="44.70293" lon="5.64897">
        <ele>1365</ele>
        <time>2013-09-14T08:55:53.000Z</time>
      </trkpt>
      <trkpt lat="44.70297" lon="5.64895">
        <ele>1366</ele>
        <time>2013-09-14T08:55:57.000Z</time>
      </trkpt>
      <trkpt lat="44.70302" lon="5.6489">
        <ele>1367</ele>
        <time>2013-09-14T08:56:03.000Z</time>
      </trkpt>
      <trkpt lat="44.70302" lon="5.6489">
        <ele>1367</ele>
        <time>2013-09-14T08:56:03.000Z</time>
      </trkpt>
      <trkpt lat="44.70302" lon="5.6489">
        <ele>1367</ele>
        <time>2013-09-14T08:56:04.000Z</time>
      </trkpt>
      <trkpt lat="44.70306" lon="5.64884">
        <ele>1368</ele>
        <time>2013-09-14T08:56:09.000Z</time>
      </trkpt>
      <trkpt lat="44.7031" lon="5.64878">
        <ele>1369</ele>
        <time>2013-09-14T08:56:15.000Z</time>
      </trkpt>
      <trkpt lat="44.7031" lon="5.64878">
        <ele>1369</ele>
        <time>2013-09-14T08:56:15.000Z</time>
      </trkpt>
      <trkpt lat="44.7031" lon="5.64878">
        <ele>1369</ele>
        <time>2013-09-14T08:56:16.000Z</time>
      </trkpt>
      <trkpt lat="44.70313" lon="5.64871">
        <ele>1370</ele>
        <time>2013-09-14T08:56:21.000Z</time>
      </trkpt>
      <trkpt lat="44.70313" lon="5.64871">
        <ele>1370</ele>
        <time>2013-09-14T08:56:21.000Z</time>
      </trkpt>
      <trkpt lat="44.70313" lon="5.64871">
        <ele>1371</ele>
        <time>2013-09-14T08:56:26.000Z</time>
      </trkpt>
      <trkpt lat="44.70319" lon="5.64869">
        <ele>1373</ele>
        <time>2013-09-14T08:56:38.000Z</time>
      </trkpt>
      <trkpt lat="44.70319" lon="5.64869">
        <ele>1373</ele>
        <time>2013-09-14T08:56:38.000Z</time>
      </trkpt>
      <trkpt lat="44.70319" lon="5.64869">
        <ele>1373</ele>
        <time>2013-09-14T08:56:42.000Z</time>
      </trkpt>
      <trkpt lat="44.70319" lon="5.64862">
        <ele>1374</ele>
        <time>2013-09-14T08:56:53.000Z</time>
      </trkpt>
      <trkpt lat="44.70319" lon="5.64862">
        <ele>1374</ele>
        <time>2013-09-14T08:56:53.000Z</time>
      </trkpt>
      <trkpt lat="44.70319" lon="5.64862">
        <ele>1374</ele>
        <time>2013-09-14T08:57:10.000Z</time>
      </trkpt>
      <trkpt lat="44.70313" lon="5.6486">
        <ele>1375</ele>
        <time>2013-09-14T08:57:51.000Z</time>
      </trkpt>
      <trkpt lat="44.70313" lon="5.6486">
        <ele>1375</ele>
        <time>2013-09-14T08:57:51.000Z</time>
      </trkpt>
      <trkpt lat="44.70313" lon="5.6486">
        <ele>1376</ele>
        <time>2013-09-14T08:57:54.000Z</time>
      </trkpt>
      <trkpt lat="44.70318" lon="5.64858">
        <ele>1377</ele>
        <time>2013-09-14T08:58:29.000Z</time>
      </trkpt>
      <trkpt lat="44.70318" lon="5.64858">
        <ele>1377</ele>
        <time>2013-09-14T08:58:29.000Z</time>
      </trkpt>
      <trkpt lat="44.70318" lon="5.64858">
        <ele>1377</ele>
        <time>2013-09-14T08:58:46.000Z</time>
      </trkpt>
      <trkpt lat="44.70316" lon="5.64865">
        <ele>1377</ele>
        <time>2013-09-14T08:59:03.000Z</time>
      </trkpt>
      <trkpt lat="44.70316" lon="5.64865">
        <ele>1377</ele>
        <time>2013-09-14T08:59:03.000Z</time>
      </trkpt>
      <trkpt lat="44.70316" lon="5.64865">
        <ele>1377</ele>
        <time>2013-09-14T08:59:04.000Z</time>
      </trkpt>
      <trkpt lat="44.70315" lon="5.64871">
        <ele>1378</ele>
        <time>2013-09-14T08:59:10.000Z</time>
      </trkpt>
      <trkpt lat="44.70315" lon="5.64871">
        <ele>1378</ele>
        <time>2013-09-14T08:59:10.000Z</time>
      </trkpt>
      <trkpt lat="44.70315" lon="5.64871">
        <ele>1378</ele>
        <time>2013-09-14T08:59:11.000Z</time>
      </trkpt>
      <trkpt lat="44.70315" lon="5.64878">
        <ele>1378</ele>
        <time>2013-09-14T08:59:15.000Z</time>
      </trkpt>
      <trkpt lat="44.70315" lon="5.64878">
        <ele>1378</ele>
        <time>2013-09-14T08:59:15.000Z</time>
      </trkpt>
      <trkpt lat="44.70315" lon="5.64878">
        <ele>1378</ele>
        <time>2013-09-14T08:59:16.000Z</time>
      </trkpt>
      <trkpt lat="44.70316" lon="5.64884">
        <ele>1379</ele>
        <time>2013-09-14T08:59:20.000Z</time>
      </trkpt>
      <trkpt lat="44.70316" lon="5.64884">
        <ele>1379</ele>
        <time>2013-09-14T08:59:20.000Z</time>
      </trkpt>
      <trkpt lat="44.70316" lon="5.64884">
        <ele>1379</ele>
        <time>2013-09-14T08:59:21.000Z</time>
      </trkpt>
      <trkpt lat="44.7032" lon="5.6489">
        <ele>1379</ele>
        <time>2013-09-14T08:59:26.000Z</time>
      </trkpt>
      <trkpt lat="44.70324" lon="5.64892">
        <ele>1380</ele>
        <time>2013-09-14T08:59:30.000Z</time>
      </trkpt>
      <trkpt lat="44.70328" lon="5.6489">
        <ele>1380</ele>
        <time>2013-09-14T08:59:33.000Z</time>
      </trkpt>
      <trkpt lat="44.70333" lon="5.64888">
        <ele>1380</ele>
        <time>2013-09-14T08:59:37.000Z</time>
      </trkpt>
      <trkpt lat="44.70337" lon="5.64886">
        <ele>1381</ele>
        <time>2013-09-14T08:59:41.000Z</time>
      </trkpt>
      <trkpt lat="44.70341" lon="5.64882">
        <ele>1381</ele>
        <time>2013-09-14T08:59:45.000Z</time>
      </trkpt>
      <trkpt lat="44.70345" lon="5.64878">
        <ele>1382</ele>
        <time>2013-09-14T08:59:49.000Z</time>
      </trkpt>
      <trkpt lat="44.70349" lon="5.64873">
        <ele>1383</ele>
        <time>2013-09-14T08:59:53.000Z</time>
      </trkpt>
      <trkpt lat="44.70353" lon="5.64869">
        <ele>1383</ele>
        <time>2013-09-14T08:59:57.000Z</time>
      </trkpt>
      <trkpt lat="44.70357" lon="5.64867">
        <ele>1384</ele>
        <time>2013-09-14T09:00:01.000Z</time>
      </trkpt>
      <trkpt lat="44.70362" lon="5.64862">
        <ele>1385</ele>
        <time>2013-09-14T09:00:05.000Z</time>
      </trkpt>
      <trkpt lat="44.70365" lon="5.64856">
        <ele>1385</ele>
        <time>2013-09-14T09:00:09.000Z</time>
      </trkpt>
      <trkpt lat="44.70367" lon="5.6485">
        <ele>1386</ele>
        <time>2013-09-14T09:00:12.000Z</time>
      </trkpt>
      <trkpt lat="44.70368" lon="5.64843">
        <ele>1386</ele>
        <time>2013-09-14T09:00:14.000Z</time>
      </trkpt>
      <trkpt lat="44.7037" lon="5.64837">
        <ele>1387</ele>
        <time>2013-09-14T09:00:17.000Z</time>
      </trkpt>
      <trkpt lat="44.7037" lon="5.6483">
        <ele>1387</ele>
        <time>2013-09-14T09:00:20.000Z</time>
      </trkpt>
      <trkpt lat="44.70371" lon="5.64824">
        <ele>1388</ele>
        <time>2013-09-14T09:00:23.000Z</time>
      </trkpt>
      <trkpt lat="44.70371" lon="5.64817">
        <ele>1389</ele>
        <time>2013-09-14T09:00:26.000Z</time>
      </trkpt>
      <trkpt lat="44.70373" lon="5.64811">
        <ele>1389</ele>
        <time>2013-09-14T09:00:29.000Z</time>
      </trkpt>
      <trkpt lat="44.70374" lon="5.64804">
        <ele>1390</ele>
        <time>2013-09-14T09:00:32.000Z</time>
      </trkpt>
      <trkpt lat="44.70376" lon="5.64798">
        <ele>1391</ele>
        <time>2013-09-14T09:00:35.000Z</time>
      </trkpt>
      <trkpt lat="44.70377" lon="5.64792">
        <ele>1391</ele>
        <time>2013-09-14T09:00:38.000Z</time>
      </trkpt>
      <trkpt lat="44.70378" lon="5.64785">
        <ele>1391</ele>
        <time>2013-09-14T09:00:40.000Z</time>
      </trkpt>
      <trkpt lat="44.70379" lon="5.64779">
        <ele>1392</ele>
        <time>2013-09-14T09:00:43.000Z</time>
      </trkpt>
      <trkpt lat="44.7038" lon="5.64772">
        <ele>1392</ele>
        <time>2013-09-14T09:00:46.000Z</time>
      </trkpt>
      <trkpt lat="44.7038" lon="5.64766">
        <ele>1393</ele>
        <time>2013-09-14T09:00:49.000Z</time>
      </trkpt>
      <trkpt lat="44.70381" lon="5.64759">
        <ele>1393</ele>
        <time>2013-09-14T09:00:52.000Z</time>
      </trkpt>
      <trkpt lat="44.70382" lon="5.64753">
        <ele>1394</ele>
        <time>2013-09-14T09:00:55.000Z</time>
      </trkpt>
      <trkpt lat="44.70384" lon="5.64747">
        <ele>1394</ele>
        <time>2013-09-14T09:00:58.000Z</time>
      </trkpt>
      <trkpt lat="44.70387" lon="5.6474">
        <ele>1395</ele>
        <time>2013-09-14T09:01:02.000Z</time>
      </trkpt>
      <trkpt lat="44.7039" lon="5.64734">
        <ele>1395</ele>
        <time>2013-09-14T09:01:05.000Z</time>
      </trkpt>
      <trkpt lat="44.70395" lon="5.64727">
        <ele>1395</ele>
        <time>2013-09-14T09:01:09.000Z</time>
      </trkpt>
      <trkpt lat="44.70399" lon="5.64721">
        <ele>1395</ele>
        <time>2013-09-14T09:01:13.000Z</time>
      </trkpt>
      <trkpt lat="44.70401" lon="5.64714">
        <ele>1396</ele>
        <time>2013-09-14T09:01:16.000Z</time>
      </trkpt>
      <trkpt lat="44.70403" lon="5.64708">
        <ele>1396</ele>
        <time>2013-09-14T09:01:19.000Z</time>
      </trkpt>
      <trkpt lat="44.70406" lon="5.64702">
        <ele>1396</ele>
        <time>2013-09-14T09:01:22.000Z</time>
      </trkpt>
      <trkpt lat="44.70407" lon="5.64695">
        <ele>1396</ele>
        <time>2013-09-14T09:01:24.000Z</time>
      </trkpt>
      <trkpt lat="44.70408" lon="5.64689">
        <ele>1397</ele>
        <time>2013-09-14T09:01:27.000Z</time>
      </trkpt>
      <trkpt lat="44.70409" lon="5.64682">
        <ele>1397</ele>
        <time>2013-09-14T09:01:29.000Z</time>
      </trkpt>
      <trkpt lat="44.7041" lon="5.64676">
        <ele>1397</ele>
        <time>2013-09-14T09:01:31.000Z</time>
      </trkpt>
      <trkpt lat="44.70411" lon="5.64669">
        <ele>1397</ele>
        <time>2013-09-14T09:01:33.000Z</time>
      </trkpt>
      <trkpt lat="44.70411" lon="5.64663">
        <ele>1398</ele>
        <time>2013-09-14T09:01:35.000Z</time>
      </trkpt>
      <trkpt lat="44.70411" lon="5.64656">
        <ele>1398</ele>
        <time>2013-09-14T09:01:37.000Z</time>
      </trkpt>
      <trkpt lat="44.70411" lon="5.64648">
        <ele>1398</ele>
        <time>2013-09-14T09:01:40.000Z</time>
      </trkpt>
      <trkpt lat="44.7041" lon="5.64639">
        <ele>1398</ele>
        <time>2013-09-14T09:01:43.000Z</time>
      </trkpt>
      <trkpt lat="44.70409" lon="5.64633">
        <ele>1399</ele>
        <time>2013-09-14T09:01:46.000Z</time>
      </trkpt>
      <trkpt lat="44.70409" lon="5.64626">
        <ele>1399</ele>
        <time>2013-09-14T09:01:48.000Z</time>
      </trkpt>
      <trkpt lat="44.70409" lon="5.6462">
        <ele>1399</ele>
        <time>2013-09-14T09:01:51.000Z</time>
      </trkpt>
      <trkpt lat="44.70409" lon="5.6462">
        <ele>1399</ele>
        <time>2013-09-14T09:01:51.000Z</time>
      </trkpt>
      <trkpt lat="44.70409" lon="5.6462">
        <ele>1399</ele>
        <time>2013-09-14T09:01:52.000Z</time>
      </trkpt>
      <trkpt lat="44.70409" lon="5.64614">
        <ele>1399</ele>
        <time>2013-09-14T09:01:55.000Z</time>
      </trkpt>
      <trkpt lat="44.70409" lon="5.64614">
        <ele>1399</ele>
        <time>2013-09-14T09:01:55.000Z</time>
      </trkpt>
      <trkpt lat="44.70409" lon="5.64614">
        <ele>1400</ele>
        <time>2013-09-14T09:02:26.000Z</time>
      </trkpt>
      <trkpt lat="44.70408" lon="5.64607">
        <ele>1401</ele>
        <time>2013-09-14T09:02:32.000Z</time>
      </trkpt>
      <trkpt lat="44.70407" lon="5.64598">
        <ele>1402</ele>
        <time>2013-09-14T09:02:34.000Z</time>
      </trkpt>
      <trkpt lat="44.70406" lon="5.64592">
        <ele>1402</ele>
        <time>2013-09-14T09:02:36.000Z</time>
      </trkpt>
      <trkpt lat="44.70404" lon="5.64586">
        <ele>1403</ele>
        <time>2013-09-14T09:02:38.000Z</time>
      </trkpt>
      <trkpt lat="44.70403" lon="5.64577">
        <ele>1403</ele>
        <time>2013-09-14T09:02:40.000Z</time>
      </trkpt>
      <trkpt lat="44.70401" lon="5.64571">
        <ele>1404</ele>
        <time>2013-09-14T09:02:42.000Z</time>
      </trkpt>
      <trkpt lat="44.704" lon="5.64564">
        <ele>1404</ele>
        <time>2013-09-14T09:02:44.000Z</time>
      </trkpt>
      <trkpt lat="44.70398" lon="5.64556">
        <ele>1405</ele>
        <time>2013-09-14T09:02:46.000Z</time>
      </trkpt>
      <trkpt lat="44.70397" lon="5.64549">
        <ele>1405</ele>
        <time>2013-09-14T09:02:48.000Z</time>
      </trkpt>
      <trkpt lat="44.70396" lon="5.64541">
        <ele>1405</ele>
        <time>2013-09-14T09:02:50.000Z</time>
      </trkpt>
      <trkpt lat="44.70396" lon="5.64534">
        <ele>1406</ele>
        <time>2013-09-14T09:02:52.000Z</time>
      </trkpt>
      <trkpt lat="44.70394" lon="5.64528">
        <ele>1406</ele>
        <time>2013-09-14T09:02:55.000Z</time>
      </trkpt>
      <trkpt lat="44.70392" lon="5.64519">
        <ele>1406</ele>
        <time>2013-09-14T09:02:57.000Z</time>
      </trkpt>
      <trkpt lat="44.70388" lon="5.6451">
        <ele>1410</ele>
        <time>2013-09-14T09:02:59.000Z</time>
      </trkpt>
      <trkpt lat="44.70385" lon="5.64504">
        <ele>1411</ele>
        <time>2013-09-14T09:03:00.000Z</time>
      </trkpt>
      <trkpt lat="44.70381" lon="5.64493">
        <ele>1412</ele>
        <time>2013-09-14T09:03:02.000Z</time>
      </trkpt>
      <trkpt lat="44.70379" lon="5.64487">
        <ele>1412</ele>
        <time>2013-09-14T09:03:03.000Z</time>
      </trkpt>
      <trkpt lat="44.70376" lon="5.6448">
        <ele>1413</ele>
        <time>2013-09-14T09:03:04.000Z</time>
      </trkpt>
      <trkpt lat="44.70373" lon="5.64474">
        <ele>1413</ele>
        <time>2013-09-14T09:03:05.000Z</time>
      </trkpt>
      <trkpt lat="44.70371" lon="5.64466">
        <ele>1413</ele>
        <time>2013-09-14T09:03:06.000Z</time>
      </trkpt>
      <trkpt lat="44.70369" lon="5.64457">
        <ele>1414</ele>
        <time>2013-09-14T09:03:07.000Z</time>
      </trkpt>
      <trkpt lat="44.70367" lon="5.64448">
        <ele>1414</ele>
        <time>2013-09-14T09:03:08.000Z</time>
      </trkpt>
      <trkpt lat="44.70364" lon="5.64442">
        <ele>1414</ele>
        <time>2013-09-14T09:03:09.000Z</time>
      </trkpt>
      <trkpt lat="44.70362" lon="5.64433">
        <ele>1414</ele>
        <time>2013-09-14T09:03:10.000Z</time>
      </trkpt>
      <trkpt lat="44.70359" lon="5.64427">
        <ele>1414</ele>
        <time>2013-09-14T09:03:11.000Z</time>
      </trkpt>
      <trkpt lat="44.70356" lon="5.64418">
        <ele>1414</ele>
        <time>2013-09-14T09:03:12.000Z</time>
      </trkpt>
      <trkpt lat="44.70353" lon="5.64412">
        <ele>1414</ele>
        <time>2013-09-14T09:03:13.000Z</time>
      </trkpt>
      <trkpt lat="44.7035" lon="5.64403">
        <ele>1414</ele>
        <time>2013-09-14T09:03:14.000Z</time>
      </trkpt>
      <trkpt lat="44.70346" lon="5.64395">
        <ele>1414</ele>
        <time>2013-09-14T09:03:15.000Z</time>
      </trkpt>
      <trkpt lat="44.70343" lon="5.64388">
        <ele>1414</ele>
        <time>2013-09-14T09:03:16.000Z</time>
      </trkpt>
      <trkpt lat="44.70341" lon="5.6438">
        <ele>1414</ele>
        <time>2013-09-14T09:03:17.000Z</time>
      </trkpt>
      <trkpt lat="44.70339" lon="5.64371">
        <ele>1414</ele>
        <time>2013-09-14T09:03:18.000Z</time>
      </trkpt>
      <trkpt lat="44.70338" lon="5.64365">
        <ele>1414</ele>
        <time>2013-09-14T09:03:19.000Z</time>
      </trkpt>
      <trkpt lat="44.70337" lon="5.64356">
        <ele>1414</ele>
        <time>2013-09-14T09:03:21.000Z</time>
      </trkpt>
      <trkpt lat="44.70336" lon="5.64348">
        <ele>1414</ele>
        <time>2013-09-14T09:03:23.000Z</time>
      </trkpt>
      <trkpt lat="44.70336" lon="5.64335">
        <ele>1414</ele>
        <time>2013-09-14T09:03:27.000Z</time>
      </trkpt>
      <trkpt lat="44.70336" lon="5.64322">
        <ele>1414</ele>
        <time>2013-09-14T09:03:33.000Z</time>
      </trkpt>
      <trkpt lat="44.70336" lon="5.64322">
        <ele>1414</ele>
        <time>2013-09-14T09:03:33.000Z</time>
      </trkpt>
      <trkpt lat="44.70336" lon="5.64322">
        <ele>1414</ele>
        <time>2013-09-14T09:03:36.000Z</time>
      </trkpt>
      <trkpt lat="44.70337" lon="5.64315">
        <ele>1414</ele>
        <time>2013-09-14T09:03:37.000Z</time>
      </trkpt>
      <trkpt lat="44.70337" lon="5.64315">
        <ele>1414</ele>
        <time>2013-09-14T09:03:37.000Z</time>
      </trkpt>
      <trkpt lat="44.70337" lon="5.64315">
        <ele>1414</ele>
        <time>2013-09-14T09:03:40.000Z</time>
      </trkpt>
      <trkpt lat="44.70339" lon="5.64307">
        <ele>1414</ele>
        <time>2013-09-14T09:03:41.000Z</time>
      </trkpt>
      <trkpt lat="44.70339" lon="5.64307">
        <ele>1414</ele>
        <time>2013-09-14T09:03:41.000Z</time>
      </trkpt>
      <trkpt lat="44.70339" lon="5.64307">
        <ele>1414</ele>
        <time>2013-09-14T09:03:43.000Z</time>
      </trkpt>
      <trkpt lat="44.70344" lon="5.6429">
        <ele>1415</ele>
        <time>2013-09-14T09:03:51.000Z</time>
      </trkpt>
      <trkpt lat="44.70344" lon="5.6429">
        <ele>1415</ele>
        <time>2013-09-14T09:03:51.000Z</time>
      </trkpt>
      <trkpt lat="44.70344" lon="5.6429">
        <ele>1415</ele>
        <time>2013-09-14T09:03:55.000Z</time>
      </trkpt>
      <trkpt lat="44.70348" lon="5.64281">
        <ele>1415</ele>
        <time>2013-09-14T09:03:56.000Z</time>
      </trkpt>
      <trkpt lat="44.70348" lon="5.64281">
        <ele>1415</ele>
        <time>2013-09-14T09:03:56.000Z</time>
      </trkpt>
      <trkpt lat="44.70348" lon="5.64281">
        <ele>1415</ele>
        <time>2013-09-14T09:03:59.000Z</time>
      </trkpt>
      <trkpt lat="44.7035" lon="5.64272">
        <ele>1415</ele>
        <time>2013-09-14T09:04:00.000Z</time>
      </trkpt>
      <trkpt lat="44.7035" lon="5.64272">
        <ele>1415</ele>
        <time>2013-09-14T09:04:00.000Z</time>
      </trkpt>
      <trkpt lat="44.7035" lon="5.64272">
        <ele>1415</ele>
        <time>2013-09-14T09:04:05.000Z</time>
      </trkpt>
      <trkpt lat="44.70353" lon="5.64262">
        <ele>1416</ele>
        <time>2013-09-14T09:04:06.000Z</time>
      </trkpt>
      <trkpt lat="44.70353" lon="5.64262">
        <ele>1416</ele>
        <time>2013-09-14T09:04:06.000Z</time>
      </trkpt>
      <trkpt lat="44.70353" lon="5.64262">
        <ele>1416</ele>
        <time>2013-09-14T09:04:11.000Z</time>
      </trkpt>
      <trkpt lat="44.70354" lon="5.64251">
        <ele>1416</ele>
        <time>2013-09-14T09:04:12.000Z</time>
      </trkpt>
      <trkpt lat="44.70357" lon="5.64238">
        <ele>1417</ele>
        <time>2013-09-14T09:04:20.000Z</time>
      </trkpt>
      <trkpt lat="44.70357" lon="5.64238">
        <ele>1417</ele>
        <time>2013-09-14T09:04:20.000Z</time>
      </trkpt>
      <trkpt lat="44.70357" lon="5.64238">
        <ele>1417</ele>
        <time>2013-09-14T09:04:25.000Z</time>
      </trkpt>
      <trkpt lat="44.70359" lon="5.64227">
        <ele>1418</ele>
        <time>2013-09-14T09:04:26.000Z</time>
      </trkpt>
      <trkpt lat="44.70359" lon="5.64227">
        <ele>1418</ele>
        <time>2013-09-14T09:04:26.000Z</time>
      </trkpt>
      <trkpt lat="44.70359" lon="5.64227">
        <ele>1418</ele>
        <time>2013-09-14T09:04:31.000Z</time>
      </trkpt>
      <trkpt lat="44.70363" lon="5.64219">
        <ele>1418</ele>
        <time>2013-09-14T09:04:32.000Z</time>
      </trkpt>
      <trkpt lat="44.70363" lon="5.64219">
        <ele>1418</ele>
        <time>2013-09-14T09:04:32.000Z</time>
      </trkpt>
      <trkpt lat="44.70363" lon="5.64219">
        <ele>1418</ele>
        <time>2013-09-14T09:04:35.000Z</time>
      </trkpt>
      <trkpt lat="44.70365" lon="5.64212">
        <ele>1418</ele>
        <time>2013-09-14T09:04:36.000Z</time>
      </trkpt>
      <trkpt lat="44.70365" lon="5.64212">
        <ele>1418</ele>
        <time>2013-09-14T09:04:36.000Z</time>
      </trkpt>
      <trkpt lat="44.70365" lon="5.64212">
        <ele>1418</ele>
        <time>2013-09-14T09:04:43.000Z</time>
      </trkpt>
      <trkpt lat="44.70368" lon="5.64199">
        <ele>1419</ele>
        <time>2013-09-14T09:04:44.000Z</time>
      </trkpt>
      <trkpt lat="44.70368" lon="5.64199">
        <ele>1419</ele>
        <time>2013-09-14T09:04:44.000Z</time>
      </trkpt>
      <trkpt lat="44.70368" lon="5.64199">
        <ele>1419</ele>
        <time>2013-09-14T09:04:49.000Z</time>
      </trkpt>
      <trkpt lat="44.70367" lon="5.64184">
        <ele>1420</ele>
        <time>2013-09-14T09:04:50.000Z</time>
      </trkpt>
      <trkpt lat="44.70367" lon="5.64184">
        <ele>1420</ele>
        <time>2013-09-14T09:04:50.000Z</time>
      </trkpt>
      <trkpt lat="44.70367" lon="5.64184">
        <ele>1420</ele>
        <time>2013-09-14T09:04:54.000Z</time>
      </trkpt>
      <trkpt lat="44.70366" lon="5.64169">
        <ele>1420</ele>
        <time>2013-09-14T09:04:55.000Z</time>
      </trkpt>
      <trkpt lat="44.70366" lon="5.64169">
        <ele>1420</ele>
        <time>2013-09-14T09:04:55.000Z</time>
      </trkpt>
      <trkpt lat="44.70366" lon="5.64169">
        <ele>1420</ele>
        <time>2013-09-14T09:04:59.000Z</time>
      </trkpt>
      <trkpt lat="44.70368" lon="5.64156">
        <ele>1421</ele>
        <time>2013-09-14T09:05:00.000Z</time>
      </trkpt>
      <trkpt lat="44.70368" lon="5.64156">
        <ele>1421</ele>
        <time>2013-09-14T09:05:00.000Z</time>
      </trkpt>
      <trkpt lat="44.70368" lon="5.64156">
        <ele>1421</ele>
        <time>2013-09-14T09:05:01.000Z</time>
      </trkpt>
      <trkpt lat="44.70368" lon="5.6415">
        <ele>1421</ele>
        <time>2013-09-14T09:05:02.000Z</time>
      </trkpt>
      <trkpt lat="44.70367" lon="5.64142">
        <ele>1421</ele>
        <time>2013-09-14T09:05:04.000Z</time>
      </trkpt>
      <trkpt lat="44.70365" lon="5.64133">
        <ele>1421</ele>
        <time>2013-09-14T09:05:06.000Z</time>
      </trkpt>
      <trkpt lat="44.70364" lon="5.64126">
        <ele>1421</ele>
        <time>2013-09-14T09:05:08.000Z</time>
      </trkpt>
      <trkpt lat="44.70364" lon="5.64118">
        <ele>1421</ele>
        <time>2013-09-14T09:05:10.000Z</time>
      </trkpt>
      <trkpt lat="44.70363" lon="5.64111">
        <ele>1422</ele>
        <time>2013-09-14T09:05:12.000Z</time>
      </trkpt>
      <trkpt lat="44.7036" lon="5.64105">
        <ele>1422</ele>
        <time>2013-09-14T09:05:14.000Z</time>
      </trkpt>
      <trkpt lat="44.70357" lon="5.6409">
        <ele>1422</ele>
        <time>2013-09-14T09:05:19.000Z</time>
      </trkpt>
      <trkpt lat="44.70356" lon="5.64084">
        <ele>1422</ele>
        <time>2013-09-14T09:05:21.000Z</time>
      </trkpt>
      <trkpt lat="44.70356" lon="5.64075">
        <ele>1423</ele>
        <time>2013-09-14T09:05:23.000Z</time>
      </trkpt>
      <trkpt lat="44.70355" lon="5.64068">
        <ele>1423</ele>
        <time>2013-09-14T09:05:25.000Z</time>
      </trkpt>
      <trkpt lat="44.70351" lon="5.64054">
        <ele>1423</ele>
        <time>2013-09-14T09:05:31.000Z</time>
      </trkpt>
      <trkpt lat="44.70351" lon="5.64054">
        <ele>1423</ele>
        <time>2013-09-14T09:05:31.000Z</time>
      </trkpt>
      <trkpt lat="44.70351" lon="5.64054">
        <ele>1423</ele>
        <time>2013-09-14T09:05:42.000Z</time>
      </trkpt>
      <trkpt lat="44.70345" lon="5.64041">
        <ele>1424</ele>
        <time>2013-09-14T09:05:43.000Z</time>
      </trkpt>
      <trkpt lat="44.70345" lon="5.64041">
        <ele>1424</ele>
        <time>2013-09-14T09:05:43.000Z</time>
      </trkpt>
      <trkpt lat="44.70345" lon="5.64041">
        <ele>1424</ele>
        <time>2013-09-14T09:05:45.000Z</time>
      </trkpt>
      <trkpt lat="44.70342" lon="5.64034">
        <ele>1424</ele>
        <time>2013-09-14T09:05:46.000Z</time>
      </trkpt>
      <trkpt lat="44.70342" lon="5.64034">
        <ele>1424</ele>
        <time>2013-09-14T09:05:46.000Z</time>
      </trkpt>
      <trkpt lat="44.70342" lon="5.64034">
        <ele>1424</ele>
        <time>2013-09-14T09:05:50.000Z</time>
      </trkpt>
      <trkpt lat="44.70337" lon="5.64021">
        <ele>1424</ele>
        <time>2013-09-14T09:05:51.000Z</time>
      </trkpt>
      <trkpt lat="44.70337" lon="5.64021">
        <ele>1424</ele>
        <time>2013-09-14T09:05:51.000Z</time>
      </trkpt>
      <trkpt lat="44.70337" lon="5.64021">
        <ele>1424</ele>
        <time>2013-09-14T09:05:53.000Z</time>
      </trkpt>
      <trkpt lat="44.70337" lon="5.64013">
        <ele>1424</ele>
        <time>2013-09-14T09:05:54.000Z</time>
      </trkpt>
      <trkpt lat="44.70337" lon="5.64013">
        <ele>1424</ele>
        <time>2013-09-14T09:05:54.000Z</time>
      </trkpt>
      <trkpt lat="44.70337" lon="5.64013">
        <ele>1424</ele>
        <time>2013-09-14T09:05:57.000Z</time>
      </trkpt>
      <trkpt lat="44.70337" lon="5.64006">
        <ele>1425</ele>
        <time>2013-09-14T09:05:58.000Z</time>
      </trkpt>
      <trkpt lat="44.70337" lon="5.64006">
        <ele>1425</ele>
        <time>2013-09-14T09:05:58.000Z</time>
      </trkpt>
      <trkpt lat="44.70337" lon="5.64006">
        <ele>1425</ele>
        <time>2013-09-14T09:06:19.000Z</time>
      </trkpt>
      <trkpt lat="44.70336" lon="5.64">
        <ele>1425</ele>
        <time>2013-09-14T09:06:20.000Z</time>
      </trkpt>
      <trkpt lat="44.70336" lon="5.64">
        <ele>1425</ele>
        <time>2013-09-14T09:06:20.000Z</time>
      </trkpt>
      <trkpt lat="44.70336" lon="5.64">
        <ele>1425</ele>
        <time>2013-09-14T09:06:22.000Z</time>
      </trkpt>
      <trkpt lat="44.70333" lon="5.63993">
        <ele>1425</ele>
        <time>2013-09-14T09:06:30.000Z</time>
      </trkpt>
      <trkpt lat="44.70333" lon="5.63993">
        <ele>1425</ele>
        <time>2013-09-14T09:06:30.000Z</time>
      </trkpt>
      <trkpt lat="44.70333" lon="5.63993">
        <ele>1425</ele>
        <time>2013-09-14T09:06:31.000Z</time>
      </trkpt>
      <trkpt lat="44.70328" lon="5.63991">
        <ele>1425</ele>
        <time>2013-09-14T09:06:39.000Z</time>
      </trkpt>
      <trkpt lat="44.70328" lon="5.63991">
        <ele>1425</ele>
        <time>2013-09-14T09:06:39.000Z</time>
      </trkpt>
      <trkpt lat="44.70328" lon="5.63991">
        <ele>1425</ele>
        <time>2013-09-14T09:06:41.000Z</time>
      </trkpt>
      <trkpt lat="44.70329" lon="5.63985">
        <ele>1426</ele>
        <time>2013-09-14T09:07:02.000Z</time>
      </trkpt>
      <trkpt lat="44.70329" lon="5.63985">
        <ele>1426</ele>
        <time>2013-09-14T09:07:02.000Z</time>
      </trkpt>
      <trkpt lat="44.70329" lon="5.63985">
        <ele>1426</ele>
        <time>2013-09-14T09:07:06.000Z</time>
      </trkpt>
      <trkpt lat="44.70324" lon="5.63985">
        <ele>1427</ele>
        <time>2013-09-14T09:07:15.000Z</time>
      </trkpt>
      <trkpt lat="44.70318" lon="5.63983">
        <ele>1429</ele>
        <time>2013-09-14T09:07:18.000Z</time>
      </trkpt>
      <trkpt lat="44.70314" lon="5.63972">
        <ele>1431</ele>
        <time>2013-09-14T09:07:20.000Z</time>
      </trkpt>
      <trkpt lat="44.70313" lon="5.63966">
        <ele>1432</ele>
        <time>2013-09-14T09:07:21.000Z</time>
      </trkpt>
      <trkpt lat="44.70313" lon="5.63957">
        <ele>1432</ele>
        <time>2013-09-14T09:07:22.000Z</time>
      </trkpt>
      <trkpt lat="44.70313" lon="5.63948">
        <ele>1433</ele>
        <time>2013-09-14T09:07:23.000Z</time>
      </trkpt>
      <trkpt lat="44.70313" lon="5.6394">
        <ele>1433</ele>
        <time>2013-09-14T09:07:24.000Z</time>
      </trkpt>
      <trkpt lat="44.70313" lon="5.63931">
        <ele>1433</ele>
        <time>2013-09-14T09:07:25.000Z</time>
      </trkpt>
      <trkpt lat="44.70313" lon="5.6392">
        <ele>1434</ele>
        <time>2013-09-14T09:07:26.000Z</time>
      </trkpt>
      <trkpt lat="44.70311" lon="5.6391">
        <ele>1434</ele>
        <time>2013-09-14T09:07:27.000Z</time>
      </trkpt>
      <trkpt lat="44.7031" lon="5.63901">
        <ele>1434</ele>
        <time>2013-09-14T09:07:28.000Z</time>
      </trkpt>
      <trkpt lat="44.70308" lon="5.6389">
        <ele>1434</ele>
        <time>2013-09-14T09:07:29.000Z</time>
      </trkpt>
      <trkpt lat="44.70305" lon="5.63878">
        <ele>1434</ele>
        <time>2013-09-14T09:07:30.000Z</time>
      </trkpt>
      <trkpt lat="44.70302" lon="5.63867">
        <ele>1434</ele>
        <time>2013-09-14T09:07:31.000Z</time>
      </trkpt>
      <trkpt lat="44.70297" lon="5.63854">
        <ele>1434</ele>
        <time>2013-09-14T09:07:32.000Z</time>
      </trkpt>
      <trkpt lat="44.70292" lon="5.63843">
        <ele>1434</ele>
        <time>2013-09-14T09:07:33.000Z</time>
      </trkpt>
      <trkpt lat="44.70286" lon="5.63835">
        <ele>1434</ele>
        <time>2013-09-14T09:07:34.000Z</time>
      </trkpt>
      <trkpt lat="44.70281" lon="5.63824">
        <ele>1433</ele>
        <time>2013-09-14T09:07:35.000Z</time>
      </trkpt>
      <trkpt lat="44.70278" lon="5.63813">
        <ele>1434</ele>
        <time>2013-09-14T09:07:36.000Z</time>
      </trkpt>
      <trkpt lat="44.70275" lon="5.638">
        <ele>1434</ele>
        <time>2013-09-14T09:07:37.000Z</time>
      </trkpt>
      <trkpt lat="44.70271" lon="5.63787">
        <ele>1434</ele>
        <time>2013-09-14T09:07:38.000Z</time>
      </trkpt>
      <trkpt lat="44.70267" lon="5.63774">
        <ele>1435</ele>
        <time>2013-09-14T09:07:39.000Z</time>
      </trkpt>
      <trkpt lat="44.70263" lon="5.6376">
        <ele>1435</ele>
        <time>2013-09-14T09:07:40.000Z</time>
      </trkpt>
      <trkpt lat="44.70258" lon="5.63747">
        <ele>1436</ele>
        <time>2013-09-14T09:07:41.000Z</time>
      </trkpt>
      <trkpt lat="44.70254" lon="5.63736">
        <ele>1436</ele>
        <time>2013-09-14T09:07:42.000Z</time>
      </trkpt>
      <trkpt lat="44.70252" lon="5.63727">
        <ele>1436</ele>
        <time>2013-09-14T09:07:43.000Z</time>
      </trkpt>
      <trkpt lat="44.70249" lon="5.63719">
        <ele>1436</ele>
        <time>2013-09-14T09:07:45.000Z</time>
      </trkpt>
      <trkpt lat="44.70249" lon="5.63719">
        <ele>1436</ele>
        <time>2013-09-14T09:07:45.000Z</time>
      </trkpt>
      <trkpt lat="44.70249" lon="5.63719">
        <ele>1436</ele>
        <time>2013-09-14T09:10:43.000Z</time>
      </trkpt>
      <trkpt lat="44.70245" lon="5.63714">
        <ele>1428</ele>
        <time>2013-09-14T09:10:49.000Z</time>
      </trkpt>
      <trkpt lat="44.7024" lon="5.63717">
        <ele>1428</ele>
        <time>2013-09-14T09:10:54.000Z</time>
      </trkpt>
      <trkpt lat="44.7024" lon="5.63717">
        <ele>1428</ele>
        <time>2013-09-14T09:10:54.000Z</time>
      </trkpt>
      <trkpt lat="44.7024" lon="5.63717">
        <ele>1428</ele>
        <time>2013-09-14T09:10:55.000Z</time>
      </trkpt>
      <trkpt lat="44.70236" lon="5.63712">
        <ele>1424</ele>
        <time>2013-09-14T09:12:52.000Z</time>
      </trkpt>
      <trkpt lat="44.70236" lon="5.63712">
        <ele>1424</ele>
        <time>2013-09-14T09:12:52.000Z</time>
      </trkpt>
      <trkpt lat="44.70236" lon="5.63712">
        <ele>1423</ele>
        <time>2013-09-14T09:13:18.000Z</time>
      </trkpt>
      <trkpt lat="44.70232" lon="5.63708">
        <ele>1422</ele>
        <time>2013-09-14T09:14:10.000Z</time>
      </trkpt>
      <trkpt lat="44.70232" lon="5.63708">
        <ele>1422</ele>
        <time>2013-09-14T09:14:10.000Z</time>
      </trkpt>
      <trkpt lat="44.70232" lon="5.63708">
        <ele>1422</ele>
        <time>2013-09-14T09:14:13.000Z</time>
      </trkpt>
      <trkpt lat="44.70235" lon="5.63712">
        <ele>1420</ele>
        <time>2013-09-14T09:15:20.000Z</time>
      </trkpt>
      <trkpt lat="44.70235" lon="5.63712">
        <ele>1420</ele>
        <time>2013-09-14T09:15:20.000Z</time>
      </trkpt>
      <trkpt lat="44.70235" lon="5.63712">
        <ele>1420</ele>
        <time>2013-09-14T09:15:44.000Z</time>
      </trkpt>
      <trkpt lat="44.70231" lon="5.63708">
        <ele>1417</ele>
        <time>2013-09-14T09:17:49.000Z</time>
      </trkpt>
      <trkpt lat="44.70231" lon="5.63708">
        <ele>1417</ele>
        <time>2013-09-14T09:17:49.000Z</time>
      </trkpt>
      <trkpt lat="44.70231" lon="5.63708">
        <ele>1417</ele>
        <time>2013-09-14T09:17:58.000Z</time>
      </trkpt>
      <trkpt lat="44.70235" lon="5.6371">
        <ele>1417</ele>
        <time>2013-09-14T09:18:18.000Z</time>
      </trkpt>
      <trkpt lat="44.70235" lon="5.6371">
        <ele>1417</ele>
        <time>2013-09-14T09:18:18.000Z</time>
      </trkpt>
      <trkpt lat="44.70235" lon="5.6371">
        <ele>1415</ele>
        <time>2013-09-14T09:19:13.000Z</time>
      </trkpt>
      <trkpt lat="44.7023" lon="5.63708">
        <ele>1415</ele>
        <time>2013-09-14T09:20:22.000Z</time>
      </trkpt>
      <trkpt lat="44.7023" lon="5.63708">
        <ele>1415</ele>
        <time>2013-09-14T09:20:22.000Z</time>
      </trkpt>
      <trkpt lat="44.7023" lon="5.63708">
        <ele>1415</ele>
        <time>2013-09-14T09:21:05.000Z</time>
      </trkpt>
      <trkpt lat="44.70234" lon="5.63712">
        <ele>1414</ele>
        <time>2013-09-14T09:21:41.000Z</time>
      </trkpt>
      <trkpt lat="44.70234" lon="5.63712">
        <ele>1414</ele>
        <time>2013-09-14T09:21:41.000Z</time>
      </trkpt>
      <trkpt lat="44.70234" lon="5.63712">
        <ele>1414</ele>
        <time>2013-09-14T09:23:03.000Z</time>
      </trkpt>
      <trkpt lat="44.70234" lon="5.63706">
        <ele>1413</ele>
        <time>2013-09-14T09:23:05.000Z</time>
      </trkpt>
      <trkpt lat="44.70232" lon="5.63699">
        <ele>1413</ele>
        <time>2013-09-14T09:23:07.000Z</time>
      </trkpt>
      <trkpt lat="44.7023" lon="5.63693">
        <ele>1412</ele>
        <time>2013-09-14T09:23:08.000Z</time>
      </trkpt>
      <trkpt lat="44.70226" lon="5.63682">
        <ele>1411</ele>
        <time>2013-09-14T09:23:10.000Z</time>
      </trkpt>
      <trkpt lat="44.70224" lon="5.63676">
        <ele>1411</ele>
        <time>2013-09-14T09:23:11.000Z</time>
      </trkpt>
      <trkpt lat="44.70223" lon="5.63667">
        <ele>1410</ele>
        <time>2013-09-14T09:23:12.000Z</time>
      </trkpt>
      <trkpt lat="44.70221" lon="5.63659">
        <ele>1410</ele>
        <time>2013-09-14T09:23:13.000Z</time>
      </trkpt>
      <trkpt lat="44.70219" lon="5.6365">
        <ele>1410</ele>
        <time>2013-09-14T09:23:14.000Z</time>
      </trkpt>
      <trkpt lat="44.70217" lon="5.63639">
        <ele>1409</ele>
        <time>2013-09-14T09:23:15.000Z</time>
      </trkpt>
      <trkpt lat="44.70216" lon="5.63629">
        <ele>1409</ele>
        <time>2013-09-14T09:23:16.000Z</time>
      </trkpt>
      <trkpt lat="44.70214" lon="5.63618">
        <ele>1409</ele>
        <time>2013-09-14T09:23:17.000Z</time>
      </trkpt>
      <trkpt lat="44.70211" lon="5.63607">
        <ele>1409</ele>
        <time>2013-09-14T09:23:18.000Z</time>
      </trkpt>
      <trkpt lat="44.70209" lon="5.63594">
        <ele>1409</ele>
        <time>2013-09-14T09:23:19.000Z</time>
      </trkpt>
      <trkpt lat="44.70207" lon="5.63581">
        <ele>1409</ele>
        <time>2013-09-14T09:23:20.000Z</time>
      </trkpt>
      <trkpt lat="44.70205" lon="5.63568">
        <ele>1408</ele>
        <time>2013-09-14T09:23:21.000Z</time>
      </trkpt>
      <trkpt lat="44.70204" lon="5.63556">
        <ele>1408</ele>
        <time>2013-09-14T09:23:22.000Z</time>
      </trkpt>
      <trkpt lat="44.70203" lon="5.63541">
        <ele>1409</ele>
        <time>2013-09-14T09:23:23.000Z</time>
      </trkpt>
      <trkpt lat="44.70203" lon="5.63526">
        <ele>1409</ele>
        <time>2013-09-14T09:23:24.000Z</time>
      </trkpt>
      <trkpt lat="44.70203" lon="5.63513">
        <ele>1409</ele>
        <time>2013-09-14T09:23:25.000Z</time>
      </trkpt>
      <trkpt lat="44.70204" lon="5.63498">
        <ele>1409</ele>
        <time>2013-09-14T09:23:26.000Z</time>
      </trkpt>
      <trkpt lat="44.70207" lon="5.63485">
        <ele>1410</ele>
        <time>2013-09-14T09:23:27.000Z</time>
      </trkpt>
      <trkpt lat="44.7021" lon="5.63472">
        <ele>1410</ele>
        <time>2013-09-14T09:23:28.000Z</time>
      </trkpt>
      <trkpt lat="44.70212" lon="5.63457">
        <ele>1410</ele>
        <time>2013-09-14T09:23:29.000Z</time>
      </trkpt>
      <trkpt lat="44.70215" lon="5.63444">
        <ele>1410</ele>
        <time>2013-09-14T09:23:30.000Z</time>
      </trkpt>
      <trkpt lat="44.70215" lon="5.63429">
        <ele>1410</ele>
        <time>2013-09-14T09:23:31.000Z</time>
      </trkpt>
      <trkpt lat="44.70214" lon="5.63416">
        <ele>1410</ele>
        <time>2013-09-14T09:23:32.000Z</time>
      </trkpt>
      <trkpt lat="44.70211" lon="5.63401">
        <ele>1411</ele>
        <time>2013-09-14T09:23:33.000Z</time>
      </trkpt>
      <trkpt lat="44.70209" lon="5.63388">
        <ele>1411</ele>
        <time>2013-09-14T09:23:34.000Z</time>
      </trkpt>
      <trkpt lat="44.70208" lon="5.63375">
        <ele>1411</ele>
        <time>2013-09-14T09:23:35.000Z</time>
      </trkpt>
      <trkpt lat="44.70207" lon="5.6336">
        <ele>1412</ele>
        <time>2013-09-14T09:23:36.000Z</time>
      </trkpt>
      <trkpt lat="44.70206" lon="5.63348">
        <ele>1412</ele>
        <time>2013-09-14T09:23:37.000Z</time>
      </trkpt>
      <trkpt lat="44.70205" lon="5.63332">
        <ele>1412</ele>
        <time>2013-09-14T09:23:38.000Z</time>
      </trkpt>
      <trkpt lat="44.70204" lon="5.6332">
        <ele>1413</ele>
        <time>2013-09-14T09:23:39.000Z</time>
      </trkpt>
      <trkpt lat="44.70203" lon="5.63309">
        <ele>1413</ele>
        <time>2013-09-14T09:23:40.000Z</time>
      </trkpt>
      <trkpt lat="44.702" lon="5.63298">
        <ele>1413</ele>
        <time>2013-09-14T09:23:41.000Z</time>
      </trkpt>
      <trkpt lat="44.70194" lon="5.63287">
        <ele>1413</ele>
        <time>2013-09-14T09:23:42.000Z</time>
      </trkpt>
      <trkpt lat="44.70188" lon="5.63279">
        <ele>1412</ele>
        <time>2013-09-14T09:23:43.000Z</time>
      </trkpt>
      <trkpt lat="44.70183" lon="5.63268">
        <ele>1411</ele>
        <time>2013-09-14T09:23:44.000Z</time>
      </trkpt>
      <trkpt lat="44.70178" lon="5.63257">
        <ele>1411</ele>
        <time>2013-09-14T09:23:45.000Z</time>
      </trkpt>
      <trkpt lat="44.70173" lon="5.63249">
        <ele>1410</ele>
        <time>2013-09-14T09:23:46.000Z</time>
      </trkpt>
      <trkpt lat="44.70167" lon="5.63236">
        <ele>1409</ele>
        <time>2013-09-14T09:23:47.000Z</time>
      </trkpt>
      <trkpt lat="44.70162" lon="5.63225">
        <ele>1409</ele>
        <time>2013-09-14T09:23:48.000Z</time>
      </trkpt>
      <trkpt lat="44.70157" lon="5.63212">
        <ele>1409</ele>
        <time>2013-09-14T09:23:49.000Z</time>
      </trkpt>
      <trkpt lat="44.7015" lon="5.63202">
        <ele>1408</ele>
        <time>2013-09-14T09:23:50.000Z</time>
      </trkpt>
      <trkpt lat="44.70144" lon="5.63189">
        <ele>1408</ele>
        <time>2013-09-14T09:23:51.000Z</time>
      </trkpt>
      <trkpt lat="44.70138" lon="5.63176">
        <ele>1407</ele>
        <time>2013-09-14T09:23:52.000Z</time>
      </trkpt>
      <trkpt lat="44.70134" lon="5.63163">
        <ele>1407</ele>
        <time>2013-09-14T09:23:53.000Z</time>
      </trkpt>
      <trkpt lat="44.70131" lon="5.6315">
        <ele>1406</ele>
        <time>2013-09-14T09:23:54.000Z</time>
      </trkpt>
      <trkpt lat="44.70129" lon="5.63137">
        <ele>1406</ele>
        <time>2013-09-14T09:23:55.000Z</time>
      </trkpt>
      <trkpt lat="44.70126" lon="5.63124">
        <ele>1405</ele>
        <time>2013-09-14T09:23:56.000Z</time>
      </trkpt>
      <trkpt lat="44.70123" lon="5.63109">
        <ele>1405</ele>
        <time>2013-09-14T09:23:57.000Z</time>
      </trkpt>
      <trkpt lat="44.70121" lon="5.63096">
        <ele>1404</ele>
        <time>2013-09-14T09:23:58.000Z</time>
      </trkpt>
      <trkpt lat="44.7012" lon="5.63084">
        <ele>1404</ele>
        <time>2013-09-14T09:23:59.000Z</time>
      </trkpt>
      <trkpt lat="44.7012" lon="5.63069">
        <ele>1403</ele>
        <time>2013-09-14T09:24:00.000Z</time>
      </trkpt>
      <trkpt lat="44.7012" lon="5.63056">
        <ele>1403</ele>
        <time>2013-09-14T09:24:01.000Z</time>
      </trkpt>
      <trkpt lat="44.7012" lon="5.63043">
        <ele>1402</ele>
        <time>2013-09-14T09:24:02.000Z</time>
      </trkpt>
      <trkpt lat="44.70124" lon="5.6303">
        <ele>1402</ele>
        <time>2013-09-14T09:24:03.000Z</time>
      </trkpt>
      <trkpt lat="44.70128" lon="5.63017">
        <ele>1402</ele>
        <time>2013-09-14T09:24:04.000Z</time>
      </trkpt>
      <trkpt lat="44.70132" lon="5.63006">
        <ele>1402</ele>
        <time>2013-09-14T09:24:05.000Z</time>
      </trkpt>
      <trkpt lat="44.70138" lon="5.62998">
        <ele>1401</ele>
        <time>2013-09-14T09:24:06.000Z</time>
      </trkpt>
      <trkpt lat="44.70145" lon="5.62987">
        <ele>1401</ele>
        <time>2013-09-14T09:24:07.000Z</time>
      </trkpt>
      <trkpt lat="44.70151" lon="5.62978">
        <ele>1401</ele>
        <time>2013-09-14T09:24:08.000Z</time>
      </trkpt>
      <trkpt lat="44.70159" lon="5.6297">
        <ele>1400</ele>
        <time>2013-09-14T09:24:09.000Z</time>
      </trkpt>
      <trkpt lat="44.70167" lon="5.62968">
        <ele>1400</ele>
        <time>2013-09-14T09:24:10.000Z</time>
      </trkpt>
      <trkpt lat="44.70177" lon="5.62963">
        <ele>1399</ele>
        <time>2013-09-14T09:24:11.000Z</time>
      </trkpt>
      <trkpt lat="44.70186" lon="5.62959">
        <ele>1399</ele>
        <time>2013-09-14T09:24:12.000Z</time>
      </trkpt>
      <trkpt lat="44.70195" lon="5.62955">
        <ele>1398</ele>
        <time>2013-09-14T09:24:13.000Z</time>
      </trkpt>
      <trkpt lat="44.70204" lon="5.62955">
        <ele>1397</ele>
        <time>2013-09-14T09:24:14.000Z</time>
      </trkpt>
      <trkpt lat="44.70214" lon="5.62953">
        <ele>1396</ele>
        <time>2013-09-14T09:24:15.000Z</time>
      </trkpt>
      <trkpt lat="44.70223" lon="5.62951">
        <ele>1395</ele>
        <time>2013-09-14T09:24:16.000Z</time>
      </trkpt>
      <trkpt lat="44.70232" lon="5.62951">
        <ele>1395</ele>
        <time>2013-09-14T09:24:17.000Z</time>
      </trkpt>
      <trkpt lat="44.70241" lon="5.62948">
        <ele>1394</ele>
        <time>2013-09-14T09:24:18.000Z</time>
      </trkpt>
      <trkpt lat="44.7025" lon="5.62948">
        <ele>1394</ele>
        <time>2013-09-14T09:24:19.000Z</time>
      </trkpt>
      <trkpt lat="44.70258" lon="5.62946">
        <ele>1393</ele>
        <time>2013-09-14T09:24:20.000Z</time>
      </trkpt>
      <trkpt lat="44.70267" lon="5.62944">
        <ele>1393</ele>
        <time>2013-09-14T09:24:21.000Z</time>
      </trkpt>
      <trkpt lat="44.70274" lon="5.62942">
        <ele>1392</ele>
        <time>2013-09-14T09:24:22.000Z</time>
      </trkpt>
      <trkpt lat="44.7028" lon="5.62938">
        <ele>1392</ele>
        <time>2013-09-14T09:24:23.000Z</time>
      </trkpt>
      <trkpt lat="44.70285" lon="5.62933">
        <ele>1392</ele>
        <time>2013-09-14T09:24:24.000Z</time>
      </trkpt>
      <trkpt lat="44.70291" lon="5.62927">
        <ele>1391</ele>
        <time>2013-09-14T09:24:25.000Z</time>
      </trkpt>
      <trkpt lat="44.70296" lon="5.62923">
        <ele>1391</ele>
        <time>2013-09-14T09:24:27.000Z</time>
      </trkpt>
      <trkpt lat="44.70302" lon="5.62918">
        <ele>1391</ele>
        <time>2013-09-14T09:24:29.000Z</time>
      </trkpt>
      <trkpt lat="44.70302" lon="5.62918">
        <ele>1391</ele>
        <time>2013-09-14T09:24:29.000Z</time>
      </trkpt>
      <trkpt lat="44.70302" lon="5.62918">
        <ele>1391</ele>
        <time>2013-09-14T09:24:32.000Z</time>
      </trkpt>
      <trkpt lat="44.70312" lon="5.6291">
        <ele>1391</ele>
        <time>2013-09-14T09:24:33.000Z</time>
      </trkpt>
      <trkpt lat="44.70312" lon="5.6291">
        <ele>1391</ele>
        <time>2013-09-14T09:24:33.000Z</time>
      </trkpt>
      <trkpt lat="44.70312" lon="5.6291">
        <ele>1391</ele>
        <time>2013-09-14T09:24:36.000Z</time>
      </trkpt>
      <trkpt lat="44.70321" lon="5.62901">
        <ele>1391</ele>
        <time>2013-09-14T09:24:37.000Z</time>
      </trkpt>
      <trkpt lat="44.70326" lon="5.62895">
        <ele>1391</ele>
        <time>2013-09-14T09:24:39.000Z</time>
      </trkpt>
      <trkpt lat="44.70332" lon="5.6289">
        <ele>1391</ele>
        <time>2013-09-14T09:24:41.000Z</time>
      </trkpt>
      <trkpt lat="44.70337" lon="5.62886">
        <ele>1391</ele>
        <time>2013-09-14T09:24:43.000Z</time>
      </trkpt>
      <trkpt lat="44.70341" lon="5.62882">
        <ele>1390</ele>
        <time>2013-09-14T09:24:45.000Z</time>
      </trkpt>
      <trkpt lat="44.70353" lon="5.62869">
        <ele>1390</ele>
        <time>2013-09-14T09:24:57.000Z</time>
      </trkpt>
      <trkpt lat="44.70353" lon="5.62869">
        <ele>1390</ele>
        <time>2013-09-14T09:24:57.000Z</time>
      </trkpt>
      <trkpt lat="44.70353" lon="5.62869">
        <ele>1390</ele>
        <time>2013-09-14T09:24:59.000Z</time>
      </trkpt>
      <trkpt lat="44.70362" lon="5.62863">
        <ele>1390</ele>
        <time>2013-09-14T09:25:00.000Z</time>
      </trkpt>
      <trkpt lat="44.70362" lon="5.62863">
        <ele>1390</ele>
        <time>2013-09-14T09:25:00.000Z</time>
      </trkpt>
      <trkpt lat="44.70362" lon="5.62863">
        <ele>1390</ele>
        <time>2013-09-14T09:25:02.000Z</time>
      </trkpt>
      <trkpt lat="44.7037" lon="5.62854">
        <ele>1390</ele>
        <time>2013-09-14T09:25:03.000Z</time>
      </trkpt>
      <trkpt lat="44.7037" lon="5.62854">
        <ele>1390</ele>
        <time>2013-09-14T09:25:03.000Z</time>
      </trkpt>
      <trkpt lat="44.7037" lon="5.62854">
        <ele>1390</ele>
        <time>2013-09-14T09:25:04.000Z</time>
      </trkpt>
      <trkpt lat="44.70376" lon="5.62845">
        <ele>1389</ele>
        <time>2013-09-14T09:25:05.000Z</time>
      </trkpt>
      <trkpt lat="44.70381" lon="5.62839">
        <ele>1389</ele>
        <time>2013-09-14T09:25:07.000Z</time>
      </trkpt>
      <trkpt lat="44.70386" lon="5.62832">
        <ele>1389</ele>
        <time>2013-09-14T09:25:09.000Z</time>
      </trkpt>
      <trkpt lat="44.70392" lon="5.62826">
        <ele>1389</ele>
        <time>2013-09-14T09:25:11.000Z</time>
      </trkpt>
      <trkpt lat="44.70396" lon="5.6282">
        <ele>1389</ele>
        <time>2013-09-14T09:25:13.000Z</time>
      </trkpt>
      <trkpt lat="44.70401" lon="5.62813">
        <ele>1389</ele>
        <time>2013-09-14T09:25:15.000Z</time>
      </trkpt>
      <trkpt lat="44.70406" lon="5.62807">
        <ele>1389</ele>
        <time>2013-09-14T09:25:17.000Z</time>
      </trkpt>
      <trkpt lat="44.70411" lon="5.62798">
        <ele>1388</ele>
        <time>2013-09-14T09:25:19.000Z</time>
      </trkpt>
      <trkpt lat="44.70413" lon="5.62792">
        <ele>1388</ele>
        <time>2013-09-14T09:25:20.000Z</time>
      </trkpt>
      <trkpt lat="44.70418" lon="5.62783">
        <ele>1388</ele>
        <time>2013-09-14T09:25:22.000Z</time>
      </trkpt>
      <trkpt lat="44.70424" lon="5.62772">
        <ele>1388</ele>
        <time>2013-09-14T09:25:24.000Z</time>
      </trkpt>
      <trkpt lat="44.70429" lon="5.62762">
        <ele>1388</ele>
        <time>2013-09-14T09:25:26.000Z</time>
      </trkpt>
      <trkpt lat="44.70431" lon="5.62755">
        <ele>1388</ele>
        <time>2013-09-14T09:25:27.000Z</time>
      </trkpt>
      <trkpt lat="44.70434" lon="5.62749">
        <ele>1388</ele>
        <time>2013-09-14T09:25:28.000Z</time>
      </trkpt>
      <trkpt lat="44.70437" lon="5.62742">
        <ele>1388</ele>
        <time>2013-09-14T09:25:29.000Z</time>
      </trkpt>
      <trkpt lat="44.7044" lon="5.62736">
        <ele>1387</ele>
        <time>2013-09-14T09:25:30.000Z</time>
      </trkpt>
      <trkpt lat="44.70442" lon="5.6273">
        <ele>1387</ele>
        <time>2013-09-14T09:25:31.000Z</time>
      </trkpt>
      <trkpt lat="44.70444" lon="5.62723">
        <ele>1386</ele>
        <time>2013-09-14T09:25:32.000Z</time>
      </trkpt>
      <trkpt lat="44.70445" lon="5.62714">
        <ele>1386</ele>
        <time>2013-09-14T09:25:33.000Z</time>
      </trkpt>
      <trkpt lat="44.70451" lon="5.62704">
        <ele>1385</ele>
        <time>2013-09-14T09:25:35.000Z</time>
      </trkpt>
      <trkpt lat="44.70455" lon="5.62693">
        <ele>1384</ele>
        <time>2013-09-14T09:25:37.000Z</time>
      </trkpt>
      <trkpt lat="44.70459" lon="5.62687">
        <ele>1384</ele>
        <time>2013-09-14T09:25:39.000Z</time>
      </trkpt>
      <trkpt lat="44.70469" lon="5.6268">
        <ele>1380</ele>
        <time>2013-09-14T09:26:25.000Z</time>
      </trkpt>
      <trkpt lat="44.70474" lon="5.6268">
        <ele>1379</ele>
        <time>2013-09-14T09:26:27.000Z</time>
      </trkpt>
      <trkpt lat="44.70478" lon="5.62678">
        <ele>1379</ele>
        <time>2013-09-14T09:26:28.000Z</time>
      </trkpt>
      <trkpt lat="44.70486" lon="5.62678">
        <ele>1378</ele>
        <time>2013-09-14T09:26:30.000Z</time>
      </trkpt>
      <trkpt lat="44.70495" lon="5.62676">
        <ele>1376</ele>
        <time>2013-09-14T09:26:32.000Z</time>
      </trkpt>
      <trkpt lat="44.70502" lon="5.62676">
        <ele>1373</ele>
        <time>2013-09-14T09:26:34.000Z</time>
      </trkpt>
      <trkpt lat="44.7051" lon="5.62676">
        <ele>1370</ele>
        <time>2013-09-14T09:26:36.000Z</time>
      </trkpt>
      <trkpt lat="44.70518" lon="5.62676">
        <ele>1369</ele>
        <time>2013-09-14T09:26:38.000Z</time>
      </trkpt>
      <trkpt lat="44.70526" lon="5.62676">
        <ele>1368</ele>
        <time>2013-09-14T09:26:40.000Z</time>
      </trkpt>
      <trkpt lat="44.70532" lon="5.62676">
        <ele>1368</ele>
        <time>2013-09-14T09:26:42.000Z</time>
      </trkpt>
      <trkpt lat="44.70538" lon="5.62676">
        <ele>1368</ele>
        <time>2013-09-14T09:26:44.000Z</time>
      </trkpt>
      <trkpt lat="44.70543" lon="5.62676">
        <ele>1368</ele>
        <time>2013-09-14T09:26:46.000Z</time>
      </trkpt>
      <trkpt lat="44.70549" lon="5.62676">
        <ele>1368</ele>
        <time>2013-09-14T09:26:49.000Z</time>
      </trkpt>
      <trkpt lat="44.70554" lon="5.62678">
        <ele>1369</ele>
        <time>2013-09-14T09:26:51.000Z</time>
      </trkpt>
      <trkpt lat="44.7056" lon="5.6268">
        <ele>1369</ele>
        <time>2013-09-14T09:26:54.000Z</time>
      </trkpt>
      <trkpt lat="44.70566" lon="5.62682">
        <ele>1369</ele>
        <time>2013-09-14T09:26:57.000Z</time>
      </trkpt>
      <trkpt lat="44.70572" lon="5.62682">
        <ele>1369</ele>
        <time>2013-09-14T09:26:59.000Z</time>
      </trkpt>
      <trkpt lat="44.70584" lon="5.62684">
        <ele>1369</ele>
        <time>2013-09-14T09:27:06.000Z</time>
      </trkpt>
      <trkpt lat="44.70584" lon="5.62684">
        <ele>1369</ele>
        <time>2013-09-14T09:27:06.000Z</time>
      </trkpt>
      <trkpt lat="44.70584" lon="5.62684">
        <ele>1369</ele>
        <time>2013-09-14T09:27:11.000Z</time>
      </trkpt>
      <trkpt lat="44.70594" lon="5.62682">
        <ele>1369</ele>
        <time>2013-09-14T09:27:12.000Z</time>
      </trkpt>
      <trkpt lat="44.70594" lon="5.62682">
        <ele>1369</ele>
        <time>2013-09-14T09:27:12.000Z</time>
      </trkpt>
      <trkpt lat="44.70594" lon="5.62682">
        <ele>1369</ele>
        <time>2013-09-14T09:27:17.000Z</time>
      </trkpt>
      <trkpt lat="44.70604" lon="5.62676">
        <ele>1370</ele>
        <time>2013-09-14T09:27:18.000Z</time>
      </trkpt>
      <trkpt lat="44.70604" lon="5.62676">
        <ele>1370</ele>
        <time>2013-09-14T09:27:18.000Z</time>
      </trkpt>
      <trkpt lat="44.70604" lon="5.62676">
        <ele>1370</ele>
        <time>2013-09-14T09:27:21.000Z</time>
      </trkpt>
      <trkpt lat="44.70613" lon="5.62672">
        <ele>1370</ele>
        <time>2013-09-14T09:27:22.000Z</time>
      </trkpt>
      <trkpt lat="44.70613" lon="5.62672">
        <ele>1370</ele>
        <time>2013-09-14T09:27:22.000Z</time>
      </trkpt>
      <trkpt lat="44.70613" lon="5.62672">
        <ele>1370</ele>
        <time>2013-09-14T09:27:25.000Z</time>
      </trkpt>
      <trkpt lat="44.70623" lon="5.62667">
        <ele>1370</ele>
        <time>2013-09-14T09:27:26.000Z</time>
      </trkpt>
      <trkpt lat="44.70623" lon="5.62667">
        <ele>1370</ele>
        <time>2013-09-14T09:27:26.000Z</time>
      </trkpt>
      <trkpt lat="44.70623" lon="5.62667">
        <ele>1370</ele>
        <time>2013-09-14T09:27:28.000Z</time>
      </trkpt>
      <trkpt lat="44.70633" lon="5.62665">
        <ele>1370</ele>
        <time>2013-09-14T09:27:29.000Z</time>
      </trkpt>
      <trkpt lat="44.70633" lon="5.62665">
        <ele>1370</ele>
        <time>2013-09-14T09:27:29.000Z</time>
      </trkpt>
      <trkpt lat="44.70633" lon="5.62665">
        <ele>1370</ele>
        <time>2013-09-14T09:27:31.000Z</time>
      </trkpt>
      <trkpt lat="44.70642" lon="5.62661">
        <ele>1370</ele>
        <time>2013-09-14T09:27:32.000Z</time>
      </trkpt>
      <trkpt lat="44.70642" lon="5.62661">
        <ele>1370</ele>
        <time>2013-09-14T09:27:32.000Z</time>
      </trkpt>
      <trkpt lat="44.70642" lon="5.62661">
        <ele>1370</ele>
        <time>2013-09-14T09:27:35.000Z</time>
      </trkpt>
      <trkpt lat="44.70652" lon="5.62659">
        <ele>1371</ele>
        <time>2013-09-14T09:27:36.000Z</time>
      </trkpt>
      <trkpt lat="44.70652" lon="5.62659">
        <ele>1371</ele>
        <time>2013-09-14T09:27:36.000Z</time>
      </trkpt>
      <trkpt lat="44.70652" lon="5.62659">
        <ele>1371</ele>
        <time>2013-09-14T09:27:39.000Z</time>
      </trkpt>
      <trkpt lat="44.70662" lon="5.62654">
        <ele>1371</ele>
        <time>2013-09-14T09:27:40.000Z</time>
      </trkpt>
      <trkpt lat="44.70662" lon="5.62654">
        <ele>1371</ele>
        <time>2013-09-14T09:27:40.000Z</time>
      </trkpt>
      <trkpt lat="44.70662" lon="5.62654">
        <ele>1371</ele>
        <time>2013-09-14T09:27:43.000Z</time>
      </trkpt>
      <trkpt lat="44.70672" lon="5.62652">
        <ele>1371</ele>
        <time>2013-09-14T09:27:44.000Z</time>
      </trkpt>
      <trkpt lat="44.70672" lon="5.62652">
        <ele>1371</ele>
        <time>2013-09-14T09:27:44.000Z</time>
      </trkpt>
      <trkpt lat="44.70672" lon="5.62652">
        <ele>1371</ele>
        <time>2013-09-14T09:27:46.000Z</time>
      </trkpt>
      <trkpt lat="44.70681" lon="5.6265">
        <ele>1371</ele>
        <time>2013-09-14T09:27:47.000Z</time>
      </trkpt>
      <trkpt lat="44.70681" lon="5.6265">
        <ele>1371</ele>
        <time>2013-09-14T09:27:47.000Z</time>
      </trkpt>
      <trkpt lat="44.70681" lon="5.6265">
        <ele>1371</ele>
        <time>2013-09-14T09:27:49.000Z</time>
      </trkpt>
      <trkpt lat="44.70691" lon="5.62646">
        <ele>1372</ele>
        <time>2013-09-14T09:27:50.000Z</time>
      </trkpt>
      <trkpt lat="44.70691" lon="5.62646">
        <ele>1372</ele>
        <time>2013-09-14T09:27:50.000Z</time>
      </trkpt>
      <trkpt lat="44.70691" lon="5.62646">
        <ele>1372</ele>
        <time>2013-09-14T09:27:52.000Z</time>
      </trkpt>
      <trkpt lat="44.70701" lon="5.62642">
        <ele>1372</ele>
        <time>2013-09-14T09:27:53.000Z</time>
      </trkpt>
      <trkpt lat="44.70701" lon="5.62642">
        <ele>1372</ele>
        <time>2013-09-14T09:27:53.000Z</time>
      </trkpt>
      <trkpt lat="44.70701" lon="5.62642">
        <ele>1372</ele>
        <time>2013-09-14T09:27:56.000Z</time>
      </trkpt>
      <trkpt lat="44.7071" lon="5.62637">
        <ele>1372</ele>
        <time>2013-09-14T09:27:57.000Z</time>
      </trkpt>
      <trkpt lat="44.7071" lon="5.62637">
        <ele>1372</ele>
        <time>2013-09-14T09:27:57.000Z</time>
      </trkpt>
      <trkpt lat="44.7071" lon="5.62637">
        <ele>1372</ele>
        <time>2013-09-14T09:28:02.000Z</time>
      </trkpt>
      <trkpt lat="44.70718" lon="5.62629">
        <ele>1373</ele>
        <time>2013-09-14T09:28:03.000Z</time>
      </trkpt>
      <trkpt lat="44.70718" lon="5.62629">
        <ele>1373</ele>
        <time>2013-09-14T09:28:03.000Z</time>
      </trkpt>
      <trkpt lat="44.70718" lon="5.62629">
        <ele>1373</ele>
        <time>2013-09-14T09:28:10.000Z</time>
      </trkpt>
      <trkpt lat="44.70726" lon="5.62622">
        <ele>1374</ele>
        <time>2013-09-14T09:28:11.000Z</time>
      </trkpt>
      <trkpt lat="44.70726" lon="5.62622">
        <ele>1374</ele>
        <time>2013-09-14T09:28:11.000Z</time>
      </trkpt>
      <trkpt lat="44.70726" lon="5.62622">
        <ele>1374</ele>
        <time>2013-09-14T09:28:16.000Z</time>
      </trkpt>
      <trkpt lat="44.70735" lon="5.62618">
        <ele>1375</ele>
        <time>2013-09-14T09:28:17.000Z</time>
      </trkpt>
      <trkpt lat="44.70735" lon="5.62618">
        <ele>1375</ele>
        <time>2013-09-14T09:28:17.000Z</time>
      </trkpt>
      <trkpt lat="44.70735" lon="5.62618">
        <ele>1375</ele>
        <time>2013-09-14T09:28:22.000Z</time>
      </trkpt>
      <trkpt lat="44.70745" lon="5.62614">
        <ele>1376</ele>
        <time>2013-09-14T09:28:23.000Z</time>
      </trkpt>
      <trkpt lat="44.70745" lon="5.62614">
        <ele>1376</ele>
        <time>2013-09-14T09:28:23.000Z</time>
      </trkpt>
      <trkpt lat="44.70745" lon="5.62614">
        <ele>1376</ele>
        <time>2013-09-14T09:28:27.000Z</time>
      </trkpt>
      <trkpt lat="44.70752" lon="5.62607">
        <ele>1376</ele>
        <time>2013-09-14T09:28:28.000Z</time>
      </trkpt>
      <trkpt lat="44.70752" lon="5.62607">
        <ele>1376</ele>
        <time>2013-09-14T09:28:28.000Z</time>
      </trkpt>
      <trkpt lat="44.70752" lon="5.62607">
        <ele>1376</ele>
        <time>2013-09-14T09:28:30.000Z</time>
      </trkpt>
      <trkpt lat="44.70757" lon="5.62605">
        <ele>1377</ele>
        <time>2013-09-14T09:28:31.000Z</time>
      </trkpt>
      <trkpt lat="44.70757" lon="5.62605">
        <ele>1377</ele>
        <time>2013-09-14T09:28:31.000Z</time>
      </trkpt>
      <trkpt lat="44.70757" lon="5.62605">
        <ele>1377</ele>
        <time>2013-09-14T09:28:33.000Z</time>
      </trkpt>
      <trkpt lat="44.70762" lon="5.62601">
        <ele>1377</ele>
        <time>2013-09-14T09:28:34.000Z</time>
      </trkpt>
      <trkpt lat="44.70762" lon="5.62601">
        <ele>1377</ele>
        <time>2013-09-14T09:28:34.000Z</time>
      </trkpt>
      <trkpt lat="44.70762" lon="5.62601">
        <ele>1377</ele>
        <time>2013-09-14T09:28:38.000Z</time>
      </trkpt>
      <trkpt lat="44.70766" lon="5.62596">
        <ele>1378</ele>
        <time>2013-09-14T09:28:39.000Z</time>
      </trkpt>
      <trkpt lat="44.70766" lon="5.62596">
        <ele>1378</ele>
        <time>2013-09-14T09:28:39.000Z</time>
      </trkpt>
      <trkpt lat="44.70766" lon="5.62596">
        <ele>1378</ele>
        <time>2013-09-14T09:28:46.000Z</time>
      </trkpt>
      <trkpt lat="44.70769" lon="5.62588">
        <ele>1379</ele>
        <time>2013-09-14T09:28:47.000Z</time>
      </trkpt>
      <trkpt lat="44.70769" lon="5.62588">
        <ele>1379</ele>
        <time>2013-09-14T09:28:47.000Z</time>
      </trkpt>
      <trkpt lat="44.70769" lon="5.62588">
        <ele>1379</ele>
        <time>2013-09-14T09:28:57.000Z</time>
      </trkpt>
      <trkpt lat="44.70779" lon="5.62584">
        <ele>1380</ele>
        <time>2013-09-14T09:28:58.000Z</time>
      </trkpt>
      <trkpt lat="44.70779" lon="5.62584">
        <ele>1380</ele>
        <time>2013-09-14T09:28:58.000Z</time>
      </trkpt>
      <trkpt lat="44.70779" lon="5.62584">
        <ele>1380</ele>
        <time>2013-09-14T09:29:03.000Z</time>
      </trkpt>
      <trkpt lat="44.70788" lon="5.62579">
        <ele>1380</ele>
        <time>2013-09-14T09:29:04.000Z</time>
      </trkpt>
      <trkpt lat="44.70788" lon="5.62579">
        <ele>1380</ele>
        <time>2013-09-14T09:29:04.000Z</time>
      </trkpt>
      <trkpt lat="44.70788" lon="5.62579">
        <ele>1380</ele>
        <time>2013-09-14T09:29:06.000Z</time>
      </trkpt>
      <trkpt lat="44.70792" lon="5.62577">
        <ele>1381</ele>
        <time>2013-09-14T09:29:07.000Z</time>
      </trkpt>
      <trkpt lat="44.70792" lon="5.62577">
        <ele>1381</ele>
        <time>2013-09-14T09:29:07.000Z</time>
      </trkpt>
      <trkpt lat="44.70792" lon="5.62577">
        <ele>1381</ele>
        <time>2013-09-14T09:29:12.000Z</time>
      </trkpt>
      <trkpt lat="44.70799" lon="5.62573">
        <ele>1381</ele>
        <time>2013-09-14T09:29:13.000Z</time>
      </trkpt>
      <trkpt lat="44.70799" lon="5.62573">
        <ele>1381</ele>
        <time>2013-09-14T09:29:13.000Z</time>
      </trkpt>
      <trkpt lat="44.70799" lon="5.62573">
        <ele>1381</ele>
        <time>2013-09-14T09:29:21.000Z</time>
      </trkpt>
      <trkpt lat="44.70808" lon="5.62571">
        <ele>1382</ele>
        <time>2013-09-14T09:29:22.000Z</time>
      </trkpt>
      <trkpt lat="44.70808" lon="5.62571">
        <ele>1382</ele>
        <time>2013-09-14T09:29:22.000Z</time>
      </trkpt>
      <trkpt lat="44.70808" lon="5.62571">
        <ele>1382</ele>
        <time>2013-09-14T09:29:31.000Z</time>
      </trkpt>
      <trkpt lat="44.70818" lon="5.62575">
        <ele>1382</ele>
        <time>2013-09-14T09:29:32.000Z</time>
      </trkpt>
      <trkpt lat="44.70818" lon="5.62575">
        <ele>1382</ele>
        <time>2013-09-14T09:29:32.000Z</time>
      </trkpt>
      <trkpt lat="44.70818" lon="5.62575">
        <ele>1382</ele>
        <time>2013-09-14T09:29:39.000Z</time>
      </trkpt>
      <trkpt lat="44.70826" lon="5.62577">
        <ele>1383</ele>
        <time>2013-09-14T09:29:40.000Z</time>
      </trkpt>
      <trkpt lat="44.7083" lon="5.62575">
        <ele>1384</ele>
        <time>2013-09-14T09:29:43.000Z</time>
      </trkpt>
      <trkpt lat="44.70836" lon="5.62571">
        <ele>1384</ele>
        <time>2013-09-14T09:29:46.000Z</time>
      </trkpt>
      <trkpt lat="44.7084" lon="5.62564">
        <ele>1385</ele>
        <time>2013-09-14T09:29:49.000Z</time>
      </trkpt>
      <trkpt lat="44.70842" lon="5.62558">
        <ele>1385</ele>
        <time>2013-09-14T09:29:53.000Z</time>
      </trkpt>
      <trkpt lat="44.70842" lon="5.62551">
        <ele>1385</ele>
        <time>2013-09-14T09:29:56.000Z</time>
      </trkpt>
      <trkpt lat="44.70844" lon="5.62545">
        <ele>1386</ele>
        <time>2013-09-14T09:30:00.000Z</time>
      </trkpt>
      <trkpt lat="44.70849" lon="5.62543">
        <ele>1386</ele>
        <time>2013-09-14T09:30:03.000Z</time>
      </trkpt>
      <trkpt lat="44.70849" lon="5.62543">
        <ele>1386</ele>
        <time>2013-09-14T09:30:03.000Z</time>
      </trkpt>
      <trkpt lat="44.70849" lon="5.62543">
        <ele>1386</ele>
        <time>2013-09-14T09:30:04.000Z</time>
      </trkpt>
      <trkpt lat="44.70855" lon="5.62545">
        <ele>1387</ele>
        <time>2013-09-14T09:30:12.000Z</time>
      </trkpt>
      <trkpt lat="44.70859" lon="5.62549">
        <ele>1387</ele>
        <time>2013-09-14T09:30:14.000Z</time>
      </trkpt>
      <trkpt lat="44.70865" lon="5.62556">
        <ele>1387</ele>
        <time>2013-09-14T09:30:16.000Z</time>
      </trkpt>
      <trkpt lat="44.7087" lon="5.62562">
        <ele>1387</ele>
        <time>2013-09-14T09:30:18.000Z</time>
      </trkpt>
      <trkpt lat="44.70874" lon="5.62571">
        <ele>1387</ele>
        <time>2013-09-14T09:30:20.000Z</time>
      </trkpt>
      <trkpt lat="44.70878" lon="5.62577">
        <ele>1388</ele>
        <time>2013-09-14T09:30:22.000Z</time>
      </trkpt>
      <trkpt lat="44.7088" lon="5.62586">
        <ele>1388</ele>
        <time>2013-09-14T09:30:24.000Z</time>
      </trkpt>
      <trkpt lat="44.70882" lon="5.62594">
        <ele>1388</ele>
        <time>2013-09-14T09:30:26.000Z</time>
      </trkpt>
      <trkpt lat="44.70883" lon="5.62601">
        <ele>1388</ele>
        <time>2013-09-14T09:30:27.000Z</time>
      </trkpt>
      <trkpt lat="44.70884" lon="5.62607">
        <ele>1388</ele>
        <time>2013-09-14T09:30:28.000Z</time>
      </trkpt>
      <trkpt lat="44.70884" lon="5.62614">
        <ele>1388</ele>
        <time>2013-09-14T09:30:29.000Z</time>
      </trkpt>
      <trkpt lat="44.70885" lon="5.62622">
        <ele>1388</ele>
        <time>2013-09-14T09:30:30.000Z</time>
      </trkpt>
      <trkpt lat="44.70885" lon="5.62629">
        <ele>1388</ele>
        <time>2013-09-14T09:30:31.000Z</time>
      </trkpt>
      <trkpt lat="44.70885" lon="5.62637">
        <ele>1387</ele>
        <time>2013-09-14T09:30:32.000Z</time>
      </trkpt>
      <trkpt lat="44.70886" lon="5.62646">
        <ele>1387</ele>
        <time>2013-09-14T09:30:33.000Z</time>
      </trkpt>
      <trkpt lat="44.70884" lon="5.62652">
        <ele>1386</ele>
        <time>2013-09-14T09:30:34.000Z</time>
      </trkpt>
      <trkpt lat="44.70882" lon="5.62661">
        <ele>1386</ele>
        <time>2013-09-14T09:30:35.000Z</time>
      </trkpt>
      <trkpt lat="44.70881" lon="5.62667">
        <ele>1385</ele>
        <time>2013-09-14T09:30:36.000Z</time>
      </trkpt>
      <trkpt lat="44.70883" lon="5.62678">
        <ele>1384</ele>
        <time>2013-09-14T09:30:38.000Z</time>
      </trkpt>
      <trkpt lat="44.70884" lon="5.62687">
        <ele>1384</ele>
        <time>2013-09-14T09:30:41.000Z</time>
      </trkpt>
      <trkpt lat="44.70885" lon="5.62695">
        <ele>1384</ele>
        <time>2013-09-14T09:30:43.000Z</time>
      </trkpt>
      <trkpt lat="44.70886" lon="5.62706">
        <ele>1384</ele>
        <time>2013-09-14T09:30:45.000Z</time>
      </trkpt>
      <trkpt lat="44.70886" lon="5.62714">
        <ele>1384</ele>
        <time>2013-09-14T09:30:47.000Z</time>
      </trkpt>
      <trkpt lat="44.70886" lon="5.62723">
        <ele>1384</ele>
        <time>2013-09-14T09:30:49.000Z</time>
      </trkpt>
      <trkpt lat="44.70884" lon="5.62732">
        <ele>1384</ele>
        <time>2013-09-14T09:30:51.000Z</time>
      </trkpt>
      <trkpt lat="44.70882" lon="5.6274">
        <ele>1384</ele>
        <time>2013-09-14T09:30:53.000Z</time>
      </trkpt>
      <trkpt lat="44.70878" lon="5.62745">
        <ele>1384</ele>
        <time>2013-09-14T09:30:55.000Z</time>
      </trkpt>
      <trkpt lat="44.70874" lon="5.62751">
        <ele>1384</ele>
        <time>2013-09-14T09:30:57.000Z</time>
      </trkpt>
      <trkpt lat="44.70871" lon="5.62757">
        <ele>1384</ele>
        <time>2013-09-14T09:30:59.000Z</time>
      </trkpt>
      <trkpt lat="44.70868" lon="5.62766">
        <ele>1384</ele>
        <time>2013-09-14T09:31:01.000Z</time>
      </trkpt>
      <trkpt lat="44.70866" lon="5.62777">
        <ele>1384</ele>
        <time>2013-09-14T09:31:03.000Z</time>
      </trkpt>
      <trkpt lat="44.70865" lon="5.62783">
        <ele>1384</ele>
        <time>2013-09-14T09:31:04.000Z</time>
      </trkpt>
      <trkpt lat="44.70864" lon="5.6279">
        <ele>1384</ele>
        <time>2013-09-14T09:31:05.000Z</time>
      </trkpt>
      <trkpt lat="44.70863" lon="5.62796">
        <ele>1384</ele>
        <time>2013-09-14T09:31:06.000Z</time>
      </trkpt>
      <trkpt lat="44.70863" lon="5.62802">
        <ele>1384</ele>
        <time>2013-09-14T09:31:07.000Z</time>
      </trkpt>
      <trkpt lat="44.70863" lon="5.62809">
        <ele>1384</ele>
        <time>2013-09-14T09:31:08.000Z</time>
      </trkpt>
      <trkpt lat="44.70864" lon="5.6282">
        <ele>1384</ele>
        <time>2013-09-14T09:31:10.000Z</time>
      </trkpt>
      <trkpt lat="44.70863" lon="5.6283">
        <ele>1384</ele>
        <time>2013-09-14T09:31:12.000Z</time>
      </trkpt>
      <trkpt lat="44.70863" lon="5.62841">
        <ele>1384</ele>
        <time>2013-09-14T09:31:14.000Z</time>
      </trkpt>
      <trkpt lat="44.70864" lon="5.6285">
        <ele>1384</ele>
        <time>2013-09-14T09:31:16.000Z</time>
      </trkpt>
      <trkpt lat="44.70866" lon="5.62856">
        <ele>1384</ele>
        <time>2013-09-14T09:31:17.000Z</time>
      </trkpt>
      <trkpt lat="44.70868" lon="5.62863">
        <ele>1384</ele>
        <time>2013-09-14T09:31:18.000Z</time>
      </trkpt>
      <trkpt lat="44.7087" lon="5.62871">
        <ele>1387</ele>
        <time>2013-09-14T09:31:19.000Z</time>
      </trkpt>
      <trkpt lat="44.70872" lon="5.6288">
        <ele>1388</ele>
        <time>2013-09-14T09:31:20.000Z</time>
      </trkpt>
      <trkpt lat="44.70876" lon="5.6289">
        <ele>1390</ele>
        <time>2013-09-14T09:31:21.000Z</time>
      </trkpt>
      <trkpt lat="44.70881" lon="5.62903">
        <ele>1392</ele>
        <time>2013-09-14T09:31:22.000Z</time>
      </trkpt>
      <trkpt lat="44.70885" lon="5.62914">
        <ele>1393</ele>
        <time>2013-09-14T09:31:23.000Z</time>
      </trkpt>
      <trkpt lat="44.70892" lon="5.62925">
        <ele>1394</ele>
        <time>2013-09-14T09:31:24.000Z</time>
      </trkpt>
      <trkpt lat="44.70897" lon="5.62938">
        <ele>1395</ele>
        <time>2013-09-14T09:31:25.000Z</time>
      </trkpt>
      <trkpt lat="44.70902" lon="5.62948">
        <ele>1396</ele>
        <time>2013-09-14T09:31:26.000Z</time>
      </trkpt>
      <trkpt lat="44.70909" lon="5.62959">
        <ele>1396</ele>
        <time>2013-09-14T09:31:27.000Z</time>
      </trkpt>
      <trkpt lat="44.70915" lon="5.6297">
        <ele>1397</ele>
        <time>2013-09-14T09:31:28.000Z</time>
      </trkpt>
      <trkpt lat="44.70922" lon="5.62981">
        <ele>1399</ele>
        <time>2013-09-14T09:31:29.000Z</time>
      </trkpt>
      <trkpt lat="44.70927" lon="5.62991">
        <ele>1400</ele>
        <time>2013-09-14T09:31:30.000Z</time>
      </trkpt>
      <trkpt lat="44.70933" lon="5.63">
        <ele>1401</ele>
        <time>2013-09-14T09:31:31.000Z</time>
      </trkpt>
      <trkpt lat="44.70938" lon="5.63006">
        <ele>1401</ele>
        <time>2013-09-14T09:31:32.000Z</time>
      </trkpt>
      <trkpt lat="44.70945" lon="5.63013">
        <ele>1401</ele>
        <time>2013-09-14T09:31:33.000Z</time>
      </trkpt>
      <trkpt lat="44.70952" lon="5.63019">
        <ele>1402</ele>
        <time>2013-09-14T09:31:34.000Z</time>
      </trkpt>
      <trkpt lat="44.70959" lon="5.63026">
        <ele>1402</ele>
        <time>2013-09-14T09:31:35.000Z</time>
      </trkpt>
      <trkpt lat="44.70966" lon="5.6303">
        <ele>1402</ele>
        <time>2013-09-14T09:31:36.000Z</time>
      </trkpt>
      <trkpt lat="44.70973" lon="5.63034">
        <ele>1403</ele>
        <time>2013-09-14T09:31:37.000Z</time>
      </trkpt>
      <trkpt lat="44.70973" lon="5.63034">
        <ele>1403</ele>
        <time>2013-09-14T09:31:37.000Z</time>
      </trkpt>
      <trkpt lat="44.70973" lon="5.63034">
        <ele>1403</ele>
        <time>2013-09-14T09:31:38.000Z</time>
      </trkpt>
      <trkpt lat="44.70982" lon="5.63041">
        <ele>1403</ele>
        <time>2013-09-14T09:31:39.000Z</time>
      </trkpt>
      <trkpt lat="44.70982" lon="5.63041">
        <ele>1403</ele>
        <time>2013-09-14T09:31:39.000Z</time>
      </trkpt>
      <trkpt lat="44.70982" lon="5.63041">
        <ele>1403</ele>
        <time>2013-09-14T09:31:43.000Z</time>
      </trkpt>
      <trkpt lat="44.70989" lon="5.63047">
        <ele>1403</ele>
        <time>2013-09-14T09:31:44.000Z</time>
      </trkpt>
      <trkpt lat="44.70989" lon="5.63047">
        <ele>1403</ele>
        <time>2013-09-14T09:31:44.000Z</time>
      </trkpt>
      <trkpt lat="44.70989" lon="5.63047">
        <ele>1403</ele>
        <time>2013-09-14T09:31:50.000Z</time>
      </trkpt>
      <trkpt lat="44.70998" lon="5.63051">
        <ele>1402</ele>
        <time>2013-09-14T09:31:51.000Z</time>
      </trkpt>
      <trkpt lat="44.70998" lon="5.63051">
        <ele>1402</ele>
        <time>2013-09-14T09:31:51.000Z</time>
      </trkpt>
      <trkpt lat="44.70998" lon="5.63051">
        <ele>1402</ele>
        <time>2013-09-14T09:32:22.000Z</time>
      </trkpt>
      <trkpt lat="44.71003" lon="5.63054">
        <ele>1399</ele>
        <time>2013-09-14T09:32:23.000Z</time>
      </trkpt>
      <trkpt lat="44.71003" lon="5.63054">
        <ele>1399</ele>
        <time>2013-09-14T09:32:23.000Z</time>
      </trkpt>
      <trkpt lat="44.71003" lon="5.63054">
        <ele>1399</ele>
        <time>2013-09-14T09:32:51.000Z</time>
      </trkpt>
      <trkpt lat="44.71013" lon="5.63056">
        <ele>1392</ele>
        <time>2013-09-14T09:32:52.000Z</time>
      </trkpt>
      <trkpt lat="44.71013" lon="5.63056">
        <ele>1392</ele>
        <time>2013-09-14T09:32:52.000Z</time>
      </trkpt>
      <trkpt lat="44.71013" lon="5.63056">
        <ele>1392</ele>
        <time>2013-09-14T09:32:55.000Z</time>
      </trkpt>
      <trkpt lat="44.71025" lon="5.63058">
        <ele>1388</ele>
        <time>2013-09-14T09:32:56.000Z</time>
      </trkpt>
      <trkpt lat="44.71025" lon="5.63058">
        <ele>1388</ele>
        <time>2013-09-14T09:32:56.000Z</time>
      </trkpt>
      <trkpt lat="44.71025" lon="5.63058">
        <ele>1388</ele>
        <time>2013-09-14T09:32:58.000Z</time>
      </trkpt>
      <trkpt lat="44.71033" lon="5.63062">
        <ele>1386</ele>
        <time>2013-09-14T09:32:59.000Z</time>
      </trkpt>
      <trkpt lat="44.71033" lon="5.63062">
        <ele>1386</ele>
        <time>2013-09-14T09:32:59.000Z</time>
      </trkpt>
      <trkpt lat="44.71033" lon="5.63062">
        <ele>1386</ele>
        <time>2013-09-14T09:33:02.000Z</time>
      </trkpt>
      <trkpt lat="44.71043" lon="5.63064">
        <ele>1383</ele>
        <time>2013-09-14T09:33:03.000Z</time>
      </trkpt>
      <trkpt lat="44.71043" lon="5.63064">
        <ele>1383</ele>
        <time>2013-09-14T09:33:03.000Z</time>
      </trkpt>
      <trkpt lat="44.71043" lon="5.63064">
        <ele>1383</ele>
        <time>2013-09-14T09:33:07.000Z</time>
      </trkpt>
      <trkpt lat="44.71051" lon="5.63071">
        <ele>1380</ele>
        <time>2013-09-14T09:33:08.000Z</time>
      </trkpt>
      <trkpt lat="44.71051" lon="5.63071">
        <ele>1380</ele>
        <time>2013-09-14T09:33:08.000Z</time>
      </trkpt>
      <trkpt lat="44.71051" lon="5.63071">
        <ele>1380</ele>
        <time>2013-09-14T09:33:14.000Z</time>
      </trkpt>
      <trkpt lat="44.71058" lon="5.63082">
        <ele>1376</ele>
        <time>2013-09-14T09:33:15.000Z</time>
      </trkpt>
      <trkpt lat="44.71058" lon="5.63082">
        <ele>1376</ele>
        <time>2013-09-14T09:33:15.000Z</time>
      </trkpt>
      <trkpt lat="44.71058" lon="5.63082">
        <ele>1376</ele>
        <time>2013-09-14T09:33:21.000Z</time>
      </trkpt>
      <trkpt lat="44.71068" lon="5.63088">
        <ele>1372</ele>
        <time>2013-09-14T09:33:22.000Z</time>
      </trkpt>
      <trkpt lat="44.71068" lon="5.63088">
        <ele>1372</ele>
        <time>2013-09-14T09:33:22.000Z</time>
      </trkpt>
      <trkpt lat="44.71068" lon="5.63088">
        <ele>1372</ele>
        <time>2013-09-14T09:33:23.000Z</time>
      </trkpt>
      <trkpt lat="44.71073" lon="5.63088">
        <ele>1372</ele>
        <time>2013-09-14T09:33:24.000Z</time>
      </trkpt>
      <trkpt lat="44.71078" lon="5.63088">
        <ele>1371</ele>
        <time>2013-09-14T09:33:26.000Z</time>
      </trkpt>
      <trkpt lat="44.71085" lon="5.63088">
        <ele>1370</ele>
        <time>2013-09-14T09:33:28.000Z</time>
      </trkpt>
      <trkpt lat="44.71092" lon="5.6309">
        <ele>1365</ele>
        <time>2013-09-14T09:33:30.000Z</time>
      </trkpt>
      <trkpt lat="44.71099" lon="5.63092">
        <ele>1362</ele>
        <time>2013-09-14T09:33:31.000Z</time>
      </trkpt>
      <trkpt lat="44.71104" lon="5.63094">
        <ele>1359</ele>
        <time>2013-09-14T09:33:32.000Z</time>
      </trkpt>
      <trkpt lat="44.71109" lon="5.63099">
        <ele>1356</ele>
        <time>2013-09-14T09:33:33.000Z</time>
      </trkpt>
      <trkpt lat="44.71114" lon="5.63101">
        <ele>1355</ele>
        <time>2013-09-14T09:33:34.000Z</time>
      </trkpt>
      <trkpt lat="44.71117" lon="5.63105">
        <ele>1353</ele>
        <time>2013-09-14T09:33:35.000Z</time>
      </trkpt>
      <trkpt lat="44.71121" lon="5.63107">
        <ele>1352</ele>
        <time>2013-09-14T09:33:36.000Z</time>
      </trkpt>
      <trkpt lat="44.71126" lon="5.63112">
        <ele>1350</ele>
        <time>2013-09-14T09:33:38.000Z</time>
      </trkpt>
      <trkpt lat="44.71132" lon="5.63116">
        <ele>1350</ele>
        <time>2013-09-14T09:33:40.000Z</time>
      </trkpt>
      <trkpt lat="44.71137" lon="5.63118">
        <ele>1349</ele>
        <time>2013-09-14T09:33:42.000Z</time>
      </trkpt>
      <trkpt lat="44.71143" lon="5.6312">
        <ele>1349</ele>
        <time>2013-09-14T09:33:44.000Z</time>
      </trkpt>
      <trkpt lat="44.7115" lon="5.6312">
        <ele>1349</ele>
        <time>2013-09-14T09:33:46.000Z</time>
      </trkpt>
      <trkpt lat="44.71156" lon="5.6312">
        <ele>1349</ele>
        <time>2013-09-14T09:33:48.000Z</time>
      </trkpt>
      <trkpt lat="44.7116" lon="5.63122">
        <ele>1349</ele>
        <time>2013-09-14T09:33:50.000Z</time>
      </trkpt>
      <trkpt lat="44.71165" lon="5.63124">
        <ele>1349</ele>
        <time>2013-09-14T09:33:52.000Z</time>
      </trkpt>
      <trkpt lat="44.71172" lon="5.63126">
        <ele>1349</ele>
        <time>2013-09-14T09:33:55.000Z</time>
      </trkpt>
      <trkpt lat="44.71179" lon="5.63129">
        <ele>1349</ele>
        <time>2013-09-14T09:33:58.000Z</time>
      </trkpt>
      <trkpt lat="44.71184" lon="5.63129">
        <ele>1349</ele>
        <time>2013-09-14T09:34:01.000Z</time>
      </trkpt>
      <trkpt lat="44.71184" lon="5.63129">
        <ele>1349</ele>
        <time>2013-09-14T09:34:01.000Z</time>
      </trkpt>
      <trkpt lat="44.71184" lon="5.63129">
        <ele>1349</ele>
        <time>2013-09-14T09:34:05.000Z</time>
      </trkpt>
      <trkpt lat="44.71194" lon="5.63133">
        <ele>1349</ele>
        <time>2013-09-14T09:34:06.000Z</time>
      </trkpt>
      <trkpt lat="44.71194" lon="5.63133">
        <ele>1349</ele>
        <time>2013-09-14T09:34:06.000Z</time>
      </trkpt>
      <trkpt lat="44.71194" lon="5.63133">
        <ele>1349</ele>
        <time>2013-09-14T09:34:10.000Z</time>
      </trkpt>
      <trkpt lat="44.71204" lon="5.63135">
        <ele>1349</ele>
        <time>2013-09-14T09:34:11.000Z</time>
      </trkpt>
      <trkpt lat="44.71204" lon="5.63135">
        <ele>1349</ele>
        <time>2013-09-14T09:34:11.000Z</time>
      </trkpt>
      <trkpt lat="44.71204" lon="5.63135">
        <ele>1349</ele>
        <time>2013-09-14T09:34:14.000Z</time>
      </trkpt>
      <trkpt lat="44.71213" lon="5.63137">
        <ele>1350</ele>
        <time>2013-09-14T09:34:15.000Z</time>
      </trkpt>
      <trkpt lat="44.71213" lon="5.63137">
        <ele>1350</ele>
        <time>2013-09-14T09:34:15.000Z</time>
      </trkpt>
      <trkpt lat="44.71213" lon="5.63137">
        <ele>1350</ele>
        <time>2013-09-14T09:34:17.000Z</time>
      </trkpt>
      <trkpt lat="44.71221" lon="5.63139">
        <ele>1350</ele>
        <time>2013-09-14T09:34:18.000Z</time>
      </trkpt>
      <trkpt lat="44.71226" lon="5.63142">
        <ele>1350</ele>
        <time>2013-09-14T09:34:20.000Z</time>
      </trkpt>
      <trkpt lat="44.71233" lon="5.63144">
        <ele>1350</ele>
        <time>2013-09-14T09:34:22.000Z</time>
      </trkpt>
      <trkpt lat="44.71239" lon="5.63146">
        <ele>1350</ele>
        <time>2013-09-14T09:34:24.000Z</time>
      </trkpt>
      <trkpt lat="44.71244" lon="5.63148">
        <ele>1351</ele>
        <time>2013-09-14T09:34:26.000Z</time>
      </trkpt>
      <trkpt lat="44.7125" lon="5.6315">
        <ele>1351</ele>
        <time>2013-09-14T09:34:28.000Z</time>
      </trkpt>
      <trkpt lat="44.71255" lon="5.6315">
        <ele>1351</ele>
        <time>2013-09-14T09:34:30.000Z</time>
      </trkpt>
      <trkpt lat="44.71261" lon="5.63152">
        <ele>1351</ele>
        <time>2013-09-14T09:34:32.000Z</time>
      </trkpt>
      <trkpt lat="44.71266" lon="5.63152">
        <ele>1351</ele>
        <time>2013-09-14T09:34:34.000Z</time>
      </trkpt>
      <trkpt lat="44.71272" lon="5.63152">
        <ele>1351</ele>
        <time>2013-09-14T09:34:36.000Z</time>
      </trkpt>
      <trkpt lat="44.7128" lon="5.63154">
        <ele>1351</ele>
        <time>2013-09-14T09:34:38.000Z</time>
      </trkpt>
      <trkpt lat="44.71286" lon="5.63154">
        <ele>1351</ele>
        <time>2013-09-14T09:34:40.000Z</time>
      </trkpt>
      <trkpt lat="44.71292" lon="5.63152">
        <ele>1352</ele>
        <time>2013-09-14T09:34:42.000Z</time>
      </trkpt>
      <trkpt lat="44.71298" lon="5.63152">
        <ele>1352</ele>
        <time>2013-09-14T09:34:44.000Z</time>
      </trkpt>
      <trkpt lat="44.71305" lon="5.63154">
        <ele>1352</ele>
        <time>2013-09-14T09:34:46.000Z</time>
      </trkpt>
      <trkpt lat="44.7131" lon="5.63154">
        <ele>1352</ele>
        <time>2013-09-14T09:34:48.000Z</time>
      </trkpt>
      <trkpt lat="44.71315" lon="5.63157">
        <ele>1352</ele>
        <time>2013-09-14T09:34:50.000Z</time>
      </trkpt>
      <trkpt lat="44.71323" lon="5.63157">
        <ele>1353</ele>
        <time>2013-09-14T09:34:53.000Z</time>
      </trkpt>
      <trkpt lat="44.71327" lon="5.63159">
        <ele>1353</ele>
        <time>2013-09-14T09:34:55.000Z</time>
      </trkpt>
      <trkpt lat="44.71332" lon="5.63161">
        <ele>1353</ele>
        <time>2013-09-14T09:34:57.000Z</time>
      </trkpt>
      <trkpt lat="44.7134" lon="5.63163">
        <ele>1355</ele>
        <time>2013-09-14T09:34:59.000Z</time>
      </trkpt>
      <trkpt lat="44.7135" lon="5.63163">
        <ele>1357</ele>
        <time>2013-09-14T09:35:01.000Z</time>
      </trkpt>
      <trkpt lat="44.71358" lon="5.63163">
        <ele>1358</ele>
        <time>2013-09-14T09:35:03.000Z</time>
      </trkpt>
      <trkpt lat="44.71366" lon="5.63165">
        <ele>1358</ele>
        <time>2013-09-14T09:35:05.000Z</time>
      </trkpt>
      <trkpt lat="44.71373" lon="5.63167">
        <ele>1358</ele>
        <time>2013-09-14T09:35:07.000Z</time>
      </trkpt>
      <trkpt lat="44.7138" lon="5.63169">
        <ele>1358</ele>
        <time>2013-09-14T09:35:09.000Z</time>
      </trkpt>
      <trkpt lat="44.71386" lon="5.63172">
        <ele>1358</ele>
        <time>2013-09-14T09:35:11.000Z</time>
      </trkpt>
      <trkpt lat="44.7139" lon="5.63174">
        <ele>1358</ele>
        <time>2013-09-14T09:35:13.000Z</time>
      </trkpt>
      <trkpt lat="44.71395" lon="5.63178">
        <ele>1358</ele>
        <time>2013-09-14T09:35:15.000Z</time>
      </trkpt>
      <trkpt lat="44.71401" lon="5.63178">
        <ele>1358</ele>
        <time>2013-09-14T09:35:18.000Z</time>
      </trkpt>
      <trkpt lat="44.71406" lon="5.63182">
        <ele>1358</ele>
        <time>2013-09-14T09:35:20.000Z</time>
      </trkpt>
      <trkpt lat="44.71411" lon="5.63182">
        <ele>1359</ele>
        <time>2013-09-14T09:35:22.000Z</time>
      </trkpt>
      <trkpt lat="44.71415" lon="5.63184">
        <ele>1359</ele>
        <time>2013-09-14T09:35:24.000Z</time>
      </trkpt>
      <trkpt lat="44.7142" lon="5.63187">
        <ele>1359</ele>
        <time>2013-09-14T09:35:26.000Z</time>
      </trkpt>
      <trkpt lat="44.71425" lon="5.63189">
        <ele>1359</ele>
        <time>2013-09-14T09:35:28.000Z</time>
      </trkpt>
      <trkpt lat="44.71429" lon="5.63191">
        <ele>1359</ele>
        <time>2013-09-14T09:35:30.000Z</time>
      </trkpt>
      <trkpt lat="44.71433" lon="5.63193">
        <ele>1359</ele>
        <time>2013-09-14T09:35:32.000Z</time>
      </trkpt>
      <trkpt lat="44.71433" lon="5.63193">
        <ele>1359</ele>
        <time>2013-09-14T09:35:32.000Z</time>
      </trkpt>
      <trkpt lat="44.71433" lon="5.63193">
        <ele>1359</ele>
        <time>2013-09-14T09:35:34.000Z</time>
      </trkpt>
      <trkpt lat="44.7144" lon="5.63195">
        <ele>1360</ele>
        <time>2013-09-14T09:35:35.000Z</time>
      </trkpt>
      <trkpt lat="44.7144" lon="5.63195">
        <ele>1360</ele>
        <time>2013-09-14T09:35:35.000Z</time>
      </trkpt>
      <trkpt lat="44.7144" lon="5.63195">
        <ele>1360</ele>
        <time>2013-09-14T09:35:38.000Z</time>
      </trkpt>
      <trkpt lat="44.71448" lon="5.63197">
        <ele>1360</ele>
        <time>2013-09-14T09:35:39.000Z</time>
      </trkpt>
      <trkpt lat="44.71448" lon="5.63197">
        <ele>1360</ele>
        <time>2013-09-14T09:35:39.000Z</time>
      </trkpt>
      <trkpt lat="44.71448" lon="5.63197">
        <ele>1360</ele>
        <time>2013-09-14T09:35:44.000Z</time>
      </trkpt>
      <trkpt lat="44.71456" lon="5.632">
        <ele>1361</ele>
        <time>2013-09-14T09:35:45.000Z</time>
      </trkpt>
      <trkpt lat="44.71456" lon="5.632">
        <ele>1361</ele>
        <time>2013-09-14T09:35:45.000Z</time>
      </trkpt>
      <trkpt lat="44.71456" lon="5.632">
        <ele>1361</ele>
        <time>2013-09-14T09:35:48.000Z</time>
      </trkpt>
      <trkpt lat="44.7146" lon="5.63204">
        <ele>1361</ele>
        <time>2013-09-14T09:35:49.000Z</time>
      </trkpt>
      <trkpt lat="44.7146" lon="5.63204">
        <ele>1361</ele>
        <time>2013-09-14T09:35:49.000Z</time>
      </trkpt>
      <trkpt lat="44.7146" lon="5.63204">
        <ele>1361</ele>
        <time>2013-09-14T09:35:52.000Z</time>
      </trkpt>
      <trkpt lat="44.71464" lon="5.63206">
        <ele>1361</ele>
        <time>2013-09-14T09:35:53.000Z</time>
      </trkpt>
      <trkpt lat="44.71464" lon="5.63206">
        <ele>1361</ele>
        <time>2013-09-14T09:35:53.000Z</time>
      </trkpt>
      <trkpt lat="44.71464" lon="5.63206">
        <ele>1361</ele>
        <time>2013-09-14T09:35:57.000Z</time>
      </trkpt>
      <trkpt lat="44.71469" lon="5.6321">
        <ele>1362</ele>
        <time>2013-09-14T09:35:58.000Z</time>
      </trkpt>
      <trkpt lat="44.71469" lon="5.6321">
        <ele>1362</ele>
        <time>2013-09-14T09:35:58.000Z</time>
      </trkpt>
      <trkpt lat="44.71469" lon="5.6321">
        <ele>1362</ele>
        <time>2013-09-14T09:36:02.000Z</time>
      </trkpt>
      <trkpt lat="44.71474" lon="5.63212">
        <ele>1362</ele>
        <time>2013-09-14T09:36:03.000Z</time>
      </trkpt>
      <trkpt lat="44.71474" lon="5.63212">
        <ele>1362</ele>
        <time>2013-09-14T09:36:03.000Z</time>
      </trkpt>
      <trkpt lat="44.71474" lon="5.63212">
        <ele>1362</ele>
        <time>2013-09-14T09:36:06.000Z</time>
      </trkpt>
      <trkpt lat="44.7148" lon="5.63214">
        <ele>1362</ele>
        <time>2013-09-14T09:36:07.000Z</time>
      </trkpt>
      <trkpt lat="44.7148" lon="5.63214">
        <ele>1362</ele>
        <time>2013-09-14T09:36:07.000Z</time>
      </trkpt>
      <trkpt lat="44.7148" lon="5.63214">
        <ele>1362</ele>
        <time>2013-09-14T09:36:10.000Z</time>
      </trkpt>
      <trkpt lat="44.71487" lon="5.63221">
        <ele>1363</ele>
        <time>2013-09-14T09:36:15.000Z</time>
      </trkpt>
      <trkpt lat="44.71487" lon="5.63221">
        <ele>1363</ele>
        <time>2013-09-14T09:36:15.000Z</time>
      </trkpt>
      <trkpt lat="44.71487" lon="5.63221">
        <ele>1363</ele>
        <time>2013-09-14T09:38:02.000Z</time>
      </trkpt>
      <trkpt lat="44.71491" lon="5.63223">
        <ele>1363</ele>
        <time>2013-09-14T09:38:07.000Z</time>
      </trkpt>
      <trkpt lat="44.71496" lon="5.63225">
        <ele>1363</ele>
        <time>2013-09-14T09:38:17.000Z</time>
      </trkpt>
      <trkpt lat="44.71496" lon="5.63225">
        <ele>1363</ele>
        <time>2013-09-14T09:38:17.000Z</time>
      </trkpt>
      <trkpt lat="44.71496" lon="5.63225">
        <ele>1363</ele>
        <time>2013-09-14T09:38:18.000Z</time>
      </trkpt>
      <trkpt lat="44.71501" lon="5.63225">
        <ele>1363</ele>
        <time>2013-09-14T09:38:32.000Z</time>
      </trkpt>
      <trkpt lat="44.71501" lon="5.63225">
        <ele>1363</ele>
        <time>2013-09-14T09:38:32.000Z</time>
      </trkpt>
      <trkpt lat="44.71501" lon="5.63225">
        <ele>1363</ele>
        <time>2013-09-14T09:38:35.000Z</time>
      </trkpt>
      <trkpt lat="44.71505" lon="5.63227">
        <ele>1362</ele>
        <time>2013-09-14T09:38:47.000Z</time>
      </trkpt>
      <trkpt lat="44.71505" lon="5.63227">
        <ele>1362</ele>
        <time>2013-09-14T09:38:47.000Z</time>
      </trkpt>
      <trkpt lat="44.71505" lon="5.63227">
        <ele>1362</ele>
        <time>2013-09-14T09:38:49.000Z</time>
      </trkpt>
      <trkpt lat="44.7151" lon="5.63225">
        <ele>1362</ele>
        <time>2013-09-14T09:39:14.000Z</time>
      </trkpt>
      <trkpt lat="44.7151" lon="5.63225">
        <ele>1362</ele>
        <time>2013-09-14T09:39:14.000Z</time>
      </trkpt>
      <trkpt lat="44.7151" lon="5.63225">
        <ele>1362</ele>
        <time>2013-09-14T09:39:17.000Z</time>
      </trkpt>
      <trkpt lat="44.71512" lon="5.63219">
        <ele>1361</ele>
        <time>2013-09-14T09:39:43.000Z</time>
      </trkpt>
      <trkpt lat="44.71512" lon="5.63219">
        <ele>1361</ele>
        <time>2013-09-14T09:39:43.000Z</time>
      </trkpt>
      <trkpt lat="44.71512" lon="5.63219">
        <ele>1361</ele>
        <time>2013-09-14T09:39:49.000Z</time>
      </trkpt>
      <trkpt lat="44.71516" lon="5.63214">
        <ele>1361</ele>
        <time>2013-09-14T09:40:16.000Z</time>
      </trkpt>
      <trkpt lat="44.71516" lon="5.63214">
        <ele>1361</ele>
        <time>2013-09-14T09:40:16.000Z</time>
      </trkpt>
      <trkpt lat="44.71516" lon="5.63214">
        <ele>1361</ele>
        <time>2013-09-14T09:40:23.000Z</time>
      </trkpt>
      <trkpt lat="44.7152" lon="5.63206">
        <ele>1361</ele>
        <time>2013-09-14T09:40:28.000Z</time>
      </trkpt>
      <trkpt lat="44.71524" lon="5.63197">
        <ele>1360</ele>
        <time>2013-09-14T09:40:30.000Z</time>
      </trkpt>
      <trkpt lat="44.71524" lon="5.63191">
        <ele>1360</ele>
        <time>2013-09-14T09:40:31.000Z</time>
      </trkpt>
      <trkpt lat="44.71527" lon="5.63184">
        <ele>1360</ele>
        <time>2013-09-14T09:40:32.000Z</time>
      </trkpt>
      <trkpt lat="44.71528" lon="5.63178">
        <ele>1360</ele>
        <time>2013-09-14T09:40:33.000Z</time>
      </trkpt>
      <trkpt lat="44.71528" lon="5.63172">
        <ele>1360</ele>
        <time>2013-09-14T09:40:34.000Z</time>
      </trkpt>
      <trkpt lat="44.71528" lon="5.63165">
        <ele>1360</ele>
        <time>2013-09-14T09:40:35.000Z</time>
      </trkpt>
      <trkpt lat="44.71528" lon="5.63154">
        <ele>1360</ele>
        <time>2013-09-14T09:40:37.000Z</time>
      </trkpt>
      <trkpt lat="44.71527" lon="5.63148">
        <ele>1360</ele>
        <time>2013-09-14T09:40:39.000Z</time>
      </trkpt>
      <trkpt lat="44.71526" lon="5.63142">
        <ele>1360</ele>
        <time>2013-09-14T09:40:41.000Z</time>
      </trkpt>
      <trkpt lat="44.71524" lon="5.63133">
        <ele>1359</ele>
        <time>2013-09-14T09:40:44.000Z</time>
      </trkpt>
      <trkpt lat="44.71522" lon="5.63126">
        <ele>1359</ele>
        <time>2013-09-14T09:40:47.000Z</time>
      </trkpt>
      <trkpt lat="44.71522" lon="5.6312">
        <ele>1359</ele>
        <time>2013-09-14T09:40:50.000Z</time>
      </trkpt>
      <trkpt lat="44.71522" lon="5.6312">
        <ele>1359</ele>
        <time>2013-09-14T09:40:50.000Z</time>
      </trkpt>
      <trkpt lat="44.71522" lon="5.6312">
        <ele>1359</ele>
        <time>2013-09-14T09:40:51.000Z</time>
      </trkpt>
      <trkpt lat="44.71518" lon="5.63122">
        <ele>1359</ele>
        <time>2013-09-14T09:40:55.000Z</time>
      </trkpt>
      <trkpt lat="44.71518" lon="5.63122">
        <ele>1359</ele>
        <time>2013-09-14T09:40:55.000Z</time>
      </trkpt>
      <trkpt lat="44.71518" lon="5.63122">
        <ele>1359</ele>
        <time>2013-09-14T09:40:57.000Z</time>
      </trkpt>
      <trkpt lat="44.71516" lon="5.63116">
        <ele>1359</ele>
        <time>2013-09-14T09:41:02.000Z</time>
      </trkpt>
      <trkpt lat="44.71513" lon="5.63109">
        <ele>1360</ele>
        <time>2013-09-14T09:41:09.000Z</time>
      </trkpt>
      <trkpt lat="44.71511" lon="5.63103">
        <ele>1360</ele>
        <time>2013-09-14T09:41:15.000Z</time>
      </trkpt>
      <trkpt lat="44.71511" lon="5.63103">
        <ele>1360</ele>
        <time>2013-09-14T09:41:15.000Z</time>
      </trkpt>
      <trkpt lat="44.71511" lon="5.63103">
        <ele>1360</ele>
        <time>2013-09-14T09:41:16.000Z</time>
      </trkpt>
      <trkpt lat="44.71511" lon="5.63096">
        <ele>1360</ele>
        <time>2013-09-14T09:41:19.000Z</time>
      </trkpt>
      <trkpt lat="44.71511" lon="5.63096">
        <ele>1360</ele>
        <time>2013-09-14T09:41:19.000Z</time>
      </trkpt>
      <trkpt lat="44.71511" lon="5.63096">
        <ele>1360</ele>
        <time>2013-09-14T09:41:20.000Z</time>
      </trkpt>
      <trkpt lat="44.71507" lon="5.6309">
        <ele>1360</ele>
        <time>2013-09-14T09:41:40.000Z</time>
      </trkpt>
      <trkpt lat="44.71507" lon="5.6309">
        <ele>1360</ele>
        <time>2013-09-14T09:41:40.000Z</time>
      </trkpt>
      <trkpt lat="44.71507" lon="5.6309">
        <ele>1360</ele>
        <time>2013-09-14T09:41:41.000Z</time>
      </trkpt>
      <trkpt lat="44.71508" lon="5.63084">
        <ele>1360</ele>
        <time>2013-09-14T09:41:48.000Z</time>
      </trkpt>
      <trkpt lat="44.71507" lon="5.63077">
        <ele>1360</ele>
        <time>2013-09-14T09:41:54.000Z</time>
      </trkpt>
      <trkpt lat="44.71508" lon="5.63069">
        <ele>1360</ele>
        <time>2013-09-14T09:41:57.000Z</time>
      </trkpt>
      <trkpt lat="44.71508" lon="5.6306">
        <ele>1360</ele>
        <time>2013-09-14T09:42:00.000Z</time>
      </trkpt>
      <trkpt lat="44.71508" lon="5.63051">
        <ele>1360</ele>
        <time>2013-09-14T09:42:03.000Z</time>
      </trkpt>
      <trkpt lat="44.71506" lon="5.63045">
        <ele>1360</ele>
        <time>2013-09-14T09:42:07.000Z</time>
      </trkpt>
      <trkpt lat="44.71505" lon="5.63038">
        <ele>1360</ele>
        <time>2013-09-14T09:42:10.000Z</time>
      </trkpt>
      <trkpt lat="44.71503" lon="5.63032">
        <ele>1360</ele>
        <time>2013-09-14T09:42:14.000Z</time>
      </trkpt>
      <trkpt lat="44.71501" lon="5.63026">
        <ele>1361</ele>
        <time>2013-09-14T09:42:18.000Z</time>
      </trkpt>
      <trkpt lat="44.71501" lon="5.63026">
        <ele>1361</ele>
        <time>2013-09-14T09:42:18.000Z</time>
      </trkpt>
      <trkpt lat="44.71501" lon="5.63026">
        <ele>1361</ele>
        <time>2013-09-14T09:42:19.000Z</time>
      </trkpt>
      <trkpt lat="44.71499" lon="5.63019">
        <ele>1361</ele>
        <time>2013-09-14T09:42:28.000Z</time>
      </trkpt>
      <trkpt lat="44.71493" lon="5.63017">
        <ele>1364</ele>
        <time>2013-09-14T09:42:57.000Z</time>
      </trkpt>
      <trkpt lat="44.71493" lon="5.63017">
        <ele>1364</ele>
        <time>2013-09-14T09:42:57.000Z</time>
      </trkpt>
      <trkpt lat="44.71493" lon="5.63017">
        <ele>1364</ele>
        <time>2013-09-14T09:43:00.000Z</time>
      </trkpt>
      <trkpt lat="44.71492" lon="5.63011">
        <ele>1365</ele>
        <time>2013-09-14T09:43:05.000Z</time>
      </trkpt>
      <trkpt lat="44.71491" lon="5.63004">
        <ele>1365</ele>
        <time>2013-09-14T09:43:10.000Z</time>
      </trkpt>
      <trkpt lat="44.71491" lon="5.62998">
        <ele>1366</ele>
        <time>2013-09-14T09:43:13.000Z</time>
      </trkpt>
      <trkpt lat="44.71491" lon="5.62991">
        <ele>1366</ele>
        <time>2013-09-14T09:43:16.000Z</time>
      </trkpt>
      <trkpt lat="44.7149" lon="5.62985">
        <ele>1366</ele>
        <time>2013-09-14T09:43:19.000Z</time>
      </trkpt>
      <trkpt lat="44.71489" lon="5.62976">
        <ele>1366</ele>
        <time>2013-09-14T09:43:22.000Z</time>
      </trkpt>
      <trkpt lat="44.71487" lon="5.62968">
        <ele>1367</ele>
        <time>2013-09-14T09:43:25.000Z</time>
      </trkpt>
      <trkpt lat="44.71486" lon="5.62959">
        <ele>1367</ele>
        <time>2013-09-14T09:43:28.000Z</time>
      </trkpt>
      <trkpt lat="44.71485" lon="5.62953">
        <ele>1367</ele>
        <time>2013-09-14T09:43:31.000Z</time>
      </trkpt>
      <trkpt lat="44.71484" lon="5.62946">
        <ele>1367</ele>
        <time>2013-09-14T09:43:33.000Z</time>
      </trkpt>
      <trkpt lat="44.71482" lon="5.6294">
        <ele>1367</ele>
        <time>2013-09-14T09:43:36.000Z</time>
      </trkpt>
      <trkpt lat="44.71482" lon="5.62933">
        <ele>1368</ele>
        <time>2013-09-14T09:43:38.000Z</time>
      </trkpt>
      <trkpt lat="44.7148" lon="5.62927">
        <ele>1368</ele>
        <time>2013-09-14T09:43:41.000Z</time>
      </trkpt>
      <trkpt lat="44.71477" lon="5.6292">
        <ele>1368</ele>
        <time>2013-09-14T09:43:44.000Z</time>
      </trkpt>
      <trkpt lat="44.71476" lon="5.62914">
        <ele>1368</ele>
        <time>2013-09-14T09:43:46.000Z</time>
      </trkpt>
      <trkpt lat="44.71474" lon="5.62908">
        <ele>1369</ele>
        <time>2013-09-14T09:43:49.000Z</time>
      </trkpt>
      <trkpt lat="44.71473" lon="5.62901">
        <ele>1369</ele>
        <time>2013-09-14T09:43:52.000Z</time>
      </trkpt>
      <trkpt lat="44.71472" lon="5.62895">
        <ele>1369</ele>
        <time>2013-09-14T09:43:55.000Z</time>
      </trkpt>
      <trkpt lat="44.7147" lon="5.62888">
        <ele>1369</ele>
        <time>2013-09-14T09:43:58.000Z</time>
      </trkpt>
      <trkpt lat="44.71469" lon="5.62882">
        <ele>1370</ele>
        <time>2013-09-14T09:44:01.000Z</time>
      </trkpt>
      <trkpt lat="44.71468" lon="5.62876">
        <ele>1370</ele>
        <time>2013-09-14T09:44:04.000Z</time>
      </trkpt>
      <trkpt lat="44.71466" lon="5.62869">
        <ele>1370</ele>
        <time>2013-09-14T09:44:07.000Z</time>
      </trkpt>
      <trkpt lat="44.71462" lon="5.62863">
        <ele>1370</ele>
        <time>2013-09-14T09:44:11.000Z</time>
      </trkpt>
      <trkpt lat="44.7146" lon="5.62856">
        <ele>1370</ele>
        <time>2013-09-14T09:44:14.000Z</time>
      </trkpt>
      <trkpt lat="44.71458" lon="5.6285">
        <ele>1371</ele>
        <time>2013-09-14T09:44:17.000Z</time>
      </trkpt>
      <trkpt lat="44.71457" lon="5.62843">
        <ele>1371</ele>
        <time>2013-09-14T09:44:20.000Z</time>
      </trkpt>
      <trkpt lat="44.71454" lon="5.62837">
        <ele>1371</ele>
        <time>2013-09-14T09:44:24.000Z</time>
      </trkpt>
      <trkpt lat="44.71453" lon="5.6283">
        <ele>1371</ele>
        <time>2013-09-14T09:44:27.000Z</time>
      </trkpt>
      <trkpt lat="44.7145" lon="5.62824">
        <ele>1371</ele>
        <time>2013-09-14T09:44:30.000Z</time>
      </trkpt>
      <trkpt lat="44.71448" lon="5.62818">
        <ele>1371</ele>
        <time>2013-09-14T09:44:33.000Z</time>
      </trkpt>
      <trkpt lat="44.71447" lon="5.62811">
        <ele>1372</ele>
        <time>2013-09-14T09:44:36.000Z</time>
      </trkpt>
      <trkpt lat="44.71445" lon="5.62802">
        <ele>1372</ele>
        <time>2013-09-14T09:44:39.000Z</time>
      </trkpt>
      <trkpt lat="44.71445" lon="5.62794">
        <ele>1372</ele>
        <time>2013-09-14T09:44:42.000Z</time>
      </trkpt>
      <trkpt lat="44.71444" lon="5.62785">
        <ele>1372</ele>
        <time>2013-09-14T09:44:45.000Z</time>
      </trkpt>
      <trkpt lat="44.71444" lon="5.62779">
        <ele>1372</ele>
        <time>2013-09-14T09:44:47.000Z</time>
      </trkpt>
      <trkpt lat="44.71444" lon="5.62772">
        <ele>1373</ele>
        <time>2013-09-14T09:44:49.000Z</time>
      </trkpt>
      <trkpt lat="44.71443" lon="5.62766">
        <ele>1373</ele>
        <time>2013-09-14T09:44:51.000Z</time>
      </trkpt>
      <trkpt lat="44.71443" lon="5.6276">
        <ele>1373</ele>
        <time>2013-09-14T09:44:53.000Z</time>
      </trkpt>
      <trkpt lat="44.71442" lon="5.62753">
        <ele>1373</ele>
        <time>2013-09-14T09:44:55.000Z</time>
      </trkpt>
      <trkpt lat="44.71442" lon="5.62745">
        <ele>1373</ele>
        <time>2013-09-14T09:44:57.000Z</time>
      </trkpt>
      <trkpt lat="44.71441" lon="5.62738">
        <ele>1374</ele>
        <time>2013-09-14T09:44:59.000Z</time>
      </trkpt>
      <trkpt lat="44.7144" lon="5.62732">
        <ele>1374</ele>
        <time>2013-09-14T09:45:01.000Z</time>
      </trkpt>
      <trkpt lat="44.71439" lon="5.62723">
        <ele>1374</ele>
        <time>2013-09-14T09:45:03.000Z</time>
      </trkpt>
      <trkpt lat="44.71438" lon="5.62717">
        <ele>1374</ele>
        <time>2013-09-14T09:45:05.000Z</time>
      </trkpt>
      <trkpt lat="44.71437" lon="5.6271">
        <ele>1375</ele>
        <time>2013-09-14T09:45:07.000Z</time>
      </trkpt>
      <trkpt lat="44.71436" lon="5.62702">
        <ele>1375</ele>
        <time>2013-09-14T09:45:09.000Z</time>
      </trkpt>
      <trkpt lat="44.71434" lon="5.62693">
        <ele>1375</ele>
        <time>2013-09-14T09:45:12.000Z</time>
      </trkpt>
      <trkpt lat="44.71434" lon="5.62684">
        <ele>1375</ele>
        <time>2013-09-14T09:45:14.000Z</time>
      </trkpt>
      <trkpt lat="44.71434" lon="5.62678">
        <ele>1375</ele>
        <time>2013-09-14T09:45:16.000Z</time>
      </trkpt>
      <trkpt lat="44.71434" lon="5.62672">
        <ele>1375</ele>
        <time>2013-09-14T09:45:19.000Z</time>
      </trkpt>
      <trkpt lat="44.71436" lon="5.62665">
        <ele>1376</ele>
        <time>2013-09-14T09:45:21.000Z</time>
      </trkpt>
      <trkpt lat="44.71434" lon="5.62657">
        <ele>1376</ele>
        <time>2013-09-14T09:45:23.000Z</time>
      </trkpt>
      <trkpt lat="44.71434" lon="5.62648">
        <ele>1376</ele>
        <time>2013-09-14T09:45:25.000Z</time>
      </trkpt>
      <trkpt lat="44.71434" lon="5.62642">
        <ele>1376</ele>
        <time>2013-09-14T09:45:27.000Z</time>
      </trkpt>
      <trkpt lat="44.71434" lon="5.62635">
        <ele>1376</ele>
        <time>2013-09-14T09:45:29.000Z</time>
      </trkpt>
      <trkpt lat="44.71436" lon="5.62629">
        <ele>1376</ele>
        <time>2013-09-14T09:45:33.000Z</time>
      </trkpt>
      <trkpt lat="44.71438" lon="5.62622">
        <ele>1376</ele>
        <time>2013-09-14T09:45:38.000Z</time>
      </trkpt>
      <trkpt lat="44.71438" lon="5.62622">
        <ele>1376</ele>
        <time>2013-09-14T09:45:38.000Z</time>
      </trkpt>
      <trkpt lat="44.71438" lon="5.62622">
        <ele>1376</ele>
        <time>2013-09-14T09:45:39.000Z</time>
      </trkpt>
      <trkpt lat="44.71442" lon="5.6262">
        <ele>1377</ele>
        <time>2013-09-14T09:45:48.000Z</time>
      </trkpt>
      <trkpt lat="44.71442" lon="5.6262">
        <ele>1377</ele>
        <time>2013-09-14T09:45:48.000Z</time>
      </trkpt>
      <trkpt lat="44.71442" lon="5.6262">
        <ele>1377</ele>
        <time>2013-09-14T09:45:49.000Z</time>
      </trkpt>
      <trkpt lat="44.71446" lon="5.62614">
        <ele>1378</ele>
        <time>2013-09-14T09:46:10.000Z</time>
      </trkpt>
      <trkpt lat="44.71448" lon="5.62605">
        <ele>1378</ele>
        <time>2013-09-14T09:46:12.000Z</time>
      </trkpt>
      <trkpt lat="44.7145" lon="5.62596">
        <ele>1378</ele>
        <time>2013-09-14T09:46:14.000Z</time>
      </trkpt>
      <trkpt lat="44.71452" lon="5.6259">
        <ele>1378</ele>
        <time>2013-09-14T09:46:15.000Z</time>
      </trkpt>
      <trkpt lat="44.71452" lon="5.62584">
        <ele>1378</ele>
        <time>2013-09-14T09:46:16.000Z</time>
      </trkpt>
      <trkpt lat="44.7145" lon="5.62577">
        <ele>1378</ele>
        <time>2013-09-14T09:46:17.000Z</time>
      </trkpt>
      <trkpt lat="44.7145" lon="5.62571">
        <ele>1378</ele>
        <time>2013-09-14T09:46:18.000Z</time>
      </trkpt>
      <trkpt lat="44.71449" lon="5.62564">
        <ele>1378</ele>
        <time>2013-09-14T09:46:19.000Z</time>
      </trkpt>
      <trkpt lat="44.71448" lon="5.62558">
        <ele>1378</ele>
        <time>2013-09-14T09:46:20.000Z</time>
      </trkpt>
      <trkpt lat="44.71447" lon="5.62551">
        <ele>1378</ele>
        <time>2013-09-14T09:46:21.000Z</time>
      </trkpt>
      <trkpt lat="44.71444" lon="5.62541">
        <ele>1378</ele>
        <time>2013-09-14T09:46:23.000Z</time>
      </trkpt>
      <trkpt lat="44.71443" lon="5.62534">
        <ele>1378</ele>
        <time>2013-09-14T09:46:24.000Z</time>
      </trkpt>
      <trkpt lat="44.71441" lon="5.62526">
        <ele>1378</ele>
        <time>2013-09-14T09:46:26.000Z</time>
      </trkpt>
      <trkpt lat="44.71439" lon="5.62517">
        <ele>1379</ele>
        <time>2013-09-14T09:46:28.000Z</time>
      </trkpt>
      <trkpt lat="44.71437" lon="5.62508">
        <ele>1379</ele>
        <time>2013-09-14T09:46:30.000Z</time>
      </trkpt>
      <trkpt lat="44.71434" lon="5.625">
        <ele>1379</ele>
        <time>2013-09-14T09:46:32.000Z</time>
      </trkpt>
      <trkpt lat="44.71433" lon="5.62491">
        <ele>1379</ele>
        <time>2013-09-14T09:46:34.000Z</time>
      </trkpt>
      <trkpt lat="44.71432" lon="5.62485">
        <ele>1379</ele>
        <time>2013-09-14T09:46:36.000Z</time>
      </trkpt>
      <trkpt lat="44.7143" lon="5.62476">
        <ele>1379</ele>
        <time>2013-09-14T09:46:39.000Z</time>
      </trkpt>
      <trkpt lat="44.71428" lon="5.6247">
        <ele>1379</ele>
        <time>2013-09-14T09:46:42.000Z</time>
      </trkpt>
      <trkpt lat="44.71427" lon="5.62464">
        <ele>1380</ele>
        <time>2013-09-14T09:46:44.000Z</time>
      </trkpt>
      <trkpt lat="44.71425" lon="5.62457">
        <ele>1380</ele>
        <time>2013-09-14T09:46:47.000Z</time>
      </trkpt>
      <trkpt lat="44.71424" lon="5.62451">
        <ele>1380</ele>
        <time>2013-09-14T09:46:49.000Z</time>
      </trkpt>
      <trkpt lat="44.71422" lon="5.62444">
        <ele>1381</ele>
        <time>2013-09-14T09:47:05.000Z</time>
      </trkpt>
      <trkpt lat="44.71422" lon="5.62444">
        <ele>1381</ele>
        <time>2013-09-14T09:47:05.000Z</time>
      </trkpt>
      <trkpt lat="44.71422" lon="5.62444">
        <ele>1381</ele>
        <time>2013-09-14T09:47:06.000Z</time>
      </trkpt>
      <trkpt lat="44.71423" lon="5.62438">
        <ele>1381</ele>
        <time>2013-09-14T09:47:10.000Z</time>
      </trkpt>
      <trkpt lat="44.71424" lon="5.62431">
        <ele>1382</ele>
        <time>2013-09-14T09:47:12.000Z</time>
      </trkpt>
      <trkpt lat="44.71425" lon="5.62425">
        <ele>1382</ele>
        <time>2013-09-14T09:47:13.000Z</time>
      </trkpt>
      <trkpt lat="44.71426" lon="5.62414">
        <ele>1382</ele>
        <time>2013-09-14T09:47:15.000Z</time>
      </trkpt>
      <trkpt lat="44.71426" lon="5.62408">
        <ele>1382</ele>
        <time>2013-09-14T09:47:16.000Z</time>
      </trkpt>
      <trkpt lat="44.71427" lon="5.62399">
        <ele>1382</ele>
        <time>2013-09-14T09:47:17.000Z</time>
      </trkpt>
      <trkpt lat="44.71428" lon="5.6239">
        <ele>1382</ele>
        <time>2013-09-14T09:47:18.000Z</time>
      </trkpt>
      <trkpt lat="44.71428" lon="5.62382">
        <ele>1382</ele>
        <time>2013-09-14T09:47:19.000Z</time>
      </trkpt>
      <trkpt lat="44.71429" lon="5.62373">
        <ele>1382</ele>
        <time>2013-09-14T09:47:20.000Z</time>
      </trkpt>
      <trkpt lat="44.71429" lon="5.62367">
        <ele>1382</ele>
        <time>2013-09-14T09:47:21.000Z</time>
      </trkpt>
      <trkpt lat="44.71429" lon="5.62358">
        <ele>1383</ele>
        <time>2013-09-14T09:47:22.000Z</time>
      </trkpt>
      <trkpt lat="44.71429" lon="5.62352">
        <ele>1383</ele>
        <time>2013-09-14T09:47:23.000Z</time>
      </trkpt>
      <trkpt lat="44.71429" lon="5.62343">
        <ele>1383</ele>
        <time>2013-09-14T09:47:24.000Z</time>
      </trkpt>
      <trkpt lat="44.71429" lon="5.62337">
        <ele>1383</ele>
        <time>2013-09-14T09:47:25.000Z</time>
      </trkpt>
      <trkpt lat="44.71429" lon="5.6233">
        <ele>1383</ele>
        <time>2013-09-14T09:47:26.000Z</time>
      </trkpt>
      <trkpt lat="44.71429" lon="5.62324">
        <ele>1384</ele>
        <time>2013-09-14T09:47:27.000Z</time>
      </trkpt>
      <trkpt lat="44.71429" lon="5.62318">
        <ele>1384</ele>
        <time>2013-09-14T09:47:28.000Z</time>
      </trkpt>
      <trkpt lat="44.71429" lon="5.62311">
        <ele>1384</ele>
        <time>2013-09-14T09:47:29.000Z</time>
      </trkpt>
      <trkpt lat="44.71429" lon="5.62305">
        <ele>1384</ele>
        <time>2013-09-14T09:47:30.000Z</time>
      </trkpt>
      <trkpt lat="44.71429" lon="5.62294">
        <ele>1385</ele>
        <time>2013-09-14T09:47:32.000Z</time>
      </trkpt>
      <trkpt lat="44.71429" lon="5.62288">
        <ele>1385</ele>
        <time>2013-09-14T09:47:33.000Z</time>
      </trkpt>
      <trkpt lat="44.71429" lon="5.62279">
        <ele>1385</ele>
        <time>2013-09-14T09:47:35.000Z</time>
      </trkpt>
      <trkpt lat="44.71429" lon="5.62272">
        <ele>1385</ele>
        <time>2013-09-14T09:47:36.000Z</time>
      </trkpt>
      <trkpt lat="44.7143" lon="5.62262">
        <ele>1386</ele>
        <time>2013-09-14T09:47:38.000Z</time>
      </trkpt>
      <trkpt lat="44.7143" lon="5.62253">
        <ele>1386</ele>
        <time>2013-09-14T09:47:40.000Z</time>
      </trkpt>
      <trkpt lat="44.7143" lon="5.62247">
        <ele>1386</ele>
        <time>2013-09-14T09:47:41.000Z</time>
      </trkpt>
      <trkpt lat="44.71429" lon="5.62238">
        <ele>1386</ele>
        <time>2013-09-14T09:47:43.000Z</time>
      </trkpt>
      <trkpt lat="44.71429" lon="5.62232">
        <ele>1386</ele>
        <time>2013-09-14T09:47:44.000Z</time>
      </trkpt>
      <trkpt lat="44.71428" lon="5.62223">
        <ele>1386</ele>
        <time>2013-09-14T09:47:46.000Z</time>
      </trkpt>
      <trkpt lat="44.71424" lon="5.62212">
        <ele>1387</ele>
        <time>2013-09-14T09:47:48.000Z</time>
      </trkpt>
      <trkpt lat="44.7142" lon="5.62204">
        <ele>1386</ele>
        <time>2013-09-14T09:47:51.000Z</time>
      </trkpt>
      <trkpt lat="44.71419" lon="5.62197">
        <ele>1386</ele>
        <time>2013-09-14T09:47:53.000Z</time>
      </trkpt>
      <trkpt lat="44.71422" lon="5.62191">
        <ele>1386</ele>
        <time>2013-09-14T09:47:56.000Z</time>
      </trkpt>
      <trkpt lat="44.71423" lon="5.62184">
        <ele>1386</ele>
        <time>2013-09-14T09:47:59.000Z</time>
      </trkpt>
      <trkpt lat="44.71423" lon="5.62178">
        <ele>1386</ele>
        <time>2013-09-14T09:48:01.000Z</time>
      </trkpt>
      <trkpt lat="44.71423" lon="5.62172">
        <ele>1385</ele>
        <time>2013-09-14T09:48:03.000Z</time>
      </trkpt>
      <trkpt lat="44.71423" lon="5.62172">
        <ele>1385</ele>
        <time>2013-09-14T09:48:03.000Z</time>
      </trkpt>
      <trkpt lat="44.71423" lon="5.62172">
        <ele>1385</ele>
        <time>2013-09-14T09:48:04.000Z</time>
      </trkpt>
      <trkpt lat="44.71419" lon="5.62165">
        <ele>1385</ele>
        <time>2013-09-14T09:48:08.000Z</time>
      </trkpt>
      <trkpt lat="44.71415" lon="5.62161">
        <ele>1384</ele>
        <time>2013-09-14T09:48:14.000Z</time>
      </trkpt>
      <trkpt lat="44.7141" lon="5.62157">
        <ele>1384</ele>
        <time>2013-09-14T09:48:26.000Z</time>
      </trkpt>
      <trkpt lat="44.7141" lon="5.62157">
        <ele>1384</ele>
        <time>2013-09-14T09:48:26.000Z</time>
      </trkpt>
      <trkpt lat="44.7141" lon="5.62157">
        <ele>1384</ele>
        <time>2013-09-14T09:48:30.000Z</time>
      </trkpt>
      <trkpt lat="44.71408" lon="5.6215">
        <ele>1384</ele>
        <time>2013-09-14T09:48:50.000Z</time>
      </trkpt>
      <trkpt lat="44.71406" lon="5.62144">
        <ele>1383</ele>
        <time>2013-09-14T09:48:51.000Z</time>
      </trkpt>
      <trkpt lat="44.71406" lon="5.62137">
        <ele>1383</ele>
        <time>2013-09-14T09:48:52.000Z</time>
      </trkpt>
      <trkpt lat="44.71404" lon="5.62127">
        <ele>1382</ele>
        <time>2013-09-14T09:48:53.000Z</time>
      </trkpt>
      <trkpt lat="44.71404" lon="5.62118">
        <ele>1382</ele>
        <time>2013-09-14T09:48:54.000Z</time>
      </trkpt>
      <trkpt lat="44.71403" lon="5.62107">
        <ele>1381</ele>
        <time>2013-09-14T09:48:55.000Z</time>
      </trkpt>
      <trkpt lat="44.71404" lon="5.62096">
        <ele>1381</ele>
        <time>2013-09-14T09:48:56.000Z</time>
      </trkpt>
      <trkpt lat="44.71404" lon="5.62084">
        <ele>1381</ele>
        <time>2013-09-14T09:48:57.000Z</time>
      </trkpt>
      <trkpt lat="44.71403" lon="5.62073">
        <ele>1381</ele>
        <time>2013-09-14T09:48:58.000Z</time>
      </trkpt>
      <trkpt lat="44.71402" lon="5.6206">
        <ele>1381</ele>
        <time>2013-09-14T09:48:59.000Z</time>
      </trkpt>
      <trkpt lat="44.71401" lon="5.62049">
        <ele>1381</ele>
        <time>2013-09-14T09:49:00.000Z</time>
      </trkpt>
      <trkpt lat="44.71399" lon="5.62039">
        <ele>1382</ele>
        <time>2013-09-14T09:49:01.000Z</time>
      </trkpt>
      <trkpt lat="44.71397" lon="5.62026">
        <ele>1382</ele>
        <time>2013-09-14T09:49:02.000Z</time>
      </trkpt>
      <trkpt lat="44.71395" lon="5.62013">
        <ele>1382</ele>
        <time>2013-09-14T09:49:03.000Z</time>
      </trkpt>
      <trkpt lat="44.71393" lon="5.62">
        <ele>1382</ele>
        <time>2013-09-14T09:49:04.000Z</time>
      </trkpt>
      <trkpt lat="44.71393" lon="5.61991">
        <ele>1382</ele>
        <time>2013-09-14T09:49:05.000Z</time>
      </trkpt>
      <trkpt lat="44.71393" lon="5.61981">
        <ele>1382</ele>
        <time>2013-09-14T09:49:06.000Z</time>
      </trkpt>
      <trkpt lat="44.7139" lon="5.61972">
        <ele>1382</ele>
        <time>2013-09-14T09:49:07.000Z</time>
      </trkpt>
      <trkpt lat="44.71394" lon="5.61964">
        <ele>1382</ele>
        <time>2013-09-14T09:49:08.000Z</time>
      </trkpt>
      <trkpt lat="44.71397" lon="5.61955">
        <ele>1383</ele>
        <time>2013-09-14T09:49:09.000Z</time>
      </trkpt>
      <trkpt lat="44.71399" lon="5.61946">
        <ele>1383</ele>
        <time>2013-09-14T09:49:10.000Z</time>
      </trkpt>
      <trkpt lat="44.71401" lon="5.61938">
        <ele>1384</ele>
        <time>2013-09-14T09:49:11.000Z</time>
      </trkpt>
      <trkpt lat="44.71403" lon="5.61929">
        <ele>1384</ele>
        <time>2013-09-14T09:49:12.000Z</time>
      </trkpt>
      <trkpt lat="44.71406" lon="5.61923">
        <ele>1384</ele>
        <time>2013-09-14T09:49:13.000Z</time>
      </trkpt>
      <trkpt lat="44.71406" lon="5.61914">
        <ele>1384</ele>
        <time>2013-09-14T09:49:14.000Z</time>
      </trkpt>
      <trkpt lat="44.7141" lon="5.61903">
        <ele>1384</ele>
        <time>2013-09-14T09:49:16.000Z</time>
      </trkpt>
      <trkpt lat="44.71413" lon="5.61897">
        <ele>1384</ele>
        <time>2013-09-14T09:49:18.000Z</time>
      </trkpt>
      <trkpt lat="44.71422" lon="5.61891">
        <ele>1384</ele>
        <time>2013-09-14T09:49:27.000Z</time>
      </trkpt>
      <trkpt lat="44.71422" lon="5.61891">
        <ele>1384</ele>
        <time>2013-09-14T09:49:27.000Z</time>
      </trkpt>
      <trkpt lat="44.71422" lon="5.61891">
        <ele>1384</ele>
        <time>2013-09-14T09:49:39.000Z</time>
      </trkpt>
      <trkpt lat="44.71426" lon="5.61888">
        <ele>1384</ele>
        <time>2013-09-14T09:49:40.000Z</time>
      </trkpt>
      <trkpt lat="44.71426" lon="5.61888">
        <ele>1384</ele>
        <time>2013-09-14T09:49:40.000Z</time>
      </trkpt>
      <trkpt lat="44.71426" lon="5.61888">
        <ele>1384</ele>
        <time>2013-09-14T09:49:43.000Z</time>
      </trkpt>
      <trkpt lat="44.71436" lon="5.61884">
        <ele>1383</ele>
        <time>2013-09-14T09:49:44.000Z</time>
      </trkpt>
      <trkpt lat="44.71441" lon="5.61882">
        <ele>1383</ele>
        <time>2013-09-14T09:49:46.000Z</time>
      </trkpt>
      <trkpt lat="44.71445" lon="5.6188">
        <ele>1383</ele>
        <time>2013-09-14T09:49:48.000Z</time>
      </trkpt>
      <trkpt lat="44.71445" lon="5.6188">
        <ele>1383</ele>
        <time>2013-09-14T09:49:48.000Z</time>
      </trkpt>
      <trkpt lat="44.71445" lon="5.6188">
        <ele>1383</ele>
        <time>2013-09-14T09:49:52.000Z</time>
      </trkpt>
      <trkpt lat="44.71455" lon="5.6188">
        <ele>1383</ele>
        <time>2013-09-14T09:49:53.000Z</time>
      </trkpt>
      <trkpt lat="44.71455" lon="5.6188">
        <ele>1383</ele>
        <time>2013-09-14T09:49:53.000Z</time>
      </trkpt>
      <trkpt lat="44.71455" lon="5.6188">
        <ele>1383</ele>
        <time>2013-09-14T09:49:57.000Z</time>
      </trkpt>
      <trkpt lat="44.71463" lon="5.61884">
        <ele>1383</ele>
        <time>2013-09-14T09:49:58.000Z</time>
      </trkpt>
      <trkpt lat="44.71463" lon="5.61884">
        <ele>1383</ele>
        <time>2013-09-14T09:49:58.000Z</time>
      </trkpt>
      <trkpt lat="44.71463" lon="5.61884">
        <ele>1383</ele>
        <time>2013-09-14T09:50:02.000Z</time>
      </trkpt>
      <trkpt lat="44.71472" lon="5.61888">
        <ele>1383</ele>
        <time>2013-09-14T09:50:03.000Z</time>
      </trkpt>
      <trkpt lat="44.71472" lon="5.61888">
        <ele>1383</ele>
        <time>2013-09-14T09:50:03.000Z</time>
      </trkpt>
      <trkpt lat="44.71472" lon="5.61888">
        <ele>1383</ele>
        <time>2013-09-14T09:50:08.000Z</time>
      </trkpt>
      <trkpt lat="44.71481" lon="5.61893">
        <ele>1382</ele>
        <time>2013-09-14T09:50:09.000Z</time>
      </trkpt>
      <trkpt lat="44.71481" lon="5.61893">
        <ele>1382</ele>
        <time>2013-09-14T09:50:09.000Z</time>
      </trkpt>
      <trkpt lat="44.71481" lon="5.61893">
        <ele>1382</ele>
        <time>2013-09-14T09:50:16.000Z</time>
      </trkpt>
      <trkpt lat="44.71486" lon="5.61895">
        <ele>1382</ele>
        <time>2013-09-14T09:50:17.000Z</time>
      </trkpt>
      <trkpt lat="44.71486" lon="5.61895">
        <ele>1382</ele>
        <time>2013-09-14T09:50:17.000Z</time>
      </trkpt>
      <trkpt lat="44.71486" lon="5.61895">
        <ele>1382</ele>
        <time>2013-09-14T09:50:21.000Z</time>
      </trkpt>
      <trkpt lat="44.71478" lon="5.61891">
        <ele>1381</ele>
        <time>2013-09-14T09:50:22.000Z</time>
      </trkpt>
      <trkpt lat="44.71478" lon="5.61891">
        <ele>1381</ele>
        <time>2013-09-14T09:50:22.000Z</time>
      </trkpt>
      <trkpt lat="44.71478" lon="5.61891">
        <ele>1381</ele>
        <time>2013-09-14T09:50:25.000Z</time>
      </trkpt>
      <trkpt lat="44.71469" lon="5.61886">
        <ele>1381</ele>
        <time>2013-09-14T09:50:26.000Z</time>
      </trkpt>
      <trkpt lat="44.71469" lon="5.61886">
        <ele>1381</ele>
        <time>2013-09-14T09:50:26.000Z</time>
      </trkpt>
      <trkpt lat="44.71469" lon="5.61886">
        <ele>1381</ele>
        <time>2013-09-14T09:50:27.000Z</time>
      </trkpt>
      <trkpt lat="44.71462" lon="5.61882">
        <ele>1381</ele>
        <time>2013-09-14T09:50:28.000Z</time>
      </trkpt>
      <trkpt lat="44.71452" lon="5.61876">
        <ele>1381</ele>
        <time>2013-09-14T09:50:37.000Z</time>
      </trkpt>
      <trkpt lat="44.71452" lon="5.61876">
        <ele>1381</ele>
        <time>2013-09-14T09:50:37.000Z</time>
      </trkpt>
      <trkpt lat="44.71452" lon="5.61876">
        <ele>1381</ele>
        <time>2013-09-14T09:50:42.000Z</time>
      </trkpt>
      <trkpt lat="44.71457" lon="5.61863">
        <ele>1381</ele>
        <time>2013-09-14T09:50:43.000Z</time>
      </trkpt>
      <trkpt lat="44.71457" lon="5.61863">
        <ele>1381</ele>
        <time>2013-09-14T09:50:43.000Z</time>
      </trkpt>
      <trkpt lat="44.71457" lon="5.61863">
        <ele>1381</ele>
        <time>2013-09-14T09:50:44.000Z</time>
      </trkpt>
      <trkpt lat="44.71463" lon="5.61863">
        <ele>1381</ele>
        <time>2013-09-14T09:50:45.000Z</time>
      </trkpt>
      <trkpt lat="44.7147" lon="5.61867">
        <ele>1381</ele>
        <time>2013-09-14T09:50:47.000Z</time>
      </trkpt>
      <trkpt lat="44.71476" lon="5.61869">
        <ele>1380</ele>
        <time>2013-09-14T09:50:49.000Z</time>
      </trkpt>
      <trkpt lat="44.71482" lon="5.61871">
        <ele>1380</ele>
        <time>2013-09-14T09:50:51.000Z</time>
      </trkpt>
      <trkpt lat="44.71493" lon="5.61876">
        <ele>1380</ele>
        <time>2013-09-14T09:50:59.000Z</time>
      </trkpt>
      <trkpt lat="44.71493" lon="5.61876">
        <ele>1380</ele>
        <time>2013-09-14T09:50:59.000Z</time>
      </trkpt>
      <trkpt lat="44.71493" lon="5.61876">
        <ele>1380</ele>
        <time>2013-09-14T09:51:52.000Z</time>
      </trkpt>
      <trkpt lat="44.71491" lon="5.61869">
        <ele>1380</ele>
        <time>2013-09-14T09:52:35.000Z</time>
      </trkpt>
      <trkpt lat="44.71487" lon="5.61865">
        <ele>1380</ele>
        <time>2013-09-14T09:52:48.000Z</time>
      </trkpt>
      <trkpt lat="44.71487" lon="5.61865">
        <ele>1380</ele>
        <time>2013-09-14T09:52:48.000Z</time>
      </trkpt>
      <trkpt lat="44.71487" lon="5.61865">
        <ele>1380</ele>
        <time>2013-09-14T09:52:51.000Z</time>
      </trkpt>
      <trkpt lat="44.71485" lon="5.61858">
        <ele>1381</ele>
        <time>2013-09-14T09:54:10.000Z</time>
      </trkpt>
      <trkpt lat="44.71485" lon="5.61858">
        <ele>1381</ele>
        <time>2013-09-14T09:54:10.000Z</time>
      </trkpt>
      <trkpt lat="44.71485" lon="5.61858">
        <ele>1381</ele>
        <time>2013-09-14T09:54:14.000Z</time>
      </trkpt>
      <trkpt lat="44.71487" lon="5.61865">
        <ele>1381</ele>
        <time>2013-09-14T09:54:30.000Z</time>
      </trkpt>
      <trkpt lat="44.71493" lon="5.61863">
        <ele>1381</ele>
        <time>2013-09-14T09:54:33.000Z</time>
      </trkpt>
      <trkpt lat="44.71499" lon="5.61863">
        <ele>1381</ele>
        <time>2013-09-14T09:54:34.000Z</time>
      </trkpt>
      <trkpt lat="44.71504" lon="5.6186">
        <ele>1382</ele>
        <time>2013-09-14T09:54:35.000Z</time>
      </trkpt>
      <trkpt lat="44.7151" lon="5.61858">
        <ele>1382</ele>
        <time>2013-09-14T09:54:36.000Z</time>
      </trkpt>
      <trkpt lat="44.71515" lon="5.61858">
        <ele>1383</ele>
        <time>2013-09-14T09:54:37.000Z</time>
      </trkpt>
      <trkpt lat="44.71519" lon="5.61856">
        <ele>1383</ele>
        <time>2013-09-14T09:54:38.000Z</time>
      </trkpt>
      <trkpt lat="44.71524" lon="5.61856">
        <ele>1384</ele>
        <time>2013-09-14T09:54:39.000Z</time>
      </trkpt>
      <trkpt lat="44.71529" lon="5.61854">
        <ele>1384</ele>
        <time>2013-09-14T09:54:40.000Z</time>
      </trkpt>
      <trkpt lat="44.71536" lon="5.61852">
        <ele>1385</ele>
        <time>2013-09-14T09:54:42.000Z</time>
      </trkpt>
      <trkpt lat="44.71545" lon="5.61852">
        <ele>1386</ele>
        <time>2013-09-14T09:54:44.000Z</time>
      </trkpt>
      <trkpt lat="44.71554" lon="5.61854">
        <ele>1386</ele>
        <time>2013-09-14T09:54:46.000Z</time>
      </trkpt>
      <trkpt lat="44.71558" lon="5.61856">
        <ele>1386</ele>
        <time>2013-09-14T09:54:47.000Z</time>
      </trkpt>
      <trkpt lat="44.71563" lon="5.61858">
        <ele>1386</ele>
        <time>2013-09-14T09:54:48.000Z</time>
      </trkpt>
      <trkpt lat="44.71568" lon="5.6186">
        <ele>1387</ele>
        <time>2013-09-14T09:54:49.000Z</time>
      </trkpt>
      <trkpt lat="44.71572" lon="5.61863">
        <ele>1387</ele>
        <time>2013-09-14T09:54:50.000Z</time>
      </trkpt>
      <trkpt lat="44.7158" lon="5.61865">
        <ele>1387</ele>
        <time>2013-09-14T09:54:52.000Z</time>
      </trkpt>
      <trkpt lat="44.71585" lon="5.61867">
        <ele>1388</ele>
        <time>2013-09-14T09:54:53.000Z</time>
      </trkpt>
      <trkpt lat="44.71594" lon="5.61867">
        <ele>1388</ele>
        <time>2013-09-14T09:54:55.000Z</time>
      </trkpt>
      <trkpt lat="44.716" lon="5.61867">
        <ele>1389</ele>
        <time>2013-09-14T09:54:56.000Z</time>
      </trkpt>
      <trkpt lat="44.71607" lon="5.61869">
        <ele>1390</ele>
        <time>2013-09-14T09:54:57.000Z</time>
      </trkpt>
      <trkpt lat="44.71614" lon="5.61869">
        <ele>1390</ele>
        <time>2013-09-14T09:54:58.000Z</time>
      </trkpt>
      <trkpt lat="44.71621" lon="5.61869">
        <ele>1390</ele>
        <time>2013-09-14T09:54:59.000Z</time>
      </trkpt>
      <trkpt lat="44.71629" lon="5.61871">
        <ele>1391</ele>
        <time>2013-09-14T09:55:00.000Z</time>
      </trkpt>
      <trkpt lat="44.71635" lon="5.61871">
        <ele>1391</ele>
        <time>2013-09-14T09:55:01.000Z</time>
      </trkpt>
      <trkpt lat="44.71643" lon="5.61873">
        <ele>1391</ele>
        <time>2013-09-14T09:55:02.000Z</time>
      </trkpt>
      <trkpt lat="44.71649" lon="5.61876">
        <ele>1391</ele>
        <time>2013-09-14T09:55:03.000Z</time>
      </trkpt>
      <trkpt lat="44.71655" lon="5.61878">
        <ele>1392</ele>
        <time>2013-09-14T09:55:04.000Z</time>
      </trkpt>
      <trkpt lat="44.71661" lon="5.61882">
        <ele>1392</ele>
        <time>2013-09-14T09:55:05.000Z</time>
      </trkpt>
      <trkpt lat="44.71667" lon="5.61886">
        <ele>1393</ele>
        <time>2013-09-14T09:55:06.000Z</time>
      </trkpt>
      <trkpt lat="44.71673" lon="5.61891">
        <ele>1394</ele>
        <time>2013-09-14T09:55:07.000Z</time>
      </trkpt>
      <trkpt lat="44.71677" lon="5.61895">
        <ele>1395</ele>
        <time>2013-09-14T09:55:08.000Z</time>
      </trkpt>
      <trkpt lat="44.71681" lon="5.61899">
        <ele>1396</ele>
        <time>2013-09-14T09:55:09.000Z</time>
      </trkpt>
      <trkpt lat="44.71692" lon="5.61906">
        <ele>1393</ele>
        <time>2013-09-14T09:55:18.000Z</time>
      </trkpt>
      <trkpt lat="44.71692" lon="5.61906">
        <ele>1393</ele>
        <time>2013-09-14T09:55:18.000Z</time>
      </trkpt>
      <trkpt lat="44.71692" lon="5.61906">
        <ele>1393</ele>
        <time>2013-09-14T09:55:47.000Z</time>
      </trkpt>
      <trkpt lat="44.71704" lon="5.61912">
        <ele>1388</ele>
        <time>2013-09-14T09:55:48.000Z</time>
      </trkpt>
      <trkpt lat="44.71709" lon="5.61918">
        <ele>1387</ele>
        <time>2013-09-14T09:55:49.000Z</time>
      </trkpt>
      <trkpt lat="44.71714" lon="5.61927">
        <ele>1379</ele>
        <time>2013-09-14T09:55:50.000Z</time>
      </trkpt>
      <trkpt lat="44.71721" lon="5.61931">
        <ele>1373</ele>
        <time>2013-09-14T09:55:51.000Z</time>
      </trkpt>
      <trkpt lat="44.71727" lon="5.61934">
        <ele>1368</ele>
        <time>2013-09-14T09:55:52.000Z</time>
      </trkpt>
      <trkpt lat="44.71734" lon="5.61936">
        <ele>1364</ele>
        <time>2013-09-14T09:55:53.000Z</time>
      </trkpt>
      <trkpt lat="44.71739" lon="5.61938">
        <ele>1361</ele>
        <time>2013-09-14T09:55:54.000Z</time>
      </trkpt>
      <trkpt lat="44.71743" lon="5.61942">
        <ele>1359</ele>
        <time>2013-09-14T09:55:55.000Z</time>
      </trkpt>
      <trkpt lat="44.71748" lon="5.61944">
        <ele>1358</ele>
        <time>2013-09-14T09:55:56.000Z</time>
      </trkpt>
      <trkpt lat="44.71751" lon="5.61948">
        <ele>1356</ele>
        <time>2013-09-14T09:55:57.000Z</time>
      </trkpt>
      <trkpt lat="44.71754" lon="5.61953">
        <ele>1356</ele>
        <time>2013-09-14T09:55:58.000Z</time>
      </trkpt>
      <trkpt lat="44.71758" lon="5.61961">
        <ele>1355</ele>
        <time>2013-09-14T09:56:00.000Z</time>
      </trkpt>
      <trkpt lat="44.71763" lon="5.61968">
        <ele>1355</ele>
        <time>2013-09-14T09:56:02.000Z</time>
      </trkpt>
      <trkpt lat="44.71766" lon="5.61974">
        <ele>1355</ele>
        <time>2013-09-14T09:56:04.000Z</time>
      </trkpt>
      <trkpt lat="44.7177" lon="5.61981">
        <ele>1355</ele>
        <time>2013-09-14T09:56:06.000Z</time>
      </trkpt>
      <trkpt lat="44.71774" lon="5.61985">
        <ele>1355</ele>
        <time>2013-09-14T09:56:08.000Z</time>
      </trkpt>
      <trkpt lat="44.71777" lon="5.61991">
        <ele>1355</ele>
        <time>2013-09-14T09:56:10.000Z</time>
      </trkpt>
      <trkpt lat="44.7178" lon="5.62">
        <ele>1356</ele>
        <time>2013-09-14T09:56:13.000Z</time>
      </trkpt>
      <trkpt lat="44.71784" lon="5.62006">
        <ele>1356</ele>
        <time>2013-09-14T09:56:16.000Z</time>
      </trkpt>
      <trkpt lat="44.71785" lon="5.62013">
        <ele>1356</ele>
        <time>2013-09-14T09:56:18.000Z</time>
      </trkpt>
      <trkpt lat="44.71785" lon="5.62019">
        <ele>1356</ele>
        <time>2013-09-14T09:56:20.000Z</time>
      </trkpt>
      <trkpt lat="44.71784" lon="5.62028">
        <ele>1357</ele>
        <time>2013-09-14T09:56:22.000Z</time>
      </trkpt>
      <trkpt lat="44.71784" lon="5.62036">
        <ele>1357</ele>
        <time>2013-09-14T09:56:24.000Z</time>
      </trkpt>
      <trkpt lat="44.71782" lon="5.62047">
        <ele>1357</ele>
        <time>2013-09-14T09:56:26.000Z</time>
      </trkpt>
      <trkpt lat="44.71779" lon="5.62056">
        <ele>1358</ele>
        <time>2013-09-14T09:56:28.000Z</time>
      </trkpt>
      <trkpt lat="44.71777" lon="5.62062">
        <ele>1358</ele>
        <time>2013-09-14T09:56:29.000Z</time>
      </trkpt>
      <trkpt lat="44.71774" lon="5.62071">
        <ele>1359</ele>
        <time>2013-09-14T09:56:31.000Z</time>
      </trkpt>
      <trkpt lat="44.71771" lon="5.62079">
        <ele>1359</ele>
        <time>2013-09-14T09:56:33.000Z</time>
      </trkpt>
      <trkpt lat="44.71769" lon="5.62088">
        <ele>1359</ele>
        <time>2013-09-14T09:56:35.000Z</time>
      </trkpt>
      <trkpt lat="44.71768" lon="5.62094">
        <ele>1360</ele>
        <time>2013-09-14T09:56:36.000Z</time>
      </trkpt>
      <trkpt lat="44.71768" lon="5.62101">
        <ele>1360</ele>
        <time>2013-09-14T09:56:37.000Z</time>
      </trkpt>
      <trkpt lat="44.71766" lon="5.62107">
        <ele>1360</ele>
        <time>2013-09-14T09:56:38.000Z</time>
      </trkpt>
      <trkpt lat="44.71765" lon="5.62114">
        <ele>1361</ele>
        <time>2013-09-14T09:56:39.000Z</time>
      </trkpt>
      <trkpt lat="44.71762" lon="5.62124">
        <ele>1361</ele>
        <time>2013-09-14T09:56:41.000Z</time>
      </trkpt>
      <trkpt lat="44.71758" lon="5.62133">
        <ele>1362</ele>
        <time>2013-09-14T09:56:43.000Z</time>
      </trkpt>
      <trkpt lat="44.71755" lon="5.62144">
        <ele>1362</ele>
        <time>2013-09-14T09:56:45.000Z</time>
      </trkpt>
      <trkpt lat="44.71753" lon="5.62152">
        <ele>1363</ele>
        <time>2013-09-14T09:56:47.000Z</time>
      </trkpt>
      <trkpt lat="44.71752" lon="5.62159">
        <ele>1363</ele>
        <time>2013-09-14T09:56:48.000Z</time>
      </trkpt>
      <trkpt lat="44.71747" lon="5.62167">
        <ele>1364</ele>
        <time>2013-09-14T09:56:50.000Z</time>
      </trkpt>
      <trkpt lat="44.7174" lon="5.62174">
        <ele>1364</ele>
        <time>2013-09-14T09:56:52.000Z</time>
      </trkpt>
      <trkpt lat="44.71734" lon="5.6218">
        <ele>1365</ele>
        <time>2013-09-14T09:56:54.000Z</time>
      </trkpt>
      <trkpt lat="44.71727" lon="5.62184">
        <ele>1366</ele>
        <time>2013-09-14T09:56:56.000Z</time>
      </trkpt>
      <trkpt lat="44.71725" lon="5.62193">
        <ele>1366</ele>
        <time>2013-09-14T09:56:58.000Z</time>
      </trkpt>
      <trkpt lat="44.71725" lon="5.622">
        <ele>1366</ele>
        <time>2013-09-14T09:56:59.000Z</time>
      </trkpt>
      <trkpt lat="44.71727" lon="5.62208">
        <ele>1367</ele>
        <time>2013-09-14T09:57:01.000Z</time>
      </trkpt>
      <trkpt lat="44.7173" lon="5.62215">
        <ele>1367</ele>
        <time>2013-09-14T09:57:03.000Z</time>
      </trkpt>
      <trkpt lat="44.71735" lon="5.62221">
        <ele>1368</ele>
        <time>2013-09-14T09:57:05.000Z</time>
      </trkpt>
      <trkpt lat="44.7174" lon="5.62227">
        <ele>1369</ele>
        <time>2013-09-14T09:57:07.000Z</time>
      </trkpt>
      <trkpt lat="44.71746" lon="5.6223">
        <ele>1369</ele>
        <time>2013-09-14T09:57:08.000Z</time>
      </trkpt>
      <trkpt lat="44.7175" lon="5.62232">
        <ele>1369</ele>
        <time>2013-09-14T09:57:09.000Z</time>
      </trkpt>
      <trkpt lat="44.71755" lon="5.62232">
        <ele>1372</ele>
        <time>2013-09-14T09:57:10.000Z</time>
      </trkpt>
      <trkpt lat="44.7176" lon="5.62236">
        <ele>1375</ele>
        <time>2013-09-14T09:57:11.000Z</time>
      </trkpt>
      <trkpt lat="44.71765" lon="5.62238">
        <ele>1377</ele>
        <time>2013-09-14T09:57:12.000Z</time>
      </trkpt>
      <trkpt lat="44.7177" lon="5.62242">
        <ele>1378</ele>
        <time>2013-09-14T09:57:13.000Z</time>
      </trkpt>
      <trkpt lat="44.71778" lon="5.62249">
        <ele>1379</ele>
        <time>2013-09-14T09:57:14.000Z</time>
      </trkpt>
      <trkpt lat="44.71785" lon="5.62253">
        <ele>1380</ele>
        <time>2013-09-14T09:57:15.000Z</time>
      </trkpt>
      <trkpt lat="44.71793" lon="5.62258">
        <ele>1381</ele>
        <time>2013-09-14T09:57:16.000Z</time>
      </trkpt>
      <trkpt lat="44.71799" lon="5.62264">
        <ele>1383</ele>
        <time>2013-09-14T09:57:17.000Z</time>
      </trkpt>
      <trkpt lat="44.71806" lon="5.6227">
        <ele>1383</ele>
        <time>2013-09-14T09:57:18.000Z</time>
      </trkpt>
      <trkpt lat="44.71811" lon="5.62277">
        <ele>1385</ele>
        <time>2013-09-14T09:57:19.000Z</time>
      </trkpt>
      <trkpt lat="44.71815" lon="5.62283">
        <ele>1386</ele>
        <time>2013-09-14T09:57:20.000Z</time>
      </trkpt>
      <trkpt lat="44.71822" lon="5.62288">
        <ele>1387</ele>
        <time>2013-09-14T09:57:21.000Z</time>
      </trkpt>
      <trkpt lat="44.71828" lon="5.62294">
        <ele>1388</ele>
        <time>2013-09-14T09:57:22.000Z</time>
      </trkpt>
      <trkpt lat="44.71835" lon="5.62298">
        <ele>1388</ele>
        <time>2013-09-14T09:57:23.000Z</time>
      </trkpt>
      <trkpt lat="44.71842" lon="5.623">
        <ele>1389</ele>
        <time>2013-09-14T09:57:24.000Z</time>
      </trkpt>
      <trkpt lat="44.71849" lon="5.62305">
        <ele>1389</ele>
        <time>2013-09-14T09:57:25.000Z</time>
      </trkpt>
      <trkpt lat="44.71855" lon="5.62309">
        <ele>1390</ele>
        <time>2013-09-14T09:57:26.000Z</time>
      </trkpt>
      <trkpt lat="44.71862" lon="5.62313">
        <ele>1391</ele>
        <time>2013-09-14T09:57:27.000Z</time>
      </trkpt>
      <trkpt lat="44.7187" lon="5.62318">
        <ele>1391</ele>
        <time>2013-09-14T09:57:28.000Z</time>
      </trkpt>
      <trkpt lat="44.71878" lon="5.62322">
        <ele>1392</ele>
        <time>2013-09-14T09:57:29.000Z</time>
      </trkpt>
      <trkpt lat="44.71885" lon="5.62324">
        <ele>1392</ele>
        <time>2013-09-14T09:57:30.000Z</time>
      </trkpt>
      <trkpt lat="44.71892" lon="5.62326">
        <ele>1392</ele>
        <time>2013-09-14T09:57:31.000Z</time>
      </trkpt>
      <trkpt lat="44.719" lon="5.6233">
        <ele>1393</ele>
        <time>2013-09-14T09:57:32.000Z</time>
      </trkpt>
      <trkpt lat="44.71906" lon="5.62333">
        <ele>1393</ele>
        <time>2013-09-14T09:57:33.000Z</time>
      </trkpt>
      <trkpt lat="44.71912" lon="5.62335">
        <ele>1393</ele>
        <time>2013-09-14T09:57:34.000Z</time>
      </trkpt>
      <trkpt lat="44.71918" lon="5.62337">
        <ele>1393</ele>
        <time>2013-09-14T09:57:35.000Z</time>
      </trkpt>
      <trkpt lat="44.71924" lon="5.62339">
        <ele>1393</ele>
        <time>2013-09-14T09:57:36.000Z</time>
      </trkpt>
      <trkpt lat="44.7193" lon="5.62343">
        <ele>1393</ele>
        <time>2013-09-14T09:57:38.000Z</time>
      </trkpt>
      <trkpt lat="44.71936" lon="5.62346">
        <ele>1393</ele>
        <time>2013-09-14T09:57:40.000Z</time>
      </trkpt>
      <trkpt lat="44.71944" lon="5.62343">
        <ele>1394</ele>
        <time>2013-09-14T09:57:42.000Z</time>
      </trkpt>
      <trkpt lat="44.71948" lon="5.62341">
        <ele>1394</ele>
        <time>2013-09-14T09:57:43.000Z</time>
      </trkpt>
      <trkpt lat="44.71953" lon="5.62339">
        <ele>1394</ele>
        <time>2013-09-14T09:57:44.000Z</time>
      </trkpt>
      <trkpt lat="44.71958" lon="5.6233">
        <ele>1394</ele>
        <time>2013-09-14T09:57:46.000Z</time>
      </trkpt>
      <trkpt lat="44.71962" lon="5.62322">
        <ele>1394</ele>
        <time>2013-09-14T09:57:48.000Z</time>
      </trkpt>
      <trkpt lat="44.71969" lon="5.62313">
        <ele>1394</ele>
        <time>2013-09-14T09:57:50.000Z</time>
      </trkpt>
      <trkpt lat="44.71973" lon="5.62305">
        <ele>1395</ele>
        <time>2013-09-14T09:57:52.000Z</time>
      </trkpt>
      <trkpt lat="44.71978" lon="5.62296">
        <ele>1395</ele>
        <time>2013-09-14T09:57:54.000Z</time>
      </trkpt>
      <trkpt lat="44.71983" lon="5.6229">
        <ele>1395</ele>
        <time>2013-09-14T09:57:56.000Z</time>
      </trkpt>
      <trkpt lat="44.71988" lon="5.62281">
        <ele>1396</ele>
        <time>2013-09-14T09:57:58.000Z</time>
      </trkpt>
      <trkpt lat="44.71993" lon="5.62275">
        <ele>1396</ele>
        <time>2013-09-14T09:58:00.000Z</time>
      </trkpt>
      <trkpt lat="44.71999" lon="5.6227">
        <ele>1396</ele>
        <time>2013-09-14T09:58:02.000Z</time>
      </trkpt>
      <trkpt lat="44.72004" lon="5.62264">
        <ele>1397</ele>
        <time>2013-09-14T09:58:04.000Z</time>
      </trkpt>
      <trkpt lat="44.7201" lon="5.6226">
        <ele>1397</ele>
        <time>2013-09-14T09:58:06.000Z</time>
      </trkpt>
      <trkpt lat="44.72016" lon="5.62258">
        <ele>1397</ele>
        <time>2013-09-14T09:58:08.000Z</time>
      </trkpt>
      <trkpt lat="44.72023" lon="5.62255">
        <ele>1397</ele>
        <time>2013-09-14T09:58:10.000Z</time>
      </trkpt>
      <trkpt lat="44.72032" lon="5.62253">
        <ele>1399</ele>
        <time>2013-09-14T09:58:12.000Z</time>
      </trkpt>
      <trkpt lat="44.72037" lon="5.62253">
        <ele>1400</ele>
        <time>2013-09-14T09:58:13.000Z</time>
      </trkpt>
      <trkpt lat="44.72043" lon="5.62253">
        <ele>1401</ele>
        <time>2013-09-14T09:58:14.000Z</time>
      </trkpt>
      <trkpt lat="44.72049" lon="5.62253">
        <ele>1401</ele>
        <time>2013-09-14T09:58:15.000Z</time>
      </trkpt>
      <trkpt lat="44.72055" lon="5.62255">
        <ele>1402</ele>
        <time>2013-09-14T09:58:16.000Z</time>
      </trkpt>
      <trkpt lat="44.7206" lon="5.62255">
        <ele>1402</ele>
        <time>2013-09-14T09:58:17.000Z</time>
      </trkpt>
      <trkpt lat="44.72065" lon="5.62258">
        <ele>1402</ele>
        <time>2013-09-14T09:58:18.000Z</time>
      </trkpt>
      <trkpt lat="44.72071" lon="5.62258">
        <ele>1403</ele>
        <time>2013-09-14T09:58:19.000Z</time>
      </trkpt>
      <trkpt lat="44.72076" lon="5.62262">
        <ele>1403</ele>
        <time>2013-09-14T09:58:20.000Z</time>
      </trkpt>
      <trkpt lat="44.7208" lon="5.62266">
        <ele>1403</ele>
        <time>2013-09-14T09:58:21.000Z</time>
      </trkpt>
      <trkpt lat="44.72085" lon="5.6227">
        <ele>1404</ele>
        <time>2013-09-14T09:58:22.000Z</time>
      </trkpt>
      <trkpt lat="44.72089" lon="5.62275">
        <ele>1404</ele>
        <time>2013-09-14T09:58:23.000Z</time>
      </trkpt>
      <trkpt lat="44.72093" lon="5.62281">
        <ele>1405</ele>
        <time>2013-09-14T09:58:24.000Z</time>
      </trkpt>
      <trkpt lat="44.72098" lon="5.62285">
        <ele>1405</ele>
        <time>2013-09-14T09:58:25.000Z</time>
      </trkpt>
      <trkpt lat="44.72103" lon="5.6229">
        <ele>1406</ele>
        <time>2013-09-14T09:58:26.000Z</time>
      </trkpt>
      <trkpt lat="44.72107" lon="5.62296">
        <ele>1406</ele>
        <time>2013-09-14T09:58:27.000Z</time>
      </trkpt>
      <trkpt lat="44.72111" lon="5.623">
        <ele>1407</ele>
        <time>2013-09-14T09:58:28.000Z</time>
      </trkpt>
      <trkpt lat="44.72116" lon="5.62307">
        <ele>1407</ele>
        <time>2013-09-14T09:58:29.000Z</time>
      </trkpt>
      <trkpt lat="44.7212" lon="5.62313">
        <ele>1408</ele>
        <time>2013-09-14T09:58:30.000Z</time>
      </trkpt>
      <trkpt lat="44.72124" lon="5.6232">
        <ele>1408</ele>
        <time>2013-09-14T09:58:31.000Z</time>
      </trkpt>
      <trkpt lat="44.7213" lon="5.62326">
        <ele>1409</ele>
        <time>2013-09-14T09:58:32.000Z</time>
      </trkpt>
      <trkpt lat="44.72134" lon="5.6233">
        <ele>1409</ele>
        <time>2013-09-14T09:58:33.000Z</time>
      </trkpt>
      <trkpt lat="44.72138" lon="5.62337">
        <ele>1410</ele>
        <time>2013-09-14T09:58:34.000Z</time>
      </trkpt>
      <trkpt lat="44.72144" lon="5.62343">
        <ele>1410</ele>
        <time>2013-09-14T09:58:35.000Z</time>
      </trkpt>
      <trkpt lat="44.72148" lon="5.62352">
        <ele>1411</ele>
        <time>2013-09-14T09:58:36.000Z</time>
      </trkpt>
      <trkpt lat="44.72152" lon="5.62358">
        <ele>1412</ele>
        <time>2013-09-14T09:58:37.000Z</time>
      </trkpt>
      <trkpt lat="44.72158" lon="5.62367">
        <ele>1412</ele>
        <time>2013-09-14T09:58:38.000Z</time>
      </trkpt>
      <trkpt lat="44.72162" lon="5.62373">
        <ele>1413</ele>
        <time>2013-09-14T09:58:39.000Z</time>
      </trkpt>
      <trkpt lat="44.72166" lon="5.6238">
        <ele>1414</ele>
        <time>2013-09-14T09:58:40.000Z</time>
      </trkpt>
      <trkpt lat="44.7217" lon="5.62388">
        <ele>1414</ele>
        <time>2013-09-14T09:58:41.000Z</time>
      </trkpt>
      <trkpt lat="44.72175" lon="5.62395">
        <ele>1415</ele>
        <time>2013-09-14T09:58:42.000Z</time>
      </trkpt>
      <trkpt lat="44.72179" lon="5.62401">
        <ele>1416</ele>
        <time>2013-09-14T09:58:43.000Z</time>
      </trkpt>
      <trkpt lat="44.72182" lon="5.62408">
        <ele>1416</ele>
        <time>2013-09-14T09:58:44.000Z</time>
      </trkpt>
      <trkpt lat="44.72185" lon="5.62414">
        <ele>1417</ele>
        <time>2013-09-14T09:58:45.000Z</time>
      </trkpt>
      <trkpt lat="44.72189" lon="5.62421">
        <ele>1418</ele>
        <time>2013-09-14T09:58:46.000Z</time>
      </trkpt>
      <trkpt lat="44.72194" lon="5.62429">
        <ele>1419</ele>
        <time>2013-09-14T09:58:48.000Z</time>
      </trkpt>
      <trkpt lat="44.72198" lon="5.62436">
        <ele>1420</ele>
        <time>2013-09-14T09:58:50.000Z</time>
      </trkpt>
      <trkpt lat="44.72207" lon="5.62446">
        <ele>1420</ele>
        <time>2013-09-14T09:58:57.000Z</time>
      </trkpt>
      <trkpt lat="44.72207" lon="5.62446">
        <ele>1420</ele>
        <time>2013-09-14T09:58:57.000Z</time>
      </trkpt>
      <trkpt lat="44.72207" lon="5.62446">
        <ele>1420</ele>
        <time>2013-09-14T09:59:02.000Z</time>
      </trkpt>
      <trkpt lat="44.7221" lon="5.62459">
        <ele>1421</ele>
        <time>2013-09-14T09:59:03.000Z</time>
      </trkpt>
      <trkpt lat="44.7221" lon="5.62459">
        <ele>1421</ele>
        <time>2013-09-14T09:59:03.000Z</time>
      </trkpt>
      <trkpt lat="44.7221" lon="5.62459">
        <ele>1421</ele>
        <time>2013-09-14T09:59:09.000Z</time>
      </trkpt>
      <trkpt lat="44.72211" lon="5.62472">
        <ele>1421</ele>
        <time>2013-09-14T09:59:10.000Z</time>
      </trkpt>
      <trkpt lat="44.72211" lon="5.62472">
        <ele>1421</ele>
        <time>2013-09-14T09:59:10.000Z</time>
      </trkpt>
      <trkpt lat="44.72211" lon="5.62472">
        <ele>1421</ele>
        <time>2013-09-14T09:59:16.000Z</time>
      </trkpt>
      <trkpt lat="44.72204" lon="5.62483">
        <ele>1422</ele>
        <time>2013-09-14T09:59:17.000Z</time>
      </trkpt>
      <trkpt lat="44.72204" lon="5.62483">
        <ele>1422</ele>
        <time>2013-09-14T09:59:17.000Z</time>
      </trkpt>
      <trkpt lat="44.72204" lon="5.62483">
        <ele>1422</ele>
        <time>2013-09-14T09:59:22.000Z</time>
      </trkpt>
      <trkpt lat="44.72194" lon="5.62481">
        <ele>1422</ele>
        <time>2013-09-14T09:59:23.000Z</time>
      </trkpt>
      <trkpt lat="44.72194" lon="5.62481">
        <ele>1422</ele>
        <time>2013-09-14T09:59:23.000Z</time>
      </trkpt>
      <trkpt lat="44.72194" lon="5.62481">
        <ele>1422</ele>
        <time>2013-09-14T09:59:31.000Z</time>
      </trkpt>
      <trkpt lat="44.72186" lon="5.62489">
        <ele>1422</ele>
        <time>2013-09-14T09:59:32.000Z</time>
      </trkpt>
      <trkpt lat="44.72186" lon="5.62489">
        <ele>1422</ele>
        <time>2013-09-14T09:59:32.000Z</time>
      </trkpt>
      <trkpt lat="44.72186" lon="5.62489">
        <ele>1422</ele>
        <time>2013-09-14T09:59:43.000Z</time>
      </trkpt>
      <trkpt lat="44.72186" lon="5.62502">
        <ele>1422</ele>
        <time>2013-09-14T09:59:44.000Z</time>
      </trkpt>
      <trkpt lat="44.72186" lon="5.62502">
        <ele>1422</ele>
        <time>2013-09-14T09:59:44.000Z</time>
      </trkpt>
      <trkpt lat="44.72186" lon="5.62502">
        <ele>1422</ele>
        <time>2013-09-14T10:01:49.000Z</time>
      </trkpt>
      <trkpt lat="44.72191" lon="5.62504">
        <ele>1420</ele>
        <time>2013-09-14T10:02:27.000Z</time>
      </trkpt>
      <trkpt lat="44.72191" lon="5.62504">
        <ele>1420</ele>
        <time>2013-09-14T10:02:27.000Z</time>
      </trkpt>
      <trkpt lat="44.72191" lon="5.62504">
        <ele>1420</ele>
        <time>2013-09-14T10:02:28.000Z</time>
      </trkpt>
      <trkpt lat="44.72195" lon="5.62506">
        <ele>1420</ele>
        <time>2013-09-14T10:02:36.000Z</time>
      </trkpt>
      <trkpt lat="44.72195" lon="5.62506">
        <ele>1420</ele>
        <time>2013-09-14T10:02:36.000Z</time>
      </trkpt>
      <trkpt lat="44.72195" lon="5.62506">
        <ele>1419</ele>
        <time>2013-09-14T10:02:38.000Z</time>
      </trkpt>
      <trkpt lat="44.72274" lon="5.62532">
        <ele>1419</ele>
        <time>2013-09-14T10:03:12.000Z</time>
      </trkpt>
      <trkpt lat="44.7224" lon="5.62526">
        <ele>1419</ele>
        <time>2013-09-14T10:03:13.000Z</time>
      </trkpt>
      <trkpt lat="44.72217" lon="5.62547">
        <ele>1418</ele>
        <time>2013-09-14T10:03:26.000Z</time>
      </trkpt>
      <trkpt lat="44.72207" lon="5.62539">
        <ele>1418</ele>
        <time>2013-09-14T10:03:27.000Z</time>
      </trkpt>
      <trkpt lat="44.72205" lon="5.6253">
        <ele>1417</ele>
        <time>2013-09-14T10:03:28.000Z</time>
      </trkpt>
      <trkpt lat="44.72203" lon="5.62524">
        <ele>1417</ele>
        <time>2013-09-14T10:03:29.000Z</time>
      </trkpt>
      <trkpt lat="44.72208" lon="5.62519">
        <ele>1416</ele>
        <time>2013-09-14T10:03:30.000Z</time>
      </trkpt>
      <trkpt lat="44.72212" lon="5.62517">
        <ele>1416</ele>
        <time>2013-09-14T10:03:31.000Z</time>
      </trkpt>
      <trkpt lat="44.7222" lon="5.62513">
        <ele>1415</ele>
        <time>2013-09-14T10:03:34.000Z</time>
      </trkpt>
      <trkpt lat="44.72229" lon="5.62508">
        <ele>1413</ele>
        <time>2013-09-14T10:03:37.000Z</time>
      </trkpt>
      <trkpt lat="44.72235" lon="5.62508">
        <ele>1413</ele>
        <time>2013-09-14T10:03:38.000Z</time>
      </trkpt>
      <trkpt lat="44.72239" lon="5.62506">
        <ele>1411</ele>
        <time>2013-09-14T10:03:41.000Z</time>
      </trkpt>
      <trkpt lat="44.72243" lon="5.62502">
        <ele>1409</ele>
        <time>2013-09-14T10:03:46.000Z</time>
      </trkpt>
      <trkpt lat="44.72248" lon="5.62506">
        <ele>1404</ele>
        <time>2013-09-14T10:03:57.000Z</time>
      </trkpt>
      <trkpt lat="44.72252" lon="5.62508">
        <ele>1402</ele>
        <time>2013-09-14T10:04:02.000Z</time>
      </trkpt>
      <trkpt lat="44.72258" lon="5.62508">
        <ele>1401</ele>
        <time>2013-09-14T10:04:06.000Z</time>
      </trkpt>
      <trkpt lat="44.72264" lon="5.62506">
        <ele>1399</ele>
        <time>2013-09-14T10:04:11.000Z</time>
      </trkpt>
      <trkpt lat="44.72269" lon="5.62506">
        <ele>1398</ele>
        <time>2013-09-14T10:04:20.000Z</time>
      </trkpt>
      <trkpt lat="44.72269" lon="5.62506">
        <ele>1398</ele>
        <time>2013-09-14T10:04:20.000Z</time>
      </trkpt>
      <trkpt lat="44.72269" lon="5.62506">
        <ele>1398</ele>
        <time>2013-09-14T10:04:21.000Z</time>
      </trkpt>
      <trkpt lat="44.72274" lon="5.62506">
        <ele>1396</ele>
        <time>2013-09-14T10:04:30.000Z</time>
      </trkpt>
      <trkpt lat="44.72274" lon="5.62506">
        <ele>1396</ele>
        <time>2013-09-14T10:04:30.000Z</time>
      </trkpt>
      <trkpt lat="44.72274" lon="5.62506">
        <ele>1395</ele>
        <time>2013-09-14T10:04:31.000Z</time>
      </trkpt>
      <trkpt lat="44.72271" lon="5.625">
        <ele>1395</ele>
        <time>2013-09-14T10:04:42.000Z</time>
      </trkpt>
      <trkpt lat="44.72271" lon="5.625">
        <ele>1395</ele>
        <time>2013-09-14T10:04:42.000Z</time>
      </trkpt>
      <trkpt lat="44.72271" lon="5.625">
        <ele>1395</ele>
        <time>2013-09-14T10:04:44.000Z</time>
      </trkpt>
      <trkpt lat="44.72267" lon="5.62496">
        <ele>1394</ele>
        <time>2013-09-14T10:04:56.000Z</time>
      </trkpt>
      <trkpt lat="44.72267" lon="5.62496">
        <ele>1394</ele>
        <time>2013-09-14T10:04:56.000Z</time>
      </trkpt>
      <trkpt lat="44.72267" lon="5.62496">
        <ele>1394</ele>
        <time>2013-09-14T10:04:59.000Z</time>
      </trkpt>
      <trkpt lat="44.72265" lon="5.62502">
        <ele>1394</ele>
        <time>2013-09-14T10:05:21.000Z</time>
      </trkpt>
      <trkpt lat="44.72265" lon="5.62502">
        <ele>1394</ele>
        <time>2013-09-14T10:05:21.000Z</time>
      </trkpt>
      <trkpt lat="44.72265" lon="5.62502">
        <ele>1394</ele>
        <time>2013-09-14T10:05:24.000Z</time>
      </trkpt>
      <trkpt lat="44.72264" lon="5.62508">
        <ele>1394</ele>
        <time>2013-09-14T10:05:35.000Z</time>
      </trkpt>
      <trkpt lat="44.72264" lon="5.62508">
        <ele>1394</ele>
        <time>2013-09-14T10:05:35.000Z</time>
      </trkpt>
      <trkpt lat="44.72264" lon="5.62508">
        <ele>1393</ele>
        <time>2013-09-14T10:05:42.000Z</time>
      </trkpt>
      <trkpt lat="44.7226" lon="5.62502">
        <ele>1393</ele>
        <time>2013-09-14T10:05:48.000Z</time>
      </trkpt>
      <trkpt lat="44.7226" lon="5.62502">
        <ele>1393</ele>
        <time>2013-09-14T10:05:48.000Z</time>
      </trkpt>
      <trkpt lat="44.7226" lon="5.62502">
        <ele>1393</ele>
        <time>2013-09-14T10:05:51.000Z</time>
      </trkpt>
      <trkpt lat="44.72257" lon="5.62496">
        <ele>1393</ele>
        <time>2013-09-14T10:05:59.000Z</time>
      </trkpt>
      <trkpt lat="44.72257" lon="5.62496">
        <ele>1393</ele>
        <time>2013-09-14T10:05:59.000Z</time>
      </trkpt>
      <trkpt lat="44.72257" lon="5.62496">
        <ele>1393</ele>
        <time>2013-09-14T10:06:01.000Z</time>
      </trkpt>
      <trkpt lat="44.72254" lon="5.62489">
        <ele>1393</ele>
        <time>2013-09-14T10:06:07.000Z</time>
      </trkpt>
      <trkpt lat="44.72254" lon="5.62489">
        <ele>1393</ele>
        <time>2013-09-14T10:06:07.000Z</time>
      </trkpt>
      <trkpt lat="44.72254" lon="5.62489">
        <ele>1393</ele>
        <time>2013-09-14T10:06:09.000Z</time>
      </trkpt>
      <trkpt lat="44.72253" lon="5.62496">
        <ele>1393</ele>
        <time>2013-09-14T10:06:39.000Z</time>
      </trkpt>
      <trkpt lat="44.72255" lon="5.62502">
        <ele>1392</ele>
        <time>2013-09-14T10:06:48.000Z</time>
      </trkpt>
      <trkpt lat="44.72255" lon="5.62502">
        <ele>1392</ele>
        <time>2013-09-14T10:06:48.000Z</time>
      </trkpt>
      <trkpt lat="44.72255" lon="5.62502">
        <ele>1392</ele>
        <time>2013-09-14T10:06:54.000Z</time>
      </trkpt>
      <trkpt lat="44.7226" lon="5.62504">
        <ele>1391</ele>
        <time>2013-09-14T10:07:46.000Z</time>
      </trkpt>
      <trkpt lat="44.7226" lon="5.62504">
        <ele>1391</ele>
        <time>2013-09-14T10:07:46.000Z</time>
      </trkpt>
      <trkpt lat="44.7226" lon="5.62504">
        <ele>1391</ele>
        <time>2013-09-14T10:07:59.000Z</time>
      </trkpt>
      <trkpt lat="44.72177" lon="5.62543">
        <ele>1391</ele>
        <time>2013-09-14T10:08:19.000Z</time>
      </trkpt>
      <trkpt lat="44.72258" lon="5.62504">
        <ele>1391</ele>
        <time>2013-09-14T10:08:20.000Z</time>
      </trkpt>
      <trkpt lat="44.7229" lon="5.62489">
        <ele>1391</ele>
        <time>2013-09-14T10:08:21.000Z</time>
      </trkpt>
      <trkpt lat="44.72307" lon="5.62481">
        <ele>1391</ele>
        <time>2013-09-14T10:08:22.000Z</time>
      </trkpt>
      <trkpt lat="44.72307" lon="5.62481">
        <ele>1391</ele>
        <time>2013-09-14T10:08:22.000Z</time>
      </trkpt>
      <trkpt lat="44.72307" lon="5.62481">
        <ele>1391</ele>
        <time>2013-09-14T10:08:31.000Z</time>
      </trkpt>
      <trkpt lat="44.72302" lon="5.62487">
        <ele>1390</ele>
        <time>2013-09-14T10:08:39.000Z</time>
      </trkpt>
      <trkpt lat="44.72292" lon="5.62494">
        <ele>1390</ele>
        <time>2013-09-14T10:08:49.000Z</time>
      </trkpt>
      <trkpt lat="44.72286" lon="5.62498">
        <ele>1389</ele>
        <time>2013-09-14T10:08:52.000Z</time>
      </trkpt>
      <trkpt lat="44.72282" lon="5.62502">
        <ele>1389</ele>
        <time>2013-09-14T10:08:54.000Z</time>
      </trkpt>
      <trkpt lat="44.72278" lon="5.62504">
        <ele>1388</ele>
        <time>2013-09-14T10:08:56.000Z</time>
      </trkpt>
      <trkpt lat="44.72273" lon="5.62508">
        <ele>1388</ele>
        <time>2013-09-14T10:08:59.000Z</time>
      </trkpt>
      <trkpt lat="44.72269" lon="5.62513">
        <ele>1388</ele>
        <time>2013-09-14T10:09:14.000Z</time>
      </trkpt>
      <trkpt lat="44.72264" lon="5.62506">
        <ele>1387</ele>
        <time>2013-09-14T10:09:19.000Z</time>
      </trkpt>
      <trkpt lat="44.7226" lon="5.625">
        <ele>1386</ele>
        <time>2013-09-14T10:09:23.000Z</time>
      </trkpt>
      <trkpt lat="44.72258" lon="5.62494">
        <ele>1386</ele>
        <time>2013-09-14T10:09:28.000Z</time>
      </trkpt>
      <trkpt lat="44.72258" lon="5.62494">
        <ele>1386</ele>
        <time>2013-09-14T10:09:28.000Z</time>
      </trkpt>
      <trkpt lat="44.72258" lon="5.62494">
        <ele>1386</ele>
        <time>2013-09-14T10:09:29.000Z</time>
      </trkpt>
      <trkpt lat="44.72263" lon="5.62491">
        <ele>1385</ele>
        <time>2013-09-14T10:09:39.000Z</time>
      </trkpt>
      <trkpt lat="44.72263" lon="5.62491">
        <ele>1385</ele>
        <time>2013-09-14T10:09:39.000Z</time>
      </trkpt>
      <trkpt lat="44.72263" lon="5.62491">
        <ele>1385</ele>
        <time>2013-09-14T10:09:40.000Z</time>
      </trkpt>
      <trkpt lat="44.72267" lon="5.62496">
        <ele>1385</ele>
        <time>2013-09-14T10:09:44.000Z</time>
      </trkpt>
      <trkpt lat="44.72271" lon="5.62498">
        <ele>1385</ele>
        <time>2013-09-14T10:09:48.000Z</time>
      </trkpt>
      <trkpt lat="44.72271" lon="5.62498">
        <ele>1385</ele>
        <time>2013-09-14T10:09:48.000Z</time>
      </trkpt>
      <trkpt lat="44.72271" lon="5.62498">
        <ele>1385</ele>
        <time>2013-09-14T10:09:49.000Z</time>
      </trkpt>
      <trkpt lat="44.72271" lon="5.62504">
        <ele>1385</ele>
        <time>2013-09-14T10:09:58.000Z</time>
      </trkpt>
      <trkpt lat="44.72271" lon="5.62504">
        <ele>1385</ele>
        <time>2013-09-14T10:09:58.000Z</time>
      </trkpt>
      <trkpt lat="44.72271" lon="5.62504">
        <ele>1385</ele>
        <time>2013-09-14T10:09:59.000Z</time>
      </trkpt>
      <trkpt lat="44.72267" lon="5.62506">
        <ele>1384</ele>
        <time>2013-09-14T10:10:17.000Z</time>
      </trkpt>
      <trkpt lat="44.72267" lon="5.62506">
        <ele>1384</ele>
        <time>2013-09-14T10:10:17.000Z</time>
      </trkpt>
      <trkpt lat="44.72267" lon="5.62506">
        <ele>1384</ele>
        <time>2013-09-14T10:10:20.000Z</time>
      </trkpt>
      <trkpt lat="44.72263" lon="5.62504">
        <ele>1384</ele>
        <time>2013-09-14T10:10:43.000Z</time>
      </trkpt>
      <trkpt lat="44.72263" lon="5.62504">
        <ele>1384</ele>
        <time>2013-09-14T10:10:43.000Z</time>
      </trkpt>
      <trkpt lat="44.72263" lon="5.62504">
        <ele>1384</ele>
        <time>2013-09-14T10:10:46.000Z</time>
      </trkpt>
      <trkpt lat="44.72266" lon="5.62508">
        <ele>1384</ele>
        <time>2013-09-14T10:12:17.000Z</time>
      </trkpt>
      <trkpt lat="44.7227" lon="5.62506">
        <ele>1384</ele>
        <time>2013-09-14T10:12:41.000Z</time>
      </trkpt>
      <trkpt lat="44.7227" lon="5.62506">
        <ele>1384</ele>
        <time>2013-09-14T10:12:41.000Z</time>
      </trkpt>
      <trkpt lat="44.7227" lon="5.62506">
        <ele>1384</ele>
        <time>2013-09-14T10:12:43.000Z</time>
      </trkpt>
      <trkpt lat="44.72274" lon="5.62508">
        <ele>1384</ele>
        <time>2013-09-14T10:13:02.000Z</time>
      </trkpt>
      <trkpt lat="44.72274" lon="5.62508">
        <ele>1384</ele>
        <time>2013-09-14T10:13:02.000Z</time>
      </trkpt>
      <trkpt lat="44.72274" lon="5.62508">
        <ele>1384</ele>
        <time>2013-09-14T10:13:03.000Z</time>
      </trkpt>
      <trkpt lat="44.72279" lon="5.62504">
        <ele>1384</ele>
        <time>2013-09-14T10:13:19.000Z</time>
      </trkpt>
      <trkpt lat="44.72279" lon="5.62504">
        <ele>1384</ele>
        <time>2013-09-14T10:13:19.000Z</time>
      </trkpt>
      <trkpt lat="44.72279" lon="5.62504">
        <ele>1384</ele>
        <time>2013-09-14T10:13:20.000Z</time>
      </trkpt>
      <trkpt lat="44.72283" lon="5.625">
        <ele>1384</ele>
        <time>2013-09-14T10:13:33.000Z</time>
      </trkpt>
      <trkpt lat="44.72287" lon="5.62496">
        <ele>1384</ele>
        <time>2013-09-14T10:13:40.000Z</time>
      </trkpt>
      <trkpt lat="44.72291" lon="5.62489">
        <ele>1384</ele>
        <time>2013-09-14T10:13:46.000Z</time>
      </trkpt>
      <trkpt lat="44.72291" lon="5.62489">
        <ele>1384</ele>
        <time>2013-09-14T10:13:46.000Z</time>
      </trkpt>
      <trkpt lat="44.72291" lon="5.62489">
        <ele>1384</ele>
        <time>2013-09-14T10:13:48.000Z</time>
      </trkpt>
      <trkpt lat="44.72291" lon="5.62483">
        <ele>1384</ele>
        <time>2013-09-14T10:13:58.000Z</time>
      </trkpt>
      <trkpt lat="44.72291" lon="5.62483">
        <ele>1384</ele>
        <time>2013-09-14T10:13:58.000Z</time>
      </trkpt>
      <trkpt lat="44.72291" lon="5.62483">
        <ele>1384</ele>
        <time>2013-09-14T10:14:00.000Z</time>
      </trkpt>
      <trkpt lat="44.72292" lon="5.62489">
        <ele>1383</ele>
        <time>2013-09-14T10:15:05.000Z</time>
      </trkpt>
      <trkpt lat="44.72292" lon="5.62489">
        <ele>1383</ele>
        <time>2013-09-14T10:15:05.000Z</time>
      </trkpt>
      <trkpt lat="44.72292" lon="5.62489">
        <ele>1383</ele>
        <time>2013-09-14T10:15:11.000Z</time>
      </trkpt>
      <trkpt lat="44.72288" lon="5.62496">
        <ele>1383</ele>
        <time>2013-09-14T10:15:24.000Z</time>
      </trkpt>
      <trkpt lat="44.72288" lon="5.62496">
        <ele>1383</ele>
        <time>2013-09-14T10:15:24.000Z</time>
      </trkpt>
      <trkpt lat="44.72288" lon="5.62496">
        <ele>1383</ele>
        <time>2013-09-14T10:15:30.000Z</time>
      </trkpt>
      <trkpt lat="44.72284" lon="5.625">
        <ele>1383</ele>
        <time>2013-09-14T10:15:53.000Z</time>
      </trkpt>
      <trkpt lat="44.72284" lon="5.625">
        <ele>1383</ele>
        <time>2013-09-14T10:15:53.000Z</time>
      </trkpt>
      <trkpt lat="44.72284" lon="5.625">
        <ele>1383</ele>
        <time>2013-09-14T10:15:56.000Z</time>
      </trkpt>
      <trkpt lat="44.72286" lon="5.62506">
        <ele>1383</ele>
        <time>2013-09-14T10:16:33.000Z</time>
      </trkpt>
      <trkpt lat="44.72286" lon="5.62506">
        <ele>1383</ele>
        <time>2013-09-14T10:16:33.000Z</time>
      </trkpt>
      <trkpt lat="44.72286" lon="5.62506">
        <ele>1383</ele>
        <time>2013-09-14T10:16:37.000Z</time>
      </trkpt>
      <trkpt lat="44.72281" lon="5.62506">
        <ele>1383</ele>
        <time>2013-09-14T10:16:46.000Z</time>
      </trkpt>
      <trkpt lat="44.72281" lon="5.62506">
        <ele>1383</ele>
        <time>2013-09-14T10:16:46.000Z</time>
      </trkpt>
      <trkpt lat="44.72281" lon="5.62506">
        <ele>1383</ele>
        <time>2013-09-14T10:16:47.000Z</time>
      </trkpt>
      <trkpt lat="44.72276" lon="5.62504">
        <ele>1383</ele>
        <time>2013-09-14T10:16:57.000Z</time>
      </trkpt>
      <trkpt lat="44.72273" lon="5.62498">
        <ele>1383</ele>
        <time>2013-09-14T10:17:06.000Z</time>
      </trkpt>
      <trkpt lat="44.72273" lon="5.62498">
        <ele>1383</ele>
        <time>2013-09-14T10:17:06.000Z</time>
      </trkpt>
      <trkpt lat="44.72273" lon="5.62498">
        <ele>1383</ele>
        <time>2013-09-14T10:17:10.000Z</time>
      </trkpt>
      <trkpt lat="44.72269" lon="5.625">
        <ele>1383</ele>
        <time>2013-09-14T10:18:10.000Z</time>
      </trkpt>
      <trkpt lat="44.72269" lon="5.625">
        <ele>1383</ele>
        <time>2013-09-14T10:18:10.000Z</time>
      </trkpt>
      <trkpt lat="44.72269" lon="5.625">
        <ele>1384</ele>
        <time>2013-09-14T10:18:16.000Z</time>
      </trkpt>
      <trkpt lat="44.72265" lon="5.62504">
        <ele>1384</ele>
        <time>2013-09-14T10:18:45.000Z</time>
      </trkpt>
      <trkpt lat="44.72265" lon="5.62504">
        <ele>1384</ele>
        <time>2013-09-14T10:18:45.000Z</time>
      </trkpt>
      <trkpt lat="44.72265" lon="5.62504">
        <ele>1384</ele>
        <time>2013-09-14T10:19:28.000Z</time>
      </trkpt>
      <trkpt lat="44.72262" lon="5.62511">
        <ele>1384</ele>
        <time>2013-09-14T10:19:40.000Z</time>
      </trkpt>
      <trkpt lat="44.72262" lon="5.62511">
        <ele>1384</ele>
        <time>2013-09-14T10:19:40.000Z</time>
      </trkpt>
      <trkpt lat="44.72262" lon="5.62511">
        <ele>1384</ele>
        <time>2013-09-14T10:19:47.000Z</time>
      </trkpt>
      <trkpt lat="44.7226" lon="5.62504">
        <ele>1384</ele>
        <time>2013-09-14T10:20:41.000Z</time>
      </trkpt>
      <trkpt lat="44.7226" lon="5.62504">
        <ele>1384</ele>
        <time>2013-09-14T10:20:41.000Z</time>
      </trkpt>
      <trkpt lat="44.7226" lon="5.62504">
        <ele>1384</ele>
        <time>2013-09-14T10:20:47.000Z</time>
      </trkpt>
      <trkpt lat="44.72264" lon="5.62502">
        <ele>1384</ele>
        <time>2013-09-14T10:20:57.000Z</time>
      </trkpt>
      <trkpt lat="44.72266" lon="5.62496">
        <ele>1384</ele>
        <time>2013-09-14T10:21:12.000Z</time>
      </trkpt>
      <trkpt lat="44.72266" lon="5.62496">
        <ele>1384</ele>
        <time>2013-09-14T10:21:12.000Z</time>
      </trkpt>
      <trkpt lat="44.72266" lon="5.62496">
        <ele>1384</ele>
        <time>2013-09-14T10:21:13.000Z</time>
      </trkpt>
      <trkpt lat="44.7227" lon="5.62491">
        <ele>1384</ele>
        <time>2013-09-14T10:21:29.000Z</time>
      </trkpt>
      <trkpt lat="44.7227" lon="5.62491">
        <ele>1384</ele>
        <time>2013-09-14T10:21:29.000Z</time>
      </trkpt>
      <trkpt lat="44.7227" lon="5.62491">
        <ele>1384</ele>
        <time>2013-09-14T10:21:30.000Z</time>
      </trkpt>
      <trkpt lat="44.72274" lon="5.62487">
        <ele>1384</ele>
        <time>2013-09-14T10:21:38.000Z</time>
      </trkpt>
      <trkpt lat="44.72279" lon="5.62481">
        <ele>1384</ele>
        <time>2013-09-14T10:21:44.000Z</time>
      </trkpt>
      <trkpt lat="44.72279" lon="5.62481">
        <ele>1384</ele>
        <time>2013-09-14T10:21:44.000Z</time>
      </trkpt>
      <trkpt lat="44.72279" lon="5.62481">
        <ele>1384</ele>
        <time>2013-09-14T10:21:45.000Z</time>
      </trkpt>
      <trkpt lat="44.72283" lon="5.62476">
        <ele>1384</ele>
        <time>2013-09-14T10:21:50.000Z</time>
      </trkpt>
      <trkpt lat="44.72283" lon="5.62476">
        <ele>1384</ele>
        <time>2013-09-14T10:21:50.000Z</time>
      </trkpt>
      <trkpt lat="44.72283" lon="5.62476">
        <ele>1384</ele>
        <time>2013-09-14T10:21:51.000Z</time>
      </trkpt>
      <trkpt lat="44.72287" lon="5.6247">
        <ele>1384</ele>
        <time>2013-09-14T10:21:57.000Z</time>
      </trkpt>
      <trkpt lat="44.72291" lon="5.62464">
        <ele>1383</ele>
        <time>2013-09-14T10:22:02.000Z</time>
      </trkpt>
      <trkpt lat="44.72291" lon="5.62464">
        <ele>1383</ele>
        <time>2013-09-14T10:22:02.000Z</time>
      </trkpt>
      <trkpt lat="44.72291" lon="5.62464">
        <ele>1383</ele>
        <time>2013-09-14T10:22:03.000Z</time>
      </trkpt>
      <trkpt lat="44.72293" lon="5.62457">
        <ele>1383</ele>
        <time>2013-09-14T10:22:07.000Z</time>
      </trkpt>
      <trkpt lat="44.72296" lon="5.62451">
        <ele>1383</ele>
        <time>2013-09-14T10:22:12.000Z</time>
      </trkpt>
      <trkpt lat="44.72296" lon="5.62451">
        <ele>1383</ele>
        <time>2013-09-14T10:22:12.000Z</time>
      </trkpt>
      <trkpt lat="44.72296" lon="5.62451">
        <ele>1383</ele>
        <time>2013-09-14T10:22:13.000Z</time>
      </trkpt>
      <trkpt lat="44.72298" lon="5.62444">
        <ele>1383</ele>
        <time>2013-09-14T10:22:17.000Z</time>
      </trkpt>
      <trkpt lat="44.72298" lon="5.62444">
        <ele>1383</ele>
        <time>2013-09-14T10:22:17.000Z</time>
      </trkpt>
      <trkpt lat="44.72298" lon="5.62444">
        <ele>1383</ele>
        <time>2013-09-14T10:22:18.000Z</time>
      </trkpt>
      <trkpt lat="44.72299" lon="5.62438">
        <ele>1383</ele>
        <time>2013-09-14T10:22:23.000Z</time>
      </trkpt>
      <trkpt lat="44.72299" lon="5.62438">
        <ele>1383</ele>
        <time>2013-09-14T10:22:23.000Z</time>
      </trkpt>
      <trkpt lat="44.72299" lon="5.62438">
        <ele>1383</ele>
        <time>2013-09-14T10:22:24.000Z</time>
      </trkpt>
      <trkpt lat="44.72301" lon="5.62431">
        <ele>1383</ele>
        <time>2013-09-14T10:22:36.000Z</time>
      </trkpt>
      <trkpt lat="44.72301" lon="5.62431">
        <ele>1383</ele>
        <time>2013-09-14T10:22:36.000Z</time>
      </trkpt>
      <trkpt lat="44.72301" lon="5.62431">
        <ele>1383</ele>
        <time>2013-09-14T10:22:38.000Z</time>
      </trkpt>
      <trkpt lat="44.72302" lon="5.62425">
        <ele>1383</ele>
        <time>2013-09-14T10:22:44.000Z</time>
      </trkpt>
      <trkpt lat="44.72302" lon="5.62425">
        <ele>1383</ele>
        <time>2013-09-14T10:22:44.000Z</time>
      </trkpt>
      <trkpt lat="44.72302" lon="5.62425">
        <ele>1383</ele>
        <time>2013-09-14T10:22:46.000Z</time>
      </trkpt>
      <trkpt lat="44.72302" lon="5.62418">
        <ele>1383</ele>
        <time>2013-09-14T10:22:51.000Z</time>
      </trkpt>
      <trkpt lat="44.72302" lon="5.62418">
        <ele>1383</ele>
        <time>2013-09-14T10:22:51.000Z</time>
      </trkpt>
      <trkpt lat="44.72302" lon="5.62418">
        <ele>1383</ele>
        <time>2013-09-14T10:22:52.000Z</time>
      </trkpt>
      <trkpt lat="44.72304" lon="5.62412">
        <ele>1383</ele>
        <time>2013-09-14T10:22:58.000Z</time>
      </trkpt>
      <trkpt lat="44.72304" lon="5.62412">
        <ele>1383</ele>
        <time>2013-09-14T10:22:58.000Z</time>
      </trkpt>
      <trkpt lat="44.72304" lon="5.62412">
        <ele>1383</ele>
        <time>2013-09-14T10:22:59.000Z</time>
      </trkpt>
      <trkpt lat="44.72302" lon="5.62406">
        <ele>1383</ele>
        <time>2013-09-14T10:23:04.000Z</time>
      </trkpt>
      <trkpt lat="44.72302" lon="5.62406">
        <ele>1383</ele>
        <time>2013-09-14T10:23:04.000Z</time>
      </trkpt>
      <trkpt lat="44.72302" lon="5.62406">
        <ele>1383</ele>
        <time>2013-09-14T10:23:05.000Z</time>
      </trkpt>
      <trkpt lat="44.72304" lon="5.62399">
        <ele>1383</ele>
        <time>2013-09-14T10:23:09.000Z</time>
      </trkpt>
      <trkpt lat="44.72304" lon="5.62399">
        <ele>1383</ele>
        <time>2013-09-14T10:23:09.000Z</time>
      </trkpt>
      <trkpt lat="44.72304" lon="5.62399">
        <ele>1383</ele>
        <time>2013-09-14T10:23:10.000Z</time>
      </trkpt>
      <trkpt lat="44.72304" lon="5.62393">
        <ele>1383</ele>
        <time>2013-09-14T10:23:15.000Z</time>
      </trkpt>
      <trkpt lat="44.72309" lon="5.62386">
        <ele>1383</ele>
        <time>2013-09-14T10:23:23.000Z</time>
      </trkpt>
      <trkpt lat="44.72314" lon="5.62384">
        <ele>1383</ele>
        <time>2013-09-14T10:23:28.000Z</time>
      </trkpt>
      <trkpt lat="44.72318" lon="5.62382">
        <ele>1384</ele>
        <time>2013-09-14T10:23:34.000Z</time>
      </trkpt>
      <trkpt lat="44.72318" lon="5.62382">
        <ele>1384</ele>
        <time>2013-09-14T10:23:34.000Z</time>
      </trkpt>
      <trkpt lat="44.72318" lon="5.62382">
        <ele>1384</ele>
        <time>2013-09-14T10:23:35.000Z</time>
      </trkpt>
      <trkpt lat="44.72323" lon="5.6238">
        <ele>1384</ele>
        <time>2013-09-14T10:23:41.000Z</time>
      </trkpt>
      <trkpt lat="44.72326" lon="5.62373">
        <ele>1384</ele>
        <time>2013-09-14T10:23:51.000Z</time>
      </trkpt>
      <trkpt lat="44.72325" lon="5.62367">
        <ele>1385</ele>
        <time>2013-09-14T10:24:10.000Z</time>
      </trkpt>
      <trkpt lat="44.72325" lon="5.62367">
        <ele>1385</ele>
        <time>2013-09-14T10:24:10.000Z</time>
      </trkpt>
      <trkpt lat="44.72325" lon="5.62367">
        <ele>1385</ele>
        <time>2013-09-14T10:24:20.000Z</time>
      </trkpt>
      <trkpt lat="44.72323" lon="5.62373">
        <ele>1386</ele>
        <time>2013-09-14T10:24:31.000Z</time>
      </trkpt>
      <trkpt lat="44.72324" lon="5.6238">
        <ele>1386</ele>
        <time>2013-09-14T10:24:34.000Z</time>
      </trkpt>
      <trkpt lat="44.72327" lon="5.62384">
        <ele>1387</ele>
        <time>2013-09-14T10:24:37.000Z</time>
      </trkpt>
      <trkpt lat="44.72331" lon="5.62388">
        <ele>1388</ele>
        <time>2013-09-14T10:24:41.000Z</time>
      </trkpt>
      <trkpt lat="44.72336" lon="5.62386">
        <ele>1389</ele>
        <time>2013-09-14T10:24:45.000Z</time>
      </trkpt>
      <trkpt lat="44.7234" lon="5.62382">
        <ele>1390</ele>
        <time>2013-09-14T10:24:49.000Z</time>
      </trkpt>
      <trkpt lat="44.72344" lon="5.62376">
        <ele>1391</ele>
        <time>2013-09-14T10:24:54.000Z</time>
      </trkpt>
      <trkpt lat="44.72348" lon="5.62369">
        <ele>1392</ele>
        <time>2013-09-14T10:24:59.000Z</time>
      </trkpt>
      <trkpt lat="44.72353" lon="5.62363">
        <ele>1393</ele>
        <time>2013-09-14T10:25:04.000Z</time>
      </trkpt>
      <trkpt lat="44.72357" lon="5.62358">
        <ele>1393</ele>
        <time>2013-09-14T10:25:08.000Z</time>
      </trkpt>
      <trkpt lat="44.72361" lon="5.62354">
        <ele>1394</ele>
        <time>2013-09-14T10:25:12.000Z</time>
      </trkpt>
      <trkpt lat="44.72366" lon="5.6235">
        <ele>1394</ele>
        <time>2013-09-14T10:25:15.000Z</time>
      </trkpt>
      <trkpt lat="44.7237" lon="5.62343">
        <ele>1395</ele>
        <time>2013-09-14T10:25:20.000Z</time>
      </trkpt>
      <trkpt lat="44.72373" lon="5.62337">
        <ele>1395</ele>
        <time>2013-09-14T10:25:24.000Z</time>
      </trkpt>
      <trkpt lat="44.72375" lon="5.6233">
        <ele>1396</ele>
        <time>2013-09-14T10:25:27.000Z</time>
      </trkpt>
      <trkpt lat="44.72379" lon="5.62324">
        <ele>1396</ele>
        <time>2013-09-14T10:25:31.000Z</time>
      </trkpt>
      <trkpt lat="44.72381" lon="5.62318">
        <ele>1397</ele>
        <time>2013-09-14T10:25:35.000Z</time>
      </trkpt>
      <trkpt lat="44.72383" lon="5.62311">
        <ele>1397</ele>
        <time>2013-09-14T10:25:40.000Z</time>
      </trkpt>
      <trkpt lat="44.72386" lon="5.62305">
        <ele>1398</ele>
        <time>2013-09-14T10:25:46.000Z</time>
      </trkpt>
      <trkpt lat="44.72388" lon="5.62298">
        <ele>1398</ele>
        <time>2013-09-14T10:25:51.000Z</time>
      </trkpt>
      <trkpt lat="44.72389" lon="5.62292">
        <ele>1399</ele>
        <time>2013-09-14T10:25:55.000Z</time>
      </trkpt>
      <trkpt lat="44.72389" lon="5.62285">
        <ele>1399</ele>
        <time>2013-09-14T10:25:59.000Z</time>
      </trkpt>
      <trkpt lat="44.72389" lon="5.62279">
        <ele>1400</ele>
        <time>2013-09-14T10:26:03.000Z</time>
      </trkpt>
      <trkpt lat="44.72388" lon="5.62272">
        <ele>1400</ele>
        <time>2013-09-14T10:26:06.000Z</time>
      </trkpt>
      <trkpt lat="44.72388" lon="5.62272">
        <ele>1400</ele>
        <time>2013-09-14T10:26:06.000Z</time>
      </trkpt>
      <trkpt lat="44.72388" lon="5.62272">
        <ele>1400</ele>
        <time>2013-09-14T10:26:07.000Z</time>
      </trkpt>
      <trkpt lat="44.72387" lon="5.62266">
        <ele>1400</ele>
        <time>2013-09-14T10:26:10.000Z</time>
      </trkpt>
      <trkpt lat="44.72386" lon="5.6226">
        <ele>1401</ele>
        <time>2013-09-14T10:26:14.000Z</time>
      </trkpt>
      <trkpt lat="44.72387" lon="5.62253">
        <ele>1401</ele>
        <time>2013-09-14T10:26:18.000Z</time>
      </trkpt>
      <trkpt lat="44.7239" lon="5.62247">
        <ele>1401</ele>
        <time>2013-09-14T10:26:24.000Z</time>
      </trkpt>
      <trkpt lat="44.7239" lon="5.6224">
        <ele>1402</ele>
        <time>2013-09-14T10:26:29.000Z</time>
      </trkpt>
      <trkpt lat="44.7239" lon="5.6224">
        <ele>1402</ele>
        <time>2013-09-14T10:26:29.000Z</time>
      </trkpt>
      <trkpt lat="44.7239" lon="5.6224">
        <ele>1402</ele>
        <time>2013-09-14T10:26:30.000Z</time>
      </trkpt>
      <trkpt lat="44.72391" lon="5.62234">
        <ele>1403</ele>
        <time>2013-09-14T10:26:35.000Z</time>
      </trkpt>
      <trkpt lat="44.72394" lon="5.62227">
        <ele>1403</ele>
        <time>2013-09-14T10:26:39.000Z</time>
      </trkpt>
      <trkpt lat="44.72397" lon="5.62221">
        <ele>1404</ele>
        <time>2013-09-14T10:26:43.000Z</time>
      </trkpt>
      <trkpt lat="44.72401" lon="5.62215">
        <ele>1404</ele>
        <time>2013-09-14T10:26:48.000Z</time>
      </trkpt>
      <trkpt lat="44.72405" lon="5.6221">
        <ele>1405</ele>
        <time>2013-09-14T10:26:52.000Z</time>
      </trkpt>
      <trkpt lat="44.72405" lon="5.6221">
        <ele>1405</ele>
        <time>2013-09-14T10:26:52.000Z</time>
      </trkpt>
      <trkpt lat="44.72405" lon="5.6221">
        <ele>1405</ele>
        <time>2013-09-14T10:26:53.000Z</time>
      </trkpt>
      <trkpt lat="44.7241" lon="5.62204">
        <ele>1405</ele>
        <time>2013-09-14T10:26:58.000Z</time>
      </trkpt>
      <trkpt lat="44.72414" lon="5.62202">
        <ele>1405</ele>
        <time>2013-09-14T10:27:02.000Z</time>
      </trkpt>
      <trkpt lat="44.72418" lon="5.622">
        <ele>1405</ele>
        <time>2013-09-14T10:27:06.000Z</time>
      </trkpt>
      <trkpt lat="44.72422" lon="5.62197">
        <ele>1406</ele>
        <time>2013-09-14T10:27:09.000Z</time>
      </trkpt>
      <trkpt lat="44.72428" lon="5.62197">
        <ele>1406</ele>
        <time>2013-09-14T10:27:13.000Z</time>
      </trkpt>
      <trkpt lat="44.72434" lon="5.62197">
        <ele>1406</ele>
        <time>2013-09-14T10:27:17.000Z</time>
      </trkpt>
      <trkpt lat="44.72439" lon="5.622">
        <ele>1406</ele>
        <time>2013-09-14T10:27:20.000Z</time>
      </trkpt>
      <trkpt lat="44.72444" lon="5.622">
        <ele>1406</ele>
        <time>2013-09-14T10:27:24.000Z</time>
      </trkpt>
      <trkpt lat="44.72449" lon="5.622">
        <ele>1406</ele>
        <time>2013-09-14T10:27:28.000Z</time>
      </trkpt>
      <trkpt lat="44.72455" lon="5.622">
        <ele>1406</ele>
        <time>2013-09-14T10:27:32.000Z</time>
      </trkpt>
      <trkpt lat="44.72459" lon="5.62202">
        <ele>1406</ele>
        <time>2013-09-14T10:27:34.000Z</time>
      </trkpt>
      <trkpt lat="44.72464" lon="5.62204">
        <ele>1406</ele>
        <time>2013-09-14T10:27:37.000Z</time>
      </trkpt>
      <trkpt lat="44.7247" lon="5.62206">
        <ele>1406</ele>
        <time>2013-09-14T10:27:40.000Z</time>
      </trkpt>
      <trkpt lat="44.72475" lon="5.6221">
        <ele>1406</ele>
        <time>2013-09-14T10:27:43.000Z</time>
      </trkpt>
      <trkpt lat="44.7248" lon="5.62212">
        <ele>1406</ele>
        <time>2013-09-14T10:27:46.000Z</time>
      </trkpt>
      <trkpt lat="44.72485" lon="5.62217">
        <ele>1406</ele>
        <time>2013-09-14T10:27:49.000Z</time>
      </trkpt>
      <trkpt lat="44.72489" lon="5.62221">
        <ele>1406</ele>
        <time>2013-09-14T10:27:52.000Z</time>
      </trkpt>
      <trkpt lat="44.72494" lon="5.62223">
        <ele>1406</ele>
        <time>2013-09-14T10:27:55.000Z</time>
      </trkpt>
      <trkpt lat="44.72499" lon="5.62227">
        <ele>1405</ele>
        <time>2013-09-14T10:27:58.000Z</time>
      </trkpt>
      <trkpt lat="44.72503" lon="5.6223">
        <ele>1405</ele>
        <time>2013-09-14T10:28:01.000Z</time>
      </trkpt>
      <trkpt lat="44.72508" lon="5.62232">
        <ele>1405</ele>
        <time>2013-09-14T10:28:05.000Z</time>
      </trkpt>
      <trkpt lat="44.72513" lon="5.62234">
        <ele>1405</ele>
        <time>2013-09-14T10:28:09.000Z</time>
      </trkpt>
      <trkpt lat="44.72519" lon="5.62236">
        <ele>1405</ele>
        <time>2013-09-14T10:28:13.000Z</time>
      </trkpt>
      <trkpt lat="44.72524" lon="5.62236">
        <ele>1404</ele>
        <time>2013-09-14T10:28:17.000Z</time>
      </trkpt>
      <trkpt lat="44.7253" lon="5.62238">
        <ele>1404</ele>
        <time>2013-09-14T10:28:21.000Z</time>
      </trkpt>
      <trkpt lat="44.72534" lon="5.6224">
        <ele>1404</ele>
        <time>2013-09-14T10:28:25.000Z</time>
      </trkpt>
      <trkpt lat="44.72538" lon="5.62242">
        <ele>1404</ele>
        <time>2013-09-14T10:28:28.000Z</time>
      </trkpt>
      <trkpt lat="44.72544" lon="5.62242">
        <ele>1404</ele>
        <time>2013-09-14T10:28:32.000Z</time>
      </trkpt>
      <trkpt lat="44.72548" lon="5.62245">
        <ele>1403</ele>
        <time>2013-09-14T10:28:35.000Z</time>
      </trkpt>
      <trkpt lat="44.72552" lon="5.62247">
        <ele>1403</ele>
        <time>2013-09-14T10:28:38.000Z</time>
      </trkpt>
      <trkpt lat="44.72557" lon="5.62249">
        <ele>1403</ele>
        <time>2013-09-14T10:28:41.000Z</time>
      </trkpt>
      <trkpt lat="44.72562" lon="5.62249">
        <ele>1403</ele>
        <time>2013-09-14T10:28:44.000Z</time>
      </trkpt>
      <trkpt lat="44.72566" lon="5.62253">
        <ele>1403</ele>
        <time>2013-09-14T10:28:47.000Z</time>
      </trkpt>
      <trkpt lat="44.72571" lon="5.62255">
        <ele>1402</ele>
        <time>2013-09-14T10:28:50.000Z</time>
      </trkpt>
      <trkpt lat="44.72575" lon="5.62258">
        <ele>1402</ele>
        <time>2013-09-14T10:28:53.000Z</time>
      </trkpt>
      <trkpt lat="44.72581" lon="5.6226">
        <ele>1402</ele>
        <time>2013-09-14T10:28:57.000Z</time>
      </trkpt>
      <trkpt lat="44.72586" lon="5.62262">
        <ele>1402</ele>
        <time>2013-09-14T10:29:00.000Z</time>
      </trkpt>
      <trkpt lat="44.72591" lon="5.62262">
        <ele>1402</ele>
        <time>2013-09-14T10:29:03.000Z</time>
      </trkpt>
      <trkpt lat="44.72595" lon="5.62264">
        <ele>1401</ele>
        <time>2013-09-14T10:29:06.000Z</time>
      </trkpt>
      <trkpt lat="44.72601" lon="5.62266">
        <ele>1401</ele>
        <time>2013-09-14T10:29:09.000Z</time>
      </trkpt>
      <trkpt lat="44.72607" lon="5.62266">
        <ele>1401</ele>
        <time>2013-09-14T10:29:13.000Z</time>
      </trkpt>
      <trkpt lat="44.72611" lon="5.62268">
        <ele>1401</ele>
        <time>2013-09-14T10:29:16.000Z</time>
      </trkpt>
      <trkpt lat="44.72617" lon="5.62268">
        <ele>1401</ele>
        <time>2013-09-14T10:29:19.000Z</time>
      </trkpt>
      <trkpt lat="44.72623" lon="5.62268">
        <ele>1400</ele>
        <time>2013-09-14T10:29:23.000Z</time>
      </trkpt>
      <trkpt lat="44.7263" lon="5.62268">
        <ele>1400</ele>
        <time>2013-09-14T10:29:27.000Z</time>
      </trkpt>
      <trkpt lat="44.72636" lon="5.62268">
        <ele>1400</ele>
        <time>2013-09-14T10:29:31.000Z</time>
      </trkpt>
      <trkpt lat="44.7264" lon="5.6227">
        <ele>1400</ele>
        <time>2013-09-14T10:29:34.000Z</time>
      </trkpt>
      <trkpt lat="44.72646" lon="5.6227">
        <ele>1400</ele>
        <time>2013-09-14T10:29:38.000Z</time>
      </trkpt>
      <trkpt lat="44.72652" lon="5.6227">
        <ele>1399</ele>
        <time>2013-09-14T10:29:42.000Z</time>
      </trkpt>
      <trkpt lat="44.72658" lon="5.62272">
        <ele>1399</ele>
        <time>2013-09-14T10:29:46.000Z</time>
      </trkpt>
      <trkpt lat="44.72662" lon="5.62275">
        <ele>1399</ele>
        <time>2013-09-14T10:29:49.000Z</time>
      </trkpt>
      <trkpt lat="44.72668" lon="5.62277">
        <ele>1399</ele>
        <time>2013-09-14T10:29:53.000Z</time>
      </trkpt>
      <trkpt lat="44.72674" lon="5.62277">
        <ele>1399</ele>
        <time>2013-09-14T10:29:57.000Z</time>
      </trkpt>
      <trkpt lat="44.72678" lon="5.62279">
        <ele>1399</ele>
        <time>2013-09-14T10:30:00.000Z</time>
      </trkpt>
      <trkpt lat="44.72682" lon="5.62281">
        <ele>1399</ele>
        <time>2013-09-14T10:30:03.000Z</time>
      </trkpt>
      <trkpt lat="44.72688" lon="5.62283">
        <ele>1399</ele>
        <time>2013-09-14T10:30:07.000Z</time>
      </trkpt>
      <trkpt lat="44.72692" lon="5.62285">
        <ele>1398</ele>
        <time>2013-09-14T10:30:11.000Z</time>
      </trkpt>
      <trkpt lat="44.72696" lon="5.62288">
        <ele>1398</ele>
        <time>2013-09-14T10:30:14.000Z</time>
      </trkpt>
      <trkpt lat="44.727" lon="5.6229">
        <ele>1398</ele>
        <time>2013-09-14T10:30:17.000Z</time>
      </trkpt>
      <trkpt lat="44.72706" lon="5.6229">
        <ele>1398</ele>
        <time>2013-09-14T10:30:21.000Z</time>
      </trkpt>
      <trkpt lat="44.72711" lon="5.62292">
        <ele>1398</ele>
        <time>2013-09-14T10:30:25.000Z</time>
      </trkpt>
      <trkpt lat="44.72716" lon="5.6229">
        <ele>1398</ele>
        <time>2013-09-14T10:30:29.000Z</time>
      </trkpt>
      <trkpt lat="44.72721" lon="5.62292">
        <ele>1398</ele>
        <time>2013-09-14T10:30:32.000Z</time>
      </trkpt>
      <trkpt lat="44.72726" lon="5.62292">
        <ele>1398</ele>
        <time>2013-09-14T10:30:36.000Z</time>
      </trkpt>
      <trkpt lat="44.72732" lon="5.62294">
        <ele>1398</ele>
        <time>2013-09-14T10:30:40.000Z</time>
      </trkpt>
      <trkpt lat="44.72736" lon="5.62296">
        <ele>1398</ele>
        <time>2013-09-14T10:30:44.000Z</time>
      </trkpt>
      <trkpt lat="44.72741" lon="5.62298">
        <ele>1397</ele>
        <time>2013-09-14T10:30:48.000Z</time>
      </trkpt>
      <trkpt lat="44.72746" lon="5.623">
        <ele>1397</ele>
        <time>2013-09-14T10:30:52.000Z</time>
      </trkpt>
      <trkpt lat="44.72751" lon="5.62302">
        <ele>1397</ele>
        <time>2013-09-14T10:30:56.000Z</time>
      </trkpt>
      <trkpt lat="44.72755" lon="5.62305">
        <ele>1397</ele>
        <time>2013-09-14T10:31:00.000Z</time>
      </trkpt>
      <trkpt lat="44.7276" lon="5.62305">
        <ele>1397</ele>
        <time>2013-09-14T10:31:04.000Z</time>
      </trkpt>
      <trkpt lat="44.72766" lon="5.62305">
        <ele>1397</ele>
        <time>2013-09-14T10:31:08.000Z</time>
      </trkpt>
      <trkpt lat="44.72772" lon="5.62305">
        <ele>1397</ele>
        <time>2013-09-14T10:31:13.000Z</time>
      </trkpt>
      <trkpt lat="44.72778" lon="5.62305">
        <ele>1397</ele>
        <time>2013-09-14T10:31:18.000Z</time>
      </trkpt>
      <trkpt lat="44.72783" lon="5.62307">
        <ele>1397</ele>
        <time>2013-09-14T10:31:22.000Z</time>
      </trkpt>
      <trkpt lat="44.72788" lon="5.62309">
        <ele>1397</ele>
        <time>2013-09-14T10:31:27.000Z</time>
      </trkpt>
      <trkpt lat="44.72794" lon="5.62309">
        <ele>1397</ele>
        <time>2013-09-14T10:31:31.000Z</time>
      </trkpt>
      <trkpt lat="44.72798" lon="5.62311">
        <ele>1396</ele>
        <time>2013-09-14T10:31:35.000Z</time>
      </trkpt>
      <trkpt lat="44.72803" lon="5.62313">
        <ele>1396</ele>
        <time>2013-09-14T10:31:39.000Z</time>
      </trkpt>
      <trkpt lat="44.72808" lon="5.62311">
        <ele>1396</ele>
        <time>2013-09-14T10:31:44.000Z</time>
      </trkpt>
      <trkpt lat="44.72808" lon="5.62311">
        <ele>1396</ele>
        <time>2013-09-14T10:31:44.000Z</time>
      </trkpt>
      <trkpt lat="44.72808" lon="5.62311">
        <ele>1396</ele>
        <time>2013-09-14T10:31:45.000Z</time>
      </trkpt>
      <trkpt lat="44.72813" lon="5.62311">
        <ele>1396</ele>
        <time>2013-09-14T10:31:56.000Z</time>
      </trkpt>
      <trkpt lat="44.72817" lon="5.62313">
        <ele>1396</ele>
        <time>2013-09-14T10:32:01.000Z</time>
      </trkpt>
      <trkpt lat="44.72822" lon="5.62318">
        <ele>1396</ele>
        <time>2013-09-14T10:32:06.000Z</time>
      </trkpt>
      <trkpt lat="44.72826" lon="5.6232">
        <ele>1396</ele>
        <time>2013-09-14T10:32:10.000Z</time>
      </trkpt>
      <trkpt lat="44.72826" lon="5.6232">
        <ele>1396</ele>
        <time>2013-09-14T10:32:10.000Z</time>
      </trkpt>
      <trkpt lat="44.72826" lon="5.6232">
        <ele>1396</ele>
        <time>2013-09-14T10:32:11.000Z</time>
      </trkpt>
      <trkpt lat="44.7283" lon="5.62324">
        <ele>1396</ele>
        <time>2013-09-14T10:32:15.000Z</time>
      </trkpt>
      <trkpt lat="44.7283" lon="5.62324">
        <ele>1396</ele>
        <time>2013-09-14T10:32:15.000Z</time>
      </trkpt>
      <trkpt lat="44.7283" lon="5.62324">
        <ele>1396</ele>
        <time>2013-09-14T10:32:16.000Z</time>
      </trkpt>
      <trkpt lat="44.72834" lon="5.62326">
        <ele>1396</ele>
        <time>2013-09-14T10:32:20.000Z</time>
      </trkpt>
      <trkpt lat="44.7284" lon="5.62328">
        <ele>1397</ele>
        <time>2013-09-14T10:32:25.000Z</time>
      </trkpt>
      <trkpt lat="44.72845" lon="5.62328">
        <ele>1397</ele>
        <time>2013-09-14T10:32:30.000Z</time>
      </trkpt>
      <trkpt lat="44.7285" lon="5.6233">
        <ele>1397</ele>
        <time>2013-09-14T10:32:34.000Z</time>
      </trkpt>
      <trkpt lat="44.72855" lon="5.6233">
        <ele>1397</ele>
        <time>2013-09-14T10:32:39.000Z</time>
      </trkpt>
      <trkpt lat="44.72859" lon="5.62333">
        <ele>1397</ele>
        <time>2013-09-14T10:32:43.000Z</time>
      </trkpt>
      <trkpt lat="44.72865" lon="5.62333">
        <ele>1397</ele>
        <time>2013-09-14T10:32:48.000Z</time>
      </trkpt>
      <trkpt lat="44.72869" lon="5.62335">
        <ele>1397</ele>
        <time>2013-09-14T10:32:51.000Z</time>
      </trkpt>
      <trkpt lat="44.72874" lon="5.62335">
        <ele>1397</ele>
        <time>2013-09-14T10:32:56.000Z</time>
      </trkpt>
      <trkpt lat="44.72878" lon="5.62337">
        <ele>1397</ele>
        <time>2013-09-14T10:33:00.000Z</time>
      </trkpt>
      <trkpt lat="44.72884" lon="5.62337">
        <ele>1397</ele>
        <time>2013-09-14T10:33:04.000Z</time>
      </trkpt>
      <trkpt lat="44.72889" lon="5.62337">
        <ele>1397</ele>
        <time>2013-09-14T10:33:09.000Z</time>
      </trkpt>
      <trkpt lat="44.72895" lon="5.62337">
        <ele>1397</ele>
        <time>2013-09-14T10:33:13.000Z</time>
      </trkpt>
      <trkpt lat="44.729" lon="5.62339">
        <ele>1397</ele>
        <time>2013-09-14T10:33:17.000Z</time>
      </trkpt>
      <trkpt lat="44.72904" lon="5.62341">
        <ele>1397</ele>
        <time>2013-09-14T10:33:20.000Z</time>
      </trkpt>
      <trkpt lat="44.7291" lon="5.62343">
        <ele>1397</ele>
        <time>2013-09-14T10:33:24.000Z</time>
      </trkpt>
      <trkpt lat="44.72914" lon="5.62346">
        <ele>1397</ele>
        <time>2013-09-14T10:33:28.000Z</time>
      </trkpt>
      <trkpt lat="44.72919" lon="5.62348">
        <ele>1397</ele>
        <time>2013-09-14T10:33:32.000Z</time>
      </trkpt>
      <trkpt lat="44.72926" lon="5.62348">
        <ele>1397</ele>
        <time>2013-09-14T10:33:36.000Z</time>
      </trkpt>
      <trkpt lat="44.72931" lon="5.6235">
        <ele>1397</ele>
        <time>2013-09-14T10:33:40.000Z</time>
      </trkpt>
      <trkpt lat="44.72935" lon="5.62352">
        <ele>1397</ele>
        <time>2013-09-14T10:33:44.000Z</time>
      </trkpt>
      <trkpt lat="44.7294" lon="5.62354">
        <ele>1397</ele>
        <time>2013-09-14T10:33:47.000Z</time>
      </trkpt>
      <trkpt lat="44.72944" lon="5.62356">
        <ele>1396</ele>
        <time>2013-09-14T10:33:51.000Z</time>
      </trkpt>
      <trkpt lat="44.72949" lon="5.62358">
        <ele>1396</ele>
        <time>2013-09-14T10:33:55.000Z</time>
      </trkpt>
      <trkpt lat="44.72954" lon="5.6236">
        <ele>1396</ele>
        <time>2013-09-14T10:33:59.000Z</time>
      </trkpt>
      <trkpt lat="44.72958" lon="5.62363">
        <ele>1396</ele>
        <time>2013-09-14T10:34:03.000Z</time>
      </trkpt>
      <trkpt lat="44.72962" lon="5.62365">
        <ele>1396</ele>
        <time>2013-09-14T10:34:07.000Z</time>
      </trkpt>
      <trkpt lat="44.72966" lon="5.62367">
        <ele>1396</ele>
        <time>2013-09-14T10:34:11.000Z</time>
      </trkpt>
      <trkpt lat="44.72971" lon="5.62369">
        <ele>1396</ele>
        <time>2013-09-14T10:34:16.000Z</time>
      </trkpt>
      <trkpt lat="44.72975" lon="5.62371">
        <ele>1396</ele>
        <time>2013-09-14T10:34:19.000Z</time>
      </trkpt>
      <trkpt lat="44.72979" lon="5.62376">
        <ele>1396</ele>
        <time>2013-09-14T10:34:23.000Z</time>
      </trkpt>
      <trkpt lat="44.72984" lon="5.62378">
        <ele>1396</ele>
        <time>2013-09-14T10:34:27.000Z</time>
      </trkpt>
      <trkpt lat="44.72988" lon="5.62382">
        <ele>1396</ele>
        <time>2013-09-14T10:34:32.000Z</time>
      </trkpt>
      <trkpt lat="44.72992" lon="5.62384">
        <ele>1396</ele>
        <time>2013-09-14T10:34:36.000Z</time>
      </trkpt>
      <trkpt lat="44.72996" lon="5.62386">
        <ele>1396</ele>
        <time>2013-09-14T10:34:41.000Z</time>
      </trkpt>
      <trkpt lat="44.73001" lon="5.62388">
        <ele>1396</ele>
        <time>2013-09-14T10:34:45.000Z</time>
      </trkpt>
      <trkpt lat="44.73005" lon="5.6239">
        <ele>1396</ele>
        <time>2013-09-14T10:34:49.000Z</time>
      </trkpt>
      <trkpt lat="44.73009" lon="5.62393">
        <ele>1396</ele>
        <time>2013-09-14T10:34:53.000Z</time>
      </trkpt>
      <trkpt lat="44.73014" lon="5.62395">
        <ele>1396</ele>
        <time>2013-09-14T10:34:57.000Z</time>
      </trkpt>
      <trkpt lat="44.73019" lon="5.62397">
        <ele>1396</ele>
        <time>2013-09-14T10:35:01.000Z</time>
      </trkpt>
      <trkpt lat="44.73019" lon="5.62397">
        <ele>1396</ele>
        <time>2013-09-14T10:35:01.000Z</time>
      </trkpt>
      <trkpt lat="44.73019" lon="5.62397">
        <ele>1396</ele>
        <time>2013-09-14T10:35:02.000Z</time>
      </trkpt>
      <trkpt lat="44.73023" lon="5.62399">
        <ele>1396</ele>
        <time>2013-09-14T10:35:06.000Z</time>
      </trkpt>
      <trkpt lat="44.73028" lon="5.62403">
        <ele>1396</ele>
        <time>2013-09-14T10:35:10.000Z</time>
      </trkpt>
      <trkpt lat="44.73032" lon="5.62408">
        <ele>1396</ele>
        <time>2013-09-14T10:35:15.000Z</time>
      </trkpt>
      <trkpt lat="44.73036" lon="5.62412">
        <ele>1395</ele>
        <time>2013-09-14T10:35:19.000Z</time>
      </trkpt>
      <trkpt lat="44.73036" lon="5.62412">
        <ele>1395</ele>
        <time>2013-09-14T10:35:19.000Z</time>
      </trkpt>
      <trkpt lat="44.73036" lon="5.62412">
        <ele>1395</ele>
        <time>2013-09-14T10:35:20.000Z</time>
      </trkpt>
      <trkpt lat="44.7304" lon="5.62416">
        <ele>1395</ele>
        <time>2013-09-14T10:35:23.000Z</time>
      </trkpt>
      <trkpt lat="44.7304" lon="5.62416">
        <ele>1395</ele>
        <time>2013-09-14T10:35:23.000Z</time>
      </trkpt>
      <trkpt lat="44.7304" lon="5.62416">
        <ele>1395</ele>
        <time>2013-09-14T10:35:24.000Z</time>
      </trkpt>
      <trkpt lat="44.73044" lon="5.62421">
        <ele>1395</ele>
        <time>2013-09-14T10:35:29.000Z</time>
      </trkpt>
      <trkpt lat="44.73047" lon="5.62425">
        <ele>1395</ele>
        <time>2013-09-14T10:35:32.000Z</time>
      </trkpt>
      <trkpt lat="44.73047" lon="5.62425">
        <ele>1395</ele>
        <time>2013-09-14T10:35:32.000Z</time>
      </trkpt>
      <trkpt lat="44.73047" lon="5.62425">
        <ele>1395</ele>
        <time>2013-09-14T10:35:33.000Z</time>
      </trkpt>
      <trkpt lat="44.73051" lon="5.62427">
        <ele>1395</ele>
        <time>2013-09-14T10:35:37.000Z</time>
      </trkpt>
      <trkpt lat="44.73056" lon="5.62433">
        <ele>1395</ele>
        <time>2013-09-14T10:35:43.000Z</time>
      </trkpt>
      <trkpt lat="44.7306" lon="5.62438">
        <ele>1395</ele>
        <time>2013-09-14T10:35:48.000Z</time>
      </trkpt>
      <trkpt lat="44.73063" lon="5.62442">
        <ele>1395</ele>
        <time>2013-09-14T10:35:52.000Z</time>
      </trkpt>
      <trkpt lat="44.73067" lon="5.62446">
        <ele>1395</ele>
        <time>2013-09-14T10:35:57.000Z</time>
      </trkpt>
      <trkpt lat="44.73072" lon="5.62451">
        <ele>1395</ele>
        <time>2013-09-14T10:36:02.000Z</time>
      </trkpt>
      <trkpt lat="44.73076" lon="5.62453">
        <ele>1395</ele>
        <time>2013-09-14T10:36:06.000Z</time>
      </trkpt>
      <trkpt lat="44.7308" lon="5.62457">
        <ele>1395</ele>
        <time>2013-09-14T10:36:10.000Z</time>
      </trkpt>
      <trkpt lat="44.73084" lon="5.62459">
        <ele>1395</ele>
        <time>2013-09-14T10:36:14.000Z</time>
      </trkpt>
      <trkpt lat="44.73089" lon="5.62461">
        <ele>1395</ele>
        <time>2013-09-14T10:36:19.000Z</time>
      </trkpt>
      <trkpt lat="44.73093" lon="5.62466">
        <ele>1395</ele>
        <time>2013-09-14T10:36:24.000Z</time>
      </trkpt>
      <trkpt lat="44.73097" lon="5.6247">
        <ele>1396</ele>
        <time>2013-09-14T10:36:28.000Z</time>
      </trkpt>
      <trkpt lat="44.73102" lon="5.62472">
        <ele>1396</ele>
        <time>2013-09-14T10:36:33.000Z</time>
      </trkpt>
      <trkpt lat="44.73106" lon="5.62474">
        <ele>1396</ele>
        <time>2013-09-14T10:36:37.000Z</time>
      </trkpt>
      <trkpt lat="44.7311" lon="5.62476">
        <ele>1396</ele>
        <time>2013-09-14T10:36:41.000Z</time>
      </trkpt>
      <trkpt lat="44.73116" lon="5.62476">
        <ele>1396</ele>
        <time>2013-09-14T10:36:46.000Z</time>
      </trkpt>
      <trkpt lat="44.73121" lon="5.62476">
        <ele>1396</ele>
        <time>2013-09-14T10:36:51.000Z</time>
      </trkpt>
      <trkpt lat="44.73125" lon="5.62478">
        <ele>1396</ele>
        <time>2013-09-14T10:36:54.000Z</time>
      </trkpt>
      <trkpt lat="44.7313" lon="5.62476">
        <ele>1396</ele>
        <time>2013-09-14T10:36:59.000Z</time>
      </trkpt>
      <trkpt lat="44.73134" lon="5.62478">
        <ele>1396</ele>
        <time>2013-09-14T10:37:09.000Z</time>
      </trkpt>
      <trkpt lat="44.73134" lon="5.62478">
        <ele>1396</ele>
        <time>2013-09-14T10:37:09.000Z</time>
      </trkpt>
      <trkpt lat="44.73134" lon="5.62478">
        <ele>1396</ele>
        <time>2013-09-14T10:37:13.000Z</time>
      </trkpt>
      <trkpt lat="44.73138" lon="5.62476">
        <ele>1396</ele>
        <time>2013-09-14T10:37:25.000Z</time>
      </trkpt>
      <trkpt lat="44.73138" lon="5.62476">
        <ele>1396</ele>
        <time>2013-09-14T10:37:25.000Z</time>
      </trkpt>
      <trkpt lat="44.73138" lon="5.62476">
        <ele>1396</ele>
        <time>2013-09-14T10:37:28.000Z</time>
      </trkpt>
      <trkpt lat="44.73142" lon="5.62474">
        <ele>1396</ele>
        <time>2013-09-14T10:37:43.000Z</time>
      </trkpt>
      <trkpt lat="44.73148" lon="5.62474">
        <ele>1396</ele>
        <time>2013-09-14T10:37:51.000Z</time>
      </trkpt>
      <trkpt lat="44.73153" lon="5.62474">
        <ele>1396</ele>
        <time>2013-09-14T10:37:58.000Z</time>
      </trkpt>
      <trkpt lat="44.73158" lon="5.62472">
        <ele>1396</ele>
        <time>2013-09-14T10:38:03.000Z</time>
      </trkpt>
      <trkpt lat="44.73163" lon="5.62472">
        <ele>1396</ele>
        <time>2013-09-14T10:38:07.000Z</time>
      </trkpt>
      <trkpt lat="44.73167" lon="5.62474">
        <ele>1396</ele>
        <time>2013-09-14T10:38:10.000Z</time>
      </trkpt>
      <trkpt lat="44.73172" lon="5.62476">
        <ele>1396</ele>
        <time>2013-09-14T10:38:13.000Z</time>
      </trkpt>
      <trkpt lat="44.73178" lon="5.62481">
        <ele>1396</ele>
        <time>2013-09-14T10:38:16.000Z</time>
      </trkpt>
      <trkpt lat="44.73183" lon="5.62483">
        <ele>1396</ele>
        <time>2013-09-14T10:38:19.000Z</time>
      </trkpt>
      <trkpt lat="44.73189" lon="5.62487">
        <ele>1396</ele>
        <time>2013-09-14T10:38:22.000Z</time>
      </trkpt>
      <trkpt lat="44.73193" lon="5.62489">
        <ele>1396</ele>
        <time>2013-09-14T10:38:25.000Z</time>
      </trkpt>
      <trkpt lat="44.73197" lon="5.62494">
        <ele>1396</ele>
        <time>2013-09-14T10:38:28.000Z</time>
      </trkpt>
      <trkpt lat="44.73202" lon="5.62496">
        <ele>1396</ele>
        <time>2013-09-14T10:38:31.000Z</time>
      </trkpt>
      <trkpt lat="44.73206" lon="5.625">
        <ele>1396</ele>
        <time>2013-09-14T10:38:34.000Z</time>
      </trkpt>
      <trkpt lat="44.7321" lon="5.62504">
        <ele>1396</ele>
        <time>2013-09-14T10:38:38.000Z</time>
      </trkpt>
      <trkpt lat="44.73215" lon="5.62508">
        <ele>1395</ele>
        <time>2013-09-14T10:38:42.000Z</time>
      </trkpt>
      <trkpt lat="44.73215" lon="5.62508">
        <ele>1395</ele>
        <time>2013-09-14T10:38:42.000Z</time>
      </trkpt>
      <trkpt lat="44.73215" lon="5.62508">
        <ele>1395</ele>
        <time>2013-09-14T10:38:43.000Z</time>
      </trkpt>
      <trkpt lat="44.7322" lon="5.62513">
        <ele>1395</ele>
        <time>2013-09-14T10:38:47.000Z</time>
      </trkpt>
      <trkpt lat="44.73224" lon="5.62515">
        <ele>1395</ele>
        <time>2013-09-14T10:38:51.000Z</time>
      </trkpt>
      <trkpt lat="44.73228" lon="5.62517">
        <ele>1395</ele>
        <time>2013-09-14T10:38:55.000Z</time>
      </trkpt>
      <trkpt lat="44.73233" lon="5.62519">
        <ele>1395</ele>
        <time>2013-09-14T10:38:59.000Z</time>
      </trkpt>
      <trkpt lat="44.73237" lon="5.62521">
        <ele>1395</ele>
        <time>2013-09-14T10:39:03.000Z</time>
      </trkpt>
      <trkpt lat="44.73242" lon="5.62521">
        <ele>1395</ele>
        <time>2013-09-14T10:39:07.000Z</time>
      </trkpt>
      <trkpt lat="44.73246" lon="5.62524">
        <ele>1395</ele>
        <time>2013-09-14T10:39:11.000Z</time>
      </trkpt>
      <trkpt lat="44.73252" lon="5.62526">
        <ele>1395</ele>
        <time>2013-09-14T10:39:15.000Z</time>
      </trkpt>
      <trkpt lat="44.73256" lon="5.62528">
        <ele>1395</ele>
        <time>2013-09-14T10:39:19.000Z</time>
      </trkpt>
      <trkpt lat="44.7326" lon="5.6253">
        <ele>1395</ele>
        <time>2013-09-14T10:39:22.000Z</time>
      </trkpt>
      <trkpt lat="44.73265" lon="5.62532">
        <ele>1395</ele>
        <time>2013-09-14T10:39:25.000Z</time>
      </trkpt>
      <trkpt lat="44.7327" lon="5.62532">
        <ele>1395</ele>
        <time>2013-09-14T10:39:29.000Z</time>
      </trkpt>
      <trkpt lat="44.73274" lon="5.62534">
        <ele>1395</ele>
        <time>2013-09-14T10:39:32.000Z</time>
      </trkpt>
      <trkpt lat="44.73279" lon="5.62536">
        <ele>1395</ele>
        <time>2013-09-14T10:39:36.000Z</time>
      </trkpt>
      <trkpt lat="44.73284" lon="5.62539">
        <ele>1395</ele>
        <time>2013-09-14T10:39:40.000Z</time>
      </trkpt>
      <trkpt lat="44.7329" lon="5.62539">
        <ele>1395</ele>
        <time>2013-09-14T10:39:45.000Z</time>
      </trkpt>
      <trkpt lat="44.73295" lon="5.62536">
        <ele>1395</ele>
        <time>2013-09-14T10:39:49.000Z</time>
      </trkpt>
      <trkpt lat="44.73299" lon="5.62534">
        <ele>1395</ele>
        <time>2013-09-14T10:39:52.000Z</time>
      </trkpt>
      <trkpt lat="44.73304" lon="5.62534">
        <ele>1395</ele>
        <time>2013-09-14T10:39:56.000Z</time>
      </trkpt>
      <trkpt lat="44.7331" lon="5.62534">
        <ele>1395</ele>
        <time>2013-09-14T10:40:00.000Z</time>
      </trkpt>
      <trkpt lat="44.73314" lon="5.62536">
        <ele>1395</ele>
        <time>2013-09-14T10:40:04.000Z</time>
      </trkpt>
      <trkpt lat="44.73321" lon="5.62536">
        <ele>1395</ele>
        <time>2013-09-14T10:40:09.000Z</time>
      </trkpt>
      <trkpt lat="44.73325" lon="5.62539">
        <ele>1394</ele>
        <time>2013-09-14T10:40:13.000Z</time>
      </trkpt>
      <trkpt lat="44.7333" lon="5.62541">
        <ele>1394</ele>
        <time>2013-09-14T10:40:18.000Z</time>
      </trkpt>
      <trkpt lat="44.73334" lon="5.62543">
        <ele>1394</ele>
        <time>2013-09-14T10:40:22.000Z</time>
      </trkpt>
      <trkpt lat="44.7334" lon="5.62545">
        <ele>1394</ele>
        <time>2013-09-14T10:40:27.000Z</time>
      </trkpt>
      <trkpt lat="44.73345" lon="5.62545">
        <ele>1394</ele>
        <time>2013-09-14T10:40:31.000Z</time>
      </trkpt>
      <trkpt lat="44.7335" lon="5.62547">
        <ele>1394</ele>
        <time>2013-09-14T10:40:35.000Z</time>
      </trkpt>
      <trkpt lat="44.73355" lon="5.62549">
        <ele>1394</ele>
        <time>2013-09-14T10:40:39.000Z</time>
      </trkpt>
      <trkpt lat="44.73359" lon="5.62551">
        <ele>1394</ele>
        <time>2013-09-14T10:40:43.000Z</time>
      </trkpt>
      <trkpt lat="44.73364" lon="5.62551">
        <ele>1394</ele>
        <time>2013-09-14T10:40:47.000Z</time>
      </trkpt>
      <trkpt lat="44.73369" lon="5.62554">
        <ele>1394</ele>
        <time>2013-09-14T10:40:52.000Z</time>
      </trkpt>
      <trkpt lat="44.73374" lon="5.62554">
        <ele>1394</ele>
        <time>2013-09-14T10:40:57.000Z</time>
      </trkpt>
      <trkpt lat="44.7338" lon="5.62554">
        <ele>1394</ele>
        <time>2013-09-14T10:41:03.000Z</time>
      </trkpt>
      <trkpt lat="44.73385" lon="5.62554">
        <ele>1395</ele>
        <time>2013-09-14T10:41:08.000Z</time>
      </trkpt>
      <trkpt lat="44.7339" lon="5.62554">
        <ele>1395</ele>
        <time>2013-09-14T10:41:14.000Z</time>
      </trkpt>
      <trkpt lat="44.73395" lon="5.62558">
        <ele>1395</ele>
        <time>2013-09-14T10:41:19.000Z</time>
      </trkpt>
      <trkpt lat="44.73399" lon="5.6256">
        <ele>1395</ele>
        <time>2013-09-14T10:41:23.000Z</time>
      </trkpt>
      <trkpt lat="44.73399" lon="5.6256">
        <ele>1395</ele>
        <time>2013-09-14T10:41:23.000Z</time>
      </trkpt>
      <trkpt lat="44.73399" lon="5.6256">
        <ele>1395</ele>
        <time>2013-09-14T10:41:24.000Z</time>
      </trkpt>
      <trkpt lat="44.73403" lon="5.62562">
        <ele>1395</ele>
        <time>2013-09-14T10:41:28.000Z</time>
      </trkpt>
      <trkpt lat="44.73408" lon="5.62564">
        <ele>1395</ele>
        <time>2013-09-14T10:41:31.000Z</time>
      </trkpt>
      <trkpt lat="44.73412" lon="5.62566">
        <ele>1395</ele>
        <time>2013-09-14T10:41:35.000Z</time>
      </trkpt>
      <trkpt lat="44.73416" lon="5.62569">
        <ele>1396</ele>
        <time>2013-09-14T10:41:39.000Z</time>
      </trkpt>
      <trkpt lat="44.7342" lon="5.62571">
        <ele>1396</ele>
        <time>2013-09-14T10:41:43.000Z</time>
      </trkpt>
      <trkpt lat="44.73425" lon="5.62573">
        <ele>1396</ele>
        <time>2013-09-14T10:41:48.000Z</time>
      </trkpt>
      <trkpt lat="44.7343" lon="5.62573">
        <ele>1396</ele>
        <time>2013-09-14T10:41:53.000Z</time>
      </trkpt>
      <trkpt lat="44.73435" lon="5.62575">
        <ele>1396</ele>
        <time>2013-09-14T10:41:57.000Z</time>
      </trkpt>
      <trkpt lat="44.73441" lon="5.62577">
        <ele>1396</ele>
        <time>2013-09-14T10:42:01.000Z</time>
      </trkpt>
      <trkpt lat="44.73445" lon="5.62579">
        <ele>1397</ele>
        <time>2013-09-14T10:42:05.000Z</time>
      </trkpt>
      <trkpt lat="44.73447" lon="5.62573">
        <ele>1397</ele>
        <time>2013-09-14T10:42:10.000Z</time>
      </trkpt>
      <trkpt lat="44.73446" lon="5.62566">
        <ele>1397</ele>
        <time>2013-09-14T10:42:13.000Z</time>
      </trkpt>
      <trkpt lat="44.73445" lon="5.6256">
        <ele>1398</ele>
        <time>2013-09-14T10:42:16.000Z</time>
      </trkpt>
      <trkpt lat="44.73445" lon="5.6256">
        <ele>1398</ele>
        <time>2013-09-14T10:42:16.000Z</time>
      </trkpt>
      <trkpt lat="44.73445" lon="5.6256">
        <ele>1398</ele>
        <time>2013-09-14T10:42:17.000Z</time>
      </trkpt>
      <trkpt lat="44.73443" lon="5.62554">
        <ele>1398</ele>
        <time>2013-09-14T10:42:20.000Z</time>
      </trkpt>
      <trkpt lat="44.73443" lon="5.62554">
        <ele>1398</ele>
        <time>2013-09-14T10:42:20.000Z</time>
      </trkpt>
      <trkpt lat="44.73443" lon="5.62554">
        <ele>1398</ele>
        <time>2013-09-14T10:42:21.000Z</time>
      </trkpt>
      <trkpt lat="44.7344" lon="5.62547">
        <ele>1399</ele>
        <time>2013-09-14T10:42:25.000Z</time>
      </trkpt>
      <trkpt lat="44.73438" lon="5.62541">
        <ele>1399</ele>
        <time>2013-09-14T10:42:29.000Z</time>
      </trkpt>
      <trkpt lat="44.73435" lon="5.62534">
        <ele>1400</ele>
        <time>2013-09-14T10:42:33.000Z</time>
      </trkpt>
      <trkpt lat="44.73434" lon="5.62528">
        <ele>1400</ele>
        <time>2013-09-14T10:42:36.000Z</time>
      </trkpt>
      <trkpt lat="44.73434" lon="5.62528">
        <ele>1400</ele>
        <time>2013-09-14T10:42:36.000Z</time>
      </trkpt>
      <trkpt lat="44.73434" lon="5.62528">
        <ele>1400</ele>
        <time>2013-09-14T10:42:37.000Z</time>
      </trkpt>
      <trkpt lat="44.73432" lon="5.62521">
        <ele>1400</ele>
        <time>2013-09-14T10:42:41.000Z</time>
      </trkpt>
      <trkpt lat="44.73431" lon="5.62515">
        <ele>1401</ele>
        <time>2013-09-14T10:42:45.000Z</time>
      </trkpt>
      <trkpt lat="44.73431" lon="5.62515">
        <ele>1401</ele>
        <time>2013-09-14T10:42:45.000Z</time>
      </trkpt>
      <trkpt lat="44.73431" lon="5.62515">
        <ele>1401</ele>
        <time>2013-09-14T10:42:46.000Z</time>
      </trkpt>
      <trkpt lat="44.7343" lon="5.62508">
        <ele>1401</ele>
        <time>2013-09-14T10:42:49.000Z</time>
      </trkpt>
      <trkpt lat="44.73429" lon="5.62502">
        <ele>1402</ele>
        <time>2013-09-14T10:42:53.000Z</time>
      </trkpt>
      <trkpt lat="44.73429" lon="5.62496">
        <ele>1402</ele>
        <time>2013-09-14T10:42:56.000Z</time>
      </trkpt>
      <trkpt lat="44.73431" lon="5.62489">
        <ele>1402</ele>
        <time>2013-09-14T10:43:00.000Z</time>
      </trkpt>
      <trkpt lat="44.73432" lon="5.62483">
        <ele>1402</ele>
        <time>2013-09-14T10:43:03.000Z</time>
      </trkpt>
      <trkpt lat="44.73432" lon="5.62483">
        <ele>1402</ele>
        <time>2013-09-14T10:43:03.000Z</time>
      </trkpt>
      <trkpt lat="44.73432" lon="5.62483">
        <ele>1402</ele>
        <time>2013-09-14T10:43:04.000Z</time>
      </trkpt>
      <trkpt lat="44.73433" lon="5.62476">
        <ele>1403</ele>
        <time>2013-09-14T10:43:07.000Z</time>
      </trkpt>
      <trkpt lat="44.73433" lon="5.62476">
        <ele>1403</ele>
        <time>2013-09-14T10:43:07.000Z</time>
      </trkpt>
      <trkpt lat="44.73433" lon="5.62476">
        <ele>1403</ele>
        <time>2013-09-14T10:43:08.000Z</time>
      </trkpt>
      <trkpt lat="44.73433" lon="5.6247">
        <ele>1403</ele>
        <time>2013-09-14T10:43:11.000Z</time>
      </trkpt>
      <trkpt lat="44.73434" lon="5.62464">
        <ele>1403</ele>
        <time>2013-09-14T10:43:15.000Z</time>
      </trkpt>
      <trkpt lat="44.73435" lon="5.62457">
        <ele>1404</ele>
        <time>2013-09-14T10:43:19.000Z</time>
      </trkpt>
      <trkpt lat="44.73438" lon="5.62451">
        <ele>1404</ele>
        <time>2013-09-14T10:43:23.000Z</time>
      </trkpt>
      <trkpt lat="44.73439" lon="5.62444">
        <ele>1404</ele>
        <time>2013-09-14T10:43:27.000Z</time>
      </trkpt>
      <trkpt lat="44.73439" lon="5.62438">
        <ele>1404</ele>
        <time>2013-09-14T10:43:30.000Z</time>
      </trkpt>
      <trkpt lat="44.73441" lon="5.62431">
        <ele>1404</ele>
        <time>2013-09-14T10:43:34.000Z</time>
      </trkpt>
      <trkpt lat="44.73441" lon="5.62425">
        <ele>1405</ele>
        <time>2013-09-14T10:43:37.000Z</time>
      </trkpt>
      <trkpt lat="44.7344" lon="5.62418">
        <ele>1405</ele>
        <time>2013-09-14T10:43:41.000Z</time>
      </trkpt>
      <trkpt lat="44.73439" lon="5.62412">
        <ele>1405</ele>
        <time>2013-09-14T10:43:45.000Z</time>
      </trkpt>
      <trkpt lat="44.73438" lon="5.62406">
        <ele>1405</ele>
        <time>2013-09-14T10:43:48.000Z</time>
      </trkpt>
      <trkpt lat="44.73436" lon="5.62399">
        <ele>1405</ele>
        <time>2013-09-14T10:43:52.000Z</time>
      </trkpt>
      <trkpt lat="44.73436" lon="5.62393">
        <ele>1406</ele>
        <time>2013-09-14T10:43:56.000Z</time>
      </trkpt>
      <trkpt lat="44.73436" lon="5.62393">
        <ele>1406</ele>
        <time>2013-09-14T10:43:56.000Z</time>
      </trkpt>
      <trkpt lat="44.73436" lon="5.62393">
        <ele>1406</ele>
        <time>2013-09-14T10:43:57.000Z</time>
      </trkpt>
      <trkpt lat="44.73434" lon="5.62386">
        <ele>1406</ele>
        <time>2013-09-14T10:44:02.000Z</time>
      </trkpt>
      <trkpt lat="44.73434" lon="5.6238">
        <ele>1406</ele>
        <time>2013-09-14T10:44:09.000Z</time>
      </trkpt>
      <trkpt lat="44.73434" lon="5.6238">
        <ele>1406</ele>
        <time>2013-09-14T10:44:09.000Z</time>
      </trkpt>
      <trkpt lat="44.73434" lon="5.6238">
        <ele>1406</ele>
        <time>2013-09-14T10:44:12.000Z</time>
      </trkpt>
      <trkpt lat="44.73432" lon="5.62373">
        <ele>1406</ele>
        <time>2013-09-14T10:44:19.000Z</time>
      </trkpt>
      <trkpt lat="44.73432" lon="5.62373">
        <ele>1406</ele>
        <time>2013-09-14T10:44:19.000Z</time>
      </trkpt>
      <trkpt lat="44.73432" lon="5.62373">
        <ele>1406</ele>
        <time>2013-09-14T10:44:20.000Z</time>
      </trkpt>
      <trkpt lat="44.73428" lon="5.62367">
        <ele>1406</ele>
        <time>2013-09-14T10:44:28.000Z</time>
      </trkpt>
      <trkpt lat="44.73428" lon="5.62367">
        <ele>1406</ele>
        <time>2013-09-14T10:44:28.000Z</time>
      </trkpt>
      <trkpt lat="44.73428" lon="5.62367">
        <ele>1406</ele>
        <time>2013-09-14T10:44:30.000Z</time>
      </trkpt>
      <trkpt lat="44.73422" lon="5.62371">
        <ele>1407</ele>
        <time>2013-09-14T10:44:52.000Z</time>
      </trkpt>
      <trkpt lat="44.73422" lon="5.62371">
        <ele>1407</ele>
        <time>2013-09-14T10:44:52.000Z</time>
      </trkpt>
      <trkpt lat="44.73422" lon="5.62371">
        <ele>1407</ele>
        <time>2013-09-14T10:45:10.000Z</time>
      </trkpt>
      <trkpt lat="44.73425" lon="5.62378">
        <ele>1409</ele>
        <time>2013-09-14T10:46:00.000Z</time>
      </trkpt>
      <trkpt lat="44.73425" lon="5.62378">
        <ele>1409</ele>
        <time>2013-09-14T10:46:00.000Z</time>
      </trkpt>
      <trkpt lat="44.73425" lon="5.62378">
        <ele>1410</ele>
        <time>2013-09-14T10:46:27.000Z</time>
      </trkpt>
      <trkpt lat="44.73422" lon="5.62371">
        <ele>1411</ele>
        <time>2013-09-14T10:46:38.000Z</time>
      </trkpt>
      <trkpt lat="44.73422" lon="5.62371">
        <ele>1411</ele>
        <time>2013-09-14T10:46:38.000Z</time>
      </trkpt>
      <trkpt lat="44.73422" lon="5.62371">
        <ele>1412</ele>
        <time>2013-09-14T10:46:39.000Z</time>
      </trkpt>
      <trkpt lat="44.7342" lon="5.62365">
        <ele>1413</ele>
        <time>2013-09-14T10:46:44.000Z</time>
      </trkpt>
      <trkpt lat="44.7342" lon="5.62365">
        <ele>1413</ele>
        <time>2013-09-14T10:46:44.000Z</time>
      </trkpt>
      <trkpt lat="44.7342" lon="5.62365">
        <ele>1413</ele>
        <time>2013-09-14T10:46:45.000Z</time>
      </trkpt>
      <trkpt lat="44.73418" lon="5.62358">
        <ele>1414</ele>
        <time>2013-09-14T10:46:49.000Z</time>
      </trkpt>
      <trkpt lat="44.73416" lon="5.62352">
        <ele>1415</ele>
        <time>2013-09-14T10:46:53.000Z</time>
      </trkpt>
      <trkpt lat="44.73414" lon="5.62346">
        <ele>1416</ele>
        <time>2013-09-14T10:46:57.000Z</time>
      </trkpt>
      <trkpt lat="44.73412" lon="5.62339">
        <ele>1416</ele>
        <time>2013-09-14T10:47:01.000Z</time>
      </trkpt>
      <trkpt lat="44.73412" lon="5.62339">
        <ele>1416</ele>
        <time>2013-09-14T10:47:01.000Z</time>
      </trkpt>
      <trkpt lat="44.73412" lon="5.62339">
        <ele>1416</ele>
        <time>2013-09-14T10:47:02.000Z</time>
      </trkpt>
      <trkpt lat="44.73411" lon="5.62333">
        <ele>1417</ele>
        <time>2013-09-14T10:47:06.000Z</time>
      </trkpt>
      <trkpt lat="44.73411" lon="5.62333">
        <ele>1417</ele>
        <time>2013-09-14T10:47:06.000Z</time>
      </trkpt>
      <trkpt lat="44.73411" lon="5.62333">
        <ele>1417</ele>
        <time>2013-09-14T10:47:07.000Z</time>
      </trkpt>
      <trkpt lat="44.73408" lon="5.62326">
        <ele>1417</ele>
        <time>2013-09-14T10:47:11.000Z</time>
      </trkpt>
      <trkpt lat="44.73406" lon="5.6232">
        <ele>1418</ele>
        <time>2013-09-14T10:47:16.000Z</time>
      </trkpt>
      <trkpt lat="44.73406" lon="5.6232">
        <ele>1418</ele>
        <time>2013-09-14T10:47:16.000Z</time>
      </trkpt>
      <trkpt lat="44.73406" lon="5.6232">
        <ele>1418</ele>
        <time>2013-09-14T10:47:17.000Z</time>
      </trkpt>
      <trkpt lat="44.73406" lon="5.62313">
        <ele>1418</ele>
        <time>2013-09-14T10:47:21.000Z</time>
      </trkpt>
      <trkpt lat="44.73405" lon="5.62307">
        <ele>1419</ele>
        <time>2013-09-14T10:47:24.000Z</time>
      </trkpt>
      <trkpt lat="44.73404" lon="5.623">
        <ele>1419</ele>
        <time>2013-09-14T10:47:27.000Z</time>
      </trkpt>
      <trkpt lat="44.73403" lon="5.62294">
        <ele>1419</ele>
        <time>2013-09-14T10:47:30.000Z</time>
      </trkpt>
      <trkpt lat="44.73403" lon="5.62294">
        <ele>1419</ele>
        <time>2013-09-14T10:47:30.000Z</time>
      </trkpt>
      <trkpt lat="44.73403" lon="5.62294">
        <ele>1419</ele>
        <time>2013-09-14T10:47:31.000Z</time>
      </trkpt>
      <trkpt lat="44.73402" lon="5.62288">
        <ele>1419</ele>
        <time>2013-09-14T10:47:34.000Z</time>
      </trkpt>
      <trkpt lat="44.734" lon="5.62281">
        <ele>1420</ele>
        <time>2013-09-14T10:47:39.000Z</time>
      </trkpt>
      <trkpt lat="44.73399" lon="5.62275">
        <ele>1420</ele>
        <time>2013-09-14T10:47:43.000Z</time>
      </trkpt>
      <trkpt lat="44.73397" lon="5.62268">
        <ele>1420</ele>
        <time>2013-09-14T10:47:47.000Z</time>
      </trkpt>
      <trkpt lat="44.73397" lon="5.62268">
        <ele>1420</ele>
        <time>2013-09-14T10:47:47.000Z</time>
      </trkpt>
      <trkpt lat="44.73397" lon="5.62268">
        <ele>1420</ele>
        <time>2013-09-14T10:47:48.000Z</time>
      </trkpt>
      <trkpt lat="44.73396" lon="5.62262">
        <ele>1420</ele>
        <time>2013-09-14T10:47:51.000Z</time>
      </trkpt>
      <trkpt lat="44.73396" lon="5.62255">
        <ele>1420</ele>
        <time>2013-09-14T10:47:54.000Z</time>
      </trkpt>
      <trkpt lat="44.73396" lon="5.62249">
        <ele>1420</ele>
        <time>2013-09-14T10:47:57.000Z</time>
      </trkpt>
      <trkpt lat="44.73397" lon="5.62242">
        <ele>1420</ele>
        <time>2013-09-14T10:48:00.000Z</time>
      </trkpt>
      <trkpt lat="44.73398" lon="5.62236">
        <ele>1421</ele>
        <time>2013-09-14T10:48:03.000Z</time>
      </trkpt>
      <trkpt lat="44.73398" lon="5.6223">
        <ele>1421</ele>
        <time>2013-09-14T10:48:06.000Z</time>
      </trkpt>
      <trkpt lat="44.73399" lon="5.62223">
        <ele>1421</ele>
        <time>2013-09-14T10:48:09.000Z</time>
      </trkpt>
      <trkpt lat="44.73399" lon="5.62217">
        <ele>1421</ele>
        <time>2013-09-14T10:48:12.000Z</time>
      </trkpt>
      <trkpt lat="44.73399" lon="5.6221">
        <ele>1422</ele>
        <time>2013-09-14T10:48:15.000Z</time>
      </trkpt>
      <trkpt lat="44.73399" lon="5.6221">
        <ele>1422</ele>
        <time>2013-09-14T10:48:15.000Z</time>
      </trkpt>
      <trkpt lat="44.73399" lon="5.6221">
        <ele>1422</ele>
        <time>2013-09-14T10:48:16.000Z</time>
      </trkpt>
      <trkpt lat="44.734" lon="5.62204">
        <ele>1422</ele>
        <time>2013-09-14T10:48:19.000Z</time>
      </trkpt>
      <trkpt lat="44.734" lon="5.62197">
        <ele>1422</ele>
        <time>2013-09-14T10:48:22.000Z</time>
      </trkpt>
      <trkpt lat="44.73399" lon="5.62191">
        <ele>1422</ele>
        <time>2013-09-14T10:48:26.000Z</time>
      </trkpt>
      <trkpt lat="44.73399" lon="5.62184">
        <ele>1422</ele>
        <time>2013-09-14T10:48:30.000Z</time>
      </trkpt>
      <trkpt lat="44.73399" lon="5.62178">
        <ele>1423</ele>
        <time>2013-09-14T10:48:34.000Z</time>
      </trkpt>
      <trkpt lat="44.73399" lon="5.62178">
        <ele>1423</ele>
        <time>2013-09-14T10:48:34.000Z</time>
      </trkpt>
      <trkpt lat="44.73399" lon="5.62178">
        <ele>1423</ele>
        <time>2013-09-14T10:48:35.000Z</time>
      </trkpt>
      <trkpt lat="44.73399" lon="5.62172">
        <ele>1423</ele>
        <time>2013-09-14T10:48:39.000Z</time>
      </trkpt>
      <trkpt lat="44.73399" lon="5.62165">
        <ele>1423</ele>
        <time>2013-09-14T10:48:43.000Z</time>
      </trkpt>
      <trkpt lat="44.73399" lon="5.62159">
        <ele>1423</ele>
        <time>2013-09-14T10:48:47.000Z</time>
      </trkpt>
      <trkpt lat="44.73399" lon="5.62152">
        <ele>1423</ele>
        <time>2013-09-14T10:48:51.000Z</time>
      </trkpt>
      <trkpt lat="44.73398" lon="5.62146">
        <ele>1424</ele>
        <time>2013-09-14T10:48:55.000Z</time>
      </trkpt>
      <trkpt lat="44.73396" lon="5.6214">
        <ele>1424</ele>
        <time>2013-09-14T10:48:59.000Z</time>
      </trkpt>
      <trkpt lat="44.73395" lon="5.62133">
        <ele>1424</ele>
        <time>2013-09-14T10:49:03.000Z</time>
      </trkpt>
      <trkpt lat="44.73394" lon="5.62127">
        <ele>1424</ele>
        <time>2013-09-14T10:49:07.000Z</time>
      </trkpt>
      <trkpt lat="44.73391" lon="5.62118">
        <ele>1424</ele>
        <time>2013-09-14T10:49:10.000Z</time>
      </trkpt>
      <trkpt lat="44.73389" lon="5.62112">
        <ele>1424</ele>
        <time>2013-09-14T10:49:13.000Z</time>
      </trkpt>
      <trkpt lat="44.73387" lon="5.62105">
        <ele>1424</ele>
        <time>2013-09-14T10:49:15.000Z</time>
      </trkpt>
      <trkpt lat="44.73385" lon="5.62099">
        <ele>1424</ele>
        <time>2013-09-14T10:49:18.000Z</time>
      </trkpt>
      <trkpt lat="44.73384" lon="5.62092">
        <ele>1424</ele>
        <time>2013-09-14T10:49:21.000Z</time>
      </trkpt>
      <trkpt lat="44.73383" lon="5.62086">
        <ele>1424</ele>
        <time>2013-09-14T10:49:24.000Z</time>
      </trkpt>
      <trkpt lat="44.73381" lon="5.62079">
        <ele>1424</ele>
        <time>2013-09-14T10:49:28.000Z</time>
      </trkpt>
      <trkpt lat="44.7338" lon="5.62073">
        <ele>1425</ele>
        <time>2013-09-14T10:49:31.000Z</time>
      </trkpt>
      <trkpt lat="44.7338" lon="5.62073">
        <ele>1425</ele>
        <time>2013-09-14T10:49:31.000Z</time>
      </trkpt>
      <trkpt lat="44.7338" lon="5.62073">
        <ele>1425</ele>
        <time>2013-09-14T10:49:32.000Z</time>
      </trkpt>
      <trkpt lat="44.73377" lon="5.62066">
        <ele>1425</ele>
        <time>2013-09-14T10:49:35.000Z</time>
      </trkpt>
      <trkpt lat="44.73377" lon="5.62066">
        <ele>1425</ele>
        <time>2013-09-14T10:49:35.000Z</time>
      </trkpt>
      <trkpt lat="44.73377" lon="5.62066">
        <ele>1425</ele>
        <time>2013-09-14T10:49:36.000Z</time>
      </trkpt>
      <trkpt lat="44.73375" lon="5.6206">
        <ele>1425</ele>
        <time>2013-09-14T10:49:40.000Z</time>
      </trkpt>
      <trkpt lat="44.73373" lon="5.62054">
        <ele>1425</ele>
        <time>2013-09-14T10:49:45.000Z</time>
      </trkpt>
      <trkpt lat="44.73371" lon="5.62047">
        <ele>1425</ele>
        <time>2013-09-14T10:49:49.000Z</time>
      </trkpt>
      <trkpt lat="44.73371" lon="5.62047">
        <ele>1425</ele>
        <time>2013-09-14T10:49:49.000Z</time>
      </trkpt>
      <trkpt lat="44.73371" lon="5.62047">
        <ele>1425</ele>
        <time>2013-09-14T10:49:50.000Z</time>
      </trkpt>
      <trkpt lat="44.73369" lon="5.62041">
        <ele>1425</ele>
        <time>2013-09-14T10:49:54.000Z</time>
      </trkpt>
      <trkpt lat="44.73368" lon="5.62034">
        <ele>1426</ele>
        <time>2013-09-14T10:49:58.000Z</time>
      </trkpt>
      <trkpt lat="44.73367" lon="5.62028">
        <ele>1426</ele>
        <time>2013-09-14T10:50:02.000Z</time>
      </trkpt>
      <trkpt lat="44.73364" lon="5.62021">
        <ele>1426</ele>
        <time>2013-09-14T10:50:06.000Z</time>
      </trkpt>
      <trkpt lat="44.73364" lon="5.62015">
        <ele>1426</ele>
        <time>2013-09-14T10:50:09.000Z</time>
      </trkpt>
      <trkpt lat="44.73364" lon="5.62015">
        <ele>1426</ele>
        <time>2013-09-14T10:50:09.000Z</time>
      </trkpt>
      <trkpt lat="44.73364" lon="5.62015">
        <ele>1426</ele>
        <time>2013-09-14T10:50:10.000Z</time>
      </trkpt>
      <trkpt lat="44.73362" lon="5.62009">
        <ele>1426</ele>
        <time>2013-09-14T10:50:13.000Z</time>
      </trkpt>
      <trkpt lat="44.73361" lon="5.62002">
        <ele>1426</ele>
        <time>2013-09-14T10:50:16.000Z</time>
      </trkpt>
      <trkpt lat="44.7336" lon="5.61996">
        <ele>1427</ele>
        <time>2013-09-14T10:50:19.000Z</time>
      </trkpt>
      <trkpt lat="44.7336" lon="5.61989">
        <ele>1427</ele>
        <time>2013-09-14T10:50:22.000Z</time>
      </trkpt>
      <trkpt lat="44.73359" lon="5.61983">
        <ele>1427</ele>
        <time>2013-09-14T10:50:26.000Z</time>
      </trkpt>
      <trkpt lat="44.73358" lon="5.61976">
        <ele>1427</ele>
        <time>2013-09-14T10:50:29.000Z</time>
      </trkpt>
      <trkpt lat="44.73357" lon="5.6197">
        <ele>1428</ele>
        <time>2013-09-14T10:50:32.000Z</time>
      </trkpt>
      <trkpt lat="44.73356" lon="5.61964">
        <ele>1428</ele>
        <time>2013-09-14T10:50:35.000Z</time>
      </trkpt>
      <trkpt lat="44.73355" lon="5.61957">
        <ele>1428</ele>
        <time>2013-09-14T10:50:38.000Z</time>
      </trkpt>
      <trkpt lat="44.73355" lon="5.61951">
        <ele>1429</ele>
        <time>2013-09-14T10:50:41.000Z</time>
      </trkpt>
      <trkpt lat="44.73354" lon="5.61944">
        <ele>1429</ele>
        <time>2013-09-14T10:50:44.000Z</time>
      </trkpt>
      <trkpt lat="44.73352" lon="5.61938">
        <ele>1430</ele>
        <time>2013-09-14T10:50:47.000Z</time>
      </trkpt>
      <trkpt lat="44.73352" lon="5.61938">
        <ele>1430</ele>
        <time>2013-09-14T10:50:47.000Z</time>
      </trkpt>
      <trkpt lat="44.73352" lon="5.61938">
        <ele>1430</ele>
        <time>2013-09-14T10:50:48.000Z</time>
      </trkpt>
      <trkpt lat="44.73351" lon="5.61931">
        <ele>1431</ele>
        <time>2013-09-14T10:50:51.000Z</time>
      </trkpt>
      <trkpt lat="44.73351" lon="5.61925">
        <ele>1431</ele>
        <time>2013-09-14T10:50:54.000Z</time>
      </trkpt>
      <trkpt lat="44.73351" lon="5.61925">
        <ele>1431</ele>
        <time>2013-09-14T10:50:54.000Z</time>
      </trkpt>
      <trkpt lat="44.73351" lon="5.61925">
        <ele>1431</ele>
        <time>2013-09-14T10:50:55.000Z</time>
      </trkpt>
      <trkpt lat="44.73351" lon="5.61918">
        <ele>1432</ele>
        <time>2013-09-14T10:50:58.000Z</time>
      </trkpt>
      <trkpt lat="44.73352" lon="5.61912">
        <ele>1433</ele>
        <time>2013-09-14T10:51:02.000Z</time>
      </trkpt>
      <trkpt lat="44.73352" lon="5.61906">
        <ele>1433</ele>
        <time>2013-09-14T10:51:05.000Z</time>
      </trkpt>
      <trkpt lat="44.73353" lon="5.61899">
        <ele>1434</ele>
        <time>2013-09-14T10:51:08.000Z</time>
      </trkpt>
      <trkpt lat="44.73354" lon="5.61893">
        <ele>1434</ele>
        <time>2013-09-14T10:51:12.000Z</time>
      </trkpt>
      <trkpt lat="44.73355" lon="5.61886">
        <ele>1435</ele>
        <time>2013-09-14T10:51:15.000Z</time>
      </trkpt>
      <trkpt lat="44.73357" lon="5.6188">
        <ele>1435</ele>
        <time>2013-09-14T10:51:18.000Z</time>
      </trkpt>
      <trkpt lat="44.7336" lon="5.61873">
        <ele>1436</ele>
        <time>2013-09-14T10:51:22.000Z</time>
      </trkpt>
      <trkpt lat="44.73361" lon="5.61867">
        <ele>1436</ele>
        <time>2013-09-14T10:51:25.000Z</time>
      </trkpt>
      <trkpt lat="44.73361" lon="5.61867">
        <ele>1436</ele>
        <time>2013-09-14T10:51:25.000Z</time>
      </trkpt>
      <trkpt lat="44.73361" lon="5.61867">
        <ele>1436</ele>
        <time>2013-09-14T10:51:26.000Z</time>
      </trkpt>
      <trkpt lat="44.73362" lon="5.6186">
        <ele>1437</ele>
        <time>2013-09-14T10:51:29.000Z</time>
      </trkpt>
      <trkpt lat="44.73364" lon="5.61854">
        <ele>1437</ele>
        <time>2013-09-14T10:51:33.000Z</time>
      </trkpt>
      <trkpt lat="44.73366" lon="5.61848">
        <ele>1438</ele>
        <time>2013-09-14T10:51:36.000Z</time>
      </trkpt>
      <trkpt lat="44.73367" lon="5.61841">
        <ele>1438</ele>
        <time>2013-09-14T10:51:39.000Z</time>
      </trkpt>
      <trkpt lat="44.73368" lon="5.61835">
        <ele>1439</ele>
        <time>2013-09-14T10:51:43.000Z</time>
      </trkpt>
      <trkpt lat="44.73369" lon="5.61828">
        <ele>1439</ele>
        <time>2013-09-14T10:51:47.000Z</time>
      </trkpt>
      <trkpt lat="44.7337" lon="5.61822">
        <ele>1440</ele>
        <time>2013-09-14T10:51:50.000Z</time>
      </trkpt>
      <trkpt lat="44.7337" lon="5.61816">
        <ele>1441</ele>
        <time>2013-09-14T10:51:53.000Z</time>
      </trkpt>
      <trkpt lat="44.73371" lon="5.61809">
        <ele>1442</ele>
        <time>2013-09-14T10:51:57.000Z</time>
      </trkpt>
      <trkpt lat="44.73371" lon="5.61809">
        <ele>1442</ele>
        <time>2013-09-14T10:51:57.000Z</time>
      </trkpt>
      <trkpt lat="44.73371" lon="5.61809">
        <ele>1442</ele>
        <time>2013-09-14T10:51:58.000Z</time>
      </trkpt>
      <trkpt lat="44.73372" lon="5.61803">
        <ele>1443</ele>
        <time>2013-09-14T10:52:02.000Z</time>
      </trkpt>
      <trkpt lat="44.73372" lon="5.61796">
        <ele>1444</ele>
        <time>2013-09-14T10:52:06.000Z</time>
      </trkpt>
      <trkpt lat="44.73373" lon="5.61788">
        <ele>1446</ele>
        <time>2013-09-14T10:52:12.000Z</time>
      </trkpt>
      <trkpt lat="44.73373" lon="5.61788">
        <ele>1446</ele>
        <time>2013-09-14T10:52:12.000Z</time>
      </trkpt>
      <trkpt lat="44.73373" lon="5.61788">
        <ele>1446</ele>
        <time>2013-09-14T10:52:13.000Z</time>
      </trkpt>
      <trkpt lat="44.73373" lon="5.61781">
        <ele>1447</ele>
        <time>2013-09-14T10:52:18.000Z</time>
      </trkpt>
      <trkpt lat="44.73375" lon="5.61775">
        <ele>1449</ele>
        <time>2013-09-14T10:52:23.000Z</time>
      </trkpt>
      <trkpt lat="44.73375" lon="5.61775">
        <ele>1449</ele>
        <time>2013-09-14T10:52:23.000Z</time>
      </trkpt>
      <trkpt lat="44.73375" lon="5.61775">
        <ele>1449</ele>
        <time>2013-09-14T10:52:24.000Z</time>
      </trkpt>
      <trkpt lat="44.73376" lon="5.61768">
        <ele>1450</ele>
        <time>2013-09-14T10:52:28.000Z</time>
      </trkpt>
      <trkpt lat="44.73376" lon="5.61768">
        <ele>1450</ele>
        <time>2013-09-14T10:52:28.000Z</time>
      </trkpt>
      <trkpt lat="44.73376" lon="5.61768">
        <ele>1450</ele>
        <time>2013-09-14T10:52:29.000Z</time>
      </trkpt>
      <trkpt lat="44.73378" lon="5.61762">
        <ele>1451</ele>
        <time>2013-09-14T10:52:34.000Z</time>
      </trkpt>
      <trkpt lat="44.73381" lon="5.61755">
        <ele>1451</ele>
        <time>2013-09-14T10:52:38.000Z</time>
      </trkpt>
      <trkpt lat="44.73381" lon="5.61755">
        <ele>1451</ele>
        <time>2013-09-14T10:52:38.000Z</time>
      </trkpt>
      <trkpt lat="44.73381" lon="5.61755">
        <ele>1452</ele>
        <time>2013-09-14T10:52:39.000Z</time>
      </trkpt>
      <trkpt lat="44.73382" lon="5.61749">
        <ele>1452</ele>
        <time>2013-09-14T10:52:42.000Z</time>
      </trkpt>
      <trkpt lat="44.73382" lon="5.61749">
        <ele>1452</ele>
        <time>2013-09-14T10:52:42.000Z</time>
      </trkpt>
      <trkpt lat="44.73382" lon="5.61749">
        <ele>1452</ele>
        <time>2013-09-14T10:52:43.000Z</time>
      </trkpt>
      <trkpt lat="44.73382" lon="5.61742">
        <ele>1453</ele>
        <time>2013-09-14T10:52:46.000Z</time>
      </trkpt>
      <trkpt lat="44.73383" lon="5.61736">
        <ele>1454</ele>
        <time>2013-09-14T10:52:50.000Z</time>
      </trkpt>
      <trkpt lat="44.73383" lon="5.6173">
        <ele>1455</ele>
        <time>2013-09-14T10:52:54.000Z</time>
      </trkpt>
      <trkpt lat="44.73384" lon="5.61723">
        <ele>1455</ele>
        <time>2013-09-14T10:52:58.000Z</time>
      </trkpt>
      <trkpt lat="44.73384" lon="5.61717">
        <ele>1456</ele>
        <time>2013-09-14T10:53:02.000Z</time>
      </trkpt>
      <trkpt lat="44.73385" lon="5.6171">
        <ele>1457</ele>
        <time>2013-09-14T10:53:06.000Z</time>
      </trkpt>
      <trkpt lat="44.73385" lon="5.6171">
        <ele>1457</ele>
        <time>2013-09-14T10:53:06.000Z</time>
      </trkpt>
      <trkpt lat="44.73385" lon="5.6171">
        <ele>1457</ele>
        <time>2013-09-14T10:53:07.000Z</time>
      </trkpt>
      <trkpt lat="44.73385" lon="5.61704">
        <ele>1458</ele>
        <time>2013-09-14T10:53:11.000Z</time>
      </trkpt>
      <trkpt lat="44.73386" lon="5.61697">
        <ele>1459</ele>
        <time>2013-09-14T10:53:16.000Z</time>
      </trkpt>
      <trkpt lat="44.73385" lon="5.61691">
        <ele>1459</ele>
        <time>2013-09-14T10:53:21.000Z</time>
      </trkpt>
      <trkpt lat="44.73385" lon="5.61685">
        <ele>1460</ele>
        <time>2013-09-14T10:53:25.000Z</time>
      </trkpt>
      <trkpt lat="44.73385" lon="5.61685">
        <ele>1460</ele>
        <time>2013-09-14T10:53:25.000Z</time>
      </trkpt>
      <trkpt lat="44.73385" lon="5.61685">
        <ele>1460</ele>
        <time>2013-09-14T10:53:26.000Z</time>
      </trkpt>
      <trkpt lat="44.73384" lon="5.61678">
        <ele>1461</ele>
        <time>2013-09-14T10:53:30.000Z</time>
      </trkpt>
      <trkpt lat="44.73385" lon="5.61672">
        <ele>1461</ele>
        <time>2013-09-14T10:53:34.000Z</time>
      </trkpt>
      <trkpt lat="44.73387" lon="5.61665">
        <ele>1461</ele>
        <time>2013-09-14T10:53:37.000Z</time>
      </trkpt>
      <trkpt lat="44.7339" lon="5.61659">
        <ele>1462</ele>
        <time>2013-09-14T10:53:41.000Z</time>
      </trkpt>
      <trkpt lat="44.73394" lon="5.61652">
        <ele>1462</ele>
        <time>2013-09-14T10:53:45.000Z</time>
      </trkpt>
      <trkpt lat="44.73395" lon="5.61646">
        <ele>1462</ele>
        <time>2013-09-14T10:53:48.000Z</time>
      </trkpt>
      <trkpt lat="44.73395" lon="5.6164">
        <ele>1463</ele>
        <time>2013-09-14T10:53:51.000Z</time>
      </trkpt>
      <trkpt lat="44.73395" lon="5.61633">
        <ele>1463</ele>
        <time>2013-09-14T10:53:54.000Z</time>
      </trkpt>
      <trkpt lat="44.73394" lon="5.61627">
        <ele>1464</ele>
        <time>2013-09-14T10:53:58.000Z</time>
      </trkpt>
      <trkpt lat="44.73394" lon="5.6162">
        <ele>1464</ele>
        <time>2013-09-14T10:54:01.000Z</time>
      </trkpt>
      <trkpt lat="44.73392" lon="5.61614">
        <ele>1464</ele>
        <time>2013-09-14T10:54:04.000Z</time>
      </trkpt>
      <trkpt lat="44.73391" lon="5.61607">
        <ele>1464</ele>
        <time>2013-09-14T10:54:07.000Z</time>
      </trkpt>
      <trkpt lat="44.73391" lon="5.61601">
        <ele>1464</ele>
        <time>2013-09-14T10:54:10.000Z</time>
      </trkpt>
      <trkpt lat="44.73391" lon="5.61594">
        <ele>1465</ele>
        <time>2013-09-14T10:54:14.000Z</time>
      </trkpt>
      <trkpt lat="44.73391" lon="5.61588">
        <ele>1465</ele>
        <time>2013-09-14T10:54:18.000Z</time>
      </trkpt>
      <trkpt lat="44.73391" lon="5.61582">
        <ele>1465</ele>
        <time>2013-09-14T10:54:22.000Z</time>
      </trkpt>
      <trkpt lat="44.73391" lon="5.61582">
        <ele>1465</ele>
        <time>2013-09-14T10:54:22.000Z</time>
      </trkpt>
      <trkpt lat="44.73391" lon="5.61582">
        <ele>1465</ele>
        <time>2013-09-14T10:54:23.000Z</time>
      </trkpt>
      <trkpt lat="44.7339" lon="5.61575">
        <ele>1466</ele>
        <time>2013-09-14T10:54:27.000Z</time>
      </trkpt>
      <trkpt lat="44.7339" lon="5.61569">
        <ele>1466</ele>
        <time>2013-09-14T10:54:31.000Z</time>
      </trkpt>
      <trkpt lat="44.7339" lon="5.61569">
        <ele>1466</ele>
        <time>2013-09-14T10:54:31.000Z</time>
      </trkpt>
      <trkpt lat="44.7339" lon="5.61569">
        <ele>1466</ele>
        <time>2013-09-14T10:54:32.000Z</time>
      </trkpt>
      <trkpt lat="44.73389" lon="5.61562">
        <ele>1466</ele>
        <time>2013-09-14T10:54:35.000Z</time>
      </trkpt>
      <trkpt lat="44.73389" lon="5.61562">
        <ele>1466</ele>
        <time>2013-09-14T10:54:35.000Z</time>
      </trkpt>
      <trkpt lat="44.73389" lon="5.61562">
        <ele>1466</ele>
        <time>2013-09-14T10:54:36.000Z</time>
      </trkpt>
      <trkpt lat="44.73389" lon="5.61556">
        <ele>1466</ele>
        <time>2013-09-14T10:54:39.000Z</time>
      </trkpt>
      <trkpt lat="44.73389" lon="5.61556">
        <ele>1466</ele>
        <time>2013-09-14T10:54:39.000Z</time>
      </trkpt>
      <trkpt lat="44.73389" lon="5.61556">
        <ele>1466</ele>
        <time>2013-09-14T10:54:40.000Z</time>
      </trkpt>
      <trkpt lat="44.73388" lon="5.61549">
        <ele>1466</ele>
        <time>2013-09-14T10:54:43.000Z</time>
      </trkpt>
      <trkpt lat="44.73388" lon="5.61549">
        <ele>1466</ele>
        <time>2013-09-14T10:54:43.000Z</time>
      </trkpt>
      <trkpt lat="44.73388" lon="5.61549">
        <ele>1466</ele>
        <time>2013-09-14T10:54:44.000Z</time>
      </trkpt>
      <trkpt lat="44.73386" lon="5.61543">
        <ele>1467</ele>
        <time>2013-09-14T10:54:47.000Z</time>
      </trkpt>
      <trkpt lat="44.73386" lon="5.61543">
        <ele>1467</ele>
        <time>2013-09-14T10:54:47.000Z</time>
      </trkpt>
      <trkpt lat="44.73386" lon="5.61543">
        <ele>1467</ele>
        <time>2013-09-14T10:54:48.000Z</time>
      </trkpt>
      <trkpt lat="44.73384" lon="5.61536">
        <ele>1467</ele>
        <time>2013-09-14T10:54:51.000Z</time>
      </trkpt>
      <trkpt lat="44.73381" lon="5.6153">
        <ele>1467</ele>
        <time>2013-09-14T10:54:55.000Z</time>
      </trkpt>
      <trkpt lat="44.73377" lon="5.61524">
        <ele>1468</ele>
        <time>2013-09-14T10:54:59.000Z</time>
      </trkpt>
      <trkpt lat="44.73373" lon="5.61519">
        <ele>1469</ele>
        <time>2013-09-14T10:55:03.000Z</time>
      </trkpt>
      <trkpt lat="44.73368" lon="5.61515">
        <ele>1471</ele>
        <time>2013-09-14T10:55:05.000Z</time>
      </trkpt>
      <trkpt lat="44.73364" lon="5.61511">
        <ele>1473</ele>
        <time>2013-09-14T10:55:07.000Z</time>
      </trkpt>
      <trkpt lat="44.73359" lon="5.61504">
        <ele>1475</ele>
        <time>2013-09-14T10:55:09.000Z</time>
      </trkpt>
      <trkpt lat="44.73355" lon="5.615">
        <ele>1477</ele>
        <time>2013-09-14T10:55:11.000Z</time>
      </trkpt>
      <trkpt lat="44.73351" lon="5.61494">
        <ele>1480</ele>
        <time>2013-09-14T10:55:14.000Z</time>
      </trkpt>
      <trkpt lat="44.73346" lon="5.61487">
        <ele>1483</ele>
        <time>2013-09-14T10:55:17.000Z</time>
      </trkpt>
      <trkpt lat="44.73341" lon="5.61483">
        <ele>1487</ele>
        <time>2013-09-14T10:55:21.000Z</time>
      </trkpt>
      <trkpt lat="44.73336" lon="5.61479">
        <ele>1490</ele>
        <time>2013-09-14T10:55:25.000Z</time>
      </trkpt>
      <trkpt lat="44.73331" lon="5.61474">
        <ele>1493</ele>
        <time>2013-09-14T10:55:29.000Z</time>
      </trkpt>
      <trkpt lat="44.73327" lon="5.6147">
        <ele>1496</ele>
        <time>2013-09-14T10:55:33.000Z</time>
      </trkpt>
      <trkpt lat="44.73324" lon="5.61464">
        <ele>1499</ele>
        <time>2013-09-14T10:55:37.000Z</time>
      </trkpt>
      <trkpt lat="44.7332" lon="5.61457">
        <ele>1502</ele>
        <time>2013-09-14T10:55:42.000Z</time>
      </trkpt>
      <trkpt lat="44.73315" lon="5.61451">
        <ele>1505</ele>
        <time>2013-09-14T10:55:47.000Z</time>
      </trkpt>
      <trkpt lat="44.73311" lon="5.61446">
        <ele>1507</ele>
        <time>2013-09-14T10:55:52.000Z</time>
      </trkpt>
      <trkpt lat="44.73307" lon="5.61442">
        <ele>1510</ele>
        <time>2013-09-14T10:55:57.000Z</time>
      </trkpt>
      <trkpt lat="44.73302" lon="5.61436">
        <ele>1512</ele>
        <time>2013-09-14T10:56:02.000Z</time>
      </trkpt>
      <trkpt lat="44.73298" lon="5.61431">
        <ele>1514</ele>
        <time>2013-09-14T10:56:06.000Z</time>
      </trkpt>
      <trkpt lat="44.73293" lon="5.61427">
        <ele>1515</ele>
        <time>2013-09-14T10:56:11.000Z</time>
      </trkpt>
      <trkpt lat="44.73288" lon="5.61425">
        <ele>1517</ele>
        <time>2013-09-14T10:56:15.000Z</time>
      </trkpt>
      <trkpt lat="44.73284" lon="5.61421">
        <ele>1518</ele>
        <time>2013-09-14T10:56:19.000Z</time>
      </trkpt>
      <trkpt lat="44.7328" lon="5.61416">
        <ele>1520</ele>
        <time>2013-09-14T10:56:23.000Z</time>
      </trkpt>
      <trkpt lat="44.73276" lon="5.61414">
        <ele>1521</ele>
        <time>2013-09-14T10:56:26.000Z</time>
      </trkpt>
      <trkpt lat="44.73271" lon="5.61412">
        <ele>1522</ele>
        <time>2013-09-14T10:56:29.000Z</time>
      </trkpt>
      <trkpt lat="44.73265" lon="5.61408">
        <ele>1523</ele>
        <time>2013-09-14T10:56:33.000Z</time>
      </trkpt>
      <trkpt lat="44.7326" lon="5.61406">
        <ele>1524</ele>
        <time>2013-09-14T10:56:36.000Z</time>
      </trkpt>
      <trkpt lat="44.73256" lon="5.61404">
        <ele>1525</ele>
        <time>2013-09-14T10:56:39.000Z</time>
      </trkpt>
      <trkpt lat="44.73252" lon="5.61401">
        <ele>1526</ele>
        <time>2013-09-14T10:56:42.000Z</time>
      </trkpt>
      <trkpt lat="44.73246" lon="5.61397">
        <ele>1527</ele>
        <time>2013-09-14T10:56:46.000Z</time>
      </trkpt>
      <trkpt lat="44.73241" lon="5.61393">
        <ele>1528</ele>
        <time>2013-09-14T10:56:50.000Z</time>
      </trkpt>
      <trkpt lat="44.73237" lon="5.61391">
        <ele>1529</ele>
        <time>2013-09-14T10:56:53.000Z</time>
      </trkpt>
      <trkpt lat="44.73232" lon="5.61386">
        <ele>1530</ele>
        <time>2013-09-14T10:56:56.000Z</time>
      </trkpt>
      <trkpt lat="44.73227" lon="5.6138">
        <ele>1531</ele>
        <time>2013-09-14T10:57:00.000Z</time>
      </trkpt>
      <trkpt lat="44.73223" lon="5.61376">
        <ele>1532</ele>
        <time>2013-09-14T10:57:03.000Z</time>
      </trkpt>
      <trkpt lat="44.7322" lon="5.61369">
        <ele>1533</ele>
        <time>2013-09-14T10:57:06.000Z</time>
      </trkpt>
      <trkpt lat="44.73219" lon="5.61363">
        <ele>1534</ele>
        <time>2013-09-14T10:57:09.000Z</time>
      </trkpt>
      <trkpt lat="44.73218" lon="5.61356">
        <ele>1534</ele>
        <time>2013-09-14T10:57:11.000Z</time>
      </trkpt>
      <trkpt lat="44.73214" lon="5.6135">
        <ele>1535</ele>
        <time>2013-09-14T10:57:14.000Z</time>
      </trkpt>
      <trkpt lat="44.73211" lon="5.61341">
        <ele>1536</ele>
        <time>2013-09-14T10:57:17.000Z</time>
      </trkpt>
      <trkpt lat="44.73208" lon="5.61335">
        <ele>1537</ele>
        <time>2013-09-14T10:57:20.000Z</time>
      </trkpt>
      <trkpt lat="44.73205" lon="5.61326">
        <ele>1538</ele>
        <time>2013-09-14T10:57:23.000Z</time>
      </trkpt>
      <trkpt lat="44.73202" lon="5.6132">
        <ele>1538</ele>
        <time>2013-09-14T10:57:25.000Z</time>
      </trkpt>
      <trkpt lat="44.73199" lon="5.61313">
        <ele>1539</ele>
        <time>2013-09-14T10:57:27.000Z</time>
      </trkpt>
      <trkpt lat="44.73195" lon="5.61305">
        <ele>1539</ele>
        <time>2013-09-14T10:57:30.000Z</time>
      </trkpt>
      <trkpt lat="44.73193" lon="5.61298">
        <ele>1540</ele>
        <time>2013-09-14T10:57:32.000Z</time>
      </trkpt>
      <trkpt lat="44.7319" lon="5.61292">
        <ele>1540</ele>
        <time>2013-09-14T10:57:34.000Z</time>
      </trkpt>
      <trkpt lat="44.73184" lon="5.61285">
        <ele>1541</ele>
        <time>2013-09-14T10:57:36.000Z</time>
      </trkpt>
      <trkpt lat="44.7318" lon="5.61279">
        <ele>1541</ele>
        <time>2013-09-14T10:57:38.000Z</time>
      </trkpt>
      <trkpt lat="44.73175" lon="5.61273">
        <ele>1541</ele>
        <time>2013-09-14T10:57:40.000Z</time>
      </trkpt>
      <trkpt lat="44.73169" lon="5.61266">
        <ele>1542</ele>
        <time>2013-09-14T10:57:42.000Z</time>
      </trkpt>
      <trkpt lat="44.73165" lon="5.61262">
        <ele>1542</ele>
        <time>2013-09-14T10:57:44.000Z</time>
      </trkpt>
      <trkpt lat="44.73161" lon="5.61258">
        <ele>1543</ele>
        <time>2013-09-14T10:57:46.000Z</time>
      </trkpt>
      <trkpt lat="44.73156" lon="5.61253">
        <ele>1543</ele>
        <time>2013-09-14T10:57:48.000Z</time>
      </trkpt>
      <trkpt lat="44.73152" lon="5.61247">
        <ele>1543</ele>
        <time>2013-09-14T10:57:50.000Z</time>
      </trkpt>
      <trkpt lat="44.73148" lon="5.61242">
        <ele>1544</ele>
        <time>2013-09-14T10:57:52.000Z</time>
      </trkpt>
      <trkpt lat="44.73144" lon="5.61238">
        <ele>1544</ele>
        <time>2013-09-14T10:57:54.000Z</time>
      </trkpt>
      <trkpt lat="44.73139" lon="5.61234">
        <ele>1545</ele>
        <time>2013-09-14T10:57:56.000Z</time>
      </trkpt>
      <trkpt lat="44.73135" lon="5.61228">
        <ele>1545</ele>
        <time>2013-09-14T10:57:58.000Z</time>
      </trkpt>
      <trkpt lat="44.73132" lon="5.61221">
        <ele>1546</ele>
        <time>2013-09-14T10:58:00.000Z</time>
      </trkpt>
      <trkpt lat="44.73132" lon="5.61212">
        <ele>1546</ele>
        <time>2013-09-14T10:58:02.000Z</time>
      </trkpt>
      <trkpt lat="44.73132" lon="5.61204">
        <ele>1546</ele>
        <time>2013-09-14T10:58:04.000Z</time>
      </trkpt>
      <trkpt lat="44.73132" lon="5.61198">
        <ele>1547</ele>
        <time>2013-09-14T10:58:06.000Z</time>
      </trkpt>
      <trkpt lat="44.73132" lon="5.61189">
        <ele>1547</ele>
        <time>2013-09-14T10:58:08.000Z</time>
      </trkpt>
      <trkpt lat="44.73132" lon="5.6118">
        <ele>1548</ele>
        <time>2013-09-14T10:58:11.000Z</time>
      </trkpt>
      <trkpt lat="44.73133" lon="5.61174">
        <ele>1548</ele>
        <time>2013-09-14T10:58:14.000Z</time>
      </trkpt>
      <trkpt lat="44.73134" lon="5.61165">
        <ele>1549</ele>
        <time>2013-09-14T10:58:17.000Z</time>
      </trkpt>
      <trkpt lat="44.73135" lon="5.61157">
        <ele>1549</ele>
        <time>2013-09-14T10:58:20.000Z</time>
      </trkpt>
      <trkpt lat="44.73136" lon="5.6115">
        <ele>1550</ele>
        <time>2013-09-14T10:58:23.000Z</time>
      </trkpt>
      <trkpt lat="44.73137" lon="5.61144">
        <ele>1550</ele>
        <time>2013-09-14T10:58:25.000Z</time>
      </trkpt>
      <trkpt lat="44.73139" lon="5.61137">
        <ele>1550</ele>
        <time>2013-09-14T10:58:27.000Z</time>
      </trkpt>
      <trkpt lat="44.73141" lon="5.61129">
        <ele>1550</ele>
        <time>2013-09-14T10:58:30.000Z</time>
      </trkpt>
      <trkpt lat="44.73145" lon="5.6112">
        <ele>1551</ele>
        <time>2013-09-14T10:58:33.000Z</time>
      </trkpt>
      <trkpt lat="44.73146" lon="5.61114">
        <ele>1551</ele>
        <time>2013-09-14T10:58:35.000Z</time>
      </trkpt>
      <trkpt lat="44.73148" lon="5.61107">
        <ele>1551</ele>
        <time>2013-09-14T10:58:37.000Z</time>
      </trkpt>
      <trkpt lat="44.7315" lon="5.61099">
        <ele>1551</ele>
        <time>2013-09-14T10:58:40.000Z</time>
      </trkpt>
      <trkpt lat="44.73151" lon="5.61092">
        <ele>1552</ele>
        <time>2013-09-14T10:58:42.000Z</time>
      </trkpt>
      <trkpt lat="44.73152" lon="5.61086">
        <ele>1552</ele>
        <time>2013-09-14T10:58:44.000Z</time>
      </trkpt>
      <trkpt lat="44.73153" lon="5.61077">
        <ele>1552</ele>
        <time>2013-09-14T10:58:46.000Z</time>
      </trkpt>
      <trkpt lat="44.73153" lon="5.61071">
        <ele>1552</ele>
        <time>2013-09-14T10:58:47.000Z</time>
      </trkpt>
      <trkpt lat="44.73152" lon="5.6106">
        <ele>1552</ele>
        <time>2013-09-14T10:58:49.000Z</time>
      </trkpt>
      <trkpt lat="44.7315" lon="5.61052">
        <ele>1552</ele>
        <time>2013-09-14T10:58:50.000Z</time>
      </trkpt>
      <trkpt lat="44.73149" lon="5.61045">
        <ele>1552</ele>
        <time>2013-09-14T10:58:51.000Z</time>
      </trkpt>
      <trkpt lat="44.73147" lon="5.61039">
        <ele>1552</ele>
        <time>2013-09-14T10:58:52.000Z</time>
      </trkpt>
      <trkpt lat="44.73146" lon="5.6103">
        <ele>1552</ele>
        <time>2013-09-14T10:58:53.000Z</time>
      </trkpt>
      <trkpt lat="44.73145" lon="5.61024">
        <ele>1552</ele>
        <time>2013-09-14T10:58:54.000Z</time>
      </trkpt>
      <trkpt lat="44.73138" lon="5.61013">
        <ele>1553</ele>
        <time>2013-09-14T10:58:56.000Z</time>
      </trkpt>
      <trkpt lat="44.73134" lon="5.61004">
        <ele>1553</ele>
        <time>2013-09-14T10:58:58.000Z</time>
      </trkpt>
      <trkpt lat="44.73132" lon="5.60998">
        <ele>1553</ele>
        <time>2013-09-14T10:59:00.000Z</time>
      </trkpt>
      <trkpt lat="44.7313" lon="5.60992">
        <ele>1553</ele>
        <time>2013-09-14T10:59:02.000Z</time>
      </trkpt>
      <trkpt lat="44.73127" lon="5.60985">
        <ele>1552</ele>
        <time>2013-09-14T10:59:05.000Z</time>
      </trkpt>
      <trkpt lat="44.73123" lon="5.60979">
        <ele>1552</ele>
        <time>2013-09-14T10:59:09.000Z</time>
      </trkpt>
      <trkpt lat="44.73116" lon="5.60976">
        <ele>1552</ele>
        <time>2013-09-14T10:59:12.000Z</time>
      </trkpt>
      <trkpt lat="44.7311" lon="5.60976">
        <ele>1552</ele>
        <time>2013-09-14T10:59:14.000Z</time>
      </trkpt>
      <trkpt lat="44.73105" lon="5.60976">
        <ele>1552</ele>
        <time>2013-09-14T10:59:16.000Z</time>
      </trkpt>
      <trkpt lat="44.731" lon="5.60974">
        <ele>1552</ele>
        <time>2013-09-14T10:59:18.000Z</time>
      </trkpt>
      <trkpt lat="44.73094" lon="5.60972">
        <ele>1551</ele>
        <time>2013-09-14T10:59:20.000Z</time>
      </trkpt>
      <trkpt lat="44.7309" lon="5.60974">
        <ele>1551</ele>
        <time>2013-09-14T10:59:24.000Z</time>
      </trkpt>
      <trkpt lat="44.73084" lon="5.60972">
        <ele>1551</ele>
        <time>2013-09-14T10:59:27.000Z</time>
      </trkpt>
      <trkpt lat="44.7308" lon="5.60966">
        <ele>1551</ele>
        <time>2013-09-14T10:59:29.000Z</time>
      </trkpt>
      <trkpt lat="44.73075" lon="5.60961">
        <ele>1551</ele>
        <time>2013-09-14T10:59:32.000Z</time>
      </trkpt>
      <trkpt lat="44.7307" lon="5.60961">
        <ele>1551</ele>
        <time>2013-09-14T10:59:42.000Z</time>
      </trkpt>
      <trkpt lat="44.7307" lon="5.60961">
        <ele>1551</ele>
        <time>2013-09-14T10:59:42.000Z</time>
      </trkpt>
      <trkpt lat="44.7307" lon="5.60961">
        <ele>1551</ele>
        <time>2013-09-14T10:59:43.000Z</time>
      </trkpt>
      <trkpt lat="44.73064" lon="5.60961">
        <ele>1551</ele>
        <time>2013-09-14T11:00:16.000Z</time>
      </trkpt>
      <trkpt lat="44.73064" lon="5.60961">
        <ele>1551</ele>
        <time>2013-09-14T11:00:16.000Z</time>
      </trkpt>
      <trkpt lat="44.73064" lon="5.60961">
        <ele>1551</ele>
        <time>2013-09-14T11:00:24.000Z</time>
      </trkpt>
      <trkpt lat="44.73058" lon="5.60959">
        <ele>1551</ele>
        <time>2013-09-14T11:00:48.000Z</time>
      </trkpt>
      <trkpt lat="44.73053" lon="5.60949">
        <ele>1552</ele>
        <time>2013-09-14T11:00:51.000Z</time>
      </trkpt>
      <trkpt lat="44.7305" lon="5.60938">
        <ele>1552</ele>
        <time>2013-09-14T11:00:53.000Z</time>
      </trkpt>
      <trkpt lat="44.7305" lon="5.60931">
        <ele>1553</ele>
        <time>2013-09-14T11:00:54.000Z</time>
      </trkpt>
      <trkpt lat="44.7305" lon="5.60925">
        <ele>1554</ele>
        <time>2013-09-14T11:00:55.000Z</time>
      </trkpt>
      <trkpt lat="44.73052" lon="5.60916">
        <ele>1554</ele>
        <time>2013-09-14T11:00:56.000Z</time>
      </trkpt>
      <trkpt lat="44.73054" lon="5.60906">
        <ele>1555</ele>
        <time>2013-09-14T11:00:57.000Z</time>
      </trkpt>
      <trkpt lat="44.73058" lon="5.60897">
        <ele>1555</ele>
        <time>2013-09-14T11:00:58.000Z</time>
      </trkpt>
      <trkpt lat="44.73061" lon="5.60888">
        <ele>1556</ele>
        <time>2013-09-14T11:00:59.000Z</time>
      </trkpt>
      <trkpt lat="44.73063" lon="5.6088">
        <ele>1556</ele>
        <time>2013-09-14T11:01:00.000Z</time>
      </trkpt>
      <trkpt lat="44.73062" lon="5.60867">
        <ele>1556</ele>
        <time>2013-09-14T11:01:01.000Z</time>
      </trkpt>
      <trkpt lat="44.73061" lon="5.60856">
        <ele>1556</ele>
        <time>2013-09-14T11:01:02.000Z</time>
      </trkpt>
      <trkpt lat="44.7306" lon="5.60846">
        <ele>1556</ele>
        <time>2013-09-14T11:01:03.000Z</time>
      </trkpt>
      <trkpt lat="44.73059" lon="5.60835">
        <ele>1556</ele>
        <time>2013-09-14T11:01:04.000Z</time>
      </trkpt>
      <trkpt lat="44.73057" lon="5.60822">
        <ele>1556</ele>
        <time>2013-09-14T11:01:05.000Z</time>
      </trkpt>
      <trkpt lat="44.73054" lon="5.60813">
        <ele>1556</ele>
        <time>2013-09-14T11:01:06.000Z</time>
      </trkpt>
      <trkpt lat="44.73052" lon="5.60803">
        <ele>1556</ele>
        <time>2013-09-14T11:01:07.000Z</time>
      </trkpt>
      <trkpt lat="44.7305" lon="5.60792">
        <ele>1556</ele>
        <time>2013-09-14T11:01:08.000Z</time>
      </trkpt>
      <trkpt lat="44.73047" lon="5.60781">
        <ele>1556</ele>
        <time>2013-09-14T11:01:09.000Z</time>
      </trkpt>
      <trkpt lat="44.73046" lon="5.6077">
        <ele>1555</ele>
        <time>2013-09-14T11:01:10.000Z</time>
      </trkpt>
      <trkpt lat="44.73044" lon="5.6076">
        <ele>1555</ele>
        <time>2013-09-14T11:01:11.000Z</time>
      </trkpt>
      <trkpt lat="44.73042" lon="5.60747">
        <ele>1555</ele>
        <time>2013-09-14T11:01:12.000Z</time>
      </trkpt>
      <trkpt lat="44.7304" lon="5.60734">
        <ele>1555</ele>
        <time>2013-09-14T11:01:13.000Z</time>
      </trkpt>
      <trkpt lat="44.73038" lon="5.60721">
        <ele>1555</ele>
        <time>2013-09-14T11:01:14.000Z</time>
      </trkpt>
      <trkpt lat="44.73035" lon="5.60708">
        <ele>1555</ele>
        <time>2013-09-14T11:01:15.000Z</time>
      </trkpt>
      <trkpt lat="44.73032" lon="5.60695">
        <ele>1555</ele>
        <time>2013-09-14T11:01:16.000Z</time>
      </trkpt>
      <trkpt lat="44.73029" lon="5.60685">
        <ele>1555</ele>
        <time>2013-09-14T11:01:17.000Z</time>
      </trkpt>
      <trkpt lat="44.73024" lon="5.60674">
        <ele>1555</ele>
        <time>2013-09-14T11:01:18.000Z</time>
      </trkpt>
      <trkpt lat="44.7302" lon="5.60661">
        <ele>1555</ele>
        <time>2013-09-14T11:01:19.000Z</time>
      </trkpt>
      <trkpt lat="44.73016" lon="5.6065">
        <ele>1555</ele>
        <time>2013-09-14T11:01:20.000Z</time>
      </trkpt>
      <trkpt lat="44.73013" lon="5.6064">
        <ele>1555</ele>
        <time>2013-09-14T11:01:21.000Z</time>
      </trkpt>
      <trkpt lat="44.73009" lon="5.60629">
        <ele>1555</ele>
        <time>2013-09-14T11:01:22.000Z</time>
      </trkpt>
      <trkpt lat="44.73006" lon="5.60618">
        <ele>1555</ele>
        <time>2013-09-14T11:01:23.000Z</time>
      </trkpt>
      <trkpt lat="44.73003" lon="5.60607">
        <ele>1555</ele>
        <time>2013-09-14T11:01:24.000Z</time>
      </trkpt>
      <trkpt lat="44.73" lon="5.60594">
        <ele>1555</ele>
        <time>2013-09-14T11:01:25.000Z</time>
      </trkpt>
      <trkpt lat="44.72994" lon="5.60584">
        <ele>1556</ele>
        <time>2013-09-14T11:01:26.000Z</time>
      </trkpt>
      <trkpt lat="44.7299" lon="5.60573">
        <ele>1556</ele>
        <time>2013-09-14T11:01:27.000Z</time>
      </trkpt>
      <trkpt lat="44.72984" lon="5.60564">
        <ele>1557</ele>
        <time>2013-09-14T11:01:28.000Z</time>
      </trkpt>
      <trkpt lat="44.72977" lon="5.60554">
        <ele>1557</ele>
        <time>2013-09-14T11:01:29.000Z</time>
      </trkpt>
      <trkpt lat="44.72971" lon="5.60543">
        <ele>1558</ele>
        <time>2013-09-14T11:01:30.000Z</time>
      </trkpt>
      <trkpt lat="44.72964" lon="5.60532">
        <ele>1558</ele>
        <time>2013-09-14T11:01:31.000Z</time>
      </trkpt>
      <trkpt lat="44.72958" lon="5.60524">
        <ele>1558</ele>
        <time>2013-09-14T11:01:32.000Z</time>
      </trkpt>
      <trkpt lat="44.7295" lon="5.60517">
        <ele>1558</ele>
        <time>2013-09-14T11:01:33.000Z</time>
      </trkpt>
      <trkpt lat="44.72943" lon="5.60511">
        <ele>1558</ele>
        <time>2013-09-14T11:01:34.000Z</time>
      </trkpt>
      <trkpt lat="44.72935" lon="5.60506">
        <ele>1558</ele>
        <time>2013-09-14T11:01:35.000Z</time>
      </trkpt>
      <trkpt lat="44.7293" lon="5.60502">
        <ele>1558</ele>
        <time>2013-09-14T11:01:36.000Z</time>
      </trkpt>
      <trkpt lat="44.7292" lon="5.60496">
        <ele>1557</ele>
        <time>2013-09-14T11:01:45.000Z</time>
      </trkpt>
      <trkpt lat="44.7292" lon="5.60496">
        <ele>1557</ele>
        <time>2013-09-14T11:01:45.000Z</time>
      </trkpt>
      <trkpt lat="44.7292" lon="5.60496">
        <ele>1557</ele>
        <time>2013-09-14T11:02:23.000Z</time>
      </trkpt>
      <trkpt lat="44.72914" lon="5.60498">
        <ele>1555</ele>
        <time>2013-09-14T11:02:25.000Z</time>
      </trkpt>
      <trkpt lat="44.72909" lon="5.605">
        <ele>1554</ele>
        <time>2013-09-14T11:02:27.000Z</time>
      </trkpt>
      <trkpt lat="44.72909" lon="5.605">
        <ele>1554</ele>
        <time>2013-09-14T11:02:27.000Z</time>
      </trkpt>
      <trkpt lat="44.72909" lon="5.605">
        <ele>1554</ele>
        <time>2013-09-14T11:02:30.000Z</time>
      </trkpt>
      <trkpt lat="44.72901" lon="5.60487">
        <ele>1552</ele>
        <time>2013-09-14T11:02:31.000Z</time>
      </trkpt>
      <trkpt lat="44.72901" lon="5.60487">
        <ele>1552</ele>
        <time>2013-09-14T11:02:31.000Z</time>
      </trkpt>
      <trkpt lat="44.72901" lon="5.60487">
        <ele>1552</ele>
        <time>2013-09-14T11:02:33.000Z</time>
      </trkpt>
      <trkpt lat="44.72903" lon="5.60474">
        <ele>1551</ele>
        <time>2013-09-14T11:02:34.000Z</time>
      </trkpt>
      <trkpt lat="44.72909" lon="5.60468">
        <ele>1549</ele>
        <time>2013-09-14T11:02:36.000Z</time>
      </trkpt>
      <trkpt lat="44.72914" lon="5.60462">
        <ele>1543</ele>
        <time>2013-09-14T11:02:38.000Z</time>
      </trkpt>
      <trkpt lat="44.72917" lon="5.60455">
        <ele>1538</ele>
        <time>2013-09-14T11:02:39.000Z</time>
      </trkpt>
      <trkpt lat="44.72921" lon="5.60451">
        <ele>1534</ele>
        <time>2013-09-14T11:02:40.000Z</time>
      </trkpt>
      <trkpt lat="44.72926" lon="5.60446">
        <ele>1531</ele>
        <time>2013-09-14T11:02:41.000Z</time>
      </trkpt>
      <trkpt lat="44.7293" lon="5.60442">
        <ele>1528</ele>
        <time>2013-09-14T11:02:42.000Z</time>
      </trkpt>
      <trkpt lat="44.72934" lon="5.60438">
        <ele>1525</ele>
        <time>2013-09-14T11:02:43.000Z</time>
      </trkpt>
      <trkpt lat="44.72939" lon="5.60431">
        <ele>1523</ele>
        <time>2013-09-14T11:02:44.000Z</time>
      </trkpt>
      <trkpt lat="44.72944" lon="5.60427">
        <ele>1521</ele>
        <time>2013-09-14T11:02:45.000Z</time>
      </trkpt>
      <trkpt lat="44.72949" lon="5.60423">
        <ele>1519</ele>
        <time>2013-09-14T11:02:46.000Z</time>
      </trkpt>
      <trkpt lat="44.72955" lon="5.60419">
        <ele>1518</ele>
        <time>2013-09-14T11:02:47.000Z</time>
      </trkpt>
      <trkpt lat="44.72961" lon="5.60414">
        <ele>1516</ele>
        <time>2013-09-14T11:02:48.000Z</time>
      </trkpt>
      <trkpt lat="44.72968" lon="5.60408">
        <ele>1515</ele>
        <time>2013-09-14T11:02:49.000Z</time>
      </trkpt>
      <trkpt lat="44.72974" lon="5.60401">
        <ele>1514</ele>
        <time>2013-09-14T11:02:50.000Z</time>
      </trkpt>
      <trkpt lat="44.7298" lon="5.60395">
        <ele>1514</ele>
        <time>2013-09-14T11:02:51.000Z</time>
      </trkpt>
      <trkpt lat="44.72987" lon="5.60388">
        <ele>1513</ele>
        <time>2013-09-14T11:02:52.000Z</time>
      </trkpt>
      <trkpt lat="44.72992" lon="5.60378">
        <ele>1512</ele>
        <time>2013-09-14T11:02:53.000Z</time>
      </trkpt>
      <trkpt lat="44.72998" lon="5.60367">
        <ele>1512</ele>
        <time>2013-09-14T11:02:54.000Z</time>
      </trkpt>
      <trkpt lat="44.73003" lon="5.60358">
        <ele>1511</ele>
        <time>2013-09-14T11:02:55.000Z</time>
      </trkpt>
      <trkpt lat="44.73008" lon="5.60348">
        <ele>1511</ele>
        <time>2013-09-14T11:02:56.000Z</time>
      </trkpt>
      <trkpt lat="44.73014" lon="5.60339">
        <ele>1511</ele>
        <time>2013-09-14T11:02:57.000Z</time>
      </trkpt>
      <trkpt lat="44.73019" lon="5.60328">
        <ele>1510</ele>
        <time>2013-09-14T11:02:58.000Z</time>
      </trkpt>
      <trkpt lat="44.73023" lon="5.6032">
        <ele>1510</ele>
        <time>2013-09-14T11:02:59.000Z</time>
      </trkpt>
      <trkpt lat="44.73028" lon="5.60309">
        <ele>1510</ele>
        <time>2013-09-14T11:03:00.000Z</time>
      </trkpt>
      <trkpt lat="44.7303" lon="5.603">
        <ele>1509</ele>
        <time>2013-09-14T11:03:01.000Z</time>
      </trkpt>
      <trkpt lat="44.73032" lon="5.60294">
        <ele>1509</ele>
        <time>2013-09-14T11:03:02.000Z</time>
      </trkpt>
      <trkpt lat="44.73033" lon="5.60286">
        <ele>1508</ele>
        <time>2013-09-14T11:03:03.000Z</time>
      </trkpt>
      <trkpt lat="44.73036" lon="5.60279">
        <ele>1508</ele>
        <time>2013-09-14T11:03:04.000Z</time>
      </trkpt>
      <trkpt lat="44.73043" lon="5.6027">
        <ele>1507</ele>
        <time>2013-09-14T11:03:06.000Z</time>
      </trkpt>
      <trkpt lat="44.73043" lon="5.6027">
        <ele>1507</ele>
        <time>2013-09-14T11:03:06.000Z</time>
      </trkpt>
      <trkpt lat="44.73043" lon="5.6027">
        <ele>1507</ele>
        <time>2013-09-14T11:03:08.000Z</time>
      </trkpt>
      <trkpt lat="44.73046" lon="5.60264">
        <ele>1506</ele>
        <time>2013-09-14T11:03:09.000Z</time>
      </trkpt>
      <trkpt lat="44.73046" lon="5.60264">
        <ele>1506</ele>
        <time>2013-09-14T11:03:09.000Z</time>
      </trkpt>
      <trkpt lat="44.73046" lon="5.60264">
        <ele>1506</ele>
        <time>2013-09-14T11:03:11.000Z</time>
      </trkpt>
      <trkpt lat="44.73048" lon="5.60258">
        <ele>1506</ele>
        <time>2013-09-14T11:03:12.000Z</time>
      </trkpt>
      <trkpt lat="44.73048" lon="5.60258">
        <ele>1506</ele>
        <time>2013-09-14T11:03:12.000Z</time>
      </trkpt>
      <trkpt lat="44.73048" lon="5.60258">
        <ele>1506</ele>
        <time>2013-09-14T11:03:49.000Z</time>
      </trkpt>
      <trkpt lat="44.73053" lon="5.60256">
        <ele>1502</ele>
        <time>2013-09-14T11:03:50.000Z</time>
      </trkpt>
      <trkpt lat="44.73053" lon="5.60256">
        <ele>1502</ele>
        <time>2013-09-14T11:03:50.000Z</time>
      </trkpt>
      <trkpt lat="44.73053" lon="5.60256">
        <ele>1502</ele>
        <time>2013-09-14T11:03:53.000Z</time>
      </trkpt>
      <trkpt lat="44.73059" lon="5.60258">
        <ele>1500</ele>
        <time>2013-09-14T11:03:54.000Z</time>
      </trkpt>
      <trkpt lat="44.73059" lon="5.60258">
        <ele>1500</ele>
        <time>2013-09-14T11:03:54.000Z</time>
      </trkpt>
      <trkpt lat="44.73059" lon="5.60258">
        <ele>1498</ele>
        <time>2013-09-14T11:04:25.000Z</time>
      </trkpt>
      <trkpt lat="44.73049" lon="5.60256">
        <ele>1496</ele>
        <time>2013-09-14T11:04:26.000Z</time>
      </trkpt>
      <trkpt lat="44.73049" lon="5.60256">
        <ele>1496</ele>
        <time>2013-09-14T11:04:26.000Z</time>
      </trkpt>
      <trkpt lat="44.73049" lon="5.60256">
        <ele>1496</ele>
        <time>2013-09-14T11:04:28.000Z</time>
      </trkpt>
      <trkpt lat="44.73043" lon="5.6026">
        <ele>1496</ele>
        <time>2013-09-14T11:04:29.000Z</time>
      </trkpt>
      <trkpt lat="44.73043" lon="5.6026">
        <ele>1496</ele>
        <time>2013-09-14T11:04:29.000Z</time>
      </trkpt>
      <trkpt lat="44.73043" lon="5.6026">
        <ele>1496</ele>
        <time>2013-09-14T11:04:30.000Z</time>
      </trkpt>
      <trkpt lat="44.73036" lon="5.60266">
        <ele>1496</ele>
        <time>2013-09-14T11:04:31.000Z</time>
      </trkpt>
      <trkpt lat="44.73029" lon="5.60273">
        <ele>1495</ele>
        <time>2013-09-14T11:04:33.000Z</time>
      </trkpt>
      <trkpt lat="44.73023" lon="5.60281">
        <ele>1495</ele>
        <time>2013-09-14T11:04:35.000Z</time>
      </trkpt>
      <trkpt lat="44.73021" lon="5.60288">
        <ele>1493</ele>
        <time>2013-09-14T11:04:36.000Z</time>
      </trkpt>
      <trkpt lat="44.73014" lon="5.60298">
        <ele>1491</ele>
        <time>2013-09-14T11:04:38.000Z</time>
      </trkpt>
      <trkpt lat="44.73009" lon="5.60303">
        <ele>1490</ele>
        <time>2013-09-14T11:04:39.000Z</time>
      </trkpt>
      <trkpt lat="44.73002" lon="5.60313">
        <ele>1489</ele>
        <time>2013-09-14T11:04:41.000Z</time>
      </trkpt>
      <trkpt lat="44.72998" lon="5.60318">
        <ele>1489</ele>
        <time>2013-09-14T11:04:42.000Z</time>
      </trkpt>
      <trkpt lat="44.72992" lon="5.60322">
        <ele>1488</ele>
        <time>2013-09-14T11:04:43.000Z</time>
      </trkpt>
      <trkpt lat="44.72987" lon="5.60326">
        <ele>1489</ele>
        <time>2013-09-14T11:04:44.000Z</time>
      </trkpt>
      <trkpt lat="44.72982" lon="5.60333">
        <ele>1489</ele>
        <time>2013-09-14T11:04:45.000Z</time>
      </trkpt>
      <trkpt lat="44.72976" lon="5.60337">
        <ele>1489</ele>
        <time>2013-09-14T11:04:46.000Z</time>
      </trkpt>
      <trkpt lat="44.72972" lon="5.60339">
        <ele>1489</ele>
        <time>2013-09-14T11:04:47.000Z</time>
      </trkpt>
      <trkpt lat="44.72966" lon="5.60344">
        <ele>1489</ele>
        <time>2013-09-14T11:04:49.000Z</time>
      </trkpt>
      <trkpt lat="44.72961" lon="5.60348">
        <ele>1489</ele>
        <time>2013-09-14T11:04:51.000Z</time>
      </trkpt>
      <trkpt lat="44.72954" lon="5.6035">
        <ele>1489</ele>
        <time>2013-09-14T11:04:53.000Z</time>
      </trkpt>
      <trkpt lat="44.72948" lon="5.6035">
        <ele>1489</ele>
        <time>2013-09-14T11:04:54.000Z</time>
      </trkpt>
      <trkpt lat="44.72942" lon="5.6035">
        <ele>1489</ele>
        <time>2013-09-14T11:04:55.000Z</time>
      </trkpt>
      <trkpt lat="44.72935" lon="5.6035">
        <ele>1489</ele>
        <time>2013-09-14T11:04:56.000Z</time>
      </trkpt>
      <trkpt lat="44.72929" lon="5.6035">
        <ele>1488</ele>
        <time>2013-09-14T11:04:57.000Z</time>
      </trkpt>
      <trkpt lat="44.72922" lon="5.60348">
        <ele>1488</ele>
        <time>2013-09-14T11:04:58.000Z</time>
      </trkpt>
      <trkpt lat="44.72916" lon="5.60348">
        <ele>1488</ele>
        <time>2013-09-14T11:04:59.000Z</time>
      </trkpt>
      <trkpt lat="44.72911" lon="5.60348">
        <ele>1489</ele>
        <time>2013-09-14T11:05:00.000Z</time>
      </trkpt>
      <trkpt lat="44.72905" lon="5.60346">
        <ele>1489</ele>
        <time>2013-09-14T11:05:01.000Z</time>
      </trkpt>
      <trkpt lat="44.729" lon="5.60346">
        <ele>1489</ele>
        <time>2013-09-14T11:05:02.000Z</time>
      </trkpt>
      <trkpt lat="44.72891" lon="5.60346">
        <ele>1489</ele>
        <time>2013-09-14T11:05:04.000Z</time>
      </trkpt>
      <trkpt lat="44.72882" lon="5.60344">
        <ele>1489</ele>
        <time>2013-09-14T11:05:06.000Z</time>
      </trkpt>
      <trkpt lat="44.72872" lon="5.60344">
        <ele>1489</ele>
        <time>2013-09-14T11:05:08.000Z</time>
      </trkpt>
      <trkpt lat="44.72866" lon="5.60344">
        <ele>1489</ele>
        <time>2013-09-14T11:05:09.000Z</time>
      </trkpt>
      <trkpt lat="44.72859" lon="5.60344">
        <ele>1488</ele>
        <time>2013-09-14T11:05:10.000Z</time>
      </trkpt>
      <trkpt lat="44.72851" lon="5.60346">
        <ele>1488</ele>
        <time>2013-09-14T11:05:12.000Z</time>
      </trkpt>
      <trkpt lat="44.72845" lon="5.60346">
        <ele>1488</ele>
        <time>2013-09-14T11:05:13.000Z</time>
      </trkpt>
      <trkpt lat="44.72841" lon="5.60348">
        <ele>1488</ele>
        <time>2013-09-14T11:05:14.000Z</time>
      </trkpt>
      <trkpt lat="44.72831" lon="5.6035">
        <ele>1488</ele>
        <time>2013-09-14T11:05:16.000Z</time>
      </trkpt>
      <trkpt lat="44.72827" lon="5.60352">
        <ele>1488</ele>
        <time>2013-09-14T11:05:17.000Z</time>
      </trkpt>
      <trkpt lat="44.72822" lon="5.60354">
        <ele>1488</ele>
        <time>2013-09-14T11:05:18.000Z</time>
      </trkpt>
      <trkpt lat="44.72817" lon="5.60356">
        <ele>1488</ele>
        <time>2013-09-14T11:05:19.000Z</time>
      </trkpt>
      <trkpt lat="44.72812" lon="5.60356">
        <ele>1488</ele>
        <time>2013-09-14T11:05:20.000Z</time>
      </trkpt>
      <trkpt lat="44.72807" lon="5.60358">
        <ele>1489</ele>
        <time>2013-09-14T11:05:21.000Z</time>
      </trkpt>
      <trkpt lat="44.72801" lon="5.60361">
        <ele>1489</ele>
        <time>2013-09-14T11:05:22.000Z</time>
      </trkpt>
      <trkpt lat="44.72796" lon="5.60363">
        <ele>1489</ele>
        <time>2013-09-14T11:05:23.000Z</time>
      </trkpt>
      <trkpt lat="44.7279" lon="5.60365">
        <ele>1489</ele>
        <time>2013-09-14T11:05:24.000Z</time>
      </trkpt>
      <trkpt lat="44.72783" lon="5.60369">
        <ele>1489</ele>
        <time>2013-09-14T11:05:25.000Z</time>
      </trkpt>
      <trkpt lat="44.72777" lon="5.60371">
        <ele>1490</ele>
        <time>2013-09-14T11:05:26.000Z</time>
      </trkpt>
      <trkpt lat="44.72769" lon="5.60374">
        <ele>1490</ele>
        <time>2013-09-14T11:05:27.000Z</time>
      </trkpt>
      <trkpt lat="44.72762" lon="5.60376">
        <ele>1490</ele>
        <time>2013-09-14T11:05:28.000Z</time>
      </trkpt>
      <trkpt lat="44.72753" lon="5.60378">
        <ele>1490</ele>
        <time>2013-09-14T11:05:29.000Z</time>
      </trkpt>
      <trkpt lat="44.72744" lon="5.60376">
        <ele>1490</ele>
        <time>2013-09-14T11:05:30.000Z</time>
      </trkpt>
      <trkpt lat="44.72736" lon="5.60376">
        <ele>1490</ele>
        <time>2013-09-14T11:05:31.000Z</time>
      </trkpt>
      <trkpt lat="44.72728" lon="5.60371">
        <ele>1491</ele>
        <time>2013-09-14T11:05:32.000Z</time>
      </trkpt>
      <trkpt lat="44.72721" lon="5.60367">
        <ele>1492</ele>
        <time>2013-09-14T11:05:33.000Z</time>
      </trkpt>
      <trkpt lat="44.72714" lon="5.60361">
        <ele>1493</ele>
        <time>2013-09-14T11:05:34.000Z</time>
      </trkpt>
      <trkpt lat="44.72709" lon="5.60352">
        <ele>1494</ele>
        <time>2013-09-14T11:05:35.000Z</time>
      </trkpt>
      <trkpt lat="44.72705" lon="5.60341">
        <ele>1495</ele>
        <time>2013-09-14T11:05:36.000Z</time>
      </trkpt>
      <trkpt lat="44.727" lon="5.60333">
        <ele>1496</ele>
        <time>2013-09-14T11:05:37.000Z</time>
      </trkpt>
      <trkpt lat="44.72697" lon="5.60324">
        <ele>1497</ele>
        <time>2013-09-14T11:05:38.000Z</time>
      </trkpt>
      <trkpt lat="44.72696" lon="5.60318">
        <ele>1497</ele>
        <time>2013-09-14T11:05:39.000Z</time>
      </trkpt>
      <trkpt lat="44.72696" lon="5.60311">
        <ele>1497</ele>
        <time>2013-09-14T11:05:40.000Z</time>
      </trkpt>
      <trkpt lat="44.72695" lon="5.603">
        <ele>1497</ele>
        <time>2013-09-14T11:05:42.000Z</time>
      </trkpt>
      <trkpt lat="44.72696" lon="5.6029">
        <ele>1497</ele>
        <time>2013-09-14T11:05:44.000Z</time>
      </trkpt>
      <trkpt lat="44.727" lon="5.60279">
        <ele>1497</ele>
        <time>2013-09-14T11:05:46.000Z</time>
      </trkpt>
      <trkpt lat="44.727" lon="5.60279">
        <ele>1497</ele>
        <time>2013-09-14T11:05:46.000Z</time>
      </trkpt>
      <trkpt lat="44.727" lon="5.60279">
        <ele>1497</ele>
        <time>2013-09-14T11:05:53.000Z</time>
      </trkpt>
      <trkpt lat="44.72706" lon="5.6027">
        <ele>1496</ele>
        <time>2013-09-14T11:05:54.000Z</time>
      </trkpt>
      <trkpt lat="44.72706" lon="5.6027">
        <ele>1496</ele>
        <time>2013-09-14T11:05:54.000Z</time>
      </trkpt>
      <trkpt lat="44.72706" lon="5.6027">
        <ele>1496</ele>
        <time>2013-09-14T11:06:00.000Z</time>
      </trkpt>
      <trkpt lat="44.7271" lon="5.60279">
        <ele>1493</ele>
        <time>2013-09-14T11:06:01.000Z</time>
      </trkpt>
      <trkpt lat="44.72713" lon="5.60286">
        <ele>1493</ele>
        <time>2013-09-14T11:06:03.000Z</time>
      </trkpt>
      <trkpt lat="44.72718" lon="5.60292">
        <ele>1492</ele>
        <time>2013-09-14T11:06:05.000Z</time>
      </trkpt>
      <trkpt lat="44.72724" lon="5.60294">
        <ele>1491</ele>
        <time>2013-09-14T11:06:07.000Z</time>
      </trkpt>
      <trkpt lat="44.7273" lon="5.60294">
        <ele>1490</ele>
        <time>2013-09-14T11:06:09.000Z</time>
      </trkpt>
      <trkpt lat="44.72739" lon="5.60292">
        <ele>1487</ele>
        <time>2013-09-14T11:06:11.000Z</time>
      </trkpt>
      <trkpt lat="44.72743" lon="5.6029">
        <ele>1484</ele>
        <time>2013-09-14T11:06:12.000Z</time>
      </trkpt>
      <trkpt lat="44.72749" lon="5.60286">
        <ele>1481</ele>
        <time>2013-09-14T11:06:13.000Z</time>
      </trkpt>
      <trkpt lat="44.72754" lon="5.60283">
        <ele>1479</ele>
        <time>2013-09-14T11:06:14.000Z</time>
      </trkpt>
      <trkpt lat="44.72758" lon="5.60281">
        <ele>1477</ele>
        <time>2013-09-14T11:06:15.000Z</time>
      </trkpt>
      <trkpt lat="44.72764" lon="5.60277">
        <ele>1476</ele>
        <time>2013-09-14T11:06:16.000Z</time>
      </trkpt>
      <trkpt lat="44.72769" lon="5.60275">
        <ele>1475</ele>
        <time>2013-09-14T11:06:17.000Z</time>
      </trkpt>
      <trkpt lat="44.72776" lon="5.6027">
        <ele>1474</ele>
        <time>2013-09-14T11:06:18.000Z</time>
      </trkpt>
      <trkpt lat="44.72783" lon="5.60266">
        <ele>1473</ele>
        <time>2013-09-14T11:06:19.000Z</time>
      </trkpt>
      <trkpt lat="44.7279" lon="5.60262">
        <ele>1472</ele>
        <time>2013-09-14T11:06:20.000Z</time>
      </trkpt>
      <trkpt lat="44.72794" lon="5.60258">
        <ele>1472</ele>
        <time>2013-09-14T11:06:21.000Z</time>
      </trkpt>
      <trkpt lat="44.72806" lon="5.60249">
        <ele>1470</ele>
        <time>2013-09-14T11:06:26.000Z</time>
      </trkpt>
      <trkpt lat="44.72811" lon="5.60243">
        <ele>1470</ele>
        <time>2013-09-14T11:06:28.000Z</time>
      </trkpt>
      <trkpt lat="44.72818" lon="5.60236">
        <ele>1468</ele>
        <time>2013-09-14T11:06:30.000Z</time>
      </trkpt>
      <trkpt lat="44.72822" lon="5.60232">
        <ele>1467</ele>
        <time>2013-09-14T11:06:31.000Z</time>
      </trkpt>
      <trkpt lat="44.72826" lon="5.60225">
        <ele>1466</ele>
        <time>2013-09-14T11:06:32.000Z</time>
      </trkpt>
      <trkpt lat="44.72831" lon="5.60221">
        <ele>1465</ele>
        <time>2013-09-14T11:06:33.000Z</time>
      </trkpt>
      <trkpt lat="44.72836" lon="5.60217">
        <ele>1465</ele>
        <time>2013-09-14T11:06:34.000Z</time>
      </trkpt>
      <trkpt lat="44.72841" lon="5.60213">
        <ele>1464</ele>
        <time>2013-09-14T11:06:35.000Z</time>
      </trkpt>
      <trkpt lat="44.72846" lon="5.6021">
        <ele>1464</ele>
        <time>2013-09-14T11:06:36.000Z</time>
      </trkpt>
      <trkpt lat="44.72852" lon="5.6021">
        <ele>1463</ele>
        <time>2013-09-14T11:06:37.000Z</time>
      </trkpt>
      <trkpt lat="44.72858" lon="5.6021">
        <ele>1463</ele>
        <time>2013-09-14T11:06:38.000Z</time>
      </trkpt>
      <trkpt lat="44.72864" lon="5.60208">
        <ele>1462</ele>
        <time>2013-09-14T11:06:39.000Z</time>
      </trkpt>
      <trkpt lat="44.7287" lon="5.60208">
        <ele>1462</ele>
        <time>2013-09-14T11:06:40.000Z</time>
      </trkpt>
      <trkpt lat="44.72875" lon="5.60206">
        <ele>1461</ele>
        <time>2013-09-14T11:06:41.000Z</time>
      </trkpt>
      <trkpt lat="44.72882" lon="5.60206">
        <ele>1460</ele>
        <time>2013-09-14T11:06:42.000Z</time>
      </trkpt>
      <trkpt lat="44.72887" lon="5.60204">
        <ele>1460</ele>
        <time>2013-09-14T11:06:43.000Z</time>
      </trkpt>
      <trkpt lat="44.72894" lon="5.60204">
        <ele>1460</ele>
        <time>2013-09-14T11:06:44.000Z</time>
      </trkpt>
      <trkpt lat="44.729" lon="5.60202">
        <ele>1460</ele>
        <time>2013-09-14T11:06:45.000Z</time>
      </trkpt>
      <trkpt lat="44.72906" lon="5.60195">
        <ele>1459</ele>
        <time>2013-09-14T11:06:46.000Z</time>
      </trkpt>
      <trkpt lat="44.72911" lon="5.60187">
        <ele>1459</ele>
        <time>2013-09-14T11:06:47.000Z</time>
      </trkpt>
      <trkpt lat="44.72916" lon="5.6018">
        <ele>1459</ele>
        <time>2013-09-14T11:06:48.000Z</time>
      </trkpt>
      <trkpt lat="44.72921" lon="5.60172">
        <ele>1458</ele>
        <time>2013-09-14T11:06:49.000Z</time>
      </trkpt>
      <trkpt lat="44.72927" lon="5.60163">
        <ele>1458</ele>
        <time>2013-09-14T11:06:50.000Z</time>
      </trkpt>
      <trkpt lat="44.72931" lon="5.60152">
        <ele>1457</ele>
        <time>2013-09-14T11:06:51.000Z</time>
      </trkpt>
      <trkpt lat="44.72934" lon="5.60144">
        <ele>1456</ele>
        <time>2013-09-14T11:06:52.000Z</time>
      </trkpt>
      <trkpt lat="44.72938" lon="5.60133">
        <ele>1455</ele>
        <time>2013-09-14T11:06:53.000Z</time>
      </trkpt>
      <trkpt lat="44.7294" lon="5.60122">
        <ele>1455</ele>
        <time>2013-09-14T11:06:54.000Z</time>
      </trkpt>
      <trkpt lat="44.72942" lon="5.60112">
        <ele>1454</ele>
        <time>2013-09-14T11:06:55.000Z</time>
      </trkpt>
      <trkpt lat="44.72944" lon="5.60101">
        <ele>1454</ele>
        <time>2013-09-14T11:06:56.000Z</time>
      </trkpt>
      <trkpt lat="44.72947" lon="5.6009">
        <ele>1453</ele>
        <time>2013-09-14T11:06:57.000Z</time>
      </trkpt>
      <trkpt lat="44.7295" lon="5.60082">
        <ele>1453</ele>
        <time>2013-09-14T11:06:58.000Z</time>
      </trkpt>
      <trkpt lat="44.72954" lon="5.60071">
        <ele>1452</ele>
        <time>2013-09-14T11:06:59.000Z</time>
      </trkpt>
      <trkpt lat="44.72958" lon="5.60064">
        <ele>1451</ele>
        <time>2013-09-14T11:07:00.000Z</time>
      </trkpt>
      <trkpt lat="44.72962" lon="5.60058">
        <ele>1451</ele>
        <time>2013-09-14T11:07:01.000Z</time>
      </trkpt>
      <trkpt lat="44.72968" lon="5.60052">
        <ele>1451</ele>
        <time>2013-09-14T11:07:02.000Z</time>
      </trkpt>
      <trkpt lat="44.72972" lon="5.60047">
        <ele>1452</ele>
        <time>2013-09-14T11:07:03.000Z</time>
      </trkpt>
      <trkpt lat="44.72977" lon="5.60045">
        <ele>1452</ele>
        <time>2013-09-14T11:07:04.000Z</time>
      </trkpt>
      <trkpt lat="44.72984" lon="5.60043">
        <ele>1452</ele>
        <time>2013-09-14T11:07:05.000Z</time>
      </trkpt>
      <trkpt lat="44.7299" lon="5.60047">
        <ele>1452</ele>
        <time>2013-09-14T11:07:06.000Z</time>
      </trkpt>
      <trkpt lat="44.72996" lon="5.6005">
        <ele>1452</ele>
        <time>2013-09-14T11:07:07.000Z</time>
      </trkpt>
      <trkpt lat="44.73004" lon="5.60052">
        <ele>1452</ele>
        <time>2013-09-14T11:07:08.000Z</time>
      </trkpt>
      <trkpt lat="44.73012" lon="5.60054">
        <ele>1452</ele>
        <time>2013-09-14T11:07:09.000Z</time>
      </trkpt>
      <trkpt lat="44.73019" lon="5.60056">
        <ele>1452</ele>
        <time>2013-09-14T11:07:10.000Z</time>
      </trkpt>
      <trkpt lat="44.73027" lon="5.60058">
        <ele>1451</ele>
        <time>2013-09-14T11:07:11.000Z</time>
      </trkpt>
      <trkpt lat="44.73034" lon="5.60062">
        <ele>1450</ele>
        <time>2013-09-14T11:07:12.000Z</time>
      </trkpt>
      <trkpt lat="44.73042" lon="5.60064">
        <ele>1450</ele>
        <time>2013-09-14T11:07:13.000Z</time>
      </trkpt>
      <trkpt lat="44.73047" lon="5.60067">
        <ele>1450</ele>
        <time>2013-09-14T11:07:14.000Z</time>
      </trkpt>
      <trkpt lat="44.73052" lon="5.60067">
        <ele>1449</ele>
        <time>2013-09-14T11:07:15.000Z</time>
      </trkpt>
      <trkpt lat="44.73058" lon="5.60069">
        <ele>1449</ele>
        <time>2013-09-14T11:07:16.000Z</time>
      </trkpt>
      <trkpt lat="44.73063" lon="5.60071">
        <ele>1449</ele>
        <time>2013-09-14T11:07:17.000Z</time>
      </trkpt>
      <trkpt lat="44.73068" lon="5.60073">
        <ele>1449</ele>
        <time>2013-09-14T11:07:18.000Z</time>
      </trkpt>
      <trkpt lat="44.73074" lon="5.60073">
        <ele>1449</ele>
        <time>2013-09-14T11:07:19.000Z</time>
      </trkpt>
      <trkpt lat="44.73079" lon="5.60071">
        <ele>1448</ele>
        <time>2013-09-14T11:07:20.000Z</time>
      </trkpt>
      <trkpt lat="44.73084" lon="5.60069">
        <ele>1448</ele>
        <time>2013-09-14T11:07:21.000Z</time>
      </trkpt>
      <trkpt lat="44.73089" lon="5.60067">
        <ele>1448</ele>
        <time>2013-09-14T11:07:22.000Z</time>
      </trkpt>
      <trkpt lat="44.73094" lon="5.60062">
        <ele>1448</ele>
        <time>2013-09-14T11:07:23.000Z</time>
      </trkpt>
      <trkpt lat="44.73098" lon="5.6006">
        <ele>1448</ele>
        <time>2013-09-14T11:07:24.000Z</time>
      </trkpt>
      <trkpt lat="44.73104" lon="5.60054">
        <ele>1448</ele>
        <time>2013-09-14T11:07:25.000Z</time>
      </trkpt>
      <trkpt lat="44.7311" lon="5.60043">
        <ele>1447</ele>
        <time>2013-09-14T11:07:27.000Z</time>
      </trkpt>
      <trkpt lat="44.73115" lon="5.60037">
        <ele>1446</ele>
        <time>2013-09-14T11:07:28.000Z</time>
      </trkpt>
      <trkpt lat="44.73118" lon="5.6003">
        <ele>1446</ele>
        <time>2013-09-14T11:07:29.000Z</time>
      </trkpt>
      <trkpt lat="44.73118" lon="5.60022">
        <ele>1445</ele>
        <time>2013-09-14T11:07:30.000Z</time>
      </trkpt>
      <trkpt lat="44.73118" lon="5.60015">
        <ele>1445</ele>
        <time>2013-09-14T11:07:31.000Z</time>
      </trkpt>
      <trkpt lat="44.73118" lon="5.60009">
        <ele>1444</ele>
        <time>2013-09-14T11:07:32.000Z</time>
      </trkpt>
      <trkpt lat="44.73118" lon="5.59998">
        <ele>1443</ele>
        <time>2013-09-14T11:07:34.000Z</time>
      </trkpt>
      <trkpt lat="44.73118" lon="5.59992">
        <ele>1442</ele>
        <time>2013-09-14T11:07:35.000Z</time>
      </trkpt>
      <trkpt lat="44.73121" lon="5.59981">
        <ele>1441</ele>
        <time>2013-09-14T11:07:37.000Z</time>
      </trkpt>
      <trkpt lat="44.73123" lon="5.59974">
        <ele>1441</ele>
        <time>2013-09-14T11:07:38.000Z</time>
      </trkpt>
      <trkpt lat="44.73126" lon="5.59964">
        <ele>1440</ele>
        <time>2013-09-14T11:07:40.000Z</time>
      </trkpt>
      <trkpt lat="44.7313" lon="5.59957">
        <ele>1440</ele>
        <time>2013-09-14T11:07:41.000Z</time>
      </trkpt>
      <trkpt lat="44.73132" lon="5.59951">
        <ele>1440</ele>
        <time>2013-09-14T11:07:42.000Z</time>
      </trkpt>
      <trkpt lat="44.73135" lon="5.59944">
        <ele>1439</ele>
        <time>2013-09-14T11:07:43.000Z</time>
      </trkpt>
      <trkpt lat="44.73138" lon="5.59936">
        <ele>1439</ele>
        <time>2013-09-14T11:07:44.000Z</time>
      </trkpt>
      <trkpt lat="44.7314" lon="5.59929">
        <ele>1439</ele>
        <time>2013-09-14T11:07:45.000Z</time>
      </trkpt>
      <trkpt lat="44.73142" lon="5.59923">
        <ele>1439</ele>
        <time>2013-09-14T11:07:46.000Z</time>
      </trkpt>
      <trkpt lat="44.73145" lon="5.59916">
        <ele>1439</ele>
        <time>2013-09-14T11:07:47.000Z</time>
      </trkpt>
      <trkpt lat="44.73147" lon="5.59908">
        <ele>1438</ele>
        <time>2013-09-14T11:07:48.000Z</time>
      </trkpt>
      <trkpt lat="44.73149" lon="5.59901">
        <ele>1438</ele>
        <time>2013-09-14T11:07:49.000Z</time>
      </trkpt>
      <trkpt lat="44.73151" lon="5.59895">
        <ele>1438</ele>
        <time>2013-09-14T11:07:50.000Z</time>
      </trkpt>
      <trkpt lat="44.73153" lon="5.59889">
        <ele>1437</ele>
        <time>2013-09-14T11:07:51.000Z</time>
      </trkpt>
      <trkpt lat="44.73154" lon="5.59882">
        <ele>1437</ele>
        <time>2013-09-14T11:07:52.000Z</time>
      </trkpt>
      <trkpt lat="44.73156" lon="5.59876">
        <ele>1437</ele>
        <time>2013-09-14T11:07:53.000Z</time>
      </trkpt>
      <trkpt lat="44.73158" lon="5.59869">
        <ele>1437</ele>
        <time>2013-09-14T11:07:54.000Z</time>
      </trkpt>
      <trkpt lat="44.7316" lon="5.59863">
        <ele>1437</ele>
        <time>2013-09-14T11:07:55.000Z</time>
      </trkpt>
      <trkpt lat="44.73166" lon="5.59854">
        <ele>1437</ele>
        <time>2013-09-14T11:07:57.000Z</time>
      </trkpt>
      <trkpt lat="44.73171" lon="5.59848">
        <ele>1437</ele>
        <time>2013-09-14T11:08:00.000Z</time>
      </trkpt>
      <trkpt lat="44.73171" lon="5.59848">
        <ele>1437</ele>
        <time>2013-09-14T11:08:00.000Z</time>
      </trkpt>
      <trkpt lat="44.73171" lon="5.59848">
        <ele>1437</ele>
        <time>2013-09-14T11:08:15.000Z</time>
      </trkpt>
      <trkpt lat="44.73176" lon="5.59844">
        <ele>1436</ele>
        <time>2013-09-14T11:08:16.000Z</time>
      </trkpt>
      <trkpt lat="44.73176" lon="5.59844">
        <ele>1436</ele>
        <time>2013-09-14T11:08:16.000Z</time>
      </trkpt>
      <trkpt lat="44.73176" lon="5.59844">
        <ele>1434</ele>
        <time>2013-09-14T11:11:15.000Z</time>
      </trkpt>
      <trkpt lat="44.7318" lon="5.59846">
        <ele>1432</ele>
        <time>2013-09-14T11:11:56.000Z</time>
      </trkpt>
      <trkpt lat="44.7318" lon="5.59846">
        <ele>1432</ele>
        <time>2013-09-14T11:11:56.000Z</time>
      </trkpt>
      <trkpt lat="44.7318" lon="5.59846">
        <ele>1432</ele>
        <time>2013-09-14T11:11:58.000Z</time>
      </trkpt>
      <trkpt lat="44.73178" lon="5.59839">
        <ele>1432</ele>
        <time>2013-09-14T11:12:50.000Z</time>
      </trkpt>
      <trkpt lat="44.73174" lon="5.59837">
        <ele>1432</ele>
        <time>2013-09-14T11:13:02.000Z</time>
      </trkpt>
      <trkpt lat="44.73174" lon="5.59837">
        <ele>1432</ele>
        <time>2013-09-14T11:13:02.000Z</time>
      </trkpt>
      <trkpt lat="44.73174" lon="5.59837">
        <ele>1434</ele>
        <time>2013-09-14T11:14:29.000Z</time>
      </trkpt>
      <trkpt lat="44.73169" lon="5.59839">
        <ele>1435</ele>
        <time>2013-09-14T11:14:58.000Z</time>
      </trkpt>
      <trkpt lat="44.73169" lon="5.59839">
        <ele>1435</ele>
        <time>2013-09-14T11:14:58.000Z</time>
      </trkpt>
      <trkpt lat="44.73169" lon="5.59839">
        <ele>1436</ele>
        <time>2013-09-14T11:15:15.000Z</time>
      </trkpt>
      <trkpt lat="44.7317" lon="5.59833">
        <ele>1437</ele>
        <time>2013-09-14T11:15:39.000Z</time>
      </trkpt>
      <trkpt lat="44.7317" lon="5.59833">
        <ele>1437</ele>
        <time>2013-09-14T11:15:39.000Z</time>
      </trkpt>
      <trkpt lat="44.7317" lon="5.59833">
        <ele>1437</ele>
        <time>2013-09-14T11:15:42.000Z</time>
      </trkpt>
      <trkpt lat="44.73171" lon="5.59826">
        <ele>1437</ele>
        <time>2013-09-14T11:15:54.000Z</time>
      </trkpt>
      <trkpt lat="44.73171" lon="5.59826">
        <ele>1437</ele>
        <time>2013-09-14T11:15:54.000Z</time>
      </trkpt>
      <trkpt lat="44.73171" lon="5.59826">
        <ele>1438</ele>
        <time>2013-09-14T11:16:00.000Z</time>
      </trkpt>
      <trkpt lat="44.73175" lon="5.59831">
        <ele>1438</ele>
        <time>2013-09-14T11:16:19.000Z</time>
      </trkpt>
      <trkpt lat="44.73174" lon="5.59837">
        <ele>1438</ele>
        <time>2013-09-14T11:16:23.000Z</time>
      </trkpt>
      <trkpt lat="44.73174" lon="5.59837">
        <ele>1438</ele>
        <time>2013-09-14T11:16:23.000Z</time>
      </trkpt>
      <trkpt lat="44.73174" lon="5.59837">
        <ele>1438</ele>
        <time>2013-09-14T11:16:24.000Z</time>
      </trkpt>
      <trkpt lat="44.73169" lon="5.59839">
        <ele>1438</ele>
        <time>2013-09-14T11:16:36.000Z</time>
      </trkpt>
      <trkpt lat="44.73169" lon="5.59839">
        <ele>1438</ele>
        <time>2013-09-14T11:16:36.000Z</time>
      </trkpt>
      <trkpt lat="44.73169" lon="5.59839">
        <ele>1438</ele>
        <time>2013-09-14T11:16:39.000Z</time>
      </trkpt>
      <trkpt lat="44.73167" lon="5.59833">
        <ele>1438</ele>
        <time>2013-09-14T11:16:56.000Z</time>
      </trkpt>
      <trkpt lat="44.73167" lon="5.59833">
        <ele>1438</ele>
        <time>2013-09-14T11:16:56.000Z</time>
      </trkpt>
      <trkpt lat="44.73167" lon="5.59833">
        <ele>1438</ele>
        <time>2013-09-14T11:17:10.000Z</time>
      </trkpt>
      <trkpt lat="44.73167" lon="5.59839">
        <ele>1437</ele>
        <time>2013-09-14T11:17:46.000Z</time>
      </trkpt>
      <trkpt lat="44.73167" lon="5.59839">
        <ele>1437</ele>
        <time>2013-09-14T11:17:46.000Z</time>
      </trkpt>
      <trkpt lat="44.73167" lon="5.59839">
        <ele>1436</ele>
        <time>2013-09-14T11:18:56.000Z</time>
      </trkpt>
      <trkpt lat="44.73162" lon="5.59837">
        <ele>1435</ele>
        <time>2013-09-14T11:19:37.000Z</time>
      </trkpt>
      <trkpt lat="44.73162" lon="5.59837">
        <ele>1435</ele>
        <time>2013-09-14T11:19:37.000Z</time>
      </trkpt>
      <trkpt lat="44.73162" lon="5.59837">
        <ele>1435</ele>
        <time>2013-09-14T11:19:49.000Z</time>
      </trkpt>
      <trkpt lat="44.73158" lon="5.59835">
        <ele>1434</ele>
        <time>2013-09-14T11:20:42.000Z</time>
      </trkpt>
      <trkpt lat="44.73158" lon="5.59835">
        <ele>1434</ele>
        <time>2013-09-14T11:20:42.000Z</time>
      </trkpt>
      <trkpt lat="44.73158" lon="5.59835">
        <ele>1434</ele>
        <time>2013-09-14T11:20:46.000Z</time>
      </trkpt>
      <trkpt lat="44.73156" lon="5.59841">
        <ele>1434</ele>
        <time>2013-09-14T11:21:06.000Z</time>
      </trkpt>
      <trkpt lat="44.73156" lon="5.59841">
        <ele>1434</ele>
        <time>2013-09-14T11:21:06.000Z</time>
      </trkpt>
      <trkpt lat="44.73156" lon="5.59841">
        <ele>1434</ele>
        <time>2013-09-14T11:21:07.000Z</time>
      </trkpt>
      <trkpt lat="44.7316" lon="5.59846">
        <ele>1433</ele>
        <time>2013-09-14T11:21:24.000Z</time>
      </trkpt>
      <trkpt lat="44.7316" lon="5.59846">
        <ele>1433</ele>
        <time>2013-09-14T11:21:24.000Z</time>
      </trkpt>
      <trkpt lat="44.7316" lon="5.59846">
        <ele>1433</ele>
        <time>2013-09-14T11:21:27.000Z</time>
      </trkpt>
      <trkpt lat="44.73165" lon="5.59846">
        <ele>1433</ele>
        <time>2013-09-14T11:21:45.000Z</time>
      </trkpt>
      <trkpt lat="44.73165" lon="5.59846">
        <ele>1433</ele>
        <time>2013-09-14T11:21:45.000Z</time>
      </trkpt>
      <trkpt lat="44.73165" lon="5.59846">
        <ele>1433</ele>
        <time>2013-09-14T11:21:51.000Z</time>
      </trkpt>
      <trkpt lat="44.7317" lon="5.59846">
        <ele>1433</ele>
        <time>2013-09-14T11:22:14.000Z</time>
      </trkpt>
      <trkpt lat="44.7317" lon="5.59846">
        <ele>1433</ele>
        <time>2013-09-14T11:22:14.000Z</time>
      </trkpt>
      <trkpt lat="44.7317" lon="5.59846">
        <ele>1433</ele>
        <time>2013-09-14T11:22:16.000Z</time>
      </trkpt>
      <trkpt lat="44.73175" lon="5.59848">
        <ele>1433</ele>
        <time>2013-09-14T11:22:37.000Z</time>
      </trkpt>
      <trkpt lat="44.73175" lon="5.59848">
        <ele>1433</ele>
        <time>2013-09-14T11:22:37.000Z</time>
      </trkpt>
      <trkpt lat="44.73175" lon="5.59848">
        <ele>1432</ele>
        <time>2013-09-14T11:23:10.000Z</time>
      </trkpt>
      <trkpt lat="44.73175" lon="5.59841">
        <ele>1432</ele>
        <time>2013-09-14T11:23:15.000Z</time>
      </trkpt>
      <trkpt lat="44.73175" lon="5.59841">
        <ele>1432</ele>
        <time>2013-09-14T11:23:15.000Z</time>
      </trkpt>
      <trkpt lat="44.73175" lon="5.59841">
        <ele>1432</ele>
        <time>2013-09-14T11:23:19.000Z</time>
      </trkpt>
      <trkpt lat="44.73172" lon="5.59835">
        <ele>1432</ele>
        <time>2013-09-14T11:23:47.000Z</time>
      </trkpt>
      <trkpt lat="44.73172" lon="5.59835">
        <ele>1432</ele>
        <time>2013-09-14T11:23:47.000Z</time>
      </trkpt>
      <trkpt lat="44.73172" lon="5.59835">
        <ele>1432</ele>
        <time>2013-09-14T11:23:50.000Z</time>
      </trkpt>
      <trkpt lat="44.73177" lon="5.59831">
        <ele>1430</ele>
        <time>2013-09-14T11:25:17.000Z</time>
      </trkpt>
      <trkpt lat="44.73181" lon="5.59828">
        <ele>1430</ele>
        <time>2013-09-14T11:25:19.000Z</time>
      </trkpt>
      <trkpt lat="44.73186" lon="5.59826">
        <ele>1430</ele>
        <time>2013-09-14T11:25:21.000Z</time>
      </trkpt>
      <trkpt lat="44.7319" lon="5.5982">
        <ele>1430</ele>
        <time>2013-09-14T11:25:23.000Z</time>
      </trkpt>
      <trkpt lat="44.73192" lon="5.59813">
        <ele>1429</ele>
        <time>2013-09-14T11:25:25.000Z</time>
      </trkpt>
      <trkpt lat="44.73194" lon="5.59807">
        <ele>1429</ele>
        <time>2013-09-14T11:25:27.000Z</time>
      </trkpt>
      <trkpt lat="44.73196" lon="5.59798">
        <ele>1429</ele>
        <time>2013-09-14T11:25:29.000Z</time>
      </trkpt>
      <trkpt lat="44.73199" lon="5.59792">
        <ele>1429</ele>
        <time>2013-09-14T11:25:31.000Z</time>
      </trkpt>
      <trkpt lat="44.73204" lon="5.59783">
        <ele>1429</ele>
        <time>2013-09-14T11:25:34.000Z</time>
      </trkpt>
      <trkpt lat="44.73207" lon="5.59777">
        <ele>1428</ele>
        <time>2013-09-14T11:25:37.000Z</time>
      </trkpt>
      <trkpt lat="44.73209" lon="5.5977">
        <ele>1428</ele>
        <time>2013-09-14T11:25:39.000Z</time>
      </trkpt>
      <trkpt lat="44.73211" lon="5.59764">
        <ele>1428</ele>
        <time>2013-09-14T11:25:41.000Z</time>
      </trkpt>
      <trkpt lat="44.73213" lon="5.59758">
        <ele>1428</ele>
        <time>2013-09-14T11:25:43.000Z</time>
      </trkpt>
      <trkpt lat="44.73214" lon="5.59749">
        <ele>1428</ele>
        <time>2013-09-14T11:25:45.000Z</time>
      </trkpt>
      <trkpt lat="44.73215" lon="5.59743">
        <ele>1428</ele>
        <time>2013-09-14T11:25:47.000Z</time>
      </trkpt>
      <trkpt lat="44.73219" lon="5.59736">
        <ele>1428</ele>
        <time>2013-09-14T11:25:49.000Z</time>
      </trkpt>
      <trkpt lat="44.73222" lon="5.5973">
        <ele>1427</ele>
        <time>2013-09-14T11:25:51.000Z</time>
      </trkpt>
      <trkpt lat="44.73226" lon="5.59723">
        <ele>1427</ele>
        <time>2013-09-14T11:25:53.000Z</time>
      </trkpt>
      <trkpt lat="44.7323" lon="5.59719">
        <ele>1427</ele>
        <time>2013-09-14T11:25:55.000Z</time>
      </trkpt>
      <trkpt lat="44.73235" lon="5.59715">
        <ele>1427</ele>
        <time>2013-09-14T11:25:57.000Z</time>
      </trkpt>
      <trkpt lat="44.73239" lon="5.5971">
        <ele>1427</ele>
        <time>2013-09-14T11:25:59.000Z</time>
      </trkpt>
      <trkpt lat="44.73243" lon="5.59708">
        <ele>1427</ele>
        <time>2013-09-14T11:26:01.000Z</time>
      </trkpt>
      <trkpt lat="44.73248" lon="5.59702">
        <ele>1427</ele>
        <time>2013-09-14T11:26:04.000Z</time>
      </trkpt>
      <trkpt lat="44.73252" lon="5.59695">
        <ele>1427</ele>
        <time>2013-09-14T11:26:07.000Z</time>
      </trkpt>
      <trkpt lat="44.73254" lon="5.59689">
        <ele>1427</ele>
        <time>2013-09-14T11:26:09.000Z</time>
      </trkpt>
      <trkpt lat="44.73256" lon="5.59683">
        <ele>1427</ele>
        <time>2013-09-14T11:26:11.000Z</time>
      </trkpt>
      <trkpt lat="44.73258" lon="5.59674">
        <ele>1427</ele>
        <time>2013-09-14T11:26:13.000Z</time>
      </trkpt>
      <trkpt lat="44.73259" lon="5.59668">
        <ele>1427</ele>
        <time>2013-09-14T11:26:15.000Z</time>
      </trkpt>
      <trkpt lat="44.73263" lon="5.59661">
        <ele>1427</ele>
        <time>2013-09-14T11:26:17.000Z</time>
      </trkpt>
      <trkpt lat="44.73266" lon="5.59655">
        <ele>1427</ele>
        <time>2013-09-14T11:26:19.000Z</time>
      </trkpt>
      <trkpt lat="44.7327" lon="5.5965">
        <ele>1427</ele>
        <time>2013-09-14T11:26:21.000Z</time>
      </trkpt>
      <trkpt lat="44.73274" lon="5.59644">
        <ele>1427</ele>
        <time>2013-09-14T11:26:23.000Z</time>
      </trkpt>
      <trkpt lat="44.7328" lon="5.59635">
        <ele>1427</ele>
        <time>2013-09-14T11:26:26.000Z</time>
      </trkpt>
      <trkpt lat="44.73284" lon="5.59631">
        <ele>1427</ele>
        <time>2013-09-14T11:26:28.000Z</time>
      </trkpt>
      <trkpt lat="44.73287" lon="5.59625">
        <ele>1427</ele>
        <time>2013-09-14T11:26:30.000Z</time>
      </trkpt>
      <trkpt lat="44.73292" lon="5.5962">
        <ele>1427</ele>
        <time>2013-09-14T11:26:32.000Z</time>
      </trkpt>
      <trkpt lat="44.73296" lon="5.59616">
        <ele>1427</ele>
        <time>2013-09-14T11:26:34.000Z</time>
      </trkpt>
      <trkpt lat="44.73301" lon="5.5961">
        <ele>1428</ele>
        <time>2013-09-14T11:26:37.000Z</time>
      </trkpt>
      <trkpt lat="44.73307" lon="5.59603">
        <ele>1428</ele>
        <time>2013-09-14T11:26:40.000Z</time>
      </trkpt>
      <trkpt lat="44.73311" lon="5.59597">
        <ele>1428</ele>
        <time>2013-09-14T11:26:43.000Z</time>
      </trkpt>
      <trkpt lat="44.73314" lon="5.5959">
        <ele>1429</ele>
        <time>2013-09-14T11:26:45.000Z</time>
      </trkpt>
      <trkpt lat="44.73317" lon="5.59584">
        <ele>1429</ele>
        <time>2013-09-14T11:26:48.000Z</time>
      </trkpt>
      <trkpt lat="44.73321" lon="5.59577">
        <ele>1429</ele>
        <time>2013-09-14T11:26:50.000Z</time>
      </trkpt>
      <trkpt lat="44.73323" lon="5.59571">
        <ele>1430</ele>
        <time>2013-09-14T11:26:52.000Z</time>
      </trkpt>
      <trkpt lat="44.73325" lon="5.59562">
        <ele>1430</ele>
        <time>2013-09-14T11:26:54.000Z</time>
      </trkpt>
      <trkpt lat="44.73329" lon="5.59554">
        <ele>1431</ele>
        <time>2013-09-14T11:26:57.000Z</time>
      </trkpt>
      <trkpt lat="44.73333" lon="5.59547">
        <ele>1431</ele>
        <time>2013-09-14T11:27:00.000Z</time>
      </trkpt>
      <trkpt lat="44.73338" lon="5.59541">
        <ele>1432</ele>
        <time>2013-09-14T11:27:03.000Z</time>
      </trkpt>
      <trkpt lat="44.73342" lon="5.59534">
        <ele>1432</ele>
        <time>2013-09-14T11:27:06.000Z</time>
      </trkpt>
      <trkpt lat="44.73346" lon="5.59528">
        <ele>1433</ele>
        <time>2013-09-14T11:27:10.000Z</time>
      </trkpt>
      <trkpt lat="44.73351" lon="5.59522">
        <ele>1433</ele>
        <time>2013-09-14T11:27:14.000Z</time>
      </trkpt>
      <trkpt lat="44.73353" lon="5.59515">
        <ele>1434</ele>
        <time>2013-09-14T11:27:17.000Z</time>
      </trkpt>
      <trkpt lat="44.73356" lon="5.59509">
        <ele>1434</ele>
        <time>2013-09-14T11:27:21.000Z</time>
      </trkpt>
      <trkpt lat="44.73359" lon="5.59502">
        <ele>1434</ele>
        <time>2013-09-14T11:27:24.000Z</time>
      </trkpt>
      <trkpt lat="44.73364" lon="5.59496">
        <ele>1435</ele>
        <time>2013-09-14T11:27:28.000Z</time>
      </trkpt>
      <trkpt lat="44.73367" lon="5.59489">
        <ele>1435</ele>
        <time>2013-09-14T11:27:31.000Z</time>
      </trkpt>
      <trkpt lat="44.73369" lon="5.59483">
        <ele>1435</ele>
        <time>2013-09-14T11:27:33.000Z</time>
      </trkpt>
      <trkpt lat="44.73371" lon="5.59477">
        <ele>1435</ele>
        <time>2013-09-14T11:27:35.000Z</time>
      </trkpt>
      <trkpt lat="44.73373" lon="5.59468">
        <ele>1436</ele>
        <time>2013-09-14T11:27:38.000Z</time>
      </trkpt>
      <trkpt lat="44.73374" lon="5.59462">
        <ele>1436</ele>
        <time>2013-09-14T11:27:40.000Z</time>
      </trkpt>
      <trkpt lat="44.73375" lon="5.59455">
        <ele>1436</ele>
        <time>2013-09-14T11:27:42.000Z</time>
      </trkpt>
      <trkpt lat="44.73376" lon="5.59449">
        <ele>1436</ele>
        <time>2013-09-14T11:27:44.000Z</time>
      </trkpt>
      <trkpt lat="44.73377" lon="5.59442">
        <ele>1437</ele>
        <time>2013-09-14T11:27:46.000Z</time>
      </trkpt>
      <trkpt lat="44.73377" lon="5.59434">
        <ele>1437</ele>
        <time>2013-09-14T11:27:48.000Z</time>
      </trkpt>
      <trkpt lat="44.73378" lon="5.59427">
        <ele>1437</ele>
        <time>2013-09-14T11:27:50.000Z</time>
      </trkpt>
      <trkpt lat="44.7338" lon="5.59421">
        <ele>1437</ele>
        <time>2013-09-14T11:27:52.000Z</time>
      </trkpt>
      <trkpt lat="44.73378" lon="5.59412">
        <ele>1437</ele>
        <time>2013-09-14T11:27:55.000Z</time>
      </trkpt>
      <trkpt lat="44.73378" lon="5.59406">
        <ele>1437</ele>
        <time>2013-09-14T11:27:57.000Z</time>
      </trkpt>
      <trkpt lat="44.73378" lon="5.59397">
        <ele>1437</ele>
        <time>2013-09-14T11:28:00.000Z</time>
      </trkpt>
      <trkpt lat="44.7338" lon="5.59391">
        <ele>1438</ele>
        <time>2013-09-14T11:28:02.000Z</time>
      </trkpt>
      <trkpt lat="44.73381" lon="5.59384">
        <ele>1438</ele>
        <time>2013-09-14T11:28:04.000Z</time>
      </trkpt>
      <trkpt lat="44.73383" lon="5.59376">
        <ele>1438</ele>
        <time>2013-09-14T11:28:07.000Z</time>
      </trkpt>
      <trkpt lat="44.73386" lon="5.59369">
        <ele>1439</ele>
        <time>2013-09-14T11:28:10.000Z</time>
      </trkpt>
      <trkpt lat="44.73389" lon="5.59363">
        <ele>1439</ele>
        <time>2013-09-14T11:28:12.000Z</time>
      </trkpt>
      <trkpt lat="44.73392" lon="5.59356">
        <ele>1439</ele>
        <time>2013-09-14T11:28:15.000Z</time>
      </trkpt>
      <trkpt lat="44.73396" lon="5.5935">
        <ele>1440</ele>
        <time>2013-09-14T11:28:18.000Z</time>
      </trkpt>
      <trkpt lat="44.73398" lon="5.59344">
        <ele>1440</ele>
        <time>2013-09-14T11:28:20.000Z</time>
      </trkpt>
      <trkpt lat="44.73399" lon="5.59337">
        <ele>1440</ele>
        <time>2013-09-14T11:28:22.000Z</time>
      </trkpt>
      <trkpt lat="44.73401" lon="5.59331">
        <ele>1440</ele>
        <time>2013-09-14T11:28:24.000Z</time>
      </trkpt>
      <trkpt lat="44.73404" lon="5.59322">
        <ele>1440</ele>
        <time>2013-09-14T11:28:26.000Z</time>
      </trkpt>
      <trkpt lat="44.73406" lon="5.59314">
        <ele>1440</ele>
        <time>2013-09-14T11:28:28.000Z</time>
      </trkpt>
      <trkpt lat="44.73408" lon="5.59307">
        <ele>1440</ele>
        <time>2013-09-14T11:28:30.000Z</time>
      </trkpt>
      <trkpt lat="44.73412" lon="5.59301">
        <ele>1440</ele>
        <time>2013-09-14T11:28:32.000Z</time>
      </trkpt>
      <trkpt lat="44.73415" lon="5.59292">
        <ele>1440</ele>
        <time>2013-09-14T11:28:34.000Z</time>
      </trkpt>
      <trkpt lat="44.7342" lon="5.59283">
        <ele>1440</ele>
        <time>2013-09-14T11:28:36.000Z</time>
      </trkpt>
      <trkpt lat="44.73426" lon="5.59277">
        <ele>1440</ele>
        <time>2013-09-14T11:28:38.000Z</time>
      </trkpt>
      <trkpt lat="44.73431" lon="5.59271">
        <ele>1440</ele>
        <time>2013-09-14T11:28:40.000Z</time>
      </trkpt>
      <trkpt lat="44.73438" lon="5.59264">
        <ele>1440</ele>
        <time>2013-09-14T11:28:42.000Z</time>
      </trkpt>
      <trkpt lat="44.73442" lon="5.59262">
        <ele>1441</ele>
        <time>2013-09-14T11:28:43.000Z</time>
      </trkpt>
      <trkpt lat="44.73444" lon="5.59256">
        <ele>1441</ele>
        <time>2013-09-14T11:28:44.000Z</time>
      </trkpt>
      <trkpt lat="44.7345" lon="5.59247">
        <ele>1441</ele>
        <time>2013-09-14T11:28:46.000Z</time>
      </trkpt>
      <trkpt lat="44.73452" lon="5.5924">
        <ele>1441</ele>
        <time>2013-09-14T11:28:47.000Z</time>
      </trkpt>
      <trkpt lat="44.73455" lon="5.59234">
        <ele>1440</ele>
        <time>2013-09-14T11:28:48.000Z</time>
      </trkpt>
      <trkpt lat="44.73459" lon="5.59226">
        <ele>1440</ele>
        <time>2013-09-14T11:28:50.000Z</time>
      </trkpt>
      <trkpt lat="44.73463" lon="5.59217">
        <ele>1440</ele>
        <time>2013-09-14T11:28:52.000Z</time>
      </trkpt>
      <trkpt lat="44.73468" lon="5.5921">
        <ele>1440</ele>
        <time>2013-09-14T11:28:54.000Z</time>
      </trkpt>
      <trkpt lat="44.73472" lon="5.59202">
        <ele>1440</ele>
        <time>2013-09-14T11:28:56.000Z</time>
      </trkpt>
      <trkpt lat="44.73476" lon="5.59196">
        <ele>1440</ele>
        <time>2013-09-14T11:28:58.000Z</time>
      </trkpt>
      <trkpt lat="44.73479" lon="5.59189">
        <ele>1440</ele>
        <time>2013-09-14T11:29:00.000Z</time>
      </trkpt>
      <trkpt lat="44.73483" lon="5.59183">
        <ele>1440</ele>
        <time>2013-09-14T11:29:02.000Z</time>
      </trkpt>
      <trkpt lat="44.73487" lon="5.59178">
        <ele>1440</ele>
        <time>2013-09-14T11:29:04.000Z</time>
      </trkpt>
      <trkpt lat="44.73489" lon="5.5917">
        <ele>1440</ele>
        <time>2013-09-14T11:29:06.000Z</time>
      </trkpt>
      <trkpt lat="44.73492" lon="5.59161">
        <ele>1440</ele>
        <time>2013-09-14T11:29:08.000Z</time>
      </trkpt>
      <trkpt lat="44.73495" lon="5.59153">
        <ele>1441</ele>
        <time>2013-09-14T11:29:10.000Z</time>
      </trkpt>
      <trkpt lat="44.735" lon="5.59148">
        <ele>1441</ele>
        <time>2013-09-14T11:29:12.000Z</time>
      </trkpt>
      <trkpt lat="44.73505" lon="5.59142">
        <ele>1441</ele>
        <time>2013-09-14T11:29:15.000Z</time>
      </trkpt>
      <trkpt lat="44.73508" lon="5.59135">
        <ele>1441</ele>
        <time>2013-09-14T11:29:17.000Z</time>
      </trkpt>
      <trkpt lat="44.73514" lon="5.59129">
        <ele>1441</ele>
        <time>2013-09-14T11:29:20.000Z</time>
      </trkpt>
      <trkpt lat="44.73519" lon="5.59122">
        <ele>1441</ele>
        <time>2013-09-14T11:29:23.000Z</time>
      </trkpt>
      <trkpt lat="44.73523" lon="5.59116">
        <ele>1441</ele>
        <time>2013-09-14T11:29:25.000Z</time>
      </trkpt>
      <trkpt lat="44.73529" lon="5.59108">
        <ele>1441</ele>
        <time>2013-09-14T11:29:27.000Z</time>
      </trkpt>
      <trkpt lat="44.73533" lon="5.59101">
        <ele>1441</ele>
        <time>2013-09-14T11:29:29.000Z</time>
      </trkpt>
      <trkpt lat="44.73538" lon="5.59092">
        <ele>1441</ele>
        <time>2013-09-14T11:29:31.000Z</time>
      </trkpt>
      <trkpt lat="44.73543" lon="5.59084">
        <ele>1441</ele>
        <time>2013-09-14T11:29:33.000Z</time>
      </trkpt>
      <trkpt lat="44.73548" lon="5.59078">
        <ele>1442</ele>
        <time>2013-09-14T11:29:35.000Z</time>
      </trkpt>
      <trkpt lat="44.73552" lon="5.59071">
        <ele>1442</ele>
        <time>2013-09-14T11:29:37.000Z</time>
      </trkpt>
      <trkpt lat="44.73557" lon="5.59065">
        <ele>1442</ele>
        <time>2013-09-14T11:29:39.000Z</time>
      </trkpt>
      <trkpt lat="44.73562" lon="5.59058">
        <ele>1442</ele>
        <time>2013-09-14T11:29:42.000Z</time>
      </trkpt>
      <trkpt lat="44.7357" lon="5.59047">
        <ele>1442</ele>
        <time>2013-09-14T11:29:59.000Z</time>
      </trkpt>
      <trkpt lat="44.7357" lon="5.59047">
        <ele>1442</ele>
        <time>2013-09-14T11:29:59.000Z</time>
      </trkpt>
      <trkpt lat="44.7357" lon="5.59047">
        <ele>1442</ele>
        <time>2013-09-14T11:30:43.000Z</time>
      </trkpt>
      <trkpt lat="44.73578" lon="5.59047">
        <ele>1444</ele>
        <time>2013-09-14T11:30:44.000Z</time>
      </trkpt>
      <trkpt lat="44.73578" lon="5.59047">
        <ele>1444</ele>
        <time>2013-09-14T11:30:44.000Z</time>
      </trkpt>
      <trkpt lat="44.73578" lon="5.59047">
        <ele>1444</ele>
        <time>2013-09-14T11:30:46.000Z</time>
      </trkpt>
      <trkpt lat="44.73583" lon="5.59047">
        <ele>1446</ele>
        <time>2013-09-14T11:31:50.000Z</time>
      </trkpt>
      <trkpt lat="44.7359" lon="5.59043">
        <ele>1446</ele>
        <time>2013-09-14T11:31:53.000Z</time>
      </trkpt>
      <trkpt lat="44.73597" lon="5.59041">
        <ele>1446</ele>
        <time>2013-09-14T11:31:55.000Z</time>
      </trkpt>
      <trkpt lat="44.73606" lon="5.59037">
        <ele>1446</ele>
        <time>2013-09-14T11:31:57.000Z</time>
      </trkpt>
      <trkpt lat="44.7361" lon="5.59034">
        <ele>1446</ele>
        <time>2013-09-14T11:31:58.000Z</time>
      </trkpt>
      <trkpt lat="44.73614" lon="5.59032">
        <ele>1447</ele>
        <time>2013-09-14T11:31:59.000Z</time>
      </trkpt>
      <trkpt lat="44.73622" lon="5.5903">
        <ele>1447</ele>
        <time>2013-09-14T11:32:01.000Z</time>
      </trkpt>
      <trkpt lat="44.73627" lon="5.59026">
        <ele>1448</ele>
        <time>2013-09-14T11:32:03.000Z</time>
      </trkpt>
      <trkpt lat="44.73633" lon="5.59024">
        <ele>1448</ele>
        <time>2013-09-14T11:32:05.000Z</time>
      </trkpt>
      <trkpt lat="44.73638" lon="5.59022">
        <ele>1449</ele>
        <time>2013-09-14T11:32:08.000Z</time>
      </trkpt>
      <trkpt lat="44.73642" lon="5.5902">
        <ele>1450</ele>
        <time>2013-09-14T11:32:11.000Z</time>
      </trkpt>
      <trkpt lat="44.73647" lon="5.59017">
        <ele>1450</ele>
        <time>2013-09-14T11:32:15.000Z</time>
      </trkpt>
      <trkpt lat="44.73651" lon="5.59015">
        <ele>1452</ele>
        <time>2013-09-14T11:32:20.000Z</time>
      </trkpt>
      <trkpt lat="44.73654" lon="5.59009">
        <ele>1453</ele>
        <time>2013-09-14T11:32:26.000Z</time>
      </trkpt>
      <trkpt lat="44.73654" lon="5.59009">
        <ele>1453</ele>
        <time>2013-09-14T11:32:26.000Z</time>
      </trkpt>
      <trkpt lat="44.73654" lon="5.59009">
        <ele>1453</ele>
        <time>2013-09-14T11:32:27.000Z</time>
      </trkpt>
      <trkpt lat="44.73658" lon="5.59007">
        <ele>1454</ele>
        <time>2013-09-14T11:32:35.000Z</time>
      </trkpt>
      <trkpt lat="44.73658" lon="5.59007">
        <ele>1454</ele>
        <time>2013-09-14T11:32:35.000Z</time>
      </trkpt>
      <trkpt lat="44.73658" lon="5.59007">
        <ele>1454</ele>
        <time>2013-09-14T11:32:37.000Z</time>
      </trkpt>
      <trkpt lat="44.73663" lon="5.59004">
        <ele>1454</ele>
        <time>2013-09-14T11:32:44.000Z</time>
      </trkpt>
      <trkpt lat="44.73663" lon="5.59004">
        <ele>1454</ele>
        <time>2013-09-14T11:32:44.000Z</time>
      </trkpt>
      <trkpt lat="44.73663" lon="5.59004">
        <ele>1454</ele>
        <time>2013-09-14T11:32:45.000Z</time>
      </trkpt>
      <trkpt lat="44.73668" lon="5.59004">
        <ele>1455</ele>
        <time>2013-09-14T11:32:51.000Z</time>
      </trkpt>
      <trkpt lat="44.73674" lon="5.59004">
        <ele>1455</ele>
        <time>2013-09-14T11:32:58.000Z</time>
      </trkpt>
      <trkpt lat="44.73678" lon="5.59002">
        <ele>1455</ele>
        <time>2013-09-14T11:33:04.000Z</time>
      </trkpt>
      <trkpt lat="44.73684" lon="5.59">
        <ele>1456</ele>
        <time>2013-09-14T11:33:09.000Z</time>
      </trkpt>
      <trkpt lat="44.73689" lon="5.58998">
        <ele>1456</ele>
        <time>2013-09-14T11:33:11.000Z</time>
      </trkpt>
      <trkpt lat="44.73694" lon="5.58994">
        <ele>1456</ele>
        <time>2013-09-14T11:33:13.000Z</time>
      </trkpt>
      <trkpt lat="44.737" lon="5.58992">
        <ele>1457</ele>
        <time>2013-09-14T11:33:15.000Z</time>
      </trkpt>
      <trkpt lat="44.73705" lon="5.5899">
        <ele>1457</ele>
        <time>2013-09-14T11:33:17.000Z</time>
      </trkpt>
      <trkpt lat="44.7371" lon="5.58985">
        <ele>1458</ele>
        <time>2013-09-14T11:33:20.000Z</time>
      </trkpt>
      <trkpt lat="44.73715" lon="5.58983">
        <ele>1459</ele>
        <time>2013-09-14T11:33:23.000Z</time>
      </trkpt>
      <trkpt lat="44.73721" lon="5.58977">
        <ele>1459</ele>
        <time>2013-09-14T11:33:26.000Z</time>
      </trkpt>
      <trkpt lat="44.73726" lon="5.58974">
        <ele>1460</ele>
        <time>2013-09-14T11:33:29.000Z</time>
      </trkpt>
      <trkpt lat="44.7373" lon="5.58968">
        <ele>1460</ele>
        <time>2013-09-14T11:33:32.000Z</time>
      </trkpt>
      <trkpt lat="44.73736" lon="5.58964">
        <ele>1461</ele>
        <time>2013-09-14T11:33:35.000Z</time>
      </trkpt>
      <trkpt lat="44.7374" lon="5.58959">
        <ele>1461</ele>
        <time>2013-09-14T11:33:38.000Z</time>
      </trkpt>
      <trkpt lat="44.73744" lon="5.58953">
        <ele>1462</ele>
        <time>2013-09-14T11:33:42.000Z</time>
      </trkpt>
      <trkpt lat="44.73749" lon="5.58951">
        <ele>1462</ele>
        <time>2013-09-14T11:33:45.000Z</time>
      </trkpt>
      <trkpt lat="44.73754" lon="5.58949">
        <ele>1463</ele>
        <time>2013-09-14T11:33:48.000Z</time>
      </trkpt>
      <trkpt lat="44.73758" lon="5.58947">
        <ele>1463</ele>
        <time>2013-09-14T11:33:51.000Z</time>
      </trkpt>
      <trkpt lat="44.73763" lon="5.58944">
        <ele>1464</ele>
        <time>2013-09-14T11:33:53.000Z</time>
      </trkpt>
      <trkpt lat="44.73768" lon="5.58942">
        <ele>1464</ele>
        <time>2013-09-14T11:33:56.000Z</time>
      </trkpt>
      <trkpt lat="44.73773" lon="5.5894">
        <ele>1465</ele>
        <time>2013-09-14T11:33:59.000Z</time>
      </trkpt>
      <trkpt lat="44.73779" lon="5.5894">
        <ele>1466</ele>
        <time>2013-09-14T11:34:02.000Z</time>
      </trkpt>
      <trkpt lat="44.73783" lon="5.58938">
        <ele>1466</ele>
        <time>2013-09-14T11:34:04.000Z</time>
      </trkpt>
      <trkpt lat="44.73788" lon="5.58938">
        <ele>1467</ele>
        <time>2013-09-14T11:34:06.000Z</time>
      </trkpt>
      <trkpt lat="44.73795" lon="5.58938">
        <ele>1467</ele>
        <time>2013-09-14T11:34:09.000Z</time>
      </trkpt>
      <trkpt lat="44.738" lon="5.58936">
        <ele>1468</ele>
        <time>2013-09-14T11:34:12.000Z</time>
      </trkpt>
      <trkpt lat="44.73806" lon="5.58934">
        <ele>1469</ele>
        <time>2013-09-14T11:34:15.000Z</time>
      </trkpt>
      <trkpt lat="44.73812" lon="5.58932">
        <ele>1469</ele>
        <time>2013-09-14T11:34:18.000Z</time>
      </trkpt>
      <trkpt lat="44.73818" lon="5.58929">
        <ele>1470</ele>
        <time>2013-09-14T11:34:21.000Z</time>
      </trkpt>
      <trkpt lat="44.73824" lon="5.58927">
        <ele>1470</ele>
        <time>2013-09-14T11:34:24.000Z</time>
      </trkpt>
      <trkpt lat="44.73829" lon="5.58927">
        <ele>1470</ele>
        <time>2013-09-14T11:34:27.000Z</time>
      </trkpt>
      <trkpt lat="44.73833" lon="5.58925">
        <ele>1471</ele>
        <time>2013-09-14T11:34:30.000Z</time>
      </trkpt>
      <trkpt lat="44.73839" lon="5.58925">
        <ele>1471</ele>
        <time>2013-09-14T11:34:33.000Z</time>
      </trkpt>
      <trkpt lat="44.73844" lon="5.58925">
        <ele>1471</ele>
        <time>2013-09-14T11:34:36.000Z</time>
      </trkpt>
      <trkpt lat="44.73851" lon="5.58925">
        <ele>1472</ele>
        <time>2013-09-14T11:34:40.000Z</time>
      </trkpt>
      <trkpt lat="44.73856" lon="5.58925">
        <ele>1472</ele>
        <time>2013-09-14T11:34:44.000Z</time>
      </trkpt>
      <trkpt lat="44.7386" lon="5.58923">
        <ele>1472</ele>
        <time>2013-09-14T11:34:47.000Z</time>
      </trkpt>
      <trkpt lat="44.73866" lon="5.58923">
        <ele>1471</ele>
        <time>2013-09-14T11:34:51.000Z</time>
      </trkpt>
      <trkpt lat="44.7387" lon="5.58921">
        <ele>1470</ele>
        <time>2013-09-14T11:34:58.000Z</time>
      </trkpt>
      <trkpt lat="44.73874" lon="5.58923">
        <ele>1468</ele>
        <time>2013-09-14T11:35:20.000Z</time>
      </trkpt>
      <trkpt lat="44.73874" lon="5.58929">
        <ele>1468</ele>
        <time>2013-09-14T11:35:31.000Z</time>
      </trkpt>
      <trkpt lat="44.73874" lon="5.58929">
        <ele>1468</ele>
        <time>2013-09-14T11:35:31.000Z</time>
      </trkpt>
      <trkpt lat="44.73874" lon="5.58929">
        <ele>1468</ele>
        <time>2013-09-14T11:35:39.000Z</time>
      </trkpt>
      <trkpt lat="44.73873" lon="5.58936">
        <ele>1468</ele>
        <time>2013-09-14T11:35:48.000Z</time>
      </trkpt>
      <trkpt lat="44.7387" lon="5.58942">
        <ele>1469</ele>
        <time>2013-09-14T11:35:58.000Z</time>
      </trkpt>
      <trkpt lat="44.7387" lon="5.58942">
        <ele>1469</ele>
        <time>2013-09-14T11:35:58.000Z</time>
      </trkpt>
      <trkpt lat="44.7387" lon="5.58942">
        <ele>1469</ele>
        <time>2013-09-14T11:36:00.000Z</time>
      </trkpt>
      <trkpt lat="44.73868" lon="5.58949">
        <ele>1469</ele>
        <time>2013-09-14T11:36:38.000Z</time>
      </trkpt>
      <trkpt lat="44.73868" lon="5.58949">
        <ele>1469</ele>
        <time>2013-09-14T11:36:38.000Z</time>
      </trkpt>
      <trkpt lat="44.73868" lon="5.58949">
        <ele>1469</ele>
        <time>2013-09-14T11:36:44.000Z</time>
      </trkpt>
      <trkpt lat="44.73863" lon="5.58951">
        <ele>1469</ele>
        <time>2013-09-14T11:37:14.000Z</time>
      </trkpt>
      <trkpt lat="44.73863" lon="5.58951">
        <ele>1469</ele>
        <time>2013-09-14T11:37:14.000Z</time>
      </trkpt>
      <trkpt lat="44.73863" lon="5.58951">
        <ele>1469</ele>
        <time>2013-09-14T11:37:17.000Z</time>
      </trkpt>
      <trkpt lat="44.73862" lon="5.58957">
        <ele>1469</ele>
        <time>2013-09-14T11:37:30.000Z</time>
      </trkpt>
      <trkpt lat="44.73862" lon="5.58957">
        <ele>1469</ele>
        <time>2013-09-14T11:37:30.000Z</time>
      </trkpt>
      <trkpt lat="44.73862" lon="5.58957">
        <ele>1470</ele>
        <time>2013-09-14T11:37:36.000Z</time>
      </trkpt>
      <trkpt lat="44.73867" lon="5.58955">
        <ele>1470</ele>
        <time>2013-09-14T11:37:55.000Z</time>
      </trkpt>
      <trkpt lat="44.73867" lon="5.58955">
        <ele>1470</ele>
        <time>2013-09-14T11:37:55.000Z</time>
      </trkpt>
      <trkpt lat="44.73867" lon="5.58955">
        <ele>1470</ele>
        <time>2013-09-14T11:38:09.000Z</time>
      </trkpt>
      <trkpt lat="44.73872" lon="5.58957">
        <ele>1471</ele>
        <time>2013-09-14T11:38:41.000Z</time>
      </trkpt>
      <trkpt lat="44.73876" lon="5.58959">
        <ele>1471</ele>
        <time>2013-09-14T11:38:43.000Z</time>
      </trkpt>
      <trkpt lat="44.73881" lon="5.58964">
        <ele>1471</ele>
        <time>2013-09-14T11:38:45.000Z</time>
      </trkpt>
      <trkpt lat="44.73885" lon="5.58966">
        <ele>1471</ele>
        <time>2013-09-14T11:38:47.000Z</time>
      </trkpt>
      <trkpt lat="44.73891" lon="5.58966">
        <ele>1471</ele>
        <time>2013-09-14T11:38:49.000Z</time>
      </trkpt>
      <trkpt lat="44.73897" lon="5.58968">
        <ele>1472</ele>
        <time>2013-09-14T11:38:51.000Z</time>
      </trkpt>
      <trkpt lat="44.73903" lon="5.5897">
        <ele>1472</ele>
        <time>2013-09-14T11:38:53.000Z</time>
      </trkpt>
      <trkpt lat="44.73911" lon="5.58974">
        <ele>1472</ele>
        <time>2013-09-14T11:38:55.000Z</time>
      </trkpt>
      <trkpt lat="44.73918" lon="5.58981">
        <ele>1472</ele>
        <time>2013-09-14T11:38:57.000Z</time>
      </trkpt>
      <trkpt lat="44.73926" lon="5.58987">
        <ele>1472</ele>
        <time>2013-09-14T11:38:59.000Z</time>
      </trkpt>
      <trkpt lat="44.73932" lon="5.58994">
        <ele>1472</ele>
        <time>2013-09-14T11:39:01.000Z</time>
      </trkpt>
      <trkpt lat="44.73938" lon="5.59">
        <ele>1473</ele>
        <time>2013-09-14T11:39:03.000Z</time>
      </trkpt>
      <trkpt lat="44.73945" lon="5.59007">
        <ele>1473</ele>
        <time>2013-09-14T11:39:05.000Z</time>
      </trkpt>
      <trkpt lat="44.73951" lon="5.59013">
        <ele>1473</ele>
        <time>2013-09-14T11:39:07.000Z</time>
      </trkpt>
      <trkpt lat="44.73959" lon="5.59017">
        <ele>1473</ele>
        <time>2013-09-14T11:39:09.000Z</time>
      </trkpt>
      <trkpt lat="44.73964" lon="5.59022">
        <ele>1473</ele>
        <time>2013-09-14T11:39:11.000Z</time>
      </trkpt>
      <trkpt lat="44.7397" lon="5.59026">
        <ele>1473</ele>
        <time>2013-09-14T11:39:13.000Z</time>
      </trkpt>
      <trkpt lat="44.73974" lon="5.59028">
        <ele>1473</ele>
        <time>2013-09-14T11:39:15.000Z</time>
      </trkpt>
      <trkpt lat="44.73979" lon="5.5903">
        <ele>1473</ele>
        <time>2013-09-14T11:39:18.000Z</time>
      </trkpt>
      <trkpt lat="44.73984" lon="5.59032">
        <ele>1472</ele>
        <time>2013-09-14T11:39:22.000Z</time>
      </trkpt>
      <trkpt lat="44.73984" lon="5.59032">
        <ele>1472</ele>
        <time>2013-09-14T11:39:22.000Z</time>
      </trkpt>
      <trkpt lat="44.73984" lon="5.59032">
        <ele>1472</ele>
        <time>2013-09-14T11:39:23.000Z</time>
      </trkpt>
      <trkpt lat="44.73988" lon="5.5903">
        <ele>1472</ele>
        <time>2013-09-14T11:39:27.000Z</time>
      </trkpt>
      <trkpt lat="44.73992" lon="5.59028">
        <ele>1471</ele>
        <time>2013-09-14T11:39:29.000Z</time>
      </trkpt>
      <trkpt lat="44.73999" lon="5.59026">
        <ele>1471</ele>
        <time>2013-09-14T11:39:32.000Z</time>
      </trkpt>
      <trkpt lat="44.74004" lon="5.59022">
        <ele>1471</ele>
        <time>2013-09-14T11:39:34.000Z</time>
      </trkpt>
      <trkpt lat="44.74008" lon="5.5902">
        <ele>1471</ele>
        <time>2013-09-14T11:39:36.000Z</time>
      </trkpt>
      <trkpt lat="44.74014" lon="5.59017">
        <ele>1470</ele>
        <time>2013-09-14T11:39:38.000Z</time>
      </trkpt>
      <trkpt lat="44.74019" lon="5.59015">
        <ele>1470</ele>
        <time>2013-09-14T11:39:40.000Z</time>
      </trkpt>
      <trkpt lat="44.74024" lon="5.59013">
        <ele>1470</ele>
        <time>2013-09-14T11:39:42.000Z</time>
      </trkpt>
      <trkpt lat="44.74029" lon="5.59011">
        <ele>1470</ele>
        <time>2013-09-14T11:39:44.000Z</time>
      </trkpt>
      <trkpt lat="44.74034" lon="5.59011">
        <ele>1470</ele>
        <time>2013-09-14T11:39:46.000Z</time>
      </trkpt>
      <trkpt lat="44.74039" lon="5.59009">
        <ele>1470</ele>
        <time>2013-09-14T11:39:48.000Z</time>
      </trkpt>
      <trkpt lat="44.74047" lon="5.59011">
        <ele>1469</ele>
        <time>2013-09-14T11:39:51.000Z</time>
      </trkpt>
      <trkpt lat="44.74052" lon="5.59011">
        <ele>1469</ele>
        <time>2013-09-14T11:39:53.000Z</time>
      </trkpt>
      <trkpt lat="44.74058" lon="5.59013">
        <ele>1469</ele>
        <time>2013-09-14T11:39:55.000Z</time>
      </trkpt>
      <trkpt lat="44.74063" lon="5.59013">
        <ele>1469</ele>
        <time>2013-09-14T11:39:57.000Z</time>
      </trkpt>
      <trkpt lat="44.74068" lon="5.59015">
        <ele>1469</ele>
        <time>2013-09-14T11:39:59.000Z</time>
      </trkpt>
      <trkpt lat="44.74074" lon="5.59017">
        <ele>1469</ele>
        <time>2013-09-14T11:40:01.000Z</time>
      </trkpt>
      <trkpt lat="44.7408" lon="5.5902">
        <ele>1469</ele>
        <time>2013-09-14T11:40:04.000Z</time>
      </trkpt>
      <trkpt lat="44.74086" lon="5.59022">
        <ele>1469</ele>
        <time>2013-09-14T11:40:06.000Z</time>
      </trkpt>
      <trkpt lat="44.74091" lon="5.59024">
        <ele>1468</ele>
        <time>2013-09-14T11:40:08.000Z</time>
      </trkpt>
      <trkpt lat="44.74095" lon="5.59026">
        <ele>1468</ele>
        <time>2013-09-14T11:40:10.000Z</time>
      </trkpt>
      <trkpt lat="44.741" lon="5.59026">
        <ele>1468</ele>
        <time>2013-09-14T11:40:12.000Z</time>
      </trkpt>
      <trkpt lat="44.74105" lon="5.59028">
        <ele>1468</ele>
        <time>2013-09-14T11:40:14.000Z</time>
      </trkpt>
      <trkpt lat="44.7411" lon="5.5903">
        <ele>1468</ele>
        <time>2013-09-14T11:40:16.000Z</time>
      </trkpt>
      <trkpt lat="44.74114" lon="5.59032">
        <ele>1468</ele>
        <time>2013-09-14T11:40:18.000Z</time>
      </trkpt>
      <trkpt lat="44.74119" lon="5.59034">
        <ele>1468</ele>
        <time>2013-09-14T11:40:20.000Z</time>
      </trkpt>
      <trkpt lat="44.74124" lon="5.59037">
        <ele>1468</ele>
        <time>2013-09-14T11:40:22.000Z</time>
      </trkpt>
      <trkpt lat="44.74128" lon="5.59039">
        <ele>1468</ele>
        <time>2013-09-14T11:40:24.000Z</time>
      </trkpt>
      <trkpt lat="44.74135" lon="5.59041">
        <ele>1468</ele>
        <time>2013-09-14T11:40:27.000Z</time>
      </trkpt>
      <trkpt lat="44.74141" lon="5.59043">
        <ele>1468</ele>
        <time>2013-09-14T11:40:30.000Z</time>
      </trkpt>
      <trkpt lat="44.74147" lon="5.59045">
        <ele>1468</ele>
        <time>2013-09-14T11:40:33.000Z</time>
      </trkpt>
      <trkpt lat="44.74151" lon="5.5905">
        <ele>1468</ele>
        <time>2013-09-14T11:40:36.000Z</time>
      </trkpt>
      <trkpt lat="44.74155" lon="5.59052">
        <ele>1468</ele>
        <time>2013-09-14T11:40:39.000Z</time>
      </trkpt>
      <trkpt lat="44.7416" lon="5.59054">
        <ele>1468</ele>
        <time>2013-09-14T11:40:43.000Z</time>
      </trkpt>
      <trkpt lat="44.74164" lon="5.59056">
        <ele>1468</ele>
        <time>2013-09-14T11:40:46.000Z</time>
      </trkpt>
      <trkpt lat="44.74168" lon="5.59058">
        <ele>1468</ele>
        <time>2013-09-14T11:40:50.000Z</time>
      </trkpt>
      <trkpt lat="44.74172" lon="5.5906">
        <ele>1468</ele>
        <time>2013-09-14T11:40:54.000Z</time>
      </trkpt>
      <trkpt lat="44.74177" lon="5.59065">
        <ele>1468</ele>
        <time>2013-09-14T11:40:58.000Z</time>
      </trkpt>
      <trkpt lat="44.74181" lon="5.59067">
        <ele>1468</ele>
        <time>2013-09-14T11:41:02.000Z</time>
      </trkpt>
      <trkpt lat="44.74185" lon="5.59069">
        <ele>1467</ele>
        <time>2013-09-14T11:41:12.000Z</time>
      </trkpt>
      <trkpt lat="44.74193" lon="5.59069">
        <ele>1467</ele>
        <time>2013-09-14T11:41:14.000Z</time>
      </trkpt>
      <trkpt lat="44.742" lon="5.59071">
        <ele>1467</ele>
        <time>2013-09-14T11:41:16.000Z</time>
      </trkpt>
      <trkpt lat="44.74208" lon="5.59071">
        <ele>1467</ele>
        <time>2013-09-14T11:41:18.000Z</time>
      </trkpt>
      <trkpt lat="44.74213" lon="5.59071">
        <ele>1467</ele>
        <time>2013-09-14T11:41:19.000Z</time>
      </trkpt>
      <trkpt lat="44.74218" lon="5.59073">
        <ele>1467</ele>
        <time>2013-09-14T11:41:20.000Z</time>
      </trkpt>
      <trkpt lat="44.74223" lon="5.59073">
        <ele>1467</ele>
        <time>2013-09-14T11:41:21.000Z</time>
      </trkpt>
      <trkpt lat="44.74231" lon="5.59073">
        <ele>1467</ele>
        <time>2013-09-14T11:41:23.000Z</time>
      </trkpt>
      <trkpt lat="44.7424" lon="5.59075">
        <ele>1467</ele>
        <time>2013-09-14T11:41:25.000Z</time>
      </trkpt>
      <trkpt lat="44.74246" lon="5.59075">
        <ele>1467</ele>
        <time>2013-09-14T11:41:27.000Z</time>
      </trkpt>
      <trkpt lat="44.74252" lon="5.59075">
        <ele>1467</ele>
        <time>2013-09-14T11:41:30.000Z</time>
      </trkpt>
      <trkpt lat="44.74255" lon="5.5908">
        <ele>1467</ele>
        <time>2013-09-14T11:41:32.000Z</time>
      </trkpt>
      <trkpt lat="44.74259" lon="5.59084">
        <ele>1467</ele>
        <time>2013-09-14T11:41:35.000Z</time>
      </trkpt>
      <trkpt lat="44.74262" lon="5.59088">
        <ele>1467</ele>
        <time>2013-09-14T11:41:38.000Z</time>
      </trkpt>
      <trkpt lat="44.74266" lon="5.59092">
        <ele>1467</ele>
        <time>2013-09-14T11:41:41.000Z</time>
      </trkpt>
      <trkpt lat="44.7427" lon="5.59101">
        <ele>1468</ele>
        <time>2013-09-14T11:41:44.000Z</time>
      </trkpt>
      <trkpt lat="44.74274" lon="5.59105">
        <ele>1468</ele>
        <time>2013-09-14T11:41:46.000Z</time>
      </trkpt>
      <trkpt lat="44.74279" lon="5.5911">
        <ele>1468</ele>
        <time>2013-09-14T11:41:48.000Z</time>
      </trkpt>
      <trkpt lat="44.74284" lon="5.59114">
        <ele>1468</ele>
        <time>2013-09-14T11:41:50.000Z</time>
      </trkpt>
      <trkpt lat="44.7429" lon="5.59118">
        <ele>1468</ele>
        <time>2013-09-14T11:41:52.000Z</time>
      </trkpt>
      <trkpt lat="44.74296" lon="5.59122">
        <ele>1468</ele>
        <time>2013-09-14T11:41:54.000Z</time>
      </trkpt>
      <trkpt lat="44.74302" lon="5.59125">
        <ele>1468</ele>
        <time>2013-09-14T11:41:56.000Z</time>
      </trkpt>
      <trkpt lat="44.74308" lon="5.59129">
        <ele>1468</ele>
        <time>2013-09-14T11:41:58.000Z</time>
      </trkpt>
      <trkpt lat="44.74312" lon="5.59133">
        <ele>1468</ele>
        <time>2013-09-14T11:42:00.000Z</time>
      </trkpt>
      <trkpt lat="44.74317" lon="5.59138">
        <ele>1468</ele>
        <time>2013-09-14T11:42:03.000Z</time>
      </trkpt>
      <trkpt lat="44.74322" lon="5.59142">
        <ele>1468</ele>
        <time>2013-09-14T11:42:06.000Z</time>
      </trkpt>
      <trkpt lat="44.74326" lon="5.59148">
        <ele>1467</ele>
        <time>2013-09-14T11:42:10.000Z</time>
      </trkpt>
      <trkpt lat="44.74329" lon="5.59153">
        <ele>1467</ele>
        <time>2013-09-14T11:42:12.000Z</time>
      </trkpt>
      <trkpt lat="44.74333" lon="5.59159">
        <ele>1467</ele>
        <time>2013-09-14T11:42:16.000Z</time>
      </trkpt>
      <trkpt lat="44.74337" lon="5.59165">
        <ele>1466</ele>
        <time>2013-09-14T11:42:19.000Z</time>
      </trkpt>
      <trkpt lat="44.74341" lon="5.5917">
        <ele>1466</ele>
        <time>2013-09-14T11:42:22.000Z</time>
      </trkpt>
      <trkpt lat="44.74345" lon="5.59176">
        <ele>1466</ele>
        <time>2013-09-14T11:42:25.000Z</time>
      </trkpt>
      <trkpt lat="44.74349" lon="5.5918">
        <ele>1466</ele>
        <time>2013-09-14T11:42:27.000Z</time>
      </trkpt>
      <trkpt lat="44.74354" lon="5.59183">
        <ele>1465</ele>
        <time>2013-09-14T11:42:29.000Z</time>
      </trkpt>
      <trkpt lat="44.7436" lon="5.59187">
        <ele>1465</ele>
        <time>2013-09-14T11:42:31.000Z</time>
      </trkpt>
      <trkpt lat="44.74364" lon="5.59189">
        <ele>1465</ele>
        <time>2013-09-14T11:42:32.000Z</time>
      </trkpt>
      <trkpt lat="44.74369" lon="5.59191">
        <ele>1465</ele>
        <time>2013-09-14T11:42:33.000Z</time>
      </trkpt>
      <trkpt lat="44.74373" lon="5.59193">
        <ele>1465</ele>
        <time>2013-09-14T11:42:34.000Z</time>
      </trkpt>
      <trkpt lat="44.74378" lon="5.59196">
        <ele>1464</ele>
        <time>2013-09-14T11:42:35.000Z</time>
      </trkpt>
      <trkpt lat="44.74383" lon="5.59198">
        <ele>1464</ele>
        <time>2013-09-14T11:42:36.000Z</time>
      </trkpt>
      <trkpt lat="44.74391" lon="5.592">
        <ele>1464</ele>
        <time>2013-09-14T11:42:38.000Z</time>
      </trkpt>
      <trkpt lat="44.744" lon="5.592">
        <ele>1464</ele>
        <time>2013-09-14T11:42:40.000Z</time>
      </trkpt>
      <trkpt lat="44.74407" lon="5.59202">
        <ele>1463</ele>
        <time>2013-09-14T11:42:42.000Z</time>
      </trkpt>
      <trkpt lat="44.74416" lon="5.59204">
        <ele>1463</ele>
        <time>2013-09-14T11:42:44.000Z</time>
      </trkpt>
      <trkpt lat="44.74425" lon="5.59206">
        <ele>1462</ele>
        <time>2013-09-14T11:42:46.000Z</time>
      </trkpt>
      <trkpt lat="44.74429" lon="5.59208">
        <ele>1462</ele>
        <time>2013-09-14T11:42:47.000Z</time>
      </trkpt>
      <trkpt lat="44.74433" lon="5.5921">
        <ele>1462</ele>
        <time>2013-09-14T11:42:48.000Z</time>
      </trkpt>
      <trkpt lat="44.74437" lon="5.59213">
        <ele>1462</ele>
        <time>2013-09-14T11:42:49.000Z</time>
      </trkpt>
      <trkpt lat="44.74442" lon="5.59215">
        <ele>1462</ele>
        <time>2013-09-14T11:42:50.000Z</time>
      </trkpt>
      <trkpt lat="44.74446" lon="5.59217">
        <ele>1459</ele>
        <time>2013-09-14T11:42:51.000Z</time>
      </trkpt>
      <trkpt lat="44.7445" lon="5.59219">
        <ele>1458</ele>
        <time>2013-09-14T11:42:52.000Z</time>
      </trkpt>
      <trkpt lat="44.74455" lon="5.59223">
        <ele>1456</ele>
        <time>2013-09-14T11:42:53.000Z</time>
      </trkpt>
      <trkpt lat="44.74459" lon="5.59226">
        <ele>1455</ele>
        <time>2013-09-14T11:42:54.000Z</time>
      </trkpt>
      <trkpt lat="44.74466" lon="5.59232">
        <ele>1453</ele>
        <time>2013-09-14T11:42:56.000Z</time>
      </trkpt>
      <trkpt lat="44.7447" lon="5.59236">
        <ele>1452</ele>
        <time>2013-09-14T11:42:57.000Z</time>
      </trkpt>
      <trkpt lat="44.74478" lon="5.59249">
        <ele>1452</ele>
        <time>2013-09-14T11:43:02.000Z</time>
      </trkpt>
      <trkpt lat="44.74478" lon="5.59249">
        <ele>1452</ele>
        <time>2013-09-14T11:43:02.000Z</time>
      </trkpt>
      <trkpt lat="44.74478" lon="5.59249">
        <ele>1452</ele>
        <time>2013-09-14T11:43:04.000Z</time>
      </trkpt>
      <trkpt lat="44.74486" lon="5.59262">
        <ele>1450</ele>
        <time>2013-09-14T11:43:05.000Z</time>
      </trkpt>
      <trkpt lat="44.74486" lon="5.59262">
        <ele>1450</ele>
        <time>2013-09-14T11:43:05.000Z</time>
      </trkpt>
      <trkpt lat="44.74486" lon="5.59262">
        <ele>1450</ele>
        <time>2013-09-14T11:43:07.000Z</time>
      </trkpt>
      <trkpt lat="44.74493" lon="5.59273">
        <ele>1448</ele>
        <time>2013-09-14T11:43:08.000Z</time>
      </trkpt>
      <trkpt lat="44.74493" lon="5.59273">
        <ele>1448</ele>
        <time>2013-09-14T11:43:08.000Z</time>
      </trkpt>
      <trkpt lat="44.74493" lon="5.59273">
        <ele>1448</ele>
        <time>2013-09-14T11:43:10.000Z</time>
      </trkpt>
      <trkpt lat="44.74499" lon="5.59286">
        <ele>1446</ele>
        <time>2013-09-14T11:43:11.000Z</time>
      </trkpt>
      <trkpt lat="44.74499" lon="5.59286">
        <ele>1446</ele>
        <time>2013-09-14T11:43:11.000Z</time>
      </trkpt>
      <trkpt lat="44.74499" lon="5.59286">
        <ele>1446</ele>
        <time>2013-09-14T11:43:13.000Z</time>
      </trkpt>
      <trkpt lat="44.74502" lon="5.59298">
        <ele>1444</ele>
        <time>2013-09-14T11:43:14.000Z</time>
      </trkpt>
      <trkpt lat="44.74502" lon="5.59298">
        <ele>1444</ele>
        <time>2013-09-14T11:43:14.000Z</time>
      </trkpt>
      <trkpt lat="44.74502" lon="5.59298">
        <ele>1444</ele>
        <time>2013-09-14T11:43:17.000Z</time>
      </trkpt>
      <trkpt lat="44.74505" lon="5.59314">
        <ele>1441</ele>
        <time>2013-09-14T11:43:18.000Z</time>
      </trkpt>
      <trkpt lat="44.74505" lon="5.59314">
        <ele>1441</ele>
        <time>2013-09-14T11:43:18.000Z</time>
      </trkpt>
      <trkpt lat="44.74505" lon="5.59314">
        <ele>1441</ele>
        <time>2013-09-14T11:43:19.000Z</time>
      </trkpt>
      <trkpt lat="44.74509" lon="5.5932">
        <ele>1440</ele>
        <time>2013-09-14T11:43:20.000Z</time>
      </trkpt>
      <trkpt lat="44.74515" lon="5.59324">
        <ele>1439</ele>
        <time>2013-09-14T11:43:21.000Z</time>
      </trkpt>
      <trkpt lat="44.74519" lon="5.59328">
        <ele>1439</ele>
        <time>2013-09-14T11:43:22.000Z</time>
      </trkpt>
      <trkpt lat="44.74524" lon="5.59331">
        <ele>1438</ele>
        <time>2013-09-14T11:43:23.000Z</time>
      </trkpt>
      <trkpt lat="44.74529" lon="5.59333">
        <ele>1437</ele>
        <time>2013-09-14T11:43:24.000Z</time>
      </trkpt>
      <trkpt lat="44.74532" lon="5.59337">
        <ele>1437</ele>
        <time>2013-09-14T11:43:25.000Z</time>
      </trkpt>
      <trkpt lat="44.74536" lon="5.59339">
        <ele>1436</ele>
        <time>2013-09-14T11:43:26.000Z</time>
      </trkpt>
      <trkpt lat="44.74543" lon="5.59344">
        <ele>1435</ele>
        <time>2013-09-14T11:43:28.000Z</time>
      </trkpt>
      <trkpt lat="44.74547" lon="5.59348">
        <ele>1434</ele>
        <time>2013-09-14T11:43:29.000Z</time>
      </trkpt>
      <trkpt lat="44.74554" lon="5.59354">
        <ele>1433</ele>
        <time>2013-09-14T11:43:31.000Z</time>
      </trkpt>
      <trkpt lat="44.74561" lon="5.59363">
        <ele>1432</ele>
        <time>2013-09-14T11:43:33.000Z</time>
      </trkpt>
      <trkpt lat="44.74564" lon="5.59367">
        <ele>1431</ele>
        <time>2013-09-14T11:43:34.000Z</time>
      </trkpt>
      <trkpt lat="44.74564" lon="5.59367">
        <ele>1431</ele>
        <time>2013-09-14T11:43:34.000Z</time>
      </trkpt>
      <trkpt lat="44.74564" lon="5.59367">
        <ele>1431</ele>
        <time>2013-09-14T11:43:43.000Z</time>
      </trkpt>
      <trkpt lat="44.74567" lon="5.59378">
        <ele>1424</ele>
        <time>2013-09-14T11:43:44.000Z</time>
      </trkpt>
      <trkpt lat="44.74567" lon="5.59378">
        <ele>1424</ele>
        <time>2013-09-14T11:43:44.000Z</time>
      </trkpt>
      <trkpt lat="44.74567" lon="5.59378">
        <ele>1424</ele>
        <time>2013-09-14T11:45:12.000Z</time>
      </trkpt>
      <trkpt lat="44.74568" lon="5.59395">
        <ele>1403</ele>
        <time>2013-09-14T11:45:13.000Z</time>
      </trkpt>
      <trkpt lat="44.74568" lon="5.59395">
        <ele>1403</ele>
        <time>2013-09-14T11:45:13.000Z</time>
      </trkpt>
      <trkpt lat="44.74568" lon="5.59395">
        <ele>1403</ele>
        <time>2013-09-14T11:45:15.000Z</time>
      </trkpt>
      <trkpt lat="44.7457" lon="5.59412">
        <ele>1400</ele>
        <time>2013-09-14T11:45:16.000Z</time>
      </trkpt>
      <trkpt lat="44.7457" lon="5.59412">
        <ele>1400</ele>
        <time>2013-09-14T11:45:16.000Z</time>
      </trkpt>
      <trkpt lat="44.7457" lon="5.59412">
        <ele>1400</ele>
        <time>2013-09-14T11:45:18.000Z</time>
      </trkpt>
      <trkpt lat="44.7457" lon="5.59432">
        <ele>1398</ele>
        <time>2013-09-14T11:45:19.000Z</time>
      </trkpt>
      <trkpt lat="44.7457" lon="5.59432">
        <ele>1398</ele>
        <time>2013-09-14T11:45:19.000Z</time>
      </trkpt>
      <trkpt lat="44.7457" lon="5.59432">
        <ele>1398</ele>
        <time>2013-09-14T11:45:20.000Z</time>
      </trkpt>
      <trkpt lat="44.74568" lon="5.59446">
        <ele>1396</ele>
        <time>2013-09-14T11:45:21.000Z</time>
      </trkpt>
      <trkpt lat="44.74568" lon="5.59446">
        <ele>1396</ele>
        <time>2013-09-14T11:45:21.000Z</time>
      </trkpt>
      <trkpt lat="44.74568" lon="5.59446">
        <ele>1396</ele>
        <time>2013-09-14T11:45:46.000Z</time>
      </trkpt>
      <trkpt lat="44.74568" lon="5.59464">
        <ele>1392</ele>
        <time>2013-09-14T11:45:47.000Z</time>
      </trkpt>
      <trkpt lat="44.74568" lon="5.59464">
        <ele>1392</ele>
        <time>2013-09-14T11:45:47.000Z</time>
      </trkpt>
      <trkpt lat="44.74568" lon="5.59464">
        <ele>1392</ele>
        <time>2013-09-14T11:45:48.000Z</time>
      </trkpt>
      <trkpt lat="44.74567" lon="5.59479">
        <ele>1391</ele>
        <time>2013-09-14T11:45:49.000Z</time>
      </trkpt>
      <trkpt lat="44.74567" lon="5.59479">
        <ele>1391</ele>
        <time>2013-09-14T11:45:49.000Z</time>
      </trkpt>
      <trkpt lat="44.74567" lon="5.59479">
        <ele>1391</ele>
        <time>2013-09-14T11:45:50.000Z</time>
      </trkpt>
      <trkpt lat="44.74568" lon="5.59494">
        <ele>1389</ele>
        <time>2013-09-14T11:45:51.000Z</time>
      </trkpt>
      <trkpt lat="44.74568" lon="5.59494">
        <ele>1389</ele>
        <time>2013-09-14T11:45:51.000Z</time>
      </trkpt>
      <trkpt lat="44.74568" lon="5.59494">
        <ele>1389</ele>
        <time>2013-09-14T11:45:52.000Z</time>
      </trkpt>
      <trkpt lat="44.74572" lon="5.59509">
        <ele>1388</ele>
        <time>2013-09-14T11:45:53.000Z</time>
      </trkpt>
      <trkpt lat="44.74572" lon="5.59509">
        <ele>1388</ele>
        <time>2013-09-14T11:45:53.000Z</time>
      </trkpt>
      <trkpt lat="44.74572" lon="5.59509">
        <ele>1388</ele>
        <time>2013-09-14T11:45:54.000Z</time>
      </trkpt>
      <trkpt lat="44.74574" lon="5.59524">
        <ele>1387</ele>
        <time>2013-09-14T11:45:55.000Z</time>
      </trkpt>
      <trkpt lat="44.74574" lon="5.59524">
        <ele>1387</ele>
        <time>2013-09-14T11:45:55.000Z</time>
      </trkpt>
      <trkpt lat="44.74574" lon="5.59524">
        <ele>1387</ele>
        <time>2013-09-14T11:45:57.000Z</time>
      </trkpt>
      <trkpt lat="44.74577" lon="5.59541">
        <ele>1386</ele>
        <time>2013-09-14T11:45:58.000Z</time>
      </trkpt>
      <trkpt lat="44.74578" lon="5.5955">
        <ele>1385</ele>
        <time>2013-09-14T11:46:00.000Z</time>
      </trkpt>
      <trkpt lat="44.74579" lon="5.59556">
        <ele>1384</ele>
        <time>2013-09-14T11:46:02.000Z</time>
      </trkpt>
      <trkpt lat="44.74578" lon="5.59564">
        <ele>1383</ele>
        <time>2013-09-14T11:46:05.000Z</time>
      </trkpt>
      <trkpt lat="44.74578" lon="5.59564">
        <ele>1383</ele>
        <time>2013-09-14T11:46:05.000Z</time>
      </trkpt>
      <trkpt lat="44.74578" lon="5.59564">
        <ele>1382</ele>
        <time>2013-09-14T11:46:06.000Z</time>
      </trkpt>
      <trkpt lat="44.74577" lon="5.59571">
        <ele>1382</ele>
        <time>2013-09-14T11:46:09.000Z</time>
      </trkpt>
      <trkpt lat="44.74574" lon="5.59577">
        <ele>1382</ele>
        <time>2013-09-14T11:46:14.000Z</time>
      </trkpt>
      <trkpt lat="44.74573" lon="5.59584">
        <ele>1384</ele>
        <time>2013-09-14T11:46:19.000Z</time>
      </trkpt>
      <trkpt lat="44.74573" lon="5.59584">
        <ele>1384</ele>
        <time>2013-09-14T11:46:19.000Z</time>
      </trkpt>
      <trkpt lat="44.74573" lon="5.59584">
        <ele>1384</ele>
        <time>2013-09-14T11:46:20.000Z</time>
      </trkpt>
      <trkpt lat="44.74572" lon="5.5959">
        <ele>1385</ele>
        <time>2013-09-14T11:46:25.000Z</time>
      </trkpt>
      <trkpt lat="44.74572" lon="5.5959">
        <ele>1385</ele>
        <time>2013-09-14T11:46:25.000Z</time>
      </trkpt>
      <trkpt lat="44.74572" lon="5.5959">
        <ele>1385</ele>
        <time>2013-09-14T11:46:26.000Z</time>
      </trkpt>
      <trkpt lat="44.74574" lon="5.59597">
        <ele>1387</ele>
        <time>2013-09-14T11:46:34.000Z</time>
      </trkpt>
      <trkpt lat="44.74574" lon="5.59597">
        <ele>1387</ele>
        <time>2013-09-14T11:46:34.000Z</time>
      </trkpt>
      <trkpt lat="44.74574" lon="5.59597">
        <ele>1387</ele>
        <time>2013-09-14T11:46:36.000Z</time>
      </trkpt>
      <trkpt lat="44.74575" lon="5.59603">
        <ele>1387</ele>
        <time>2013-09-14T11:46:43.000Z</time>
      </trkpt>
      <trkpt lat="44.74575" lon="5.59603">
        <ele>1387</ele>
        <time>2013-09-14T11:46:43.000Z</time>
      </trkpt>
      <trkpt lat="44.74575" lon="5.59603">
        <ele>1387</ele>
        <time>2013-09-14T11:46:44.000Z</time>
      </trkpt>
      <trkpt lat="44.74578" lon="5.5961">
        <ele>1387</ele>
        <time>2013-09-14T11:46:53.000Z</time>
      </trkpt>
      <trkpt lat="44.74578" lon="5.5961">
        <ele>1387</ele>
        <time>2013-09-14T11:46:53.000Z</time>
      </trkpt>
      <trkpt lat="44.74578" lon="5.5961">
        <ele>1387</ele>
        <time>2013-09-14T11:46:54.000Z</time>
      </trkpt>
      <trkpt lat="44.7458" lon="5.59616">
        <ele>1387</ele>
        <time>2013-09-14T11:47:00.000Z</time>
      </trkpt>
      <trkpt lat="44.7458" lon="5.59616">
        <ele>1387</ele>
        <time>2013-09-14T11:47:00.000Z</time>
      </trkpt>
      <trkpt lat="44.7458" lon="5.59616">
        <ele>1387</ele>
        <time>2013-09-14T11:47:01.000Z</time>
      </trkpt>
      <trkpt lat="44.74582" lon="5.59622">
        <ele>1387</ele>
        <time>2013-09-14T11:47:06.000Z</time>
      </trkpt>
      <trkpt lat="44.74582" lon="5.59622">
        <ele>1387</ele>
        <time>2013-09-14T11:47:06.000Z</time>
      </trkpt>
      <trkpt lat="44.74582" lon="5.59622">
        <ele>1387</ele>
        <time>2013-09-14T11:47:07.000Z</time>
      </trkpt>
      <trkpt lat="44.74583" lon="5.59629">
        <ele>1387</ele>
        <time>2013-09-14T11:47:11.000Z</time>
      </trkpt>
      <trkpt lat="44.74583" lon="5.59629">
        <ele>1387</ele>
        <time>2013-09-14T11:47:11.000Z</time>
      </trkpt>
      <trkpt lat="44.74583" lon="5.59629">
        <ele>1387</ele>
        <time>2013-09-14T11:47:12.000Z</time>
      </trkpt>
      <trkpt lat="44.74584" lon="5.59635">
        <ele>1387</ele>
        <time>2013-09-14T11:47:18.000Z</time>
      </trkpt>
      <trkpt lat="44.74589" lon="5.59642">
        <ele>1386</ele>
        <time>2013-09-14T11:47:26.000Z</time>
      </trkpt>
      <trkpt lat="44.74589" lon="5.59642">
        <ele>1386</ele>
        <time>2013-09-14T11:47:26.000Z</time>
      </trkpt>
      <trkpt lat="44.74589" lon="5.59642">
        <ele>1386</ele>
        <time>2013-09-14T11:47:27.000Z</time>
      </trkpt>
      <trkpt lat="44.74593" lon="5.59648">
        <ele>1386</ele>
        <time>2013-09-14T11:47:36.000Z</time>
      </trkpt>
      <trkpt lat="44.74593" lon="5.59648">
        <ele>1386</ele>
        <time>2013-09-14T11:47:36.000Z</time>
      </trkpt>
      <trkpt lat="44.74593" lon="5.59648">
        <ele>1386</ele>
        <time>2013-09-14T11:47:38.000Z</time>
      </trkpt>
      <trkpt lat="44.74596" lon="5.59655">
        <ele>1386</ele>
        <time>2013-09-14T11:47:44.000Z</time>
      </trkpt>
      <trkpt lat="44.74596" lon="5.59655">
        <ele>1386</ele>
        <time>2013-09-14T11:47:44.000Z</time>
      </trkpt>
      <trkpt lat="44.74596" lon="5.59655">
        <ele>1386</ele>
        <time>2013-09-14T11:47:46.000Z</time>
      </trkpt>
      <trkpt lat="44.74599" lon="5.59661">
        <ele>1386</ele>
        <time>2013-09-14T11:47:52.000Z</time>
      </trkpt>
      <trkpt lat="44.74603" lon="5.59665">
        <ele>1385</ele>
        <time>2013-09-14T11:47:56.000Z</time>
      </trkpt>
      <trkpt lat="44.74603" lon="5.59665">
        <ele>1385</ele>
        <time>2013-09-14T11:47:56.000Z</time>
      </trkpt>
      <trkpt lat="44.74603" lon="5.59665">
        <ele>1385</ele>
        <time>2013-09-14T11:47:57.000Z</time>
      </trkpt>
      <trkpt lat="44.74606" lon="5.5967">
        <ele>1385</ele>
        <time>2013-09-14T11:48:01.000Z</time>
      </trkpt>
      <trkpt lat="44.74608" lon="5.59676">
        <ele>1385</ele>
        <time>2013-09-14T11:48:06.000Z</time>
      </trkpt>
      <trkpt lat="44.74611" lon="5.5968">
        <ele>1384</ele>
        <time>2013-09-14T11:48:11.000Z</time>
      </trkpt>
      <trkpt lat="44.74611" lon="5.5968">
        <ele>1384</ele>
        <time>2013-09-14T11:48:11.000Z</time>
      </trkpt>
      <trkpt lat="44.74611" lon="5.5968">
        <ele>1384</ele>
        <time>2013-09-14T11:48:12.000Z</time>
      </trkpt>
      <trkpt lat="44.74613" lon="5.59687">
        <ele>1384</ele>
        <time>2013-09-14T11:48:17.000Z</time>
      </trkpt>
      <trkpt lat="44.74617" lon="5.59691">
        <ele>1385</ele>
        <time>2013-09-14T11:48:22.000Z</time>
      </trkpt>
      <trkpt lat="44.74617" lon="5.59691">
        <ele>1385</ele>
        <time>2013-09-14T11:48:22.000Z</time>
      </trkpt>
      <trkpt lat="44.74617" lon="5.59691">
        <ele>1385</ele>
        <time>2013-09-14T11:48:23.000Z</time>
      </trkpt>
      <trkpt lat="44.7462" lon="5.59698">
        <ele>1385</ele>
        <time>2013-09-14T11:48:28.000Z</time>
      </trkpt>
      <trkpt lat="44.7462" lon="5.59698">
        <ele>1385</ele>
        <time>2013-09-14T11:48:28.000Z</time>
      </trkpt>
      <trkpt lat="44.7462" lon="5.59698">
        <ele>1385</ele>
        <time>2013-09-14T11:48:29.000Z</time>
      </trkpt>
      <trkpt lat="44.74623" lon="5.59702">
        <ele>1384</ele>
        <time>2013-09-14T11:48:34.000Z</time>
      </trkpt>
      <trkpt lat="44.74623" lon="5.59702">
        <ele>1384</ele>
        <time>2013-09-14T11:48:34.000Z</time>
      </trkpt>
      <trkpt lat="44.74623" lon="5.59702">
        <ele>1384</ele>
        <time>2013-09-14T11:48:35.000Z</time>
      </trkpt>
      <trkpt lat="44.74625" lon="5.59708">
        <ele>1384</ele>
        <time>2013-09-14T11:48:44.000Z</time>
      </trkpt>
      <trkpt lat="44.7463" lon="5.59713">
        <ele>1383</ele>
        <time>2013-09-14T11:48:54.000Z</time>
      </trkpt>
      <trkpt lat="44.7463" lon="5.59713">
        <ele>1383</ele>
        <time>2013-09-14T11:48:54.000Z</time>
      </trkpt>
      <trkpt lat="44.7463" lon="5.59713">
        <ele>1383</ele>
        <time>2013-09-14T11:48:56.000Z</time>
      </trkpt>
      <trkpt lat="44.7463" lon="5.59719">
        <ele>1381</ele>
        <time>2013-09-14T11:49:18.000Z</time>
      </trkpt>
      <trkpt lat="44.7463" lon="5.59719">
        <ele>1381</ele>
        <time>2013-09-14T11:49:18.000Z</time>
      </trkpt>
      <trkpt lat="44.7463" lon="5.59719">
        <ele>1381</ele>
        <time>2013-09-14T11:49:19.000Z</time>
      </trkpt>
      <trkpt lat="44.74627" lon="5.59726">
        <ele>1380</ele>
        <time>2013-09-14T11:49:22.000Z</time>
      </trkpt>
      <trkpt lat="44.74625" lon="5.59732">
        <ele>1380</ele>
        <time>2013-09-14T11:49:26.000Z</time>
      </trkpt>
      <trkpt lat="44.74625" lon="5.59732">
        <ele>1380</ele>
        <time>2013-09-14T11:49:26.000Z</time>
      </trkpt>
      <trkpt lat="44.74625" lon="5.59732">
        <ele>1380</ele>
        <time>2013-09-14T11:49:27.000Z</time>
      </trkpt>
      <trkpt lat="44.7463" lon="5.59732">
        <ele>1379</ele>
        <time>2013-09-14T11:49:45.000Z</time>
      </trkpt>
      <trkpt lat="44.7463" lon="5.59732">
        <ele>1379</ele>
        <time>2013-09-14T11:49:45.000Z</time>
      </trkpt>
      <trkpt lat="44.7463" lon="5.59732">
        <ele>1379</ele>
        <time>2013-09-14T11:49:50.000Z</time>
      </trkpt>
      <trkpt lat="44.74636" lon="5.59732">
        <ele>1377</ele>
        <time>2013-09-14T11:50:25.000Z</time>
      </trkpt>
      <trkpt lat="44.74636" lon="5.59732">
        <ele>1377</ele>
        <time>2013-09-14T11:50:25.000Z</time>
      </trkpt>
      <trkpt lat="44.74636" lon="5.59732">
        <ele>1377</ele>
        <time>2013-09-14T11:50:29.000Z</time>
      </trkpt>
      <trkpt lat="44.7464" lon="5.59728">
        <ele>1376</ele>
        <time>2013-09-14T11:50:41.000Z</time>
      </trkpt>
      <trkpt lat="44.7464" lon="5.59728">
        <ele>1376</ele>
        <time>2013-09-14T11:50:41.000Z</time>
      </trkpt>
      <trkpt lat="44.7464" lon="5.59728">
        <ele>1376</ele>
        <time>2013-09-14T11:50:44.000Z</time>
      </trkpt>
      <trkpt lat="44.74644" lon="5.59726">
        <ele>1376</ele>
        <time>2013-09-14T11:50:54.000Z</time>
      </trkpt>
      <trkpt lat="44.74649" lon="5.59721">
        <ele>1375</ele>
        <time>2013-09-14T11:51:02.000Z</time>
      </trkpt>
      <trkpt lat="44.74649" lon="5.59721">
        <ele>1375</ele>
        <time>2013-09-14T11:51:02.000Z</time>
      </trkpt>
      <trkpt lat="44.74649" lon="5.59721">
        <ele>1375</ele>
        <time>2013-09-14T11:51:03.000Z</time>
      </trkpt>
      <trkpt lat="44.74654" lon="5.59721">
        <ele>1375</ele>
        <time>2013-09-14T11:51:09.000Z</time>
      </trkpt>
      <trkpt lat="44.74654" lon="5.59721">
        <ele>1375</ele>
        <time>2013-09-14T11:51:09.000Z</time>
      </trkpt>
      <trkpt lat="44.74654" lon="5.59721">
        <ele>1375</ele>
        <time>2013-09-14T11:51:10.000Z</time>
      </trkpt>
      <trkpt lat="44.74658" lon="5.59719">
        <ele>1374</ele>
        <time>2013-09-14T11:51:16.000Z</time>
      </trkpt>
      <trkpt lat="44.74658" lon="5.59719">
        <ele>1374</ele>
        <time>2013-09-14T11:51:16.000Z</time>
      </trkpt>
      <trkpt lat="44.74658" lon="5.59719">
        <ele>1374</ele>
        <time>2013-09-14T11:51:17.000Z</time>
      </trkpt>
      <trkpt lat="44.74663" lon="5.59717">
        <ele>1372</ele>
        <time>2013-09-14T11:51:25.000Z</time>
      </trkpt>
      <trkpt lat="44.74663" lon="5.59717">
        <ele>1372</ele>
        <time>2013-09-14T11:51:25.000Z</time>
      </trkpt>
      <trkpt lat="44.74663" lon="5.59717">
        <ele>1372</ele>
        <time>2013-09-14T11:51:27.000Z</time>
      </trkpt>
      <trkpt lat="44.74667" lon="5.59715">
        <ele>1370</ele>
        <time>2013-09-14T11:52:00.000Z</time>
      </trkpt>
      <trkpt lat="44.74671" lon="5.59708">
        <ele>1370</ele>
        <time>2013-09-14T11:52:04.000Z</time>
      </trkpt>
      <trkpt lat="44.74671" lon="5.59708">
        <ele>1370</ele>
        <time>2013-09-14T11:52:04.000Z</time>
      </trkpt>
      <trkpt lat="44.74671" lon="5.59708">
        <ele>1370</ele>
        <time>2013-09-14T11:52:05.000Z</time>
      </trkpt>
      <trkpt lat="44.74672" lon="5.59702">
        <ele>1370</ele>
        <time>2013-09-14T11:52:09.000Z</time>
      </trkpt>
      <trkpt lat="44.74672" lon="5.59695">
        <ele>1370</ele>
        <time>2013-09-14T11:52:13.000Z</time>
      </trkpt>
      <trkpt lat="44.74672" lon="5.59689">
        <ele>1369</ele>
        <time>2013-09-14T11:52:16.000Z</time>
      </trkpt>
      <trkpt lat="44.74671" lon="5.59683">
        <ele>1369</ele>
        <time>2013-09-14T11:52:21.000Z</time>
      </trkpt>
      <trkpt lat="44.74671" lon="5.59683">
        <ele>1369</ele>
        <time>2013-09-14T11:52:21.000Z</time>
      </trkpt>
      <trkpt lat="44.74671" lon="5.59683">
        <ele>1369</ele>
        <time>2013-09-14T11:52:22.000Z</time>
      </trkpt>
      <trkpt lat="44.74671" lon="5.59676">
        <ele>1369</ele>
        <time>2013-09-14T11:52:28.000Z</time>
      </trkpt>
      <trkpt lat="44.74671" lon="5.59676">
        <ele>1369</ele>
        <time>2013-09-14T11:52:28.000Z</time>
      </trkpt>
      <trkpt lat="44.74671" lon="5.59676">
        <ele>1369</ele>
        <time>2013-09-14T11:52:29.000Z</time>
      </trkpt>
      <trkpt lat="44.7467" lon="5.5967">
        <ele>1369</ele>
        <time>2013-09-14T11:52:36.000Z</time>
      </trkpt>
      <trkpt lat="44.7467" lon="5.59663">
        <ele>1368</ele>
        <time>2013-09-14T11:52:41.000Z</time>
      </trkpt>
      <trkpt lat="44.74668" lon="5.59657">
        <ele>1368</ele>
        <time>2013-09-14T11:52:46.000Z</time>
      </trkpt>
      <trkpt lat="44.74667" lon="5.5965">
        <ele>1367</ele>
        <time>2013-09-14T11:52:50.000Z</time>
      </trkpt>
      <trkpt lat="44.74667" lon="5.59644">
        <ele>1366</ele>
        <time>2013-09-14T11:52:53.000Z</time>
      </trkpt>
      <trkpt lat="44.74666" lon="5.59638">
        <ele>1366</ele>
        <time>2013-09-14T11:52:56.000Z</time>
      </trkpt>
      <trkpt lat="44.74667" lon="5.59631">
        <ele>1365</ele>
        <time>2013-09-14T11:52:59.000Z</time>
      </trkpt>
      <trkpt lat="44.74667" lon="5.59625">
        <ele>1365</ele>
        <time>2013-09-14T11:53:01.000Z</time>
      </trkpt>
      <trkpt lat="44.74668" lon="5.59618">
        <ele>1364</ele>
        <time>2013-09-14T11:53:04.000Z</time>
      </trkpt>
      <trkpt lat="44.74669" lon="5.59612">
        <ele>1363</ele>
        <time>2013-09-14T11:53:07.000Z</time>
      </trkpt>
      <trkpt lat="44.7467" lon="5.59605">
        <ele>1363</ele>
        <time>2013-09-14T11:53:11.000Z</time>
      </trkpt>
      <trkpt lat="44.74674" lon="5.59599">
        <ele>1363</ele>
        <time>2013-09-14T11:53:15.000Z</time>
      </trkpt>
      <trkpt lat="44.74678" lon="5.59592">
        <ele>1363</ele>
        <time>2013-09-14T11:53:19.000Z</time>
      </trkpt>
      <trkpt lat="44.7468" lon="5.59586">
        <ele>1362</ele>
        <time>2013-09-14T11:53:23.000Z</time>
      </trkpt>
      <trkpt lat="44.74682" lon="5.5958">
        <ele>1362</ele>
        <time>2013-09-14T11:53:25.000Z</time>
      </trkpt>
      <trkpt lat="44.74684" lon="5.59573">
        <ele>1362</ele>
        <time>2013-09-14T11:53:28.000Z</time>
      </trkpt>
      <trkpt lat="44.74685" lon="5.59567">
        <ele>1362</ele>
        <time>2013-09-14T11:53:31.000Z</time>
      </trkpt>
      <trkpt lat="44.74685" lon="5.5956">
        <ele>1362</ele>
        <time>2013-09-14T11:53:34.000Z</time>
      </trkpt>
      <trkpt lat="44.74686" lon="5.59554">
        <ele>1362</ele>
        <time>2013-09-14T11:53:39.000Z</time>
      </trkpt>
      <trkpt lat="44.74686" lon="5.59547">
        <ele>1362</ele>
        <time>2013-09-14T11:53:44.000Z</time>
      </trkpt>
      <trkpt lat="44.74686" lon="5.59541">
        <ele>1362</ele>
        <time>2013-09-14T11:53:48.000Z</time>
      </trkpt>
      <trkpt lat="44.74685" lon="5.59534">
        <ele>1362</ele>
        <time>2013-09-14T11:53:53.000Z</time>
      </trkpt>
      <trkpt lat="44.74685" lon="5.59534">
        <ele>1362</ele>
        <time>2013-09-14T11:53:53.000Z</time>
      </trkpt>
      <trkpt lat="44.74685" lon="5.59534">
        <ele>1362</ele>
        <time>2013-09-14T11:53:55.000Z</time>
      </trkpt>
      <trkpt lat="44.74686" lon="5.59528">
        <ele>1363</ele>
        <time>2013-09-14T11:54:02.000Z</time>
      </trkpt>
      <trkpt lat="44.74686" lon="5.59528">
        <ele>1363</ele>
        <time>2013-09-14T11:54:02.000Z</time>
      </trkpt>
      <trkpt lat="44.74686" lon="5.59528">
        <ele>1363</ele>
        <time>2013-09-14T11:54:03.000Z</time>
      </trkpt>
      <trkpt lat="44.74691" lon="5.59524">
        <ele>1364</ele>
        <time>2013-09-14T11:54:24.000Z</time>
      </trkpt>
      <trkpt lat="44.74691" lon="5.59524">
        <ele>1364</ele>
        <time>2013-09-14T11:54:24.000Z</time>
      </trkpt>
      <trkpt lat="44.74691" lon="5.59524">
        <ele>1364</ele>
        <time>2013-09-14T11:54:26.000Z</time>
      </trkpt>
      <trkpt lat="44.74696" lon="5.59524">
        <ele>1366</ele>
        <time>2013-09-14T11:54:53.000Z</time>
      </trkpt>
      <trkpt lat="44.74696" lon="5.59524">
        <ele>1366</ele>
        <time>2013-09-14T11:54:53.000Z</time>
      </trkpt>
      <trkpt lat="44.74696" lon="5.59524">
        <ele>1366</ele>
        <time>2013-09-14T11:54:58.000Z</time>
      </trkpt>
      <trkpt lat="44.74698" lon="5.59517">
        <ele>1367</ele>
        <time>2013-09-14T11:55:14.000Z</time>
      </trkpt>
      <trkpt lat="44.74698" lon="5.59517">
        <ele>1367</ele>
        <time>2013-09-14T11:55:14.000Z</time>
      </trkpt>
      <trkpt lat="44.74698" lon="5.59517">
        <ele>1368</ele>
        <time>2013-09-14T11:55:16.000Z</time>
      </trkpt>
      <trkpt lat="44.74699" lon="5.59511">
        <ele>1370</ele>
        <time>2013-09-14T11:55:49.000Z</time>
      </trkpt>
      <trkpt lat="44.74694" lon="5.59509">
        <ele>1371</ele>
        <time>2013-09-14T11:56:04.000Z</time>
      </trkpt>
      <trkpt lat="44.74694" lon="5.59509">
        <ele>1371</ele>
        <time>2013-09-14T11:56:04.000Z</time>
      </trkpt>
      <trkpt lat="44.74694" lon="5.59509">
        <ele>1371</ele>
        <time>2013-09-14T11:56:06.000Z</time>
      </trkpt>
      <trkpt lat="44.7469" lon="5.59504">
        <ele>1372</ele>
        <time>2013-09-14T11:56:26.000Z</time>
      </trkpt>
      <trkpt lat="44.7469" lon="5.59504">
        <ele>1372</ele>
        <time>2013-09-14T11:56:26.000Z</time>
      </trkpt>
      <trkpt lat="44.7469" lon="5.59504">
        <ele>1373</ele>
        <time>2013-09-14T11:56:34.000Z</time>
      </trkpt>
      <trkpt lat="44.74692" lon="5.59498">
        <ele>1387</ele>
        <time>2013-09-14T11:58:29.000Z</time>
      </trkpt>
      <trkpt lat="44.74692" lon="5.59498">
        <ele>1387</ele>
        <time>2013-09-14T11:58:29.000Z</time>
      </trkpt>
      <trkpt lat="44.74692" lon="5.59498">
        <ele>1387</ele>
        <time>2013-09-14T11:58:30.000Z</time>
      </trkpt>
      <trkpt lat="44.74694" lon="5.59492">
        <ele>1390</ele>
        <time>2013-09-14T11:58:35.000Z</time>
      </trkpt>
      <trkpt lat="44.74694" lon="5.59492">
        <ele>1390</ele>
        <time>2013-09-14T11:58:35.000Z</time>
      </trkpt>
      <trkpt lat="44.74694" lon="5.59492">
        <ele>1391</ele>
        <time>2013-09-14T11:58:36.000Z</time>
      </trkpt>
      <trkpt lat="44.74695" lon="5.59485">
        <ele>1392</ele>
        <time>2013-09-14T11:58:40.000Z</time>
      </trkpt>
      <trkpt lat="44.74696" lon="5.59479">
        <ele>1394</ele>
        <time>2013-09-14T11:58:43.000Z</time>
      </trkpt>
      <trkpt lat="44.74699" lon="5.59472">
        <ele>1395</ele>
        <time>2013-09-14T11:58:47.000Z</time>
      </trkpt>
      <trkpt lat="44.74702" lon="5.59466">
        <ele>1396</ele>
        <time>2013-09-14T11:58:49.000Z</time>
      </trkpt>
      <trkpt lat="44.74705" lon="5.59459">
        <ele>1396</ele>
        <time>2013-09-14T11:58:51.000Z</time>
      </trkpt>
      <trkpt lat="44.74709" lon="5.59453">
        <ele>1397</ele>
        <time>2013-09-14T11:58:53.000Z</time>
      </trkpt>
      <trkpt lat="44.74711" lon="5.59444">
        <ele>1398</ele>
        <time>2013-09-14T11:58:55.000Z</time>
      </trkpt>
      <trkpt lat="44.74714" lon="5.59436">
        <ele>1398</ele>
        <time>2013-09-14T11:58:57.000Z</time>
      </trkpt>
      <trkpt lat="44.74715" lon="5.59425">
        <ele>1399</ele>
        <time>2013-09-14T11:58:59.000Z</time>
      </trkpt>
      <trkpt lat="44.74715" lon="5.59414">
        <ele>1400</ele>
        <time>2013-09-14T11:59:01.000Z</time>
      </trkpt>
      <trkpt lat="44.74715" lon="5.59404">
        <ele>1400</ele>
        <time>2013-09-14T11:59:03.000Z</time>
      </trkpt>
      <trkpt lat="44.74716" lon="5.59393">
        <ele>1400</ele>
        <time>2013-09-14T11:59:05.000Z</time>
      </trkpt>
      <trkpt lat="44.74717" lon="5.59386">
        <ele>1400</ele>
        <time>2013-09-14T11:59:07.000Z</time>
      </trkpt>
      <trkpt lat="44.7472" lon="5.59378">
        <ele>1400</ele>
        <time>2013-09-14T11:59:09.000Z</time>
      </trkpt>
      <trkpt lat="44.74721" lon="5.59371">
        <ele>1400</ele>
        <time>2013-09-14T11:59:11.000Z</time>
      </trkpt>
      <trkpt lat="44.74725" lon="5.59367">
        <ele>1396</ele>
        <time>2013-09-14T11:59:33.000Z</time>
      </trkpt>
      <trkpt lat="44.74725" lon="5.59367">
        <ele>1396</ele>
        <time>2013-09-14T11:59:33.000Z</time>
      </trkpt>
      <trkpt lat="44.74725" lon="5.59367">
        <ele>1395</ele>
        <time>2013-09-14T11:59:35.000Z</time>
      </trkpt>
      <trkpt lat="44.7473" lon="5.59367">
        <ele>1392</ele>
        <time>2013-09-14T11:59:51.000Z</time>
      </trkpt>
      <trkpt lat="44.74735" lon="5.59369">
        <ele>1392</ele>
        <time>2013-09-14T11:59:58.000Z</time>
      </trkpt>
      <trkpt lat="44.74735" lon="5.59369">
        <ele>1392</ele>
        <time>2013-09-14T11:59:58.000Z</time>
      </trkpt>
      <trkpt lat="44.74735" lon="5.59369">
        <ele>1392</ele>
        <time>2013-09-14T11:59:59.000Z</time>
      </trkpt>
      <trkpt lat="44.7474" lon="5.59367">
        <ele>1391</ele>
        <time>2013-09-14T12:00:03.000Z</time>
      </trkpt>
      <trkpt lat="44.7474" lon="5.59367">
        <ele>1391</ele>
        <time>2013-09-14T12:00:03.000Z</time>
      </trkpt>
      <trkpt lat="44.7474" lon="5.59367">
        <ele>1391</ele>
        <time>2013-09-14T12:00:04.000Z</time>
      </trkpt>
      <trkpt lat="44.74744" lon="5.59365">
        <ele>1390</ele>
        <time>2013-09-14T12:00:10.000Z</time>
      </trkpt>
      <trkpt lat="44.74744" lon="5.59365">
        <ele>1390</ele>
        <time>2013-09-14T12:00:10.000Z</time>
      </trkpt>
      <trkpt lat="44.74744" lon="5.59365">
        <ele>1390</ele>
        <time>2013-09-14T12:00:11.000Z</time>
      </trkpt>
      <trkpt lat="44.74749" lon="5.59363">
        <ele>1388</ele>
        <time>2013-09-14T12:00:16.000Z</time>
      </trkpt>
      <trkpt lat="44.74753" lon="5.59361">
        <ele>1387</ele>
        <time>2013-09-14T12:00:21.000Z</time>
      </trkpt>
      <trkpt lat="44.74757" lon="5.59354">
        <ele>1385</ele>
        <time>2013-09-14T12:00:26.000Z</time>
      </trkpt>
      <trkpt lat="44.74761" lon="5.59352">
        <ele>1383</ele>
        <time>2013-09-14T12:00:31.000Z</time>
      </trkpt>
      <trkpt lat="44.74761" lon="5.59352">
        <ele>1383</ele>
        <time>2013-09-14T12:00:31.000Z</time>
      </trkpt>
      <trkpt lat="44.74761" lon="5.59352">
        <ele>1382</ele>
        <time>2013-09-14T12:00:32.000Z</time>
      </trkpt>
      <trkpt lat="44.74768" lon="5.59352">
        <ele>1376</ele>
        <time>2013-09-14T12:00:40.000Z</time>
      </trkpt>
      <trkpt lat="44.74774" lon="5.59352">
        <ele>1373</ele>
        <time>2013-09-14T12:00:43.000Z</time>
      </trkpt>
      <trkpt lat="44.7478" lon="5.59352">
        <ele>1370</ele>
        <time>2013-09-14T12:00:46.000Z</time>
      </trkpt>
      <trkpt lat="44.74785" lon="5.59352">
        <ele>1366</ele>
        <time>2013-09-14T12:00:49.000Z</time>
      </trkpt>
      <trkpt lat="44.7479" lon="5.59352">
        <ele>1361</ele>
        <time>2013-09-14T12:00:53.000Z</time>
      </trkpt>
      <trkpt lat="44.74795" lon="5.5935">
        <ele>1357</ele>
        <time>2013-09-14T12:00:57.000Z</time>
      </trkpt>
      <trkpt lat="44.74799" lon="5.59348">
        <ele>1351</ele>
        <time>2013-09-14T12:01:02.000Z</time>
      </trkpt>
      <trkpt lat="44.74803" lon="5.59341">
        <ele>1346</ele>
        <time>2013-09-14T12:01:07.000Z</time>
      </trkpt>
      <trkpt lat="44.74805" lon="5.59335">
        <ele>1342</ele>
        <time>2013-09-14T12:01:11.000Z</time>
      </trkpt>
      <trkpt lat="44.7481" lon="5.59333">
        <ele>1337</ele>
        <time>2013-09-14T12:01:20.000Z</time>
      </trkpt>
      <trkpt lat="44.7481" lon="5.59333">
        <ele>1337</ele>
        <time>2013-09-14T12:01:20.000Z</time>
      </trkpt>
      <trkpt lat="44.7481" lon="5.59333">
        <ele>1336</ele>
        <time>2013-09-14T12:01:22.000Z</time>
      </trkpt>
      <trkpt lat="44.74814" lon="5.59337">
        <ele>1333</ele>
        <time>2013-09-14T12:01:35.000Z</time>
      </trkpt>
      <trkpt lat="44.74818" lon="5.59335">
        <ele>1329</ele>
        <time>2013-09-14T12:01:59.000Z</time>
      </trkpt>
      <trkpt lat="44.74823" lon="5.59333">
        <ele>1327</ele>
        <time>2013-09-14T12:02:10.000Z</time>
      </trkpt>
      <trkpt lat="44.74823" lon="5.59333">
        <ele>1327</ele>
        <time>2013-09-14T12:02:10.000Z</time>
      </trkpt>
      <trkpt lat="44.74823" lon="5.59333">
        <ele>1327</ele>
        <time>2013-09-14T12:02:14.000Z</time>
      </trkpt>
      <trkpt lat="44.74826" lon="5.59339">
        <ele>1325</ele>
        <time>2013-09-14T12:02:31.000Z</time>
      </trkpt>
      <trkpt lat="44.74826" lon="5.59339">
        <ele>1325</ele>
        <time>2013-09-14T12:02:31.000Z</time>
      </trkpt>
      <trkpt lat="44.74826" lon="5.59339">
        <ele>1325</ele>
        <time>2013-09-14T12:02:33.000Z</time>
      </trkpt>
      <trkpt lat="44.7483" lon="5.59337">
        <ele>1321</ele>
        <time>2013-09-14T12:02:49.000Z</time>
      </trkpt>
      <trkpt lat="44.7483" lon="5.59337">
        <ele>1321</ele>
        <time>2013-09-14T12:02:49.000Z</time>
      </trkpt>
      <trkpt lat="44.7483" lon="5.59337">
        <ele>1321</ele>
        <time>2013-09-14T12:02:51.000Z</time>
      </trkpt>
      <trkpt lat="44.74834" lon="5.59339">
        <ele>1318</ele>
        <time>2013-09-14T12:03:12.000Z</time>
      </trkpt>
      <trkpt lat="44.74834" lon="5.59339">
        <ele>1318</ele>
        <time>2013-09-14T12:03:12.000Z</time>
      </trkpt>
      <trkpt lat="44.74834" lon="5.59339">
        <ele>1317</ele>
        <time>2013-09-14T12:03:25.000Z</time>
      </trkpt>
      <trkpt lat="44.74839" lon="5.59335">
        <ele>1316</ele>
        <time>2013-09-14T12:03:45.000Z</time>
      </trkpt>
      <trkpt lat="44.74839" lon="5.59335">
        <ele>1316</ele>
        <time>2013-09-14T12:03:45.000Z</time>
      </trkpt>
      <trkpt lat="44.74839" lon="5.59335">
        <ele>1316</ele>
        <time>2013-09-14T12:03:46.000Z</time>
      </trkpt>
      <trkpt lat="44.74844" lon="5.59337">
        <ele>1313</ele>
        <time>2013-09-14T12:04:35.000Z</time>
      </trkpt>
      <trkpt lat="44.74844" lon="5.59337">
        <ele>1313</ele>
        <time>2013-09-14T12:04:35.000Z</time>
      </trkpt>
      <trkpt lat="44.74844" lon="5.59337">
        <ele>1313</ele>
        <time>2013-09-14T12:04:38.000Z</time>
      </trkpt>
      <trkpt lat="44.74846" lon="5.59344">
        <ele>1308</ele>
        <time>2013-09-14T12:05:37.000Z</time>
      </trkpt>
      <trkpt lat="44.74846" lon="5.59344">
        <ele>1308</ele>
        <time>2013-09-14T12:05:37.000Z</time>
      </trkpt>
      <trkpt lat="44.74846" lon="5.59344">
        <ele>1308</ele>
        <time>2013-09-14T12:05:44.000Z</time>
      </trkpt>
      <trkpt lat="44.74849" lon="5.5935">
        <ele>1306</ele>
        <time>2013-09-14T12:06:14.000Z</time>
      </trkpt>
      <trkpt lat="44.74849" lon="5.5935">
        <ele>1306</ele>
        <time>2013-09-14T12:06:14.000Z</time>
      </trkpt>
      <trkpt lat="44.74849" lon="5.5935">
        <ele>1306</ele>
        <time>2013-09-14T12:06:24.000Z</time>
      </trkpt>
      <trkpt lat="44.74848" lon="5.59344">
        <ele>1305</ele>
        <time>2013-09-14T12:06:36.000Z</time>
      </trkpt>
      <trkpt lat="44.74848" lon="5.59344">
        <ele>1305</ele>
        <time>2013-09-14T12:06:36.000Z</time>
      </trkpt>
      <trkpt lat="44.74848" lon="5.59344">
        <ele>1305</ele>
        <time>2013-09-14T12:06:39.000Z</time>
      </trkpt>
      <trkpt lat="44.74846" lon="5.59337">
        <ele>1305</ele>
        <time>2013-09-14T12:06:48.000Z</time>
      </trkpt>
      <trkpt lat="44.74846" lon="5.59337">
        <ele>1305</ele>
        <time>2013-09-14T12:06:48.000Z</time>
      </trkpt>
      <trkpt lat="44.74846" lon="5.59337">
        <ele>1305</ele>
        <time>2013-09-14T12:06:51.000Z</time>
      </trkpt>
      <trkpt lat="44.74842" lon="5.59335">
        <ele>1304</ele>
        <time>2013-09-14T12:07:09.000Z</time>
      </trkpt>
      <trkpt lat="44.74845" lon="5.59339">
        <ele>1303</ele>
        <time>2013-09-14T12:07:36.000Z</time>
      </trkpt>
      <trkpt lat="44.74845" lon="5.59339">
        <ele>1303</ele>
        <time>2013-09-14T12:07:36.000Z</time>
      </trkpt>
      <trkpt lat="44.74845" lon="5.59339">
        <ele>1303</ele>
        <time>2013-09-14T12:07:38.000Z</time>
      </trkpt>
      <trkpt lat="44.74846" lon="5.59346">
        <ele>1302</ele>
        <time>2013-09-14T12:07:47.000Z</time>
      </trkpt>
      <trkpt lat="44.7485" lon="5.59348">
        <ele>1300</ele>
        <time>2013-09-14T12:08:55.000Z</time>
      </trkpt>
      <trkpt lat="44.7485" lon="5.59348">
        <ele>1300</ele>
        <time>2013-09-14T12:08:55.000Z</time>
      </trkpt>
      <trkpt lat="44.7485" lon="5.59348">
        <ele>1300</ele>
        <time>2013-09-14T12:08:56.000Z</time>
      </trkpt>
      <trkpt lat="44.74854" lon="5.59354">
        <ele>1299</ele>
        <time>2013-09-14T12:09:14.000Z</time>
      </trkpt>
      <trkpt lat="44.74853" lon="5.59361">
        <ele>1298</ele>
        <time>2013-09-14T12:09:20.000Z</time>
      </trkpt>
      <trkpt lat="44.74853" lon="5.59361">
        <ele>1298</ele>
        <time>2013-09-14T12:09:20.000Z</time>
      </trkpt>
      <trkpt lat="44.74853" lon="5.59361">
        <ele>1298</ele>
        <time>2013-09-14T12:09:22.000Z</time>
      </trkpt>
      <trkpt lat="44.74857" lon="5.59358">
        <ele>1297</ele>
        <time>2013-09-14T12:09:36.000Z</time>
      </trkpt>
      <trkpt lat="44.74857" lon="5.59358">
        <ele>1297</ele>
        <time>2013-09-14T12:09:36.000Z</time>
      </trkpt>
      <trkpt lat="44.74857" lon="5.59358">
        <ele>1297</ele>
        <time>2013-09-14T12:09:37.000Z</time>
      </trkpt>
      <trkpt lat="44.7486" lon="5.59352">
        <ele>1296</ele>
        <time>2013-09-14T12:10:12.000Z</time>
      </trkpt>
      <trkpt lat="44.7486" lon="5.59352">
        <ele>1296</ele>
        <time>2013-09-14T12:10:12.000Z</time>
      </trkpt>
      <trkpt lat="44.7486" lon="5.59352">
        <ele>1296</ele>
        <time>2013-09-14T12:10:20.000Z</time>
      </trkpt>
      <trkpt lat="44.74855" lon="5.59354">
        <ele>1294</ele>
        <time>2013-09-14T12:12:07.000Z</time>
      </trkpt>
      <trkpt lat="44.74855" lon="5.59354">
        <ele>1294</ele>
        <time>2013-09-14T12:12:07.000Z</time>
      </trkpt>
      <trkpt lat="44.74855" lon="5.59354">
        <ele>1293</ele>
        <time>2013-09-14T12:12:12.000Z</time>
      </trkpt>
      <trkpt lat="44.74854" lon="5.59361">
        <ele>1293</ele>
        <time>2013-09-14T12:12:24.000Z</time>
      </trkpt>
      <trkpt lat="44.74853" lon="5.59367">
        <ele>1293</ele>
        <time>2013-09-14T12:12:33.000Z</time>
      </trkpt>
      <trkpt lat="44.74853" lon="5.59367">
        <ele>1293</ele>
        <time>2013-09-14T12:12:33.000Z</time>
      </trkpt>
      <trkpt lat="44.74853" lon="5.59367">
        <ele>1292</ele>
        <time>2013-09-14T12:13:14.000Z</time>
      </trkpt>
      <trkpt lat="44.74854" lon="5.59374">
        <ele>1291</ele>
        <time>2013-09-14T12:13:37.000Z</time>
      </trkpt>
      <trkpt lat="44.74854" lon="5.59374">
        <ele>1291</ele>
        <time>2013-09-14T12:13:37.000Z</time>
      </trkpt>
      <trkpt lat="44.74854" lon="5.59374">
        <ele>1291</ele>
        <time>2013-09-14T12:13:46.000Z</time>
      </trkpt>
      <trkpt lat="44.74849" lon="5.5938">
        <ele>1289</ele>
        <time>2013-09-14T12:13:57.000Z</time>
      </trkpt>
      <trkpt lat="44.74849" lon="5.5938">
        <ele>1289</ele>
        <time>2013-09-14T12:13:57.000Z</time>
      </trkpt>
      <trkpt lat="44.74849" lon="5.5938">
        <ele>1289</ele>
        <time>2013-09-14T12:13:59.000Z</time>
      </trkpt>
      <trkpt lat="44.74847" lon="5.59386">
        <ele>1287</ele>
        <time>2013-09-14T12:14:11.000Z</time>
      </trkpt>
      <trkpt lat="44.74845" lon="5.5938">
        <ele>1285</ele>
        <time>2013-09-14T12:15:00.000Z</time>
      </trkpt>
      <trkpt lat="44.74845" lon="5.5938">
        <ele>1285</ele>
        <time>2013-09-14T12:15:00.000Z</time>
      </trkpt>
      <trkpt lat="44.74845" lon="5.5938">
        <ele>1285</ele>
        <time>2013-09-14T12:15:08.000Z</time>
      </trkpt>
      <trkpt lat="44.74849" lon="5.59382">
        <ele>1284</ele>
        <time>2013-09-14T12:15:28.000Z</time>
      </trkpt>
      <trkpt lat="44.74849" lon="5.59382">
        <ele>1284</ele>
        <time>2013-09-14T12:15:28.000Z</time>
      </trkpt>
      <trkpt lat="44.74849" lon="5.59382">
        <ele>1284</ele>
        <time>2013-09-14T12:15:30.000Z</time>
      </trkpt>
      <trkpt lat="44.74853" lon="5.59389">
        <ele>1283</ele>
        <time>2013-09-14T12:15:57.000Z</time>
      </trkpt>
      <trkpt lat="44.74853" lon="5.59389">
        <ele>1283</ele>
        <time>2013-09-14T12:15:57.000Z</time>
      </trkpt>
      <trkpt lat="44.74853" lon="5.59389">
        <ele>1283</ele>
        <time>2013-09-14T12:16:03.000Z</time>
      </trkpt>
      <trkpt lat="44.74856" lon="5.59393">
        <ele>1283</ele>
        <time>2013-09-14T12:16:20.000Z</time>
      </trkpt>
      <trkpt lat="44.74856" lon="5.59393">
        <ele>1283</ele>
        <time>2013-09-14T12:16:20.000Z</time>
      </trkpt>
      <trkpt lat="44.74856" lon="5.59393">
        <ele>1283</ele>
        <time>2013-09-14T12:16:21.000Z</time>
      </trkpt>
      <trkpt lat="44.74857" lon="5.59399">
        <ele>1283</ele>
        <time>2013-09-14T12:16:31.000Z</time>
      </trkpt>
      <trkpt lat="44.74857" lon="5.59399">
        <ele>1283</ele>
        <time>2013-09-14T12:16:31.000Z</time>
      </trkpt>
      <trkpt lat="44.74857" lon="5.59399">
        <ele>1283</ele>
        <time>2013-09-14T12:16:33.000Z</time>
      </trkpt>
      <trkpt lat="44.74858" lon="5.59406">
        <ele>1283</ele>
        <time>2013-09-14T12:16:40.000Z</time>
      </trkpt>
      <trkpt lat="44.74858" lon="5.59406">
        <ele>1283</ele>
        <time>2013-09-14T12:16:40.000Z</time>
      </trkpt>
      <trkpt lat="44.74858" lon="5.59406">
        <ele>1283</ele>
        <time>2013-09-14T12:16:41.000Z</time>
      </trkpt>
      <trkpt lat="44.7486" lon="5.59412">
        <ele>1283</ele>
        <time>2013-09-14T12:16:48.000Z</time>
      </trkpt>
      <trkpt lat="44.7486" lon="5.59412">
        <ele>1283</ele>
        <time>2013-09-14T12:16:48.000Z</time>
      </trkpt>
      <trkpt lat="44.7486" lon="5.59412">
        <ele>1283</ele>
        <time>2013-09-14T12:16:49.000Z</time>
      </trkpt>
      <trkpt lat="44.74863" lon="5.59416">
        <ele>1283</ele>
        <time>2013-09-14T12:16:57.000Z</time>
      </trkpt>
      <trkpt lat="44.74863" lon="5.59416">
        <ele>1283</ele>
        <time>2013-09-14T12:16:57.000Z</time>
      </trkpt>
      <trkpt lat="44.74863" lon="5.59416">
        <ele>1283</ele>
        <time>2013-09-14T12:16:58.000Z</time>
      </trkpt>
      <trkpt lat="44.74864" lon="5.59423">
        <ele>1283</ele>
        <time>2013-09-14T12:17:13.000Z</time>
      </trkpt>
      <trkpt lat="44.74864" lon="5.59423">
        <ele>1283</ele>
        <time>2013-09-14T12:17:13.000Z</time>
      </trkpt>
      <trkpt lat="44.74864" lon="5.59423">
        <ele>1283</ele>
        <time>2013-09-14T12:17:15.000Z</time>
      </trkpt>
      <trkpt lat="44.74863" lon="5.59429">
        <ele>1283</ele>
        <time>2013-09-14T12:17:21.000Z</time>
      </trkpt>
      <trkpt lat="44.74863" lon="5.59429">
        <ele>1283</ele>
        <time>2013-09-14T12:17:21.000Z</time>
      </trkpt>
      <trkpt lat="44.74863" lon="5.59429">
        <ele>1283</ele>
        <time>2013-09-14T12:17:22.000Z</time>
      </trkpt>
      <trkpt lat="44.74863" lon="5.59436">
        <ele>1282</ele>
        <time>2013-09-14T12:17:28.000Z</time>
      </trkpt>
      <trkpt lat="44.74863" lon="5.59436">
        <ele>1282</ele>
        <time>2013-09-14T12:17:28.000Z</time>
      </trkpt>
      <trkpt lat="44.74863" lon="5.59436">
        <ele>1282</ele>
        <time>2013-09-14T12:17:29.000Z</time>
      </trkpt>
      <trkpt lat="44.74863" lon="5.59442">
        <ele>1282</ele>
        <time>2013-09-14T12:17:37.000Z</time>
      </trkpt>
      <trkpt lat="44.74863" lon="5.59442">
        <ele>1282</ele>
        <time>2013-09-14T12:17:37.000Z</time>
      </trkpt>
      <trkpt lat="44.74863" lon="5.59442">
        <ele>1282</ele>
        <time>2013-09-14T12:17:38.000Z</time>
      </trkpt>
      <trkpt lat="44.74859" lon="5.59444">
        <ele>1283</ele>
        <time>2013-09-14T12:17:46.000Z</time>
      </trkpt>
      <trkpt lat="44.74859" lon="5.59444">
        <ele>1283</ele>
        <time>2013-09-14T12:17:46.000Z</time>
      </trkpt>
      <trkpt lat="44.74859" lon="5.59444">
        <ele>1283</ele>
        <time>2013-09-14T12:17:48.000Z</time>
      </trkpt>
      <trkpt lat="44.74859" lon="5.59438">
        <ele>1283</ele>
        <time>2013-09-14T12:18:10.000Z</time>
      </trkpt>
      <trkpt lat="44.74859" lon="5.59438">
        <ele>1283</ele>
        <time>2013-09-14T12:18:10.000Z</time>
      </trkpt>
      <trkpt lat="44.74859" lon="5.59438">
        <ele>1283</ele>
        <time>2013-09-14T12:18:11.000Z</time>
      </trkpt>
      <trkpt lat="44.74864" lon="5.59438">
        <ele>1283</ele>
        <time>2013-09-14T12:18:23.000Z</time>
      </trkpt>
      <trkpt lat="44.74864" lon="5.59438">
        <ele>1283</ele>
        <time>2013-09-14T12:18:23.000Z</time>
      </trkpt>
      <trkpt lat="44.74864" lon="5.59438">
        <ele>1283</ele>
        <time>2013-09-14T12:18:27.000Z</time>
      </trkpt>
      <trkpt lat="44.7486" lon="5.5944">
        <ele>1284</ele>
        <time>2013-09-14T12:18:34.000Z</time>
      </trkpt>
      <trkpt lat="44.7486" lon="5.5944">
        <ele>1284</ele>
        <time>2013-09-14T12:18:34.000Z</time>
      </trkpt>
      <trkpt lat="44.7486" lon="5.5944">
        <ele>1284</ele>
        <time>2013-09-14T12:18:35.000Z</time>
      </trkpt>
      <trkpt lat="44.74856" lon="5.59444">
        <ele>1284</ele>
        <time>2013-09-14T12:18:43.000Z</time>
      </trkpt>
      <trkpt lat="44.74856" lon="5.59444">
        <ele>1284</ele>
        <time>2013-09-14T12:18:43.000Z</time>
      </trkpt>
      <trkpt lat="44.74856" lon="5.59444">
        <ele>1284</ele>
        <time>2013-09-14T12:18:44.000Z</time>
      </trkpt>
      <trkpt lat="44.74852" lon="5.5944">
        <ele>1284</ele>
        <time>2013-09-14T12:18:52.000Z</time>
      </trkpt>
      <trkpt lat="44.74852" lon="5.5944">
        <ele>1284</ele>
        <time>2013-09-14T12:18:52.000Z</time>
      </trkpt>
      <trkpt lat="44.74852" lon="5.5944">
        <ele>1284</ele>
        <time>2013-09-14T12:18:53.000Z</time>
      </trkpt>
      <trkpt lat="44.74856" lon="5.59436">
        <ele>1285</ele>
        <time>2013-09-14T12:19:47.000Z</time>
      </trkpt>
      <trkpt lat="44.74856" lon="5.59436">
        <ele>1285</ele>
        <time>2013-09-14T12:19:47.000Z</time>
      </trkpt>
      <trkpt lat="44.74856" lon="5.59436">
        <ele>1285</ele>
        <time>2013-09-14T12:19:49.000Z</time>
      </trkpt>
      <trkpt lat="44.7486" lon="5.59434">
        <ele>1285</ele>
        <time>2013-09-14T12:19:59.000Z</time>
      </trkpt>
      <trkpt lat="44.7486" lon="5.59434">
        <ele>1285</ele>
        <time>2013-09-14T12:19:59.000Z</time>
      </trkpt>
      <trkpt lat="44.7486" lon="5.59434">
        <ele>1286</ele>
        <time>2013-09-14T12:20:01.000Z</time>
      </trkpt>
      <trkpt lat="44.74866" lon="5.59434">
        <ele>1286</ele>
        <time>2013-09-14T12:20:22.000Z</time>
      </trkpt>
      <trkpt lat="44.74866" lon="5.59434">
        <ele>1286</ele>
        <time>2013-09-14T12:20:22.000Z</time>
      </trkpt>
      <trkpt lat="44.74866" lon="5.59434">
        <ele>1286</ele>
        <time>2013-09-14T12:20:28.000Z</time>
      </trkpt>
      <trkpt lat="44.74869" lon="5.59438">
        <ele>1287</ele>
        <time>2013-09-14T12:20:47.000Z</time>
      </trkpt>
      <trkpt lat="44.74869" lon="5.59438">
        <ele>1287</ele>
        <time>2013-09-14T12:20:47.000Z</time>
      </trkpt>
      <trkpt lat="44.74869" lon="5.59438">
        <ele>1287</ele>
        <time>2013-09-14T12:20:48.000Z</time>
      </trkpt>
      <trkpt lat="44.74871" lon="5.59444">
        <ele>1287</ele>
        <time>2013-09-14T12:20:56.000Z</time>
      </trkpt>
      <trkpt lat="44.74871" lon="5.59444">
        <ele>1287</ele>
        <time>2013-09-14T12:20:56.000Z</time>
      </trkpt>
      <trkpt lat="44.74871" lon="5.59444">
        <ele>1287</ele>
        <time>2013-09-14T12:20:59.000Z</time>
      </trkpt>
      <trkpt lat="44.74873" lon="5.59451">
        <ele>1288</ele>
        <time>2013-09-14T12:21:07.000Z</time>
      </trkpt>
      <trkpt lat="44.74873" lon="5.59451">
        <ele>1288</ele>
        <time>2013-09-14T12:21:07.000Z</time>
      </trkpt>
      <trkpt lat="44.74873" lon="5.59451">
        <ele>1288</ele>
        <time>2013-09-14T12:21:10.000Z</time>
      </trkpt>
      <trkpt lat="44.74877" lon="5.59453">
        <ele>1288</ele>
        <time>2013-09-14T12:21:30.000Z</time>
      </trkpt>
      <trkpt lat="44.74877" lon="5.59453">
        <ele>1288</ele>
        <time>2013-09-14T12:21:30.000Z</time>
      </trkpt>
      <trkpt lat="44.74877" lon="5.59453">
        <ele>1288</ele>
        <time>2013-09-14T12:21:35.000Z</time>
      </trkpt>
      <trkpt lat="44.74873" lon="5.59455">
        <ele>1288</ele>
        <time>2013-09-14T12:21:42.000Z</time>
      </trkpt>
      <trkpt lat="44.74873" lon="5.59455">
        <ele>1288</ele>
        <time>2013-09-14T12:21:42.000Z</time>
      </trkpt>
      <trkpt lat="44.74873" lon="5.59455">
        <ele>1288</ele>
        <time>2013-09-14T12:21:44.000Z</time>
      </trkpt>
      <trkpt lat="44.74869" lon="5.59451">
        <ele>1289</ele>
        <time>2013-09-14T12:22:04.000Z</time>
      </trkpt>
      <trkpt lat="44.74869" lon="5.59451">
        <ele>1289</ele>
        <time>2013-09-14T12:22:04.000Z</time>
      </trkpt>
      <trkpt lat="44.74869" lon="5.59451">
        <ele>1289</ele>
        <time>2013-09-14T12:22:10.000Z</time>
      </trkpt>
      <trkpt lat="44.74863" lon="5.59449">
        <ele>1289</ele>
        <time>2013-09-14T12:22:19.000Z</time>
      </trkpt>
      <trkpt lat="44.74858" lon="5.59446">
        <ele>1289</ele>
        <time>2013-09-14T12:22:26.000Z</time>
      </trkpt>
      <trkpt lat="44.74858" lon="5.59446">
        <ele>1289</ele>
        <time>2013-09-14T12:22:26.000Z</time>
      </trkpt>
      <trkpt lat="44.74858" lon="5.59446">
        <ele>1289</ele>
        <time>2013-09-14T12:22:27.000Z</time>
      </trkpt>
      <trkpt lat="44.74853" lon="5.59446">
        <ele>1290</ele>
        <time>2013-09-14T12:22:38.000Z</time>
      </trkpt>
      <trkpt lat="44.74853" lon="5.59446">
        <ele>1290</ele>
        <time>2013-09-14T12:22:38.000Z</time>
      </trkpt>
      <trkpt lat="44.74853" lon="5.59446">
        <ele>1290</ele>
        <time>2013-09-14T12:22:40.000Z</time>
      </trkpt>
      <trkpt lat="44.74847" lon="5.59451">
        <ele>1290</ele>
        <time>2013-09-14T12:22:54.000Z</time>
      </trkpt>
      <trkpt lat="44.74847" lon="5.59451">
        <ele>1290</ele>
        <time>2013-09-14T12:22:54.000Z</time>
      </trkpt>
      <trkpt lat="44.74847" lon="5.59451">
        <ele>1291</ele>
        <time>2013-09-14T12:22:55.000Z</time>
      </trkpt>
      <trkpt lat="44.74844" lon="5.59457">
        <ele>1294</ele>
        <time>2013-09-14T12:23:01.000Z</time>
      </trkpt>
      <trkpt lat="44.74844" lon="5.59457">
        <ele>1294</ele>
        <time>2013-09-14T12:23:01.000Z</time>
      </trkpt>
      <trkpt lat="44.74844" lon="5.59457">
        <ele>1294</ele>
        <time>2013-09-14T12:23:03.000Z</time>
      </trkpt>
      <trkpt lat="44.7484" lon="5.59462">
        <ele>1298</ele>
        <time>2013-09-14T12:23:13.000Z</time>
      </trkpt>
      <trkpt lat="44.7484" lon="5.59462">
        <ele>1298</ele>
        <time>2013-09-14T12:23:13.000Z</time>
      </trkpt>
      <trkpt lat="44.7484" lon="5.59462">
        <ele>1299</ele>
        <time>2013-09-14T12:23:15.000Z</time>
      </trkpt>
      <trkpt lat="44.74839" lon="5.59468">
        <ele>1300</ele>
        <time>2013-09-14T12:23:44.000Z</time>
      </trkpt>
      <trkpt lat="44.74839" lon="5.59468">
        <ele>1300</ele>
        <time>2013-09-14T12:23:44.000Z</time>
      </trkpt>
      <trkpt lat="44.74839" lon="5.59468">
        <ele>1300</ele>
        <time>2013-09-14T12:23:47.000Z</time>
      </trkpt>
      <trkpt lat="44.7484" lon="5.59474">
        <ele>1301</ele>
        <time>2013-09-14T12:23:56.000Z</time>
      </trkpt>
      <trkpt lat="44.7484" lon="5.59474">
        <ele>1301</ele>
        <time>2013-09-14T12:23:56.000Z</time>
      </trkpt>
      <trkpt lat="44.7484" lon="5.59474">
        <ele>1301</ele>
        <time>2013-09-14T12:23:59.000Z</time>
      </trkpt>
      <trkpt lat="44.7484" lon="5.59481">
        <ele>1301</ele>
        <time>2013-09-14T12:24:04.000Z</time>
      </trkpt>
      <trkpt lat="44.7484" lon="5.59481">
        <ele>1301</ele>
        <time>2013-09-14T12:24:04.000Z</time>
      </trkpt>
      <trkpt lat="44.7484" lon="5.59481">
        <ele>1301</ele>
        <time>2013-09-14T12:24:05.000Z</time>
      </trkpt>
      <trkpt lat="44.74842" lon="5.59487">
        <ele>1301</ele>
        <time>2013-09-14T12:24:10.000Z</time>
      </trkpt>
      <trkpt lat="44.74842" lon="5.59487">
        <ele>1301</ele>
        <time>2013-09-14T12:24:10.000Z</time>
      </trkpt>
      <trkpt lat="44.74842" lon="5.59487">
        <ele>1301</ele>
        <time>2013-09-14T12:24:11.000Z</time>
      </trkpt>
      <trkpt lat="44.74844" lon="5.59494">
        <ele>1301</ele>
        <time>2013-09-14T12:24:17.000Z</time>
      </trkpt>
      <trkpt lat="44.74844" lon="5.59494">
        <ele>1301</ele>
        <time>2013-09-14T12:24:17.000Z</time>
      </trkpt>
      <trkpt lat="44.74844" lon="5.59494">
        <ele>1301</ele>
        <time>2013-09-14T12:24:18.000Z</time>
      </trkpt>
      <trkpt lat="44.74847" lon="5.595">
        <ele>1301</ele>
        <time>2013-09-14T12:24:24.000Z</time>
      </trkpt>
      <trkpt lat="44.74847" lon="5.595">
        <ele>1301</ele>
        <time>2013-09-14T12:24:24.000Z</time>
      </trkpt>
      <trkpt lat="44.74847" lon="5.595">
        <ele>1301</ele>
        <time>2013-09-14T12:24:26.000Z</time>
      </trkpt>
      <trkpt lat="44.7485" lon="5.59507">
        <ele>1303</ele>
        <time>2013-09-14T12:24:31.000Z</time>
      </trkpt>
      <trkpt lat="44.7485" lon="5.59507">
        <ele>1303</ele>
        <time>2013-09-14T12:24:31.000Z</time>
      </trkpt>
      <trkpt lat="44.7485" lon="5.59507">
        <ele>1303</ele>
        <time>2013-09-14T12:24:32.000Z</time>
      </trkpt>
      <trkpt lat="44.74855" lon="5.59513">
        <ele>1305</ele>
        <time>2013-09-14T12:24:38.000Z</time>
      </trkpt>
      <trkpt lat="44.74855" lon="5.59513">
        <ele>1305</ele>
        <time>2013-09-14T12:24:38.000Z</time>
      </trkpt>
      <trkpt lat="44.74855" lon="5.59513">
        <ele>1305</ele>
        <time>2013-09-14T12:24:39.000Z</time>
      </trkpt>
      <trkpt lat="44.74858" lon="5.5952">
        <ele>1306</ele>
        <time>2013-09-14T12:24:43.000Z</time>
      </trkpt>
      <trkpt lat="44.74858" lon="5.5952">
        <ele>1306</ele>
        <time>2013-09-14T12:24:43.000Z</time>
      </trkpt>
      <trkpt lat="44.74858" lon="5.5952">
        <ele>1306</ele>
        <time>2013-09-14T12:24:44.000Z</time>
      </trkpt>
      <trkpt lat="44.7486" lon="5.59526">
        <ele>1307</ele>
        <time>2013-09-14T12:24:48.000Z</time>
      </trkpt>
      <trkpt lat="44.7486" lon="5.59526">
        <ele>1307</ele>
        <time>2013-09-14T12:24:48.000Z</time>
      </trkpt>
      <trkpt lat="44.7486" lon="5.59526">
        <ele>1308</ele>
        <time>2013-09-14T12:24:49.000Z</time>
      </trkpt>
      <trkpt lat="44.74862" lon="5.59532">
        <ele>1309</ele>
        <time>2013-09-14T12:24:52.000Z</time>
      </trkpt>
      <trkpt lat="44.74866" lon="5.59539">
        <ele>1310</ele>
        <time>2013-09-14T12:24:56.000Z</time>
      </trkpt>
      <trkpt lat="44.74869" lon="5.59545">
        <ele>1310</ele>
        <time>2013-09-14T12:25:00.000Z</time>
      </trkpt>
      <trkpt lat="44.7487" lon="5.59552">
        <ele>1311</ele>
        <time>2013-09-14T12:25:03.000Z</time>
      </trkpt>
      <trkpt lat="44.74873" lon="5.59558">
        <ele>1312</ele>
        <time>2013-09-14T12:25:07.000Z</time>
      </trkpt>
      <trkpt lat="44.74874" lon="5.59564">
        <ele>1312</ele>
        <time>2013-09-14T12:25:10.000Z</time>
      </trkpt>
      <trkpt lat="44.74877" lon="5.59569">
        <ele>1313</ele>
        <time>2013-09-14T12:25:13.000Z</time>
      </trkpt>
      <trkpt lat="44.74877" lon="5.59569">
        <ele>1313</ele>
        <time>2013-09-14T12:25:13.000Z</time>
      </trkpt>
      <trkpt lat="44.74877" lon="5.59569">
        <ele>1313</ele>
        <time>2013-09-14T12:25:14.000Z</time>
      </trkpt>
      <trkpt lat="44.74878" lon="5.59575">
        <ele>1313</ele>
        <time>2013-09-14T12:25:17.000Z</time>
      </trkpt>
      <trkpt lat="44.74882" lon="5.59582">
        <ele>1313</ele>
        <time>2013-09-14T12:25:21.000Z</time>
      </trkpt>
      <trkpt lat="44.74885" lon="5.59586">
        <ele>1314</ele>
        <time>2013-09-14T12:25:24.000Z</time>
      </trkpt>
      <trkpt lat="44.74887" lon="5.59592">
        <ele>1314</ele>
        <time>2013-09-14T12:25:27.000Z</time>
      </trkpt>
      <trkpt lat="44.74888" lon="5.59599">
        <ele>1315</ele>
        <time>2013-09-14T12:25:29.000Z</time>
      </trkpt>
      <trkpt lat="44.7489" lon="5.59608">
        <ele>1315</ele>
        <time>2013-09-14T12:25:32.000Z</time>
      </trkpt>
      <trkpt lat="44.74892" lon="5.59614">
        <ele>1315</ele>
        <time>2013-09-14T12:25:35.000Z</time>
      </trkpt>
      <trkpt lat="44.74894" lon="5.5962">
        <ele>1315</ele>
        <time>2013-09-14T12:25:40.000Z</time>
      </trkpt>
      <trkpt lat="44.74894" lon="5.59627">
        <ele>1315</ele>
        <time>2013-09-14T12:25:44.000Z</time>
      </trkpt>
      <trkpt lat="44.74894" lon="5.59633">
        <ele>1315</ele>
        <time>2013-09-14T12:25:48.000Z</time>
      </trkpt>
      <trkpt lat="44.74896" lon="5.5964">
        <ele>1315</ele>
        <time>2013-09-14T12:25:52.000Z</time>
      </trkpt>
      <trkpt lat="44.74898" lon="5.59646">
        <ele>1315</ele>
        <time>2013-09-14T12:25:58.000Z</time>
      </trkpt>
      <trkpt lat="44.74898" lon="5.59646">
        <ele>1315</ele>
        <time>2013-09-14T12:25:58.000Z</time>
      </trkpt>
      <trkpt lat="44.74898" lon="5.59646">
        <ele>1315</ele>
        <time>2013-09-14T12:26:00.000Z</time>
      </trkpt>
      <trkpt lat="44.74901" lon="5.59652">
        <ele>1316</ele>
        <time>2013-09-14T12:26:15.000Z</time>
      </trkpt>
      <trkpt lat="44.74901" lon="5.59652">
        <ele>1316</ele>
        <time>2013-09-14T12:26:15.000Z</time>
      </trkpt>
      <trkpt lat="44.74901" lon="5.59652">
        <ele>1316</ele>
        <time>2013-09-14T12:26:16.000Z</time>
      </trkpt>
      <trkpt lat="44.74902" lon="5.59659">
        <ele>1317</ele>
        <time>2013-09-14T12:26:19.000Z</time>
      </trkpt>
      <trkpt lat="44.74904" lon="5.59665">
        <ele>1318</ele>
        <time>2013-09-14T12:26:23.000Z</time>
      </trkpt>
      <trkpt lat="44.74904" lon="5.59665">
        <ele>1318</ele>
        <time>2013-09-14T12:26:23.000Z</time>
      </trkpt>
      <trkpt lat="44.74904" lon="5.59665">
        <ele>1318</ele>
        <time>2013-09-14T12:26:24.000Z</time>
      </trkpt>
      <trkpt lat="44.74906" lon="5.59672">
        <ele>1319</ele>
        <time>2013-09-14T12:26:28.000Z</time>
      </trkpt>
      <trkpt lat="44.74906" lon="5.59672">
        <ele>1319</ele>
        <time>2013-09-14T12:26:28.000Z</time>
      </trkpt>
      <trkpt lat="44.74906" lon="5.59672">
        <ele>1319</ele>
        <time>2013-09-14T12:26:29.000Z</time>
      </trkpt>
      <trkpt lat="44.74907" lon="5.59678">
        <ele>1320</ele>
        <time>2013-09-14T12:26:33.000Z</time>
      </trkpt>
      <trkpt lat="44.74911" lon="5.59685">
        <ele>1321</ele>
        <time>2013-09-14T12:26:38.000Z</time>
      </trkpt>
      <trkpt lat="44.74913" lon="5.59691">
        <ele>1321</ele>
        <time>2013-09-14T12:26:42.000Z</time>
      </trkpt>
      <trkpt lat="44.74916" lon="5.59698">
        <ele>1322</ele>
        <time>2013-09-14T12:26:46.000Z</time>
      </trkpt>
      <trkpt lat="44.74916" lon="5.59698">
        <ele>1322</ele>
        <time>2013-09-14T12:26:46.000Z</time>
      </trkpt>
      <trkpt lat="44.74916" lon="5.59698">
        <ele>1322</ele>
        <time>2013-09-14T12:26:47.000Z</time>
      </trkpt>
      <trkpt lat="44.74917" lon="5.59704">
        <ele>1322</ele>
        <time>2013-09-14T12:26:52.000Z</time>
      </trkpt>
      <trkpt lat="44.74917" lon="5.59704">
        <ele>1322</ele>
        <time>2013-09-14T12:26:52.000Z</time>
      </trkpt>
      <trkpt lat="44.74917" lon="5.59704">
        <ele>1322</ele>
        <time>2013-09-14T12:26:53.000Z</time>
      </trkpt>
      <trkpt lat="44.74914" lon="5.5971">
        <ele>1323</ele>
        <time>2013-09-14T12:27:32.000Z</time>
      </trkpt>
      <trkpt lat="44.74917" lon="5.59717">
        <ele>1324</ele>
        <time>2013-09-14T12:27:38.000Z</time>
      </trkpt>
      <trkpt lat="44.7492" lon="5.59723">
        <ele>1324</ele>
        <time>2013-09-14T12:27:44.000Z</time>
      </trkpt>
      <trkpt lat="44.74923" lon="5.59728">
        <ele>1325</ele>
        <time>2013-09-14T12:27:48.000Z</time>
      </trkpt>
      <trkpt lat="44.74927" lon="5.59734">
        <ele>1325</ele>
        <time>2013-09-14T12:27:52.000Z</time>
      </trkpt>
      <trkpt lat="44.74927" lon="5.59734">
        <ele>1325</ele>
        <time>2013-09-14T12:27:52.000Z</time>
      </trkpt>
      <trkpt lat="44.74927" lon="5.59734">
        <ele>1325</ele>
        <time>2013-09-14T12:27:53.000Z</time>
      </trkpt>
      <trkpt lat="44.74931" lon="5.59738">
        <ele>1326</ele>
        <time>2013-09-14T12:27:57.000Z</time>
      </trkpt>
      <trkpt lat="44.74935" lon="5.5974">
        <ele>1326</ele>
        <time>2013-09-14T12:28:02.000Z</time>
      </trkpt>
      <trkpt lat="44.7494" lon="5.59745">
        <ele>1327</ele>
        <time>2013-09-14T12:28:06.000Z</time>
      </trkpt>
      <trkpt lat="44.74944" lon="5.59747">
        <ele>1328</ele>
        <time>2013-09-14T12:28:11.000Z</time>
      </trkpt>
      <trkpt lat="44.74948" lon="5.59749">
        <ele>1328</ele>
        <time>2013-09-14T12:28:15.000Z</time>
      </trkpt>
      <trkpt lat="44.74952" lon="5.59747">
        <ele>1329</ele>
        <time>2013-09-14T12:28:28.000Z</time>
      </trkpt>
      <trkpt lat="44.74952" lon="5.59747">
        <ele>1329</ele>
        <time>2013-09-14T12:28:28.000Z</time>
      </trkpt>
      <trkpt lat="44.74952" lon="5.59747">
        <ele>1331</ele>
        <time>2013-09-14T12:34:33.000Z</time>
      </trkpt>
      <trkpt lat="44.74948" lon="5.59749">
        <ele>1332</ele>
        <time>2013-09-14T12:35:51.000Z</time>
      </trkpt>
      <trkpt lat="44.74948" lon="5.59749">
        <ele>1332</ele>
        <time>2013-09-14T12:35:51.000Z</time>
      </trkpt>
      <trkpt lat="44.74948" lon="5.59749">
        <ele>1333</ele>
        <time>2013-09-14T12:38:10.000Z</time>
      </trkpt>
      <trkpt lat="44.74944" lon="5.59745">
        <ele>1334</ele>
        <time>2013-09-14T12:39:43.000Z</time>
      </trkpt>
      <trkpt lat="44.74944" lon="5.59745">
        <ele>1334</ele>
        <time>2013-09-14T12:39:43.000Z</time>
      </trkpt>
      <trkpt lat="44.74944" lon="5.59745">
        <ele>1335</ele>
        <time>2013-09-14T12:41:21.000Z</time>
      </trkpt>
      <trkpt lat="44.74947" lon="5.59749">
        <ele>1335</ele>
        <time>2013-09-14T12:41:30.000Z</time>
      </trkpt>
      <trkpt lat="44.74947" lon="5.59749">
        <ele>1335</ele>
        <time>2013-09-14T12:41:30.000Z</time>
      </trkpt>
      <trkpt lat="44.74947" lon="5.59749">
        <ele>1336</ele>
        <time>2013-09-14T12:42:20.000Z</time>
      </trkpt>
      <trkpt lat="44.74951" lon="5.59751">
        <ele>1336</ele>
        <time>2013-09-14T12:42:32.000Z</time>
      </trkpt>
      <trkpt lat="44.74951" lon="5.59751">
        <ele>1336</ele>
        <time>2013-09-14T12:42:32.000Z</time>
      </trkpt>
      <trkpt lat="44.74951" lon="5.59751">
        <ele>1336</ele>
        <time>2013-09-14T12:42:37.000Z</time>
      </trkpt>
      <trkpt lat="44.74949" lon="5.59758">
        <ele>1336</ele>
        <time>2013-09-14T12:43:33.000Z</time>
      </trkpt>
      <trkpt lat="44.74949" lon="5.59758">
        <ele>1336</ele>
        <time>2013-09-14T12:43:33.000Z</time>
      </trkpt>
      <trkpt lat="44.74949" lon="5.59758">
        <ele>1336</ele>
        <time>2013-09-14T12:43:49.000Z</time>
      </trkpt>
      <trkpt lat="44.74946" lon="5.59751">
        <ele>1337</ele>
        <time>2013-09-14T12:44:07.000Z</time>
      </trkpt>
      <trkpt lat="44.74946" lon="5.59751">
        <ele>1337</ele>
        <time>2013-09-14T12:44:07.000Z</time>
      </trkpt>
      <trkpt lat="44.74946" lon="5.59751">
        <ele>1337</ele>
        <time>2013-09-14T12:46:38.000Z</time>
      </trkpt>
      <trkpt lat="44.74951" lon="5.59751">
        <ele>1336</ele>
        <time>2013-09-14T12:49:22.000Z</time>
      </trkpt>
      <trkpt lat="44.74956" lon="5.59749">
        <ele>1336</ele>
        <time>2013-09-14T12:49:38.000Z</time>
      </trkpt>
      <trkpt lat="44.74956" lon="5.59749">
        <ele>1336</ele>
        <time>2013-09-14T12:49:38.000Z</time>
      </trkpt>
      <trkpt lat="44.74956" lon="5.59749">
        <ele>1336</ele>
        <time>2013-09-14T12:49:43.000Z</time>
      </trkpt>
      <trkpt lat="44.74956" lon="5.59756">
        <ele>1335</ele>
        <time>2013-09-14T12:51:16.000Z</time>
      </trkpt>
      <trkpt lat="44.74956" lon="5.59756">
        <ele>1335</ele>
        <time>2013-09-14T12:51:16.000Z</time>
      </trkpt>
      <trkpt lat="44.74956" lon="5.59756">
        <ele>1335</ele>
        <time>2013-09-14T12:51:18.000Z</time>
      </trkpt>
      <trkpt lat="44.74958" lon="5.59749">
        <ele>1335</ele>
        <time>2013-09-14T12:51:36.000Z</time>
      </trkpt>
      <trkpt lat="44.74958" lon="5.59749">
        <ele>1335</ele>
        <time>2013-09-14T12:51:36.000Z</time>
      </trkpt>
      <trkpt lat="44.74958" lon="5.59749">
        <ele>1335</ele>
        <time>2013-09-14T12:51:40.000Z</time>
      </trkpt>
      <trkpt lat="44.74952" lon="5.59749">
        <ele>1335</ele>
        <time>2013-09-14T12:52:59.000Z</time>
      </trkpt>
      <trkpt lat="44.74952" lon="5.59749">
        <ele>1335</ele>
        <time>2013-09-14T12:52:59.000Z</time>
      </trkpt>
      <trkpt lat="44.74952" lon="5.59749">
        <ele>1335</ele>
        <time>2013-09-14T12:58:06.000Z</time>
      </trkpt>
      <trkpt lat="44.74957" lon="5.59753">
        <ele>1334</ele>
        <time>2013-09-14T12:58:28.000Z</time>
      </trkpt>
      <trkpt lat="44.74957" lon="5.59753">
        <ele>1334</ele>
        <time>2013-09-14T12:58:28.000Z</time>
      </trkpt>
      <trkpt lat="44.74957" lon="5.59753">
        <ele>1334</ele>
        <time>2013-09-14T12:58:38.000Z</time>
      </trkpt>
      <trkpt lat="44.7496" lon="5.5976">
        <ele>1334</ele>
        <time>2013-09-14T12:58:43.000Z</time>
      </trkpt>
      <trkpt lat="44.74963" lon="5.59764">
        <ele>1334</ele>
        <time>2013-09-14T12:58:49.000Z</time>
      </trkpt>
      <trkpt lat="44.74965" lon="5.5977">
        <ele>1334</ele>
        <time>2013-09-14T12:58:52.000Z</time>
      </trkpt>
      <trkpt lat="44.74968" lon="5.59775">
        <ele>1334</ele>
        <time>2013-09-14T12:59:00.000Z</time>
      </trkpt>
      <trkpt lat="44.74968" lon="5.59775">
        <ele>1334</ele>
        <time>2013-09-14T12:59:00.000Z</time>
      </trkpt>
      <trkpt lat="44.74968" lon="5.59775">
        <ele>1334</ele>
        <time>2013-09-14T12:59:03.000Z</time>
      </trkpt>
      <trkpt lat="44.74968" lon="5.59781">
        <ele>1334</ele>
        <time>2013-09-14T12:59:09.000Z</time>
      </trkpt>
      <trkpt lat="44.7497" lon="5.59788">
        <ele>1334</ele>
        <time>2013-09-14T12:59:13.000Z</time>
      </trkpt>
      <trkpt lat="44.74971" lon="5.59794">
        <ele>1334</ele>
        <time>2013-09-14T12:59:17.000Z</time>
      </trkpt>
      <trkpt lat="44.74973" lon="5.59801">
        <ele>1334</ele>
        <time>2013-09-14T12:59:21.000Z</time>
      </trkpt>
      <trkpt lat="44.74976" lon="5.59807">
        <ele>1334</ele>
        <time>2013-09-14T12:59:26.000Z</time>
      </trkpt>
      <trkpt lat="44.74979" lon="5.59811">
        <ele>1334</ele>
        <time>2013-09-14T12:59:30.000Z</time>
      </trkpt>
      <trkpt lat="44.74979" lon="5.59811">
        <ele>1334</ele>
        <time>2013-09-14T12:59:30.000Z</time>
      </trkpt>
      <trkpt lat="44.74979" lon="5.59811">
        <ele>1334</ele>
        <time>2013-09-14T12:59:31.000Z</time>
      </trkpt>
      <trkpt lat="44.74984" lon="5.59813">
        <ele>1335</ele>
        <time>2013-09-14T12:59:36.000Z</time>
      </trkpt>
      <trkpt lat="44.74987" lon="5.59818">
        <ele>1335</ele>
        <time>2013-09-14T12:59:40.000Z</time>
      </trkpt>
      <trkpt lat="44.74987" lon="5.59818">
        <ele>1335</ele>
        <time>2013-09-14T12:59:40.000Z</time>
      </trkpt>
      <trkpt lat="44.74987" lon="5.59818">
        <ele>1335</ele>
        <time>2013-09-14T12:59:41.000Z</time>
      </trkpt>
      <trkpt lat="44.74987" lon="5.59824">
        <ele>1336</ele>
        <time>2013-09-14T12:59:51.000Z</time>
      </trkpt>
      <trkpt lat="44.74987" lon="5.59824">
        <ele>1336</ele>
        <time>2013-09-14T12:59:51.000Z</time>
      </trkpt>
      <trkpt lat="44.74987" lon="5.59824">
        <ele>1336</ele>
        <time>2013-09-14T12:59:52.000Z</time>
      </trkpt>
      <trkpt lat="44.74987" lon="5.59831">
        <ele>1336</ele>
        <time>2013-09-14T12:59:58.000Z</time>
      </trkpt>
      <trkpt lat="44.74987" lon="5.59831">
        <ele>1336</ele>
        <time>2013-09-14T12:59:58.000Z</time>
      </trkpt>
      <trkpt lat="44.74987" lon="5.59831">
        <ele>1337</ele>
        <time>2013-09-14T12:59:59.000Z</time>
      </trkpt>
      <trkpt lat="44.74987" lon="5.59837">
        <ele>1337</ele>
        <time>2013-09-14T13:00:03.000Z</time>
      </trkpt>
      <trkpt lat="44.74988" lon="5.59844">
        <ele>1338</ele>
        <time>2013-09-14T13:00:08.000Z</time>
      </trkpt>
      <trkpt lat="44.74988" lon="5.59844">
        <ele>1338</ele>
        <time>2013-09-14T13:00:08.000Z</time>
      </trkpt>
      <trkpt lat="44.74988" lon="5.59844">
        <ele>1338</ele>
        <time>2013-09-14T13:00:09.000Z</time>
      </trkpt>
      <trkpt lat="44.74989" lon="5.5985">
        <ele>1338</ele>
        <time>2013-09-14T13:00:14.000Z</time>
      </trkpt>
      <trkpt lat="44.74989" lon="5.5985">
        <ele>1338</ele>
        <time>2013-09-14T13:00:14.000Z</time>
      </trkpt>
      <trkpt lat="44.74989" lon="5.5985">
        <ele>1338</ele>
        <time>2013-09-14T13:00:15.000Z</time>
      </trkpt>
      <trkpt lat="44.7499" lon="5.59856">
        <ele>1339</ele>
        <time>2013-09-14T13:00:19.000Z</time>
      </trkpt>
      <trkpt lat="44.7499" lon="5.59856">
        <ele>1339</ele>
        <time>2013-09-14T13:00:19.000Z</time>
      </trkpt>
      <trkpt lat="44.7499" lon="5.59856">
        <ele>1339</ele>
        <time>2013-09-14T13:00:20.000Z</time>
      </trkpt>
      <trkpt lat="44.74991" lon="5.59863">
        <ele>1339</ele>
        <time>2013-09-14T13:00:25.000Z</time>
      </trkpt>
      <trkpt lat="44.74991" lon="5.59869">
        <ele>1339</ele>
        <time>2013-09-14T13:00:30.000Z</time>
      </trkpt>
      <trkpt lat="44.74992" lon="5.59876">
        <ele>1340</ele>
        <time>2013-09-14T13:00:36.000Z</time>
      </trkpt>
      <trkpt lat="44.74994" lon="5.59882">
        <ele>1340</ele>
        <time>2013-09-14T13:00:42.000Z</time>
      </trkpt>
      <trkpt lat="44.7499" lon="5.59878">
        <ele>1340</ele>
        <time>2013-09-14T13:00:58.000Z</time>
      </trkpt>
      <trkpt lat="44.74986" lon="5.59874">
        <ele>1340</ele>
        <time>2013-09-14T13:01:03.000Z</time>
      </trkpt>
      <trkpt lat="44.74981" lon="5.59871">
        <ele>1341</ele>
        <time>2013-09-14T13:01:09.000Z</time>
      </trkpt>
      <trkpt lat="44.74981" lon="5.59871">
        <ele>1341</ele>
        <time>2013-09-14T13:01:09.000Z</time>
      </trkpt>
      <trkpt lat="44.74981" lon="5.59871">
        <ele>1341</ele>
        <time>2013-09-14T13:01:10.000Z</time>
      </trkpt>
      <trkpt lat="44.74981" lon="5.59878">
        <ele>1342</ele>
        <time>2013-09-14T13:01:20.000Z</time>
      </trkpt>
      <trkpt lat="44.74982" lon="5.59884">
        <ele>1343</ele>
        <time>2013-09-14T13:01:29.000Z</time>
      </trkpt>
      <trkpt lat="44.74982" lon="5.59884">
        <ele>1343</ele>
        <time>2013-09-14T13:01:29.000Z</time>
      </trkpt>
      <trkpt lat="44.74982" lon="5.59884">
        <ele>1343</ele>
        <time>2013-09-14T13:01:32.000Z</time>
      </trkpt>
      <trkpt lat="44.74979" lon="5.59891">
        <ele>1345</ele>
        <time>2013-09-14T13:01:46.000Z</time>
      </trkpt>
      <trkpt lat="44.74979" lon="5.59891">
        <ele>1345</ele>
        <time>2013-09-14T13:01:46.000Z</time>
      </trkpt>
      <trkpt lat="44.74979" lon="5.59891">
        <ele>1345</ele>
        <time>2013-09-14T13:01:50.000Z</time>
      </trkpt>
      <trkpt lat="44.74982" lon="5.59895">
        <ele>1346</ele>
        <time>2013-09-14T13:01:55.000Z</time>
      </trkpt>
      <trkpt lat="44.74982" lon="5.59895">
        <ele>1346</ele>
        <time>2013-09-14T13:01:55.000Z</time>
      </trkpt>
      <trkpt lat="44.74982" lon="5.59895">
        <ele>1346</ele>
        <time>2013-09-14T13:01:56.000Z</time>
      </trkpt>
      <trkpt lat="44.74984" lon="5.59901">
        <ele>1347</ele>
        <time>2013-09-14T13:01:59.000Z</time>
      </trkpt>
      <trkpt lat="44.74985" lon="5.59908">
        <ele>1347</ele>
        <time>2013-09-14T13:02:02.000Z</time>
      </trkpt>
      <trkpt lat="44.74985" lon="5.59908">
        <ele>1347</ele>
        <time>2013-09-14T13:02:02.000Z</time>
      </trkpt>
      <trkpt lat="44.74985" lon="5.59908">
        <ele>1347</ele>
        <time>2013-09-14T13:02:03.000Z</time>
      </trkpt>
      <trkpt lat="44.74985" lon="5.59914">
        <ele>1347</ele>
        <time>2013-09-14T13:02:06.000Z</time>
      </trkpt>
      <trkpt lat="44.74982" lon="5.59921">
        <ele>1348</ele>
        <time>2013-09-14T13:02:10.000Z</time>
      </trkpt>
      <trkpt lat="44.74981" lon="5.59927">
        <ele>1348</ele>
        <time>2013-09-14T13:02:14.000Z</time>
      </trkpt>
      <trkpt lat="44.7498" lon="5.59934">
        <ele>1349</ele>
        <time>2013-09-14T13:02:18.000Z</time>
      </trkpt>
      <trkpt lat="44.7498" lon="5.5994">
        <ele>1349</ele>
        <time>2013-09-14T13:02:22.000Z</time>
      </trkpt>
      <trkpt lat="44.74981" lon="5.59946">
        <ele>1350</ele>
        <time>2013-09-14T13:02:26.000Z</time>
      </trkpt>
      <trkpt lat="44.74982" lon="5.59953">
        <ele>1350</ele>
        <time>2013-09-14T13:02:29.000Z</time>
      </trkpt>
      <trkpt lat="44.74982" lon="5.59959">
        <ele>1350</ele>
        <time>2013-09-14T13:02:32.000Z</time>
      </trkpt>
      <trkpt lat="44.74982" lon="5.59959">
        <ele>1350</ele>
        <time>2013-09-14T13:02:32.000Z</time>
      </trkpt>
      <trkpt lat="44.74982" lon="5.59959">
        <ele>1350</ele>
        <time>2013-09-14T13:02:33.000Z</time>
      </trkpt>
      <trkpt lat="44.74984" lon="5.59966">
        <ele>1351</ele>
        <time>2013-09-14T13:02:36.000Z</time>
      </trkpt>
      <trkpt lat="44.74982" lon="5.59972">
        <ele>1351</ele>
        <time>2013-09-14T13:02:40.000Z</time>
      </trkpt>
      <trkpt lat="44.7498" lon="5.59979">
        <ele>1351</ele>
        <time>2013-09-14T13:02:45.000Z</time>
      </trkpt>
      <trkpt lat="44.74976" lon="5.59983">
        <ele>1352</ele>
        <time>2013-09-14T13:02:52.000Z</time>
      </trkpt>
      <trkpt lat="44.74976" lon="5.59983">
        <ele>1352</ele>
        <time>2013-09-14T13:02:52.000Z</time>
      </trkpt>
      <trkpt lat="44.74976" lon="5.59983">
        <ele>1352</ele>
        <time>2013-09-14T13:02:53.000Z</time>
      </trkpt>
      <trkpt lat="44.74975" lon="5.59989">
        <ele>1352</ele>
        <time>2013-09-14T13:02:57.000Z</time>
      </trkpt>
      <trkpt lat="44.74975" lon="5.59996">
        <ele>1352</ele>
        <time>2013-09-14T13:03:01.000Z</time>
      </trkpt>
      <trkpt lat="44.74975" lon="5.60002">
        <ele>1353</ele>
        <time>2013-09-14T13:03:05.000Z</time>
      </trkpt>
      <trkpt lat="44.74975" lon="5.60002">
        <ele>1353</ele>
        <time>2013-09-14T13:03:05.000Z</time>
      </trkpt>
      <trkpt lat="44.74975" lon="5.60002">
        <ele>1353</ele>
        <time>2013-09-14T13:03:06.000Z</time>
      </trkpt>
      <trkpt lat="44.74972" lon="5.60009">
        <ele>1353</ele>
        <time>2013-09-14T13:03:11.000Z</time>
      </trkpt>
      <trkpt lat="44.74972" lon="5.60009">
        <ele>1353</ele>
        <time>2013-09-14T13:03:11.000Z</time>
      </trkpt>
      <trkpt lat="44.74972" lon="5.60009">
        <ele>1353</ele>
        <time>2013-09-14T13:03:13.000Z</time>
      </trkpt>
      <trkpt lat="44.74971" lon="5.60015">
        <ele>1354</ele>
        <time>2013-09-14T13:03:17.000Z</time>
      </trkpt>
      <trkpt lat="44.74967" lon="5.60022">
        <ele>1354</ele>
        <time>2013-09-14T13:03:23.000Z</time>
      </trkpt>
      <trkpt lat="44.74967" lon="5.60022">
        <ele>1354</ele>
        <time>2013-09-14T13:03:23.000Z</time>
      </trkpt>
      <trkpt lat="44.74967" lon="5.60022">
        <ele>1354</ele>
        <time>2013-09-14T13:03:24.000Z</time>
      </trkpt>
      <trkpt lat="44.74965" lon="5.60028">
        <ele>1355</ele>
        <time>2013-09-14T13:03:30.000Z</time>
      </trkpt>
      <trkpt lat="44.74965" lon="5.60028">
        <ele>1355</ele>
        <time>2013-09-14T13:03:30.000Z</time>
      </trkpt>
      <trkpt lat="44.74965" lon="5.60028">
        <ele>1355</ele>
        <time>2013-09-14T13:03:31.000Z</time>
      </trkpt>
      <trkpt lat="44.74964" lon="5.60034">
        <ele>1355</ele>
        <time>2013-09-14T13:03:35.000Z</time>
      </trkpt>
      <trkpt lat="44.74964" lon="5.60034">
        <ele>1355</ele>
        <time>2013-09-14T13:03:35.000Z</time>
      </trkpt>
      <trkpt lat="44.74964" lon="5.60034">
        <ele>1355</ele>
        <time>2013-09-14T13:03:36.000Z</time>
      </trkpt>
      <trkpt lat="44.74964" lon="5.60041">
        <ele>1356</ele>
        <time>2013-09-14T13:03:41.000Z</time>
      </trkpt>
      <trkpt lat="44.74964" lon="5.60041">
        <ele>1356</ele>
        <time>2013-09-14T13:03:41.000Z</time>
      </trkpt>
      <trkpt lat="44.74964" lon="5.60041">
        <ele>1356</ele>
        <time>2013-09-14T13:03:42.000Z</time>
      </trkpt>
      <trkpt lat="44.74964" lon="5.60047">
        <ele>1356</ele>
        <time>2013-09-14T13:03:47.000Z</time>
      </trkpt>
      <trkpt lat="44.74964" lon="5.60047">
        <ele>1356</ele>
        <time>2013-09-14T13:03:47.000Z</time>
      </trkpt>
      <trkpt lat="44.74964" lon="5.60047">
        <ele>1356</ele>
        <time>2013-09-14T13:03:48.000Z</time>
      </trkpt>
      <trkpt lat="44.74963" lon="5.60054">
        <ele>1357</ele>
        <time>2013-09-14T13:03:52.000Z</time>
      </trkpt>
      <trkpt lat="44.74961" lon="5.6006">
        <ele>1358</ele>
        <time>2013-09-14T13:03:58.000Z</time>
      </trkpt>
      <trkpt lat="44.7496" lon="5.60067">
        <ele>1358</ele>
        <time>2013-09-14T13:04:02.000Z</time>
      </trkpt>
      <trkpt lat="44.74958" lon="5.60073">
        <ele>1358</ele>
        <time>2013-09-14T13:04:07.000Z</time>
      </trkpt>
      <trkpt lat="44.74956" lon="5.6008">
        <ele>1359</ele>
        <time>2013-09-14T13:04:13.000Z</time>
      </trkpt>
      <trkpt lat="44.74956" lon="5.60086">
        <ele>1359</ele>
        <time>2013-09-14T13:04:17.000Z</time>
      </trkpt>
      <trkpt lat="44.74956" lon="5.60086">
        <ele>1359</ele>
        <time>2013-09-14T13:04:17.000Z</time>
      </trkpt>
      <trkpt lat="44.74956" lon="5.60086">
        <ele>1360</ele>
        <time>2013-09-14T13:04:18.000Z</time>
      </trkpt>
      <trkpt lat="44.74956" lon="5.60092">
        <ele>1360</ele>
        <time>2013-09-14T13:04:22.000Z</time>
      </trkpt>
      <trkpt lat="44.74957" lon="5.60099">
        <ele>1360</ele>
        <time>2013-09-14T13:04:26.000Z</time>
      </trkpt>
      <trkpt lat="44.74958" lon="5.60105">
        <ele>1361</ele>
        <time>2013-09-14T13:04:37.000Z</time>
      </trkpt>
      <trkpt lat="44.74962" lon="5.6011">
        <ele>1362</ele>
        <time>2013-09-14T13:04:42.000Z</time>
      </trkpt>
      <trkpt lat="44.74966" lon="5.60114">
        <ele>1362</ele>
        <time>2013-09-14T13:04:46.000Z</time>
      </trkpt>
      <trkpt lat="44.74966" lon="5.60114">
        <ele>1362</ele>
        <time>2013-09-14T13:04:46.000Z</time>
      </trkpt>
      <trkpt lat="44.74966" lon="5.60114">
        <ele>1362</ele>
        <time>2013-09-14T13:04:47.000Z</time>
      </trkpt>
      <trkpt lat="44.7497" lon="5.6012">
        <ele>1363</ele>
        <time>2013-09-14T13:04:52.000Z</time>
      </trkpt>
      <trkpt lat="44.7497" lon="5.6012">
        <ele>1363</ele>
        <time>2013-09-14T13:04:52.000Z</time>
      </trkpt>
      <trkpt lat="44.7497" lon="5.6012">
        <ele>1363</ele>
        <time>2013-09-14T13:04:53.000Z</time>
      </trkpt>
      <trkpt lat="44.74971" lon="5.60127">
        <ele>1363</ele>
        <time>2013-09-14T13:04:58.000Z</time>
      </trkpt>
      <trkpt lat="44.74973" lon="5.60133">
        <ele>1364</ele>
        <time>2013-09-14T13:05:03.000Z</time>
      </trkpt>
      <trkpt lat="44.74973" lon="5.60133">
        <ele>1364</ele>
        <time>2013-09-14T13:05:03.000Z</time>
      </trkpt>
      <trkpt lat="44.74973" lon="5.60133">
        <ele>1364</ele>
        <time>2013-09-14T13:05:04.000Z</time>
      </trkpt>
      <trkpt lat="44.74971" lon="5.6014">
        <ele>1365</ele>
        <time>2013-09-14T13:05:09.000Z</time>
      </trkpt>
      <trkpt lat="44.74971" lon="5.6014">
        <ele>1365</ele>
        <time>2013-09-14T13:05:09.000Z</time>
      </trkpt>
      <trkpt lat="44.74971" lon="5.6014">
        <ele>1365</ele>
        <time>2013-09-14T13:05:10.000Z</time>
      </trkpt>
      <trkpt lat="44.74968" lon="5.60146">
        <ele>1366</ele>
        <time>2013-09-14T13:05:15.000Z</time>
      </trkpt>
      <trkpt lat="44.74968" lon="5.60146">
        <ele>1366</ele>
        <time>2013-09-14T13:05:15.000Z</time>
      </trkpt>
      <trkpt lat="44.74968" lon="5.60146">
        <ele>1366</ele>
        <time>2013-09-14T13:05:16.000Z</time>
      </trkpt>
      <trkpt lat="44.74971" lon="5.60152">
        <ele>1366</ele>
        <time>2013-09-14T13:05:21.000Z</time>
      </trkpt>
      <trkpt lat="44.74973" lon="5.60159">
        <ele>1367</ele>
        <time>2013-09-14T13:05:26.000Z</time>
      </trkpt>
      <trkpt lat="44.74976" lon="5.60165">
        <ele>1368</ele>
        <time>2013-09-14T13:05:31.000Z</time>
      </trkpt>
      <trkpt lat="44.74976" lon="5.60165">
        <ele>1368</ele>
        <time>2013-09-14T13:05:31.000Z</time>
      </trkpt>
      <trkpt lat="44.74976" lon="5.60165">
        <ele>1368</ele>
        <time>2013-09-14T13:05:32.000Z</time>
      </trkpt>
      <trkpt lat="44.74979" lon="5.60172">
        <ele>1369</ele>
        <time>2013-09-14T13:05:37.000Z</time>
      </trkpt>
      <trkpt lat="44.74982" lon="5.60176">
        <ele>1369</ele>
        <time>2013-09-14T13:05:42.000Z</time>
      </trkpt>
      <trkpt lat="44.74985" lon="5.60182">
        <ele>1370</ele>
        <time>2013-09-14T13:05:46.000Z</time>
      </trkpt>
      <trkpt lat="44.74988" lon="5.60187">
        <ele>1370</ele>
        <time>2013-09-14T13:05:50.000Z</time>
      </trkpt>
      <trkpt lat="44.74989" lon="5.60193">
        <ele>1371</ele>
        <time>2013-09-14T13:05:53.000Z</time>
      </trkpt>
      <trkpt lat="44.74991" lon="5.602">
        <ele>1372</ele>
        <time>2013-09-14T13:05:58.000Z</time>
      </trkpt>
      <trkpt lat="44.74991" lon="5.60206">
        <ele>1372</ele>
        <time>2013-09-14T13:06:02.000Z</time>
      </trkpt>
      <trkpt lat="44.7499" lon="5.60213">
        <ele>1373</ele>
        <time>2013-09-14T13:06:07.000Z</time>
      </trkpt>
      <trkpt lat="44.74989" lon="5.60219">
        <ele>1374</ele>
        <time>2013-09-14T13:06:12.000Z</time>
      </trkpt>
      <trkpt lat="44.7499" lon="5.60225">
        <ele>1374</ele>
        <time>2013-09-14T13:06:16.000Z</time>
      </trkpt>
      <trkpt lat="44.74992" lon="5.60232">
        <ele>1374</ele>
        <time>2013-09-14T13:06:19.000Z</time>
      </trkpt>
      <trkpt lat="44.74992" lon="5.60232">
        <ele>1374</ele>
        <time>2013-09-14T13:06:19.000Z</time>
      </trkpt>
      <trkpt lat="44.74992" lon="5.60232">
        <ele>1374</ele>
        <time>2013-09-14T13:06:20.000Z</time>
      </trkpt>
      <trkpt lat="44.74988" lon="5.60236">
        <ele>1375</ele>
        <time>2013-09-14T13:06:25.000Z</time>
      </trkpt>
      <trkpt lat="44.74982" lon="5.60232">
        <ele>1375</ele>
        <time>2013-09-14T13:06:27.000Z</time>
      </trkpt>
      <trkpt lat="44.74977" lon="5.6023">
        <ele>1376</ele>
        <time>2013-09-14T13:06:29.000Z</time>
      </trkpt>
      <trkpt lat="44.74975" lon="5.60236">
        <ele>1380</ele>
        <time>2013-09-14T13:06:46.000Z</time>
      </trkpt>
      <trkpt lat="44.74975" lon="5.60236">
        <ele>1380</ele>
        <time>2013-09-14T13:06:46.000Z</time>
      </trkpt>
      <trkpt lat="44.74975" lon="5.60236">
        <ele>1380</ele>
        <time>2013-09-14T13:06:47.000Z</time>
      </trkpt>
      <trkpt lat="44.74975" lon="5.60243">
        <ele>1382</ele>
        <time>2013-09-14T13:06:52.000Z</time>
      </trkpt>
      <trkpt lat="44.74975" lon="5.60249">
        <ele>1383</ele>
        <time>2013-09-14T13:06:57.000Z</time>
      </trkpt>
      <trkpt lat="44.74975" lon="5.60249">
        <ele>1383</ele>
        <time>2013-09-14T13:06:57.000Z</time>
      </trkpt>
      <trkpt lat="44.74975" lon="5.60249">
        <ele>1383</ele>
        <time>2013-09-14T13:06:58.000Z</time>
      </trkpt>
      <trkpt lat="44.74975" lon="5.60256">
        <ele>1384</ele>
        <time>2013-09-14T13:07:02.000Z</time>
      </trkpt>
      <trkpt lat="44.74974" lon="5.60262">
        <ele>1385</ele>
        <time>2013-09-14T13:07:07.000Z</time>
      </trkpt>
      <trkpt lat="44.74968" lon="5.6026">
        <ele>1387</ele>
        <time>2013-09-14T13:07:18.000Z</time>
      </trkpt>
      <trkpt lat="44.74963" lon="5.60262">
        <ele>1389</ele>
        <time>2013-09-14T13:07:29.000Z</time>
      </trkpt>
      <trkpt lat="44.7496" lon="5.60268">
        <ele>1390</ele>
        <time>2013-09-14T13:07:35.000Z</time>
      </trkpt>
      <trkpt lat="44.7496" lon="5.60268">
        <ele>1390</ele>
        <time>2013-09-14T13:07:35.000Z</time>
      </trkpt>
      <trkpt lat="44.7496" lon="5.60268">
        <ele>1390</ele>
        <time>2013-09-14T13:07:36.000Z</time>
      </trkpt>
      <trkpt lat="44.74958" lon="5.60275">
        <ele>1391</ele>
        <time>2013-09-14T13:07:41.000Z</time>
      </trkpt>
      <trkpt lat="44.74958" lon="5.60275">
        <ele>1391</ele>
        <time>2013-09-14T13:07:41.000Z</time>
      </trkpt>
      <trkpt lat="44.74958" lon="5.60275">
        <ele>1391</ele>
        <time>2013-09-14T13:07:42.000Z</time>
      </trkpt>
      <trkpt lat="44.74958" lon="5.60281">
        <ele>1392</ele>
        <time>2013-09-14T13:07:47.000Z</time>
      </trkpt>
      <trkpt lat="44.74958" lon="5.60281">
        <ele>1392</ele>
        <time>2013-09-14T13:07:47.000Z</time>
      </trkpt>
      <trkpt lat="44.74958" lon="5.60281">
        <ele>1392</ele>
        <time>2013-09-14T13:07:48.000Z</time>
      </trkpt>
      <trkpt lat="44.74957" lon="5.60288">
        <ele>1393</ele>
        <time>2013-09-14T13:07:53.000Z</time>
      </trkpt>
      <trkpt lat="44.74954" lon="5.60294">
        <ele>1394</ele>
        <time>2013-09-14T13:08:00.000Z</time>
      </trkpt>
      <trkpt lat="44.74954" lon="5.603">
        <ele>1395</ele>
        <time>2013-09-14T13:08:05.000Z</time>
      </trkpt>
      <trkpt lat="44.74952" lon="5.60307">
        <ele>1395</ele>
        <time>2013-09-14T13:08:09.000Z</time>
      </trkpt>
      <trkpt lat="44.74952" lon="5.60307">
        <ele>1395</ele>
        <time>2013-09-14T13:08:09.000Z</time>
      </trkpt>
      <trkpt lat="44.74952" lon="5.60307">
        <ele>1395</ele>
        <time>2013-09-14T13:08:10.000Z</time>
      </trkpt>
      <trkpt lat="44.74951" lon="5.60313">
        <ele>1396</ele>
        <time>2013-09-14T13:08:20.000Z</time>
      </trkpt>
      <trkpt lat="44.74946" lon="5.60316">
        <ele>1397</ele>
        <time>2013-09-14T13:08:26.000Z</time>
      </trkpt>
      <trkpt lat="44.74946" lon="5.60316">
        <ele>1397</ele>
        <time>2013-09-14T13:08:26.000Z</time>
      </trkpt>
      <trkpt lat="44.74946" lon="5.60316">
        <ele>1398</ele>
        <time>2013-09-14T13:08:27.000Z</time>
      </trkpt>
      <trkpt lat="44.74944" lon="5.60322">
        <ele>1398</ele>
        <time>2013-09-14T13:08:32.000Z</time>
      </trkpt>
      <trkpt lat="44.74944" lon="5.60322">
        <ele>1398</ele>
        <time>2013-09-14T13:08:32.000Z</time>
      </trkpt>
      <trkpt lat="44.74944" lon="5.60322">
        <ele>1399</ele>
        <time>2013-09-14T13:08:33.000Z</time>
      </trkpt>
      <trkpt lat="44.74944" lon="5.60328">
        <ele>1399</ele>
        <time>2013-09-14T13:08:38.000Z</time>
      </trkpt>
      <trkpt lat="44.74944" lon="5.60328">
        <ele>1399</ele>
        <time>2013-09-14T13:08:38.000Z</time>
      </trkpt>
      <trkpt lat="44.74944" lon="5.60328">
        <ele>1400</ele>
        <time>2013-09-14T13:08:39.000Z</time>
      </trkpt>
      <trkpt lat="44.74944" lon="5.60335">
        <ele>1400</ele>
        <time>2013-09-14T13:08:44.000Z</time>
      </trkpt>
      <trkpt lat="44.74944" lon="5.60341">
        <ele>1401</ele>
        <time>2013-09-14T13:08:49.000Z</time>
      </trkpt>
      <trkpt lat="44.74944" lon="5.60341">
        <ele>1401</ele>
        <time>2013-09-14T13:08:49.000Z</time>
      </trkpt>
      <trkpt lat="44.74944" lon="5.60341">
        <ele>1401</ele>
        <time>2013-09-14T13:08:50.000Z</time>
      </trkpt>
      <trkpt lat="44.74944" lon="5.60348">
        <ele>1402</ele>
        <time>2013-09-14T13:08:54.000Z</time>
      </trkpt>
      <trkpt lat="44.74944" lon="5.60348">
        <ele>1402</ele>
        <time>2013-09-14T13:08:54.000Z</time>
      </trkpt>
      <trkpt lat="44.74944" lon="5.60348">
        <ele>1402</ele>
        <time>2013-09-14T13:08:55.000Z</time>
      </trkpt>
      <trkpt lat="44.74943" lon="5.60354">
        <ele>1402</ele>
        <time>2013-09-14T13:08:59.000Z</time>
      </trkpt>
      <trkpt lat="44.74942" lon="5.60361">
        <ele>1402</ele>
        <time>2013-09-14T13:09:03.000Z</time>
      </trkpt>
      <trkpt lat="44.74942" lon="5.60361">
        <ele>1402</ele>
        <time>2013-09-14T13:09:03.000Z</time>
      </trkpt>
      <trkpt lat="44.74942" lon="5.60361">
        <ele>1403</ele>
        <time>2013-09-14T13:09:04.000Z</time>
      </trkpt>
      <trkpt lat="44.74943" lon="5.60367">
        <ele>1403</ele>
        <time>2013-09-14T13:09:15.000Z</time>
      </trkpt>
      <trkpt lat="44.74943" lon="5.60367">
        <ele>1403</ele>
        <time>2013-09-14T13:09:15.000Z</time>
      </trkpt>
      <trkpt lat="44.74943" lon="5.60367">
        <ele>1403</ele>
        <time>2013-09-14T13:09:16.000Z</time>
      </trkpt>
      <trkpt lat="44.74943" lon="5.60374">
        <ele>1403</ele>
        <time>2013-09-14T13:09:21.000Z</time>
      </trkpt>
      <trkpt lat="44.74942" lon="5.6038">
        <ele>1404</ele>
        <time>2013-09-14T13:09:27.000Z</time>
      </trkpt>
      <trkpt lat="44.74942" lon="5.6038">
        <ele>1404</ele>
        <time>2013-09-14T13:09:27.000Z</time>
      </trkpt>
      <trkpt lat="44.74942" lon="5.6038">
        <ele>1404</ele>
        <time>2013-09-14T13:09:28.000Z</time>
      </trkpt>
      <trkpt lat="44.74941" lon="5.60386">
        <ele>1405</ele>
        <time>2013-09-14T13:09:33.000Z</time>
      </trkpt>
      <trkpt lat="44.74941" lon="5.60386">
        <ele>1405</ele>
        <time>2013-09-14T13:09:33.000Z</time>
      </trkpt>
      <trkpt lat="44.74941" lon="5.60386">
        <ele>1405</ele>
        <time>2013-09-14T13:09:34.000Z</time>
      </trkpt>
      <trkpt lat="44.74938" lon="5.60393">
        <ele>1405</ele>
        <time>2013-09-14T13:09:38.000Z</time>
      </trkpt>
      <trkpt lat="44.74938" lon="5.60393">
        <ele>1405</ele>
        <time>2013-09-14T13:09:38.000Z</time>
      </trkpt>
      <trkpt lat="44.74938" lon="5.60393">
        <ele>1405</ele>
        <time>2013-09-14T13:09:39.000Z</time>
      </trkpt>
      <trkpt lat="44.74937" lon="5.60399">
        <ele>1406</ele>
        <time>2013-09-14T13:09:44.000Z</time>
      </trkpt>
      <trkpt lat="44.74937" lon="5.60399">
        <ele>1406</ele>
        <time>2013-09-14T13:09:44.000Z</time>
      </trkpt>
      <trkpt lat="44.74937" lon="5.60399">
        <ele>1406</ele>
        <time>2013-09-14T13:09:45.000Z</time>
      </trkpt>
      <trkpt lat="44.74937" lon="5.60406">
        <ele>1407</ele>
        <time>2013-09-14T13:09:50.000Z</time>
      </trkpt>
      <trkpt lat="44.74937" lon="5.60406">
        <ele>1407</ele>
        <time>2013-09-14T13:09:50.000Z</time>
      </trkpt>
      <trkpt lat="44.74937" lon="5.60406">
        <ele>1407</ele>
        <time>2013-09-14T13:09:51.000Z</time>
      </trkpt>
      <trkpt lat="44.74936" lon="5.60412">
        <ele>1407</ele>
        <time>2013-09-14T13:09:55.000Z</time>
      </trkpt>
      <trkpt lat="44.74936" lon="5.60412">
        <ele>1407</ele>
        <time>2013-09-14T13:09:55.000Z</time>
      </trkpt>
      <trkpt lat="44.74936" lon="5.60412">
        <ele>1407</ele>
        <time>2013-09-14T13:09:56.000Z</time>
      </trkpt>
      <trkpt lat="44.74936" lon="5.60419">
        <ele>1408</ele>
        <time>2013-09-14T13:10:00.000Z</time>
      </trkpt>
      <trkpt lat="44.74936" lon="5.60419">
        <ele>1408</ele>
        <time>2013-09-14T13:10:00.000Z</time>
      </trkpt>
      <trkpt lat="44.74936" lon="5.60419">
        <ele>1408</ele>
        <time>2013-09-14T13:10:01.000Z</time>
      </trkpt>
      <trkpt lat="44.74935" lon="5.60425">
        <ele>1409</ele>
        <time>2013-09-14T13:10:06.000Z</time>
      </trkpt>
      <trkpt lat="44.74935" lon="5.60425">
        <ele>1409</ele>
        <time>2013-09-14T13:10:06.000Z</time>
      </trkpt>
      <trkpt lat="44.74935" lon="5.60425">
        <ele>1409</ele>
        <time>2013-09-14T13:10:08.000Z</time>
      </trkpt>
      <trkpt lat="44.7493" lon="5.60427">
        <ele>1411</ele>
        <time>2013-09-14T13:10:29.000Z</time>
      </trkpt>
      <trkpt lat="44.74926" lon="5.60425">
        <ele>1412</ele>
        <time>2013-09-14T13:10:32.000Z</time>
      </trkpt>
      <trkpt lat="44.74921" lon="5.60427">
        <ele>1413</ele>
        <time>2013-09-14T13:10:38.000Z</time>
      </trkpt>
      <trkpt lat="44.74919" lon="5.60434">
        <ele>1414</ele>
        <time>2013-09-14T13:10:45.000Z</time>
      </trkpt>
      <trkpt lat="44.74919" lon="5.60434">
        <ele>1414</ele>
        <time>2013-09-14T13:10:45.000Z</time>
      </trkpt>
      <trkpt lat="44.74919" lon="5.60434">
        <ele>1415</ele>
        <time>2013-09-14T13:10:47.000Z</time>
      </trkpt>
      <trkpt lat="44.74918" lon="5.6044">
        <ele>1416</ele>
        <time>2013-09-14T13:10:52.000Z</time>
      </trkpt>
      <trkpt lat="44.74918" lon="5.6044">
        <ele>1416</ele>
        <time>2013-09-14T13:10:52.000Z</time>
      </trkpt>
      <trkpt lat="44.74918" lon="5.6044">
        <ele>1416</ele>
        <time>2013-09-14T13:10:53.000Z</time>
      </trkpt>
      <trkpt lat="44.74914" lon="5.60444">
        <ele>1418</ele>
        <time>2013-09-14T13:11:04.000Z</time>
      </trkpt>
      <trkpt lat="44.74914" lon="5.60444">
        <ele>1418</ele>
        <time>2013-09-14T13:11:04.000Z</time>
      </trkpt>
      <trkpt lat="44.74914" lon="5.60444">
        <ele>1418</ele>
        <time>2013-09-14T13:11:05.000Z</time>
      </trkpt>
      <trkpt lat="44.74913" lon="5.60451">
        <ele>1420</ele>
        <time>2013-09-14T13:11:13.000Z</time>
      </trkpt>
      <trkpt lat="44.74913" lon="5.60451">
        <ele>1420</ele>
        <time>2013-09-14T13:11:13.000Z</time>
      </trkpt>
      <trkpt lat="44.74913" lon="5.60451">
        <ele>1420</ele>
        <time>2013-09-14T13:11:14.000Z</time>
      </trkpt>
      <trkpt lat="44.74912" lon="5.60457">
        <ele>1421</ele>
        <time>2013-09-14T13:11:18.000Z</time>
      </trkpt>
      <trkpt lat="44.74912" lon="5.60457">
        <ele>1421</ele>
        <time>2013-09-14T13:11:18.000Z</time>
      </trkpt>
      <trkpt lat="44.74912" lon="5.60457">
        <ele>1422</ele>
        <time>2013-09-14T13:11:19.000Z</time>
      </trkpt>
      <trkpt lat="44.74912" lon="5.60464">
        <ele>1423</ele>
        <time>2013-09-14T13:11:23.000Z</time>
      </trkpt>
      <trkpt lat="44.74907" lon="5.60468">
        <ele>1424</ele>
        <time>2013-09-14T13:11:28.000Z</time>
      </trkpt>
      <trkpt lat="44.74903" lon="5.60474">
        <ele>1426</ele>
        <time>2013-09-14T13:11:35.000Z</time>
      </trkpt>
      <trkpt lat="44.74903" lon="5.60474">
        <ele>1426</ele>
        <time>2013-09-14T13:11:35.000Z</time>
      </trkpt>
      <trkpt lat="44.74903" lon="5.60474">
        <ele>1426</ele>
        <time>2013-09-14T13:11:36.000Z</time>
      </trkpt>
      <trkpt lat="44.749" lon="5.60481">
        <ele>1427</ele>
        <time>2013-09-14T13:11:41.000Z</time>
      </trkpt>
      <trkpt lat="44.74897" lon="5.60487">
        <ele>1428</ele>
        <time>2013-09-14T13:11:46.000Z</time>
      </trkpt>
      <trkpt lat="44.74896" lon="5.60494">
        <ele>1429</ele>
        <time>2013-09-14T13:11:49.000Z</time>
      </trkpt>
      <trkpt lat="44.74894" lon="5.605">
        <ele>1430</ele>
        <time>2013-09-14T13:11:53.000Z</time>
      </trkpt>
      <trkpt lat="44.74892" lon="5.60506">
        <ele>1431</ele>
        <time>2013-09-14T13:11:58.000Z</time>
      </trkpt>
      <trkpt lat="44.7489" lon="5.60513">
        <ele>1432</ele>
        <time>2013-09-14T13:12:03.000Z</time>
      </trkpt>
      <trkpt lat="44.7489" lon="5.60513">
        <ele>1432</ele>
        <time>2013-09-14T13:12:03.000Z</time>
      </trkpt>
      <trkpt lat="44.7489" lon="5.60513">
        <ele>1432</ele>
        <time>2013-09-14T13:12:04.000Z</time>
      </trkpt>
      <trkpt lat="44.74889" lon="5.60519">
        <ele>1433</ele>
        <time>2013-09-14T13:12:07.000Z</time>
      </trkpt>
      <trkpt lat="44.74889" lon="5.60519">
        <ele>1433</ele>
        <time>2013-09-14T13:12:07.000Z</time>
      </trkpt>
      <trkpt lat="44.74889" lon="5.60519">
        <ele>1433</ele>
        <time>2013-09-14T13:12:08.000Z</time>
      </trkpt>
      <trkpt lat="44.74889" lon="5.60526">
        <ele>1433</ele>
        <time>2013-09-14T13:12:11.000Z</time>
      </trkpt>
      <trkpt lat="44.74889" lon="5.60526">
        <ele>1433</ele>
        <time>2013-09-14T13:12:11.000Z</time>
      </trkpt>
      <trkpt lat="44.74889" lon="5.60526">
        <ele>1433</ele>
        <time>2013-09-14T13:12:12.000Z</time>
      </trkpt>
      <trkpt lat="44.7489" lon="5.60532">
        <ele>1434</ele>
        <time>2013-09-14T13:12:16.000Z</time>
      </trkpt>
      <trkpt lat="44.7489" lon="5.60532">
        <ele>1434</ele>
        <time>2013-09-14T13:12:16.000Z</time>
      </trkpt>
      <trkpt lat="44.7489" lon="5.60532">
        <ele>1434</ele>
        <time>2013-09-14T13:12:17.000Z</time>
      </trkpt>
      <trkpt lat="44.7489" lon="5.60539">
        <ele>1435</ele>
        <time>2013-09-14T13:12:23.000Z</time>
      </trkpt>
      <trkpt lat="44.7489" lon="5.60539">
        <ele>1435</ele>
        <time>2013-09-14T13:12:23.000Z</time>
      </trkpt>
      <trkpt lat="44.7489" lon="5.60539">
        <ele>1435</ele>
        <time>2013-09-14T13:12:24.000Z</time>
      </trkpt>
      <trkpt lat="44.74892" lon="5.60545">
        <ele>1436</ele>
        <time>2013-09-14T13:12:33.000Z</time>
      </trkpt>
      <trkpt lat="44.74898" lon="5.60545">
        <ele>1438</ele>
        <time>2013-09-14T13:12:39.000Z</time>
      </trkpt>
      <trkpt lat="44.74902" lon="5.60543">
        <ele>1439</ele>
        <time>2013-09-14T13:12:49.000Z</time>
      </trkpt>
      <trkpt lat="44.74898" lon="5.60545">
        <ele>1442</ele>
        <time>2013-09-14T13:13:29.000Z</time>
      </trkpt>
      <trkpt lat="44.74893" lon="5.60552">
        <ele>1443</ele>
        <time>2013-09-14T13:13:33.000Z</time>
      </trkpt>
      <trkpt lat="44.74889" lon="5.60558">
        <ele>1443</ele>
        <time>2013-09-14T13:13:37.000Z</time>
      </trkpt>
      <trkpt lat="44.74886" lon="5.60564">
        <ele>1443</ele>
        <time>2013-09-14T13:13:41.000Z</time>
      </trkpt>
      <trkpt lat="44.7488" lon="5.60569">
        <ele>1444</ele>
        <time>2013-09-14T13:13:46.000Z</time>
      </trkpt>
      <trkpt lat="44.74875" lon="5.60571">
        <ele>1444</ele>
        <time>2013-09-14T13:13:51.000Z</time>
      </trkpt>
      <trkpt lat="44.74871" lon="5.60569">
        <ele>1444</ele>
        <time>2013-09-14T13:13:56.000Z</time>
      </trkpt>
      <trkpt lat="44.74871" lon="5.60569">
        <ele>1444</ele>
        <time>2013-09-14T13:13:56.000Z</time>
      </trkpt>
      <trkpt lat="44.74871" lon="5.60569">
        <ele>1445</ele>
        <time>2013-09-14T13:13:57.000Z</time>
      </trkpt>
      <trkpt lat="44.74875" lon="5.60567">
        <ele>1445</ele>
        <time>2013-09-14T13:14:03.000Z</time>
      </trkpt>
      <trkpt lat="44.74875" lon="5.60567">
        <ele>1445</ele>
        <time>2013-09-14T13:14:03.000Z</time>
      </trkpt>
      <trkpt lat="44.74875" lon="5.60567">
        <ele>1445</ele>
        <time>2013-09-14T13:14:04.000Z</time>
      </trkpt>
      <trkpt lat="44.7488" lon="5.60564">
        <ele>1445</ele>
        <time>2013-09-14T13:14:09.000Z</time>
      </trkpt>
      <trkpt lat="44.7488" lon="5.60564">
        <ele>1445</ele>
        <time>2013-09-14T13:14:09.000Z</time>
      </trkpt>
      <trkpt lat="44.7488" lon="5.60564">
        <ele>1445</ele>
        <time>2013-09-14T13:14:10.000Z</time>
      </trkpt>
      <trkpt lat="44.74885" lon="5.60564">
        <ele>1445</ele>
        <time>2013-09-14T13:14:18.000Z</time>
      </trkpt>
      <trkpt lat="44.74889" lon="5.60562">
        <ele>1446</ele>
        <time>2013-09-14T13:14:25.000Z</time>
      </trkpt>
      <trkpt lat="44.74889" lon="5.60562">
        <ele>1446</ele>
        <time>2013-09-14T13:14:25.000Z</time>
      </trkpt>
      <trkpt lat="44.74889" lon="5.60562">
        <ele>1446</ele>
        <time>2013-09-14T13:14:26.000Z</time>
      </trkpt>
      <trkpt lat="44.74893" lon="5.60564">
        <ele>1446</ele>
        <time>2013-09-14T13:14:48.000Z</time>
      </trkpt>
      <trkpt lat="44.74893" lon="5.60564">
        <ele>1446</ele>
        <time>2013-09-14T13:14:48.000Z</time>
      </trkpt>
      <trkpt lat="44.74893" lon="5.60564">
        <ele>1446</ele>
        <time>2013-09-14T13:14:50.000Z</time>
      </trkpt>
      <trkpt lat="44.74889" lon="5.60562">
        <ele>1446</ele>
        <time>2013-09-14T13:15:10.000Z</time>
      </trkpt>
      <trkpt lat="44.74889" lon="5.60562">
        <ele>1446</ele>
        <time>2013-09-14T13:15:10.000Z</time>
      </trkpt>
      <trkpt lat="44.74889" lon="5.60562">
        <ele>1446</ele>
        <time>2013-09-14T13:15:16.000Z</time>
      </trkpt>
      <trkpt lat="44.74887" lon="5.60569">
        <ele>1447</ele>
        <time>2013-09-14T13:16:05.000Z</time>
      </trkpt>
      <trkpt lat="44.74887" lon="5.60569">
        <ele>1447</ele>
        <time>2013-09-14T13:16:05.000Z</time>
      </trkpt>
      <trkpt lat="44.74887" lon="5.60569">
        <ele>1447</ele>
        <time>2013-09-14T13:16:08.000Z</time>
      </trkpt>
      <trkpt lat="44.74888" lon="5.60575">
        <ele>1447</ele>
        <time>2013-09-14T13:16:16.000Z</time>
      </trkpt>
      <trkpt lat="44.74887" lon="5.60569">
        <ele>1447</ele>
        <time>2013-09-14T13:16:33.000Z</time>
      </trkpt>
      <trkpt lat="44.74883" lon="5.60567">
        <ele>1447</ele>
        <time>2013-09-14T13:16:48.000Z</time>
      </trkpt>
      <trkpt lat="44.74883" lon="5.60567">
        <ele>1447</ele>
        <time>2013-09-14T13:16:48.000Z</time>
      </trkpt>
      <trkpt lat="44.74883" lon="5.60567">
        <ele>1447</ele>
        <time>2013-09-14T13:16:51.000Z</time>
      </trkpt>
      <trkpt lat="44.74889" lon="5.60564">
        <ele>1448</ele>
        <time>2013-09-14T13:17:56.000Z</time>
      </trkpt>
      <trkpt lat="44.74893" lon="5.6056">
        <ele>1448</ele>
        <time>2013-09-14T13:17:59.000Z</time>
      </trkpt>
      <trkpt lat="44.74893" lon="5.6056">
        <ele>1448</ele>
        <time>2013-09-14T13:17:59.000Z</time>
      </trkpt>
      <trkpt lat="44.74893" lon="5.6056">
        <ele>1448</ele>
        <time>2013-09-14T13:18:00.000Z</time>
      </trkpt>
      <trkpt lat="44.74896" lon="5.60554">
        <ele>1449</ele>
        <time>2013-09-14T13:18:04.000Z</time>
      </trkpt>
      <trkpt lat="44.749" lon="5.60549">
        <ele>1449</ele>
        <time>2013-09-14T13:18:08.000Z</time>
      </trkpt>
      <trkpt lat="44.74904" lon="5.60547">
        <ele>1449</ele>
        <time>2013-09-14T13:18:10.000Z</time>
      </trkpt>
      <trkpt lat="44.74908" lon="5.60543">
        <ele>1450</ele>
        <time>2013-09-14T13:18:12.000Z</time>
      </trkpt>
      <trkpt lat="44.74913" lon="5.60541">
        <ele>1450</ele>
        <time>2013-09-14T13:18:15.000Z</time>
      </trkpt>
      <trkpt lat="44.74918" lon="5.60549">
        <ele>1450</ele>
        <time>2013-09-14T13:18:21.000Z</time>
      </trkpt>
      <trkpt lat="44.74919" lon="5.6056">
        <ele>1450</ele>
        <time>2013-09-14T13:18:23.000Z</time>
      </trkpt>
      <trkpt lat="44.74919" lon="5.60567">
        <ele>1451</ele>
        <time>2013-09-14T13:18:25.000Z</time>
      </trkpt>
      <trkpt lat="44.74918" lon="5.60573">
        <ele>1451</ele>
        <time>2013-09-14T13:18:27.000Z</time>
      </trkpt>
      <trkpt lat="44.74914" lon="5.60577">
        <ele>1451</ele>
        <time>2013-09-14T13:18:33.000Z</time>
      </trkpt>
      <trkpt lat="44.74914" lon="5.60577">
        <ele>1451</ele>
        <time>2013-09-14T13:18:33.000Z</time>
      </trkpt>
      <trkpt lat="44.74914" lon="5.60577">
        <ele>1451</ele>
        <time>2013-09-14T13:18:36.000Z</time>
      </trkpt>
      <trkpt lat="44.7491" lon="5.6058">
        <ele>1450</ele>
        <time>2013-09-14T13:18:52.000Z</time>
      </trkpt>
      <trkpt lat="44.7491" lon="5.6058">
        <ele>1450</ele>
        <time>2013-09-14T13:18:52.000Z</time>
      </trkpt>
      <trkpt lat="44.7491" lon="5.6058">
        <ele>1450</ele>
        <time>2013-09-14T13:18:56.000Z</time>
      </trkpt>
      <trkpt lat="44.74906" lon="5.60586">
        <ele>1449</ele>
        <time>2013-09-14T13:19:10.000Z</time>
      </trkpt>
      <trkpt lat="44.74906" lon="5.60586">
        <ele>1449</ele>
        <time>2013-09-14T13:19:10.000Z</time>
      </trkpt>
      <trkpt lat="44.74906" lon="5.60586">
        <ele>1448</ele>
        <time>2013-09-14T13:19:12.000Z</time>
      </trkpt>
      <trkpt lat="44.74906" lon="5.60592">
        <ele>1448</ele>
        <time>2013-09-14T13:19:17.000Z</time>
      </trkpt>
      <trkpt lat="44.74906" lon="5.60592">
        <ele>1448</ele>
        <time>2013-09-14T13:19:17.000Z</time>
      </trkpt>
      <trkpt lat="44.74906" lon="5.60592">
        <ele>1448</ele>
        <time>2013-09-14T13:19:18.000Z</time>
      </trkpt>
      <trkpt lat="44.74906" lon="5.60599">
        <ele>1448</ele>
        <time>2013-09-14T13:19:23.000Z</time>
      </trkpt>
      <trkpt lat="44.7491" lon="5.60605">
        <ele>1447</ele>
        <time>2013-09-14T13:19:33.000Z</time>
      </trkpt>
      <trkpt lat="44.74914" lon="5.60607">
        <ele>1447</ele>
        <time>2013-09-14T13:19:38.000Z</time>
      </trkpt>
      <trkpt lat="44.74918" lon="5.60614">
        <ele>1447</ele>
        <time>2013-09-14T13:19:42.000Z</time>
      </trkpt>
      <trkpt lat="44.74922" lon="5.60618">
        <ele>1447</ele>
        <time>2013-09-14T13:19:45.000Z</time>
      </trkpt>
      <trkpt lat="44.74927" lon="5.6062">
        <ele>1447</ele>
        <time>2013-09-14T13:19:48.000Z</time>
      </trkpt>
      <trkpt lat="44.74932" lon="5.60622">
        <ele>1447</ele>
        <time>2013-09-14T13:19:51.000Z</time>
      </trkpt>
      <trkpt lat="44.74936" lon="5.60624">
        <ele>1447</ele>
        <time>2013-09-14T13:19:54.000Z</time>
      </trkpt>
      <trkpt lat="44.74942" lon="5.60624">
        <ele>1447</ele>
        <time>2013-09-14T13:19:59.000Z</time>
      </trkpt>
      <trkpt lat="44.74948" lon="5.60624">
        <ele>1447</ele>
        <time>2013-09-14T13:20:03.000Z</time>
      </trkpt>
      <trkpt lat="44.74954" lon="5.60622">
        <ele>1448</ele>
        <time>2013-09-14T13:20:07.000Z</time>
      </trkpt>
      <trkpt lat="44.74959" lon="5.6062">
        <ele>1448</ele>
        <time>2013-09-14T13:20:10.000Z</time>
      </trkpt>
      <trkpt lat="44.74964" lon="5.6062">
        <ele>1449</ele>
        <time>2013-09-14T13:20:14.000Z</time>
      </trkpt>
      <trkpt lat="44.7497" lon="5.6062">
        <ele>1450</ele>
        <time>2013-09-14T13:20:17.000Z</time>
      </trkpt>
      <trkpt lat="44.74975" lon="5.60622">
        <ele>1450</ele>
        <time>2013-09-14T13:20:20.000Z</time>
      </trkpt>
      <trkpt lat="44.7498" lon="5.60622">
        <ele>1451</ele>
        <time>2013-09-14T13:20:24.000Z</time>
      </trkpt>
      <trkpt lat="44.74986" lon="5.60624">
        <ele>1451</ele>
        <time>2013-09-14T13:20:28.000Z</time>
      </trkpt>
      <trkpt lat="44.74991" lon="5.60624">
        <ele>1452</ele>
        <time>2013-09-14T13:20:31.000Z</time>
      </trkpt>
      <trkpt lat="44.74995" lon="5.60627">
        <ele>1452</ele>
        <time>2013-09-14T13:20:33.000Z</time>
      </trkpt>
      <trkpt lat="44.75" lon="5.60629">
        <ele>1452</ele>
        <time>2013-09-14T13:20:35.000Z</time>
      </trkpt>
      <trkpt lat="44.75005" lon="5.60631">
        <ele>1453</ele>
        <time>2013-09-14T13:20:37.000Z</time>
      </trkpt>
      <trkpt lat="44.75009" lon="5.60635">
        <ele>1453</ele>
        <time>2013-09-14T13:20:39.000Z</time>
      </trkpt>
      <trkpt lat="44.75015" lon="5.6064">
        <ele>1453</ele>
        <time>2013-09-14T13:20:42.000Z</time>
      </trkpt>
      <trkpt lat="44.75019" lon="5.60642">
        <ele>1453</ele>
        <time>2013-09-14T13:20:45.000Z</time>
      </trkpt>
      <trkpt lat="44.75022" lon="5.60646">
        <ele>1454</ele>
        <time>2013-09-14T13:20:48.000Z</time>
      </trkpt>
      <trkpt lat="44.75021" lon="5.60652">
        <ele>1454</ele>
        <time>2013-09-14T13:20:50.000Z</time>
      </trkpt>
      <trkpt lat="44.75021" lon="5.60659">
        <ele>1453</ele>
        <time>2013-09-14T13:20:53.000Z</time>
      </trkpt>
      <trkpt lat="44.75022" lon="5.60665">
        <ele>1453</ele>
        <time>2013-09-14T13:20:55.000Z</time>
      </trkpt>
      <trkpt lat="44.75022" lon="5.60672">
        <ele>1453</ele>
        <time>2013-09-14T13:20:58.000Z</time>
      </trkpt>
      <trkpt lat="44.75024" lon="5.60678">
        <ele>1453</ele>
        <time>2013-09-14T13:21:01.000Z</time>
      </trkpt>
      <trkpt lat="44.75024" lon="5.60685">
        <ele>1453</ele>
        <time>2013-09-14T13:21:04.000Z</time>
      </trkpt>
      <trkpt lat="44.75024" lon="5.60691">
        <ele>1453</ele>
        <time>2013-09-14T13:21:07.000Z</time>
      </trkpt>
      <trkpt lat="44.75024" lon="5.60698">
        <ele>1453</ele>
        <time>2013-09-14T13:21:10.000Z</time>
      </trkpt>
      <trkpt lat="44.75025" lon="5.60704">
        <ele>1453</ele>
        <time>2013-09-14T13:21:14.000Z</time>
      </trkpt>
      <trkpt lat="44.75026" lon="5.6071">
        <ele>1453</ele>
        <time>2013-09-14T13:21:17.000Z</time>
      </trkpt>
      <trkpt lat="44.75028" lon="5.60717">
        <ele>1453</ele>
        <time>2013-09-14T13:21:20.000Z</time>
      </trkpt>
      <trkpt lat="44.7503" lon="5.60723">
        <ele>1453</ele>
        <time>2013-09-14T13:21:24.000Z</time>
      </trkpt>
      <trkpt lat="44.75031" lon="5.6073">
        <ele>1453</ele>
        <time>2013-09-14T13:21:28.000Z</time>
      </trkpt>
      <trkpt lat="44.75032" lon="5.60736">
        <ele>1454</ele>
        <time>2013-09-14T13:21:30.000Z</time>
      </trkpt>
      <trkpt lat="44.75034" lon="5.60743">
        <ele>1454</ele>
        <time>2013-09-14T13:21:33.000Z</time>
      </trkpt>
      <trkpt lat="44.75034" lon="5.60749">
        <ele>1454</ele>
        <time>2013-09-14T13:21:38.000Z</time>
      </trkpt>
      <trkpt lat="44.75037" lon="5.60755">
        <ele>1454</ele>
        <time>2013-09-14T13:21:44.000Z</time>
      </trkpt>
      <trkpt lat="44.75037" lon="5.60755">
        <ele>1454</ele>
        <time>2013-09-14T13:21:44.000Z</time>
      </trkpt>
      <trkpt lat="44.75037" lon="5.60755">
        <ele>1454</ele>
        <time>2013-09-14T13:21:54.000Z</time>
      </trkpt>
      <trkpt lat="44.75035" lon="5.60762">
        <ele>1454</ele>
        <time>2013-09-14T13:22:24.000Z</time>
      </trkpt>
      <trkpt lat="44.75035" lon="5.60762">
        <ele>1454</ele>
        <time>2013-09-14T13:22:24.000Z</time>
      </trkpt>
      <trkpt lat="44.75035" lon="5.60762">
        <ele>1454</ele>
        <time>2013-09-14T13:22:26.000Z</time>
      </trkpt>
      <trkpt lat="44.75039" lon="5.60766">
        <ele>1454</ele>
        <time>2013-09-14T13:22:51.000Z</time>
      </trkpt>
      <trkpt lat="44.75039" lon="5.60766">
        <ele>1454</ele>
        <time>2013-09-14T13:22:51.000Z</time>
      </trkpt>
      <trkpt lat="44.75039" lon="5.60766">
        <ele>1456</ele>
        <time>2013-09-14T13:23:00.000Z</time>
      </trkpt>
      <trkpt lat="44.75042" lon="5.60773">
        <ele>1457</ele>
        <time>2013-09-14T13:23:09.000Z</time>
      </trkpt>
      <trkpt lat="44.75044" lon="5.60779">
        <ele>1458</ele>
        <time>2013-09-14T13:23:13.000Z</time>
      </trkpt>
      <trkpt lat="44.75044" lon="5.60786">
        <ele>1458</ele>
        <time>2013-09-14T13:23:16.000Z</time>
      </trkpt>
      <trkpt lat="44.75042" lon="5.60792">
        <ele>1459</ele>
        <time>2013-09-14T13:23:20.000Z</time>
      </trkpt>
      <trkpt lat="44.75042" lon="5.60798">
        <ele>1459</ele>
        <time>2013-09-14T13:23:23.000Z</time>
      </trkpt>
      <trkpt lat="44.75042" lon="5.60805">
        <ele>1459</ele>
        <time>2013-09-14T13:23:25.000Z</time>
      </trkpt>
      <trkpt lat="44.75042" lon="5.60811">
        <ele>1460</ele>
        <time>2013-09-14T13:23:28.000Z</time>
      </trkpt>
      <trkpt lat="44.7504" lon="5.60818">
        <ele>1460</ele>
        <time>2013-09-14T13:23:32.000Z</time>
      </trkpt>
      <trkpt lat="44.7504" lon="5.60824">
        <ele>1461</ele>
        <time>2013-09-14T13:23:36.000Z</time>
      </trkpt>
      <trkpt lat="44.75042" lon="5.6083">
        <ele>1461</ele>
        <time>2013-09-14T13:23:38.000Z</time>
      </trkpt>
      <trkpt lat="44.75042" lon="5.60837">
        <ele>1461</ele>
        <time>2013-09-14T13:23:41.000Z</time>
      </trkpt>
      <trkpt lat="44.75042" lon="5.60843">
        <ele>1461</ele>
        <time>2013-09-14T13:23:43.000Z</time>
      </trkpt>
      <trkpt lat="44.75044" lon="5.6085">
        <ele>1461</ele>
        <time>2013-09-14T13:23:45.000Z</time>
      </trkpt>
      <trkpt lat="44.75046" lon="5.60858">
        <ele>1461</ele>
        <time>2013-09-14T13:23:47.000Z</time>
      </trkpt>
      <trkpt lat="44.75049" lon="5.60865">
        <ele>1462</ele>
        <time>2013-09-14T13:23:49.000Z</time>
      </trkpt>
      <trkpt lat="44.75051" lon="5.60871">
        <ele>1462</ele>
        <time>2013-09-14T13:23:51.000Z</time>
      </trkpt>
      <trkpt lat="44.75054" lon="5.60878">
        <ele>1462</ele>
        <time>2013-09-14T13:23:53.000Z</time>
      </trkpt>
      <trkpt lat="44.75058" lon="5.60886">
        <ele>1462</ele>
        <time>2013-09-14T13:23:55.000Z</time>
      </trkpt>
      <trkpt lat="44.75061" lon="5.60893">
        <ele>1462</ele>
        <time>2013-09-14T13:23:57.000Z</time>
      </trkpt>
      <trkpt lat="44.75063" lon="5.60901">
        <ele>1462</ele>
        <time>2013-09-14T13:24:00.000Z</time>
      </trkpt>
      <trkpt lat="44.75064" lon="5.60908">
        <ele>1462</ele>
        <time>2013-09-14T13:24:03.000Z</time>
      </trkpt>
      <trkpt lat="44.75064" lon="5.60914">
        <ele>1463</ele>
        <time>2013-09-14T13:24:05.000Z</time>
      </trkpt>
      <trkpt lat="44.75065" lon="5.60921">
        <ele>1463</ele>
        <time>2013-09-14T13:24:07.000Z</time>
      </trkpt>
      <trkpt lat="44.75066" lon="5.60927">
        <ele>1463</ele>
        <time>2013-09-14T13:24:09.000Z</time>
      </trkpt>
      <trkpt lat="44.75066" lon="5.60934">
        <ele>1463</ele>
        <time>2013-09-14T13:24:12.000Z</time>
      </trkpt>
      <trkpt lat="44.75066" lon="5.6094">
        <ele>1463</ele>
        <time>2013-09-14T13:24:15.000Z</time>
      </trkpt>
      <trkpt lat="44.75065" lon="5.60946">
        <ele>1464</ele>
        <time>2013-09-14T13:24:18.000Z</time>
      </trkpt>
      <trkpt lat="44.75065" lon="5.60953">
        <ele>1464</ele>
        <time>2013-09-14T13:24:21.000Z</time>
      </trkpt>
      <trkpt lat="44.75065" lon="5.60959">
        <ele>1464</ele>
        <time>2013-09-14T13:24:24.000Z</time>
      </trkpt>
      <trkpt lat="44.75064" lon="5.60966">
        <ele>1464</ele>
        <time>2013-09-14T13:24:27.000Z</time>
      </trkpt>
      <trkpt lat="44.75064" lon="5.60972">
        <ele>1464</ele>
        <time>2013-09-14T13:24:30.000Z</time>
      </trkpt>
      <trkpt lat="44.7506" lon="5.60979">
        <ele>1465</ele>
        <time>2013-09-14T13:24:34.000Z</time>
      </trkpt>
      <trkpt lat="44.7506" lon="5.60987">
        <ele>1465</ele>
        <time>2013-09-14T13:24:37.000Z</time>
      </trkpt>
      <trkpt lat="44.75059" lon="5.60996">
        <ele>1465</ele>
        <time>2013-09-14T13:24:40.000Z</time>
      </trkpt>
      <trkpt lat="44.7506" lon="5.61002">
        <ele>1465</ele>
        <time>2013-09-14T13:24:43.000Z</time>
      </trkpt>
      <trkpt lat="44.75061" lon="5.61009">
        <ele>1465</ele>
        <time>2013-09-14T13:24:45.000Z</time>
      </trkpt>
      <trkpt lat="44.75062" lon="5.61015">
        <ele>1465</ele>
        <time>2013-09-14T13:24:47.000Z</time>
      </trkpt>
      <trkpt lat="44.75063" lon="5.61022">
        <ele>1465</ele>
        <time>2013-09-14T13:24:49.000Z</time>
      </trkpt>
      <trkpt lat="44.75064" lon="5.61028">
        <ele>1465</ele>
        <time>2013-09-14T13:24:51.000Z</time>
      </trkpt>
      <trkpt lat="44.75066" lon="5.61034">
        <ele>1465</ele>
        <time>2013-09-14T13:24:54.000Z</time>
      </trkpt>
      <trkpt lat="44.75067" lon="5.61041">
        <ele>1465</ele>
        <time>2013-09-14T13:24:56.000Z</time>
      </trkpt>
      <trkpt lat="44.75068" lon="5.61049">
        <ele>1465</ele>
        <time>2013-09-14T13:24:59.000Z</time>
      </trkpt>
      <trkpt lat="44.75069" lon="5.61056">
        <ele>1465</ele>
        <time>2013-09-14T13:25:02.000Z</time>
      </trkpt>
      <trkpt lat="44.75069" lon="5.61062">
        <ele>1465</ele>
        <time>2013-09-14T13:25:05.000Z</time>
      </trkpt>
      <trkpt lat="44.7507" lon="5.61071">
        <ele>1465</ele>
        <time>2013-09-14T13:25:08.000Z</time>
      </trkpt>
      <trkpt lat="44.75072" lon="5.61077">
        <ele>1466</ele>
        <time>2013-09-14T13:25:11.000Z</time>
      </trkpt>
      <trkpt lat="44.75072" lon="5.61084">
        <ele>1466</ele>
        <time>2013-09-14T13:25:14.000Z</time>
      </trkpt>
      <trkpt lat="44.75073" lon="5.6109">
        <ele>1466</ele>
        <time>2013-09-14T13:25:16.000Z</time>
      </trkpt>
      <trkpt lat="44.75073" lon="5.6109">
        <ele>1466</ele>
        <time>2013-09-14T13:25:16.000Z</time>
      </trkpt>
      <trkpt lat="44.75073" lon="5.6109">
        <ele>1466</ele>
        <time>2013-09-14T13:25:17.000Z</time>
      </trkpt>
      <trkpt lat="44.75072" lon="5.61097">
        <ele>1466</ele>
        <time>2013-09-14T13:25:20.000Z</time>
      </trkpt>
      <trkpt lat="44.75072" lon="5.61103">
        <ele>1466</ele>
        <time>2013-09-14T13:25:23.000Z</time>
      </trkpt>
      <trkpt lat="44.75073" lon="5.6111">
        <ele>1466</ele>
        <time>2013-09-14T13:25:26.000Z</time>
      </trkpt>
      <trkpt lat="44.75073" lon="5.61116">
        <ele>1466</ele>
        <time>2013-09-14T13:25:29.000Z</time>
      </trkpt>
      <trkpt lat="44.75073" lon="5.61116">
        <ele>1466</ele>
        <time>2013-09-14T13:25:29.000Z</time>
      </trkpt>
      <trkpt lat="44.75073" lon="5.61116">
        <ele>1466</ele>
        <time>2013-09-14T13:25:30.000Z</time>
      </trkpt>
      <trkpt lat="44.75074" lon="5.61122">
        <ele>1466</ele>
        <time>2013-09-14T13:25:33.000Z</time>
      </trkpt>
      <trkpt lat="44.75074" lon="5.61129">
        <ele>1465</ele>
        <time>2013-09-14T13:25:36.000Z</time>
      </trkpt>
      <trkpt lat="44.75075" lon="5.61135">
        <ele>1465</ele>
        <time>2013-09-14T13:25:39.000Z</time>
      </trkpt>
      <trkpt lat="44.75075" lon="5.61142">
        <ele>1464</ele>
        <time>2013-09-14T13:25:42.000Z</time>
      </trkpt>
      <trkpt lat="44.75075" lon="5.61148">
        <ele>1463</ele>
        <time>2013-09-14T13:25:44.000Z</time>
      </trkpt>
      <trkpt lat="44.75075" lon="5.61155">
        <ele>1463</ele>
        <time>2013-09-14T13:25:46.000Z</time>
      </trkpt>
      <trkpt lat="44.75076" lon="5.61161">
        <ele>1462</ele>
        <time>2013-09-14T13:25:48.000Z</time>
      </trkpt>
      <trkpt lat="44.75077" lon="5.61167">
        <ele>1462</ele>
        <time>2013-09-14T13:25:51.000Z</time>
      </trkpt>
      <trkpt lat="44.75077" lon="5.61176">
        <ele>1462</ele>
        <time>2013-09-14T13:25:53.000Z</time>
      </trkpt>
      <trkpt lat="44.75076" lon="5.61182">
        <ele>1461</ele>
        <time>2013-09-14T13:25:56.000Z</time>
      </trkpt>
      <trkpt lat="44.75075" lon="5.61189">
        <ele>1461</ele>
        <time>2013-09-14T13:25:58.000Z</time>
      </trkpt>
      <trkpt lat="44.75075" lon="5.61195">
        <ele>1460</ele>
        <time>2013-09-14T13:26:01.000Z</time>
      </trkpt>
      <trkpt lat="44.75075" lon="5.61195">
        <ele>1460</ele>
        <time>2013-09-14T13:26:01.000Z</time>
      </trkpt>
      <trkpt lat="44.75075" lon="5.61195">
        <ele>1460</ele>
        <time>2013-09-14T13:26:02.000Z</time>
      </trkpt>
      <trkpt lat="44.75076" lon="5.61202">
        <ele>1460</ele>
        <time>2013-09-14T13:26:07.000Z</time>
      </trkpt>
      <trkpt lat="44.75076" lon="5.61202">
        <ele>1460</ele>
        <time>2013-09-14T13:26:07.000Z</time>
      </trkpt>
      <trkpt lat="44.75076" lon="5.61202">
        <ele>1460</ele>
        <time>2013-09-14T13:26:09.000Z</time>
      </trkpt>
      <trkpt lat="44.75077" lon="5.61208">
        <ele>1460</ele>
        <time>2013-09-14T13:26:13.000Z</time>
      </trkpt>
      <trkpt lat="44.75077" lon="5.61208">
        <ele>1460</ele>
        <time>2013-09-14T13:26:13.000Z</time>
      </trkpt>
      <trkpt lat="44.75077" lon="5.61208">
        <ele>1460</ele>
        <time>2013-09-14T13:26:14.000Z</time>
      </trkpt>
      <trkpt lat="44.75081" lon="5.61215">
        <ele>1460</ele>
        <time>2013-09-14T13:26:23.000Z</time>
      </trkpt>
      <trkpt lat="44.75081" lon="5.61215">
        <ele>1460</ele>
        <time>2013-09-14T13:26:23.000Z</time>
      </trkpt>
      <trkpt lat="44.75081" lon="5.61215">
        <ele>1460</ele>
        <time>2013-09-14T13:26:26.000Z</time>
      </trkpt>
      <trkpt lat="44.75082" lon="5.61221">
        <ele>1460</ele>
        <time>2013-09-14T13:26:52.000Z</time>
      </trkpt>
      <trkpt lat="44.75082" lon="5.61221">
        <ele>1460</ele>
        <time>2013-09-14T13:26:52.000Z</time>
      </trkpt>
      <trkpt lat="44.75082" lon="5.61221">
        <ele>1460</ele>
        <time>2013-09-14T13:26:55.000Z</time>
      </trkpt>
      <trkpt lat="44.75083" lon="5.61228">
        <ele>1461</ele>
        <time>2013-09-14T13:27:55.000Z</time>
      </trkpt>
      <trkpt lat="44.75083" lon="5.61228">
        <ele>1461</ele>
        <time>2013-09-14T13:27:55.000Z</time>
      </trkpt>
      <trkpt lat="44.75083" lon="5.61228">
        <ele>1461</ele>
        <time>2013-09-14T13:27:57.000Z</time>
      </trkpt>
      <trkpt lat="44.75085" lon="5.61234">
        <ele>1461</ele>
        <time>2013-09-14T13:28:08.000Z</time>
      </trkpt>
      <trkpt lat="44.75085" lon="5.61234">
        <ele>1461</ele>
        <time>2013-09-14T13:28:08.000Z</time>
      </trkpt>
      <trkpt lat="44.75085" lon="5.61234">
        <ele>1462</ele>
        <time>2013-09-14T13:28:21.000Z</time>
      </trkpt>
      <trkpt lat="44.7508" lon="5.61232">
        <ele>1463</ele>
        <time>2013-09-14T13:28:33.000Z</time>
      </trkpt>
      <trkpt lat="44.7508" lon="5.61232">
        <ele>1463</ele>
        <time>2013-09-14T13:28:33.000Z</time>
      </trkpt>
      <trkpt lat="44.7508" lon="5.61232">
        <ele>1463</ele>
        <time>2013-09-14T13:28:35.000Z</time>
      </trkpt>
      <trkpt lat="44.75076" lon="5.6123">
        <ele>1464</ele>
        <time>2013-09-14T13:29:12.000Z</time>
      </trkpt>
      <trkpt lat="44.75076" lon="5.6123">
        <ele>1464</ele>
        <time>2013-09-14T13:29:12.000Z</time>
      </trkpt>
      <trkpt lat="44.75076" lon="5.6123">
        <ele>1464</ele>
        <time>2013-09-14T13:29:14.000Z</time>
      </trkpt>
      <trkpt lat="44.7508" lon="5.61228">
        <ele>1465</ele>
        <time>2013-09-14T13:29:39.000Z</time>
      </trkpt>
      <trkpt lat="44.7508" lon="5.61228">
        <ele>1465</ele>
        <time>2013-09-14T13:29:39.000Z</time>
      </trkpt>
      <trkpt lat="44.7508" lon="5.61228">
        <ele>1467</ele>
        <time>2013-09-14T13:29:44.000Z</time>
      </trkpt>
      <trkpt lat="44.75084" lon="5.6123">
        <ele>1468</ele>
        <time>2013-09-14T13:30:04.000Z</time>
      </trkpt>
      <trkpt lat="44.75089" lon="5.61232">
        <ele>1469</ele>
        <time>2013-09-14T13:30:10.000Z</time>
      </trkpt>
      <trkpt lat="44.75093" lon="5.6123">
        <ele>1469</ele>
        <time>2013-09-14T13:30:15.000Z</time>
      </trkpt>
      <trkpt lat="44.75093" lon="5.6123">
        <ele>1469</ele>
        <time>2013-09-14T13:30:15.000Z</time>
      </trkpt>
      <trkpt lat="44.75093" lon="5.6123">
        <ele>1469</ele>
        <time>2013-09-14T13:30:21.000Z</time>
      </trkpt>
      <trkpt lat="44.75098" lon="5.61228">
        <ele>1469</ele>
        <time>2013-09-14T13:30:28.000Z</time>
      </trkpt>
      <trkpt lat="44.75103" lon="5.61225">
        <ele>1469</ele>
        <time>2013-09-14T13:30:34.000Z</time>
      </trkpt>
      <trkpt lat="44.75107" lon="5.61221">
        <ele>1470</ele>
        <time>2013-09-14T13:30:41.000Z</time>
      </trkpt>
      <trkpt lat="44.75107" lon="5.61221">
        <ele>1470</ele>
        <time>2013-09-14T13:30:41.000Z</time>
      </trkpt>
      <trkpt lat="44.75107" lon="5.61221">
        <ele>1470</ele>
        <time>2013-09-14T13:30:42.000Z</time>
      </trkpt>
      <trkpt lat="44.75111" lon="5.61217">
        <ele>1470</ele>
        <time>2013-09-14T13:30:49.000Z</time>
      </trkpt>
      <trkpt lat="44.75114" lon="5.6121">
        <ele>1470</ele>
        <time>2013-09-14T13:30:55.000Z</time>
      </trkpt>
      <trkpt lat="44.75114" lon="5.6121">
        <ele>1470</ele>
        <time>2013-09-14T13:30:55.000Z</time>
      </trkpt>
      <trkpt lat="44.75114" lon="5.6121">
        <ele>1470</ele>
        <time>2013-09-14T13:30:56.000Z</time>
      </trkpt>
      <trkpt lat="44.75118" lon="5.61204">
        <ele>1470</ele>
        <time>2013-09-14T13:31:02.000Z</time>
      </trkpt>
      <trkpt lat="44.75118" lon="5.61204">
        <ele>1470</ele>
        <time>2013-09-14T13:31:02.000Z</time>
      </trkpt>
      <trkpt lat="44.75118" lon="5.61204">
        <ele>1471</ele>
        <time>2013-09-14T13:31:03.000Z</time>
      </trkpt>
      <trkpt lat="44.7512" lon="5.61198">
        <ele>1471</ele>
        <time>2013-09-14T13:31:07.000Z</time>
      </trkpt>
      <trkpt lat="44.7512" lon="5.61198">
        <ele>1471</ele>
        <time>2013-09-14T13:31:07.000Z</time>
      </trkpt>
      <trkpt lat="44.7512" lon="5.61198">
        <ele>1471</ele>
        <time>2013-09-14T13:31:08.000Z</time>
      </trkpt>
      <trkpt lat="44.75123" lon="5.61191">
        <ele>1471</ele>
        <time>2013-09-14T13:31:13.000Z</time>
      </trkpt>
      <trkpt lat="44.75125" lon="5.61185">
        <ele>1471</ele>
        <time>2013-09-14T13:31:18.000Z</time>
      </trkpt>
      <trkpt lat="44.75128" lon="5.61178">
        <ele>1471</ele>
        <time>2013-09-14T13:31:24.000Z</time>
      </trkpt>
      <trkpt lat="44.75133" lon="5.61174">
        <ele>1472</ele>
        <time>2013-09-14T13:31:29.000Z</time>
      </trkpt>
      <trkpt lat="44.75136" lon="5.61167">
        <ele>1472</ele>
        <time>2013-09-14T13:31:34.000Z</time>
      </trkpt>
      <trkpt lat="44.7514" lon="5.61161">
        <ele>1471</ele>
        <time>2013-09-14T13:31:41.000Z</time>
      </trkpt>
      <trkpt lat="44.7514" lon="5.61161">
        <ele>1471</ele>
        <time>2013-09-14T13:31:41.000Z</time>
      </trkpt>
      <trkpt lat="44.7514" lon="5.61161">
        <ele>1471</ele>
        <time>2013-09-14T13:31:42.000Z</time>
      </trkpt>
      <trkpt lat="44.75143" lon="5.61155">
        <ele>1471</ele>
        <time>2013-09-14T13:31:46.000Z</time>
      </trkpt>
      <trkpt lat="44.75143" lon="5.61155">
        <ele>1471</ele>
        <time>2013-09-14T13:31:46.000Z</time>
      </trkpt>
      <trkpt lat="44.75143" lon="5.61155">
        <ele>1471</ele>
        <time>2013-09-14T13:31:47.000Z</time>
      </trkpt>
      <trkpt lat="44.75146" lon="5.61148">
        <ele>1471</ele>
        <time>2013-09-14T13:31:52.000Z</time>
      </trkpt>
      <trkpt lat="44.75146" lon="5.61142">
        <ele>1471</ele>
        <time>2013-09-14T13:31:56.000Z</time>
      </trkpt>
      <trkpt lat="44.75146" lon="5.61142">
        <ele>1471</ele>
        <time>2013-09-14T13:31:56.000Z</time>
      </trkpt>
      <trkpt lat="44.75146" lon="5.61142">
        <ele>1471</ele>
        <time>2013-09-14T13:31:57.000Z</time>
      </trkpt>
      <trkpt lat="44.75147" lon="5.61135">
        <ele>1471</ele>
        <time>2013-09-14T13:32:00.000Z</time>
      </trkpt>
      <trkpt lat="44.75147" lon="5.61129">
        <ele>1471</ele>
        <time>2013-09-14T13:32:03.000Z</time>
      </trkpt>
      <trkpt lat="44.75149" lon="5.61122">
        <ele>1471</ele>
        <time>2013-09-14T13:32:07.000Z</time>
      </trkpt>
      <trkpt lat="44.7515" lon="5.61116">
        <ele>1471</ele>
        <time>2013-09-14T13:32:11.000Z</time>
      </trkpt>
      <trkpt lat="44.75151" lon="5.6111">
        <ele>1471</ele>
        <time>2013-09-14T13:32:15.000Z</time>
      </trkpt>
      <trkpt lat="44.75151" lon="5.6111">
        <ele>1471</ele>
        <time>2013-09-14T13:32:15.000Z</time>
      </trkpt>
      <trkpt lat="44.75151" lon="5.6111">
        <ele>1471</ele>
        <time>2013-09-14T13:32:16.000Z</time>
      </trkpt>
      <trkpt lat="44.75153" lon="5.61103">
        <ele>1471</ele>
        <time>2013-09-14T13:32:30.000Z</time>
      </trkpt>
      <trkpt lat="44.75156" lon="5.61099">
        <ele>1471</ele>
        <time>2013-09-14T13:32:33.000Z</time>
      </trkpt>
      <trkpt lat="44.75158" lon="5.61092">
        <ele>1470</ele>
        <time>2013-09-14T13:32:37.000Z</time>
      </trkpt>
      <trkpt lat="44.75162" lon="5.61086">
        <ele>1470</ele>
        <time>2013-09-14T13:32:42.000Z</time>
      </trkpt>
      <trkpt lat="44.75162" lon="5.61086">
        <ele>1470</ele>
        <time>2013-09-14T13:32:42.000Z</time>
      </trkpt>
      <trkpt lat="44.75162" lon="5.61086">
        <ele>1469</ele>
        <time>2013-09-14T13:32:43.000Z</time>
      </trkpt>
      <trkpt lat="44.75164" lon="5.6108">
        <ele>1469</ele>
        <time>2013-09-14T13:32:50.000Z</time>
      </trkpt>
      <trkpt lat="44.75166" lon="5.61073">
        <ele>1471</ele>
        <time>2013-09-14T13:33:06.000Z</time>
      </trkpt>
      <trkpt lat="44.75166" lon="5.61073">
        <ele>1471</ele>
        <time>2013-09-14T13:33:06.000Z</time>
      </trkpt>
      <trkpt lat="44.75166" lon="5.61073">
        <ele>1472</ele>
        <time>2013-09-14T13:33:07.000Z</time>
      </trkpt>
      <trkpt lat="44.7517" lon="5.61067">
        <ele>1474</ele>
        <time>2013-09-14T13:33:14.000Z</time>
      </trkpt>
      <trkpt lat="44.7517" lon="5.61067">
        <ele>1474</ele>
        <time>2013-09-14T13:33:14.000Z</time>
      </trkpt>
      <trkpt lat="44.7517" lon="5.61067">
        <ele>1474</ele>
        <time>2013-09-14T13:33:15.000Z</time>
      </trkpt>
      <trkpt lat="44.75174" lon="5.6106">
        <ele>1476</ele>
        <time>2013-09-14T13:33:23.000Z</time>
      </trkpt>
      <trkpt lat="44.75174" lon="5.6106">
        <ele>1476</ele>
        <time>2013-09-14T13:33:23.000Z</time>
      </trkpt>
      <trkpt lat="44.75174" lon="5.6106">
        <ele>1476</ele>
        <time>2013-09-14T13:33:24.000Z</time>
      </trkpt>
      <trkpt lat="44.75178" lon="5.61054">
        <ele>1479</ele>
        <time>2013-09-14T13:34:06.000Z</time>
      </trkpt>
      <trkpt lat="44.75178" lon="5.61054">
        <ele>1479</ele>
        <time>2013-09-14T13:34:06.000Z</time>
      </trkpt>
      <trkpt lat="44.75178" lon="5.61054">
        <ele>1479</ele>
        <time>2013-09-14T13:34:07.000Z</time>
      </trkpt>
      <trkpt lat="44.75182" lon="5.61047">
        <ele>1479</ele>
        <time>2013-09-14T13:34:14.000Z</time>
      </trkpt>
      <trkpt lat="44.75182" lon="5.61047">
        <ele>1479</ele>
        <time>2013-09-14T13:34:14.000Z</time>
      </trkpt>
      <trkpt lat="44.75182" lon="5.61047">
        <ele>1479</ele>
        <time>2013-09-14T13:34:18.000Z</time>
      </trkpt>
      <trkpt lat="44.75184" lon="5.61041">
        <ele>1479</ele>
        <time>2013-09-14T13:34:23.000Z</time>
      </trkpt>
      <trkpt lat="44.75184" lon="5.61041">
        <ele>1479</ele>
        <time>2013-09-14T13:34:23.000Z</time>
      </trkpt>
      <trkpt lat="44.75184" lon="5.61041">
        <ele>1479</ele>
        <time>2013-09-14T13:34:24.000Z</time>
      </trkpt>
      <trkpt lat="44.75187" lon="5.61034">
        <ele>1480</ele>
        <time>2013-09-14T13:34:30.000Z</time>
      </trkpt>
      <trkpt lat="44.75187" lon="5.61034">
        <ele>1480</ele>
        <time>2013-09-14T13:34:30.000Z</time>
      </trkpt>
      <trkpt lat="44.75187" lon="5.61034">
        <ele>1480</ele>
        <time>2013-09-14T13:34:31.000Z</time>
      </trkpt>
      <trkpt lat="44.75192" lon="5.6103">
        <ele>1480</ele>
        <time>2013-09-14T13:34:38.000Z</time>
      </trkpt>
      <trkpt lat="44.75192" lon="5.6103">
        <ele>1480</ele>
        <time>2013-09-14T13:34:38.000Z</time>
      </trkpt>
      <trkpt lat="44.75192" lon="5.6103">
        <ele>1480</ele>
        <time>2013-09-14T13:34:39.000Z</time>
      </trkpt>
      <trkpt lat="44.75195" lon="5.61024">
        <ele>1480</ele>
        <time>2013-09-14T13:34:51.000Z</time>
      </trkpt>
      <trkpt lat="44.75195" lon="5.61024">
        <ele>1480</ele>
        <time>2013-09-14T13:34:51.000Z</time>
      </trkpt>
      <trkpt lat="44.75195" lon="5.61024">
        <ele>1480</ele>
        <time>2013-09-14T13:34:55.000Z</time>
      </trkpt>
      <trkpt lat="44.75197" lon="5.61017">
        <ele>1480</ele>
        <time>2013-09-14T13:35:01.000Z</time>
      </trkpt>
      <trkpt lat="44.75197" lon="5.61017">
        <ele>1480</ele>
        <time>2013-09-14T13:35:01.000Z</time>
      </trkpt>
      <trkpt lat="44.75197" lon="5.61017">
        <ele>1480</ele>
        <time>2013-09-14T13:35:04.000Z</time>
      </trkpt>
      <trkpt lat="44.752" lon="5.61011">
        <ele>1480</ele>
        <time>2013-09-14T13:35:22.000Z</time>
      </trkpt>
      <trkpt lat="44.752" lon="5.61011">
        <ele>1480</ele>
        <time>2013-09-14T13:35:22.000Z</time>
      </trkpt>
      <trkpt lat="44.752" lon="5.61011">
        <ele>1480</ele>
        <time>2013-09-14T13:35:23.000Z</time>
      </trkpt>
      <trkpt lat="44.75202" lon="5.61004">
        <ele>1480</ele>
        <time>2013-09-14T13:35:33.000Z</time>
      </trkpt>
      <trkpt lat="44.75204" lon="5.60998">
        <ele>1481</ele>
        <time>2013-09-14T13:35:37.000Z</time>
      </trkpt>
      <trkpt lat="44.75207" lon="5.60992">
        <ele>1481</ele>
        <time>2013-09-14T13:35:42.000Z</time>
      </trkpt>
      <trkpt lat="44.75207" lon="5.60992">
        <ele>1481</ele>
        <time>2013-09-14T13:35:42.000Z</time>
      </trkpt>
      <trkpt lat="44.75207" lon="5.60992">
        <ele>1481</ele>
        <time>2013-09-14T13:35:43.000Z</time>
      </trkpt>
      <trkpt lat="44.7521" lon="5.60985">
        <ele>1482</ele>
        <time>2013-09-14T13:35:48.000Z</time>
      </trkpt>
      <trkpt lat="44.7521" lon="5.60985">
        <ele>1482</ele>
        <time>2013-09-14T13:35:48.000Z</time>
      </trkpt>
      <trkpt lat="44.7521" lon="5.60985">
        <ele>1482</ele>
        <time>2013-09-14T13:35:49.000Z</time>
      </trkpt>
      <trkpt lat="44.75212" lon="5.60979">
        <ele>1482</ele>
        <time>2013-09-14T13:35:54.000Z</time>
      </trkpt>
      <trkpt lat="44.75212" lon="5.60979">
        <ele>1482</ele>
        <time>2013-09-14T13:35:54.000Z</time>
      </trkpt>
      <trkpt lat="44.75212" lon="5.60979">
        <ele>1482</ele>
        <time>2013-09-14T13:35:55.000Z</time>
      </trkpt>
      <trkpt lat="44.75213" lon="5.60972">
        <ele>1483</ele>
        <time>2013-09-14T13:36:02.000Z</time>
      </trkpt>
      <trkpt lat="44.75213" lon="5.60972">
        <ele>1483</ele>
        <time>2013-09-14T13:36:02.000Z</time>
      </trkpt>
      <trkpt lat="44.75213" lon="5.60972">
        <ele>1483</ele>
        <time>2013-09-14T13:36:03.000Z</time>
      </trkpt>
      <trkpt lat="44.75215" lon="5.60966">
        <ele>1483</ele>
        <time>2013-09-14T13:36:08.000Z</time>
      </trkpt>
      <trkpt lat="44.75215" lon="5.60966">
        <ele>1483</ele>
        <time>2013-09-14T13:36:08.000Z</time>
      </trkpt>
      <trkpt lat="44.75215" lon="5.60966">
        <ele>1483</ele>
        <time>2013-09-14T13:36:09.000Z</time>
      </trkpt>
      <trkpt lat="44.75216" lon="5.60959">
        <ele>1483</ele>
        <time>2013-09-14T13:36:13.000Z</time>
      </trkpt>
      <trkpt lat="44.75216" lon="5.60959">
        <ele>1483</ele>
        <time>2013-09-14T13:36:13.000Z</time>
      </trkpt>
      <trkpt lat="44.75216" lon="5.60959">
        <ele>1483</ele>
        <time>2013-09-14T13:36:14.000Z</time>
      </trkpt>
      <trkpt lat="44.75217" lon="5.60953">
        <ele>1483</ele>
        <time>2013-09-14T13:36:20.000Z</time>
      </trkpt>
      <trkpt lat="44.75221" lon="5.60946">
        <ele>1484</ele>
        <time>2013-09-14T13:36:27.000Z</time>
      </trkpt>
      <trkpt lat="44.75223" lon="5.6094">
        <ele>1484</ele>
        <time>2013-09-14T13:36:32.000Z</time>
      </trkpt>
      <trkpt lat="44.75225" lon="5.60934">
        <ele>1485</ele>
        <time>2013-09-14T13:36:37.000Z</time>
      </trkpt>
      <trkpt lat="44.75226" lon="5.60927">
        <ele>1486</ele>
        <time>2013-09-14T13:36:45.000Z</time>
      </trkpt>
      <trkpt lat="44.75226" lon="5.60927">
        <ele>1486</ele>
        <time>2013-09-14T13:36:45.000Z</time>
      </trkpt>
      <trkpt lat="44.75226" lon="5.60927">
        <ele>1486</ele>
        <time>2013-09-14T13:36:46.000Z</time>
      </trkpt>
      <trkpt lat="44.75226" lon="5.60921">
        <ele>1486</ele>
        <time>2013-09-14T13:36:50.000Z</time>
      </trkpt>
      <trkpt lat="44.75226" lon="5.60921">
        <ele>1486</ele>
        <time>2013-09-14T13:36:50.000Z</time>
      </trkpt>
      <trkpt lat="44.75226" lon="5.60921">
        <ele>1486</ele>
        <time>2013-09-14T13:36:51.000Z</time>
      </trkpt>
      <trkpt lat="44.75227" lon="5.60914">
        <ele>1487</ele>
        <time>2013-09-14T13:36:56.000Z</time>
      </trkpt>
      <trkpt lat="44.75227" lon="5.60914">
        <ele>1487</ele>
        <time>2013-09-14T13:36:56.000Z</time>
      </trkpt>
      <trkpt lat="44.75227" lon="5.60914">
        <ele>1487</ele>
        <time>2013-09-14T13:36:57.000Z</time>
      </trkpt>
      <trkpt lat="44.75227" lon="5.60908">
        <ele>1488</ele>
        <time>2013-09-14T13:37:00.000Z</time>
      </trkpt>
      <trkpt lat="44.75227" lon="5.60908">
        <ele>1488</ele>
        <time>2013-09-14T13:37:00.000Z</time>
      </trkpt>
      <trkpt lat="44.75227" lon="5.60908">
        <ele>1488</ele>
        <time>2013-09-14T13:37:01.000Z</time>
      </trkpt>
      <trkpt lat="44.75227" lon="5.60901">
        <ele>1489</ele>
        <time>2013-09-14T13:37:06.000Z</time>
      </trkpt>
      <trkpt lat="44.75228" lon="5.60895">
        <ele>1490</ele>
        <time>2013-09-14T13:37:15.000Z</time>
      </trkpt>
      <trkpt lat="44.75228" lon="5.60895">
        <ele>1490</ele>
        <time>2013-09-14T13:37:15.000Z</time>
      </trkpt>
      <trkpt lat="44.75228" lon="5.60895">
        <ele>1490</ele>
        <time>2013-09-14T13:37:17.000Z</time>
      </trkpt>
      <trkpt lat="44.75227" lon="5.60888">
        <ele>1490</ele>
        <time>2013-09-14T13:37:21.000Z</time>
      </trkpt>
      <trkpt lat="44.75227" lon="5.60888">
        <ele>1490</ele>
        <time>2013-09-14T13:37:21.000Z</time>
      </trkpt>
      <trkpt lat="44.75227" lon="5.60888">
        <ele>1490</ele>
        <time>2013-09-14T13:37:22.000Z</time>
      </trkpt>
      <trkpt lat="44.75227" lon="5.60882">
        <ele>1490</ele>
        <time>2013-09-14T13:37:26.000Z</time>
      </trkpt>
      <trkpt lat="44.75227" lon="5.60882">
        <ele>1490</ele>
        <time>2013-09-14T13:37:26.000Z</time>
      </trkpt>
      <trkpt lat="44.75227" lon="5.60882">
        <ele>1490</ele>
        <time>2013-09-14T13:37:27.000Z</time>
      </trkpt>
      <trkpt lat="44.75227" lon="5.60876">
        <ele>1490</ele>
        <time>2013-09-14T13:37:32.000Z</time>
      </trkpt>
      <trkpt lat="44.75229" lon="5.60869">
        <ele>1490</ele>
        <time>2013-09-14T13:37:38.000Z</time>
      </trkpt>
      <trkpt lat="44.75229" lon="5.60869">
        <ele>1490</ele>
        <time>2013-09-14T13:37:38.000Z</time>
      </trkpt>
      <trkpt lat="44.75229" lon="5.60869">
        <ele>1490</ele>
        <time>2013-09-14T13:37:39.000Z</time>
      </trkpt>
      <trkpt lat="44.7523" lon="5.60863">
        <ele>1490</ele>
        <time>2013-09-14T13:37:43.000Z</time>
      </trkpt>
      <trkpt lat="44.7523" lon="5.60863">
        <ele>1490</ele>
        <time>2013-09-14T13:37:43.000Z</time>
      </trkpt>
      <trkpt lat="44.7523" lon="5.60863">
        <ele>1490</ele>
        <time>2013-09-14T13:37:45.000Z</time>
      </trkpt>
      <trkpt lat="44.75231" lon="5.60856">
        <ele>1489</ele>
        <time>2013-09-14T13:37:51.000Z</time>
      </trkpt>
      <trkpt lat="44.75234" lon="5.6085">
        <ele>1490</ele>
        <time>2013-09-14T13:37:56.000Z</time>
      </trkpt>
      <trkpt lat="44.75236" lon="5.60843">
        <ele>1490</ele>
        <time>2013-09-14T13:38:01.000Z</time>
      </trkpt>
      <trkpt lat="44.75236" lon="5.60843">
        <ele>1490</ele>
        <time>2013-09-14T13:38:01.000Z</time>
      </trkpt>
      <trkpt lat="44.75236" lon="5.60843">
        <ele>1490</ele>
        <time>2013-09-14T13:38:02.000Z</time>
      </trkpt>
      <trkpt lat="44.75236" lon="5.60837">
        <ele>1490</ele>
        <time>2013-09-14T13:38:10.000Z</time>
      </trkpt>
      <trkpt lat="44.75236" lon="5.60837">
        <ele>1490</ele>
        <time>2013-09-14T13:38:10.000Z</time>
      </trkpt>
      <trkpt lat="44.75236" lon="5.60837">
        <ele>1490</ele>
        <time>2013-09-14T13:38:12.000Z</time>
      </trkpt>
      <trkpt lat="44.75237" lon="5.6083">
        <ele>1490</ele>
        <time>2013-09-14T13:38:18.000Z</time>
      </trkpt>
      <trkpt lat="44.75239" lon="5.60824">
        <ele>1490</ele>
        <time>2013-09-14T13:38:27.000Z</time>
      </trkpt>
      <trkpt lat="44.75239" lon="5.60824">
        <ele>1490</ele>
        <time>2013-09-14T13:38:27.000Z</time>
      </trkpt>
      <trkpt lat="44.75239" lon="5.60824">
        <ele>1490</ele>
        <time>2013-09-14T13:38:29.000Z</time>
      </trkpt>
      <trkpt lat="44.7524" lon="5.60818">
        <ele>1490</ele>
        <time>2013-09-14T13:38:35.000Z</time>
      </trkpt>
      <trkpt lat="44.7524" lon="5.60818">
        <ele>1490</ele>
        <time>2013-09-14T13:38:35.000Z</time>
      </trkpt>
      <trkpt lat="44.7524" lon="5.60818">
        <ele>1490</ele>
        <time>2013-09-14T13:38:36.000Z</time>
      </trkpt>
      <trkpt lat="44.75241" lon="5.60811">
        <ele>1492</ele>
        <time>2013-09-14T13:38:44.000Z</time>
      </trkpt>
      <trkpt lat="44.75241" lon="5.60811">
        <ele>1492</ele>
        <time>2013-09-14T13:38:44.000Z</time>
      </trkpt>
      <trkpt lat="44.75241" lon="5.60811">
        <ele>1492</ele>
        <time>2013-09-14T13:38:45.000Z</time>
      </trkpt>
      <trkpt lat="44.7524" lon="5.60805">
        <ele>1493</ele>
        <time>2013-09-14T13:38:58.000Z</time>
      </trkpt>
      <trkpt lat="44.7524" lon="5.60805">
        <ele>1493</ele>
        <time>2013-09-14T13:38:58.000Z</time>
      </trkpt>
      <trkpt lat="44.7524" lon="5.60805">
        <ele>1493</ele>
        <time>2013-09-14T13:39:02.000Z</time>
      </trkpt>
      <trkpt lat="44.75241" lon="5.60798">
        <ele>1494</ele>
        <time>2013-09-14T13:39:08.000Z</time>
      </trkpt>
      <trkpt lat="44.75241" lon="5.60798">
        <ele>1494</ele>
        <time>2013-09-14T13:39:08.000Z</time>
      </trkpt>
      <trkpt lat="44.75241" lon="5.60798">
        <ele>1494</ele>
        <time>2013-09-14T13:39:09.000Z</time>
      </trkpt>
      <trkpt lat="44.75241" lon="5.60792">
        <ele>1495</ele>
        <time>2013-09-14T13:39:15.000Z</time>
      </trkpt>
      <trkpt lat="44.75241" lon="5.60792">
        <ele>1495</ele>
        <time>2013-09-14T13:39:15.000Z</time>
      </trkpt>
      <trkpt lat="44.75241" lon="5.60792">
        <ele>1495</ele>
        <time>2013-09-14T13:39:23.000Z</time>
      </trkpt>
      <trkpt lat="44.75244" lon="5.60786">
        <ele>1495</ele>
        <time>2013-09-14T13:40:03.000Z</time>
      </trkpt>
      <trkpt lat="44.75244" lon="5.60786">
        <ele>1495</ele>
        <time>2013-09-14T13:40:03.000Z</time>
      </trkpt>
      <trkpt lat="44.75244" lon="5.60786">
        <ele>1495</ele>
        <time>2013-09-14T13:40:04.000Z</time>
      </trkpt>
      <trkpt lat="44.75245" lon="5.60779">
        <ele>1495</ele>
        <time>2013-09-14T13:40:09.000Z</time>
      </trkpt>
      <trkpt lat="44.75245" lon="5.60779">
        <ele>1495</ele>
        <time>2013-09-14T13:40:09.000Z</time>
      </trkpt>
      <trkpt lat="44.75245" lon="5.60779">
        <ele>1495</ele>
        <time>2013-09-14T13:40:10.000Z</time>
      </trkpt>
      <trkpt lat="44.75246" lon="5.60773">
        <ele>1496</ele>
        <time>2013-09-14T13:40:15.000Z</time>
      </trkpt>
      <trkpt lat="44.75246" lon="5.60773">
        <ele>1496</ele>
        <time>2013-09-14T13:40:15.000Z</time>
      </trkpt>
      <trkpt lat="44.75246" lon="5.60773">
        <ele>1496</ele>
        <time>2013-09-14T13:40:17.000Z</time>
      </trkpt>
      <trkpt lat="44.75248" lon="5.60766">
        <ele>1496</ele>
        <time>2013-09-14T13:40:23.000Z</time>
      </trkpt>
      <trkpt lat="44.75248" lon="5.60766">
        <ele>1496</ele>
        <time>2013-09-14T13:40:23.000Z</time>
      </trkpt>
      <trkpt lat="44.75248" lon="5.60766">
        <ele>1497</ele>
        <time>2013-09-14T13:40:25.000Z</time>
      </trkpt>
      <trkpt lat="44.75248" lon="5.6076">
        <ele>1497</ele>
        <time>2013-09-14T13:40:30.000Z</time>
      </trkpt>
      <trkpt lat="44.75248" lon="5.6076">
        <ele>1497</ele>
        <time>2013-09-14T13:40:30.000Z</time>
      </trkpt>
      <trkpt lat="44.75248" lon="5.6076">
        <ele>1497</ele>
        <time>2013-09-14T13:40:31.000Z</time>
      </trkpt>
      <trkpt lat="44.75248" lon="5.60753">
        <ele>1498</ele>
        <time>2013-09-14T13:40:36.000Z</time>
      </trkpt>
      <trkpt lat="44.75248" lon="5.60753">
        <ele>1498</ele>
        <time>2013-09-14T13:40:36.000Z</time>
      </trkpt>
      <trkpt lat="44.75248" lon="5.60753">
        <ele>1498</ele>
        <time>2013-09-14T13:40:38.000Z</time>
      </trkpt>
      <trkpt lat="44.7525" lon="5.60747">
        <ele>1499</ele>
        <time>2013-09-14T13:40:42.000Z</time>
      </trkpt>
      <trkpt lat="44.7525" lon="5.60747">
        <ele>1499</ele>
        <time>2013-09-14T13:40:42.000Z</time>
      </trkpt>
      <trkpt lat="44.7525" lon="5.60747">
        <ele>1499</ele>
        <time>2013-09-14T13:40:43.000Z</time>
      </trkpt>
      <trkpt lat="44.7525" lon="5.6074">
        <ele>1500</ele>
        <time>2013-09-14T13:40:49.000Z</time>
      </trkpt>
      <trkpt lat="44.7525" lon="5.6074">
        <ele>1500</ele>
        <time>2013-09-14T13:40:49.000Z</time>
      </trkpt>
      <trkpt lat="44.7525" lon="5.6074">
        <ele>1500</ele>
        <time>2013-09-14T13:40:53.000Z</time>
      </trkpt>
      <trkpt lat="44.7525" lon="5.60734">
        <ele>1501</ele>
        <time>2013-09-14T13:41:12.000Z</time>
      </trkpt>
      <trkpt lat="44.7525" lon="5.60734">
        <ele>1501</ele>
        <time>2013-09-14T13:41:12.000Z</time>
      </trkpt>
      <trkpt lat="44.7525" lon="5.60734">
        <ele>1501</ele>
        <time>2013-09-14T13:41:13.000Z</time>
      </trkpt>
      <trkpt lat="44.75251" lon="5.60728">
        <ele>1501</ele>
        <time>2013-09-14T13:41:18.000Z</time>
      </trkpt>
      <trkpt lat="44.75252" lon="5.60721">
        <ele>1502</ele>
        <time>2013-09-14T13:41:24.000Z</time>
      </trkpt>
      <trkpt lat="44.75252" lon="5.60721">
        <ele>1502</ele>
        <time>2013-09-14T13:41:24.000Z</time>
      </trkpt>
      <trkpt lat="44.75252" lon="5.60721">
        <ele>1502</ele>
        <time>2013-09-14T13:41:25.000Z</time>
      </trkpt>
      <trkpt lat="44.75255" lon="5.60715">
        <ele>1503</ele>
        <time>2013-09-14T13:41:31.000Z</time>
      </trkpt>
      <trkpt lat="44.75255" lon="5.60715">
        <ele>1503</ele>
        <time>2013-09-14T13:41:31.000Z</time>
      </trkpt>
      <trkpt lat="44.75255" lon="5.60715">
        <ele>1503</ele>
        <time>2013-09-14T13:41:32.000Z</time>
      </trkpt>
      <trkpt lat="44.75258" lon="5.60708">
        <ele>1504</ele>
        <time>2013-09-14T13:41:39.000Z</time>
      </trkpt>
      <trkpt lat="44.75262" lon="5.60704">
        <ele>1505</ele>
        <time>2013-09-14T13:41:47.000Z</time>
      </trkpt>
      <trkpt lat="44.75265" lon="5.60698">
        <ele>1506</ele>
        <time>2013-09-14T13:41:55.000Z</time>
      </trkpt>
      <trkpt lat="44.75265" lon="5.60698">
        <ele>1506</ele>
        <time>2013-09-14T13:41:55.000Z</time>
      </trkpt>
      <trkpt lat="44.75265" lon="5.60698">
        <ele>1506</ele>
        <time>2013-09-14T13:41:56.000Z</time>
      </trkpt>
      <trkpt lat="44.75269" lon="5.60691">
        <ele>1506</ele>
        <time>2013-09-14T13:42:03.000Z</time>
      </trkpt>
      <trkpt lat="44.75272" lon="5.60685">
        <ele>1507</ele>
        <time>2013-09-14T13:42:08.000Z</time>
      </trkpt>
      <trkpt lat="44.75276" lon="5.6068">
        <ele>1507</ele>
        <time>2013-09-14T13:42:14.000Z</time>
      </trkpt>
      <trkpt lat="44.75281" lon="5.60676">
        <ele>1508</ele>
        <time>2013-09-14T13:42:21.000Z</time>
      </trkpt>
      <trkpt lat="44.75283" lon="5.6067">
        <ele>1508</ele>
        <time>2013-09-14T13:42:28.000Z</time>
      </trkpt>
      <trkpt lat="44.75283" lon="5.6067">
        <ele>1508</ele>
        <time>2013-09-14T13:42:28.000Z</time>
      </trkpt>
      <trkpt lat="44.75283" lon="5.6067">
        <ele>1508</ele>
        <time>2013-09-14T13:42:30.000Z</time>
      </trkpt>
      <trkpt lat="44.75287" lon="5.60663">
        <ele>1509</ele>
        <time>2013-09-14T13:42:41.000Z</time>
      </trkpt>
      <trkpt lat="44.75287" lon="5.60663">
        <ele>1509</ele>
        <time>2013-09-14T13:42:41.000Z</time>
      </trkpt>
      <trkpt lat="44.75287" lon="5.60663">
        <ele>1509</ele>
        <time>2013-09-14T13:42:42.000Z</time>
      </trkpt>
      <trkpt lat="44.7529" lon="5.60659">
        <ele>1509</ele>
        <time>2013-09-14T13:42:47.000Z</time>
      </trkpt>
      <trkpt lat="44.75295" lon="5.60655">
        <ele>1510</ele>
        <time>2013-09-14T13:42:53.000Z</time>
      </trkpt>
      <trkpt lat="44.75295" lon="5.60655">
        <ele>1510</ele>
        <time>2013-09-14T13:42:53.000Z</time>
      </trkpt>
      <trkpt lat="44.75295" lon="5.60655">
        <ele>1510</ele>
        <time>2013-09-14T13:42:54.000Z</time>
      </trkpt>
      <trkpt lat="44.75297" lon="5.60648">
        <ele>1510</ele>
        <time>2013-09-14T13:43:01.000Z</time>
      </trkpt>
      <trkpt lat="44.753" lon="5.60642">
        <ele>1511</ele>
        <time>2013-09-14T13:43:08.000Z</time>
      </trkpt>
      <trkpt lat="44.753" lon="5.60642">
        <ele>1511</ele>
        <time>2013-09-14T13:43:08.000Z</time>
      </trkpt>
      <trkpt lat="44.753" lon="5.60642">
        <ele>1511</ele>
        <time>2013-09-14T13:43:10.000Z</time>
      </trkpt>
      <trkpt lat="44.75303" lon="5.60635">
        <ele>1512</ele>
        <time>2013-09-14T13:43:16.000Z</time>
      </trkpt>
      <trkpt lat="44.75303" lon="5.60635">
        <ele>1512</ele>
        <time>2013-09-14T13:43:16.000Z</time>
      </trkpt>
      <trkpt lat="44.75303" lon="5.60635">
        <ele>1512</ele>
        <time>2013-09-14T13:43:17.000Z</time>
      </trkpt>
      <trkpt lat="44.75304" lon="5.60629">
        <ele>1511</ele>
        <time>2013-09-14T13:43:24.000Z</time>
      </trkpt>
      <trkpt lat="44.75309" lon="5.60622">
        <ele>1511</ele>
        <time>2013-09-14T13:43:36.000Z</time>
      </trkpt>
      <trkpt lat="44.75309" lon="5.60622">
        <ele>1511</ele>
        <time>2013-09-14T13:43:36.000Z</time>
      </trkpt>
      <trkpt lat="44.75309" lon="5.60622">
        <ele>1511</ele>
        <time>2013-09-14T13:43:38.000Z</time>
      </trkpt>
      <trkpt lat="44.7531" lon="5.60616">
        <ele>1511</ele>
        <time>2013-09-14T13:43:50.000Z</time>
      </trkpt>
      <trkpt lat="44.7531" lon="5.60616">
        <ele>1511</ele>
        <time>2013-09-14T13:43:50.000Z</time>
      </trkpt>
      <trkpt lat="44.7531" lon="5.60616">
        <ele>1511</ele>
        <time>2013-09-14T13:43:53.000Z</time>
      </trkpt>
      <trkpt lat="44.75312" lon="5.6061">
        <ele>1513</ele>
        <time>2013-09-14T13:43:59.000Z</time>
      </trkpt>
      <trkpt lat="44.75312" lon="5.6061">
        <ele>1513</ele>
        <time>2013-09-14T13:43:59.000Z</time>
      </trkpt>
      <trkpt lat="44.75312" lon="5.6061">
        <ele>1513</ele>
        <time>2013-09-14T13:44:01.000Z</time>
      </trkpt>
      <trkpt lat="44.75316" lon="5.60605">
        <ele>1516</ele>
        <time>2013-09-14T13:44:11.000Z</time>
      </trkpt>
      <trkpt lat="44.75319" lon="5.60599">
        <ele>1517</ele>
        <time>2013-09-14T13:44:19.000Z</time>
      </trkpt>
      <trkpt lat="44.75319" lon="5.60599">
        <ele>1517</ele>
        <time>2013-09-14T13:44:19.000Z</time>
      </trkpt>
      <trkpt lat="44.75319" lon="5.60599">
        <ele>1517</ele>
        <time>2013-09-14T13:44:21.000Z</time>
      </trkpt>
      <trkpt lat="44.7532" lon="5.60592">
        <ele>1518</ele>
        <time>2013-09-14T13:44:27.000Z</time>
      </trkpt>
      <trkpt lat="44.75324" lon="5.60586">
        <ele>1518</ele>
        <time>2013-09-14T13:44:42.000Z</time>
      </trkpt>
      <trkpt lat="44.75328" lon="5.60582">
        <ele>1519</ele>
        <time>2013-09-14T13:44:55.000Z</time>
      </trkpt>
      <trkpt lat="44.75332" lon="5.6058">
        <ele>1518</ele>
        <time>2013-09-14T13:45:10.000Z</time>
      </trkpt>
      <trkpt lat="44.75332" lon="5.6058">
        <ele>1518</ele>
        <time>2013-09-14T13:45:10.000Z</time>
      </trkpt>
      <trkpt lat="44.75332" lon="5.6058">
        <ele>1518</ele>
        <time>2013-09-14T13:45:14.000Z</time>
      </trkpt>
      <trkpt lat="44.75336" lon="5.60577">
        <ele>1518</ele>
        <time>2013-09-14T13:45:30.000Z</time>
      </trkpt>
      <trkpt lat="44.75336" lon="5.60577">
        <ele>1518</ele>
        <time>2013-09-14T13:45:30.000Z</time>
      </trkpt>
      <trkpt lat="44.75336" lon="5.60577">
        <ele>1518</ele>
        <time>2013-09-14T13:45:33.000Z</time>
      </trkpt>
      <trkpt lat="44.75341" lon="5.6058">
        <ele>1518</ele>
        <time>2013-09-14T13:45:41.000Z</time>
      </trkpt>
      <trkpt lat="44.75341" lon="5.6058">
        <ele>1518</ele>
        <time>2013-09-14T13:45:41.000Z</time>
      </trkpt>
      <trkpt lat="44.75341" lon="5.6058">
        <ele>1518</ele>
        <time>2013-09-14T13:45:43.000Z</time>
      </trkpt>
      <trkpt lat="44.75342" lon="5.60571">
        <ele>1518</ele>
        <time>2013-09-14T13:46:00.000Z</time>
      </trkpt>
      <trkpt lat="44.75343" lon="5.60564">
        <ele>1518</ele>
        <time>2013-09-14T13:46:01.000Z</time>
      </trkpt>
      <trkpt lat="44.75344" lon="5.60554">
        <ele>1519</ele>
        <time>2013-09-14T13:46:03.000Z</time>
      </trkpt>
      <trkpt lat="44.75345" lon="5.60547">
        <ele>1519</ele>
        <time>2013-09-14T13:46:04.000Z</time>
      </trkpt>
      <trkpt lat="44.75346" lon="5.60539">
        <ele>1519</ele>
        <time>2013-09-14T13:46:05.000Z</time>
      </trkpt>
      <trkpt lat="44.75347" lon="5.6053">
        <ele>1519</ele>
        <time>2013-09-14T13:46:06.000Z</time>
      </trkpt>
      <trkpt lat="44.75348" lon="5.60522">
        <ele>1519</ele>
        <time>2013-09-14T13:46:07.000Z</time>
      </trkpt>
      <trkpt lat="44.75349" lon="5.60513">
        <ele>1520</ele>
        <time>2013-09-14T13:46:08.000Z</time>
      </trkpt>
      <trkpt lat="44.7535" lon="5.60502">
        <ele>1520</ele>
        <time>2013-09-14T13:46:09.000Z</time>
      </trkpt>
      <trkpt lat="44.75353" lon="5.60492">
        <ele>1520</ele>
        <time>2013-09-14T13:46:10.000Z</time>
      </trkpt>
      <trkpt lat="44.75355" lon="5.60481">
        <ele>1520</ele>
        <time>2013-09-14T13:46:11.000Z</time>
      </trkpt>
      <trkpt lat="44.75357" lon="5.60468">
        <ele>1520</ele>
        <time>2013-09-14T13:46:12.000Z</time>
      </trkpt>
      <trkpt lat="44.75362" lon="5.60457">
        <ele>1520</ele>
        <time>2013-09-14T13:46:13.000Z</time>
      </trkpt>
      <trkpt lat="44.75369" lon="5.60449">
        <ele>1520</ele>
        <time>2013-09-14T13:46:14.000Z</time>
      </trkpt>
      <trkpt lat="44.75375" lon="5.6044">
        <ele>1520</ele>
        <time>2013-09-14T13:46:15.000Z</time>
      </trkpt>
      <trkpt lat="44.7538" lon="5.60431">
        <ele>1520</ele>
        <time>2013-09-14T13:46:16.000Z</time>
      </trkpt>
      <trkpt lat="44.75387" lon="5.60423">
        <ele>1519</ele>
        <time>2013-09-14T13:46:17.000Z</time>
      </trkpt>
      <trkpt lat="44.75393" lon="5.60414">
        <ele>1519</ele>
        <time>2013-09-14T13:46:18.000Z</time>
      </trkpt>
      <trkpt lat="44.754" lon="5.60406">
        <ele>1519</ele>
        <time>2013-09-14T13:46:19.000Z</time>
      </trkpt>
      <trkpt lat="44.75407" lon="5.60397">
        <ele>1519</ele>
        <time>2013-09-14T13:46:20.000Z</time>
      </trkpt>
      <trkpt lat="44.75415" lon="5.60391">
        <ele>1519</ele>
        <time>2013-09-14T13:46:21.000Z</time>
      </trkpt>
      <trkpt lat="44.75422" lon="5.60384">
        <ele>1519</ele>
        <time>2013-09-14T13:46:22.000Z</time>
      </trkpt>
      <trkpt lat="44.75431" lon="5.6038">
        <ele>1519</ele>
        <time>2013-09-14T13:46:23.000Z</time>
      </trkpt>
      <trkpt lat="44.7544" lon="5.60376">
        <ele>1519</ele>
        <time>2013-09-14T13:46:24.000Z</time>
      </trkpt>
      <trkpt lat="44.75447" lon="5.60367">
        <ele>1519</ele>
        <time>2013-09-14T13:46:25.000Z</time>
      </trkpt>
      <trkpt lat="44.75456" lon="5.60358">
        <ele>1519</ele>
        <time>2013-09-14T13:46:26.000Z</time>
      </trkpt>
      <trkpt lat="44.75463" lon="5.60348">
        <ele>1519</ele>
        <time>2013-09-14T13:46:27.000Z</time>
      </trkpt>
      <trkpt lat="44.7547" lon="5.60339">
        <ele>1519</ele>
        <time>2013-09-14T13:46:28.000Z</time>
      </trkpt>
      <trkpt lat="44.75476" lon="5.60331">
        <ele>1519</ele>
        <time>2013-09-14T13:46:29.000Z</time>
      </trkpt>
      <trkpt lat="44.75481" lon="5.60322">
        <ele>1519</ele>
        <time>2013-09-14T13:46:30.000Z</time>
      </trkpt>
      <trkpt lat="44.75486" lon="5.60316">
        <ele>1519</ele>
        <time>2013-09-14T13:46:31.000Z</time>
      </trkpt>
      <trkpt lat="44.7549" lon="5.60309">
        <ele>1519</ele>
        <time>2013-09-14T13:46:32.000Z</time>
      </trkpt>
      <trkpt lat="44.75496" lon="5.60303">
        <ele>1519</ele>
        <time>2013-09-14T13:46:33.000Z</time>
      </trkpt>
      <trkpt lat="44.75503" lon="5.60298">
        <ele>1519</ele>
        <time>2013-09-14T13:46:34.000Z</time>
      </trkpt>
      <trkpt lat="44.75508" lon="5.60294">
        <ele>1519</ele>
        <time>2013-09-14T13:46:35.000Z</time>
      </trkpt>
      <trkpt lat="44.75516" lon="5.6029">
        <ele>1518</ele>
        <time>2013-09-14T13:46:36.000Z</time>
      </trkpt>
      <trkpt lat="44.75523" lon="5.60283">
        <ele>1518</ele>
        <time>2013-09-14T13:46:37.000Z</time>
      </trkpt>
      <trkpt lat="44.75532" lon="5.60281">
        <ele>1518</ele>
        <time>2013-09-14T13:46:38.000Z</time>
      </trkpt>
      <trkpt lat="44.75539" lon="5.60277">
        <ele>1518</ele>
        <time>2013-09-14T13:46:39.000Z</time>
      </trkpt>
      <trkpt lat="44.75548" lon="5.60275">
        <ele>1517</ele>
        <time>2013-09-14T13:46:40.000Z</time>
      </trkpt>
      <trkpt lat="44.75555" lon="5.60275">
        <ele>1517</ele>
        <time>2013-09-14T13:46:41.000Z</time>
      </trkpt>
      <trkpt lat="44.75564" lon="5.60277">
        <ele>1516</ele>
        <time>2013-09-14T13:46:42.000Z</time>
      </trkpt>
      <trkpt lat="44.75572" lon="5.60277">
        <ele>1516</ele>
        <time>2013-09-14T13:46:43.000Z</time>
      </trkpt>
      <trkpt lat="44.7558" lon="5.60277">
        <ele>1516</ele>
        <time>2013-09-14T13:46:44.000Z</time>
      </trkpt>
      <trkpt lat="44.75589" lon="5.60279">
        <ele>1515</ele>
        <time>2013-09-14T13:46:46.000Z</time>
      </trkpt>
      <trkpt lat="44.75594" lon="5.60281">
        <ele>1515</ele>
        <time>2013-09-14T13:46:47.000Z</time>
      </trkpt>
      <trkpt lat="44.75598" lon="5.60286">
        <ele>1514</ele>
        <time>2013-09-14T13:46:48.000Z</time>
      </trkpt>
      <trkpt lat="44.75604" lon="5.60292">
        <ele>1513</ele>
        <time>2013-09-14T13:46:49.000Z</time>
      </trkpt>
      <trkpt lat="44.75607" lon="5.60298">
        <ele>1511</ele>
        <time>2013-09-14T13:46:50.000Z</time>
      </trkpt>
      <trkpt lat="44.7561" lon="5.60307">
        <ele>1509</ele>
        <time>2013-09-14T13:46:51.000Z</time>
      </trkpt>
      <trkpt lat="44.75613" lon="5.60316">
        <ele>1506</ele>
        <time>2013-09-14T13:46:52.000Z</time>
      </trkpt>
      <trkpt lat="44.75616" lon="5.60324">
        <ele>1503</ele>
        <time>2013-09-14T13:46:53.000Z</time>
      </trkpt>
      <trkpt lat="44.7562" lon="5.60331">
        <ele>1501</ele>
        <time>2013-09-14T13:46:54.000Z</time>
      </trkpt>
      <trkpt lat="44.75625" lon="5.60333">
        <ele>1499</ele>
        <time>2013-09-14T13:46:55.000Z</time>
      </trkpt>
      <trkpt lat="44.75629" lon="5.60331">
        <ele>1497</ele>
        <time>2013-09-14T13:46:56.000Z</time>
      </trkpt>
      <trkpt lat="44.75635" lon="5.60328">
        <ele>1496</ele>
        <time>2013-09-14T13:46:57.000Z</time>
      </trkpt>
      <trkpt lat="44.75639" lon="5.60324">
        <ele>1494</ele>
        <time>2013-09-14T13:46:58.000Z</time>
      </trkpt>
      <trkpt lat="44.75644" lon="5.6032">
        <ele>1493</ele>
        <time>2013-09-14T13:46:59.000Z</time>
      </trkpt>
      <trkpt lat="44.75651" lon="5.60316">
        <ele>1493</ele>
        <time>2013-09-14T13:47:00.000Z</time>
      </trkpt>
      <trkpt lat="44.75656" lon="5.60309">
        <ele>1492</ele>
        <time>2013-09-14T13:47:01.000Z</time>
      </trkpt>
      <trkpt lat="44.7566" lon="5.60303">
        <ele>1492</ele>
        <time>2013-09-14T13:47:02.000Z</time>
      </trkpt>
      <trkpt lat="44.75665" lon="5.60298">
        <ele>1491</ele>
        <time>2013-09-14T13:47:03.000Z</time>
      </trkpt>
      <trkpt lat="44.7567" lon="5.6029">
        <ele>1489</ele>
        <time>2013-09-14T13:47:57.000Z</time>
      </trkpt>
      <trkpt lat="44.75673" lon="5.60283">
        <ele>1488</ele>
        <time>2013-09-14T13:47:59.000Z</time>
      </trkpt>
      <trkpt lat="44.75678" lon="5.60277">
        <ele>1483</ele>
        <time>2013-09-14T13:48:01.000Z</time>
      </trkpt>
      <trkpt lat="44.75682" lon="5.60268">
        <ele>1482</ele>
        <time>2013-09-14T13:48:03.000Z</time>
      </trkpt>
      <trkpt lat="44.75685" lon="5.6026">
        <ele>1481</ele>
        <time>2013-09-14T13:48:05.000Z</time>
      </trkpt>
      <trkpt lat="44.75686" lon="5.60253">
        <ele>1480</ele>
        <time>2013-09-14T13:48:07.000Z</time>
      </trkpt>
      <trkpt lat="44.75691" lon="5.60247">
        <ele>1480</ele>
        <time>2013-09-14T13:48:10.000Z</time>
      </trkpt>
      <trkpt lat="44.75697" lon="5.60245">
        <ele>1479</ele>
        <time>2013-09-14T13:48:12.000Z</time>
      </trkpt>
      <trkpt lat="44.75703" lon="5.60243">
        <ele>1478</ele>
        <time>2013-09-14T13:48:14.000Z</time>
      </trkpt>
      <trkpt lat="44.75708" lon="5.6024">
        <ele>1478</ele>
        <time>2013-09-14T13:48:15.000Z</time>
      </trkpt>
      <trkpt lat="44.75714" lon="5.60243">
        <ele>1478</ele>
        <time>2013-09-14T13:48:17.000Z</time>
      </trkpt>
      <trkpt lat="44.7572" lon="5.60249">
        <ele>1477</ele>
        <time>2013-09-14T13:48:20.000Z</time>
      </trkpt>
      <trkpt lat="44.75723" lon="5.60253">
        <ele>1477</ele>
        <time>2013-09-14T13:48:21.000Z</time>
      </trkpt>
      <trkpt lat="44.75727" lon="5.60258">
        <ele>1477</ele>
        <time>2013-09-14T13:48:23.000Z</time>
      </trkpt>
      <trkpt lat="44.75731" lon="5.60264">
        <ele>1477</ele>
        <time>2013-09-14T13:48:25.000Z</time>
      </trkpt>
      <trkpt lat="44.75736" lon="5.60268">
        <ele>1477</ele>
        <time>2013-09-14T13:48:27.000Z</time>
      </trkpt>
      <trkpt lat="44.75741" lon="5.60275">
        <ele>1477</ele>
        <time>2013-09-14T13:48:29.000Z</time>
      </trkpt>
      <trkpt lat="44.7589" lon="5.60476">
        <ele>1477</ele>
        <time>2013-09-14T13:49:24.000Z</time>
      </trkpt>
      <trkpt lat="44.75896" lon="5.60481">
        <ele>1477</ele>
        <time>2013-09-14T13:49:25.000Z</time>
      </trkpt>
      <trkpt lat="44.759" lon="5.60485">
        <ele>1476</ele>
        <time>2013-09-14T13:49:27.000Z</time>
      </trkpt>
      <trkpt lat="44.75906" lon="5.60485">
        <ele>1473</ele>
        <time>2013-09-14T13:49:29.000Z</time>
      </trkpt>
      <trkpt lat="44.75913" lon="5.60479">
        <ele>1469</ele>
        <time>2013-09-14T13:49:31.000Z</time>
      </trkpt>
      <trkpt lat="44.75919" lon="5.6047">
        <ele>1466</ele>
        <time>2013-09-14T13:49:33.000Z</time>
      </trkpt>
      <trkpt lat="44.75923" lon="5.60468">
        <ele>1465</ele>
        <time>2013-09-14T13:49:34.000Z</time>
      </trkpt>
      <trkpt lat="44.75931" lon="5.60459">
        <ele>1463</ele>
        <time>2013-09-14T13:49:36.000Z</time>
      </trkpt>
      <trkpt lat="44.75937" lon="5.60453">
        <ele>1462</ele>
        <time>2013-09-14T13:49:38.000Z</time>
      </trkpt>
      <trkpt lat="44.75945" lon="5.60446">
        <ele>1462</ele>
        <time>2013-09-14T13:49:40.000Z</time>
      </trkpt>
      <trkpt lat="44.75952" lon="5.6044">
        <ele>1461</ele>
        <time>2013-09-14T13:49:42.000Z</time>
      </trkpt>
      <trkpt lat="44.75957" lon="5.60438">
        <ele>1461</ele>
        <time>2013-09-14T13:49:43.000Z</time>
      </trkpt>
      <trkpt lat="44.75964" lon="5.60431">
        <ele>1460</ele>
        <time>2013-09-14T13:49:45.000Z</time>
      </trkpt>
      <trkpt lat="44.75968" lon="5.60429">
        <ele>1460</ele>
        <time>2013-09-14T13:49:46.000Z</time>
      </trkpt>
      <trkpt lat="44.75973" lon="5.60427">
        <ele>1460</ele>
        <time>2013-09-14T13:49:47.000Z</time>
      </trkpt>
      <trkpt lat="44.75981" lon="5.60425">
        <ele>1460</ele>
        <time>2013-09-14T13:50:49.000Z</time>
      </trkpt>
      <trkpt lat="44.75981" lon="5.60425">
        <ele>1460</ele>
        <time>2013-09-14T13:50:49.000Z</time>
      </trkpt>
      <trkpt lat="44.75981" lon="5.60425">
        <ele>1460</ele>
        <time>2013-09-14T13:51:13.000Z</time>
      </trkpt>
      <trkpt lat="44.75986" lon="5.60419">
        <ele>1460</ele>
        <time>2013-09-14T13:51:14.000Z</time>
      </trkpt>
      <trkpt lat="44.75986" lon="5.60419">
        <ele>1460</ele>
        <time>2013-09-14T13:51:14.000Z</time>
      </trkpt>
      <trkpt lat="44.75986" lon="5.60419">
        <ele>1460</ele>
        <time>2013-09-14T13:51:16.000Z</time>
      </trkpt>
      <trkpt lat="44.7599" lon="5.60421">
        <ele>1460</ele>
        <time>2013-09-14T13:51:23.000Z</time>
      </trkpt>
      <trkpt lat="44.75998" lon="5.60421">
        <ele>1461</ele>
        <time>2013-09-14T13:51:25.000Z</time>
      </trkpt>
      <trkpt lat="44.76004" lon="5.60421">
        <ele>1461</ele>
        <time>2013-09-14T13:51:26.000Z</time>
      </trkpt>
      <trkpt lat="44.76009" lon="5.60421">
        <ele>1461</ele>
        <time>2013-09-14T13:51:27.000Z</time>
      </trkpt>
      <trkpt lat="44.76015" lon="5.60419">
        <ele>1461</ele>
        <time>2013-09-14T13:51:28.000Z</time>
      </trkpt>
      <trkpt lat="44.76023" lon="5.60423">
        <ele>1461</ele>
        <time>2013-09-14T13:51:30.000Z</time>
      </trkpt>
      <trkpt lat="44.76026" lon="5.60429">
        <ele>1461</ele>
        <time>2013-09-14T13:51:31.000Z</time>
      </trkpt>
      <trkpt lat="44.76027" lon="5.60436">
        <ele>1461</ele>
        <time>2013-09-14T13:51:32.000Z</time>
      </trkpt>
      <trkpt lat="44.76028" lon="5.60444">
        <ele>1461</ele>
        <time>2013-09-14T13:51:33.000Z</time>
      </trkpt>
      <trkpt lat="44.7603" lon="5.60455">
        <ele>1461</ele>
        <time>2013-09-14T13:51:34.000Z</time>
      </trkpt>
      <trkpt lat="44.76032" lon="5.60464">
        <ele>1461</ele>
        <time>2013-09-14T13:51:35.000Z</time>
      </trkpt>
      <trkpt lat="44.76032" lon="5.60472">
        <ele>1461</ele>
        <time>2013-09-14T13:51:36.000Z</time>
      </trkpt>
      <trkpt lat="44.76033" lon="5.60481">
        <ele>1461</ele>
        <time>2013-09-14T13:51:37.000Z</time>
      </trkpt>
      <trkpt lat="44.76034" lon="5.60487">
        <ele>1461</ele>
        <time>2013-09-14T13:51:38.000Z</time>
      </trkpt>
      <trkpt lat="44.76036" lon="5.60494">
        <ele>1461</ele>
        <time>2013-09-14T13:51:39.000Z</time>
      </trkpt>
      <trkpt lat="44.76039" lon="5.605">
        <ele>1461</ele>
        <time>2013-09-14T13:51:40.000Z</time>
      </trkpt>
      <trkpt lat="44.76044" lon="5.60504">
        <ele>1462</ele>
        <time>2013-09-14T13:51:41.000Z</time>
      </trkpt>
      <trkpt lat="44.76049" lon="5.60509">
        <ele>1462</ele>
        <time>2013-09-14T13:51:42.000Z</time>
      </trkpt>
      <trkpt lat="44.76054" lon="5.60511">
        <ele>1462</ele>
        <time>2013-09-14T13:51:43.000Z</time>
      </trkpt>
      <trkpt lat="44.76061" lon="5.60509">
        <ele>1462</ele>
        <time>2013-09-14T13:51:44.000Z</time>
      </trkpt>
      <trkpt lat="44.76066" lon="5.60511">
        <ele>1463</ele>
        <time>2013-09-14T13:51:45.000Z</time>
      </trkpt>
      <trkpt lat="44.76071" lon="5.60509">
        <ele>1463</ele>
        <time>2013-09-14T13:51:46.000Z</time>
      </trkpt>
      <trkpt lat="44.76078" lon="5.60509">
        <ele>1463</ele>
        <time>2013-09-14T13:51:47.000Z</time>
      </trkpt>
      <trkpt lat="44.76083" lon="5.60506">
        <ele>1464</ele>
        <time>2013-09-14T13:51:48.000Z</time>
      </trkpt>
      <trkpt lat="44.76088" lon="5.60504">
        <ele>1464</ele>
        <time>2013-09-14T13:51:49.000Z</time>
      </trkpt>
      <trkpt lat="44.76095" lon="5.60502">
        <ele>1464</ele>
        <time>2013-09-14T13:51:51.000Z</time>
      </trkpt>
      <trkpt lat="44.761" lon="5.60509">
        <ele>1464</ele>
        <time>2013-09-14T13:51:55.000Z</time>
      </trkpt>
      <trkpt lat="44.761" lon="5.60509">
        <ele>1464</ele>
        <time>2013-09-14T13:51:55.000Z</time>
      </trkpt>
      <trkpt lat="44.761" lon="5.60509">
        <ele>1464</ele>
        <time>2013-09-14T13:51:56.000Z</time>
      </trkpt>
      <trkpt lat="44.76097" lon="5.60519">
        <ele>1464</ele>
        <time>2013-09-14T13:52:00.000Z</time>
      </trkpt>
      <trkpt lat="44.76092" lon="5.60526">
        <ele>1464</ele>
        <time>2013-09-14T13:52:02.000Z</time>
      </trkpt>
      <trkpt lat="44.76083" lon="5.60532">
        <ele>1464</ele>
        <time>2013-09-14T13:52:04.000Z</time>
      </trkpt>
      <trkpt lat="44.76075" lon="5.60537">
        <ele>1464</ele>
        <time>2013-09-14T13:52:06.000Z</time>
      </trkpt>
      <trkpt lat="44.76069" lon="5.60541">
        <ele>1464</ele>
        <time>2013-09-14T13:52:07.000Z</time>
      </trkpt>
      <trkpt lat="44.76065" lon="5.60543">
        <ele>1464</ele>
        <time>2013-09-14T13:52:08.000Z</time>
      </trkpt>
      <trkpt lat="44.76061" lon="5.60545">
        <ele>1464</ele>
        <time>2013-09-14T13:52:09.000Z</time>
      </trkpt>
      <trkpt lat="44.76056" lon="5.60549">
        <ele>1464</ele>
        <time>2013-09-14T13:52:10.000Z</time>
      </trkpt>
      <trkpt lat="44.76052" lon="5.60552">
        <ele>1464</ele>
        <time>2013-09-14T13:52:11.000Z</time>
      </trkpt>
      <trkpt lat="44.76048" lon="5.60556">
        <ele>1464</ele>
        <time>2013-09-14T13:52:12.000Z</time>
      </trkpt>
      <trkpt lat="44.7604" lon="5.60564">
        <ele>1464</ele>
        <time>2013-09-14T13:52:14.000Z</time>
      </trkpt>
      <trkpt lat="44.76035" lon="5.60569">
        <ele>1464</ele>
        <time>2013-09-14T13:52:15.000Z</time>
      </trkpt>
      <trkpt lat="44.7603" lon="5.60575">
        <ele>1464</ele>
        <time>2013-09-14T13:52:16.000Z</time>
      </trkpt>
      <trkpt lat="44.76025" lon="5.6058">
        <ele>1464</ele>
        <time>2013-09-14T13:52:17.000Z</time>
      </trkpt>
      <trkpt lat="44.76021" lon="5.60582">
        <ele>1464</ele>
        <time>2013-09-14T13:52:18.000Z</time>
      </trkpt>
      <trkpt lat="44.76016" lon="5.60586">
        <ele>1463</ele>
        <time>2013-09-14T13:52:19.000Z</time>
      </trkpt>
      <trkpt lat="44.76008" lon="5.60597">
        <ele>1463</ele>
        <time>2013-09-14T13:52:21.000Z</time>
      </trkpt>
      <trkpt lat="44.76008" lon="5.60603">
        <ele>1463</ele>
        <time>2013-09-14T13:52:23.000Z</time>
      </trkpt>
      <trkpt lat="44.76009" lon="5.60612">
        <ele>1462</ele>
        <time>2013-09-14T13:52:36.000Z</time>
      </trkpt>
      <trkpt lat="44.7601" lon="5.6062">
        <ele>1459</ele>
        <time>2013-09-14T13:52:44.000Z</time>
      </trkpt>
      <trkpt lat="44.76012" lon="5.60631">
        <ele>1452</ele>
        <time>2013-09-14T13:52:46.000Z</time>
      </trkpt>
      <trkpt lat="44.76017" lon="5.60642">
        <ele>1443</ele>
        <time>2013-09-14T13:52:48.000Z</time>
      </trkpt>
      <trkpt lat="44.7602" lon="5.60648">
        <ele>1440</ele>
        <time>2013-09-14T13:52:49.000Z</time>
      </trkpt>
      <trkpt lat="44.76023" lon="5.60657">
        <ele>1437</ele>
        <time>2013-09-14T13:52:50.000Z</time>
      </trkpt>
      <trkpt lat="44.76026" lon="5.60663">
        <ele>1435</ele>
        <time>2013-09-14T13:52:51.000Z</time>
      </trkpt>
      <trkpt lat="44.7603" lon="5.60672">
        <ele>1433</ele>
        <time>2013-09-14T13:52:52.000Z</time>
      </trkpt>
      <trkpt lat="44.76032" lon="5.6068">
        <ele>1431</ele>
        <time>2013-09-14T13:52:53.000Z</time>
      </trkpt>
      <trkpt lat="44.76035" lon="5.60689">
        <ele>1430</ele>
        <time>2013-09-14T13:52:54.000Z</time>
      </trkpt>
      <trkpt lat="44.76038" lon="5.60698">
        <ele>1429</ele>
        <time>2013-09-14T13:52:55.000Z</time>
      </trkpt>
      <trkpt lat="44.76042" lon="5.60704">
        <ele>1428</ele>
        <time>2013-09-14T13:52:56.000Z</time>
      </trkpt>
      <trkpt lat="44.76046" lon="5.6071">
        <ele>1428</ele>
        <time>2013-09-14T13:52:57.000Z</time>
      </trkpt>
      <trkpt lat="44.7605" lon="5.60719">
        <ele>1427</ele>
        <time>2013-09-14T13:52:58.000Z</time>
      </trkpt>
      <trkpt lat="44.76054" lon="5.60728">
        <ele>1427</ele>
        <time>2013-09-14T13:52:59.000Z</time>
      </trkpt>
      <trkpt lat="44.76058" lon="5.60736">
        <ele>1426</ele>
        <time>2013-09-14T13:53:00.000Z</time>
      </trkpt>
      <trkpt lat="44.76061" lon="5.60745">
        <ele>1426</ele>
        <time>2013-09-14T13:53:01.000Z</time>
      </trkpt>
      <trkpt lat="44.76065" lon="5.60753">
        <ele>1426</ele>
        <time>2013-09-14T13:53:02.000Z</time>
      </trkpt>
      <trkpt lat="44.7607" lon="5.6076">
        <ele>1425</ele>
        <time>2013-09-14T13:53:03.000Z</time>
      </trkpt>
      <trkpt lat="44.76076" lon="5.60766">
        <ele>1425</ele>
        <time>2013-09-14T13:53:04.000Z</time>
      </trkpt>
      <trkpt lat="44.76082" lon="5.60775">
        <ele>1425</ele>
        <time>2013-09-14T13:53:05.000Z</time>
      </trkpt>
      <trkpt lat="44.76088" lon="5.60781">
        <ele>1424</ele>
        <time>2013-09-14T13:53:06.000Z</time>
      </trkpt>
      <trkpt lat="44.76092" lon="5.60788">
        <ele>1423</ele>
        <time>2013-09-14T13:53:07.000Z</time>
      </trkpt>
      <trkpt lat="44.76095" lon="5.60792">
        <ele>1423</ele>
        <time>2013-09-14T13:53:08.000Z</time>
      </trkpt>
      <trkpt lat="44.76098" lon="5.60796">
        <ele>1422</ele>
        <time>2013-09-14T13:53:09.000Z</time>
      </trkpt>
      <trkpt lat="44.76102" lon="5.60803">
        <ele>1421</ele>
        <time>2013-09-14T13:53:10.000Z</time>
      </trkpt>
      <trkpt lat="44.76102" lon="5.60809">
        <ele>1420</ele>
        <time>2013-09-14T13:53:11.000Z</time>
      </trkpt>
      <trkpt lat="44.76102" lon="5.60816">
        <ele>1420</ele>
        <time>2013-09-14T13:53:12.000Z</time>
      </trkpt>
      <trkpt lat="44.76102" lon="5.60824">
        <ele>1419</ele>
        <time>2013-09-14T13:53:13.000Z</time>
      </trkpt>
      <trkpt lat="44.76102" lon="5.6083">
        <ele>1419</ele>
        <time>2013-09-14T13:53:14.000Z</time>
      </trkpt>
      <trkpt lat="44.76105" lon="5.60837">
        <ele>1418</ele>
        <time>2013-09-14T13:53:15.000Z</time>
      </trkpt>
      <trkpt lat="44.76115" lon="5.60843">
        <ele>1416</ele>
        <time>2013-09-14T13:53:17.000Z</time>
      </trkpt>
      <trkpt lat="44.76123" lon="5.60843">
        <ele>1415</ele>
        <time>2013-09-14T13:53:18.000Z</time>
      </trkpt>
      <trkpt lat="44.76128" lon="5.60841">
        <ele>1415</ele>
        <time>2013-09-14T13:53:19.000Z</time>
      </trkpt>
      <trkpt lat="44.76133" lon="5.60839">
        <ele>1414</ele>
        <time>2013-09-14T13:53:20.000Z</time>
      </trkpt>
      <trkpt lat="44.76137" lon="5.60837">
        <ele>1413</ele>
        <time>2013-09-14T13:53:21.000Z</time>
      </trkpt>
      <trkpt lat="44.76144" lon="5.60835">
        <ele>1412</ele>
        <time>2013-09-14T13:53:23.000Z</time>
      </trkpt>
      <trkpt lat="44.7615" lon="5.60828">
        <ele>1411</ele>
        <time>2013-09-14T13:53:25.000Z</time>
      </trkpt>
      <trkpt lat="44.76157" lon="5.60822">
        <ele>1410</ele>
        <time>2013-09-14T13:53:27.000Z</time>
      </trkpt>
      <trkpt lat="44.76163" lon="5.60818">
        <ele>1410</ele>
        <time>2013-09-14T13:53:28.000Z</time>
      </trkpt>
      <trkpt lat="44.76167" lon="5.60813">
        <ele>1410</ele>
        <time>2013-09-14T13:53:29.000Z</time>
      </trkpt>
      <trkpt lat="44.76173" lon="5.60809">
        <ele>1409</ele>
        <time>2013-09-14T13:53:30.000Z</time>
      </trkpt>
      <trkpt lat="44.76179" lon="5.60805">
        <ele>1409</ele>
        <time>2013-09-14T13:53:31.000Z</time>
      </trkpt>
      <trkpt lat="44.76183" lon="5.60803">
        <ele>1408</ele>
        <time>2013-09-14T13:53:32.000Z</time>
      </trkpt>
      <trkpt lat="44.76188" lon="5.60798">
        <ele>1401</ele>
        <time>2013-09-14T13:55:10.000Z</time>
      </trkpt>
      <trkpt lat="44.76194" lon="5.60798">
        <ele>1399</ele>
        <time>2013-09-14T13:55:12.000Z</time>
      </trkpt>
      <trkpt lat="44.762" lon="5.60796">
        <ele>1398</ele>
        <time>2013-09-14T13:55:14.000Z</time>
      </trkpt>
      <trkpt lat="44.76206" lon="5.60794">
        <ele>1397</ele>
        <time>2013-09-14T13:55:16.000Z</time>
      </trkpt>
      <trkpt lat="44.76211" lon="5.6079">
        <ele>1396</ele>
        <time>2013-09-14T13:55:18.000Z</time>
      </trkpt>
      <trkpt lat="44.76215" lon="5.60783">
        <ele>1396</ele>
        <time>2013-09-14T13:55:20.000Z</time>
      </trkpt>
      <trkpt lat="44.7622" lon="5.60781">
        <ele>1394</ele>
        <time>2013-09-14T13:55:24.000Z</time>
      </trkpt>
      <trkpt lat="44.76226" lon="5.60775">
        <ele>1389</ele>
        <time>2013-09-14T13:55:27.000Z</time>
      </trkpt>
      <trkpt lat="44.7623" lon="5.60773">
        <ele>1385</ele>
        <time>2013-09-14T13:55:28.000Z</time>
      </trkpt>
      <trkpt lat="44.76239" lon="5.60773">
        <ele>1381</ele>
        <time>2013-09-14T13:55:30.000Z</time>
      </trkpt>
      <trkpt lat="44.76244" lon="5.60773">
        <ele>1380</ele>
        <time>2013-09-14T13:55:31.000Z</time>
      </trkpt>
      <trkpt lat="44.76248" lon="5.60775">
        <ele>1378</ele>
        <time>2013-09-14T13:55:32.000Z</time>
      </trkpt>
      <trkpt lat="44.76255" lon="5.60775">
        <ele>1378</ele>
        <time>2013-09-14T13:55:34.000Z</time>
      </trkpt>
      <trkpt lat="44.76255" lon="5.60775">
        <ele>1378</ele>
        <time>2013-09-14T13:55:34.000Z</time>
      </trkpt>
      <trkpt lat="44.76255" lon="5.60775">
        <ele>1378</ele>
        <time>2013-09-14T13:56:20.000Z</time>
      </trkpt>
      <trkpt lat="44.7625" lon="5.60773">
        <ele>1374</ele>
        <time>2013-09-14T13:56:24.000Z</time>
      </trkpt>
      <trkpt lat="44.76245" lon="5.60766">
        <ele>1373</ele>
        <time>2013-09-14T13:56:26.000Z</time>
      </trkpt>
      <trkpt lat="44.76241" lon="5.60762">
        <ele>1372</ele>
        <time>2013-09-14T13:56:28.000Z</time>
      </trkpt>
      <trkpt lat="44.76236" lon="5.60758">
        <ele>1371</ele>
        <time>2013-09-14T13:56:30.000Z</time>
      </trkpt>
      <trkpt lat="44.76229" lon="5.60755">
        <ele>1371</ele>
        <time>2013-09-14T13:56:32.000Z</time>
      </trkpt>
      <trkpt lat="44.76222" lon="5.60747">
        <ele>1364</ele>
        <time>2013-09-14T13:56:34.000Z</time>
      </trkpt>
      <trkpt lat="44.76216" lon="5.60736">
        <ele>1359</ele>
        <time>2013-09-14T13:56:36.000Z</time>
      </trkpt>
      <trkpt lat="44.76212" lon="5.6073">
        <ele>1357</ele>
        <time>2013-09-14T13:56:37.000Z</time>
      </trkpt>
      <trkpt lat="44.76203" lon="5.60723">
        <ele>1355</ele>
        <time>2013-09-14T13:56:39.000Z</time>
      </trkpt>
      <trkpt lat="44.76199" lon="5.60725">
        <ele>1354</ele>
        <time>2013-09-14T13:56:40.000Z</time>
      </trkpt>
      <trkpt lat="44.76194" lon="5.60728">
        <ele>1353</ele>
        <time>2013-09-14T13:56:41.000Z</time>
      </trkpt>
      <trkpt lat="44.76189" lon="5.60732">
        <ele>1352</ele>
        <time>2013-09-14T13:56:42.000Z</time>
      </trkpt>
      <trkpt lat="44.76184" lon="5.60734">
        <ele>1352</ele>
        <time>2013-09-14T13:56:43.000Z</time>
      </trkpt>
      <trkpt lat="44.76179" lon="5.60732">
        <ele>1351</ele>
        <time>2013-09-14T13:56:44.000Z</time>
      </trkpt>
      <trkpt lat="44.76172" lon="5.60728">
        <ele>1351</ele>
        <time>2013-09-14T13:56:45.000Z</time>
      </trkpt>
      <trkpt lat="44.76168" lon="5.60721">
        <ele>1350</ele>
        <time>2013-09-14T13:56:46.000Z</time>
      </trkpt>
      <trkpt lat="44.76164" lon="5.60715">
        <ele>1350</ele>
        <time>2013-09-14T13:56:47.000Z</time>
      </trkpt>
      <trkpt lat="44.76159" lon="5.60704">
        <ele>1350</ele>
        <time>2013-09-14T13:56:48.000Z</time>
      </trkpt>
      <trkpt lat="44.76158" lon="5.60693">
        <ele>1350</ele>
        <time>2013-09-14T13:56:49.000Z</time>
      </trkpt>
      <trkpt lat="44.76159" lon="5.60682">
        <ele>1350</ele>
        <time>2013-09-14T13:56:50.000Z</time>
      </trkpt>
      <trkpt lat="44.76165" lon="5.60674">
        <ele>1350</ele>
        <time>2013-09-14T13:56:51.000Z</time>
      </trkpt>
      <trkpt lat="44.7617" lon="5.60665">
        <ele>1350</ele>
        <time>2013-09-14T13:56:52.000Z</time>
      </trkpt>
      <trkpt lat="44.76177" lon="5.60655">
        <ele>1349</ele>
        <time>2013-09-14T13:56:53.000Z</time>
      </trkpt>
      <trkpt lat="44.76184" lon="5.60646">
        <ele>1349</ele>
        <time>2013-09-14T13:56:54.000Z</time>
      </trkpt>
      <trkpt lat="44.76192" lon="5.60637">
        <ele>1349</ele>
        <time>2013-09-14T13:56:55.000Z</time>
      </trkpt>
      <trkpt lat="44.76199" lon="5.60629">
        <ele>1349</ele>
        <time>2013-09-14T13:56:56.000Z</time>
      </trkpt>
      <trkpt lat="44.76208" lon="5.60622">
        <ele>1349</ele>
        <time>2013-09-14T13:56:57.000Z</time>
      </trkpt>
      <trkpt lat="44.76215" lon="5.60616">
        <ele>1350</ele>
        <time>2013-09-14T13:56:58.000Z</time>
      </trkpt>
      <trkpt lat="44.76225" lon="5.60607">
        <ele>1350</ele>
        <time>2013-09-14T13:56:59.000Z</time>
      </trkpt>
      <trkpt lat="44.76233" lon="5.60601">
        <ele>1350</ele>
        <time>2013-09-14T13:57:00.000Z</time>
      </trkpt>
      <trkpt lat="44.76243" lon="5.60594">
        <ele>1350</ele>
        <time>2013-09-14T13:57:01.000Z</time>
      </trkpt>
      <trkpt lat="44.76253" lon="5.60586">
        <ele>1350</ele>
        <time>2013-09-14T13:57:02.000Z</time>
      </trkpt>
      <trkpt lat="44.76261" lon="5.6058">
        <ele>1351</ele>
        <time>2013-09-14T13:57:03.000Z</time>
      </trkpt>
      <trkpt lat="44.76268" lon="5.60569">
        <ele>1351</ele>
        <time>2013-09-14T13:57:04.000Z</time>
      </trkpt>
      <trkpt lat="44.76275" lon="5.6056">
        <ele>1351</ele>
        <time>2013-09-14T13:57:05.000Z</time>
      </trkpt>
      <trkpt lat="44.76281" lon="5.60552">
        <ele>1351</ele>
        <time>2013-09-14T13:57:06.000Z</time>
      </trkpt>
      <trkpt lat="44.76284" lon="5.60543">
        <ele>1351</ele>
        <time>2013-09-14T13:57:07.000Z</time>
      </trkpt>
      <trkpt lat="44.76286" lon="5.60537">
        <ele>1351</ele>
        <time>2013-09-14T13:57:08.000Z</time>
      </trkpt>
      <trkpt lat="44.7629" lon="5.6053">
        <ele>1351</ele>
        <time>2013-09-14T13:57:10.000Z</time>
      </trkpt>
      <trkpt lat="44.76294" lon="5.60524">
        <ele>1351</ele>
        <time>2013-09-14T13:57:12.000Z</time>
      </trkpt>
      <trkpt lat="44.76298" lon="5.60513">
        <ele>1350</ele>
        <time>2013-09-14T13:57:14.000Z</time>
      </trkpt>
      <trkpt lat="44.76301" lon="5.60506">
        <ele>1349</ele>
        <time>2013-09-14T13:57:15.000Z</time>
      </trkpt>
      <trkpt lat="44.76304" lon="5.605">
        <ele>1348</ele>
        <time>2013-09-14T13:57:16.000Z</time>
      </trkpt>
      <trkpt lat="44.76308" lon="5.60492">
        <ele>1348</ele>
        <time>2013-09-14T13:57:17.000Z</time>
      </trkpt>
      <trkpt lat="44.76311" lon="5.60481">
        <ele>1347</ele>
        <time>2013-09-14T13:57:18.000Z</time>
      </trkpt>
      <trkpt lat="44.76314" lon="5.60472">
        <ele>1347</ele>
        <time>2013-09-14T13:57:19.000Z</time>
      </trkpt>
      <trkpt lat="44.76317" lon="5.60462">
        <ele>1347</ele>
        <time>2013-09-14T13:57:20.000Z</time>
      </trkpt>
      <trkpt lat="44.76318" lon="5.60451">
        <ele>1347</ele>
        <time>2013-09-14T13:57:21.000Z</time>
      </trkpt>
      <trkpt lat="44.76317" lon="5.6044">
        <ele>1346</ele>
        <time>2013-09-14T13:57:22.000Z</time>
      </trkpt>
      <trkpt lat="44.76316" lon="5.60429">
        <ele>1345</ele>
        <time>2013-09-14T13:57:23.000Z</time>
      </trkpt>
      <trkpt lat="44.76316" lon="5.60416">
        <ele>1344</ele>
        <time>2013-09-14T13:57:24.000Z</time>
      </trkpt>
      <trkpt lat="44.76319" lon="5.60406">
        <ele>1344</ele>
        <time>2013-09-14T13:57:25.000Z</time>
      </trkpt>
      <trkpt lat="44.76324" lon="5.60397">
        <ele>1343</ele>
        <time>2013-09-14T13:57:26.000Z</time>
      </trkpt>
      <trkpt lat="44.7633" lon="5.60391">
        <ele>1342</ele>
        <time>2013-09-14T13:57:27.000Z</time>
      </trkpt>
      <trkpt lat="44.76336" lon="5.60384">
        <ele>1341</ele>
        <time>2013-09-14T13:57:28.000Z</time>
      </trkpt>
      <trkpt lat="44.76344" lon="5.60378">
        <ele>1341</ele>
        <time>2013-09-14T13:57:29.000Z</time>
      </trkpt>
      <trkpt lat="44.7635" lon="5.60371">
        <ele>1340</ele>
        <time>2013-09-14T13:57:30.000Z</time>
      </trkpt>
      <trkpt lat="44.76355" lon="5.60363">
        <ele>1339</ele>
        <time>2013-09-14T13:57:31.000Z</time>
      </trkpt>
      <trkpt lat="44.76358" lon="5.60352">
        <ele>1338</ele>
        <time>2013-09-14T13:57:32.000Z</time>
      </trkpt>
      <trkpt lat="44.7636" lon="5.60339">
        <ele>1337</ele>
        <time>2013-09-14T13:57:33.000Z</time>
      </trkpt>
      <trkpt lat="44.76363" lon="5.60328">
        <ele>1336</ele>
        <time>2013-09-14T13:57:34.000Z</time>
      </trkpt>
      <trkpt lat="44.76365" lon="5.60316">
        <ele>1335</ele>
        <time>2013-09-14T13:57:35.000Z</time>
      </trkpt>
      <trkpt lat="44.76371" lon="5.60305">
        <ele>1335</ele>
        <time>2013-09-14T13:57:36.000Z</time>
      </trkpt>
      <trkpt lat="44.76376" lon="5.60294">
        <ele>1334</ele>
        <time>2013-09-14T13:57:37.000Z</time>
      </trkpt>
      <trkpt lat="44.76382" lon="5.60286">
        <ele>1333</ele>
        <time>2013-09-14T13:57:38.000Z</time>
      </trkpt>
      <trkpt lat="44.76386" lon="5.60279">
        <ele>1333</ele>
        <time>2013-09-14T13:57:39.000Z</time>
      </trkpt>
      <trkpt lat="44.7639" lon="5.60273">
        <ele>1332</ele>
        <time>2013-09-14T13:57:40.000Z</time>
      </trkpt>
      <trkpt lat="44.76398" lon="5.60264">
        <ele>1331</ele>
        <time>2013-09-14T13:57:42.000Z</time>
      </trkpt>
      <trkpt lat="44.76402" lon="5.6026">
        <ele>1330</ele>
        <time>2013-09-14T13:57:43.000Z</time>
      </trkpt>
      <trkpt lat="44.76406" lon="5.60256">
        <ele>1330</ele>
        <time>2013-09-14T13:57:44.000Z</time>
      </trkpt>
      <trkpt lat="44.7641" lon="5.60249">
        <ele>1329</ele>
        <time>2013-09-14T13:57:45.000Z</time>
      </trkpt>
      <trkpt lat="44.76416" lon="5.60245">
        <ele>1328</ele>
        <time>2013-09-14T13:57:46.000Z</time>
      </trkpt>
      <trkpt lat="44.7642" lon="5.60238">
        <ele>1328</ele>
        <time>2013-09-14T13:57:47.000Z</time>
      </trkpt>
      <trkpt lat="44.76426" lon="5.6023">
        <ele>1327</ele>
        <time>2013-09-14T13:57:48.000Z</time>
      </trkpt>
      <trkpt lat="44.76432" lon="5.60221">
        <ele>1327</ele>
        <time>2013-09-14T13:57:49.000Z</time>
      </trkpt>
      <trkpt lat="44.76439" lon="5.60213">
        <ele>1327</ele>
        <time>2013-09-14T13:57:50.000Z</time>
      </trkpt>
      <trkpt lat="44.76446" lon="5.60202">
        <ele>1326</ele>
        <time>2013-09-14T13:57:51.000Z</time>
      </trkpt>
      <trkpt lat="44.7645" lon="5.60189">
        <ele>1325</ele>
        <time>2013-09-14T13:57:52.000Z</time>
      </trkpt>
      <trkpt lat="44.76456" lon="5.60178">
        <ele>1325</ele>
        <time>2013-09-14T13:57:53.000Z</time>
      </trkpt>
      <trkpt lat="44.76462" lon="5.60163">
        <ele>1324</ele>
        <time>2013-09-14T13:57:54.000Z</time>
      </trkpt>
      <trkpt lat="44.76468" lon="5.6015">
        <ele>1323</ele>
        <time>2013-09-14T13:57:55.000Z</time>
      </trkpt>
      <trkpt lat="44.76475" lon="5.6014">
        <ele>1323</ele>
        <time>2013-09-14T13:57:56.000Z</time>
      </trkpt>
      <trkpt lat="44.76479" lon="5.60131">
        <ele>1322</ele>
        <time>2013-09-14T13:57:57.000Z</time>
      </trkpt>
      <trkpt lat="44.76481" lon="5.60122">
        <ele>1321</ele>
        <time>2013-09-14T13:57:58.000Z</time>
      </trkpt>
      <trkpt lat="44.76481" lon="5.60112">
        <ele>1320</ele>
        <time>2013-09-14T13:57:59.000Z</time>
      </trkpt>
      <trkpt lat="44.76479" lon="5.60101">
        <ele>1320</ele>
        <time>2013-09-14T13:58:00.000Z</time>
      </trkpt>
      <trkpt lat="44.76477" lon="5.6009">
        <ele>1319</ele>
        <time>2013-09-14T13:58:01.000Z</time>
      </trkpt>
      <trkpt lat="44.76478" lon="5.6008">
        <ele>1318</ele>
        <time>2013-09-14T13:58:02.000Z</time>
      </trkpt>
      <trkpt lat="44.76483" lon="5.60071">
        <ele>1318</ele>
        <time>2013-09-14T13:58:03.000Z</time>
      </trkpt>
      <trkpt lat="44.76488" lon="5.60062">
        <ele>1317</ele>
        <time>2013-09-14T13:58:04.000Z</time>
      </trkpt>
      <trkpt lat="44.76492" lon="5.60054">
        <ele>1317</ele>
        <time>2013-09-14T13:58:05.000Z</time>
      </trkpt>
      <trkpt lat="44.76498" lon="5.6005">
        <ele>1316</ele>
        <time>2013-09-14T13:58:06.000Z</time>
      </trkpt>
      <trkpt lat="44.76507" lon="5.6005">
        <ele>1316</ele>
        <time>2013-09-14T13:58:07.000Z</time>
      </trkpt>
      <trkpt lat="44.76514" lon="5.60052">
        <ele>1315</ele>
        <time>2013-09-14T13:58:08.000Z</time>
      </trkpt>
      <trkpt lat="44.76521" lon="5.6005">
        <ele>1315</ele>
        <time>2013-09-14T13:58:09.000Z</time>
      </trkpt>
      <trkpt lat="44.76528" lon="5.6005">
        <ele>1315</ele>
        <time>2013-09-14T13:58:10.000Z</time>
      </trkpt>
      <trkpt lat="44.76535" lon="5.60043">
        <ele>1315</ele>
        <time>2013-09-14T13:58:11.000Z</time>
      </trkpt>
      <trkpt lat="44.76539" lon="5.60037">
        <ele>1314</ele>
        <time>2013-09-14T13:58:12.000Z</time>
      </trkpt>
      <trkpt lat="44.76544" lon="5.6003">
        <ele>1313</ele>
        <time>2013-09-14T13:58:13.000Z</time>
      </trkpt>
      <trkpt lat="44.76548" lon="5.60024">
        <ele>1312</ele>
        <time>2013-09-14T13:58:14.000Z</time>
      </trkpt>
      <trkpt lat="44.76551" lon="5.60017">
        <ele>1310</ele>
        <time>2013-09-14T13:58:15.000Z</time>
      </trkpt>
      <trkpt lat="44.76552" lon="5.60009">
        <ele>1309</ele>
        <time>2013-09-14T13:58:16.000Z</time>
      </trkpt>
      <trkpt lat="44.76554" lon="5.6">
        <ele>1307</ele>
        <time>2013-09-14T13:58:17.000Z</time>
      </trkpt>
      <trkpt lat="44.76554" lon="5.59992">
        <ele>1306</ele>
        <time>2013-09-14T13:58:18.000Z</time>
      </trkpt>
      <trkpt lat="44.76554" lon="5.59983">
        <ele>1304</ele>
        <time>2013-09-14T13:58:19.000Z</time>
      </trkpt>
      <trkpt lat="44.76554" lon="5.59974">
        <ele>1303</ele>
        <time>2013-09-14T13:58:20.000Z</time>
      </trkpt>
      <trkpt lat="44.76552" lon="5.59966">
        <ele>1303</ele>
        <time>2013-09-14T13:58:21.000Z</time>
      </trkpt>
      <trkpt lat="44.76551" lon="5.59957">
        <ele>1302</ele>
        <time>2013-09-14T13:58:22.000Z</time>
      </trkpt>
      <trkpt lat="44.76552" lon="5.59949">
        <ele>1302</ele>
        <time>2013-09-14T13:58:23.000Z</time>
      </trkpt>
      <trkpt lat="44.76552" lon="5.5994">
        <ele>1302</ele>
        <time>2013-09-14T13:58:24.000Z</time>
      </trkpt>
      <trkpt lat="44.76554" lon="5.59932">
        <ele>1301</ele>
        <time>2013-09-14T13:58:25.000Z</time>
      </trkpt>
      <trkpt lat="44.76556" lon="5.59925">
        <ele>1301</ele>
        <time>2013-09-14T13:58:26.000Z</time>
      </trkpt>
      <trkpt lat="44.7656" lon="5.59919">
        <ele>1300</ele>
        <time>2013-09-14T13:58:27.000Z</time>
      </trkpt>
      <trkpt lat="44.76563" lon="5.5991">
        <ele>1300</ele>
        <time>2013-09-14T13:58:28.000Z</time>
      </trkpt>
      <trkpt lat="44.76566" lon="5.59904">
        <ele>1300</ele>
        <time>2013-09-14T13:58:29.000Z</time>
      </trkpt>
      <trkpt lat="44.76568" lon="5.59897">
        <ele>1300</ele>
        <time>2013-09-14T13:58:30.000Z</time>
      </trkpt>
      <trkpt lat="44.7657" lon="5.59889">
        <ele>1300</ele>
        <time>2013-09-14T13:58:31.000Z</time>
      </trkpt>
      <trkpt lat="44.76574" lon="5.59882">
        <ele>1300</ele>
        <time>2013-09-14T13:58:32.000Z</time>
      </trkpt>
      <trkpt lat="44.76576" lon="5.59876">
        <ele>1300</ele>
        <time>2013-09-14T13:58:33.000Z</time>
      </trkpt>
      <trkpt lat="44.76578" lon="5.59869">
        <ele>1299</ele>
        <time>2013-09-14T13:58:34.000Z</time>
      </trkpt>
      <trkpt lat="44.7658" lon="5.59863">
        <ele>1299</ele>
        <time>2013-09-14T13:58:35.000Z</time>
      </trkpt>
      <trkpt lat="44.76583" lon="5.59856">
        <ele>1299</ele>
        <time>2013-09-14T13:58:36.000Z</time>
      </trkpt>
      <trkpt lat="44.76591" lon="5.59848">
        <ele>1299</ele>
        <time>2013-09-14T13:58:38.000Z</time>
      </trkpt>
      <trkpt lat="44.76598" lon="5.59844">
        <ele>1298</ele>
        <time>2013-09-14T13:58:40.000Z</time>
      </trkpt>
      <trkpt lat="44.76606" lon="5.59841">
        <ele>1298</ele>
        <time>2013-09-14T13:58:42.000Z</time>
      </trkpt>
      <trkpt lat="44.76612" lon="5.59841">
        <ele>1298</ele>
        <time>2013-09-14T13:58:44.000Z</time>
      </trkpt>
      <trkpt lat="44.7662" lon="5.59844">
        <ele>1298</ele>
        <time>2013-09-14T13:58:46.000Z</time>
      </trkpt>
      <trkpt lat="44.76627" lon="5.59848">
        <ele>1298</ele>
        <time>2013-09-14T13:58:48.000Z</time>
      </trkpt>
      <trkpt lat="44.76635" lon="5.59852">
        <ele>1299</ele>
        <time>2013-09-14T13:58:50.000Z</time>
      </trkpt>
      <trkpt lat="44.76643" lon="5.59854">
        <ele>1299</ele>
        <time>2013-09-14T13:58:52.000Z</time>
      </trkpt>
      <trkpt lat="44.76652" lon="5.59852">
        <ele>1299</ele>
        <time>2013-09-14T13:58:54.000Z</time>
      </trkpt>
      <trkpt lat="44.76656" lon="5.5985">
        <ele>1298</ele>
        <time>2013-09-14T13:58:55.000Z</time>
      </trkpt>
      <trkpt lat="44.7666" lon="5.59848">
        <ele>1298</ele>
        <time>2013-09-14T13:58:56.000Z</time>
      </trkpt>
      <trkpt lat="44.76665" lon="5.59846">
        <ele>1298</ele>
        <time>2013-09-14T13:58:57.000Z</time>
      </trkpt>
      <trkpt lat="44.76672" lon="5.59839">
        <ele>1297</ele>
        <time>2013-09-14T13:58:59.000Z</time>
      </trkpt>
      <trkpt lat="44.76676" lon="5.59837">
        <ele>1297</ele>
        <time>2013-09-14T13:59:00.000Z</time>
      </trkpt>
      <trkpt lat="44.76681" lon="5.59833">
        <ele>1296</ele>
        <time>2013-09-14T13:59:01.000Z</time>
      </trkpt>
      <trkpt lat="44.76688" lon="5.59824">
        <ele>1295</ele>
        <time>2013-09-14T13:59:03.000Z</time>
      </trkpt>
      <trkpt lat="44.76693" lon="5.59822">
        <ele>1295</ele>
        <time>2013-09-14T13:59:04.000Z</time>
      </trkpt>
      <trkpt lat="44.767" lon="5.59813">
        <ele>1294</ele>
        <time>2013-09-14T13:59:06.000Z</time>
      </trkpt>
      <trkpt lat="44.76707" lon="5.59807">
        <ele>1293</ele>
        <time>2013-09-14T13:59:08.000Z</time>
      </trkpt>
      <trkpt lat="44.76711" lon="5.59803">
        <ele>1293</ele>
        <time>2013-09-14T13:59:09.000Z</time>
      </trkpt>
      <trkpt lat="44.76717" lon="5.59794">
        <ele>1293</ele>
        <time>2013-09-14T13:59:11.000Z</time>
      </trkpt>
      <trkpt lat="44.7672" lon="5.59788">
        <ele>1292</ele>
        <time>2013-09-14T13:59:12.000Z</time>
      </trkpt>
      <trkpt lat="44.7672" lon="5.59781">
        <ele>1292</ele>
        <time>2013-09-14T13:59:13.000Z</time>
      </trkpt>
      <trkpt lat="44.76719" lon="5.59775">
        <ele>1292</ele>
        <time>2013-09-14T13:59:14.000Z</time>
      </trkpt>
      <trkpt lat="44.76714" lon="5.59766">
        <ele>1292</ele>
        <time>2013-09-14T13:59:16.000Z</time>
      </trkpt>
      <trkpt lat="44.76708" lon="5.59764">
        <ele>1292</ele>
        <time>2013-09-14T13:59:18.000Z</time>
      </trkpt>
      <trkpt lat="44.767" lon="5.5976">
        <ele>1291</ele>
        <time>2013-09-14T13:59:20.000Z</time>
      </trkpt>
      <trkpt lat="44.76694" lon="5.59753">
        <ele>1291</ele>
        <time>2013-09-14T13:59:22.000Z</time>
      </trkpt>
      <trkpt lat="44.76689" lon="5.59745">
        <ele>1291</ele>
        <time>2013-09-14T13:59:24.000Z</time>
      </trkpt>
      <trkpt lat="44.76689" lon="5.59738">
        <ele>1291</ele>
        <time>2013-09-14T13:59:25.000Z</time>
      </trkpt>
      <trkpt lat="44.76692" lon="5.59732">
        <ele>1291</ele>
        <time>2013-09-14T13:59:26.000Z</time>
      </trkpt>
      <trkpt lat="44.76695" lon="5.59726">
        <ele>1291</ele>
        <time>2013-09-14T13:59:28.000Z</time>
      </trkpt>
      <trkpt lat="44.767" lon="5.59719">
        <ele>1291</ele>
        <time>2013-09-14T13:59:30.000Z</time>
      </trkpt>
      <trkpt lat="44.76706" lon="5.59715">
        <ele>1291</ele>
        <time>2013-09-14T13:59:32.000Z</time>
      </trkpt>
      <trkpt lat="44.76711" lon="5.5971">
        <ele>1291</ele>
        <time>2013-09-14T13:59:34.000Z</time>
      </trkpt>
      <trkpt lat="44.76716" lon="5.59706">
        <ele>1291</ele>
        <time>2013-09-14T13:59:36.000Z</time>
      </trkpt>
      <trkpt lat="44.7672" lon="5.59704">
        <ele>1291</ele>
        <time>2013-09-14T13:59:38.000Z</time>
      </trkpt>
      <trkpt lat="44.76725" lon="5.59698">
        <ele>1291</ele>
        <time>2013-09-14T13:59:40.000Z</time>
      </trkpt>
      <trkpt lat="44.76726" lon="5.59689">
        <ele>1292</ele>
        <time>2013-09-14T13:59:42.000Z</time>
      </trkpt>
      <trkpt lat="44.76727" lon="5.59683">
        <ele>1292</ele>
        <time>2013-09-14T13:59:43.000Z</time>
      </trkpt>
      <trkpt lat="44.76728" lon="5.59672">
        <ele>1292</ele>
        <time>2013-09-14T13:59:45.000Z</time>
      </trkpt>
      <trkpt lat="44.76729" lon="5.59665">
        <ele>1292</ele>
        <time>2013-09-14T13:59:46.000Z</time>
      </trkpt>
      <trkpt lat="44.76729" lon="5.59659">
        <ele>1292</ele>
        <time>2013-09-14T13:59:47.000Z</time>
      </trkpt>
      <trkpt lat="44.76729" lon="5.59648">
        <ele>1292</ele>
        <time>2013-09-14T13:59:49.000Z</time>
      </trkpt>
      <trkpt lat="44.76727" lon="5.59638">
        <ele>1292</ele>
        <time>2013-09-14T13:59:51.000Z</time>
      </trkpt>
      <trkpt lat="44.76727" lon="5.59631">
        <ele>1292</ele>
        <time>2013-09-14T13:59:52.000Z</time>
      </trkpt>
      <trkpt lat="44.76726" lon="5.5962">
        <ele>1292</ele>
        <time>2013-09-14T13:59:54.000Z</time>
      </trkpt>
      <trkpt lat="44.76725" lon="5.59614">
        <ele>1292</ele>
        <time>2013-09-14T13:59:55.000Z</time>
      </trkpt>
      <trkpt lat="44.76726" lon="5.59608">
        <ele>1292</ele>
        <time>2013-09-14T13:59:56.000Z</time>
      </trkpt>
      <trkpt lat="44.76725" lon="5.59601">
        <ele>1292</ele>
        <time>2013-09-14T13:59:57.000Z</time>
      </trkpt>
      <trkpt lat="44.76724" lon="5.5959">
        <ele>1292</ele>
        <time>2013-09-14T13:59:59.000Z</time>
      </trkpt>
      <trkpt lat="44.76724" lon="5.59584">
        <ele>1293</ele>
        <time>2013-09-14T14:00:00.000Z</time>
      </trkpt>
      <trkpt lat="44.76723" lon="5.59577">
        <ele>1293</ele>
        <time>2013-09-14T14:00:01.000Z</time>
      </trkpt>
      <trkpt lat="44.76724" lon="5.59571">
        <ele>1293</ele>
        <time>2013-09-14T14:00:02.000Z</time>
      </trkpt>
      <trkpt lat="44.76727" lon="5.59564">
        <ele>1293</ele>
        <time>2013-09-14T14:00:03.000Z</time>
      </trkpt>
      <trkpt lat="44.76734" lon="5.59556">
        <ele>1293</ele>
        <time>2013-09-14T14:00:05.000Z</time>
      </trkpt>
      <trkpt lat="44.76742" lon="5.59556">
        <ele>1293</ele>
        <time>2013-09-14T14:00:07.000Z</time>
      </trkpt>
      <trkpt lat="44.7675" lon="5.5956">
        <ele>1294</ele>
        <time>2013-09-14T14:00:09.000Z</time>
      </trkpt>
      <trkpt lat="44.76756" lon="5.59564">
        <ele>1294</ele>
        <time>2013-09-14T14:00:11.000Z</time>
      </trkpt>
      <trkpt lat="44.76761" lon="5.59569">
        <ele>1294</ele>
        <time>2013-09-14T14:00:13.000Z</time>
      </trkpt>
      <trkpt lat="44.76767" lon="5.59573">
        <ele>1294</ele>
        <time>2013-09-14T14:00:15.000Z</time>
      </trkpt>
      <trkpt lat="44.76772" lon="5.5958">
        <ele>1294</ele>
        <time>2013-09-14T14:00:17.000Z</time>
      </trkpt>
      <trkpt lat="44.76777" lon="5.59582">
        <ele>1294</ele>
        <time>2013-09-14T14:00:19.000Z</time>
      </trkpt>
      <trkpt lat="44.76782" lon="5.59586">
        <ele>1294</ele>
        <time>2013-09-14T14:00:21.000Z</time>
      </trkpt>
      <trkpt lat="44.76786" lon="5.59588">
        <ele>1294</ele>
        <time>2013-09-14T14:00:22.000Z</time>
      </trkpt>
      <trkpt lat="44.7679" lon="5.5959">
        <ele>1294</ele>
        <time>2013-09-14T14:00:24.000Z</time>
      </trkpt>
      <trkpt lat="44.76795" lon="5.59592">
        <ele>1294</ele>
        <time>2013-09-14T14:00:26.000Z</time>
      </trkpt>
      <trkpt lat="44.76799" lon="5.59595">
        <ele>1295</ele>
        <time>2013-09-14T14:00:28.000Z</time>
      </trkpt>
      <trkpt lat="44.76805" lon="5.59595">
        <ele>1295</ele>
        <time>2013-09-14T14:00:31.000Z</time>
      </trkpt>
      <trkpt lat="44.76811" lon="5.59588">
        <ele>1296</ele>
        <time>2013-09-14T14:00:34.000Z</time>
      </trkpt>
      <trkpt lat="44.76816" lon="5.59586">
        <ele>1296</ele>
        <time>2013-09-14T14:00:36.000Z</time>
      </trkpt>
      <trkpt lat="44.76821" lon="5.59582">
        <ele>1296</ele>
        <time>2013-09-14T14:00:38.000Z</time>
      </trkpt>
      <trkpt lat="44.76826" lon="5.5958">
        <ele>1296</ele>
        <time>2013-09-14T14:00:40.000Z</time>
      </trkpt>
      <trkpt lat="44.76831" lon="5.59577">
        <ele>1296</ele>
        <time>2013-09-14T14:00:42.000Z</time>
      </trkpt>
      <trkpt lat="44.76835" lon="5.59575">
        <ele>1297</ele>
        <time>2013-09-14T14:00:44.000Z</time>
      </trkpt>
      <trkpt lat="44.76841" lon="5.59575">
        <ele>1297</ele>
        <time>2013-09-14T14:00:46.000Z</time>
      </trkpt>
      <trkpt lat="44.76845" lon="5.59573">
        <ele>1297</ele>
        <time>2013-09-14T14:00:48.000Z</time>
      </trkpt>
      <trkpt lat="44.76849" lon="5.59571">
        <ele>1297</ele>
        <time>2013-09-14T14:00:50.000Z</time>
      </trkpt>
      <trkpt lat="44.76855" lon="5.59571">
        <ele>1297</ele>
        <time>2013-09-14T14:00:52.000Z</time>
      </trkpt>
      <trkpt lat="44.7686" lon="5.59569">
        <ele>1297</ele>
        <time>2013-09-14T14:00:54.000Z</time>
      </trkpt>
      <trkpt lat="44.76864" lon="5.59567">
        <ele>1297</ele>
        <time>2013-09-14T14:00:56.000Z</time>
      </trkpt>
      <trkpt lat="44.7687" lon="5.59564">
        <ele>1297</ele>
        <time>2013-09-14T14:00:58.000Z</time>
      </trkpt>
      <trkpt lat="44.76876" lon="5.59562">
        <ele>1298</ele>
        <time>2013-09-14T14:01:01.000Z</time>
      </trkpt>
      <trkpt lat="44.76882" lon="5.5956">
        <ele>1298</ele>
        <time>2013-09-14T14:01:04.000Z</time>
      </trkpt>
      <trkpt lat="44.76888" lon="5.5956">
        <ele>1298</ele>
        <time>2013-09-14T14:01:07.000Z</time>
      </trkpt>
      <trkpt lat="44.76894" lon="5.5956">
        <ele>1298</ele>
        <time>2013-09-14T14:01:10.000Z</time>
      </trkpt>
      <trkpt lat="44.76899" lon="5.59558">
        <ele>1298</ele>
        <time>2013-09-14T14:01:12.000Z</time>
      </trkpt>
      <trkpt lat="44.76905" lon="5.59556">
        <ele>1298</ele>
        <time>2013-09-14T14:01:15.000Z</time>
      </trkpt>
      <trkpt lat="44.76909" lon="5.59554">
        <ele>1298</ele>
        <time>2013-09-14T14:01:17.000Z</time>
      </trkpt>
      <trkpt lat="44.76914" lon="5.5955">
        <ele>1297</ele>
        <time>2013-09-14T14:01:19.000Z</time>
      </trkpt>
      <trkpt lat="44.76918" lon="5.59545">
        <ele>1297</ele>
        <time>2013-09-14T14:01:21.000Z</time>
      </trkpt>
      <trkpt lat="44.7692" lon="5.59539">
        <ele>1297</ele>
        <time>2013-09-14T14:01:23.000Z</time>
      </trkpt>
      <trkpt lat="44.76922" lon="5.59532">
        <ele>1297</ele>
        <time>2013-09-14T14:01:25.000Z</time>
      </trkpt>
      <trkpt lat="44.76925" lon="5.59526">
        <ele>1297</ele>
        <time>2013-09-14T14:01:27.000Z</time>
      </trkpt>
      <trkpt lat="44.76931" lon="5.59517">
        <ele>1297</ele>
        <time>2013-09-14T14:01:30.000Z</time>
      </trkpt>
      <trkpt lat="44.76935" lon="5.59513">
        <ele>1296</ele>
        <time>2013-09-14T14:01:32.000Z</time>
      </trkpt>
      <trkpt lat="44.76942" lon="5.59515">
        <ele>1296</ele>
        <time>2013-09-14T14:01:35.000Z</time>
      </trkpt>
      <trkpt lat="44.76946" lon="5.59517">
        <ele>1296</ele>
        <time>2013-09-14T14:01:37.000Z</time>
      </trkpt>
      <trkpt lat="44.7695" lon="5.5952">
        <ele>1296</ele>
        <time>2013-09-14T14:01:39.000Z</time>
      </trkpt>
      <trkpt lat="44.76956" lon="5.59524">
        <ele>1296</ele>
        <time>2013-09-14T14:01:41.000Z</time>
      </trkpt>
      <trkpt lat="44.7696" lon="5.59526">
        <ele>1296</ele>
        <time>2013-09-14T14:01:43.000Z</time>
      </trkpt>
      <trkpt lat="44.76964" lon="5.5953">
        <ele>1296</ele>
        <time>2013-09-14T14:01:45.000Z</time>
      </trkpt>
      <trkpt lat="44.7697" lon="5.59532">
        <ele>1296</ele>
        <time>2013-09-14T14:01:48.000Z</time>
      </trkpt>
      <trkpt lat="44.76976" lon="5.59532">
        <ele>1296</ele>
        <time>2013-09-14T14:01:50.000Z</time>
      </trkpt>
      <trkpt lat="44.76983" lon="5.59532">
        <ele>1297</ele>
        <time>2013-09-14T14:01:53.000Z</time>
      </trkpt>
      <trkpt lat="44.76988" lon="5.59534">
        <ele>1297</ele>
        <time>2013-09-14T14:01:55.000Z</time>
      </trkpt>
      <trkpt lat="44.76992" lon="5.59532">
        <ele>1297</ele>
        <time>2013-09-14T14:01:57.000Z</time>
      </trkpt>
      <trkpt lat="44.76996" lon="5.5953">
        <ele>1297</ele>
        <time>2013-09-14T14:01:59.000Z</time>
      </trkpt>
      <trkpt lat="44.77" lon="5.59528">
        <ele>1297</ele>
        <time>2013-09-14T14:02:01.000Z</time>
      </trkpt>
      <trkpt lat="44.77005" lon="5.59524">
        <ele>1297</ele>
        <time>2013-09-14T14:02:03.000Z</time>
      </trkpt>
      <trkpt lat="44.77008" lon="5.59517">
        <ele>1298</ele>
        <time>2013-09-14T14:02:05.000Z</time>
      </trkpt>
      <trkpt lat="44.77012" lon="5.59509">
        <ele>1298</ele>
        <time>2013-09-14T14:02:07.000Z</time>
      </trkpt>
      <trkpt lat="44.77016" lon="5.595">
        <ele>1297</ele>
        <time>2013-09-14T14:02:09.000Z</time>
      </trkpt>
      <trkpt lat="44.77019" lon="5.59492">
        <ele>1297</ele>
        <time>2013-09-14T14:02:11.000Z</time>
      </trkpt>
      <trkpt lat="44.77021" lon="5.59483">
        <ele>1297</ele>
        <time>2013-09-14T14:02:13.000Z</time>
      </trkpt>
      <trkpt lat="44.77023" lon="5.59474">
        <ele>1297</ele>
        <time>2013-09-14T14:02:15.000Z</time>
      </trkpt>
      <trkpt lat="44.77026" lon="5.59466">
        <ele>1296</ele>
        <time>2013-09-14T14:02:17.000Z</time>
      </trkpt>
      <trkpt lat="44.77028" lon="5.59459">
        <ele>1296</ele>
        <time>2013-09-14T14:02:19.000Z</time>
      </trkpt>
      <trkpt lat="44.7703" lon="5.59453">
        <ele>1296</ele>
        <time>2013-09-14T14:02:21.000Z</time>
      </trkpt>
      <trkpt lat="44.7703" lon="5.59444">
        <ele>1296</ele>
        <time>2013-09-14T14:02:23.000Z</time>
      </trkpt>
      <trkpt lat="44.77028" lon="5.59438">
        <ele>1295</ele>
        <time>2013-09-14T14:02:25.000Z</time>
      </trkpt>
      <trkpt lat="44.77028" lon="5.59429">
        <ele>1295</ele>
        <time>2013-09-14T14:02:27.000Z</time>
      </trkpt>
      <trkpt lat="44.77031" lon="5.59421">
        <ele>1295</ele>
        <time>2013-09-14T14:02:29.000Z</time>
      </trkpt>
      <trkpt lat="44.77037" lon="5.59414">
        <ele>1294</ele>
        <time>2013-09-14T14:02:31.000Z</time>
      </trkpt>
      <trkpt lat="44.77044" lon="5.59416">
        <ele>1293</ele>
        <time>2013-09-14T14:02:33.000Z</time>
      </trkpt>
      <trkpt lat="44.77049" lon="5.59419">
        <ele>1293</ele>
        <time>2013-09-14T14:02:35.000Z</time>
      </trkpt>
      <trkpt lat="44.77049" lon="5.59419">
        <ele>1293</ele>
        <time>2013-09-14T14:02:35.000Z</time>
      </trkpt>
      <trkpt lat="44.77049" lon="5.59419">
        <ele>1293</ele>
        <time>2013-09-14T14:02:36.000Z</time>
      </trkpt>
      <trkpt lat="44.77052" lon="5.59423">
        <ele>1293</ele>
        <time>2013-09-14T14:02:37.000Z</time>
      </trkpt>
      <trkpt lat="44.77055" lon="5.59427">
        <ele>1293</ele>
        <time>2013-09-14T14:02:39.000Z</time>
      </trkpt>
      <trkpt lat="44.77061" lon="5.59434">
        <ele>1292</ele>
        <time>2013-09-14T14:02:41.000Z</time>
      </trkpt>
      <trkpt lat="44.77065" lon="5.59438">
        <ele>1292</ele>
        <time>2013-09-14T14:02:43.000Z</time>
      </trkpt>
      <trkpt lat="44.7707" lon="5.59438">
        <ele>1292</ele>
        <time>2013-09-14T14:02:45.000Z</time>
      </trkpt>
      <trkpt lat="44.77077" lon="5.59434">
        <ele>1292</ele>
        <time>2013-09-14T14:02:47.000Z</time>
      </trkpt>
      <trkpt lat="44.7708" lon="5.59427">
        <ele>1291</ele>
        <time>2013-09-14T14:02:48.000Z</time>
      </trkpt>
      <trkpt lat="44.77081" lon="5.59421">
        <ele>1291</ele>
        <time>2013-09-14T14:02:49.000Z</time>
      </trkpt>
      <trkpt lat="44.77083" lon="5.59412">
        <ele>1290</ele>
        <time>2013-09-14T14:02:50.000Z</time>
      </trkpt>
      <trkpt lat="44.77086" lon="5.59406">
        <ele>1290</ele>
        <time>2013-09-14T14:02:51.000Z</time>
      </trkpt>
      <trkpt lat="44.77092" lon="5.59399">
        <ele>1289</ele>
        <time>2013-09-14T14:02:52.000Z</time>
      </trkpt>
      <trkpt lat="44.77098" lon="5.59397">
        <ele>1289</ele>
        <time>2013-09-14T14:02:53.000Z</time>
      </trkpt>
      <trkpt lat="44.77104" lon="5.59397">
        <ele>1289</ele>
        <time>2013-09-14T14:02:54.000Z</time>
      </trkpt>
      <trkpt lat="44.7711" lon="5.59399">
        <ele>1288</ele>
        <time>2013-09-14T14:02:56.000Z</time>
      </trkpt>
      <trkpt lat="44.77114" lon="5.59402">
        <ele>1288</ele>
        <time>2013-09-14T14:02:58.000Z</time>
      </trkpt>
      <trkpt lat="44.77124" lon="5.59408">
        <ele>1285</ele>
        <time>2013-09-14T14:05:07.000Z</time>
      </trkpt>
      <trkpt lat="44.77129" lon="5.59412">
        <ele>1281</ele>
        <time>2013-09-14T14:05:08.000Z</time>
      </trkpt>
      <trkpt lat="44.77136" lon="5.59414">
        <ele>1278</ele>
        <time>2013-09-14T14:05:09.000Z</time>
      </trkpt>
      <trkpt lat="44.77141" lon="5.59416">
        <ele>1275</ele>
        <time>2013-09-14T14:05:10.000Z</time>
      </trkpt>
      <trkpt lat="44.77146" lon="5.59421">
        <ele>1273</ele>
        <time>2013-09-14T14:05:11.000Z</time>
      </trkpt>
      <trkpt lat="44.77152" lon="5.59425">
        <ele>1271</ele>
        <time>2013-09-14T14:05:12.000Z</time>
      </trkpt>
      <trkpt lat="44.77157" lon="5.59429">
        <ele>1270</ele>
        <time>2013-09-14T14:05:13.000Z</time>
      </trkpt>
      <trkpt lat="44.77162" lon="5.59436">
        <ele>1269</ele>
        <time>2013-09-14T14:05:14.000Z</time>
      </trkpt>
      <trkpt lat="44.77168" lon="5.59444">
        <ele>1268</ele>
        <time>2013-09-14T14:05:15.000Z</time>
      </trkpt>
      <trkpt lat="44.77173" lon="5.59453">
        <ele>1268</ele>
        <time>2013-09-14T14:05:16.000Z</time>
      </trkpt>
      <trkpt lat="44.77178" lon="5.59459">
        <ele>1267</ele>
        <time>2013-09-14T14:05:17.000Z</time>
      </trkpt>
      <trkpt lat="44.77182" lon="5.5947">
        <ele>1267</ele>
        <time>2013-09-14T14:05:18.000Z</time>
      </trkpt>
      <trkpt lat="44.77187" lon="5.59481">
        <ele>1267</ele>
        <time>2013-09-14T14:05:19.000Z</time>
      </trkpt>
      <trkpt lat="44.77192" lon="5.59492">
        <ele>1267</ele>
        <time>2013-09-14T14:05:20.000Z</time>
      </trkpt>
      <trkpt lat="44.77197" lon="5.59498">
        <ele>1267</ele>
        <time>2013-09-14T14:05:21.000Z</time>
      </trkpt>
      <trkpt lat="44.77202" lon="5.59504">
        <ele>1267</ele>
        <time>2013-09-14T14:05:22.000Z</time>
      </trkpt>
      <trkpt lat="44.77208" lon="5.59511">
        <ele>1266</ele>
        <time>2013-09-14T14:05:23.000Z</time>
      </trkpt>
      <trkpt lat="44.77213" lon="5.59517">
        <ele>1266</ele>
        <time>2013-09-14T14:05:24.000Z</time>
      </trkpt>
      <trkpt lat="44.77218" lon="5.59526">
        <ele>1265</ele>
        <time>2013-09-14T14:05:25.000Z</time>
      </trkpt>
      <trkpt lat="44.77223" lon="5.59537">
        <ele>1265</ele>
        <time>2013-09-14T14:05:26.000Z</time>
      </trkpt>
      <trkpt lat="44.77226" lon="5.59545">
        <ele>1264</ele>
        <time>2013-09-14T14:05:27.000Z</time>
      </trkpt>
      <trkpt lat="44.7723" lon="5.59554">
        <ele>1263</ele>
        <time>2013-09-14T14:05:28.000Z</time>
      </trkpt>
      <trkpt lat="44.77236" lon="5.59556">
        <ele>1263</ele>
        <time>2013-09-14T14:05:29.000Z</time>
      </trkpt>
      <trkpt lat="44.77241" lon="5.59556">
        <ele>1262</ele>
        <time>2013-09-14T14:05:30.000Z</time>
      </trkpt>
      <trkpt lat="44.77245" lon="5.59552">
        <ele>1261</ele>
        <time>2013-09-14T14:05:31.000Z</time>
      </trkpt>
      <trkpt lat="44.77248" lon="5.59545">
        <ele>1260</ele>
        <time>2013-09-14T14:05:32.000Z</time>
      </trkpt>
      <trkpt lat="44.77253" lon="5.59539">
        <ele>1259</ele>
        <time>2013-09-14T14:05:33.000Z</time>
      </trkpt>
      <trkpt lat="44.77256" lon="5.59532">
        <ele>1258</ele>
        <time>2013-09-14T14:05:34.000Z</time>
      </trkpt>
      <trkpt lat="44.7726" lon="5.59524">
        <ele>1257</ele>
        <time>2013-09-14T14:05:35.000Z</time>
      </trkpt>
      <trkpt lat="44.77264" lon="5.59517">
        <ele>1256</ele>
        <time>2013-09-14T14:05:36.000Z</time>
      </trkpt>
      <trkpt lat="44.77269" lon="5.59513">
        <ele>1255</ele>
        <time>2013-09-14T14:05:37.000Z</time>
      </trkpt>
      <trkpt lat="44.77273" lon="5.59504">
        <ele>1254</ele>
        <time>2013-09-14T14:05:38.000Z</time>
      </trkpt>
      <trkpt lat="44.77275" lon="5.59494">
        <ele>1253</ele>
        <time>2013-09-14T14:05:39.000Z</time>
      </trkpt>
      <trkpt lat="44.77277" lon="5.59485">
        <ele>1253</ele>
        <time>2013-09-14T14:05:40.000Z</time>
      </trkpt>
      <trkpt lat="44.7728" lon="5.59474">
        <ele>1252</ele>
        <time>2013-09-14T14:05:41.000Z</time>
      </trkpt>
      <trkpt lat="44.77281" lon="5.59466">
        <ele>1251</ele>
        <time>2013-09-14T14:05:42.000Z</time>
      </trkpt>
      <trkpt lat="44.77283" lon="5.59455">
        <ele>1251</ele>
        <time>2013-09-14T14:05:43.000Z</time>
      </trkpt>
      <trkpt lat="44.77284" lon="5.59444">
        <ele>1250</ele>
        <time>2013-09-14T14:05:44.000Z</time>
      </trkpt>
      <trkpt lat="44.77287" lon="5.59434">
        <ele>1250</ele>
        <time>2013-09-14T14:05:45.000Z</time>
      </trkpt>
      <trkpt lat="44.77292" lon="5.59427">
        <ele>1249</ele>
        <time>2013-09-14T14:05:46.000Z</time>
      </trkpt>
      <trkpt lat="44.77297" lon="5.59419">
        <ele>1249</ele>
        <time>2013-09-14T14:05:47.000Z</time>
      </trkpt>
      <trkpt lat="44.77302" lon="5.59414">
        <ele>1249</ele>
        <time>2013-09-14T14:05:49.000Z</time>
      </trkpt>
      <trkpt lat="44.77307" lon="5.59414">
        <ele>1249</ele>
        <time>2013-09-14T14:05:54.000Z</time>
      </trkpt>
      <trkpt lat="44.77312" lon="5.59419">
        <ele>1249</ele>
        <time>2013-09-14T14:06:07.000Z</time>
      </trkpt>
      <trkpt lat="44.77312" lon="5.59419">
        <ele>1249</ele>
        <time>2013-09-14T14:06:07.000Z</time>
      </trkpt>
      <trkpt lat="44.77312" lon="5.59419">
        <ele>1249</ele>
        <time>2013-09-14T14:06:22.000Z</time>
      </trkpt>
      <trkpt lat="44.77316" lon="5.59423">
        <ele>1248</ele>
        <time>2013-09-14T14:06:24.000Z</time>
      </trkpt>
      <trkpt lat="44.77316" lon="5.59423">
        <ele>1248</ele>
        <time>2013-09-14T14:06:24.000Z</time>
      </trkpt>
      <trkpt lat="44.77316" lon="5.59423">
        <ele>1248</ele>
        <time>2013-09-14T14:06:25.000Z</time>
      </trkpt>
      <trkpt lat="44.77313" lon="5.59429">
        <ele>1247</ele>
        <time>2013-09-14T14:06:30.000Z</time>
      </trkpt>
      <trkpt lat="44.77313" lon="5.59436">
        <ele>1247</ele>
        <time>2013-09-14T14:06:33.000Z</time>
      </trkpt>
      <trkpt lat="44.77313" lon="5.59436">
        <ele>1247</ele>
        <time>2013-09-14T14:06:33.000Z</time>
      </trkpt>
      <trkpt lat="44.77313" lon="5.59436">
        <ele>1247</ele>
        <time>2013-09-14T14:06:34.000Z</time>
      </trkpt>
      <trkpt lat="44.77313" lon="5.59446">
        <ele>1247</ele>
        <time>2013-09-14T14:06:41.000Z</time>
      </trkpt>
      <trkpt lat="44.77313" lon="5.59446">
        <ele>1247</ele>
        <time>2013-09-14T14:06:41.000Z</time>
      </trkpt>
      <trkpt lat="44.77313" lon="5.59446">
        <ele>1247</ele>
        <time>2013-09-14T14:06:43.000Z</time>
      </trkpt>
      <trkpt lat="44.77312" lon="5.59455">
        <ele>1246</ele>
        <time>2013-09-14T14:06:44.000Z</time>
      </trkpt>
      <trkpt lat="44.77313" lon="5.59464">
        <ele>1246</ele>
        <time>2013-09-14T14:06:46.000Z</time>
      </trkpt>
      <trkpt lat="44.77313" lon="5.5947">
        <ele>1246</ele>
        <time>2013-09-14T14:06:47.000Z</time>
      </trkpt>
      <trkpt lat="44.77314" lon="5.59481">
        <ele>1245</ele>
        <time>2013-09-14T14:06:49.000Z</time>
      </trkpt>
      <trkpt lat="44.77314" lon="5.59487">
        <ele>1244</ele>
        <time>2013-09-14T14:06:50.000Z</time>
      </trkpt>
      <trkpt lat="44.77315" lon="5.59494">
        <ele>1244</ele>
        <time>2013-09-14T14:06:51.000Z</time>
      </trkpt>
      <trkpt lat="44.77315" lon="5.59502">
        <ele>1244</ele>
        <time>2013-09-14T14:06:52.000Z</time>
      </trkpt>
      <trkpt lat="44.77315" lon="5.59509">
        <ele>1243</ele>
        <time>2013-09-14T14:06:53.000Z</time>
      </trkpt>
      <trkpt lat="44.77315" lon="5.59517">
        <ele>1243</ele>
        <time>2013-09-14T14:06:54.000Z</time>
      </trkpt>
      <trkpt lat="44.77315" lon="5.59528">
        <ele>1243</ele>
        <time>2013-09-14T14:06:55.000Z</time>
      </trkpt>
      <trkpt lat="44.77315" lon="5.59537">
        <ele>1243</ele>
        <time>2013-09-14T14:06:56.000Z</time>
      </trkpt>
      <trkpt lat="44.77314" lon="5.59547">
        <ele>1243</ele>
        <time>2013-09-14T14:06:57.000Z</time>
      </trkpt>
      <trkpt lat="44.77313" lon="5.59558">
        <ele>1243</ele>
        <time>2013-09-14T14:06:58.000Z</time>
      </trkpt>
      <trkpt lat="44.77312" lon="5.59569">
        <ele>1243</ele>
        <time>2013-09-14T14:06:59.000Z</time>
      </trkpt>
      <trkpt lat="44.77311" lon="5.59582">
        <ele>1242</ele>
        <time>2013-09-14T14:07:00.000Z</time>
      </trkpt>
      <trkpt lat="44.77312" lon="5.59592">
        <ele>1242</ele>
        <time>2013-09-14T14:07:01.000Z</time>
      </trkpt>
      <trkpt lat="44.77314" lon="5.59601">
        <ele>1242</ele>
        <time>2013-09-14T14:07:02.000Z</time>
      </trkpt>
      <trkpt lat="44.77318" lon="5.59612">
        <ele>1242</ele>
        <time>2013-09-14T14:07:03.000Z</time>
      </trkpt>
      <trkpt lat="44.77324" lon="5.59616">
        <ele>1241</ele>
        <time>2013-09-14T14:07:04.000Z</time>
      </trkpt>
      <trkpt lat="44.77327" lon="5.5962">
        <ele>1241</ele>
        <time>2013-09-14T14:07:05.000Z</time>
      </trkpt>
      <trkpt lat="44.77327" lon="5.5962">
        <ele>1241</ele>
        <time>2013-09-14T14:07:05.000Z</time>
      </trkpt>
      <trkpt lat="44.77327" lon="5.5962">
        <ele>1241</ele>
        <time>2013-09-14T14:07:06.000Z</time>
      </trkpt>
      <trkpt lat="44.77331" lon="5.59622">
        <ele>1241</ele>
        <time>2013-09-14T14:07:07.000Z</time>
      </trkpt>
      <trkpt lat="44.77331" lon="5.59622">
        <ele>1241</ele>
        <time>2013-09-14T14:07:07.000Z</time>
      </trkpt>
      <trkpt lat="44.77331" lon="5.59622">
        <ele>1241</ele>
        <time>2013-09-14T14:07:10.000Z</time>
      </trkpt>
      <trkpt lat="44.77332" lon="5.59631">
        <ele>1241</ele>
        <time>2013-09-14T14:07:11.000Z</time>
      </trkpt>
      <trkpt lat="44.77332" lon="5.59631">
        <ele>1241</ele>
        <time>2013-09-14T14:07:11.000Z</time>
      </trkpt>
      <trkpt lat="44.77332" lon="5.59631">
        <ele>1241</ele>
        <time>2013-09-14T14:07:14.000Z</time>
      </trkpt>
      <trkpt lat="44.77329" lon="5.59625">
        <ele>1241</ele>
        <time>2013-09-14T14:07:15.000Z</time>
      </trkpt>
      <trkpt lat="44.77329" lon="5.59625">
        <ele>1241</ele>
        <time>2013-09-14T14:07:15.000Z</time>
      </trkpt>
      <trkpt lat="44.77329" lon="5.59625">
        <ele>1241</ele>
        <time>2013-09-14T14:07:18.000Z</time>
      </trkpt>
      <trkpt lat="44.7733" lon="5.59618">
        <ele>1240</ele>
        <time>2013-09-14T14:07:19.000Z</time>
      </trkpt>
      <trkpt lat="44.7733" lon="5.59618">
        <ele>1240</ele>
        <time>2013-09-14T14:07:19.000Z</time>
      </trkpt>
      <trkpt lat="44.7733" lon="5.59618">
        <ele>1240</ele>
        <time>2013-09-14T14:07:21.000Z</time>
      </trkpt>
      <trkpt lat="44.77333" lon="5.59612">
        <ele>1240</ele>
        <time>2013-09-14T14:07:23.000Z</time>
      </trkpt>
      <trkpt lat="44.77337" lon="5.59608">
        <ele>1240</ele>
        <time>2013-09-14T14:07:27.000Z</time>
      </trkpt>
      <trkpt lat="44.77342" lon="5.59605">
        <ele>1239</ele>
        <time>2013-09-14T14:07:31.000Z</time>
      </trkpt>
      <trkpt lat="44.77346" lon="5.59603">
        <ele>1239</ele>
        <time>2013-09-14T14:07:56.000Z</time>
      </trkpt>
      <trkpt lat="44.77351" lon="5.59601">
        <ele>1240</ele>
        <time>2013-09-14T14:07:59.000Z</time>
      </trkpt>
      <trkpt lat="44.77357" lon="5.59599">
        <ele>1240</ele>
        <time>2013-09-14T14:08:02.000Z</time>
      </trkpt>
      <trkpt lat="44.77363" lon="5.59599">
        <ele>1241</ele>
        <time>2013-09-14T14:08:06.000Z</time>
      </trkpt>
      <trkpt lat="44.77368" lon="5.59597">
        <ele>1242</ele>
        <time>2013-09-14T14:08:10.000Z</time>
      </trkpt>
      <trkpt lat="44.77375" lon="5.59597">
        <ele>1242</ele>
        <time>2013-09-14T14:08:13.000Z</time>
      </trkpt>
      <trkpt lat="44.7738" lon="5.59597">
        <ele>1243</ele>
        <time>2013-09-14T14:08:16.000Z</time>
      </trkpt>
      <trkpt lat="44.77386" lon="5.59597">
        <ele>1244</ele>
        <time>2013-09-14T14:08:19.000Z</time>
      </trkpt>
      <trkpt lat="44.77391" lon="5.59595">
        <ele>1244</ele>
        <time>2013-09-14T14:08:22.000Z</time>
      </trkpt>
      <trkpt lat="44.77395" lon="5.59597">
        <ele>1245</ele>
        <time>2013-09-14T14:08:24.000Z</time>
      </trkpt>
      <trkpt lat="44.77401" lon="5.59599">
        <ele>1246</ele>
        <time>2013-09-14T14:08:27.000Z</time>
      </trkpt>
      <trkpt lat="44.77405" lon="5.59603">
        <ele>1246</ele>
        <time>2013-09-14T14:08:29.000Z</time>
      </trkpt>
      <trkpt lat="44.7741" lon="5.5961">
        <ele>1247</ele>
        <time>2013-09-14T14:08:32.000Z</time>
      </trkpt>
      <trkpt lat="44.77415" lon="5.59614">
        <ele>1247</ele>
        <time>2013-09-14T14:08:34.000Z</time>
      </trkpt>
      <trkpt lat="44.77419" lon="5.59618">
        <ele>1248</ele>
        <time>2013-09-14T14:08:37.000Z</time>
      </trkpt>
      <trkpt lat="44.77422" lon="5.59625">
        <ele>1249</ele>
        <time>2013-09-14T14:08:41.000Z</time>
      </trkpt>
      <trkpt lat="44.77425" lon="5.59629">
        <ele>1250</ele>
        <time>2013-09-14T14:08:44.000Z</time>
      </trkpt>
      <trkpt lat="44.7743" lon="5.59633">
        <ele>1251</ele>
        <time>2013-09-14T14:08:48.000Z</time>
      </trkpt>
      <trkpt lat="44.77433" lon="5.59638">
        <ele>1252</ele>
        <time>2013-09-14T14:08:51.000Z</time>
      </trkpt>
      <trkpt lat="44.77436" lon="5.59642">
        <ele>1253</ele>
        <time>2013-09-14T14:08:55.000Z</time>
      </trkpt>
      <trkpt lat="44.77439" lon="5.59646">
        <ele>1254</ele>
        <time>2013-09-14T14:08:58.000Z</time>
      </trkpt>
      <trkpt lat="44.77444" lon="5.5965">
        <ele>1255</ele>
        <time>2013-09-14T14:09:02.000Z</time>
      </trkpt>
      <trkpt lat="44.77447" lon="5.59655">
        <ele>1255</ele>
        <time>2013-09-14T14:09:05.000Z</time>
      </trkpt>
      <trkpt lat="44.77449" lon="5.59661">
        <ele>1256</ele>
        <time>2013-09-14T14:09:09.000Z</time>
      </trkpt>
      <trkpt lat="44.77452" lon="5.59665">
        <ele>1256</ele>
        <time>2013-09-14T14:09:12.000Z</time>
      </trkpt>
      <trkpt lat="44.77454" lon="5.59672">
        <ele>1257</ele>
        <time>2013-09-14T14:09:15.000Z</time>
      </trkpt>
      <trkpt lat="44.77459" lon="5.59678">
        <ele>1257</ele>
        <time>2013-09-14T14:09:19.000Z</time>
      </trkpt>
      <trkpt lat="44.77463" lon="5.59683">
        <ele>1258</ele>
        <time>2013-09-14T14:09:22.000Z</time>
      </trkpt>
      <trkpt lat="44.77467" lon="5.59689">
        <ele>1258</ele>
        <time>2013-09-14T14:09:26.000Z</time>
      </trkpt>
      <trkpt lat="44.7747" lon="5.59693">
        <ele>1258</ele>
        <time>2013-09-14T14:09:28.000Z</time>
      </trkpt>
      <trkpt lat="44.77475" lon="5.59698">
        <ele>1258</ele>
        <time>2013-09-14T14:09:30.000Z</time>
      </trkpt>
      <trkpt lat="44.7748" lon="5.59704">
        <ele>1258</ele>
        <time>2013-09-14T14:09:33.000Z</time>
      </trkpt>
      <trkpt lat="44.77483" lon="5.59708">
        <ele>1258</ele>
        <time>2013-09-14T14:09:35.000Z</time>
      </trkpt>
      <trkpt lat="44.77488" lon="5.59713">
        <ele>1258</ele>
        <time>2013-09-14T14:09:38.000Z</time>
      </trkpt>
      <trkpt lat="44.77492" lon="5.59717">
        <ele>1258</ele>
        <time>2013-09-14T14:09:41.000Z</time>
      </trkpt>
      <trkpt lat="44.77496" lon="5.59721">
        <ele>1258</ele>
        <time>2013-09-14T14:09:45.000Z</time>
      </trkpt>
      <trkpt lat="44.77499" lon="5.59726">
        <ele>1258</ele>
        <time>2013-09-14T14:09:49.000Z</time>
      </trkpt>
      <trkpt lat="44.77504" lon="5.5973">
        <ele>1258</ele>
        <time>2013-09-14T14:09:54.000Z</time>
      </trkpt>
      <trkpt lat="44.77506" lon="5.59736">
        <ele>1258</ele>
        <time>2013-09-14T14:10:00.000Z</time>
      </trkpt>
      <trkpt lat="44.77508" lon="5.59743">
        <ele>1258</ele>
        <time>2013-09-14T14:10:06.000Z</time>
      </trkpt>
      <trkpt lat="44.77512" lon="5.59745">
        <ele>1258</ele>
        <time>2013-09-14T14:10:10.000Z</time>
      </trkpt>
      <trkpt lat="44.77517" lon="5.59749">
        <ele>1258</ele>
        <time>2013-09-14T14:10:16.000Z</time>
      </trkpt>
      <trkpt lat="44.77521" lon="5.59756">
        <ele>1259</ele>
        <time>2013-09-14T14:10:21.000Z</time>
      </trkpt>
      <trkpt lat="44.77524" lon="5.5976">
        <ele>1259</ele>
        <time>2013-09-14T14:10:25.000Z</time>
      </trkpt>
      <trkpt lat="44.77528" lon="5.59764">
        <ele>1259</ele>
        <time>2013-09-14T14:10:28.000Z</time>
      </trkpt>
      <trkpt lat="44.77532" lon="5.59768">
        <ele>1259</ele>
        <time>2013-09-14T14:10:31.000Z</time>
      </trkpt>
      <trkpt lat="44.77535" lon="5.59773">
        <ele>1259</ele>
        <time>2013-09-14T14:10:34.000Z</time>
      </trkpt>
      <trkpt lat="44.77539" lon="5.59775">
        <ele>1259</ele>
        <time>2013-09-14T14:10:38.000Z</time>
      </trkpt>
      <trkpt lat="44.77543" lon="5.59779">
        <ele>1260</ele>
        <time>2013-09-14T14:10:42.000Z</time>
      </trkpt>
      <trkpt lat="44.77543" lon="5.59779">
        <ele>1260</ele>
        <time>2013-09-14T14:10:42.000Z</time>
      </trkpt>
      <trkpt lat="44.77543" lon="5.59779">
        <ele>1260</ele>
        <time>2013-09-14T14:10:43.000Z</time>
      </trkpt>
      <trkpt lat="44.77548" lon="5.59781">
        <ele>1260</ele>
        <time>2013-09-14T14:10:48.000Z</time>
      </trkpt>
      <trkpt lat="44.77552" lon="5.59788">
        <ele>1260</ele>
        <time>2013-09-14T14:10:54.000Z</time>
      </trkpt>
      <trkpt lat="44.77556" lon="5.5979">
        <ele>1261</ele>
        <time>2013-09-14T14:10:59.000Z</time>
      </trkpt>
      <trkpt lat="44.77561" lon="5.59794">
        <ele>1261</ele>
        <time>2013-09-14T14:11:03.000Z</time>
      </trkpt>
      <trkpt lat="44.77565" lon="5.59796">
        <ele>1262</ele>
        <time>2013-09-14T14:11:07.000Z</time>
      </trkpt>
      <trkpt lat="44.77569" lon="5.59801">
        <ele>1262</ele>
        <time>2013-09-14T14:11:19.000Z</time>
      </trkpt>
      <trkpt lat="44.77569" lon="5.59801">
        <ele>1262</ele>
        <time>2013-09-14T14:11:19.000Z</time>
      </trkpt>
      <trkpt lat="44.77569" lon="5.59801">
        <ele>1262</ele>
        <time>2013-09-14T14:11:20.000Z</time>
      </trkpt>
      <trkpt lat="44.77574" lon="5.59803">
        <ele>1262</ele>
        <time>2013-09-14T14:11:24.000Z</time>
      </trkpt>
      <trkpt lat="44.77578" lon="5.59805">
        <ele>1262</ele>
        <time>2013-09-14T14:11:29.000Z</time>
      </trkpt>
      <trkpt lat="44.77578" lon="5.59805">
        <ele>1262</ele>
        <time>2013-09-14T14:11:29.000Z</time>
      </trkpt>
      <trkpt lat="44.77578" lon="5.59805">
        <ele>1262</ele>
        <time>2013-09-14T14:11:30.000Z</time>
      </trkpt>
      <trkpt lat="44.77582" lon="5.59809">
        <ele>1262</ele>
        <time>2013-09-14T14:11:49.000Z</time>
      </trkpt>
      <trkpt lat="44.77582" lon="5.59809">
        <ele>1262</ele>
        <time>2013-09-14T14:11:49.000Z</time>
      </trkpt>
      <trkpt lat="44.77582" lon="5.59809">
        <ele>1262</ele>
        <time>2013-09-14T14:11:51.000Z</time>
      </trkpt>
      <trkpt lat="44.77586" lon="5.59813">
        <ele>1263</ele>
        <time>2013-09-14T14:12:06.000Z</time>
      </trkpt>
      <trkpt lat="44.77586" lon="5.59813">
        <ele>1263</ele>
        <time>2013-09-14T14:12:06.000Z</time>
      </trkpt>
      <trkpt lat="44.77586" lon="5.59813">
        <ele>1263</ele>
        <time>2013-09-14T14:12:08.000Z</time>
      </trkpt>
      <trkpt lat="44.7759" lon="5.59818">
        <ele>1264</ele>
        <time>2013-09-14T14:12:17.000Z</time>
      </trkpt>
      <trkpt lat="44.77594" lon="5.5982">
        <ele>1264</ele>
        <time>2013-09-14T14:12:25.000Z</time>
      </trkpt>
      <trkpt lat="44.77588" lon="5.5982">
        <ele>1266</ele>
        <time>2013-09-14T14:12:36.000Z</time>
      </trkpt>
      <trkpt lat="44.77588" lon="5.5982">
        <ele>1266</ele>
        <time>2013-09-14T14:12:36.000Z</time>
      </trkpt>
      <trkpt lat="44.77588" lon="5.5982">
        <ele>1266</ele>
        <time>2013-09-14T14:12:37.000Z</time>
      </trkpt>
      <trkpt lat="44.7759" lon="5.59813">
        <ele>1267</ele>
        <time>2013-09-14T14:12:41.000Z</time>
      </trkpt>
      <trkpt lat="44.7759" lon="5.59813">
        <ele>1267</ele>
        <time>2013-09-14T14:12:41.000Z</time>
      </trkpt>
      <trkpt lat="44.7759" lon="5.59813">
        <ele>1267</ele>
        <time>2013-09-14T14:12:42.000Z</time>
      </trkpt>
      <trkpt lat="44.77591" lon="5.59807">
        <ele>1267</ele>
        <time>2013-09-14T14:12:47.000Z</time>
      </trkpt>
      <trkpt lat="44.77591" lon="5.59807">
        <ele>1267</ele>
        <time>2013-09-14T14:12:47.000Z</time>
      </trkpt>
      <trkpt lat="44.77591" lon="5.59807">
        <ele>1267</ele>
        <time>2013-09-14T14:12:51.000Z</time>
      </trkpt>
      <trkpt lat="44.77585" lon="5.59805">
        <ele>1267</ele>
        <time>2013-09-14T14:12:58.000Z</time>
      </trkpt>
      <trkpt lat="44.77585" lon="5.59805">
        <ele>1267</ele>
        <time>2013-09-14T14:12:58.000Z</time>
      </trkpt>
      <trkpt lat="44.77585" lon="5.59805">
        <ele>1267</ele>
        <time>2013-09-14T14:12:59.000Z</time>
      </trkpt>
      <trkpt lat="44.7758" lon="5.59805">
        <ele>1267</ele>
        <time>2013-09-14T14:13:07.000Z</time>
      </trkpt>
      <trkpt lat="44.77581" lon="5.59798">
        <ele>1265</ele>
        <time>2013-09-14T14:13:28.000Z</time>
      </trkpt>
      <trkpt lat="44.77581" lon="5.59798">
        <ele>1265</ele>
        <time>2013-09-14T14:13:28.000Z</time>
      </trkpt>
      <trkpt lat="44.77581" lon="5.59798">
        <ele>1264</ele>
        <time>2013-09-14T14:13:31.000Z</time>
      </trkpt>
      <trkpt lat="44.77583" lon="5.59792">
        <ele>1263</ele>
        <time>2013-09-14T14:13:38.000Z</time>
      </trkpt>
      <trkpt lat="44.77583" lon="5.59792">
        <ele>1263</ele>
        <time>2013-09-14T14:13:38.000Z</time>
      </trkpt>
      <trkpt lat="44.77583" lon="5.59792">
        <ele>1263</ele>
        <time>2013-09-14T14:13:39.000Z</time>
      </trkpt>
      <trkpt lat="44.77583" lon="5.59786">
        <ele>1262</ele>
        <time>2013-09-14T14:13:44.000Z</time>
      </trkpt>
      <trkpt lat="44.77583" lon="5.59786">
        <ele>1262</ele>
        <time>2013-09-14T14:13:44.000Z</time>
      </trkpt>
      <trkpt lat="44.77583" lon="5.59786">
        <ele>1262</ele>
        <time>2013-09-14T14:13:46.000Z</time>
      </trkpt>
      <trkpt lat="44.77583" lon="5.59779">
        <ele>1261</ele>
        <time>2013-09-14T14:13:54.000Z</time>
      </trkpt>
      <trkpt lat="44.77583" lon="5.59779">
        <ele>1261</ele>
        <time>2013-09-14T14:13:54.000Z</time>
      </trkpt>
      <trkpt lat="44.77583" lon="5.59779">
        <ele>1262</ele>
        <time>2013-09-14T14:14:48.000Z</time>
      </trkpt>
      <trkpt lat="44.77583" lon="5.59773">
        <ele>1262</ele>
        <time>2013-09-14T14:15:40.000Z</time>
      </trkpt>
      <trkpt lat="44.77583" lon="5.59773">
        <ele>1262</ele>
        <time>2013-09-14T14:15:40.000Z</time>
      </trkpt>
      <trkpt lat="44.77583" lon="5.59773">
        <ele>1262</ele>
        <time>2013-09-14T14:15:42.000Z</time>
      </trkpt>
      <trkpt lat="44.77587" lon="5.5977">
        <ele>1262</ele>
        <time>2013-09-14T14:16:05.000Z</time>
      </trkpt>
      <trkpt lat="44.77587" lon="5.5977">
        <ele>1262</ele>
        <time>2013-09-14T14:16:05.000Z</time>
      </trkpt>
      <trkpt lat="44.77587" lon="5.5977">
        <ele>1262</ele>
        <time>2013-09-14T14:16:11.000Z</time>
      </trkpt>
      <trkpt lat="44.77591" lon="5.59775">
        <ele>1262</ele>
        <time>2013-09-14T14:16:19.000Z</time>
      </trkpt>
      <trkpt lat="44.77594" lon="5.59781">
        <ele>1262</ele>
        <time>2013-09-14T14:16:30.000Z</time>
      </trkpt>
      <trkpt lat="44.77594" lon="5.59781">
        <ele>1262</ele>
        <time>2013-09-14T14:16:30.000Z</time>
      </trkpt>
      <trkpt lat="44.77594" lon="5.59781">
        <ele>1262</ele>
        <time>2013-09-14T14:16:36.000Z</time>
      </trkpt>
      <trkpt lat="44.77592" lon="5.59775">
        <ele>1262</ele>
        <time>2013-09-14T14:16:54.000Z</time>
      </trkpt>
      <trkpt lat="44.77592" lon="5.59775">
        <ele>1262</ele>
        <time>2013-09-14T14:16:54.000Z</time>
      </trkpt>
      <trkpt lat="44.77592" lon="5.59775">
        <ele>1262</ele>
        <time>2013-09-14T14:16:55.000Z</time>
      </trkpt>
      <trkpt lat="44.77586" lon="5.59773">
        <ele>1262</ele>
        <time>2013-09-14T14:17:00.000Z</time>
      </trkpt>
      <trkpt lat="44.77581" lon="5.59773">
        <ele>1262</ele>
        <time>2013-09-14T14:17:05.000Z</time>
      </trkpt>
      <trkpt lat="44.77581" lon="5.59773">
        <ele>1262</ele>
        <time>2013-09-14T14:17:05.000Z</time>
      </trkpt>
      <trkpt lat="44.77581" lon="5.59773">
        <ele>1263</ele>
        <time>2013-09-14T14:17:32.000Z</time>
      </trkpt>
      <trkpt lat="44.77586" lon="5.59775">
        <ele>1263</ele>
        <time>2013-09-14T14:18:01.001Z</time>
      </trkpt>
      <trkpt lat="44.77586" lon="5.59775">
        <ele>1263</ele>
        <time>2013-09-14T14:18:01.001Z</time>
      </trkpt>
      <trkpt lat="44.77586" lon="5.59775">
        <ele>1263</ele>
        <time>2013-09-14T14:18:03.001Z</time>
      </trkpt>
      <trkpt lat="44.77591" lon="5.5977">
        <ele>1262</ele>
        <time>2013-09-14T14:19:41.001Z</time>
      </trkpt>
      <trkpt lat="44.77591" lon="5.5977">
        <ele>1262</ele>
        <time>2013-09-14T14:19:41.001Z</time>
      </trkpt>
      <trkpt lat="44.77591" lon="5.5977">
        <ele>1262</ele>
        <time>2013-09-14T14:19:44.001Z</time>
      </trkpt>
      <trkpt lat="44.77594" lon="5.59775">
        <ele>1262</ele>
        <time>2013-09-14T14:19:53.001Z</time>
      </trkpt>
      <trkpt lat="44.77594" lon="5.59775">
        <ele>1262</ele>
        <time>2013-09-14T14:19:53.001Z</time>
      </trkpt>
      <trkpt lat="44.77594" lon="5.59775">
        <ele>1262</ele>
        <time>2013-09-14T14:19:56.001Z</time>
      </trkpt>
      <trkpt lat="44.77591" lon="5.59781">
        <ele>1263</ele>
        <time>2013-09-14T14:20:39.001Z</time>
      </trkpt>
      <trkpt lat="44.77591" lon="5.59781">
        <ele>1263</ele>
        <time>2013-09-14T14:20:39.001Z</time>
      </trkpt>
      <trkpt lat="44.77591" lon="5.59781">
        <ele>1263</ele>
        <time>2013-09-14T14:20:49.001Z</time>
      </trkpt>
      <trkpt lat="44.77588" lon="5.59775">
        <ele>1264</ele>
        <time>2013-09-14T14:21:24.001Z</time>
      </trkpt>
      <trkpt lat="44.77588" lon="5.59775">
        <ele>1264</ele>
        <time>2013-09-14T14:21:24.001Z</time>
      </trkpt>
      <trkpt lat="44.77588" lon="5.59775">
        <ele>1264</ele>
        <time>2013-09-14T14:21:26.001Z</time>
      </trkpt>
      <trkpt lat="44.77584" lon="5.5977">
        <ele>1264</ele>
        <time>2013-09-14T14:21:41.001Z</time>
      </trkpt>
      <trkpt lat="44.77584" lon="5.5977">
        <ele>1264</ele>
        <time>2013-09-14T14:21:41.001Z</time>
      </trkpt>
      <trkpt lat="44.77584" lon="5.5977">
        <ele>1264</ele>
        <time>2013-09-14T14:21:42.001Z</time>
      </trkpt>
      <trkpt lat="44.77585" lon="5.59777">
        <ele>1264</ele>
        <time>2013-09-14T14:21:47.001Z</time>
      </trkpt>
      <trkpt lat="44.77585" lon="5.59777">
        <ele>1264</ele>
        <time>2013-09-14T14:21:47.001Z</time>
      </trkpt>
      <trkpt lat="44.77585" lon="5.59777">
        <ele>1264</ele>
        <time>2013-09-14T14:21:48.001Z</time>
      </trkpt>
      <trkpt lat="44.77581" lon="5.5977">
        <ele>1265</ele>
        <time>2013-09-14T14:22:10.001Z</time>
      </trkpt>
      <trkpt lat="44.77581" lon="5.5977">
        <ele>1265</ele>
        <time>2013-09-14T14:22:10.001Z</time>
      </trkpt>
      <trkpt lat="44.77581" lon="5.5977">
        <ele>1265</ele>
        <time>2013-09-14T14:22:11.001Z</time>
      </trkpt>
      <trkpt lat="44.77578" lon="5.59764">
        <ele>1265</ele>
        <time>2013-09-14T14:22:17.001Z</time>
      </trkpt>
      <trkpt lat="44.77578" lon="5.59764">
        <ele>1265</ele>
        <time>2013-09-14T14:22:17.001Z</time>
      </trkpt>
      <trkpt lat="44.77578" lon="5.59764">
        <ele>1266</ele>
        <time>2013-09-14T14:22:19.001Z</time>
      </trkpt>
      <trkpt lat="44.77577" lon="5.59758">
        <ele>1266</ele>
        <time>2013-09-14T14:22:23.001Z</time>
      </trkpt>
      <trkpt lat="44.77577" lon="5.59758">
        <ele>1266</ele>
        <time>2013-09-14T14:22:23.001Z</time>
      </trkpt>
      <trkpt lat="44.77577" lon="5.59758">
        <ele>1266</ele>
        <time>2013-09-14T14:22:24.001Z</time>
      </trkpt>
      <trkpt lat="44.77574" lon="5.59751">
        <ele>1266</ele>
        <time>2013-09-14T14:22:29.001Z</time>
      </trkpt>
      <trkpt lat="44.77571" lon="5.59745">
        <ele>1267</ele>
        <time>2013-09-14T14:22:35.001Z</time>
      </trkpt>
      <trkpt lat="44.77571" lon="5.59745">
        <ele>1267</ele>
        <time>2013-09-14T14:22:35.001Z</time>
      </trkpt>
      <trkpt lat="44.77571" lon="5.59745">
        <ele>1267</ele>
        <time>2013-09-14T14:22:36.001Z</time>
      </trkpt>
      <trkpt lat="44.77569" lon="5.59738">
        <ele>1267</ele>
        <time>2013-09-14T14:22:40.001Z</time>
      </trkpt>
      <trkpt lat="44.77567" lon="5.59732">
        <ele>1268</ele>
        <time>2013-09-14T14:22:45.001Z</time>
      </trkpt>
      <trkpt lat="44.77567" lon="5.59732">
        <ele>1268</ele>
        <time>2013-09-14T14:22:45.001Z</time>
      </trkpt>
      <trkpt lat="44.77567" lon="5.59732">
        <ele>1268</ele>
        <time>2013-09-14T14:22:46.001Z</time>
      </trkpt>
      <trkpt lat="44.77566" lon="5.59726">
        <ele>1268</ele>
        <time>2013-09-14T14:22:51.001Z</time>
      </trkpt>
      <trkpt lat="44.77566" lon="5.59726">
        <ele>1268</ele>
        <time>2013-09-14T14:22:51.001Z</time>
      </trkpt>
      <trkpt lat="44.77566" lon="5.59726">
        <ele>1268</ele>
        <time>2013-09-14T14:22:52.001Z</time>
      </trkpt>
      <trkpt lat="44.77566" lon="5.59719">
        <ele>1269</ele>
        <time>2013-09-14T14:22:56.001Z</time>
      </trkpt>
      <trkpt lat="44.77567" lon="5.59713">
        <ele>1269</ele>
        <time>2013-09-14T14:23:01.001Z</time>
      </trkpt>
      <trkpt lat="44.77567" lon="5.59713">
        <ele>1269</ele>
        <time>2013-09-14T14:23:01.001Z</time>
      </trkpt>
      <trkpt lat="44.77567" lon="5.59713">
        <ele>1269</ele>
        <time>2013-09-14T14:23:04.001Z</time>
      </trkpt>
      <trkpt lat="44.77566" lon="5.59706">
        <ele>1270</ele>
        <time>2013-09-14T14:23:12.001Z</time>
      </trkpt>
      <trkpt lat="44.77566" lon="5.59706">
        <ele>1270</ele>
        <time>2013-09-14T14:23:12.001Z</time>
      </trkpt>
      <trkpt lat="44.77566" lon="5.59706">
        <ele>1270</ele>
        <time>2013-09-14T14:23:13.001Z</time>
      </trkpt>
      <trkpt lat="44.77568" lon="5.59715">
        <ele>1270</ele>
        <time>2013-09-14T14:23:40.001Z</time>
      </trkpt>
      <trkpt lat="44.77569" lon="5.59723">
        <ele>1270</ele>
        <time>2013-09-14T14:23:42.001Z</time>
      </trkpt>
      <trkpt lat="44.7757" lon="5.59734">
        <ele>1271</ele>
        <time>2013-09-14T14:23:44.001Z</time>
      </trkpt>
      <trkpt lat="44.7757" lon="5.5974">
        <ele>1272</ele>
        <time>2013-09-14T14:23:46.001Z</time>
      </trkpt>
      <trkpt lat="44.7757" lon="5.5974">
        <ele>1272</ele>
        <time>2013-09-14T14:23:46.001Z</time>
      </trkpt>
      <trkpt lat="44.7757" lon="5.5974">
        <ele>1272</ele>
        <time>2013-09-14T14:24:01.001Z</time>
      </trkpt>
      <trkpt lat="44.77574" lon="5.59749">
        <ele>1272</ele>
        <time>2013-09-14T14:24:03.001Z</time>
      </trkpt>
      <trkpt lat="44.77576" lon="5.59756">
        <ele>1272</ele>
        <time>2013-09-14T14:24:05.001Z</time>
      </trkpt>
      <trkpt lat="44.77577" lon="5.59762">
        <ele>1272</ele>
        <time>2013-09-14T14:24:07.001Z</time>
      </trkpt>
      <trkpt lat="44.77579" lon="5.59768">
        <ele>1272</ele>
        <time>2013-09-14T14:24:09.001Z</time>
      </trkpt>
      <trkpt lat="44.7758" lon="5.59775">
        <ele>1273</ele>
        <time>2013-09-14T14:24:11.001Z</time>
      </trkpt>
      <trkpt lat="44.77579" lon="5.59786">
        <ele>1273</ele>
        <time>2013-09-14T14:24:14.001Z</time>
      </trkpt>
      <trkpt lat="44.77581" lon="5.59792">
        <ele>1273</ele>
        <time>2013-09-14T14:24:18.001Z</time>
      </trkpt>
      <trkpt lat="44.77585" lon="5.5979">
        <ele>1273</ele>
        <time>2013-09-14T14:24:20.001Z</time>
      </trkpt>
      <trkpt lat="44.7759" lon="5.59786">
        <ele>1273</ele>
        <time>2013-09-14T14:24:22.001Z</time>
      </trkpt>
      <trkpt lat="44.77595" lon="5.59779">
        <ele>1273</ele>
        <time>2013-09-14T14:24:25.001Z</time>
      </trkpt>
      <trkpt lat="44.77598" lon="5.59773">
        <ele>1273</ele>
        <time>2013-09-14T14:24:28.001Z</time>
      </trkpt>
      <trkpt lat="44.77606" lon="5.5977">
        <ele>1273</ele>
        <time>2013-09-14T14:24:43.001Z</time>
      </trkpt>
      <trkpt lat="44.77606" lon="5.5977">
        <ele>1273</ele>
        <time>2013-09-14T14:24:43.001Z</time>
      </trkpt>
      <trkpt lat="44.77606" lon="5.5977">
        <ele>1273</ele>
        <time>2013-09-14T14:25:14.001Z</time>
      </trkpt>
      <trkpt lat="44.7761" lon="5.59766">
        <ele>1273</ele>
        <time>2013-09-14T14:25:15.001Z</time>
      </trkpt>
      <trkpt lat="44.77616" lon="5.59758">
        <ele>1273</ele>
        <time>2013-09-14T14:25:20.001Z</time>
      </trkpt>
      <trkpt lat="44.77616" lon="5.59758">
        <ele>1273</ele>
        <time>2013-09-14T14:25:20.001Z</time>
      </trkpt>
      <trkpt lat="44.77616" lon="5.59758">
        <ele>1273</ele>
        <time>2013-09-14T14:25:24.001Z</time>
      </trkpt>
      <trkpt lat="44.77621" lon="5.59753">
        <ele>1272</ele>
        <time>2013-09-14T14:25:25.001Z</time>
      </trkpt>
      <trkpt lat="44.77621" lon="5.59753">
        <ele>1272</ele>
        <time>2013-09-14T14:25:25.001Z</time>
      </trkpt>
      <trkpt lat="44.77621" lon="5.59753">
        <ele>1272</ele>
        <time>2013-09-14T14:25:47.001Z</time>
      </trkpt>
      <trkpt lat="44.77624" lon="5.59747">
        <ele>1271</ele>
        <time>2013-09-14T14:25:48.001Z</time>
      </trkpt>
      <trkpt lat="44.77624" lon="5.59747">
        <ele>1271</ele>
        <time>2013-09-14T14:25:48.001Z</time>
      </trkpt>
      <trkpt lat="44.77624" lon="5.59747">
        <ele>1271</ele>
        <time>2013-09-14T14:26:08.001Z</time>
      </trkpt>
      <trkpt lat="44.77628" lon="5.59738">
        <ele>1270</ele>
        <time>2013-09-14T14:26:10.001Z</time>
      </trkpt>
      <trkpt lat="44.77632" lon="5.59732">
        <ele>1270</ele>
        <time>2013-09-14T14:26:12.001Z</time>
      </trkpt>
      <trkpt lat="44.77636" lon="5.59726">
        <ele>1270</ele>
        <time>2013-09-14T14:26:15.001Z</time>
      </trkpt>
      <trkpt lat="44.77639" lon="5.59719">
        <ele>1269</ele>
        <time>2013-09-14T14:26:18.001Z</time>
      </trkpt>
      <trkpt lat="44.77644" lon="5.5971">
        <ele>1269</ele>
        <time>2013-09-14T14:26:21.001Z</time>
      </trkpt>
      <trkpt lat="44.7765" lon="5.59702">
        <ele>1266</ele>
        <time>2013-09-14T14:26:23.001Z</time>
      </trkpt>
      <trkpt lat="44.77654" lon="5.59693">
        <ele>1265</ele>
        <time>2013-09-14T14:26:25.001Z</time>
      </trkpt>
      <trkpt lat="44.77658" lon="5.59689">
        <ele>1265</ele>
        <time>2013-09-14T14:26:27.001Z</time>
      </trkpt>
      <trkpt lat="44.77662" lon="5.59683">
        <ele>1265</ele>
        <time>2013-09-14T14:26:30.001Z</time>
      </trkpt>
      <trkpt lat="44.77668" lon="5.59678">
        <ele>1264</ele>
        <time>2013-09-14T14:26:43.001Z</time>
      </trkpt>
      <trkpt lat="44.77672" lon="5.59676">
        <ele>1263</ele>
        <time>2013-09-14T14:26:47.001Z</time>
      </trkpt>
      <trkpt lat="44.77679" lon="5.59674">
        <ele>1262</ele>
        <time>2013-09-14T14:26:54.001Z</time>
      </trkpt>
      <trkpt lat="44.77683" lon="5.59672">
        <ele>1261</ele>
        <time>2013-09-14T14:26:58.001Z</time>
      </trkpt>
      <trkpt lat="44.77683" lon="5.59672">
        <ele>1261</ele>
        <time>2013-09-14T14:26:58.001Z</time>
      </trkpt>
      <trkpt lat="44.77683" lon="5.59672">
        <ele>1261</ele>
        <time>2013-09-14T14:26:59.001Z</time>
      </trkpt>
      <trkpt lat="44.77687" lon="5.59668">
        <ele>1261</ele>
        <time>2013-09-14T14:27:01.001Z</time>
      </trkpt>
      <trkpt lat="44.77692" lon="5.59661">
        <ele>1260</ele>
        <time>2013-09-14T14:27:05.001Z</time>
      </trkpt>
      <trkpt lat="44.77697" lon="5.59657">
        <ele>1259</ele>
        <time>2013-09-14T14:27:08.001Z</time>
      </trkpt>
      <trkpt lat="44.77701" lon="5.59652">
        <ele>1259</ele>
        <time>2013-09-14T14:27:11.001Z</time>
      </trkpt>
      <trkpt lat="44.77705" lon="5.59646">
        <ele>1259</ele>
        <time>2013-09-14T14:27:14.001Z</time>
      </trkpt>
      <trkpt lat="44.77708" lon="5.5964">
        <ele>1258</ele>
        <time>2013-09-14T14:27:16.001Z</time>
      </trkpt>
      <trkpt lat="44.77711" lon="5.59631">
        <ele>1258</ele>
        <time>2013-09-14T14:27:18.001Z</time>
      </trkpt>
      <trkpt lat="44.77715" lon="5.59627">
        <ele>1258</ele>
        <time>2013-09-14T14:27:21.001Z</time>
      </trkpt>
      <trkpt lat="44.77719" lon="5.59625">
        <ele>1257</ele>
        <time>2013-09-14T14:27:24.001Z</time>
      </trkpt>
      <trkpt lat="44.77725" lon="5.59625">
        <ele>1257</ele>
        <time>2013-09-14T14:27:27.001Z</time>
      </trkpt>
      <trkpt lat="44.77729" lon="5.59618">
        <ele>1256</ele>
        <time>2013-09-14T14:27:39.001Z</time>
      </trkpt>
      <trkpt lat="44.77729" lon="5.59618">
        <ele>1256</ele>
        <time>2013-09-14T14:27:39.001Z</time>
      </trkpt>
      <trkpt lat="44.77729" lon="5.59618">
        <ele>1256</ele>
        <time>2013-09-14T14:27:47.001Z</time>
      </trkpt>
      <trkpt lat="44.7773" lon="5.59612">
        <ele>1256</ele>
        <time>2013-09-14T14:27:48.001Z</time>
      </trkpt>
      <trkpt lat="44.77731" lon="5.59605">
        <ele>1256</ele>
        <time>2013-09-14T14:27:51.001Z</time>
      </trkpt>
      <trkpt lat="44.77736" lon="5.59601">
        <ele>1255</ele>
        <time>2013-09-14T14:27:55.001Z</time>
      </trkpt>
      <trkpt lat="44.77739" lon="5.59595">
        <ele>1255</ele>
        <time>2013-09-14T14:27:59.001Z</time>
      </trkpt>
      <trkpt lat="44.77743" lon="5.5959">
        <ele>1254</ele>
        <time>2013-09-14T14:28:02.001Z</time>
      </trkpt>
      <trkpt lat="44.77748" lon="5.59586">
        <ele>1254</ele>
        <time>2013-09-14T14:28:06.001Z</time>
      </trkpt>
      <trkpt lat="44.77753" lon="5.59584">
        <ele>1254</ele>
        <time>2013-09-14T14:28:09.001Z</time>
      </trkpt>
      <trkpt lat="44.77756" lon="5.5958">
        <ele>1254</ele>
        <time>2013-09-14T14:28:11.001Z</time>
      </trkpt>
      <trkpt lat="44.7776" lon="5.59575">
        <ele>1254</ele>
        <time>2013-09-14T14:28:14.001Z</time>
      </trkpt>
      <trkpt lat="44.77761" lon="5.59569">
        <ele>1253</ele>
        <time>2013-09-14T14:28:17.001Z</time>
      </trkpt>
      <trkpt lat="44.77766" lon="5.59558">
        <ele>1253</ele>
        <time>2013-09-14T14:28:33.001Z</time>
      </trkpt>
      <trkpt lat="44.77769" lon="5.59552">
        <ele>1253</ele>
        <time>2013-09-14T14:28:35.001Z</time>
      </trkpt>
      <trkpt lat="44.77772" lon="5.59543">
        <ele>1253</ele>
        <time>2013-09-14T14:28:38.001Z</time>
      </trkpt>
      <trkpt lat="44.77775" lon="5.59537">
        <ele>1252</ele>
        <time>2013-09-14T14:28:41.001Z</time>
      </trkpt>
      <trkpt lat="44.77778" lon="5.5953">
        <ele>1252</ele>
        <time>2013-09-14T14:28:44.001Z</time>
      </trkpt>
      <trkpt lat="44.77783" lon="5.59524">
        <ele>1252</ele>
        <time>2013-09-14T14:28:47.001Z</time>
      </trkpt>
      <trkpt lat="44.77787" lon="5.59517">
        <ele>1252</ele>
        <time>2013-09-14T14:28:50.001Z</time>
      </trkpt>
      <trkpt lat="44.77792" lon="5.59513">
        <ele>1251</ele>
        <time>2013-09-14T14:28:53.001Z</time>
      </trkpt>
      <trkpt lat="44.77797" lon="5.59511">
        <ele>1250</ele>
        <time>2013-09-14T14:29:25.001Z</time>
      </trkpt>
      <trkpt lat="44.77797" lon="5.59511">
        <ele>1250</ele>
        <time>2013-09-14T14:29:25.001Z</time>
      </trkpt>
      <trkpt lat="44.77797" lon="5.59511">
        <ele>1250</ele>
        <time>2013-09-14T14:29:27.001Z</time>
      </trkpt>
      <trkpt lat="44.77801" lon="5.59507">
        <ele>1250</ele>
        <time>2013-09-14T14:29:37.001Z</time>
      </trkpt>
      <trkpt lat="44.77806" lon="5.59507">
        <ele>1250</ele>
        <time>2013-09-14T14:29:43.001Z</time>
      </trkpt>
      <trkpt lat="44.77811" lon="5.59509">
        <ele>1250</ele>
        <time>2013-09-14T14:29:48.001Z</time>
      </trkpt>
      <trkpt lat="44.77815" lon="5.59513">
        <ele>1249</ele>
        <time>2013-09-14T14:29:54.001Z</time>
      </trkpt>
      <trkpt lat="44.77815" lon="5.59513">
        <ele>1249</ele>
        <time>2013-09-14T14:29:54.001Z</time>
      </trkpt>
      <trkpt lat="44.77815" lon="5.59513">
        <ele>1249</ele>
        <time>2013-09-14T14:29:55.001Z</time>
      </trkpt>
      <trkpt lat="44.77818" lon="5.5952">
        <ele>1248</ele>
        <time>2013-09-14T14:30:00.001Z</time>
      </trkpt>
      <trkpt lat="44.77822" lon="5.59524">
        <ele>1247</ele>
        <time>2013-09-14T14:30:05.001Z</time>
      </trkpt>
      <trkpt lat="44.77822" lon="5.59524">
        <ele>1247</ele>
        <time>2013-09-14T14:30:05.001Z</time>
      </trkpt>
      <trkpt lat="44.77822" lon="5.59524">
        <ele>1247</ele>
        <time>2013-09-14T14:30:08.001Z</time>
      </trkpt>
      <trkpt lat="44.77826" lon="5.5953">
        <ele>1247</ele>
        <time>2013-09-14T14:30:20.001Z</time>
      </trkpt>
      <trkpt lat="44.77826" lon="5.5953">
        <ele>1247</ele>
        <time>2013-09-14T14:30:20.001Z</time>
      </trkpt>
      <trkpt lat="44.77826" lon="5.5953">
        <ele>1246</ele>
        <time>2013-09-14T14:30:21.001Z</time>
      </trkpt>
      <trkpt lat="44.77827" lon="5.59537">
        <ele>1246</ele>
        <time>2013-09-14T14:30:24.001Z</time>
      </trkpt>
      <trkpt lat="44.77828" lon="5.59543">
        <ele>1246</ele>
        <time>2013-09-14T14:30:27.001Z</time>
      </trkpt>
      <trkpt lat="44.77829" lon="5.5955">
        <ele>1245</ele>
        <time>2013-09-14T14:30:31.001Z</time>
      </trkpt>
      <trkpt lat="44.7783" lon="5.59556">
        <ele>1245</ele>
        <time>2013-09-14T14:30:35.001Z</time>
      </trkpt>
      <trkpt lat="44.7783" lon="5.59562">
        <ele>1245</ele>
        <time>2013-09-14T14:30:38.001Z</time>
      </trkpt>
      <trkpt lat="44.7783" lon="5.59562">
        <ele>1245</ele>
        <time>2013-09-14T14:30:38.001Z</time>
      </trkpt>
      <trkpt lat="44.7783" lon="5.59562">
        <ele>1245</ele>
        <time>2013-09-14T14:30:42.001Z</time>
      </trkpt>
      <trkpt lat="44.77826" lon="5.59564">
        <ele>1245</ele>
        <time>2013-09-14T14:31:17.001Z</time>
      </trkpt>
      <trkpt lat="44.77826" lon="5.59564">
        <ele>1245</ele>
        <time>2013-09-14T14:31:17.001Z</time>
      </trkpt>
      <trkpt lat="44.77826" lon="5.59564">
        <ele>1245</ele>
        <time>2013-09-14T14:31:22.001Z</time>
      </trkpt>
      <trkpt lat="44.7783" lon="5.59567">
        <ele>1245</ele>
        <time>2013-09-14T14:31:34.001Z</time>
      </trkpt>
      <trkpt lat="44.7783" lon="5.59567">
        <ele>1245</ele>
        <time>2013-09-14T14:31:34.001Z</time>
      </trkpt>
      <trkpt lat="44.7783" lon="5.59567">
        <ele>1245</ele>
        <time>2013-09-14T14:31:35.001Z</time>
      </trkpt>
      <trkpt lat="44.77831" lon="5.59573">
        <ele>1245</ele>
        <time>2013-09-14T14:31:38.001Z</time>
      </trkpt>
      <trkpt lat="44.77832" lon="5.5958">
        <ele>1245</ele>
        <time>2013-09-14T14:31:41.001Z</time>
      </trkpt>
      <trkpt lat="44.77833" lon="5.59586">
        <ele>1245</ele>
        <time>2013-09-14T14:31:44.001Z</time>
      </trkpt>
      <trkpt lat="44.77835" lon="5.59592">
        <ele>1245</ele>
        <time>2013-09-14T14:31:48.001Z</time>
      </trkpt>
      <trkpt lat="44.77836" lon="5.59599">
        <ele>1245</ele>
        <time>2013-09-14T14:31:51.001Z</time>
      </trkpt>
      <trkpt lat="44.77836" lon="5.59599">
        <ele>1245</ele>
        <time>2013-09-14T14:31:51.001Z</time>
      </trkpt>
      <trkpt lat="44.77836" lon="5.59599">
        <ele>1245</ele>
        <time>2013-09-14T14:31:52.001Z</time>
      </trkpt>
      <trkpt lat="44.77836" lon="5.59605">
        <ele>1245</ele>
        <time>2013-09-14T14:31:55.001Z</time>
      </trkpt>
      <trkpt lat="44.77835" lon="5.59612">
        <ele>1245</ele>
        <time>2013-09-14T14:31:58.001Z</time>
      </trkpt>
      <trkpt lat="44.77835" lon="5.59618">
        <ele>1246</ele>
        <time>2013-09-14T14:32:01.001Z</time>
      </trkpt>
      <trkpt lat="44.77835" lon="5.59625">
        <ele>1246</ele>
        <time>2013-09-14T14:32:04.001Z</time>
      </trkpt>
      <trkpt lat="44.77836" lon="5.59631">
        <ele>1246</ele>
        <time>2013-09-14T14:32:07.001Z</time>
      </trkpt>
      <trkpt lat="44.77838" lon="5.5964">
        <ele>1246</ele>
        <time>2013-09-14T14:32:10.001Z</time>
      </trkpt>
      <trkpt lat="44.77843" lon="5.59646">
        <ele>1246</ele>
        <time>2013-09-14T14:32:14.001Z</time>
      </trkpt>
      <trkpt lat="44.77843" lon="5.59646">
        <ele>1246</ele>
        <time>2013-09-14T14:32:14.001Z</time>
      </trkpt>
      <trkpt lat="44.77843" lon="5.59646">
        <ele>1246</ele>
        <time>2013-09-14T14:32:15.001Z</time>
      </trkpt>
      <trkpt lat="44.77847" lon="5.59652">
        <ele>1245</ele>
        <time>2013-09-14T14:32:35.001Z</time>
      </trkpt>
      <trkpt lat="44.77847" lon="5.59652">
        <ele>1245</ele>
        <time>2013-09-14T14:32:35.001Z</time>
      </trkpt>
      <trkpt lat="44.77847" lon="5.59652">
        <ele>1245</ele>
        <time>2013-09-14T14:32:36.001Z</time>
      </trkpt>
      <trkpt lat="44.7785" lon="5.59657">
        <ele>1245</ele>
        <time>2013-09-14T14:32:41.001Z</time>
      </trkpt>
      <trkpt lat="44.77855" lon="5.59659">
        <ele>1245</ele>
        <time>2013-09-14T14:33:04.001Z</time>
      </trkpt>
      <trkpt lat="44.77859" lon="5.59663">
        <ele>1245</ele>
        <time>2013-09-14T14:33:09.001Z</time>
      </trkpt>
      <trkpt lat="44.77863" lon="5.59668">
        <ele>1245</ele>
        <time>2013-09-14T14:33:13.001Z</time>
      </trkpt>
      <trkpt lat="44.77863" lon="5.59668">
        <ele>1245</ele>
        <time>2013-09-14T14:33:13.001Z</time>
      </trkpt>
      <trkpt lat="44.77863" lon="5.59668">
        <ele>1245</ele>
        <time>2013-09-14T14:33:14.001Z</time>
      </trkpt>
      <trkpt lat="44.77866" lon="5.59672">
        <ele>1246</ele>
        <time>2013-09-14T14:33:21.001Z</time>
      </trkpt>
      <trkpt lat="44.77866" lon="5.59672">
        <ele>1246</ele>
        <time>2013-09-14T14:33:21.001Z</time>
      </trkpt>
      <trkpt lat="44.77866" lon="5.59672">
        <ele>1246</ele>
        <time>2013-09-14T14:33:22.001Z</time>
      </trkpt>
      <trkpt lat="44.77871" lon="5.59676">
        <ele>1246</ele>
        <time>2013-09-14T14:33:29.001Z</time>
      </trkpt>
      <trkpt lat="44.77871" lon="5.59676">
        <ele>1246</ele>
        <time>2013-09-14T14:33:29.001Z</time>
      </trkpt>
      <trkpt lat="44.77871" lon="5.59676">
        <ele>1246</ele>
        <time>2013-09-14T14:33:46.001Z</time>
      </trkpt>
      <trkpt lat="44.77872" lon="5.59683">
        <ele>1248</ele>
        <time>2013-09-14T14:34:10.001Z</time>
      </trkpt>
      <trkpt lat="44.77875" lon="5.59689">
        <ele>1249</ele>
        <time>2013-09-14T14:34:15.001Z</time>
      </trkpt>
      <trkpt lat="44.77878" lon="5.59693">
        <ele>1249</ele>
        <time>2013-09-14T14:34:19.001Z</time>
      </trkpt>
      <trkpt lat="44.77882" lon="5.59698">
        <ele>1250</ele>
        <time>2013-09-14T14:34:23.001Z</time>
      </trkpt>
      <trkpt lat="44.77887" lon="5.597">
        <ele>1250</ele>
        <time>2013-09-14T14:34:27.001Z</time>
      </trkpt>
      <trkpt lat="44.77891" lon="5.59702">
        <ele>1251</ele>
        <time>2013-09-14T14:34:30.001Z</time>
      </trkpt>
      <trkpt lat="44.77896" lon="5.59702">
        <ele>1251</ele>
        <time>2013-09-14T14:34:35.001Z</time>
      </trkpt>
      <trkpt lat="44.77901" lon="5.59704">
        <ele>1252</ele>
        <time>2013-09-14T14:34:39.001Z</time>
      </trkpt>
      <trkpt lat="44.77904" lon="5.59708">
        <ele>1252</ele>
        <time>2013-09-14T14:34:43.001Z</time>
      </trkpt>
      <trkpt lat="44.77904" lon="5.59708">
        <ele>1252</ele>
        <time>2013-09-14T14:34:43.001Z</time>
      </trkpt>
      <trkpt lat="44.77904" lon="5.59708">
        <ele>1253</ele>
        <time>2013-09-14T14:34:44.001Z</time>
      </trkpt>
      <trkpt lat="44.77906" lon="5.59715">
        <ele>1253</ele>
        <time>2013-09-14T14:34:49.001Z</time>
      </trkpt>
      <trkpt lat="44.77908" lon="5.59721">
        <ele>1254</ele>
        <time>2013-09-14T14:34:53.001Z</time>
      </trkpt>
      <trkpt lat="44.77911" lon="5.59728">
        <ele>1254</ele>
        <time>2013-09-14T14:34:58.001Z</time>
      </trkpt>
      <trkpt lat="44.77915" lon="5.59734">
        <ele>1254</ele>
        <time>2013-09-14T14:35:03.001Z</time>
      </trkpt>
      <trkpt lat="44.77915" lon="5.59734">
        <ele>1254</ele>
        <time>2013-09-14T14:35:03.001Z</time>
      </trkpt>
      <trkpt lat="44.77915" lon="5.59734">
        <ele>1255</ele>
        <time>2013-09-14T14:35:04.001Z</time>
      </trkpt>
      <trkpt lat="44.77918" lon="5.5974">
        <ele>1255</ele>
        <time>2013-09-14T14:35:08.001Z</time>
      </trkpt>
      <trkpt lat="44.77918" lon="5.5974">
        <ele>1255</ele>
        <time>2013-09-14T14:35:08.001Z</time>
      </trkpt>
      <trkpt lat="44.77918" lon="5.5974">
        <ele>1255</ele>
        <time>2013-09-14T14:35:09.001Z</time>
      </trkpt>
      <trkpt lat="44.77921" lon="5.59747">
        <ele>1255</ele>
        <time>2013-09-14T14:35:14.001Z</time>
      </trkpt>
      <trkpt lat="44.77925" lon="5.59751">
        <ele>1256</ele>
        <time>2013-09-14T14:35:19.001Z</time>
      </trkpt>
      <trkpt lat="44.77925" lon="5.59751">
        <ele>1256</ele>
        <time>2013-09-14T14:35:19.001Z</time>
      </trkpt>
      <trkpt lat="44.77925" lon="5.59751">
        <ele>1256</ele>
        <time>2013-09-14T14:35:20.001Z</time>
      </trkpt>
      <trkpt lat="44.77929" lon="5.59758">
        <ele>1256</ele>
        <time>2013-09-14T14:35:24.001Z</time>
      </trkpt>
      <trkpt lat="44.77929" lon="5.59758">
        <ele>1256</ele>
        <time>2013-09-14T14:35:24.001Z</time>
      </trkpt>
      <trkpt lat="44.77929" lon="5.59758">
        <ele>1256</ele>
        <time>2013-09-14T14:35:25.001Z</time>
      </trkpt>
      <trkpt lat="44.7793" lon="5.59764">
        <ele>1256</ele>
        <time>2013-09-14T14:35:29.001Z</time>
      </trkpt>
      <trkpt lat="44.77933" lon="5.5977">
        <ele>1257</ele>
        <time>2013-09-14T14:35:33.001Z</time>
      </trkpt>
      <trkpt lat="44.77933" lon="5.5977">
        <ele>1257</ele>
        <time>2013-09-14T14:35:33.001Z</time>
      </trkpt>
      <trkpt lat="44.77933" lon="5.5977">
        <ele>1257</ele>
        <time>2013-09-14T14:35:34.001Z</time>
      </trkpt>
      <trkpt lat="44.77935" lon="5.59777">
        <ele>1258</ele>
        <time>2013-09-14T14:35:38.001Z</time>
      </trkpt>
      <trkpt lat="44.77939" lon="5.59779">
        <ele>1258</ele>
        <time>2013-09-14T14:35:43.001Z</time>
      </trkpt>
      <trkpt lat="44.77944" lon="5.59781">
        <ele>1259</ele>
        <time>2013-09-14T14:35:47.001Z</time>
      </trkpt>
      <trkpt lat="44.77949" lon="5.59786">
        <ele>1259</ele>
        <time>2013-09-14T14:35:51.001Z</time>
      </trkpt>
      <trkpt lat="44.77953" lon="5.5979">
        <ele>1260</ele>
        <time>2013-09-14T14:35:55.001Z</time>
      </trkpt>
      <trkpt lat="44.77958" lon="5.59792">
        <ele>1261</ele>
        <time>2013-09-14T14:35:57.001Z</time>
      </trkpt>
      <trkpt lat="44.77962" lon="5.59796">
        <ele>1261</ele>
        <time>2013-09-14T14:35:59.001Z</time>
      </trkpt>
      <trkpt lat="44.77965" lon="5.59803">
        <ele>1262</ele>
        <time>2013-09-14T14:36:01.001Z</time>
      </trkpt>
      <trkpt lat="44.77967" lon="5.59809">
        <ele>1262</ele>
        <time>2013-09-14T14:36:03.001Z</time>
      </trkpt>
      <trkpt lat="44.77972" lon="5.59818">
        <ele>1262</ele>
        <time>2013-09-14T14:36:05.001Z</time>
      </trkpt>
      <trkpt lat="44.77975" lon="5.59822">
        <ele>1263</ele>
        <time>2013-09-14T14:36:09.001Z</time>
      </trkpt>
      <trkpt lat="44.77975" lon="5.59822">
        <ele>1263</ele>
        <time>2013-09-14T14:36:09.001Z</time>
      </trkpt>
      <trkpt lat="44.77975" lon="5.59822">
        <ele>1263</ele>
        <time>2013-09-14T14:36:10.001Z</time>
      </trkpt>
      <trkpt lat="44.7798" lon="5.59822">
        <ele>1264</ele>
        <time>2013-09-14T14:36:14.001Z</time>
      </trkpt>
      <trkpt lat="44.77984" lon="5.59824">
        <ele>1264</ele>
        <time>2013-09-14T14:36:16.001Z</time>
      </trkpt>
      <trkpt lat="44.7799" lon="5.59824">
        <ele>1264</ele>
        <time>2013-09-14T14:36:21.001Z</time>
      </trkpt>
      <trkpt lat="44.77993" lon="5.59828">
        <ele>1264</ele>
        <time>2013-09-14T14:36:28.001Z</time>
      </trkpt>
      <trkpt lat="44.77993" lon="5.59828">
        <ele>1264</ele>
        <time>2013-09-14T14:36:28.001Z</time>
      </trkpt>
      <trkpt lat="44.77993" lon="5.59828">
        <ele>1264</ele>
        <time>2013-09-14T14:36:29.001Z</time>
      </trkpt>
      <trkpt lat="44.77999" lon="5.59828">
        <ele>1265</ele>
        <time>2013-09-14T14:36:36.001Z</time>
      </trkpt>
      <trkpt lat="44.77999" lon="5.59828">
        <ele>1265</ele>
        <time>2013-09-14T14:36:36.001Z</time>
      </trkpt>
      <trkpt lat="44.77999" lon="5.59828">
        <ele>1265</ele>
        <time>2013-09-14T14:36:37.001Z</time>
      </trkpt>
      <trkpt lat="44.78005" lon="5.59831">
        <ele>1265</ele>
        <time>2013-09-14T14:36:45.001Z</time>
      </trkpt>
      <trkpt lat="44.78011" lon="5.59831">
        <ele>1265</ele>
        <time>2013-09-14T14:36:49.001Z</time>
      </trkpt>
      <trkpt lat="44.78017" lon="5.59828">
        <ele>1265</ele>
        <time>2013-09-14T14:36:51.001Z</time>
      </trkpt>
      <trkpt lat="44.78024" lon="5.59826">
        <ele>1265</ele>
        <time>2013-09-14T14:36:54.001Z</time>
      </trkpt>
      <trkpt lat="44.78032" lon="5.59824">
        <ele>1265</ele>
        <time>2013-09-14T14:36:56.001Z</time>
      </trkpt>
      <trkpt lat="44.78039" lon="5.59824">
        <ele>1265</ele>
        <time>2013-09-14T14:36:58.001Z</time>
      </trkpt>
      <trkpt lat="44.78046" lon="5.59824">
        <ele>1265</ele>
        <time>2013-09-14T14:37:00.001Z</time>
      </trkpt>
      <trkpt lat="44.78051" lon="5.59824">
        <ele>1265</ele>
        <time>2013-09-14T14:37:06.001Z</time>
      </trkpt>
      <trkpt lat="44.78051" lon="5.59824">
        <ele>1265</ele>
        <time>2013-09-14T14:37:06.001Z</time>
      </trkpt>
      <trkpt lat="44.78051" lon="5.59824">
        <ele>1264</ele>
        <time>2013-09-14T14:37:16.001Z</time>
      </trkpt>
      <trkpt lat="44.78054" lon="5.59831">
        <ele>1264</ele>
        <time>2013-09-14T14:37:22.001Z</time>
      </trkpt>
      <trkpt lat="44.78056" lon="5.59837">
        <ele>1264</ele>
        <time>2013-09-14T14:37:27.001Z</time>
      </trkpt>
      <trkpt lat="44.78056" lon="5.59837">
        <ele>1264</ele>
        <time>2013-09-14T14:37:27.001Z</time>
      </trkpt>
      <trkpt lat="44.78056" lon="5.59837">
        <ele>1264</ele>
        <time>2013-09-14T14:37:28.001Z</time>
      </trkpt>
      <trkpt lat="44.78058" lon="5.59831">
        <ele>1261</ele>
        <time>2013-09-14T14:38:44.001Z</time>
      </trkpt>
      <trkpt lat="44.78058" lon="5.59831">
        <ele>1261</ele>
        <time>2013-09-14T14:38:44.001Z</time>
      </trkpt>
      <trkpt lat="44.78058" lon="5.59831">
        <ele>1260</ele>
        <time>2013-09-14T14:38:45.001Z</time>
      </trkpt>
      <trkpt lat="44.78062" lon="5.59824">
        <ele>1259</ele>
        <time>2013-09-14T14:38:48.001Z</time>
      </trkpt>
      <trkpt lat="44.78065" lon="5.59818">
        <ele>1257</ele>
        <time>2013-09-14T14:38:52.001Z</time>
      </trkpt>
      <trkpt lat="44.78065" lon="5.59818">
        <ele>1257</ele>
        <time>2013-09-14T14:38:52.001Z</time>
      </trkpt>
      <trkpt lat="44.78065" lon="5.59818">
        <ele>1254</ele>
        <time>2013-09-14T14:39:02.001Z</time>
      </trkpt>
      <trkpt lat="44.78067" lon="5.59811">
        <ele>1252</ele>
        <time>2013-09-14T14:39:07.001Z</time>
      </trkpt>
      <trkpt lat="44.7807" lon="5.59805">
        <ele>1250</ele>
        <time>2013-09-14T14:39:11.001Z</time>
      </trkpt>
      <trkpt lat="44.78074" lon="5.59798">
        <ele>1249</ele>
        <time>2013-09-14T14:39:16.001Z</time>
      </trkpt>
      <trkpt lat="44.78074" lon="5.59798">
        <ele>1249</ele>
        <time>2013-09-14T14:39:16.001Z</time>
      </trkpt>
      <trkpt lat="44.78074" lon="5.59798">
        <ele>1248</ele>
        <time>2013-09-14T14:39:17.001Z</time>
      </trkpt>
      <trkpt lat="44.78077" lon="5.59792">
        <ele>1247</ele>
        <time>2013-09-14T14:39:21.001Z</time>
      </trkpt>
      <trkpt lat="44.78079" lon="5.59786">
        <ele>1246</ele>
        <time>2013-09-14T14:39:26.001Z</time>
      </trkpt>
      <trkpt lat="44.78079" lon="5.59786">
        <ele>1246</ele>
        <time>2013-09-14T14:39:26.001Z</time>
      </trkpt>
      <trkpt lat="44.78079" lon="5.59786">
        <ele>1246</ele>
        <time>2013-09-14T14:39:27.001Z</time>
      </trkpt>
      <trkpt lat="44.78079" lon="5.59779">
        <ele>1245</ele>
        <time>2013-09-14T14:39:31.001Z</time>
      </trkpt>
      <trkpt lat="44.78079" lon="5.59779">
        <ele>1245</ele>
        <time>2013-09-14T14:39:31.001Z</time>
      </trkpt>
      <trkpt lat="44.78079" lon="5.59779">
        <ele>1244</ele>
        <time>2013-09-14T14:39:32.001Z</time>
      </trkpt>
      <trkpt lat="44.7808" lon="5.59773">
        <ele>1243</ele>
        <time>2013-09-14T14:39:38.001Z</time>
      </trkpt>
      <trkpt lat="44.78081" lon="5.59766">
        <ele>1243</ele>
        <time>2013-09-14T14:39:42.001Z</time>
      </trkpt>
      <trkpt lat="44.78081" lon="5.5976">
        <ele>1242</ele>
        <time>2013-09-14T14:39:46.001Z</time>
      </trkpt>
      <trkpt lat="44.78082" lon="5.59753">
        <ele>1242</ele>
        <time>2013-09-14T14:39:50.001Z</time>
      </trkpt>
      <trkpt lat="44.78083" lon="5.59747">
        <ele>1241</ele>
        <time>2013-09-14T14:39:54.001Z</time>
      </trkpt>
      <trkpt lat="44.78083" lon="5.5974">
        <ele>1241</ele>
        <time>2013-09-14T14:39:58.001Z</time>
      </trkpt>
      <trkpt lat="44.78082" lon="5.59734">
        <ele>1241</ele>
        <time>2013-09-14T14:40:01.001Z</time>
      </trkpt>
      <trkpt lat="44.78082" lon="5.59728">
        <ele>1241</ele>
        <time>2013-09-14T14:40:05.001Z</time>
      </trkpt>
      <trkpt lat="44.78082" lon="5.59721">
        <ele>1242</ele>
        <time>2013-09-14T14:40:08.001Z</time>
      </trkpt>
      <trkpt lat="44.78081" lon="5.59715">
        <ele>1242</ele>
        <time>2013-09-14T14:40:12.001Z</time>
      </trkpt>
      <trkpt lat="44.78081" lon="5.59715">
        <ele>1242</ele>
        <time>2013-09-14T14:40:12.001Z</time>
      </trkpt>
      <trkpt lat="44.78081" lon="5.59715">
        <ele>1242</ele>
        <time>2013-09-14T14:40:13.001Z</time>
      </trkpt>
      <trkpt lat="44.78081" lon="5.59708">
        <ele>1242</ele>
        <time>2013-09-14T14:40:18.001Z</time>
      </trkpt>
      <trkpt lat="44.78081" lon="5.59708">
        <ele>1242</ele>
        <time>2013-09-14T14:40:18.001Z</time>
      </trkpt>
      <trkpt lat="44.78081" lon="5.59708">
        <ele>1242</ele>
        <time>2013-09-14T14:40:19.001Z</time>
      </trkpt>
      <trkpt lat="44.78081" lon="5.59702">
        <ele>1242</ele>
        <time>2013-09-14T14:40:23.001Z</time>
      </trkpt>
      <trkpt lat="44.78081" lon="5.59695">
        <ele>1242</ele>
        <time>2013-09-14T14:40:26.001Z</time>
      </trkpt>
      <trkpt lat="44.7808" lon="5.59689">
        <ele>1243</ele>
        <time>2013-09-14T14:40:29.001Z</time>
      </trkpt>
      <trkpt lat="44.7808" lon="5.59683">
        <ele>1243</ele>
        <time>2013-09-14T14:40:31.001Z</time>
      </trkpt>
      <trkpt lat="44.78078" lon="5.59676">
        <ele>1243</ele>
        <time>2013-09-14T14:40:34.001Z</time>
      </trkpt>
      <trkpt lat="44.78077" lon="5.5967">
        <ele>1243</ele>
        <time>2013-09-14T14:40:37.001Z</time>
      </trkpt>
      <trkpt lat="44.78074" lon="5.59663">
        <ele>1243</ele>
        <time>2013-09-14T14:40:40.001Z</time>
      </trkpt>
      <trkpt lat="44.78073" lon="5.59657">
        <ele>1244</ele>
        <time>2013-09-14T14:40:44.001Z</time>
      </trkpt>
      <trkpt lat="44.78072" lon="5.5965">
        <ele>1244</ele>
        <time>2013-09-14T14:40:47.001Z</time>
      </trkpt>
      <trkpt lat="44.78072" lon="5.59644">
        <ele>1244</ele>
        <time>2013-09-14T14:40:50.001Z</time>
      </trkpt>
      <trkpt lat="44.78072" lon="5.59638">
        <ele>1245</ele>
        <time>2013-09-14T14:40:53.001Z</time>
      </trkpt>
      <trkpt lat="44.78072" lon="5.59631">
        <ele>1245</ele>
        <time>2013-09-14T14:40:56.001Z</time>
      </trkpt>
      <trkpt lat="44.78072" lon="5.59625">
        <ele>1245</ele>
        <time>2013-09-14T14:41:00.001Z</time>
      </trkpt>
      <trkpt lat="44.78072" lon="5.59618">
        <ele>1246</ele>
        <time>2013-09-14T14:41:04.001Z</time>
      </trkpt>
      <trkpt lat="44.78072" lon="5.5961">
        <ele>1246</ele>
        <time>2013-09-14T14:41:08.001Z</time>
      </trkpt>
      <trkpt lat="44.78074" lon="5.59603">
        <ele>1247</ele>
        <time>2013-09-14T14:41:10.001Z</time>
      </trkpt>
      <trkpt lat="44.78077" lon="5.59595">
        <ele>1247</ele>
        <time>2013-09-14T14:41:13.001Z</time>
      </trkpt>
      <trkpt lat="44.78081" lon="5.59588">
        <ele>1247</ele>
        <time>2013-09-14T14:41:16.001Z</time>
      </trkpt>
      <trkpt lat="44.78085" lon="5.59584">
        <ele>1246</ele>
        <time>2013-09-14T14:41:21.001Z</time>
      </trkpt>
      <trkpt lat="44.78091" lon="5.59584">
        <ele>1246</ele>
        <time>2013-09-14T14:41:31.001Z</time>
      </trkpt>
      <trkpt lat="44.78086" lon="5.59586">
        <ele>1246</ele>
        <time>2013-09-14T14:41:37.001Z</time>
      </trkpt>
      <trkpt lat="44.78081" lon="5.59586">
        <ele>1246</ele>
        <time>2013-09-14T14:41:40.001Z</time>
      </trkpt>
      <trkpt lat="44.78076" lon="5.59584">
        <ele>1246</ele>
        <time>2013-09-14T14:41:47.001Z</time>
      </trkpt>
      <trkpt lat="44.78076" lon="5.59584">
        <ele>1246</ele>
        <time>2013-09-14T14:41:47.001Z</time>
      </trkpt>
      <trkpt lat="44.78076" lon="5.59584">
        <ele>1246</ele>
        <time>2013-09-14T14:41:49.001Z</time>
      </trkpt>
      <trkpt lat="44.78071" lon="5.5958">
        <ele>1246</ele>
        <time>2013-09-14T14:42:00.001Z</time>
      </trkpt>
      <trkpt lat="44.78071" lon="5.5958">
        <ele>1246</ele>
        <time>2013-09-14T14:42:00.001Z</time>
      </trkpt>
      <trkpt lat="44.78071" lon="5.5958">
        <ele>1246</ele>
        <time>2013-09-14T14:42:18.001Z</time>
      </trkpt>
      <trkpt lat="44.78076" lon="5.59584">
        <ele>1246</ele>
        <time>2013-09-14T14:42:23.001Z</time>
      </trkpt>
      <trkpt lat="44.7808" lon="5.59586">
        <ele>1246</ele>
        <time>2013-09-14T14:42:29.001Z</time>
      </trkpt>
      <trkpt lat="44.7808" lon="5.59586">
        <ele>1246</ele>
        <time>2013-09-14T14:42:29.001Z</time>
      </trkpt>
      <trkpt lat="44.7808" lon="5.59586">
        <ele>1246</ele>
        <time>2013-09-14T14:42:31.001Z</time>
      </trkpt>
      <trkpt lat="44.78084" lon="5.59588">
        <ele>1247</ele>
        <time>2013-09-14T14:42:56.001Z</time>
      </trkpt>
      <trkpt lat="44.78087" lon="5.59595">
        <ele>1248</ele>
        <time>2013-09-14T14:43:04.001Z</time>
      </trkpt>
      <trkpt lat="44.78087" lon="5.59595">
        <ele>1248</ele>
        <time>2013-09-14T14:43:04.001Z</time>
      </trkpt>
      <trkpt lat="44.78087" lon="5.59595">
        <ele>1248</ele>
        <time>2013-09-14T14:43:05.001Z</time>
      </trkpt>
      <trkpt lat="44.78088" lon="5.59601">
        <ele>1248</ele>
        <time>2013-09-14T14:43:10.001Z</time>
      </trkpt>
      <trkpt lat="44.78088" lon="5.59601">
        <ele>1248</ele>
        <time>2013-09-14T14:43:10.001Z</time>
      </trkpt>
      <trkpt lat="44.78088" lon="5.59601">
        <ele>1248</ele>
        <time>2013-09-14T14:43:11.001Z</time>
      </trkpt>
      <trkpt lat="44.78088" lon="5.59608">
        <ele>1247</ele>
        <time>2013-09-14T14:43:19.001Z</time>
      </trkpt>
      <trkpt lat="44.78091" lon="5.59614">
        <ele>1247</ele>
        <time>2013-09-14T14:43:24.001Z</time>
      </trkpt>
      <trkpt lat="44.78092" lon="5.5962">
        <ele>1246</ele>
        <time>2013-09-14T14:43:28.001Z</time>
      </trkpt>
      <trkpt lat="44.78093" lon="5.59627">
        <ele>1246</ele>
        <time>2013-09-14T14:43:33.001Z</time>
      </trkpt>
      <trkpt lat="44.78097" lon="5.59631">
        <ele>1246</ele>
        <time>2013-09-14T14:43:38.001Z</time>
      </trkpt>
      <trkpt lat="44.78097" lon="5.59631">
        <ele>1246</ele>
        <time>2013-09-14T14:43:38.001Z</time>
      </trkpt>
      <trkpt lat="44.78097" lon="5.59631">
        <ele>1246</ele>
        <time>2013-09-14T14:43:39.001Z</time>
      </trkpt>
      <trkpt lat="44.781" lon="5.59635">
        <ele>1245</ele>
        <time>2013-09-14T14:43:42.001Z</time>
      </trkpt>
      <trkpt lat="44.78104" lon="5.59638">
        <ele>1245</ele>
        <time>2013-09-14T14:43:46.001Z</time>
      </trkpt>
      <trkpt lat="44.78108" lon="5.59642">
        <ele>1245</ele>
        <time>2013-09-14T14:43:50.001Z</time>
      </trkpt>
      <trkpt lat="44.7811" lon="5.59648">
        <ele>1245</ele>
        <time>2013-09-14T14:43:54.001Z</time>
      </trkpt>
      <trkpt lat="44.78113" lon="5.59652">
        <ele>1245</ele>
        <time>2013-09-14T14:43:58.001Z</time>
      </trkpt>
      <trkpt lat="44.78117" lon="5.59655">
        <ele>1245</ele>
        <time>2013-09-14T14:44:02.001Z</time>
      </trkpt>
      <trkpt lat="44.78122" lon="5.59657">
        <ele>1245</ele>
        <time>2013-09-14T14:44:05.001Z</time>
      </trkpt>
      <trkpt lat="44.78127" lon="5.59659">
        <ele>1246</ele>
        <time>2013-09-14T14:44:08.001Z</time>
      </trkpt>
      <trkpt lat="44.78132" lon="5.59661">
        <ele>1246</ele>
        <time>2013-09-14T14:44:11.001Z</time>
      </trkpt>
      <trkpt lat="44.78137" lon="5.59663">
        <ele>1246</ele>
        <time>2013-09-14T14:44:14.001Z</time>
      </trkpt>
      <trkpt lat="44.78142" lon="5.59663">
        <ele>1247</ele>
        <time>2013-09-14T14:44:18.001Z</time>
      </trkpt>
      <trkpt lat="44.78148" lon="5.59661">
        <ele>1247</ele>
        <time>2013-09-14T14:44:22.001Z</time>
      </trkpt>
      <trkpt lat="44.78153" lon="5.59661">
        <ele>1247</ele>
        <time>2013-09-14T14:44:26.001Z</time>
      </trkpt>
      <trkpt lat="44.78157" lon="5.59659">
        <ele>1248</ele>
        <time>2013-09-14T14:44:30.001Z</time>
      </trkpt>
      <trkpt lat="44.78161" lon="5.59657">
        <ele>1248</ele>
        <time>2013-09-14T14:44:33.001Z</time>
      </trkpt>
      <trkpt lat="44.78166" lon="5.59655">
        <ele>1248</ele>
        <time>2013-09-14T14:44:37.001Z</time>
      </trkpt>
      <trkpt lat="44.7817" lon="5.59648">
        <ele>1248</ele>
        <time>2013-09-14T14:44:41.001Z</time>
      </trkpt>
      <trkpt lat="44.78174" lon="5.59644">
        <ele>1248</ele>
        <time>2013-09-14T14:44:44.001Z</time>
      </trkpt>
      <trkpt lat="44.78176" lon="5.59638">
        <ele>1248</ele>
        <time>2013-09-14T14:44:47.001Z</time>
      </trkpt>
      <trkpt lat="44.78181" lon="5.59631">
        <ele>1248</ele>
        <time>2013-09-14T14:44:51.001Z</time>
      </trkpt>
      <trkpt lat="44.78183" lon="5.59625">
        <ele>1248</ele>
        <time>2013-09-14T14:44:55.001Z</time>
      </trkpt>
      <trkpt lat="44.78186" lon="5.59618">
        <ele>1248</ele>
        <time>2013-09-14T14:45:00.001Z</time>
      </trkpt>
      <trkpt lat="44.78187" lon="5.59612">
        <ele>1248</ele>
        <time>2013-09-14T14:45:04.001Z</time>
      </trkpt>
      <trkpt lat="44.78191" lon="5.59605">
        <ele>1248</ele>
        <time>2013-09-14T14:45:10.001Z</time>
      </trkpt>
      <trkpt lat="44.78195" lon="5.59599">
        <ele>1248</ele>
        <time>2013-09-14T14:45:14.001Z</time>
      </trkpt>
      <trkpt lat="44.78195" lon="5.59599">
        <ele>1248</ele>
        <time>2013-09-14T14:45:14.001Z</time>
      </trkpt>
      <trkpt lat="44.78195" lon="5.59599">
        <ele>1248</ele>
        <time>2013-09-14T14:45:15.001Z</time>
      </trkpt>
      <trkpt lat="44.78199" lon="5.59592">
        <ele>1248</ele>
        <time>2013-09-14T14:45:20.001Z</time>
      </trkpt>
      <trkpt lat="44.78203" lon="5.59588">
        <ele>1248</ele>
        <time>2013-09-14T14:45:25.001Z</time>
      </trkpt>
      <trkpt lat="44.78208" lon="5.59584">
        <ele>1248</ele>
        <time>2013-09-14T14:45:30.001Z</time>
      </trkpt>
      <trkpt lat="44.78212" lon="5.59582">
        <ele>1249</ele>
        <time>2013-09-14T14:45:33.001Z</time>
      </trkpt>
      <trkpt lat="44.78216" lon="5.5958">
        <ele>1249</ele>
        <time>2013-09-14T14:45:36.001Z</time>
      </trkpt>
      <trkpt lat="44.7822" lon="5.59575">
        <ele>1250</ele>
        <time>2013-09-14T14:45:40.001Z</time>
      </trkpt>
      <trkpt lat="44.78225" lon="5.59573">
        <ele>1251</ele>
        <time>2013-09-14T14:45:43.001Z</time>
      </trkpt>
      <trkpt lat="44.78229" lon="5.59569">
        <ele>1251</ele>
        <time>2013-09-14T14:45:47.001Z</time>
      </trkpt>
      <trkpt lat="44.78233" lon="5.59562">
        <ele>1252</ele>
        <time>2013-09-14T14:45:50.001Z</time>
      </trkpt>
      <trkpt lat="44.78238" lon="5.59556">
        <ele>1253</ele>
        <time>2013-09-14T14:45:54.001Z</time>
      </trkpt>
      <trkpt lat="44.78238" lon="5.59556">
        <ele>1253</ele>
        <time>2013-09-14T14:45:54.001Z</time>
      </trkpt>
      <trkpt lat="44.78238" lon="5.59556">
        <ele>1253</ele>
        <time>2013-09-14T14:45:55.001Z</time>
      </trkpt>
      <trkpt lat="44.78242" lon="5.5955">
        <ele>1254</ele>
        <time>2013-09-14T14:46:00.001Z</time>
      </trkpt>
      <trkpt lat="44.78246" lon="5.59541">
        <ele>1254</ele>
        <time>2013-09-14T14:46:03.001Z</time>
      </trkpt>
      <trkpt lat="44.78249" lon="5.59534">
        <ele>1254</ele>
        <time>2013-09-14T14:46:05.001Z</time>
      </trkpt>
      <trkpt lat="44.78254" lon="5.59528">
        <ele>1253</ele>
        <time>2013-09-14T14:46:08.001Z</time>
      </trkpt>
      <trkpt lat="44.78256" lon="5.59522">
        <ele>1253</ele>
        <time>2013-09-14T14:46:11.001Z</time>
      </trkpt>
      <trkpt lat="44.7826" lon="5.59517">
        <ele>1253</ele>
        <time>2013-09-14T14:46:18.001Z</time>
      </trkpt>
      <trkpt lat="44.7826" lon="5.59517">
        <ele>1253</ele>
        <time>2013-09-14T14:46:18.001Z</time>
      </trkpt>
      <trkpt lat="44.7826" lon="5.59517">
        <ele>1253</ele>
        <time>2013-09-14T14:46:20.001Z</time>
      </trkpt>
      <trkpt lat="44.78264" lon="5.59513">
        <ele>1254</ele>
        <time>2013-09-14T14:46:30.001Z</time>
      </trkpt>
      <trkpt lat="44.78269" lon="5.59509">
        <ele>1254</ele>
        <time>2013-09-14T14:46:33.001Z</time>
      </trkpt>
      <trkpt lat="44.78273" lon="5.59502">
        <ele>1254</ele>
        <time>2013-09-14T14:46:36.001Z</time>
      </trkpt>
      <trkpt lat="44.78278" lon="5.59496">
        <ele>1255</ele>
        <time>2013-09-14T14:46:39.001Z</time>
      </trkpt>
      <trkpt lat="44.78283" lon="5.59492">
        <ele>1255</ele>
        <time>2013-09-14T14:46:41.001Z</time>
      </trkpt>
      <trkpt lat="44.78287" lon="5.59487">
        <ele>1255</ele>
        <time>2013-09-14T14:46:43.001Z</time>
      </trkpt>
      <trkpt lat="44.78292" lon="5.59483">
        <ele>1256</ele>
        <time>2013-09-14T14:46:45.001Z</time>
      </trkpt>
      <trkpt lat="44.78299" lon="5.59477">
        <ele>1256</ele>
        <time>2013-09-14T14:46:47.001Z</time>
      </trkpt>
      <trkpt lat="44.78304" lon="5.59472">
        <ele>1256</ele>
        <time>2013-09-14T14:46:49.001Z</time>
      </trkpt>
      <trkpt lat="44.7831" lon="5.59468">
        <ele>1257</ele>
        <time>2013-09-14T14:46:51.001Z</time>
      </trkpt>
      <trkpt lat="44.78316" lon="5.5947">
        <ele>1257</ele>
        <time>2013-09-14T14:46:53.001Z</time>
      </trkpt>
      <trkpt lat="44.7832" lon="5.59477">
        <ele>1257</ele>
        <time>2013-09-14T14:46:55.001Z</time>
      </trkpt>
      <trkpt lat="44.78322" lon="5.59485">
        <ele>1258</ele>
        <time>2013-09-14T14:46:57.001Z</time>
      </trkpt>
      <trkpt lat="44.78324" lon="5.59492">
        <ele>1260</ele>
        <time>2013-09-14T14:46:58.001Z</time>
      </trkpt>
      <trkpt lat="44.78326" lon="5.59498">
        <ele>1262</ele>
        <time>2013-09-14T14:46:59.001Z</time>
      </trkpt>
      <trkpt lat="44.78326" lon="5.59504">
        <ele>1264</ele>
        <time>2013-09-14T14:47:00.001Z</time>
      </trkpt>
      <trkpt lat="44.78324" lon="5.59511">
        <ele>1265</ele>
        <time>2013-09-14T14:47:01.001Z</time>
      </trkpt>
      <trkpt lat="44.78323" lon="5.59517">
        <ele>1266</ele>
        <time>2013-09-14T14:47:02.001Z</time>
      </trkpt>
      <trkpt lat="44.7832" lon="5.59524">
        <ele>1267</ele>
        <time>2013-09-14T14:47:03.001Z</time>
      </trkpt>
      <trkpt lat="44.78318" lon="5.5953">
        <ele>1268</ele>
        <time>2013-09-14T14:47:04.001Z</time>
      </trkpt>
      <trkpt lat="44.78316" lon="5.59537">
        <ele>1269</ele>
        <time>2013-09-14T14:47:05.001Z</time>
      </trkpt>
      <trkpt lat="44.78315" lon="5.59545">
        <ele>1269</ele>
        <time>2013-09-14T14:47:06.001Z</time>
      </trkpt>
      <trkpt lat="44.78313" lon="5.59554">
        <ele>1270</ele>
        <time>2013-09-14T14:47:07.001Z</time>
      </trkpt>
      <trkpt lat="44.78312" lon="5.5956">
        <ele>1271</ele>
        <time>2013-09-14T14:47:08.001Z</time>
      </trkpt>
      <trkpt lat="44.7831" lon="5.59569">
        <ele>1272</ele>
        <time>2013-09-14T14:47:09.001Z</time>
      </trkpt>
      <trkpt lat="44.7831" lon="5.59577">
        <ele>1273</ele>
        <time>2013-09-14T14:47:10.001Z</time>
      </trkpt>
      <trkpt lat="44.78312" lon="5.59584">
        <ele>1274</ele>
        <time>2013-09-14T14:47:11.001Z</time>
      </trkpt>
      <trkpt lat="44.78313" lon="5.5959">
        <ele>1274</ele>
        <time>2013-09-14T14:47:12.001Z</time>
      </trkpt>
      <trkpt lat="44.78313" lon="5.59599">
        <ele>1276</ele>
        <time>2013-09-14T14:47:13.001Z</time>
      </trkpt>
      <trkpt lat="44.78315" lon="5.59608">
        <ele>1277</ele>
        <time>2013-09-14T14:47:14.001Z</time>
      </trkpt>
      <trkpt lat="44.78316" lon="5.59614">
        <ele>1277</ele>
        <time>2013-09-14T14:47:15.001Z</time>
      </trkpt>
      <trkpt lat="44.78318" lon="5.59622">
        <ele>1278</ele>
        <time>2013-09-14T14:47:16.001Z</time>
      </trkpt>
      <trkpt lat="44.7832" lon="5.59629">
        <ele>1280</ele>
        <time>2013-09-14T14:47:17.001Z</time>
      </trkpt>
      <trkpt lat="44.78322" lon="5.59638">
        <ele>1280</ele>
        <time>2013-09-14T14:47:18.001Z</time>
      </trkpt>
      <trkpt lat="44.78324" lon="5.59646">
        <ele>1281</ele>
        <time>2013-09-14T14:47:19.001Z</time>
      </trkpt>
      <trkpt lat="44.78327" lon="5.59655">
        <ele>1281</ele>
        <time>2013-09-14T14:47:20.001Z</time>
      </trkpt>
      <trkpt lat="44.78328" lon="5.59661">
        <ele>1281</ele>
        <time>2013-09-14T14:47:21.001Z</time>
      </trkpt>
      <trkpt lat="44.7833" lon="5.5967">
        <ele>1281</ele>
        <time>2013-09-14T14:47:22.001Z</time>
      </trkpt>
      <trkpt lat="44.78333" lon="5.59678">
        <ele>1282</ele>
        <time>2013-09-14T14:47:23.001Z</time>
      </trkpt>
      <trkpt lat="44.78336" lon="5.59687">
        <ele>1282</ele>
        <time>2013-09-14T14:47:24.001Z</time>
      </trkpt>
      <trkpt lat="44.78341" lon="5.59695">
        <ele>1282</ele>
        <time>2013-09-14T14:47:25.001Z</time>
      </trkpt>
      <trkpt lat="44.78346" lon="5.59702">
        <ele>1283</ele>
        <time>2013-09-14T14:47:26.001Z</time>
      </trkpt>
      <trkpt lat="44.78352" lon="5.59708">
        <ele>1284</ele>
        <time>2013-09-14T14:47:27.001Z</time>
      </trkpt>
      <trkpt lat="44.78358" lon="5.59717">
        <ele>1285</ele>
        <time>2013-09-14T14:47:28.001Z</time>
      </trkpt>
      <trkpt lat="44.78364" lon="5.59721">
        <ele>1285</ele>
        <time>2013-09-14T14:47:29.001Z</time>
      </trkpt>
      <trkpt lat="44.7837" lon="5.59728">
        <ele>1285</ele>
        <time>2013-09-14T14:47:30.001Z</time>
      </trkpt>
      <trkpt lat="44.78376" lon="5.59734">
        <ele>1285</ele>
        <time>2013-09-14T14:47:31.001Z</time>
      </trkpt>
      <trkpt lat="44.78381" lon="5.5974">
        <ele>1285</ele>
        <time>2013-09-14T14:47:32.001Z</time>
      </trkpt>
      <trkpt lat="44.78388" lon="5.59747">
        <ele>1285</ele>
        <time>2013-09-14T14:47:33.001Z</time>
      </trkpt>
      <trkpt lat="44.78394" lon="5.59751">
        <ele>1285</ele>
        <time>2013-09-14T14:47:34.001Z</time>
      </trkpt>
      <trkpt lat="44.78401" lon="5.59753">
        <ele>1285</ele>
        <time>2013-09-14T14:47:35.001Z</time>
      </trkpt>
      <trkpt lat="44.78407" lon="5.59758">
        <ele>1284</ele>
        <time>2013-09-14T14:47:36.001Z</time>
      </trkpt>
      <trkpt lat="44.78414" lon="5.59762">
        <ele>1284</ele>
        <time>2013-09-14T14:47:37.001Z</time>
      </trkpt>
      <trkpt lat="44.7842" lon="5.59768">
        <ele>1283</ele>
        <time>2013-09-14T14:47:38.001Z</time>
      </trkpt>
      <trkpt lat="44.78425" lon="5.59773">
        <ele>1283</ele>
        <time>2013-09-14T14:47:39.001Z</time>
      </trkpt>
      <trkpt lat="44.78432" lon="5.59777">
        <ele>1283</ele>
        <time>2013-09-14T14:47:40.001Z</time>
      </trkpt>
      <trkpt lat="44.78438" lon="5.59781">
        <ele>1282</ele>
        <time>2013-09-14T14:47:41.001Z</time>
      </trkpt>
      <trkpt lat="44.78442" lon="5.59788">
        <ele>1282</ele>
        <time>2013-09-14T14:47:42.001Z</time>
      </trkpt>
      <trkpt lat="44.78448" lon="5.59794">
        <ele>1282</ele>
        <time>2013-09-14T14:47:43.001Z</time>
      </trkpt>
      <trkpt lat="44.78453" lon="5.59801">
        <ele>1281</ele>
        <time>2013-09-14T14:47:44.001Z</time>
      </trkpt>
      <trkpt lat="44.78458" lon="5.59807">
        <ele>1281</ele>
        <time>2013-09-14T14:47:45.001Z</time>
      </trkpt>
      <trkpt lat="44.78463" lon="5.59813">
        <ele>1281</ele>
        <time>2013-09-14T14:47:46.001Z</time>
      </trkpt>
      <trkpt lat="44.78467" lon="5.5982">
        <ele>1280</ele>
        <time>2013-09-14T14:47:47.001Z</time>
      </trkpt>
      <trkpt lat="44.78472" lon="5.59826">
        <ele>1280</ele>
        <time>2013-09-14T14:47:48.001Z</time>
      </trkpt>
      <trkpt lat="44.78477" lon="5.59833">
        <ele>1280</ele>
        <time>2013-09-14T14:47:49.001Z</time>
      </trkpt>
      <trkpt lat="44.78482" lon="5.59841">
        <ele>1279</ele>
        <time>2013-09-14T14:47:50.001Z</time>
      </trkpt>
      <trkpt lat="44.78486" lon="5.59848">
        <ele>1279</ele>
        <time>2013-09-14T14:47:51.001Z</time>
      </trkpt>
      <trkpt lat="44.78491" lon="5.59854">
        <ele>1279</ele>
        <time>2013-09-14T14:47:52.001Z</time>
      </trkpt>
      <trkpt lat="44.78496" lon="5.59858">
        <ele>1278</ele>
        <time>2013-09-14T14:47:53.001Z</time>
      </trkpt>
      <trkpt lat="44.785" lon="5.59865">
        <ele>1278</ele>
        <time>2013-09-14T14:47:54.001Z</time>
      </trkpt>
      <trkpt lat="44.78508" lon="5.59869">
        <ele>1278</ele>
        <time>2013-09-14T14:47:56.001Z</time>
      </trkpt>
      <trkpt lat="44.78508" lon="5.59869">
        <ele>1278</ele>
        <time>2013-09-14T14:47:56.001Z</time>
      </trkpt>
      <trkpt lat="44.78508" lon="5.59869">
        <ele>1278</ele>
        <time>2013-09-14T14:47:58.001Z</time>
      </trkpt>
      <trkpt lat="44.78513" lon="5.59874">
        <ele>1277</ele>
        <time>2013-09-14T14:47:59.001Z</time>
      </trkpt>
      <trkpt lat="44.78513" lon="5.59874">
        <ele>1277</ele>
        <time>2013-09-14T14:47:59.001Z</time>
      </trkpt>
      <trkpt lat="44.78513" lon="5.59874">
        <ele>1277</ele>
        <time>2013-09-14T14:48:32.001Z</time>
      </trkpt>
      <trkpt lat="44.78518" lon="5.59876">
        <ele>1275</ele>
        <time>2013-09-14T14:48:33.001Z</time>
      </trkpt>
      <trkpt lat="44.78522" lon="5.59878">
        <ele>1274</ele>
        <time>2013-09-14T14:48:34.001Z</time>
      </trkpt>
      <trkpt lat="44.78529" lon="5.5988">
        <ele>1273</ele>
        <time>2013-09-14T14:48:36.001Z</time>
      </trkpt>
      <trkpt lat="44.78537" lon="5.5988">
        <ele>1273</ele>
        <time>2013-09-14T14:48:38.001Z</time>
      </trkpt>
      <trkpt lat="44.78543" lon="5.5988">
        <ele>1272</ele>
        <time>2013-09-14T14:48:40.001Z</time>
      </trkpt>
      <trkpt lat="44.78549" lon="5.5988">
        <ele>1271</ele>
        <time>2013-09-14T14:48:42.001Z</time>
      </trkpt>
      <trkpt lat="44.78557" lon="5.5988">
        <ele>1267</ele>
        <time>2013-09-14T14:48:44.001Z</time>
      </trkpt>
      <trkpt lat="44.78566" lon="5.5988">
        <ele>1261</ele>
        <time>2013-09-14T14:48:46.001Z</time>
      </trkpt>
      <trkpt lat="44.78571" lon="5.5988">
        <ele>1259</ele>
        <time>2013-09-14T14:48:47.001Z</time>
      </trkpt>
      <trkpt lat="44.78577" lon="5.5988">
        <ele>1258</ele>
        <time>2013-09-14T14:48:48.001Z</time>
      </trkpt>
      <trkpt lat="44.78582" lon="5.59882">
        <ele>1256</ele>
        <time>2013-09-14T14:48:49.001Z</time>
      </trkpt>
      <trkpt lat="44.78588" lon="5.59882">
        <ele>1255</ele>
        <time>2013-09-14T14:48:50.001Z</time>
      </trkpt>
      <trkpt lat="44.78594" lon="5.59882">
        <ele>1254</ele>
        <time>2013-09-14T14:48:51.001Z</time>
      </trkpt>
      <trkpt lat="44.786" lon="5.59882">
        <ele>1254</ele>
        <time>2013-09-14T14:48:52.001Z</time>
      </trkpt>
      <trkpt lat="44.78607" lon="5.59882">
        <ele>1253</ele>
        <time>2013-09-14T14:48:53.001Z</time>
      </trkpt>
      <trkpt lat="44.78613" lon="5.59882">
        <ele>1253</ele>
        <time>2013-09-14T14:48:54.001Z</time>
      </trkpt>
      <trkpt lat="44.78621" lon="5.59882">
        <ele>1252</ele>
        <time>2013-09-14T14:48:55.001Z</time>
      </trkpt>
      <trkpt lat="44.78627" lon="5.59884">
        <ele>1252</ele>
        <time>2013-09-14T14:48:56.001Z</time>
      </trkpt>
      <trkpt lat="44.78634" lon="5.59884">
        <ele>1252</ele>
        <time>2013-09-14T14:48:57.001Z</time>
      </trkpt>
      <trkpt lat="44.7864" lon="5.59884">
        <ele>1252</ele>
        <time>2013-09-14T14:48:58.001Z</time>
      </trkpt>
      <trkpt lat="44.78647" lon="5.59884">
        <ele>1252</ele>
        <time>2013-09-14T14:48:59.001Z</time>
      </trkpt>
      <trkpt lat="44.78654" lon="5.59884">
        <ele>1252</ele>
        <time>2013-09-14T14:49:00.001Z</time>
      </trkpt>
      <trkpt lat="44.7866" lon="5.59884">
        <ele>1252</ele>
        <time>2013-09-14T14:49:01.001Z</time>
      </trkpt>
      <trkpt lat="44.78668" lon="5.59884">
        <ele>1252</ele>
        <time>2013-09-14T14:49:02.001Z</time>
      </trkpt>
      <trkpt lat="44.78674" lon="5.59884">
        <ele>1252</ele>
        <time>2013-09-14T14:49:03.001Z</time>
      </trkpt>
      <trkpt lat="44.78681" lon="5.59882">
        <ele>1252</ele>
        <time>2013-09-14T14:49:04.001Z</time>
      </trkpt>
      <trkpt lat="44.78688" lon="5.59882">
        <ele>1252</ele>
        <time>2013-09-14T14:49:05.001Z</time>
      </trkpt>
      <trkpt lat="44.78695" lon="5.5988">
        <ele>1252</ele>
        <time>2013-09-14T14:49:06.001Z</time>
      </trkpt>
      <trkpt lat="44.78702" lon="5.59878">
        <ele>1252</ele>
        <time>2013-09-14T14:49:08.001Z</time>
      </trkpt>
      <trkpt lat="44.78708" lon="5.59878">
        <ele>1252</ele>
        <time>2013-09-14T14:49:10.001Z</time>
      </trkpt>
      <trkpt lat="44.78708" lon="5.59878">
        <ele>1252</ele>
        <time>2013-09-14T14:49:10.001Z</time>
      </trkpt>
      <trkpt lat="44.78708" lon="5.59878">
        <ele>1252</ele>
        <time>2013-09-14T14:49:16.001Z</time>
      </trkpt>
      <trkpt lat="44.78715" lon="5.59869">
        <ele>1252</ele>
        <time>2013-09-14T14:49:17.001Z</time>
      </trkpt>
      <trkpt lat="44.78715" lon="5.59869">
        <ele>1252</ele>
        <time>2013-09-14T14:49:17.001Z</time>
      </trkpt>
      <trkpt lat="44.78715" lon="5.59869">
        <ele>1252</ele>
        <time>2013-09-14T14:49:19.001Z</time>
      </trkpt>
      <trkpt lat="44.78721" lon="5.59856">
        <ele>1251</ele>
        <time>2013-09-14T14:49:20.001Z</time>
      </trkpt>
      <trkpt lat="44.78721" lon="5.59856">
        <ele>1251</ele>
        <time>2013-09-14T14:49:20.001Z</time>
      </trkpt>
      <trkpt lat="44.78721" lon="5.59856">
        <ele>1251</ele>
        <time>2013-09-14T14:49:24.001Z</time>
      </trkpt>
      <trkpt lat="44.78725" lon="5.59848">
        <ele>1250</ele>
        <time>2013-09-14T14:49:25.001Z</time>
      </trkpt>
      <trkpt lat="44.78725" lon="5.59848">
        <ele>1250</ele>
        <time>2013-09-14T14:49:25.001Z</time>
      </trkpt>
      <trkpt lat="44.78725" lon="5.59848">
        <ele>1250</ele>
        <time>2013-09-14T14:49:26.001Z</time>
      </trkpt>
      <trkpt lat="44.78719" lon="5.59846">
        <ele>1247</ele>
        <time>2013-09-14T14:50:08.001Z</time>
      </trkpt>
      <trkpt lat="44.78719" lon="5.59846">
        <ele>1247</ele>
        <time>2013-09-14T14:50:08.001Z</time>
      </trkpt>
      <trkpt lat="44.78719" lon="5.59846">
        <ele>1247</ele>
        <time>2013-09-14T14:50:10.001Z</time>
      </trkpt>
      <trkpt lat="44.78725" lon="5.59841">
        <ele>1246</ele>
        <time>2013-09-14T14:50:11.001Z</time>
      </trkpt>
      <trkpt lat="44.78729" lon="5.59835">
        <ele>1246</ele>
        <time>2013-09-14T14:50:13.001Z</time>
      </trkpt>
      <trkpt lat="44.78729" lon="5.59835">
        <ele>1246</ele>
        <time>2013-09-14T14:50:13.001Z</time>
      </trkpt>
      <trkpt lat="44.78729" lon="5.59835">
        <ele>1246</ele>
        <time>2013-09-14T14:50:15.001Z</time>
      </trkpt>
      <trkpt lat="44.78735" lon="5.59831">
        <ele>1245</ele>
        <time>2013-09-14T14:50:16.001Z</time>
      </trkpt>
      <trkpt lat="44.78735" lon="5.59831">
        <ele>1245</ele>
        <time>2013-09-14T14:50:16.001Z</time>
      </trkpt>
      <trkpt lat="44.78735" lon="5.59831">
        <ele>1245</ele>
        <time>2013-09-14T14:50:19.001Z</time>
      </trkpt>
      <trkpt lat="44.7873" lon="5.59826">
        <ele>1245</ele>
        <time>2013-09-14T14:50:21.001Z</time>
      </trkpt>
      <trkpt lat="44.7873" lon="5.59826">
        <ele>1245</ele>
        <time>2013-09-14T14:50:21.001Z</time>
      </trkpt>
      <trkpt lat="44.7873" lon="5.59826">
        <ele>1245</ele>
        <time>2013-09-14T14:50:22.001Z</time>
      </trkpt>
      <trkpt lat="44.78726" lon="5.59822">
        <ele>1244</ele>
        <time>2013-09-14T14:50:23.001Z</time>
      </trkpt>
      <trkpt lat="44.78724" lon="5.59816">
        <ele>1244</ele>
        <time>2013-09-14T14:50:25.001Z</time>
      </trkpt>
      <trkpt lat="44.78724" lon="5.59809">
        <ele>1241</ele>
        <time>2013-09-14T14:50:26.001Z</time>
      </trkpt>
      <trkpt lat="44.78724" lon="5.59803">
        <ele>1241</ele>
        <time>2013-09-14T14:50:27.001Z</time>
      </trkpt>
      <trkpt lat="44.78724" lon="5.59803">
        <ele>1241</ele>
        <time>2013-09-14T14:50:27.001Z</time>
      </trkpt>
      <trkpt lat="44.78724" lon="5.59803">
        <ele>1241</ele>
        <time>2013-09-14T14:50:29.001Z</time>
      </trkpt>
      <trkpt lat="44.78725" lon="5.59796">
        <ele>1240</ele>
        <time>2013-09-14T14:50:30.001Z</time>
      </trkpt>
      <trkpt lat="44.78731" lon="5.59788">
        <ele>1239</ele>
        <time>2013-09-14T14:50:37.001Z</time>
      </trkpt>
      <trkpt lat="44.78731" lon="5.59788">
        <ele>1239</ele>
        <time>2013-09-14T14:50:37.001Z</time>
      </trkpt>
      <trkpt lat="44.78731" lon="5.59788">
        <ele>1239</ele>
        <time>2013-09-14T14:50:39.001Z</time>
      </trkpt>
      <trkpt lat="44.78738" lon="5.59786">
        <ele>1239</ele>
        <time>2013-09-14T14:50:40.001Z</time>
      </trkpt>
      <trkpt lat="44.78738" lon="5.59786">
        <ele>1239</ele>
        <time>2013-09-14T14:50:40.001Z</time>
      </trkpt>
      <trkpt lat="44.78738" lon="5.59786">
        <ele>1239</ele>
        <time>2013-09-14T14:50:43.001Z</time>
      </trkpt>
      <trkpt lat="44.78746" lon="5.59781">
        <ele>1238</ele>
        <time>2013-09-14T14:50:44.001Z</time>
      </trkpt>
      <trkpt lat="44.78752" lon="5.59775">
        <ele>1237</ele>
        <time>2013-09-14T14:50:46.001Z</time>
      </trkpt>
      <trkpt lat="44.78756" lon="5.59768">
        <ele>1236</ele>
        <time>2013-09-14T14:50:47.001Z</time>
      </trkpt>
      <trkpt lat="44.78759" lon="5.59762">
        <ele>1235</ele>
        <time>2013-09-14T14:50:48.001Z</time>
      </trkpt>
      <trkpt lat="44.78763" lon="5.59758">
        <ele>1235</ele>
        <time>2013-09-14T14:50:49.001Z</time>
      </trkpt>
      <trkpt lat="44.78765" lon="5.59751">
        <ele>1234</ele>
        <time>2013-09-14T14:50:50.001Z</time>
      </trkpt>
      <trkpt lat="44.7877" lon="5.59743">
        <ele>1234</ele>
        <time>2013-09-14T14:50:52.001Z</time>
      </trkpt>
      <trkpt lat="44.78774" lon="5.59734">
        <ele>1234</ele>
        <time>2013-09-14T14:50:54.001Z</time>
      </trkpt>
      <trkpt lat="44.78777" lon="5.59728">
        <ele>1234</ele>
        <time>2013-09-14T14:50:56.001Z</time>
      </trkpt>
      <trkpt lat="44.7878" lon="5.59719">
        <ele>1234</ele>
        <time>2013-09-14T14:50:58.001Z</time>
      </trkpt>
      <trkpt lat="44.78784" lon="5.59713">
        <ele>1234</ele>
        <time>2013-09-14T14:50:59.001Z</time>
      </trkpt>
      <trkpt lat="44.78787" lon="5.59706">
        <ele>1235</ele>
        <time>2013-09-14T14:51:00.001Z</time>
      </trkpt>
      <trkpt lat="44.78792" lon="5.59702">
        <ele>1236</ele>
        <time>2013-09-14T14:51:01.001Z</time>
      </trkpt>
      <trkpt lat="44.78797" lon="5.59698">
        <ele>1237</ele>
        <time>2013-09-14T14:51:02.001Z</time>
      </trkpt>
      <trkpt lat="44.78802" lon="5.59691">
        <ele>1237</ele>
        <time>2013-09-14T14:51:03.001Z</time>
      </trkpt>
      <trkpt lat="44.78809" lon="5.59683">
        <ele>1238</ele>
        <time>2013-09-14T14:51:05.001Z</time>
      </trkpt>
      <trkpt lat="44.78814" lon="5.5968">
        <ele>1238</ele>
        <time>2013-09-14T14:51:06.001Z</time>
      </trkpt>
      <trkpt lat="44.78817" lon="5.59674">
        <ele>1238</ele>
        <time>2013-09-14T14:51:07.001Z</time>
      </trkpt>
      <trkpt lat="44.78821" lon="5.59668">
        <ele>1239</ele>
        <time>2013-09-14T14:51:08.001Z</time>
      </trkpt>
      <trkpt lat="44.78828" lon="5.59659">
        <ele>1239</ele>
        <time>2013-09-14T14:51:10.001Z</time>
      </trkpt>
      <trkpt lat="44.78832" lon="5.59652">
        <ele>1239</ele>
        <time>2013-09-14T14:51:11.001Z</time>
      </trkpt>
      <trkpt lat="44.78836" lon="5.5965">
        <ele>1239</ele>
        <time>2013-09-14T14:51:12.001Z</time>
      </trkpt>
      <trkpt lat="44.7884" lon="5.59644">
        <ele>1239</ele>
        <time>2013-09-14T14:51:13.001Z</time>
      </trkpt>
      <trkpt lat="44.78845" lon="5.59638">
        <ele>1239</ele>
        <time>2013-09-14T14:51:14.001Z</time>
      </trkpt>
      <trkpt lat="44.78848" lon="5.59629">
        <ele>1239</ele>
        <time>2013-09-14T14:51:15.001Z</time>
      </trkpt>
      <trkpt lat="44.78851" lon="5.5962">
        <ele>1239</ele>
        <time>2013-09-14T14:51:16.001Z</time>
      </trkpt>
      <trkpt lat="44.78856" lon="5.59614">
        <ele>1239</ele>
        <time>2013-09-14T14:51:17.001Z</time>
      </trkpt>
      <trkpt lat="44.78859" lon="5.59605">
        <ele>1239</ele>
        <time>2013-09-14T14:51:18.001Z</time>
      </trkpt>
      <trkpt lat="44.78864" lon="5.59601">
        <ele>1239</ele>
        <time>2013-09-14T14:51:19.001Z</time>
      </trkpt>
      <trkpt lat="44.7887" lon="5.59595">
        <ele>1238</ele>
        <time>2013-09-14T14:51:20.001Z</time>
      </trkpt>
      <trkpt lat="44.78875" lon="5.59588">
        <ele>1238</ele>
        <time>2013-09-14T14:51:21.001Z</time>
      </trkpt>
      <trkpt lat="44.7888" lon="5.59582">
        <ele>1238</ele>
        <time>2013-09-14T14:51:22.001Z</time>
      </trkpt>
      <trkpt lat="44.78887" lon="5.59577">
        <ele>1237</ele>
        <time>2013-09-14T14:51:23.001Z</time>
      </trkpt>
      <trkpt lat="44.78892" lon="5.59573">
        <ele>1237</ele>
        <time>2013-09-14T14:51:24.001Z</time>
      </trkpt>
      <trkpt lat="44.78897" lon="5.59571">
        <ele>1237</ele>
        <time>2013-09-14T14:51:25.001Z</time>
      </trkpt>
      <trkpt lat="44.78903" lon="5.59567">
        <ele>1237</ele>
        <time>2013-09-14T14:51:26.001Z</time>
      </trkpt>
      <trkpt lat="44.78908" lon="5.59562">
        <ele>1237</ele>
        <time>2013-09-14T14:51:27.001Z</time>
      </trkpt>
      <trkpt lat="44.78914" lon="5.59558">
        <ele>1236</ele>
        <time>2013-09-14T14:51:28.001Z</time>
      </trkpt>
      <trkpt lat="44.78918" lon="5.59554">
        <ele>1236</ele>
        <time>2013-09-14T14:51:29.001Z</time>
      </trkpt>
      <trkpt lat="44.78923" lon="5.5955">
        <ele>1236</ele>
        <time>2013-09-14T14:51:30.001Z</time>
      </trkpt>
      <trkpt lat="44.78928" lon="5.59545">
        <ele>1235</ele>
        <time>2013-09-14T14:51:31.001Z</time>
      </trkpt>
      <trkpt lat="44.78933" lon="5.59539">
        <ele>1235</ele>
        <time>2013-09-14T14:51:32.001Z</time>
      </trkpt>
      <trkpt lat="44.78936" lon="5.59532">
        <ele>1235</ele>
        <time>2013-09-14T14:51:33.001Z</time>
      </trkpt>
      <trkpt lat="44.7894" lon="5.59524">
        <ele>1235</ele>
        <time>2013-09-14T14:51:34.001Z</time>
      </trkpt>
      <trkpt lat="44.78946" lon="5.59517">
        <ele>1235</ele>
        <time>2013-09-14T14:51:35.001Z</time>
      </trkpt>
      <trkpt lat="44.7895" lon="5.59509">
        <ele>1236</ele>
        <time>2013-09-14T14:51:36.001Z</time>
      </trkpt>
      <trkpt lat="44.78955" lon="5.595">
        <ele>1235</ele>
        <time>2013-09-14T14:51:37.001Z</time>
      </trkpt>
      <trkpt lat="44.78961" lon="5.59489">
        <ele>1235</ele>
        <time>2013-09-14T14:51:38.001Z</time>
      </trkpt>
      <trkpt lat="44.78967" lon="5.59481">
        <ele>1235</ele>
        <time>2013-09-14T14:51:39.001Z</time>
      </trkpt>
      <trkpt lat="44.78972" lon="5.59472">
        <ele>1234</ele>
        <time>2013-09-14T14:51:40.001Z</time>
      </trkpt>
      <trkpt lat="44.78978" lon="5.59464">
        <ele>1233</ele>
        <time>2013-09-14T14:51:41.001Z</time>
      </trkpt>
      <trkpt lat="44.78984" lon="5.59459">
        <ele>1233</ele>
        <time>2013-09-14T14:51:42.001Z</time>
      </trkpt>
      <trkpt lat="44.7899" lon="5.59455">
        <ele>1233</ele>
        <time>2013-09-14T14:51:43.001Z</time>
      </trkpt>
      <trkpt lat="44.78997" lon="5.59451">
        <ele>1232</ele>
        <time>2013-09-14T14:51:44.001Z</time>
      </trkpt>
      <trkpt lat="44.79004" lon="5.59446">
        <ele>1231</ele>
        <time>2013-09-14T14:51:45.001Z</time>
      </trkpt>
      <trkpt lat="44.79009" lon="5.59442">
        <ele>1230</ele>
        <time>2013-09-14T14:51:46.001Z</time>
      </trkpt>
      <trkpt lat="44.79014" lon="5.5944">
        <ele>1230</ele>
        <time>2013-09-14T14:51:47.001Z</time>
      </trkpt>
      <trkpt lat="44.79019" lon="5.59438">
        <ele>1230</ele>
        <time>2013-09-14T14:51:48.001Z</time>
      </trkpt>
      <trkpt lat="44.79023" lon="5.59436">
        <ele>1230</ele>
        <time>2013-09-14T14:51:49.001Z</time>
      </trkpt>
      <trkpt lat="44.79027" lon="5.59432">
        <ele>1229</ele>
        <time>2013-09-14T14:51:50.001Z</time>
      </trkpt>
      <trkpt lat="44.79034" lon="5.59429">
        <ele>1229</ele>
        <time>2013-09-14T14:51:52.001Z</time>
      </trkpt>
      <trkpt lat="44.79034" lon="5.59429">
        <ele>1229</ele>
        <time>2013-09-14T14:51:52.001Z</time>
      </trkpt>
      <trkpt lat="44.79034" lon="5.59429">
        <ele>1229</ele>
        <time>2013-09-14T14:52:36.001Z</time>
      </trkpt>
      <trkpt lat="44.7904" lon="5.59427">
        <ele>1226</ele>
        <time>2013-09-14T14:52:37.001Z</time>
      </trkpt>
      <trkpt lat="44.79046" lon="5.59425">
        <ele>1221</ele>
        <time>2013-09-14T14:52:38.001Z</time>
      </trkpt>
      <trkpt lat="44.79051" lon="5.59423">
        <ele>1218</ele>
        <time>2013-09-14T14:52:39.001Z</time>
      </trkpt>
      <trkpt lat="44.79056" lon="5.59419">
        <ele>1214</ele>
        <time>2013-09-14T14:52:40.001Z</time>
      </trkpt>
      <trkpt lat="44.79062" lon="5.59419">
        <ele>1214</ele>
        <time>2013-09-14T14:52:41.001Z</time>
      </trkpt>
      <trkpt lat="44.79067" lon="5.59421">
        <ele>1211</ele>
        <time>2013-09-14T14:52:42.001Z</time>
      </trkpt>
      <trkpt lat="44.79073" lon="5.59423">
        <ele>1209</ele>
        <time>2013-09-14T14:52:43.001Z</time>
      </trkpt>
      <trkpt lat="44.7908" lon="5.59423">
        <ele>1208</ele>
        <time>2013-09-14T14:52:44.001Z</time>
      </trkpt>
      <trkpt lat="44.79085" lon="5.59421">
        <ele>1207</ele>
        <time>2013-09-14T14:52:45.001Z</time>
      </trkpt>
      <trkpt lat="44.7909" lon="5.59419">
        <ele>1205</ele>
        <time>2013-09-14T14:52:46.001Z</time>
      </trkpt>
      <trkpt lat="44.79097" lon="5.59414">
        <ele>1204</ele>
        <time>2013-09-14T14:52:47.001Z</time>
      </trkpt>
      <trkpt lat="44.79103" lon="5.59412">
        <ele>1203</ele>
        <time>2013-09-14T14:52:48.001Z</time>
      </trkpt>
      <trkpt lat="44.79111" lon="5.5941">
        <ele>1202</ele>
        <time>2013-09-14T14:52:49.001Z</time>
      </trkpt>
      <trkpt lat="44.79118" lon="5.59406">
        <ele>1202</ele>
        <time>2013-09-14T14:52:50.001Z</time>
      </trkpt>
      <trkpt lat="44.79125" lon="5.59404">
        <ele>1201</ele>
        <time>2013-09-14T14:52:51.001Z</time>
      </trkpt>
      <trkpt lat="44.79131" lon="5.59402">
        <ele>1200</ele>
        <time>2013-09-14T14:52:52.001Z</time>
      </trkpt>
      <trkpt lat="44.79137" lon="5.59399">
        <ele>1200</ele>
        <time>2013-09-14T14:52:53.001Z</time>
      </trkpt>
      <trkpt lat="44.79145" lon="5.59395">
        <ele>1199</ele>
        <time>2013-09-14T14:52:54.001Z</time>
      </trkpt>
      <trkpt lat="44.79153" lon="5.59391">
        <ele>1198</ele>
        <time>2013-09-14T14:52:55.001Z</time>
      </trkpt>
      <trkpt lat="44.7916" lon="5.59384">
        <ele>1197</ele>
        <time>2013-09-14T14:52:56.001Z</time>
      </trkpt>
      <trkpt lat="44.79167" lon="5.59378">
        <ele>1196</ele>
        <time>2013-09-14T14:52:57.001Z</time>
      </trkpt>
      <trkpt lat="44.79174" lon="5.59374">
        <ele>1196</ele>
        <time>2013-09-14T14:52:58.001Z</time>
      </trkpt>
      <trkpt lat="44.79181" lon="5.59367">
        <ele>1195</ele>
        <time>2013-09-14T14:52:59.001Z</time>
      </trkpt>
      <trkpt lat="44.79188" lon="5.59363">
        <ele>1194</ele>
        <time>2013-09-14T14:53:00.001Z</time>
      </trkpt>
      <trkpt lat="44.79195" lon="5.59356">
        <ele>1193</ele>
        <time>2013-09-14T14:53:01.001Z</time>
      </trkpt>
      <trkpt lat="44.792" lon="5.59352">
        <ele>1193</ele>
        <time>2013-09-14T14:53:02.001Z</time>
      </trkpt>
      <trkpt lat="44.79208" lon="5.59346">
        <ele>1192</ele>
        <time>2013-09-14T14:53:03.001Z</time>
      </trkpt>
      <trkpt lat="44.79214" lon="5.59341">
        <ele>1192</ele>
        <time>2013-09-14T14:53:04.001Z</time>
      </trkpt>
      <trkpt lat="44.79221" lon="5.59337">
        <ele>1191</ele>
        <time>2013-09-14T14:53:05.001Z</time>
      </trkpt>
      <trkpt lat="44.79228" lon="5.59331">
        <ele>1190</ele>
        <time>2013-09-14T14:53:06.001Z</time>
      </trkpt>
      <trkpt lat="44.79235" lon="5.59326">
        <ele>1190</ele>
        <time>2013-09-14T14:53:07.001Z</time>
      </trkpt>
      <trkpt lat="44.79244" lon="5.5932">
        <ele>1189</ele>
        <time>2013-09-14T14:53:08.001Z</time>
      </trkpt>
      <trkpt lat="44.7925" lon="5.59314">
        <ele>1189</ele>
        <time>2013-09-14T14:53:09.001Z</time>
      </trkpt>
      <trkpt lat="44.79256" lon="5.59309">
        <ele>1188</ele>
        <time>2013-09-14T14:53:10.001Z</time>
      </trkpt>
      <trkpt lat="44.79261" lon="5.59305">
        <ele>1187</ele>
        <time>2013-09-14T14:53:11.001Z</time>
      </trkpt>
      <trkpt lat="44.79266" lon="5.59301">
        <ele>1186</ele>
        <time>2013-09-14T14:53:12.001Z</time>
      </trkpt>
      <trkpt lat="44.79273" lon="5.59294">
        <ele>1185</ele>
        <time>2013-09-14T14:53:13.001Z</time>
      </trkpt>
      <trkpt lat="44.79278" lon="5.59288">
        <ele>1184</ele>
        <time>2013-09-14T14:53:14.001Z</time>
      </trkpt>
      <trkpt lat="44.79283" lon="5.59281">
        <ele>1183</ele>
        <time>2013-09-14T14:53:15.001Z</time>
      </trkpt>
      <trkpt lat="44.79289" lon="5.59273">
        <ele>1181</ele>
        <time>2013-09-14T14:53:16.001Z</time>
      </trkpt>
      <trkpt lat="44.79293" lon="5.59266">
        <ele>1180</ele>
        <time>2013-09-14T14:53:17.001Z</time>
      </trkpt>
      <trkpt lat="44.79298" lon="5.5926">
        <ele>1179</ele>
        <time>2013-09-14T14:53:18.001Z</time>
      </trkpt>
      <trkpt lat="44.79309" lon="5.59247">
        <ele>1179</ele>
        <time>2013-09-14T14:53:22.001Z</time>
      </trkpt>
      <trkpt lat="44.79309" lon="5.59247">
        <ele>1179</ele>
        <time>2013-09-14T14:53:22.001Z</time>
      </trkpt>
      <trkpt lat="44.79309" lon="5.59247">
        <ele>1179</ele>
        <time>2013-09-14T14:53:38.001Z</time>
      </trkpt>
      <trkpt lat="44.79313" lon="5.59238">
        <ele>1177</ele>
        <time>2013-09-14T14:53:39.001Z</time>
      </trkpt>
      <trkpt lat="44.79313" lon="5.59238">
        <ele>1177</ele>
        <time>2013-09-14T14:53:39.001Z</time>
      </trkpt>
      <trkpt lat="44.79313" lon="5.59238">
        <ele>1177</ele>
        <time>2013-09-14T14:53:42.001Z</time>
      </trkpt>
      <trkpt lat="44.79315" lon="5.59221">
        <ele>1176</ele>
        <time>2013-09-14T14:53:43.001Z</time>
      </trkpt>
      <trkpt lat="44.79315" lon="5.59221">
        <ele>1176</ele>
        <time>2013-09-14T14:53:43.001Z</time>
      </trkpt>
      <trkpt lat="44.79315" lon="5.59221">
        <ele>1176</ele>
        <time>2013-09-14T14:53:46.001Z</time>
      </trkpt>
      <trkpt lat="44.79315" lon="5.59208">
        <ele>1175</ele>
        <time>2013-09-14T14:53:47.001Z</time>
      </trkpt>
      <trkpt lat="44.79315" lon="5.59208">
        <ele>1175</ele>
        <time>2013-09-14T14:53:47.001Z</time>
      </trkpt>
      <trkpt lat="44.79315" lon="5.59208">
        <ele>1175</ele>
        <time>2013-09-14T14:54:02.001Z</time>
      </trkpt>
      <trkpt lat="44.79319" lon="5.59204">
        <ele>1160</ele>
        <time>2013-09-14T14:56:48.001Z</time>
      </trkpt>
      <trkpt lat="44.79326" lon="5.59198">
        <ele>1160</ele>
        <time>2013-09-14T14:56:51.001Z</time>
      </trkpt>
      <trkpt lat="44.79331" lon="5.59191">
        <ele>1159</ele>
        <time>2013-09-14T14:56:53.001Z</time>
      </trkpt>
      <trkpt lat="44.79336" lon="5.59185">
        <ele>1155</ele>
        <time>2013-09-14T14:56:55.001Z</time>
      </trkpt>
      <trkpt lat="44.79343" lon="5.59178">
        <ele>1152</ele>
        <time>2013-09-14T14:56:57.001Z</time>
      </trkpt>
      <trkpt lat="44.7935" lon="5.59176">
        <ele>1150</ele>
        <time>2013-09-14T14:56:59.001Z</time>
      </trkpt>
      <trkpt lat="44.79354" lon="5.59174">
        <ele>1149</ele>
        <time>2013-09-14T14:57:00.001Z</time>
      </trkpt>
      <trkpt lat="44.79364" lon="5.59176">
        <ele>1148</ele>
        <time>2013-09-14T14:57:02.001Z</time>
      </trkpt>
      <trkpt lat="44.7937" lon="5.5918">
        <ele>1147</ele>
        <time>2013-09-14T14:57:03.001Z</time>
      </trkpt>
      <trkpt lat="44.79375" lon="5.59183">
        <ele>1147</ele>
        <time>2013-09-14T14:57:04.001Z</time>
      </trkpt>
      <trkpt lat="44.79381" lon="5.59187">
        <ele>1147</ele>
        <time>2013-09-14T14:57:05.001Z</time>
      </trkpt>
      <trkpt lat="44.79387" lon="5.59191">
        <ele>1146</ele>
        <time>2013-09-14T14:57:06.001Z</time>
      </trkpt>
      <trkpt lat="44.79392" lon="5.59198">
        <ele>1146</ele>
        <time>2013-09-14T14:57:07.001Z</time>
      </trkpt>
      <trkpt lat="44.79397" lon="5.59202">
        <ele>1146</ele>
        <time>2013-09-14T14:57:08.001Z</time>
      </trkpt>
      <trkpt lat="44.79404" lon="5.59202">
        <ele>1146</ele>
        <time>2013-09-14T14:57:09.001Z</time>
      </trkpt>
      <trkpt lat="44.79409" lon="5.59204">
        <ele>1146</ele>
        <time>2013-09-14T14:57:10.001Z</time>
      </trkpt>
      <trkpt lat="44.79414" lon="5.59202">
        <ele>1146</ele>
        <time>2013-09-14T14:57:11.001Z</time>
      </trkpt>
      <trkpt lat="44.79419" lon="5.59193">
        <ele>1146</ele>
        <time>2013-09-14T14:57:12.001Z</time>
      </trkpt>
      <trkpt lat="44.79422" lon="5.59185">
        <ele>1146</ele>
        <time>2013-09-14T14:57:13.001Z</time>
      </trkpt>
      <trkpt lat="44.79425" lon="5.59178">
        <ele>1146</ele>
        <time>2013-09-14T14:57:14.001Z</time>
      </trkpt>
      <trkpt lat="44.79428" lon="5.59172">
        <ele>1146</ele>
        <time>2013-09-14T14:57:15.001Z</time>
      </trkpt>
      <trkpt lat="44.79432" lon="5.59163">
        <ele>1146</ele>
        <time>2013-09-14T14:57:16.001Z</time>
      </trkpt>
      <trkpt lat="44.79437" lon="5.59157">
        <ele>1146</ele>
        <time>2013-09-14T14:57:17.001Z</time>
      </trkpt>
      <trkpt lat="44.79442" lon="5.59148">
        <ele>1146</ele>
        <time>2013-09-14T14:57:18.001Z</time>
      </trkpt>
      <trkpt lat="44.79449" lon="5.5914">
        <ele>1145</ele>
        <time>2013-09-14T14:57:19.001Z</time>
      </trkpt>
      <trkpt lat="44.79454" lon="5.59129">
        <ele>1144</ele>
        <time>2013-09-14T14:57:20.001Z</time>
      </trkpt>
      <trkpt lat="44.7946" lon="5.59118">
        <ele>1144</ele>
        <time>2013-09-14T14:57:21.001Z</time>
      </trkpt>
      <trkpt lat="44.79464" lon="5.59108">
        <ele>1143</ele>
        <time>2013-09-14T14:57:22.001Z</time>
      </trkpt>
      <trkpt lat="44.79468" lon="5.59099">
        <ele>1143</ele>
        <time>2013-09-14T14:57:23.001Z</time>
      </trkpt>
      <trkpt lat="44.7947" lon="5.59092">
        <ele>1142</ele>
        <time>2013-09-14T14:57:24.001Z</time>
      </trkpt>
      <trkpt lat="44.79472" lon="5.59086">
        <ele>1142</ele>
        <time>2013-09-14T14:57:25.001Z</time>
      </trkpt>
      <trkpt lat="44.79478" lon="5.59075">
        <ele>1141</ele>
        <time>2013-09-14T14:58:14.001Z</time>
      </trkpt>
      <trkpt lat="44.79478" lon="5.59075">
        <ele>1141</ele>
        <time>2013-09-14T14:58:14.001Z</time>
      </trkpt>
      <trkpt lat="44.79478" lon="5.59075">
        <ele>1141</ele>
        <time>2013-09-14T14:58:33.001Z</time>
      </trkpt>
      <trkpt lat="44.79477" lon="5.59067">
        <ele>1139</ele>
        <time>2013-09-14T14:58:34.001Z</time>
      </trkpt>
      <trkpt lat="44.79472" lon="5.59062">
        <ele>1133</ele>
        <time>2013-09-14T14:58:36.001Z</time>
      </trkpt>
      <trkpt lat="44.79468" lon="5.5906">
        <ele>1128</ele>
        <time>2013-09-14T14:58:38.001Z</time>
      </trkpt>
      <trkpt lat="44.79462" lon="5.59067">
        <ele>1125</ele>
        <time>2013-09-14T14:58:40.001Z</time>
      </trkpt>
      <trkpt lat="44.79457" lon="5.59071">
        <ele>1124</ele>
        <time>2013-09-14T14:58:42.001Z</time>
      </trkpt>
      <trkpt lat="44.79453" lon="5.59067">
        <ele>1123</ele>
        <time>2013-09-14T14:58:45.001Z</time>
      </trkpt>
      <trkpt lat="44.79453" lon="5.59054">
        <ele>1123</ele>
        <time>2013-09-14T14:58:47.001Z</time>
      </trkpt>
      <trkpt lat="44.79456" lon="5.59047">
        <ele>1123</ele>
        <time>2013-09-14T14:58:48.001Z</time>
      </trkpt>
      <trkpt lat="44.79458" lon="5.59039">
        <ele>1123</ele>
        <time>2013-09-14T14:58:49.001Z</time>
      </trkpt>
      <trkpt lat="44.7946" lon="5.59032">
        <ele>1123</ele>
        <time>2013-09-14T14:58:50.001Z</time>
      </trkpt>
      <trkpt lat="44.79461" lon="5.59026">
        <ele>1123</ele>
        <time>2013-09-14T14:58:51.001Z</time>
      </trkpt>
      <trkpt lat="44.79462" lon="5.5902">
        <ele>1122</ele>
        <time>2013-09-14T14:58:52.001Z</time>
      </trkpt>
      <trkpt lat="44.79462" lon="5.59013">
        <ele>1122</ele>
        <time>2013-09-14T14:58:54.001Z</time>
      </trkpt>
      <trkpt lat="44.79462" lon="5.59013">
        <ele>1122</ele>
        <time>2013-09-14T14:58:54.001Z</time>
      </trkpt>
      <trkpt lat="44.79462" lon="5.59013">
        <ele>1122</ele>
        <time>2013-09-14T14:58:55.001Z</time>
      </trkpt>
      <trkpt lat="44.79461" lon="5.59007">
        <ele>1122</ele>
        <time>2013-09-14T14:58:56.001Z</time>
      </trkpt>
      <trkpt lat="44.79457" lon="5.58998">
        <ele>1122</ele>
        <time>2013-09-14T14:58:58.001Z</time>
      </trkpt>
      <trkpt lat="44.79456" lon="5.58992">
        <ele>1122</ele>
        <time>2013-09-14T14:58:59.001Z</time>
      </trkpt>
      <trkpt lat="44.79457" lon="5.58981">
        <ele>1122</ele>
        <time>2013-09-14T14:59:01.001Z</time>
      </trkpt>
      <trkpt lat="44.79458" lon="5.58974">
        <ele>1122</ele>
        <time>2013-09-14T14:59:02.001Z</time>
      </trkpt>
      <trkpt lat="44.79461" lon="5.58968">
        <ele>1122</ele>
        <time>2013-09-14T14:59:03.001Z</time>
      </trkpt>
      <trkpt lat="44.79462" lon="5.58962">
        <ele>1122</ele>
        <time>2013-09-14T14:59:04.001Z</time>
      </trkpt>
      <trkpt lat="44.79465" lon="5.58953">
        <ele>1122</ele>
        <time>2013-09-14T14:59:05.001Z</time>
      </trkpt>
      <trkpt lat="44.79466" lon="5.58947">
        <ele>1122</ele>
        <time>2013-09-14T14:59:06.001Z</time>
      </trkpt>
      <trkpt lat="44.7947" lon="5.58938">
        <ele>1122</ele>
        <time>2013-09-14T14:59:08.001Z</time>
      </trkpt>
      <trkpt lat="44.79475" lon="5.58932">
        <ele>1122</ele>
        <time>2013-09-14T14:59:10.001Z</time>
      </trkpt>
      <trkpt lat="44.79479" lon="5.58927">
        <ele>1118</ele>
        <time>2013-09-14T14:59:53.001Z</time>
      </trkpt>
      <trkpt lat="44.79485" lon="5.58923">
        <ele>1113</ele>
        <time>2013-09-14T14:59:55.001Z</time>
      </trkpt>
      <trkpt lat="44.7949" lon="5.58921">
        <ele>1111</ele>
        <time>2013-09-14T14:59:56.001Z</time>
      </trkpt>
      <trkpt lat="44.79495" lon="5.58919">
        <ele>1110</ele>
        <time>2013-09-14T14:59:57.001Z</time>
      </trkpt>
      <trkpt lat="44.795" lon="5.58916">
        <ele>1108</ele>
        <time>2013-09-14T14:59:58.001Z</time>
      </trkpt>
      <trkpt lat="44.79506" lon="5.58914">
        <ele>1107</ele>
        <time>2013-09-14T14:59:59.001Z</time>
      </trkpt>
      <trkpt lat="44.79512" lon="5.58914">
        <ele>1107</ele>
        <time>2013-09-14T15:00:00.001Z</time>
      </trkpt>
      <trkpt lat="44.79519" lon="5.58912">
        <ele>1106</ele>
        <time>2013-09-14T15:00:01.001Z</time>
      </trkpt>
      <trkpt lat="44.79525" lon="5.5891">
        <ele>1106</ele>
        <time>2013-09-14T15:00:02.001Z</time>
      </trkpt>
      <trkpt lat="44.79532" lon="5.58908">
        <ele>1105</ele>
        <time>2013-09-14T15:00:03.001Z</time>
      </trkpt>
      <trkpt lat="44.79539" lon="5.58906">
        <ele>1105</ele>
        <time>2013-09-14T15:00:04.001Z</time>
      </trkpt>
      <trkpt lat="44.79544" lon="5.58902">
        <ele>1104</ele>
        <time>2013-09-14T15:00:05.001Z</time>
      </trkpt>
      <trkpt lat="44.79551" lon="5.58899">
        <ele>1104</ele>
        <time>2013-09-14T15:00:06.001Z</time>
      </trkpt>
      <trkpt lat="44.79556" lon="5.58897">
        <ele>1103</ele>
        <time>2013-09-14T15:00:07.001Z</time>
      </trkpt>
      <trkpt lat="44.79562" lon="5.58895">
        <ele>1103</ele>
        <time>2013-09-14T15:00:08.001Z</time>
      </trkpt>
      <trkpt lat="44.79567" lon="5.58893">
        <ele>1102</ele>
        <time>2013-09-14T15:00:09.001Z</time>
      </trkpt>
      <trkpt lat="44.79576" lon="5.58891">
        <ele>1102</ele>
        <time>2013-09-14T15:00:11.001Z</time>
      </trkpt>
      <trkpt lat="44.7958" lon="5.58889">
        <ele>1102</ele>
        <time>2013-09-14T15:00:12.001Z</time>
      </trkpt>
      <trkpt lat="44.79584" lon="5.58886">
        <ele>1102</ele>
        <time>2013-09-14T15:00:13.001Z</time>
      </trkpt>
      <trkpt lat="44.79589" lon="5.58884">
        <ele>1102</ele>
        <time>2013-09-14T15:00:14.001Z</time>
      </trkpt>
      <trkpt lat="44.79594" lon="5.58882">
        <ele>1102</ele>
        <time>2013-09-14T15:00:15.001Z</time>
      </trkpt>
      <trkpt lat="44.79598" lon="5.5888">
        <ele>1101</ele>
        <time>2013-09-14T15:00:16.001Z</time>
      </trkpt>
      <trkpt lat="44.79603" lon="5.58878">
        <ele>1101</ele>
        <time>2013-09-14T15:00:17.001Z</time>
      </trkpt>
      <trkpt lat="44.79608" lon="5.58874">
        <ele>1101</ele>
        <time>2013-09-14T15:00:18.001Z</time>
      </trkpt>
      <trkpt lat="44.79613" lon="5.58872">
        <ele>1101</ele>
        <time>2013-09-14T15:00:19.001Z</time>
      </trkpt>
      <trkpt lat="44.79617" lon="5.58869">
        <ele>1101</ele>
        <time>2013-09-14T15:00:20.001Z</time>
      </trkpt>
      <trkpt lat="44.79622" lon="5.58865">
        <ele>1101</ele>
        <time>2013-09-14T15:00:21.001Z</time>
      </trkpt>
      <trkpt lat="44.79626" lon="5.58863">
        <ele>1101</ele>
        <time>2013-09-14T15:00:22.001Z</time>
      </trkpt>
      <trkpt lat="44.79631" lon="5.58859">
        <ele>1100</ele>
        <time>2013-09-14T15:00:23.001Z</time>
      </trkpt>
      <trkpt lat="44.79639" lon="5.58854">
        <ele>1099</ele>
        <time>2013-09-14T15:00:24.001Z</time>
      </trkpt>
      <trkpt lat="44.79646" lon="5.58848">
        <ele>1098</ele>
        <time>2013-09-14T15:00:25.001Z</time>
      </trkpt>
      <trkpt lat="44.79655" lon="5.58841">
        <ele>1097</ele>
        <time>2013-09-14T15:00:26.001Z</time>
      </trkpt>
      <trkpt lat="44.79662" lon="5.58837">
        <ele>1096</ele>
        <time>2013-09-14T15:00:27.001Z</time>
      </trkpt>
      <trkpt lat="44.7967" lon="5.58833">
        <ele>1095</ele>
        <time>2013-09-14T15:00:28.001Z</time>
      </trkpt>
      <trkpt lat="44.79677" lon="5.58828">
        <ele>1095</ele>
        <time>2013-09-14T15:00:29.001Z</time>
      </trkpt>
      <trkpt lat="44.79686" lon="5.58824">
        <ele>1094</ele>
        <time>2013-09-14T15:00:30.001Z</time>
      </trkpt>
      <trkpt lat="44.79694" lon="5.5882">
        <ele>1094</ele>
        <time>2013-09-14T15:00:31.001Z</time>
      </trkpt>
      <trkpt lat="44.79701" lon="5.58814">
        <ele>1093</ele>
        <time>2013-09-14T15:00:32.001Z</time>
      </trkpt>
      <trkpt lat="44.79708" lon="5.58809">
        <ele>1092</ele>
        <time>2013-09-14T15:00:33.001Z</time>
      </trkpt>
      <trkpt lat="44.79716" lon="5.58805">
        <ele>1092</ele>
        <time>2013-09-14T15:00:34.001Z</time>
      </trkpt>
      <trkpt lat="44.79724" lon="5.58798">
        <ele>1092</ele>
        <time>2013-09-14T15:00:35.001Z</time>
      </trkpt>
      <trkpt lat="44.79731" lon="5.58794">
        <ele>1091</ele>
        <time>2013-09-14T15:00:36.001Z</time>
      </trkpt>
      <trkpt lat="44.7974" lon="5.58788">
        <ele>1091</ele>
        <time>2013-09-14T15:00:37.001Z</time>
      </trkpt>
      <trkpt lat="44.79747" lon="5.58781">
        <ele>1090</ele>
        <time>2013-09-14T15:00:38.001Z</time>
      </trkpt>
      <trkpt lat="44.79754" lon="5.58773">
        <ele>1089</ele>
        <time>2013-09-14T15:00:39.001Z</time>
      </trkpt>
      <trkpt lat="44.79761" lon="5.58766">
        <ele>1089</ele>
        <time>2013-09-14T15:00:40.001Z</time>
      </trkpt>
      <trkpt lat="44.79768" lon="5.58758">
        <ele>1088</ele>
        <time>2013-09-14T15:00:41.001Z</time>
      </trkpt>
      <trkpt lat="44.79775" lon="5.58749">
        <ele>1088</ele>
        <time>2013-09-14T15:00:42.001Z</time>
      </trkpt>
      <trkpt lat="44.79782" lon="5.58741">
        <ele>1087</ele>
        <time>2013-09-14T15:00:43.001Z</time>
      </trkpt>
      <trkpt lat="44.79788" lon="5.58734">
        <ele>1087</ele>
        <time>2013-09-14T15:00:44.001Z</time>
      </trkpt>
      <trkpt lat="44.79794" lon="5.58726">
        <ele>1087</ele>
        <time>2013-09-14T15:00:45.001Z</time>
      </trkpt>
      <trkpt lat="44.79802" lon="5.58717">
        <ele>1087</ele>
        <time>2013-09-14T15:00:46.001Z</time>
      </trkpt>
      <trkpt lat="44.79808" lon="5.5871">
        <ele>1087</ele>
        <time>2013-09-14T15:00:47.001Z</time>
      </trkpt>
      <trkpt lat="44.79817" lon="5.58706">
        <ele>1087</ele>
        <time>2013-09-14T15:00:48.001Z</time>
      </trkpt>
      <trkpt lat="44.79825" lon="5.58702">
        <ele>1087</ele>
        <time>2013-09-14T15:00:49.001Z</time>
      </trkpt>
      <trkpt lat="44.79834" lon="5.58698">
        <ele>1087</ele>
        <time>2013-09-14T15:00:50.001Z</time>
      </trkpt>
      <trkpt lat="44.79843" lon="5.58693">
        <ele>1086</ele>
        <time>2013-09-14T15:00:51.001Z</time>
      </trkpt>
      <trkpt lat="44.79851" lon="5.58687">
        <ele>1086</ele>
        <time>2013-09-14T15:00:52.001Z</time>
      </trkpt>
      <trkpt lat="44.79859" lon="5.58683">
        <ele>1085</ele>
        <time>2013-09-14T15:00:53.001Z</time>
      </trkpt>
      <trkpt lat="44.79866" lon="5.58678">
        <ele>1085</ele>
        <time>2013-09-14T15:00:54.001Z</time>
      </trkpt>
      <trkpt lat="44.79875" lon="5.58674">
        <ele>1085</ele>
        <time>2013-09-14T15:00:55.001Z</time>
      </trkpt>
      <trkpt lat="44.79883" lon="5.58668">
        <ele>1084</ele>
        <time>2013-09-14T15:00:56.001Z</time>
      </trkpt>
      <trkpt lat="44.79891" lon="5.58663">
        <ele>1084</ele>
        <time>2013-09-14T15:00:57.001Z</time>
      </trkpt>
      <trkpt lat="44.799" lon="5.58659">
        <ele>1083</ele>
        <time>2013-09-14T15:00:58.001Z</time>
      </trkpt>
      <trkpt lat="44.79908" lon="5.58655">
        <ele>1083</ele>
        <time>2013-09-14T15:00:59.001Z</time>
      </trkpt>
      <trkpt lat="44.79916" lon="5.58648">
        <ele>1083</ele>
        <time>2013-09-14T15:01:00.001Z</time>
      </trkpt>
      <trkpt lat="44.79923" lon="5.58642">
        <ele>1082</ele>
        <time>2013-09-14T15:01:01.001Z</time>
      </trkpt>
      <trkpt lat="44.79932" lon="5.58635">
        <ele>1082</ele>
        <time>2013-09-14T15:01:02.001Z</time>
      </trkpt>
      <trkpt lat="44.79939" lon="5.58631">
        <ele>1082</ele>
        <time>2013-09-14T15:01:03.001Z</time>
      </trkpt>
      <trkpt lat="44.79947" lon="5.58627">
        <ele>1082</ele>
        <time>2013-09-14T15:01:04.001Z</time>
      </trkpt>
      <trkpt lat="44.79953" lon="5.5862">
        <ele>1081</ele>
        <time>2013-09-14T15:01:05.001Z</time>
      </trkpt>
      <trkpt lat="44.79958" lon="5.58614">
        <ele>1081</ele>
        <time>2013-09-14T15:01:06.001Z</time>
      </trkpt>
      <trkpt lat="44.79964" lon="5.58608">
        <ele>1081</ele>
        <time>2013-09-14T15:01:07.001Z</time>
      </trkpt>
      <trkpt lat="44.79969" lon="5.58601">
        <ele>1081</ele>
        <time>2013-09-14T15:01:08.001Z</time>
      </trkpt>
      <trkpt lat="44.79974" lon="5.58592">
        <ele>1081</ele>
        <time>2013-09-14T15:01:09.001Z</time>
      </trkpt>
      <trkpt lat="44.79978" lon="5.58586">
        <ele>1081</ele>
        <time>2013-09-14T15:01:10.001Z</time>
      </trkpt>
      <trkpt lat="44.79982" lon="5.5858">
        <ele>1081</ele>
        <time>2013-09-14T15:01:11.001Z</time>
      </trkpt>
      <trkpt lat="44.79988" lon="5.58573">
        <ele>1082</ele>
        <time>2013-09-14T15:01:12.001Z</time>
      </trkpt>
      <trkpt lat="44.79992" lon="5.58565">
        <ele>1082</ele>
        <time>2013-09-14T15:01:13.001Z</time>
      </trkpt>
      <trkpt lat="44.79995" lon="5.58558">
        <ele>1082</ele>
        <time>2013-09-14T15:01:14.001Z</time>
      </trkpt>
      <trkpt lat="44.8" lon="5.58554">
        <ele>1082</ele>
        <time>2013-09-14T15:01:15.001Z</time>
      </trkpt>
      <trkpt lat="44.80005" lon="5.5855">
        <ele>1082</ele>
        <time>2013-09-14T15:01:16.001Z</time>
      </trkpt>
      <trkpt lat="44.80012" lon="5.58547">
        <ele>1082</ele>
        <time>2013-09-14T15:01:18.001Z</time>
      </trkpt>
      <trkpt lat="44.80018" lon="5.5855">
        <ele>1082</ele>
        <time>2013-09-14T15:01:20.001Z</time>
      </trkpt>
      <trkpt lat="44.80031" lon="5.5855">
        <ele>1082</ele>
        <time>2013-09-14T15:01:28.001Z</time>
      </trkpt>
      <trkpt lat="44.80031" lon="5.5855">
        <ele>1082</ele>
        <time>2013-09-14T15:01:28.001Z</time>
      </trkpt>
      <trkpt lat="44.80031" lon="5.5855">
        <ele>1082</ele>
        <time>2013-09-14T15:01:31.001Z</time>
      </trkpt>
      <trkpt lat="44.80037" lon="5.5855">
        <ele>1082</ele>
        <time>2013-09-14T15:01:32.001Z</time>
      </trkpt>
      <trkpt lat="44.80037" lon="5.5855">
        <ele>1082</ele>
        <time>2013-09-14T15:01:32.001Z</time>
      </trkpt>
      <trkpt lat="44.80037" lon="5.5855">
        <ele>1082</ele>
        <time>2013-09-14T15:01:39.001Z</time>
      </trkpt>
      <trkpt lat="44.80046" lon="5.58554">
        <ele>1082</ele>
        <time>2013-09-14T15:01:40.001Z</time>
      </trkpt>
      <trkpt lat="44.80046" lon="5.58554">
        <ele>1082</ele>
        <time>2013-09-14T15:01:40.001Z</time>
      </trkpt>
      <trkpt lat="44.80046" lon="5.58554">
        <ele>1082</ele>
        <time>2013-09-14T15:01:47.001Z</time>
      </trkpt>
      <trkpt lat="44.80056" lon="5.58554">
        <ele>1082</ele>
        <time>2013-09-14T15:01:48.001Z</time>
      </trkpt>
      <trkpt lat="44.80056" lon="5.58554">
        <ele>1082</ele>
        <time>2013-09-14T15:01:48.001Z</time>
      </trkpt>
      <trkpt lat="44.80056" lon="5.58554">
        <ele>1082</ele>
        <time>2013-09-14T15:01:49.001Z</time>
      </trkpt>
      <trkpt lat="44.80063" lon="5.58554">
        <ele>1081</ele>
        <time>2013-09-14T15:01:53.001Z</time>
      </trkpt>
      <trkpt lat="44.80063" lon="5.58554">
        <ele>1081</ele>
        <time>2013-09-14T15:01:53.001Z</time>
      </trkpt>
      <trkpt lat="44.80063" lon="5.58554">
        <ele>1081</ele>
        <time>2013-09-14T15:01:58.001Z</time>
      </trkpt>
      <trkpt lat="44.80072" lon="5.5855">
        <ele>1081</ele>
        <time>2013-09-14T15:01:59.001Z</time>
      </trkpt>
      <trkpt lat="44.80072" lon="5.5855">
        <ele>1081</ele>
        <time>2013-09-14T15:01:59.001Z</time>
      </trkpt>
      <trkpt lat="44.80072" lon="5.5855">
        <ele>1081</ele>
        <time>2013-09-14T15:02:04.001Z</time>
      </trkpt>
      <trkpt lat="44.80081" lon="5.58543">
        <ele>1080</ele>
        <time>2013-09-14T15:02:05.001Z</time>
      </trkpt>
      <trkpt lat="44.80081" lon="5.58543">
        <ele>1080</ele>
        <time>2013-09-14T15:02:05.001Z</time>
      </trkpt>
      <trkpt lat="44.80081" lon="5.58543">
        <ele>1080</ele>
        <time>2013-09-14T15:02:07.001Z</time>
      </trkpt>
      <trkpt lat="44.80089" lon="5.58535">
        <ele>1079</ele>
        <time>2013-09-14T15:02:08.001Z</time>
      </trkpt>
      <trkpt lat="44.80094" lon="5.5853">
        <ele>1079</ele>
        <time>2013-09-14T15:02:09.001Z</time>
      </trkpt>
      <trkpt lat="44.80098" lon="5.58522">
        <ele>1078</ele>
        <time>2013-09-14T15:02:10.001Z</time>
      </trkpt>
      <trkpt lat="44.80102" lon="5.58513">
        <ele>1077</ele>
        <time>2013-09-14T15:02:11.001Z</time>
      </trkpt>
      <trkpt lat="44.80108" lon="5.58502">
        <ele>1076</ele>
        <time>2013-09-14T15:02:12.001Z</time>
      </trkpt>
      <trkpt lat="44.80113" lon="5.58492">
        <ele>1074</ele>
        <time>2013-09-14T15:02:13.001Z</time>
      </trkpt>
      <trkpt lat="44.80117" lon="5.58481">
        <ele>1073</ele>
        <time>2013-09-14T15:02:14.001Z</time>
      </trkpt>
      <trkpt lat="44.80122" lon="5.5847">
        <ele>1072</ele>
        <time>2013-09-14T15:02:15.001Z</time>
      </trkpt>
      <trkpt lat="44.80127" lon="5.58462">
        <ele>1071</ele>
        <time>2013-09-14T15:02:16.001Z</time>
      </trkpt>
      <trkpt lat="44.80132" lon="5.58451">
        <ele>1070</ele>
        <time>2013-09-14T15:02:17.001Z</time>
      </trkpt>
      <trkpt lat="44.80136" lon="5.5844">
        <ele>1069</ele>
        <time>2013-09-14T15:02:18.001Z</time>
      </trkpt>
      <trkpt lat="44.8014" lon="5.58429">
        <ele>1069</ele>
        <time>2013-09-14T15:02:19.001Z</time>
      </trkpt>
      <trkpt lat="44.80143" lon="5.58419">
        <ele>1069</ele>
        <time>2013-09-14T15:02:20.001Z</time>
      </trkpt>
      <trkpt lat="44.80148" lon="5.5841">
        <ele>1068</ele>
        <time>2013-09-14T15:02:21.001Z</time>
      </trkpt>
      <trkpt lat="44.80155" lon="5.58406">
        <ele>1068</ele>
        <time>2013-09-14T15:02:22.001Z</time>
      </trkpt>
      <trkpt lat="44.8016" lon="5.58402">
        <ele>1068</ele>
        <time>2013-09-14T15:02:23.001Z</time>
      </trkpt>
      <trkpt lat="44.80166" lon="5.58397">
        <ele>1068</ele>
        <time>2013-09-14T15:02:24.001Z</time>
      </trkpt>
      <trkpt lat="44.8017" lon="5.58395">
        <ele>1068</ele>
        <time>2013-09-14T15:02:25.001Z</time>
      </trkpt>
      <trkpt lat="44.80174" lon="5.58391">
        <ele>1068</ele>
        <time>2013-09-14T15:02:26.001Z</time>
      </trkpt>
      <trkpt lat="44.80178" lon="5.58389">
        <ele>1068</ele>
        <time>2013-09-14T15:02:27.001Z</time>
      </trkpt>
      <trkpt lat="44.80185" lon="5.58382">
        <ele>1068</ele>
        <time>2013-09-14T15:02:29.001Z</time>
      </trkpt>
      <trkpt lat="44.8019" lon="5.58378">
        <ele>1068</ele>
        <time>2013-09-14T15:02:31.001Z</time>
      </trkpt>
      <trkpt lat="44.80196" lon="5.58374">
        <ele>1068</ele>
        <time>2013-09-14T15:02:33.001Z</time>
      </trkpt>
      <trkpt lat="44.802" lon="5.58372">
        <ele>1068</ele>
        <time>2013-09-14T15:02:35.001Z</time>
      </trkpt>
      <trkpt lat="44.802" lon="5.58372">
        <ele>1068</ele>
        <time>2013-09-14T15:02:35.001Z</time>
      </trkpt>
      <trkpt lat="44.802" lon="5.58372">
        <ele>1068</ele>
        <time>2013-09-14T15:02:39.001Z</time>
      </trkpt>
      <trkpt lat="44.8021" lon="5.58365">
        <ele>1068</ele>
        <time>2013-09-14T15:02:40.001Z</time>
      </trkpt>
      <trkpt lat="44.80214" lon="5.58363">
        <ele>1068</ele>
        <time>2013-09-14T15:02:42.001Z</time>
      </trkpt>
      <trkpt lat="44.80219" lon="5.58359">
        <ele>1068</ele>
        <time>2013-09-14T15:02:44.001Z</time>
      </trkpt>
      <trkpt lat="44.80224" lon="5.58356">
        <ele>1068</ele>
        <time>2013-09-14T15:02:46.001Z</time>
      </trkpt>
      <trkpt lat="44.80228" lon="5.58352">
        <ele>1068</ele>
        <time>2013-09-14T15:02:48.001Z</time>
      </trkpt>
      <trkpt lat="44.80233" lon="5.5835">
        <ele>1068</ele>
        <time>2013-09-14T15:02:50.001Z</time>
      </trkpt>
      <trkpt lat="44.80238" lon="5.58346">
        <ele>1068</ele>
        <time>2013-09-14T15:02:52.001Z</time>
      </trkpt>
      <trkpt lat="44.80249" lon="5.58337">
        <ele>1068</ele>
        <time>2013-09-14T15:02:58.001Z</time>
      </trkpt>
      <trkpt lat="44.80249" lon="5.58337">
        <ele>1068</ele>
        <time>2013-09-14T15:02:58.001Z</time>
      </trkpt>
      <trkpt lat="44.80249" lon="5.58337">
        <ele>1068</ele>
        <time>2013-09-14T15:03:02.001Z</time>
      </trkpt>
      <trkpt lat="44.80257" lon="5.58324">
        <ele>1068</ele>
        <time>2013-09-14T15:03:03.001Z</time>
      </trkpt>
      <trkpt lat="44.80257" lon="5.58324">
        <ele>1068</ele>
        <time>2013-09-14T15:03:03.001Z</time>
      </trkpt>
      <trkpt lat="44.80257" lon="5.58324">
        <ele>1068</ele>
        <time>2013-09-14T15:03:05.001Z</time>
      </trkpt>
      <trkpt lat="44.80262" lon="5.58314">
        <ele>1068</ele>
        <time>2013-09-14T15:03:06.001Z</time>
      </trkpt>
      <trkpt lat="44.80262" lon="5.58314">
        <ele>1068</ele>
        <time>2013-09-14T15:03:06.001Z</time>
      </trkpt>
      <trkpt lat="44.80262" lon="5.58314">
        <ele>1068</ele>
        <time>2013-09-14T15:03:08.001Z</time>
      </trkpt>
      <trkpt lat="44.80268" lon="5.58301">
        <ele>1068</ele>
        <time>2013-09-14T15:03:09.001Z</time>
      </trkpt>
      <trkpt lat="44.80268" lon="5.58301">
        <ele>1068</ele>
        <time>2013-09-14T15:03:09.001Z</time>
      </trkpt>
      <trkpt lat="44.80268" lon="5.58301">
        <ele>1068</ele>
        <time>2013-09-14T15:03:12.001Z</time>
      </trkpt>
      <trkpt lat="44.80273" lon="5.58288">
        <ele>1069</ele>
        <time>2013-09-14T15:03:13.001Z</time>
      </trkpt>
      <trkpt lat="44.80273" lon="5.58288">
        <ele>1069</ele>
        <time>2013-09-14T15:03:13.001Z</time>
      </trkpt>
      <trkpt lat="44.80273" lon="5.58288">
        <ele>1069</ele>
        <time>2013-09-14T15:03:33.001Z</time>
      </trkpt>
      <trkpt lat="44.80275" lon="5.58268">
        <ele>1069</ele>
        <time>2013-09-14T15:03:34.001Z</time>
      </trkpt>
      <trkpt lat="44.80275" lon="5.58268">
        <ele>1069</ele>
        <time>2013-09-14T15:03:34.001Z</time>
      </trkpt>
      <trkpt lat="44.80275" lon="5.58268">
        <ele>1069</ele>
        <time>2013-09-14T15:03:35.001Z</time>
      </trkpt>
      <trkpt lat="44.80275" lon="5.58254">
        <ele>1069</ele>
        <time>2013-09-14T15:03:36.001Z</time>
      </trkpt>
      <trkpt lat="44.80275" lon="5.58254">
        <ele>1069</ele>
        <time>2013-09-14T15:03:36.001Z</time>
      </trkpt>
      <trkpt lat="44.80275" lon="5.58254">
        <ele>1069</ele>
        <time>2013-09-14T15:03:37.001Z</time>
      </trkpt>
      <trkpt lat="44.80274" lon="5.58243">
        <ele>1069</ele>
        <time>2013-09-14T15:03:38.001Z</time>
      </trkpt>
      <trkpt lat="44.80274" lon="5.58243">
        <ele>1069</ele>
        <time>2013-09-14T15:03:38.001Z</time>
      </trkpt>
      <trkpt lat="44.80274" lon="5.58243">
        <ele>1069</ele>
        <time>2013-09-14T15:03:39.001Z</time>
      </trkpt>
      <trkpt lat="44.80271" lon="5.58236">
        <ele>1069</ele>
        <time>2013-09-14T15:03:40.001Z</time>
      </trkpt>
      <trkpt lat="44.80271" lon="5.58236">
        <ele>1069</ele>
        <time>2013-09-14T15:03:40.001Z</time>
      </trkpt>
      <trkpt lat="44.80271" lon="5.58236">
        <ele>1069</ele>
        <time>2013-09-14T15:03:41.001Z</time>
      </trkpt>
      <trkpt lat="44.80268" lon="5.5823">
        <ele>1069</ele>
        <time>2013-09-14T15:03:42.001Z</time>
      </trkpt>
      <trkpt lat="44.80268" lon="5.5823">
        <ele>1069</ele>
        <time>2013-09-14T15:03:42.001Z</time>
      </trkpt>
      <trkpt lat="44.80268" lon="5.5823">
        <ele>1069</ele>
        <time>2013-09-14T15:03:46.001Z</time>
      </trkpt>
      <trkpt lat="44.80263" lon="5.58217">
        <ele>1069</ele>
        <time>2013-09-14T15:03:47.001Z</time>
      </trkpt>
      <trkpt lat="44.80263" lon="5.58217">
        <ele>1069</ele>
        <time>2013-09-14T15:03:47.001Z</time>
      </trkpt>
      <trkpt lat="44.80263" lon="5.58217">
        <ele>1069</ele>
        <time>2013-09-14T15:03:51.001Z</time>
      </trkpt>
      <trkpt lat="44.80263" lon="5.58211">
        <ele>1069</ele>
        <time>2013-09-14T15:03:52.001Z</time>
      </trkpt>
      <trkpt lat="44.80263" lon="5.58211">
        <ele>1069</ele>
        <time>2013-09-14T15:03:52.001Z</time>
      </trkpt>
      <trkpt lat="44.80263" lon="5.58211">
        <ele>1069</ele>
        <time>2013-09-14T15:03:55.001Z</time>
      </trkpt>
      <trkpt lat="44.80268" lon="5.58206">
        <ele>1069</ele>
        <time>2013-09-14T15:03:56.001Z</time>
      </trkpt>
      <trkpt lat="44.80268" lon="5.58206">
        <ele>1069</ele>
        <time>2013-09-14T15:03:56.001Z</time>
      </trkpt>
      <trkpt lat="44.80268" lon="5.58206">
        <ele>1069</ele>
        <time>2013-09-14T15:03:58.001Z</time>
      </trkpt>
      <trkpt lat="44.80274" lon="5.58204">
        <ele>1069</ele>
        <time>2013-09-14T15:03:59.001Z</time>
      </trkpt>
      <trkpt lat="44.80274" lon="5.58204">
        <ele>1069</ele>
        <time>2013-09-14T15:03:59.001Z</time>
      </trkpt>
      <trkpt lat="44.80274" lon="5.58204">
        <ele>1069</ele>
        <time>2013-09-14T15:04:00.001Z</time>
      </trkpt>
      <trkpt lat="44.80278" lon="5.58202">
        <ele>1069</ele>
        <time>2013-09-14T15:04:01.001Z</time>
      </trkpt>
      <trkpt lat="44.80278" lon="5.58202">
        <ele>1069</ele>
        <time>2013-09-14T15:04:01.001Z</time>
      </trkpt>
      <trkpt lat="44.80278" lon="5.58202">
        <ele>1069</ele>
        <time>2013-09-14T15:04:48.001Z</time>
      </trkpt>
      <trkpt lat="44.80292" lon="5.582">
        <ele>1070</ele>
        <time>2013-09-14T15:04:49.001Z</time>
      </trkpt>
      <trkpt lat="44.803" lon="5.582">
        <ele>1070</ele>
        <time>2013-09-14T15:04:50.001Z</time>
      </trkpt>
      <trkpt lat="44.80305" lon="5.582">
        <ele>1070</ele>
        <time>2013-09-14T15:04:51.001Z</time>
      </trkpt>
      <trkpt lat="44.8031" lon="5.582">
        <ele>1070</ele>
        <time>2013-09-14T15:04:52.001Z</time>
      </trkpt>
      <trkpt lat="44.80319" lon="5.582">
        <ele>1070</ele>
        <time>2013-09-14T15:04:54.001Z</time>
      </trkpt>
      <trkpt lat="44.80326" lon="5.58198">
        <ele>1070</ele>
        <time>2013-09-14T15:04:56.001Z</time>
      </trkpt>
      <trkpt lat="44.80333" lon="5.58198">
        <ele>1070</ele>
        <time>2013-09-14T15:04:58.001Z</time>
      </trkpt>
      <trkpt lat="44.80339" lon="5.58196">
        <ele>1071</ele>
        <time>2013-09-14T15:05:00.001Z</time>
      </trkpt>
      <trkpt lat="44.80347" lon="5.58196">
        <ele>1071</ele>
        <time>2013-09-14T15:05:02.001Z</time>
      </trkpt>
      <trkpt lat="44.80354" lon="5.58193">
        <ele>1071</ele>
        <time>2013-09-14T15:05:04.001Z</time>
      </trkpt>
      <trkpt lat="44.80361" lon="5.58191">
        <ele>1071</ele>
        <time>2013-09-14T15:05:06.001Z</time>
      </trkpt>
      <trkpt lat="44.80366" lon="5.58189">
        <ele>1071</ele>
        <time>2013-09-14T15:05:08.001Z</time>
      </trkpt>
      <trkpt lat="44.80373" lon="5.58187">
        <ele>1071</ele>
        <time>2013-09-14T15:05:10.001Z</time>
      </trkpt>
      <trkpt lat="44.80378" lon="5.58185">
        <ele>1071</ele>
        <time>2013-09-14T15:05:12.001Z</time>
      </trkpt>
      <trkpt lat="44.80384" lon="5.58183">
        <ele>1071</ele>
        <time>2013-09-14T15:05:14.001Z</time>
      </trkpt>
      <trkpt lat="44.80391" lon="5.58178">
        <ele>1071</ele>
        <time>2013-09-14T15:05:16.001Z</time>
      </trkpt>
      <trkpt lat="44.80397" lon="5.58176">
        <ele>1072</ele>
        <time>2013-09-14T15:05:18.001Z</time>
      </trkpt>
      <trkpt lat="44.80404" lon="5.58176">
        <ele>1072</ele>
        <time>2013-09-14T15:05:20.001Z</time>
      </trkpt>
      <trkpt lat="44.8041" lon="5.58174">
        <ele>1072</ele>
        <time>2013-09-14T15:05:22.001Z</time>
      </trkpt>
      <trkpt lat="44.80418" lon="5.58172">
        <ele>1072</ele>
        <time>2013-09-14T15:05:24.001Z</time>
      </trkpt>
      <trkpt lat="44.80425" lon="5.5817">
        <ele>1072</ele>
        <time>2013-09-14T15:05:26.001Z</time>
      </trkpt>
      <trkpt lat="44.8043" lon="5.58168">
        <ele>1072</ele>
        <time>2013-09-14T15:05:27.001Z</time>
      </trkpt>
      <trkpt lat="44.80437" lon="5.58161">
        <ele>1072</ele>
        <time>2013-09-14T15:05:29.001Z</time>
      </trkpt>
      <trkpt lat="44.80441" lon="5.58159">
        <ele>1073</ele>
        <time>2013-09-14T15:05:30.001Z</time>
      </trkpt>
      <trkpt lat="44.80446" lon="5.58155">
        <ele>1073</ele>
        <time>2013-09-14T15:05:31.001Z</time>
      </trkpt>
      <trkpt lat="44.8045" lon="5.58153">
        <ele>1073</ele>
        <time>2013-09-14T15:05:32.001Z</time>
      </trkpt>
      <trkpt lat="44.80454" lon="5.58148">
        <ele>1073</ele>
        <time>2013-09-14T15:05:33.001Z</time>
      </trkpt>
      <trkpt lat="44.80458" lon="5.58146">
        <ele>1073</ele>
        <time>2013-09-14T15:05:34.001Z</time>
      </trkpt>
      <trkpt lat="44.80463" lon="5.58142">
        <ele>1073</ele>
        <time>2013-09-14T15:05:35.001Z</time>
      </trkpt>
      <trkpt lat="44.80467" lon="5.5814">
        <ele>1073</ele>
        <time>2013-09-14T15:05:36.001Z</time>
      </trkpt>
      <trkpt lat="44.80471" lon="5.58136">
        <ele>1073</ele>
        <time>2013-09-14T15:05:37.001Z</time>
      </trkpt>
      <trkpt lat="44.80476" lon="5.58133">
        <ele>1073</ele>
        <time>2013-09-14T15:05:38.001Z</time>
      </trkpt>
      <trkpt lat="44.8048" lon="5.58129">
        <ele>1073</ele>
        <time>2013-09-14T15:05:39.001Z</time>
      </trkpt>
      <trkpt lat="44.80484" lon="5.58127">
        <ele>1073</ele>
        <time>2013-09-14T15:05:40.001Z</time>
      </trkpt>
      <trkpt lat="44.80488" lon="5.58123">
        <ele>1073</ele>
        <time>2013-09-14T15:05:41.001Z</time>
      </trkpt>
      <trkpt lat="44.80496" lon="5.58116">
        <ele>1074</ele>
        <time>2013-09-14T15:05:43.001Z</time>
      </trkpt>
      <trkpt lat="44.80504" lon="5.58112">
        <ele>1074</ele>
        <time>2013-09-14T15:05:45.001Z</time>
      </trkpt>
      <trkpt lat="44.8051" lon="5.58108">
        <ele>1074</ele>
        <time>2013-09-14T15:05:47.001Z</time>
      </trkpt>
      <trkpt lat="44.80513" lon="5.58103">
        <ele>1074</ele>
        <time>2013-09-14T15:05:48.001Z</time>
      </trkpt>
      <trkpt lat="44.8052" lon="5.58099">
        <ele>1074</ele>
        <time>2013-09-14T15:05:50.001Z</time>
      </trkpt>
      <trkpt lat="44.80526" lon="5.58095">
        <ele>1075</ele>
        <time>2013-09-14T15:05:52.001Z</time>
      </trkpt>
      <trkpt lat="44.80532" lon="5.58088">
        <ele>1075</ele>
        <time>2013-09-14T15:05:54.001Z</time>
      </trkpt>
      <trkpt lat="44.80539" lon="5.58084">
        <ele>1075</ele>
        <time>2013-09-14T15:05:56.001Z</time>
      </trkpt>
      <trkpt lat="44.80544" lon="5.58082">
        <ele>1075</ele>
        <time>2013-09-14T15:05:58.001Z</time>
      </trkpt>
      <trkpt lat="44.8055" lon="5.58078">
        <ele>1075</ele>
        <time>2013-09-14T15:06:00.001Z</time>
      </trkpt>
      <trkpt lat="44.80556" lon="5.58075">
        <ele>1075</ele>
        <time>2013-09-14T15:06:02.001Z</time>
      </trkpt>
      <trkpt lat="44.80561" lon="5.58073">
        <ele>1075</ele>
        <time>2013-09-14T15:06:04.001Z</time>
      </trkpt>
      <trkpt lat="44.80568" lon="5.58071">
        <ele>1075</ele>
        <time>2013-09-14T15:06:06.001Z</time>
      </trkpt>
      <trkpt lat="44.80574" lon="5.58069">
        <ele>1076</ele>
        <time>2013-09-14T15:06:08.001Z</time>
      </trkpt>
      <trkpt lat="44.80579" lon="5.58067">
        <ele>1076</ele>
        <time>2013-09-14T15:06:09.001Z</time>
      </trkpt>
      <trkpt lat="44.80583" lon="5.58065">
        <ele>1076</ele>
        <time>2013-09-14T15:06:10.001Z</time>
      </trkpt>
      <trkpt lat="44.80587" lon="5.58062">
        <ele>1076</ele>
        <time>2013-09-14T15:06:11.001Z</time>
      </trkpt>
      <trkpt lat="44.80595" lon="5.58056">
        <ele>1077</ele>
        <time>2013-09-14T15:06:13.001Z</time>
      </trkpt>
      <trkpt lat="44.80599" lon="5.58052">
        <ele>1078</ele>
        <time>2013-09-14T15:06:14.001Z</time>
      </trkpt>
      <trkpt lat="44.80603" lon="5.58048">
        <ele>1078</ele>
        <time>2013-09-14T15:06:15.001Z</time>
      </trkpt>
      <trkpt lat="44.80609" lon="5.58043">
        <ele>1079</ele>
        <time>2013-09-14T15:06:16.001Z</time>
      </trkpt>
      <trkpt lat="44.80614" lon="5.58039">
        <ele>1079</ele>
        <time>2013-09-14T15:06:17.001Z</time>
      </trkpt>
      <trkpt lat="44.80618" lon="5.58035">
        <ele>1079</ele>
        <time>2013-09-14T15:06:18.001Z</time>
      </trkpt>
      <trkpt lat="44.80624" lon="5.5803">
        <ele>1080</ele>
        <time>2013-09-14T15:06:19.001Z</time>
      </trkpt>
      <trkpt lat="44.80628" lon="5.58028">
        <ele>1080</ele>
        <time>2013-09-14T15:06:20.001Z</time>
      </trkpt>
      <trkpt lat="44.80633" lon="5.58024">
        <ele>1080</ele>
        <time>2013-09-14T15:06:21.001Z</time>
      </trkpt>
      <trkpt lat="44.80639" lon="5.58022">
        <ele>1080</ele>
        <time>2013-09-14T15:06:22.001Z</time>
      </trkpt>
      <trkpt lat="44.80644" lon="5.5802">
        <ele>1080</ele>
        <time>2013-09-14T15:06:23.001Z</time>
      </trkpt>
      <trkpt lat="44.80649" lon="5.58015">
        <ele>1080</ele>
        <time>2013-09-14T15:06:24.001Z</time>
      </trkpt>
      <trkpt lat="44.80654" lon="5.58013">
        <ele>1080</ele>
        <time>2013-09-14T15:06:25.001Z</time>
      </trkpt>
      <trkpt lat="44.80659" lon="5.58009">
        <ele>1080</ele>
        <time>2013-09-14T15:06:26.001Z</time>
      </trkpt>
      <trkpt lat="44.80663" lon="5.58005">
        <ele>1080</ele>
        <time>2013-09-14T15:06:27.001Z</time>
      </trkpt>
      <trkpt lat="44.80668" lon="5.58002">
        <ele>1080</ele>
        <time>2013-09-14T15:06:28.001Z</time>
      </trkpt>
      <trkpt lat="44.80673" lon="5.57998">
        <ele>1080</ele>
        <time>2013-09-14T15:06:29.001Z</time>
      </trkpt>
      <trkpt lat="44.80677" lon="5.57994">
        <ele>1081</ele>
        <time>2013-09-14T15:06:30.001Z</time>
      </trkpt>
      <trkpt lat="44.80682" lon="5.5799">
        <ele>1081</ele>
        <time>2013-09-14T15:06:31.001Z</time>
      </trkpt>
      <trkpt lat="44.80687" lon="5.57985">
        <ele>1081</ele>
        <time>2013-09-14T15:06:32.001Z</time>
      </trkpt>
      <trkpt lat="44.80692" lon="5.57981">
        <ele>1081</ele>
        <time>2013-09-14T15:06:33.001Z</time>
      </trkpt>
      <trkpt lat="44.80698" lon="5.57977">
        <ele>1081</ele>
        <time>2013-09-14T15:06:34.001Z</time>
      </trkpt>
      <trkpt lat="44.80703" lon="5.57972">
        <ele>1081</ele>
        <time>2013-09-14T15:06:35.001Z</time>
      </trkpt>
      <trkpt lat="44.80708" lon="5.57968">
        <ele>1081</ele>
        <time>2013-09-14T15:06:36.001Z</time>
      </trkpt>
      <trkpt lat="44.80714" lon="5.57964">
        <ele>1081</ele>
        <time>2013-09-14T15:06:37.001Z</time>
      </trkpt>
      <trkpt lat="44.8072" lon="5.5796">
        <ele>1081</ele>
        <time>2013-09-14T15:06:38.001Z</time>
      </trkpt>
      <trkpt lat="44.80726" lon="5.57957">
        <ele>1081</ele>
        <time>2013-09-14T15:06:39.001Z</time>
      </trkpt>
      <trkpt lat="44.80732" lon="5.57953">
        <ele>1081</ele>
        <time>2013-09-14T15:06:40.001Z</time>
      </trkpt>
      <trkpt lat="44.80737" lon="5.57951">
        <ele>1081</ele>
        <time>2013-09-14T15:06:41.001Z</time>
      </trkpt>
      <trkpt lat="44.80744" lon="5.57947">
        <ele>1081</ele>
        <time>2013-09-14T15:06:42.001Z</time>
      </trkpt>
      <trkpt lat="44.80749" lon="5.57944">
        <ele>1081</ele>
        <time>2013-09-14T15:06:43.001Z</time>
      </trkpt>
      <trkpt lat="44.80756" lon="5.5794">
        <ele>1081</ele>
        <time>2013-09-14T15:06:44.001Z</time>
      </trkpt>
      <trkpt lat="44.80761" lon="5.57938">
        <ele>1081</ele>
        <time>2013-09-14T15:06:45.001Z</time>
      </trkpt>
      <trkpt lat="44.80766" lon="5.57936">
        <ele>1081</ele>
        <time>2013-09-14T15:06:46.001Z</time>
      </trkpt>
      <trkpt lat="44.80773" lon="5.57932">
        <ele>1082</ele>
        <time>2013-09-14T15:06:47.001Z</time>
      </trkpt>
      <trkpt lat="44.80778" lon="5.5793">
        <ele>1082</ele>
        <time>2013-09-14T15:06:48.001Z</time>
      </trkpt>
      <trkpt lat="44.80785" lon="5.57927">
        <ele>1082</ele>
        <time>2013-09-14T15:06:49.001Z</time>
      </trkpt>
      <trkpt lat="44.8079" lon="5.57923">
        <ele>1082</ele>
        <time>2013-09-14T15:06:50.001Z</time>
      </trkpt>
      <trkpt lat="44.80795" lon="5.57921">
        <ele>1082</ele>
        <time>2013-09-14T15:06:51.001Z</time>
      </trkpt>
      <trkpt lat="44.80801" lon="5.57917">
        <ele>1082</ele>
        <time>2013-09-14T15:06:52.001Z</time>
      </trkpt>
      <trkpt lat="44.80806" lon="5.57914">
        <ele>1083</ele>
        <time>2013-09-14T15:06:53.001Z</time>
      </trkpt>
      <trkpt lat="44.80812" lon="5.5791">
        <ele>1083</ele>
        <time>2013-09-14T15:06:54.001Z</time>
      </trkpt>
      <trkpt lat="44.80818" lon="5.57908">
        <ele>1083</ele>
        <time>2013-09-14T15:06:55.001Z</time>
      </trkpt>
      <trkpt lat="44.80824" lon="5.57904">
        <ele>1083</ele>
        <time>2013-09-14T15:06:56.001Z</time>
      </trkpt>
      <trkpt lat="44.80831" lon="5.57902">
        <ele>1083</ele>
        <time>2013-09-14T15:06:57.001Z</time>
      </trkpt>
      <trkpt lat="44.80838" lon="5.57897">
        <ele>1083</ele>
        <time>2013-09-14T15:06:58.001Z</time>
      </trkpt>
      <trkpt lat="44.80845" lon="5.57893">
        <ele>1083</ele>
        <time>2013-09-14T15:06:59.001Z</time>
      </trkpt>
      <trkpt lat="44.80851" lon="5.57891">
        <ele>1083</ele>
        <time>2013-09-14T15:07:00.001Z</time>
      </trkpt>
      <trkpt lat="44.80858" lon="5.57887">
        <ele>1083</ele>
        <time>2013-09-14T15:07:01.001Z</time>
      </trkpt>
      <trkpt lat="44.80864" lon="5.57884">
        <ele>1083</ele>
        <time>2013-09-14T15:07:02.001Z</time>
      </trkpt>
      <trkpt lat="44.80869" lon="5.5788">
        <ele>1083</ele>
        <time>2013-09-14T15:07:03.001Z</time>
      </trkpt>
      <trkpt lat="44.80875" lon="5.57876">
        <ele>1083</ele>
        <time>2013-09-14T15:07:04.001Z</time>
      </trkpt>
      <trkpt lat="44.80881" lon="5.57872">
        <ele>1083</ele>
        <time>2013-09-14T15:07:05.001Z</time>
      </trkpt>
      <trkpt lat="44.80888" lon="5.57867">
        <ele>1083</ele>
        <time>2013-09-14T15:07:06.001Z</time>
      </trkpt>
      <trkpt lat="44.80894" lon="5.57863">
        <ele>1083</ele>
        <time>2013-09-14T15:07:07.001Z</time>
      </trkpt>
      <trkpt lat="44.809" lon="5.57859">
        <ele>1082</ele>
        <time>2013-09-14T15:07:08.001Z</time>
      </trkpt>
      <trkpt lat="44.80906" lon="5.57852">
        <ele>1082</ele>
        <time>2013-09-14T15:07:09.001Z</time>
      </trkpt>
      <trkpt lat="44.80912" lon="5.57848">
        <ele>1081</ele>
        <time>2013-09-14T15:07:10.001Z</time>
      </trkpt>
      <trkpt lat="44.80918" lon="5.57842">
        <ele>1081</ele>
        <time>2013-09-14T15:07:11.001Z</time>
      </trkpt>
      <trkpt lat="44.80923" lon="5.57835">
        <ele>1080</ele>
        <time>2013-09-14T15:07:12.001Z</time>
      </trkpt>
      <trkpt lat="44.80927" lon="5.57829">
        <ele>1079</ele>
        <time>2013-09-14T15:07:13.001Z</time>
      </trkpt>
      <trkpt lat="44.80933" lon="5.5782">
        <ele>1079</ele>
        <time>2013-09-14T15:07:14.001Z</time>
      </trkpt>
      <trkpt lat="44.80937" lon="5.57814">
        <ele>1078</ele>
        <time>2013-09-14T15:07:15.001Z</time>
      </trkpt>
      <trkpt lat="44.8094" lon="5.57807">
        <ele>1078</ele>
        <time>2013-09-14T15:07:16.001Z</time>
      </trkpt>
      <trkpt lat="44.80943" lon="5.57799">
        <ele>1077</ele>
        <time>2013-09-14T15:07:17.001Z</time>
      </trkpt>
      <trkpt lat="44.80947" lon="5.5779">
        <ele>1076</ele>
        <time>2013-09-14T15:07:18.001Z</time>
      </trkpt>
      <trkpt lat="44.8095" lon="5.57784">
        <ele>1076</ele>
        <time>2013-09-14T15:07:19.001Z</time>
      </trkpt>
      <trkpt lat="44.80952" lon="5.57777">
        <ele>1076</ele>
        <time>2013-09-14T15:07:20.001Z</time>
      </trkpt>
      <trkpt lat="44.80956" lon="5.57768">
        <ele>1075</ele>
        <time>2013-09-14T15:07:22.001Z</time>
      </trkpt>
      <trkpt lat="44.80964" lon="5.57758">
        <ele>1075</ele>
        <time>2013-09-14T15:07:24.001Z</time>
      </trkpt>
      <trkpt lat="44.80968" lon="5.57754">
        <ele>1075</ele>
        <time>2013-09-14T15:07:25.001Z</time>
      </trkpt>
      <trkpt lat="44.80972" lon="5.57749">
        <ele>1074</ele>
        <time>2013-09-14T15:07:26.001Z</time>
      </trkpt>
      <trkpt lat="44.80977" lon="5.57745">
        <ele>1074</ele>
        <time>2013-09-14T15:07:27.001Z</time>
      </trkpt>
      <trkpt lat="44.80982" lon="5.57738">
        <ele>1074</ele>
        <time>2013-09-14T15:07:28.001Z</time>
      </trkpt>
      <trkpt lat="44.80987" lon="5.57734">
        <ele>1073</ele>
        <time>2013-09-14T15:07:29.001Z</time>
      </trkpt>
      <trkpt lat="44.80992" lon="5.57728">
        <ele>1073</ele>
        <time>2013-09-14T15:07:30.001Z</time>
      </trkpt>
      <trkpt lat="44.80996" lon="5.57721">
        <ele>1073</ele>
        <time>2013-09-14T15:07:31.001Z</time>
      </trkpt>
      <trkpt lat="44.81001" lon="5.57717">
        <ele>1072</ele>
        <time>2013-09-14T15:07:32.001Z</time>
      </trkpt>
      <trkpt lat="44.81006" lon="5.57708">
        <ele>1072</ele>
        <time>2013-09-14T15:07:33.001Z</time>
      </trkpt>
      <trkpt lat="44.81011" lon="5.57698">
        <ele>1071</ele>
        <time>2013-09-14T15:07:34.001Z</time>
      </trkpt>
      <trkpt lat="44.81016" lon="5.57685">
        <ele>1070</ele>
        <time>2013-09-14T15:07:35.001Z</time>
      </trkpt>
      <trkpt lat="44.81022" lon="5.5767">
        <ele>1069</ele>
        <time>2013-09-14T15:07:36.001Z</time>
      </trkpt>
      <trkpt lat="44.81027" lon="5.57657">
        <ele>1068</ele>
        <time>2013-09-14T15:07:37.001Z</time>
      </trkpt>
      <trkpt lat="44.81032" lon="5.57644">
        <ele>1068</ele>
        <time>2013-09-14T15:07:38.001Z</time>
      </trkpt>
      <trkpt lat="44.81037" lon="5.57631">
        <ele>1067</ele>
        <time>2013-09-14T15:07:39.001Z</time>
      </trkpt>
      <trkpt lat="44.81042" lon="5.57618">
        <ele>1067</ele>
        <time>2013-09-14T15:07:40.001Z</time>
      </trkpt>
      <trkpt lat="44.81046" lon="5.57606">
        <ele>1067</ele>
        <time>2013-09-14T15:07:41.001Z</time>
      </trkpt>
      <trkpt lat="44.81051" lon="5.57593">
        <ele>1066</ele>
        <time>2013-09-14T15:07:42.001Z</time>
      </trkpt>
      <trkpt lat="44.81053" lon="5.57578">
        <ele>1066</ele>
        <time>2013-09-14T15:07:43.001Z</time>
      </trkpt>
      <trkpt lat="44.81056" lon="5.57565">
        <ele>1066</ele>
        <time>2013-09-14T15:07:44.001Z</time>
      </trkpt>
      <trkpt lat="44.81058" lon="5.57552">
        <ele>1066</ele>
        <time>2013-09-14T15:07:45.001Z</time>
      </trkpt>
      <trkpt lat="44.8106" lon="5.57541">
        <ele>1066</ele>
        <time>2013-09-14T15:07:46.001Z</time>
      </trkpt>
      <trkpt lat="44.81061" lon="5.57528">
        <ele>1066</ele>
        <time>2013-09-14T15:07:47.001Z</time>
      </trkpt>
      <trkpt lat="44.81064" lon="5.57515">
        <ele>1065</ele>
        <time>2013-09-14T15:07:48.001Z</time>
      </trkpt>
      <trkpt lat="44.81064" lon="5.575">
        <ele>1065</ele>
        <time>2013-09-14T15:07:49.001Z</time>
      </trkpt>
      <trkpt lat="44.81065" lon="5.57487">
        <ele>1064</ele>
        <time>2013-09-14T15:07:50.001Z</time>
      </trkpt>
      <trkpt lat="44.81066" lon="5.57472">
        <ele>1064</ele>
        <time>2013-09-14T15:07:51.001Z</time>
      </trkpt>
      <trkpt lat="44.81066" lon="5.57457">
        <ele>1064</ele>
        <time>2013-09-14T15:07:52.001Z</time>
      </trkpt>
      <trkpt lat="44.81068" lon="5.57444">
        <ele>1064</ele>
        <time>2013-09-14T15:07:53.001Z</time>
      </trkpt>
      <trkpt lat="44.81069" lon="5.57434">
        <ele>1064</ele>
        <time>2013-09-14T15:07:54.001Z</time>
      </trkpt>
      <trkpt lat="44.81073" lon="5.57423">
        <ele>1064</ele>
        <time>2013-09-14T15:07:55.001Z</time>
      </trkpt>
      <trkpt lat="44.81076" lon="5.57414">
        <ele>1065</ele>
        <time>2013-09-14T15:07:56.001Z</time>
      </trkpt>
      <trkpt lat="44.8108" lon="5.57406">
        <ele>1065</ele>
        <time>2013-09-14T15:07:57.001Z</time>
      </trkpt>
      <trkpt lat="44.81085" lon="5.57397">
        <ele>1066</ele>
        <time>2013-09-14T15:07:58.001Z</time>
      </trkpt>
      <trkpt lat="44.8109" lon="5.57391">
        <ele>1066</ele>
        <time>2013-09-14T15:07:59.001Z</time>
      </trkpt>
      <trkpt lat="44.81096" lon="5.57384">
        <ele>1066</ele>
        <time>2013-09-14T15:08:00.001Z</time>
      </trkpt>
      <trkpt lat="44.81102" lon="5.57376">
        <ele>1067</ele>
        <time>2013-09-14T15:08:01.001Z</time>
      </trkpt>
      <trkpt lat="44.81105" lon="5.57369">
        <ele>1067</ele>
        <time>2013-09-14T15:08:02.001Z</time>
      </trkpt>
      <trkpt lat="44.8111" lon="5.57361">
        <ele>1067</ele>
        <time>2013-09-14T15:08:03.001Z</time>
      </trkpt>
      <trkpt lat="44.81111" lon="5.57352">
        <ele>1068</ele>
        <time>2013-09-14T15:08:04.001Z</time>
      </trkpt>
      <trkpt lat="44.81112" lon="5.57346">
        <ele>1068</ele>
        <time>2013-09-14T15:08:05.001Z</time>
      </trkpt>
      <trkpt lat="44.81113" lon="5.57339">
        <ele>1068</ele>
        <time>2013-09-14T15:08:06.001Z</time>
      </trkpt>
      <trkpt lat="44.81114" lon="5.57333">
        <ele>1067</ele>
        <time>2013-09-14T15:08:07.001Z</time>
      </trkpt>
      <trkpt lat="44.81114" lon="5.57333">
        <ele>1067</ele>
        <time>2013-09-14T15:08:07.001Z</time>
      </trkpt>
      <trkpt lat="44.81114" lon="5.57333">
        <ele>1067</ele>
        <time>2013-09-14T15:08:17.001Z</time>
      </trkpt>
      <trkpt lat="44.81116" lon="5.5732">
        <ele>1065</ele>
        <time>2013-09-14T15:08:18.001Z</time>
      </trkpt>
      <trkpt lat="44.81116" lon="5.5732">
        <ele>1065</ele>
        <time>2013-09-14T15:08:18.001Z</time>
      </trkpt>
      <trkpt lat="44.81116" lon="5.5732">
        <ele>1065</ele>
        <time>2013-09-14T15:11:06.001Z</time>
      </trkpt>
      <trkpt lat="44.81112" lon="5.57316">
        <ele>1058</ele>
        <time>2013-09-14T15:11:11.001Z</time>
      </trkpt>
      <trkpt lat="44.81109" lon="5.57309">
        <ele>1058</ele>
        <time>2013-09-14T15:11:15.001Z</time>
      </trkpt>
      <trkpt lat="44.81109" lon="5.57309">
        <ele>1058</ele>
        <time>2013-09-14T15:11:15.001Z</time>
      </trkpt>
      <trkpt lat="44.81109" lon="5.57309">
        <ele>1058</ele>
        <time>2013-09-14T15:11:19.001Z</time>
      </trkpt>
      <trkpt lat="44.81111" lon="5.57303">
        <ele>1056</ele>
        <time>2013-09-14T15:11:30.001Z</time>
      </trkpt>
      <trkpt lat="44.81115" lon="5.57296">
        <ele>1056</ele>
        <time>2013-09-14T15:11:32.001Z</time>
      </trkpt>
      <trkpt lat="44.81117" lon="5.5729">
        <ele>1056</ele>
        <time>2013-09-14T15:11:35.001Z</time>
      </trkpt>
      <trkpt lat="44.81122" lon="5.57288">
        <ele>1053</ele>
        <time>2013-09-14T15:11:48.001Z</time>
      </trkpt>
      <trkpt lat="44.8112" lon="5.57281">
        <ele>1051</ele>
        <time>2013-09-14T15:11:57.001Z</time>
      </trkpt>
      <trkpt lat="44.8112" lon="5.57275">
        <ele>1051</ele>
        <time>2013-09-14T15:11:59.001Z</time>
      </trkpt>
      <trkpt lat="44.81123" lon="5.57269">
        <ele>1050</ele>
        <time>2013-09-14T15:12:02.001Z</time>
      </trkpt>
      <trkpt lat="44.81126" lon="5.57262">
        <ele>1049</ele>
        <time>2013-09-14T15:12:05.001Z</time>
      </trkpt>
      <trkpt lat="44.8113" lon="5.5726">
        <ele>1049</ele>
        <time>2013-09-14T15:12:07.001Z</time>
      </trkpt>
      <trkpt lat="44.81136" lon="5.57262">
        <ele>1048</ele>
        <time>2013-09-14T15:12:10.001Z</time>
      </trkpt>
      <trkpt lat="44.81141" lon="5.57264">
        <ele>1048</ele>
        <time>2013-09-14T15:12:12.001Z</time>
      </trkpt>
      <trkpt lat="44.81145" lon="5.57266">
        <ele>1047</ele>
        <time>2013-09-14T15:12:14.001Z</time>
      </trkpt>
      <trkpt lat="44.81148" lon="5.57271">
        <ele>1047</ele>
        <time>2013-09-14T15:12:16.001Z</time>
      </trkpt>
      <trkpt lat="44.81154" lon="5.57271">
        <ele>1045</ele>
        <time>2013-09-14T15:12:30.001Z</time>
      </trkpt>
      <trkpt lat="44.81158" lon="5.57266">
        <ele>1045</ele>
        <time>2013-09-14T15:12:35.001Z</time>
      </trkpt>
      <trkpt lat="44.81158" lon="5.57266">
        <ele>1045</ele>
        <time>2013-09-14T15:12:35.001Z</time>
      </trkpt>
      <trkpt lat="44.81158" lon="5.57266">
        <ele>1045</ele>
        <time>2013-09-14T15:12:36.001Z</time>
      </trkpt>
      <trkpt lat="44.8116" lon="5.5726">
        <ele>1044</ele>
        <time>2013-09-14T15:12:59.001Z</time>
      </trkpt>
      <trkpt lat="44.8116" lon="5.5726">
        <ele>1044</ele>
        <time>2013-09-14T15:12:59.001Z</time>
      </trkpt>
      <trkpt lat="44.8116" lon="5.5726">
        <ele>1044</ele>
        <time>2013-09-14T15:13:00.001Z</time>
      </trkpt>
      <trkpt lat="44.81161" lon="5.57254">
        <ele>1044</ele>
        <time>2013-09-14T15:13:46.001Z</time>
      </trkpt>
      <trkpt lat="44.81161" lon="5.57254">
        <ele>1044</ele>
        <time>2013-09-14T15:13:46.001Z</time>
      </trkpt>
      <trkpt lat="44.81161" lon="5.57254">
        <ele>1044</ele>
        <time>2013-09-14T15:13:54.001Z</time>
      </trkpt>
      <trkpt lat="44.81159" lon="5.5726">
        <ele>1044</ele>
        <time>2013-09-14T15:14:24.001Z</time>
      </trkpt>
      <trkpt lat="44.81159" lon="5.5726">
        <ele>1044</ele>
        <time>2013-09-14T15:14:24.001Z</time>
      </trkpt>
      <trkpt lat="44.81159" lon="5.5726">
        <ele>1044</ele>
        <time>2013-09-14T15:14:25.001Z</time>
      </trkpt>
      <trkpt lat="44.81159" lon="5.57266">
        <ele>1045</ele>
        <time>2013-09-14T15:15:00.001Z</time>
      </trkpt>
      <trkpt lat="44.81159" lon="5.57266">
        <ele>1045</ele>
        <time>2013-09-14T15:15:00.001Z</time>
      </trkpt>
      <trkpt lat="44.81159" lon="5.57266">
        <ele>1045</ele>
        <time>2013-09-14T15:15:10.001Z</time>
      </trkpt>
      <trkpt lat="44.8116" lon="5.5726">
        <ele>1045</ele>
        <time>2013-09-14T15:15:23.001Z</time>
      </trkpt>
      <trkpt lat="44.8116" lon="5.5726">
        <ele>1045</ele>
        <time>2013-09-14T15:15:23.001Z</time>
      </trkpt>
      <trkpt lat="44.8116" lon="5.5726">
        <ele>1046</ele>
        <time>2013-09-14T15:15:56.001Z</time>
      </trkpt>
      <trkpt lat="44.81156" lon="5.57256">
        <ele>1046</ele>
        <time>2013-09-14T15:16:10.001Z</time>
      </trkpt>
      <trkpt lat="44.81156" lon="5.57256">
        <ele>1046</ele>
        <time>2013-09-14T15:16:10.001Z</time>
      </trkpt>
      <trkpt lat="44.81156" lon="5.57256">
        <ele>1046</ele>
        <time>2013-09-14T15:16:11.001Z</time>
      </trkpt>
      <trkpt lat="44.81155" lon="5.57262">
        <ele>1046</ele>
        <time>2013-09-14T15:16:50.001Z</time>
      </trkpt>
      <trkpt lat="44.81155" lon="5.57262">
        <ele>1046</ele>
        <time>2013-09-14T15:16:50.001Z</time>
      </trkpt>
      <trkpt lat="44.81155" lon="5.57262">
        <ele>1046</ele>
        <time>2013-09-14T15:16:53.001Z</time>
      </trkpt>
      <trkpt lat="44.81159" lon="5.57258">
        <ele>1046</ele>
        <time>2013-09-14T15:17:07.001Z</time>
      </trkpt>
      <trkpt lat="44.81159" lon="5.57258">
        <ele>1046</ele>
        <time>2013-09-14T15:17:07.001Z</time>
      </trkpt>
      <trkpt lat="44.81159" lon="5.57258">
        <ele>1046</ele>
        <time>2013-09-14T15:17:12.001Z</time>
      </trkpt>
      <trkpt lat="44.8116" lon="5.57251">
        <ele>1046</ele>
        <time>2013-09-14T15:18:36.001Z</time>
      </trkpt>
      <trkpt lat="44.8116" lon="5.57251">
        <ele>1046</ele>
        <time>2013-09-14T15:18:36.001Z</time>
      </trkpt>
      <trkpt lat="44.8116" lon="5.57251">
        <ele>1046</ele>
        <time>2013-09-14T15:18:54.001Z</time>
      </trkpt>
      <trkpt lat="44.81161" lon="5.57258">
        <ele>1046</ele>
        <time>2013-09-14T15:19:10.001Z</time>
      </trkpt>
      <trkpt lat="44.81161" lon="5.57258">
        <ele>1046</ele>
        <time>2013-09-14T15:19:10.001Z</time>
      </trkpt>
      <trkpt lat="44.81161" lon="5.57258">
        <ele>1046</ele>
        <time>2013-09-14T15:19:13.001Z</time>
      </trkpt>
      <trkpt lat="44.81157" lon="5.5726">
        <ele>1045</ele>
        <time>2013-09-14T15:20:03.001Z</time>
      </trkpt>
      <trkpt lat="44.81157" lon="5.5726">
        <ele>1045</ele>
        <time>2013-09-14T15:20:03.001Z</time>
      </trkpt>
      <trkpt lat="44.81157" lon="5.5726">
        <ele>1045</ele>
        <time>2013-09-14T15:20:04.001Z</time>
      </trkpt>
      <trkpt lat="44.81157" lon="5.57254">
        <ele>1044</ele>
        <time>2013-09-14T15:20:43.001Z</time>
      </trkpt>
      <trkpt lat="44.81157" lon="5.57254">
        <ele>1044</ele>
        <time>2013-09-14T15:20:43.001Z</time>
      </trkpt>
      <trkpt lat="44.81157" lon="5.57254">
        <ele>1044</ele>
        <time>2013-09-14T15:21:25.001Z</time>
      </trkpt>
      <trkpt lat="44.81156" lon="5.5726">
        <ele>1044</ele>
        <time>2013-09-14T15:21:29.001Z</time>
      </trkpt>
      <trkpt lat="44.81156" lon="5.5726">
        <ele>1044</ele>
        <time>2013-09-14T15:21:29.001Z</time>
      </trkpt>
      <trkpt lat="44.81156" lon="5.5726">
        <ele>1044</ele>
        <time>2013-09-14T15:21:31.001Z</time>
      </trkpt>
      <trkpt lat="44.81158" lon="5.57266">
        <ele>1044</ele>
        <time>2013-09-14T15:22:17.001Z</time>
      </trkpt>
      <trkpt lat="44.81158" lon="5.57266">
        <ele>1044</ele>
        <time>2013-09-14T15:22:17.001Z</time>
      </trkpt>
      <trkpt lat="44.81158" lon="5.57266">
        <ele>1044</ele>
        <time>2013-09-14T15:22:23.001Z</time>
      </trkpt>
      <trkpt lat="44.81154" lon="5.57269">
        <ele>1044</ele>
        <time>2013-09-14T15:22:42.001Z</time>
      </trkpt>
      <trkpt lat="44.81155" lon="5.57262">
        <ele>1044</ele>
        <time>2013-09-14T15:22:55.001Z</time>
      </trkpt>
      <trkpt lat="44.81155" lon="5.57262">
        <ele>1044</ele>
        <time>2013-09-14T15:22:55.001Z</time>
      </trkpt>
      <trkpt lat="44.81155" lon="5.57262">
        <ele>1044</ele>
        <time>2013-09-14T15:22:58.001Z</time>
      </trkpt>
      <trkpt lat="44.81157" lon="5.57256">
        <ele>1044</ele>
        <time>2013-09-14T15:23:29.001Z</time>
      </trkpt>
      <trkpt lat="44.81157" lon="5.57256">
        <ele>1044</ele>
        <time>2013-09-14T15:23:29.001Z</time>
      </trkpt>
      <trkpt lat="44.81157" lon="5.57256">
        <ele>1044</ele>
        <time>2013-09-14T15:23:32.001Z</time>
      </trkpt>
      <trkpt lat="44.81161" lon="5.57258">
        <ele>1044</ele>
        <time>2013-09-14T15:23:59.001Z</time>
      </trkpt>
      <trkpt lat="44.81161" lon="5.57258">
        <ele>1044</ele>
        <time>2013-09-14T15:23:59.001Z</time>
      </trkpt>
      <trkpt lat="44.81161" lon="5.57258">
        <ele>1044</ele>
        <time>2013-09-14T15:24:01.001Z</time>
      </trkpt>
      <trkpt lat="44.81166" lon="5.5726">
        <ele>1044</ele>
        <time>2013-09-14T15:24:17.001Z</time>
      </trkpt>
      <trkpt lat="44.81166" lon="5.5726">
        <ele>1044</ele>
        <time>2013-09-14T15:24:17.001Z</time>
      </trkpt>
      <trkpt lat="44.81166" lon="5.5726">
        <ele>1044</ele>
        <time>2013-09-14T15:24:31.001Z</time>
      </trkpt>
      <trkpt lat="44.81161" lon="5.57258">
        <ele>1044</ele>
        <time>2013-09-14T15:24:53.001Z</time>
      </trkpt>
      <trkpt lat="44.81161" lon="5.57258">
        <ele>1044</ele>
        <time>2013-09-14T15:24:53.001Z</time>
      </trkpt>
      <trkpt lat="44.81161" lon="5.57258">
        <ele>1044</ele>
        <time>2013-09-14T15:24:54.001Z</time>
      </trkpt>
      <trkpt lat="44.81159" lon="5.57251">
        <ele>1043</ele>
        <time>2013-09-14T15:25:12.001Z</time>
      </trkpt>
      <trkpt lat="44.81159" lon="5.57251">
        <ele>1043</ele>
        <time>2013-09-14T15:25:12.001Z</time>
      </trkpt>
      <trkpt lat="44.81159" lon="5.57251">
        <ele>1043</ele>
        <time>2013-09-14T15:25:29.001Z</time>
      </trkpt>
      <trkpt lat="44.81163" lon="5.57249">
        <ele>1042</ele>
        <time>2013-09-14T15:25:47.001Z</time>
      </trkpt>
      <trkpt lat="44.81163" lon="5.57249">
        <ele>1042</ele>
        <time>2013-09-14T15:25:47.001Z</time>
      </trkpt>
      <trkpt lat="44.81163" lon="5.57249">
        <ele>1042</ele>
        <time>2013-09-14T15:25:52.001Z</time>
      </trkpt>
      <trkpt lat="44.81161" lon="5.57243">
        <ele>1042</ele>
        <time>2013-09-14T15:26:00.001Z</time>
      </trkpt>
      <trkpt lat="44.81161" lon="5.57243">
        <ele>1042</ele>
        <time>2013-09-14T15:26:00.001Z</time>
      </trkpt>
      <trkpt lat="44.81161" lon="5.57243">
        <ele>1042</ele>
        <time>2013-09-14T15:26:01.001Z</time>
      </trkpt>
      <trkpt lat="44.81159" lon="5.57249">
        <ele>1042</ele>
        <time>2013-09-14T15:26:24.001Z</time>
      </trkpt>
      <trkpt lat="44.81159" lon="5.57249">
        <ele>1042</ele>
        <time>2013-09-14T15:26:24.001Z</time>
      </trkpt>
      <trkpt lat="44.81159" lon="5.57249">
        <ele>1042</ele>
        <time>2013-09-14T15:26:28.001Z</time>
      </trkpt>
      <trkpt lat="44.81155" lon="5.57245">
        <ele>1039</ele>
        <time>2013-09-14T15:27:38.001Z</time>
      </trkpt>
      <trkpt lat="44.81155" lon="5.57245">
        <ele>1039</ele>
        <time>2013-09-14T15:27:38.001Z</time>
      </trkpt>
      <trkpt lat="44.81155" lon="5.57245">
        <ele>1039</ele>
        <time>2013-09-14T15:27:57.001Z</time>
      </trkpt>
      <trkpt lat="44.81158" lon="5.57249">
        <ele>1039</ele>
        <time>2013-09-14T15:28:09.001Z</time>
      </trkpt>
      <trkpt lat="44.81159" lon="5.57256">
        <ele>1039</ele>
        <time>2013-09-14T15:28:15.001Z</time>
      </trkpt>
      <trkpt lat="44.81162" lon="5.5726">
        <ele>1039</ele>
        <time>2013-09-14T15:28:20.001Z</time>
      </trkpt>
      <trkpt lat="44.81164" lon="5.57266">
        <ele>1039</ele>
        <time>2013-09-14T15:28:27.001Z</time>
      </trkpt>
      <trkpt lat="44.81164" lon="5.57266">
        <ele>1039</ele>
        <time>2013-09-14T15:28:27.001Z</time>
      </trkpt>
      <trkpt lat="44.81164" lon="5.57266">
        <ele>1039</ele>
        <time>2013-09-14T15:28:31.001Z</time>
      </trkpt>
      <trkpt lat="44.81166" lon="5.57273">
        <ele>1040</ele>
        <time>2013-09-14T15:28:42.001Z</time>
      </trkpt>
      <trkpt lat="44.81162" lon="5.57266">
        <ele>1041</ele>
        <time>2013-09-14T15:29:33.001Z</time>
      </trkpt>
      <trkpt lat="44.81157" lon="5.57266">
        <ele>1042</ele>
        <time>2013-09-14T15:30:00.001Z</time>
      </trkpt>
      <trkpt lat="44.81157" lon="5.57266">
        <ele>1042</ele>
        <time>2013-09-14T15:30:00.001Z</time>
      </trkpt>
      <trkpt lat="44.81157" lon="5.57266">
        <ele>1042</ele>
        <time>2013-09-14T15:30:10.001Z</time>
      </trkpt>
      <trkpt lat="44.81159" lon="5.5726">
        <ele>1042</ele>
        <time>2013-09-14T15:30:50.001Z</time>
      </trkpt>
      <trkpt lat="44.81159" lon="5.5726">
        <ele>1042</ele>
        <time>2013-09-14T15:30:50.001Z</time>
      </trkpt>
      <trkpt lat="44.81159" lon="5.5726">
        <ele>1042</ele>
        <time>2013-09-14T15:30:52.001Z</time>
      </trkpt>
      <trkpt lat="44.81158" lon="5.57254">
        <ele>1042</ele>
        <time>2013-09-14T15:31:12.001Z</time>
      </trkpt>
      <trkpt lat="44.81158" lon="5.57254">
        <ele>1042</ele>
        <time>2013-09-14T15:31:12.001Z</time>
      </trkpt>
      <trkpt lat="44.81158" lon="5.57254">
        <ele>1041</ele>
        <time>2013-09-14T15:31:51.001Z</time>
      </trkpt>
      <trkpt lat="44.81155" lon="5.5726">
        <ele>1041</ele>
        <time>2013-09-14T15:32:10.001Z</time>
      </trkpt>
      <trkpt lat="44.81155" lon="5.5726">
        <ele>1041</ele>
        <time>2013-09-14T15:32:10.001Z</time>
      </trkpt>
      <trkpt lat="44.81155" lon="5.5726">
        <ele>1041</ele>
        <time>2013-09-14T15:32:11.001Z</time>
      </trkpt>
      <trkpt lat="44.81155" lon="5.57266">
        <ele>1041</ele>
        <time>2013-09-14T15:32:18.001Z</time>
      </trkpt>
      <trkpt lat="44.81155" lon="5.57266">
        <ele>1041</ele>
        <time>2013-09-14T15:32:18.001Z</time>
      </trkpt>
      <trkpt lat="44.81155" lon="5.57266">
        <ele>1041</ele>
        <time>2013-09-14T15:32:19.001Z</time>
      </trkpt>
      <trkpt lat="44.81155" lon="5.57273">
        <ele>1041</ele>
        <time>2013-09-14T15:32:30.001Z</time>
      </trkpt>
      <trkpt lat="44.81155" lon="5.57273">
        <ele>1041</ele>
        <time>2013-09-14T15:32:30.001Z</time>
      </trkpt>
      <trkpt lat="44.81155" lon="5.57273">
        <ele>1041</ele>
        <time>2013-09-14T15:32:48.001Z</time>
      </trkpt>
      <trkpt lat="44.81159" lon="5.57275">
        <ele>1041</ele>
        <time>2013-09-14T15:32:52.001Z</time>
      </trkpt>
      <trkpt lat="44.81164" lon="5.57277">
        <ele>1041</ele>
        <time>2013-09-14T15:32:55.001Z</time>
      </trkpt>
      <trkpt lat="44.8117" lon="5.57279">
        <ele>1041</ele>
        <time>2013-09-14T15:32:57.001Z</time>
      </trkpt>
      <trkpt lat="44.81176" lon="5.57281">
        <ele>1041</ele>
        <time>2013-09-14T15:32:59.001Z</time>
      </trkpt>
      <trkpt lat="44.81184" lon="5.57284">
        <ele>1041</ele>
        <time>2013-09-14T15:33:01.001Z</time>
      </trkpt>
      <trkpt lat="44.81189" lon="5.57286">
        <ele>1041</ele>
        <time>2013-09-14T15:33:03.001Z</time>
      </trkpt>
      <trkpt lat="44.81196" lon="5.57286">
        <ele>1041</ele>
        <time>2013-09-14T15:33:05.001Z</time>
      </trkpt>
      <trkpt lat="44.81201" lon="5.57288">
        <ele>1040</ele>
        <time>2013-09-14T15:33:07.001Z</time>
      </trkpt>
      <trkpt lat="44.81206" lon="5.57288">
        <ele>1040</ele>
        <time>2013-09-14T15:33:09.001Z</time>
      </trkpt>
      <trkpt lat="44.81213" lon="5.57286">
        <ele>1040</ele>
        <time>2013-09-14T15:33:11.001Z</time>
      </trkpt>
      <trkpt lat="44.81218" lon="5.57286">
        <ele>1040</ele>
        <time>2013-09-14T15:33:13.001Z</time>
      </trkpt>
      <trkpt lat="44.81222" lon="5.57284">
        <ele>1040</ele>
        <time>2013-09-14T15:33:15.001Z</time>
      </trkpt>
      <trkpt lat="44.81228" lon="5.57284">
        <ele>1040</ele>
        <time>2013-09-14T15:33:17.001Z</time>
      </trkpt>
      <trkpt lat="44.81232" lon="5.57281">
        <ele>1040</ele>
        <time>2013-09-14T15:33:19.001Z</time>
      </trkpt>
      <trkpt lat="44.81237" lon="5.57279">
        <ele>1040</ele>
        <time>2013-09-14T15:33:21.001Z</time>
      </trkpt>
      <trkpt lat="44.81244" lon="5.57279">
        <ele>1040</ele>
        <time>2013-09-14T15:33:24.001Z</time>
      </trkpt>
      <trkpt lat="44.8125" lon="5.57279">
        <ele>1040</ele>
        <time>2013-09-14T15:33:27.001Z</time>
      </trkpt>
      <trkpt lat="44.81256" lon="5.57279">
        <ele>1040</ele>
        <time>2013-09-14T15:33:29.001Z</time>
      </trkpt>
      <trkpt lat="44.81262" lon="5.57279">
        <ele>1040</ele>
        <time>2013-09-14T15:33:32.001Z</time>
      </trkpt>
      <trkpt lat="44.8127" lon="5.57279">
        <ele>1040</ele>
        <time>2013-09-14T15:33:35.001Z</time>
      </trkpt>
      <trkpt lat="44.81276" lon="5.57279">
        <ele>1040</ele>
        <time>2013-09-14T15:33:38.001Z</time>
      </trkpt>
      <trkpt lat="44.81284" lon="5.57279">
        <ele>1040</ele>
        <time>2013-09-14T15:33:41.001Z</time>
      </trkpt>
      <trkpt lat="44.8129" lon="5.57279">
        <ele>1041</ele>
        <time>2013-09-14T15:33:44.001Z</time>
      </trkpt>
      <trkpt lat="44.81296" lon="5.57279">
        <ele>1041</ele>
        <time>2013-09-14T15:33:47.001Z</time>
      </trkpt>
      <trkpt lat="44.81302" lon="5.57279">
        <ele>1041</ele>
        <time>2013-09-14T15:33:49.001Z</time>
      </trkpt>
      <trkpt lat="44.81308" lon="5.57279">
        <ele>1041</ele>
        <time>2013-09-14T15:33:52.001Z</time>
      </trkpt>
      <trkpt lat="44.81314" lon="5.57279">
        <ele>1041</ele>
        <time>2013-09-14T15:33:54.001Z</time>
      </trkpt>
      <trkpt lat="44.81319" lon="5.57279">
        <ele>1041</ele>
        <time>2013-09-14T15:33:56.001Z</time>
      </trkpt>
      <trkpt lat="44.81323" lon="5.57277">
        <ele>1041</ele>
        <time>2013-09-14T15:33:58.001Z</time>
      </trkpt>
      <trkpt lat="44.8133" lon="5.57277">
        <ele>1041</ele>
        <time>2013-09-14T15:34:01.001Z</time>
      </trkpt>
      <trkpt lat="44.81335" lon="5.57277">
        <ele>1041</ele>
        <time>2013-09-14T15:34:03.001Z</time>
      </trkpt>
      <trkpt lat="44.81341" lon="5.57277">
        <ele>1041</ele>
        <time>2013-09-14T15:34:05.001Z</time>
      </trkpt>
      <trkpt lat="44.81347" lon="5.57277">
        <ele>1041</ele>
        <time>2013-09-14T15:34:07.001Z</time>
      </trkpt>
      <trkpt lat="44.81353" lon="5.57275">
        <ele>1041</ele>
        <time>2013-09-14T15:34:09.001Z</time>
      </trkpt>
      <trkpt lat="44.8136" lon="5.57275">
        <ele>1041</ele>
        <time>2013-09-14T15:34:11.001Z</time>
      </trkpt>
      <trkpt lat="44.81366" lon="5.57273">
        <ele>1041</ele>
        <time>2013-09-14T15:34:13.001Z</time>
      </trkpt>
      <trkpt lat="44.81372" lon="5.57271">
        <ele>1041</ele>
        <time>2013-09-14T15:34:15.001Z</time>
      </trkpt>
      <trkpt lat="44.81376" lon="5.57269">
        <ele>1041</ele>
        <time>2013-09-14T15:34:26.001Z</time>
      </trkpt>
      <trkpt lat="44.81376" lon="5.57269">
        <ele>1041</ele>
        <time>2013-09-14T15:34:26.001Z</time>
      </trkpt>
      <trkpt lat="44.81376" lon="5.57269">
        <ele>1041</ele>
        <time>2013-09-14T15:34:30.001Z</time>
      </trkpt>
      <trkpt lat="44.81375" lon="5.57262">
        <ele>1042</ele>
        <time>2013-09-14T15:34:44.001Z</time>
      </trkpt>
      <trkpt lat="44.81375" lon="5.57262">
        <ele>1042</ele>
        <time>2013-09-14T15:34:44.001Z</time>
      </trkpt>
      <trkpt lat="44.81375" lon="5.57262">
        <ele>1042</ele>
        <time>2013-09-14T15:34:47.001Z</time>
      </trkpt>
      <trkpt lat="44.8137" lon="5.57264">
        <ele>1042</ele>
        <time>2013-09-14T15:35:46.001Z</time>
      </trkpt>
      <trkpt lat="44.8137" lon="5.57264">
        <ele>1042</ele>
        <time>2013-09-14T15:35:46.001Z</time>
      </trkpt>
      <trkpt lat="44.8137" lon="5.57264">
        <ele>1042</ele>
        <time>2013-09-14T15:35:52.001Z</time>
      </trkpt>
      <trkpt lat="44.81369" lon="5.57271">
        <ele>1042</ele>
        <time>2013-09-14T15:36:08.001Z</time>
      </trkpt>
      <trkpt lat="44.81374" lon="5.57269">
        <ele>1043</ele>
        <time>2013-09-14T15:36:32.001Z</time>
      </trkpt>
      <trkpt lat="44.8138" lon="5.57269">
        <ele>1043</ele>
        <time>2013-09-14T15:36:35.001Z</time>
      </trkpt>
      <trkpt lat="44.81385" lon="5.57269">
        <ele>1043</ele>
        <time>2013-09-14T15:36:37.001Z</time>
      </trkpt>
      <trkpt lat="44.81392" lon="5.57266">
        <ele>1043</ele>
        <time>2013-09-14T15:36:39.001Z</time>
      </trkpt>
      <trkpt lat="44.81399" lon="5.57266">
        <ele>1043</ele>
        <time>2013-09-14T15:36:41.001Z</time>
      </trkpt>
      <trkpt lat="44.81407" lon="5.57266">
        <ele>1043</ele>
        <time>2013-09-14T15:36:43.001Z</time>
      </trkpt>
      <trkpt lat="44.81416" lon="5.57266">
        <ele>1044</ele>
        <time>2013-09-14T15:36:45.001Z</time>
      </trkpt>
      <trkpt lat="44.81421" lon="5.57264">
        <ele>1044</ele>
        <time>2013-09-14T15:36:46.001Z</time>
      </trkpt>
      <trkpt lat="44.81429" lon="5.57262">
        <ele>1044</ele>
        <time>2013-09-14T15:36:48.001Z</time>
      </trkpt>
      <trkpt lat="44.81435" lon="5.57262">
        <ele>1044</ele>
        <time>2013-09-14T15:36:49.001Z</time>
      </trkpt>
      <trkpt lat="44.81439" lon="5.5726">
        <ele>1045</ele>
        <time>2013-09-14T15:36:50.001Z</time>
      </trkpt>
      <trkpt lat="44.81443" lon="5.57258">
        <ele>1045</ele>
        <time>2013-09-14T15:36:51.001Z</time>
      </trkpt>
      <trkpt lat="44.81452" lon="5.57256">
        <ele>1045</ele>
        <time>2013-09-14T15:36:53.001Z</time>
      </trkpt>
      <trkpt lat="44.81456" lon="5.57254">
        <ele>1045</ele>
        <time>2013-09-14T15:36:54.001Z</time>
      </trkpt>
      <trkpt lat="44.81464" lon="5.57251">
        <ele>1045</ele>
        <time>2013-09-14T15:36:56.001Z</time>
      </trkpt>
      <trkpt lat="44.81472" lon="5.57249">
        <ele>1045</ele>
        <time>2013-09-14T15:36:58.001Z</time>
      </trkpt>
      <trkpt lat="44.81477" lon="5.57247">
        <ele>1046</ele>
        <time>2013-09-14T15:36:59.001Z</time>
      </trkpt>
      <trkpt lat="44.81484" lon="5.57247">
        <ele>1046</ele>
        <time>2013-09-14T15:37:01.001Z</time>
      </trkpt>
      <trkpt lat="44.81492" lon="5.57245">
        <ele>1046</ele>
        <time>2013-09-14T15:37:03.001Z</time>
      </trkpt>
      <trkpt lat="44.81499" lon="5.57243">
        <ele>1046</ele>
        <time>2013-09-14T15:37:05.001Z</time>
      </trkpt>
      <trkpt lat="44.81507" lon="5.57243">
        <ele>1046</ele>
        <time>2013-09-14T15:37:07.001Z</time>
      </trkpt>
      <trkpt lat="44.81514" lon="5.57241">
        <ele>1047</ele>
        <time>2013-09-14T15:37:09.001Z</time>
      </trkpt>
      <trkpt lat="44.81522" lon="5.57236">
        <ele>1047</ele>
        <time>2013-09-14T15:37:11.001Z</time>
      </trkpt>
      <trkpt lat="44.81529" lon="5.57232">
        <ele>1047</ele>
        <time>2013-09-14T15:37:13.001Z</time>
      </trkpt>
      <trkpt lat="44.81537" lon="5.57228">
        <ele>1048</ele>
        <time>2013-09-14T15:37:15.001Z</time>
      </trkpt>
      <trkpt lat="44.81544" lon="5.57224">
        <ele>1048</ele>
        <time>2013-09-14T15:37:17.001Z</time>
      </trkpt>
      <trkpt lat="44.81551" lon="5.57219">
        <ele>1048</ele>
        <time>2013-09-14T15:37:19.001Z</time>
      </trkpt>
      <trkpt lat="44.81555" lon="5.57217">
        <ele>1048</ele>
        <time>2013-09-14T15:37:20.001Z</time>
      </trkpt>
      <trkpt lat="44.81561" lon="5.57215">
        <ele>1048</ele>
        <time>2013-09-14T15:37:22.001Z</time>
      </trkpt>
      <trkpt lat="44.81568" lon="5.57211">
        <ele>1048</ele>
        <time>2013-09-14T15:37:24.001Z</time>
      </trkpt>
      <trkpt lat="44.81574" lon="5.57206">
        <ele>1048</ele>
        <time>2013-09-14T15:37:26.001Z</time>
      </trkpt>
      <trkpt lat="44.8158" lon="5.57202">
        <ele>1048</ele>
        <time>2013-09-14T15:37:28.001Z</time>
      </trkpt>
      <trkpt lat="44.81586" lon="5.57198">
        <ele>1048</ele>
        <time>2013-09-14T15:37:30.001Z</time>
      </trkpt>
      <trkpt lat="44.81592" lon="5.57194">
        <ele>1048</ele>
        <time>2013-09-14T15:37:32.001Z</time>
      </trkpt>
      <trkpt lat="44.81598" lon="5.57191">
        <ele>1048</ele>
        <time>2013-09-14T15:37:34.001Z</time>
      </trkpt>
      <trkpt lat="44.81603" lon="5.57187">
        <ele>1048</ele>
        <time>2013-09-14T15:37:36.001Z</time>
      </trkpt>
      <trkpt lat="44.8161" lon="5.57183">
        <ele>1048</ele>
        <time>2013-09-14T15:37:38.001Z</time>
      </trkpt>
      <trkpt lat="44.81615" lon="5.57178">
        <ele>1048</ele>
        <time>2013-09-14T15:37:40.001Z</time>
      </trkpt>
      <trkpt lat="44.8162" lon="5.57174">
        <ele>1047</ele>
        <time>2013-09-14T15:37:42.001Z</time>
      </trkpt>
      <trkpt lat="44.81625" lon="5.57172">
        <ele>1047</ele>
        <time>2013-09-14T15:37:44.001Z</time>
      </trkpt>
      <trkpt lat="44.8163" lon="5.5717">
        <ele>1047</ele>
        <time>2013-09-14T15:37:46.001Z</time>
      </trkpt>
      <trkpt lat="44.81635" lon="5.57166">
        <ele>1047</ele>
        <time>2013-09-14T15:37:48.001Z</time>
      </trkpt>
      <trkpt lat="44.8164" lon="5.57163">
        <ele>1047</ele>
        <time>2013-09-14T15:37:50.001Z</time>
      </trkpt>
      <trkpt lat="44.81644" lon="5.57157">
        <ele>1048</ele>
        <time>2013-09-14T15:37:52.001Z</time>
      </trkpt>
      <trkpt lat="44.81648" lon="5.57153">
        <ele>1048</ele>
        <time>2013-09-14T15:37:54.001Z</time>
      </trkpt>
      <trkpt lat="44.81654" lon="5.57146">
        <ele>1048</ele>
        <time>2013-09-14T15:37:57.001Z</time>
      </trkpt>
      <trkpt lat="44.81658" lon="5.5714">
        <ele>1048</ele>
        <time>2013-09-14T15:37:59.001Z</time>
      </trkpt>
      <trkpt lat="44.81662" lon="5.57133">
        <ele>1048</ele>
        <time>2013-09-14T15:38:01.001Z</time>
      </trkpt>
      <trkpt lat="44.81666" lon="5.57127">
        <ele>1048</ele>
        <time>2013-09-14T15:38:03.001Z</time>
      </trkpt>
      <trkpt lat="44.81672" lon="5.5712">
        <ele>1048</ele>
        <time>2013-09-14T15:38:05.001Z</time>
      </trkpt>
      <trkpt lat="44.81676" lon="5.57114">
        <ele>1048</ele>
        <time>2013-09-14T15:38:07.001Z</time>
      </trkpt>
      <trkpt lat="44.8168" lon="5.57108">
        <ele>1048</ele>
        <time>2013-09-14T15:38:09.001Z</time>
      </trkpt>
      <trkpt lat="44.81685" lon="5.57101">
        <ele>1048</ele>
        <time>2013-09-14T15:38:11.001Z</time>
      </trkpt>
      <trkpt lat="44.81689" lon="5.57095">
        <ele>1048</ele>
        <time>2013-09-14T15:38:13.001Z</time>
      </trkpt>
      <trkpt lat="44.81693" lon="5.57088">
        <ele>1049</ele>
        <time>2013-09-14T15:38:15.001Z</time>
      </trkpt>
      <trkpt lat="44.81697" lon="5.57082">
        <ele>1049</ele>
        <time>2013-09-14T15:38:17.001Z</time>
      </trkpt>
      <trkpt lat="44.81697" lon="5.57082">
        <ele>1049</ele>
        <time>2013-09-14T15:38:17.001Z</time>
      </trkpt>
      <trkpt lat="44.81697" lon="5.57082">
        <ele>1049</ele>
        <time>2013-09-14T15:38:19.001Z</time>
      </trkpt>
      <trkpt lat="44.81706" lon="5.57078">
        <ele>1049</ele>
        <time>2013-09-14T15:38:46.001Z</time>
      </trkpt>
      <trkpt lat="44.81712" lon="5.57078">
        <ele>1049</ele>
        <time>2013-09-14T15:38:48.001Z</time>
      </trkpt>
      <trkpt lat="44.81718" lon="5.5708">
        <ele>1050</ele>
        <time>2013-09-14T15:38:50.001Z</time>
      </trkpt>
      <trkpt lat="44.81726" lon="5.57082">
        <ele>1050</ele>
        <time>2013-09-14T15:38:52.001Z</time>
      </trkpt>
      <trkpt lat="44.81733" lon="5.57082">
        <ele>1051</ele>
        <time>2013-09-14T15:38:54.001Z</time>
      </trkpt>
      <trkpt lat="44.81737" lon="5.57084">
        <ele>1052</ele>
        <time>2013-09-14T15:38:55.001Z</time>
      </trkpt>
      <trkpt lat="44.81746" lon="5.57086">
        <ele>1052</ele>
        <time>2013-09-14T15:38:57.001Z</time>
      </trkpt>
      <trkpt lat="44.81754" lon="5.57088">
        <ele>1053</ele>
        <time>2013-09-14T15:38:59.001Z</time>
      </trkpt>
      <trkpt lat="44.81759" lon="5.5709">
        <ele>1053</ele>
        <time>2013-09-14T15:39:00.001Z</time>
      </trkpt>
      <trkpt lat="44.81768" lon="5.57093">
        <ele>1053</ele>
        <time>2013-09-14T15:39:02.001Z</time>
      </trkpt>
      <trkpt lat="44.81773" lon="5.57095">
        <ele>1053</ele>
        <time>2013-09-14T15:39:03.001Z</time>
      </trkpt>
      <trkpt lat="44.81777" lon="5.57097">
        <ele>1054</ele>
        <time>2013-09-14T15:39:04.001Z</time>
      </trkpt>
      <trkpt lat="44.81786" lon="5.57099">
        <ele>1054</ele>
        <time>2013-09-14T15:39:06.001Z</time>
      </trkpt>
      <trkpt lat="44.8179" lon="5.57101">
        <ele>1054</ele>
        <time>2013-09-14T15:39:07.001Z</time>
      </trkpt>
      <trkpt lat="44.81794" lon="5.57103">
        <ele>1054</ele>
        <time>2013-09-14T15:39:08.001Z</time>
      </trkpt>
      <trkpt lat="44.81803" lon="5.57106">
        <ele>1055</ele>
        <time>2013-09-14T15:39:10.001Z</time>
      </trkpt>
      <trkpt lat="44.81807" lon="5.57108">
        <ele>1055</ele>
        <time>2013-09-14T15:39:11.001Z</time>
      </trkpt>
      <trkpt lat="44.81816" lon="5.5711">
        <ele>1055</ele>
        <time>2013-09-14T15:39:13.001Z</time>
      </trkpt>
      <trkpt lat="44.8182" lon="5.57112">
        <ele>1055</ele>
        <time>2013-09-14T15:39:14.001Z</time>
      </trkpt>
      <trkpt lat="44.81824" lon="5.57114">
        <ele>1055</ele>
        <time>2013-09-14T15:39:15.001Z</time>
      </trkpt>
      <trkpt lat="44.81828" lon="5.57116">
        <ele>1055</ele>
        <time>2013-09-14T15:39:16.001Z</time>
      </trkpt>
      <trkpt lat="44.81833" lon="5.5712">
        <ele>1055</ele>
        <time>2013-09-14T15:39:17.001Z</time>
      </trkpt>
      <trkpt lat="44.81839" lon="5.57125">
        <ele>1055</ele>
        <time>2013-09-14T15:39:19.001Z</time>
      </trkpt>
      <trkpt lat="44.81842" lon="5.57131">
        <ele>1055</ele>
        <time>2013-09-14T15:39:21.001Z</time>
      </trkpt>
      <trkpt lat="44.81846" lon="5.57142">
        <ele>1055</ele>
        <time>2013-09-14T15:39:25.001Z</time>
      </trkpt>
      <trkpt lat="44.81848" lon="5.57151">
        <ele>1055</ele>
        <time>2013-09-14T15:39:27.001Z</time>
      </trkpt>
      <trkpt lat="44.81849" lon="5.57159">
        <ele>1055</ele>
        <time>2013-09-14T15:39:29.001Z</time>
      </trkpt>
      <trkpt lat="44.81851" lon="5.57168">
        <ele>1055</ele>
        <time>2013-09-14T15:39:31.001Z</time>
      </trkpt>
      <trkpt lat="44.81851" lon="5.57176">
        <ele>1055</ele>
        <time>2013-09-14T15:39:33.001Z</time>
      </trkpt>
      <trkpt lat="44.81853" lon="5.57183">
        <ele>1055</ele>
        <time>2013-09-14T15:39:35.001Z</time>
      </trkpt>
      <trkpt lat="44.81856" lon="5.57191">
        <ele>1055</ele>
        <time>2013-09-14T15:39:37.001Z</time>
      </trkpt>
      <trkpt lat="44.81862" lon="5.57196">
        <ele>1055</ele>
        <time>2013-09-14T15:39:39.001Z</time>
      </trkpt>
      <trkpt lat="44.81869" lon="5.57189">
        <ele>1055</ele>
        <time>2013-09-14T15:39:43.001Z</time>
      </trkpt>
      <trkpt lat="44.81869" lon="5.57189">
        <ele>1055</ele>
        <time>2013-09-14T15:39:43.001Z</time>
      </trkpt>
      <trkpt lat="44.81869" lon="5.57189">
        <ele>1055</ele>
        <time>2013-09-14T15:39:44.001Z</time>
      </trkpt>
      <trkpt lat="44.81869" lon="5.57183">
        <ele>1055</ele>
        <time>2013-09-14T15:39:45.001Z</time>
      </trkpt>
      <trkpt lat="44.81869" lon="5.57183">
        <ele>1055</ele>
        <time>2013-09-14T15:39:45.001Z</time>
      </trkpt>
      <trkpt lat="44.81869" lon="5.57183">
        <ele>1055</ele>
        <time>2013-09-14T15:39:50.001Z</time>
      </trkpt>
      <trkpt lat="44.81869" lon="5.57172">
        <ele>1055</ele>
        <time>2013-09-14T15:39:51.001Z</time>
      </trkpt>
      <trkpt lat="44.81869" lon="5.57172">
        <ele>1055</ele>
        <time>2013-09-14T15:39:51.001Z</time>
      </trkpt>
      <trkpt lat="44.81869" lon="5.57172">
        <ele>1055</ele>
        <time>2013-09-14T15:39:55.001Z</time>
      </trkpt>
      <trkpt lat="44.81872" lon="5.57166">
        <ele>1056</ele>
        <time>2013-09-14T15:39:56.001Z</time>
      </trkpt>
      <trkpt lat="44.81872" lon="5.57166">
        <ele>1056</ele>
        <time>2013-09-14T15:39:56.001Z</time>
      </trkpt>
      <trkpt lat="44.81872" lon="5.57166">
        <ele>1056</ele>
        <time>2013-09-14T15:40:01.001Z</time>
      </trkpt>
      <trkpt lat="44.81879" lon="5.57159">
        <ele>1056</ele>
        <time>2013-09-14T15:40:02.001Z</time>
      </trkpt>
      <trkpt lat="44.81879" lon="5.57159">
        <ele>1056</ele>
        <time>2013-09-14T15:40:02.001Z</time>
      </trkpt>
      <trkpt lat="44.81879" lon="5.57159">
        <ele>1056</ele>
        <time>2013-09-14T15:40:05.001Z</time>
      </trkpt>
      <trkpt lat="44.81882" lon="5.57153">
        <ele>1056</ele>
        <time>2013-09-14T15:40:06.001Z</time>
      </trkpt>
      <trkpt lat="44.81882" lon="5.57153">
        <ele>1056</ele>
        <time>2013-09-14T15:40:06.001Z</time>
      </trkpt>
      <trkpt lat="44.81882" lon="5.57153">
        <ele>1056</ele>
        <time>2013-09-14T15:40:12.001Z</time>
      </trkpt>
      <trkpt lat="44.81885" lon="5.5714">
        <ele>1057</ele>
        <time>2013-09-14T15:40:13.001Z</time>
      </trkpt>
      <trkpt lat="44.81885" lon="5.5714">
        <ele>1057</ele>
        <time>2013-09-14T15:40:13.001Z</time>
      </trkpt>
      <trkpt lat="44.81885" lon="5.5714">
        <ele>1057</ele>
        <time>2013-09-14T15:40:20.001Z</time>
      </trkpt>
      <trkpt lat="44.8189" lon="5.57129">
        <ele>1057</ele>
        <time>2013-09-14T15:40:21.001Z</time>
      </trkpt>
      <trkpt lat="44.8189" lon="5.57129">
        <ele>1057</ele>
        <time>2013-09-14T15:40:21.001Z</time>
      </trkpt>
      <trkpt lat="44.8189" lon="5.57129">
        <ele>1057</ele>
        <time>2013-09-14T15:40:27.001Z</time>
      </trkpt>
      <trkpt lat="44.81891" lon="5.57116">
        <ele>1058</ele>
        <time>2013-09-14T15:40:28.001Z</time>
      </trkpt>
      <trkpt lat="44.81891" lon="5.57116">
        <ele>1058</ele>
        <time>2013-09-14T15:40:28.001Z</time>
      </trkpt>
      <trkpt lat="44.81891" lon="5.57116">
        <ele>1058</ele>
        <time>2013-09-14T15:40:34.001Z</time>
      </trkpt>
      <trkpt lat="44.81894" lon="5.57103">
        <ele>1058</ele>
        <time>2013-09-14T15:40:35.001Z</time>
      </trkpt>
      <trkpt lat="44.81894" lon="5.57103">
        <ele>1058</ele>
        <time>2013-09-14T15:40:35.001Z</time>
      </trkpt>
      <trkpt lat="44.81894" lon="5.57103">
        <ele>1058</ele>
        <time>2013-09-14T15:40:40.001Z</time>
      </trkpt>
      <trkpt lat="44.81898" lon="5.5709">
        <ele>1059</ele>
        <time>2013-09-14T15:40:41.001Z</time>
      </trkpt>
      <trkpt lat="44.81898" lon="5.5709">
        <ele>1059</ele>
        <time>2013-09-14T15:40:41.001Z</time>
      </trkpt>
      <trkpt lat="44.81898" lon="5.5709">
        <ele>1059</ele>
        <time>2013-09-14T15:40:47.001Z</time>
      </trkpt>
      <trkpt lat="44.81902" lon="5.57078">
        <ele>1059</ele>
        <time>2013-09-14T15:40:48.001Z</time>
      </trkpt>
      <trkpt lat="44.81902" lon="5.57078">
        <ele>1059</ele>
        <time>2013-09-14T15:40:48.001Z</time>
      </trkpt>
      <trkpt lat="44.81902" lon="5.57078">
        <ele>1059</ele>
        <time>2013-09-14T15:40:57.001Z</time>
      </trkpt>
      <trkpt lat="44.81906" lon="5.57067">
        <ele>1060</ele>
        <time>2013-09-14T15:40:58.001Z</time>
      </trkpt>
      <trkpt lat="44.81906" lon="5.57067">
        <ele>1060</ele>
        <time>2013-09-14T15:40:58.001Z</time>
      </trkpt>
      <trkpt lat="44.81906" lon="5.57067">
        <ele>1060</ele>
        <time>2013-09-14T15:41:04.001Z</time>
      </trkpt>
      <trkpt lat="44.81912" lon="5.57056">
        <ele>1061</ele>
        <time>2013-09-14T15:41:05.001Z</time>
      </trkpt>
      <trkpt lat="44.81912" lon="5.57056">
        <ele>1061</ele>
        <time>2013-09-14T15:41:05.001Z</time>
      </trkpt>
      <trkpt lat="44.81912" lon="5.57056">
        <ele>1061</ele>
        <time>2013-09-14T15:41:10.001Z</time>
      </trkpt>
      <trkpt lat="44.8192" lon="5.5705">
        <ele>1062</ele>
        <time>2013-09-14T15:41:11.001Z</time>
      </trkpt>
      <trkpt lat="44.8192" lon="5.5705">
        <ele>1062</ele>
        <time>2013-09-14T15:41:11.001Z</time>
      </trkpt>
      <trkpt lat="44.8192" lon="5.5705">
        <ele>1062</ele>
        <time>2013-09-14T15:41:16.001Z</time>
      </trkpt>
      <trkpt lat="44.81929" lon="5.57043">
        <ele>1063</ele>
        <time>2013-09-14T15:41:17.001Z</time>
      </trkpt>
      <trkpt lat="44.81929" lon="5.57043">
        <ele>1063</ele>
        <time>2013-09-14T15:41:17.001Z</time>
      </trkpt>
      <trkpt lat="44.81929" lon="5.57043">
        <ele>1063</ele>
        <time>2013-09-14T15:41:19.001Z</time>
      </trkpt>
      <trkpt lat="44.81942" lon="5.57035">
        <ele>1064</ele>
        <time>2013-09-14T15:41:27.001Z</time>
      </trkpt>
      <trkpt lat="44.81942" lon="5.57035">
        <ele>1064</ele>
        <time>2013-09-14T15:41:27.001Z</time>
      </trkpt>
      <trkpt lat="44.81942" lon="5.57035">
        <ele>1064</ele>
        <time>2013-09-14T15:41:32.001Z</time>
      </trkpt>
      <trkpt lat="44.8195" lon="5.57032">
        <ele>1064</ele>
        <time>2013-09-14T15:41:33.001Z</time>
      </trkpt>
      <trkpt lat="44.8195" lon="5.57032">
        <ele>1064</ele>
        <time>2013-09-14T15:41:33.001Z</time>
      </trkpt>
      <trkpt lat="44.8195" lon="5.57032">
        <ele>1064</ele>
        <time>2013-09-14T15:42:17.001Z</time>
      </trkpt>
      <trkpt lat="44.81953" lon="5.57026">
        <ele>1066</ele>
        <time>2013-09-14T15:42:23.001Z</time>
      </trkpt>
      <trkpt lat="44.81953" lon="5.57026">
        <ele>1066</ele>
        <time>2013-09-14T15:42:23.001Z</time>
      </trkpt>
      <trkpt lat="44.81953" lon="5.57026">
        <ele>1066</ele>
        <time>2013-09-14T15:42:24.001Z</time>
      </trkpt>
      <trkpt lat="44.81958" lon="5.57026">
        <ele>1066</ele>
        <time>2013-09-14T15:42:30.001Z</time>
      </trkpt>
      <trkpt lat="44.81963" lon="5.57022">
        <ele>1069</ele>
        <time>2013-09-14T15:42:31.001Z</time>
      </trkpt>
      <trkpt lat="44.81965" lon="5.57015">
        <ele>1071</ele>
        <time>2013-09-14T15:42:32.001Z</time>
      </trkpt>
      <trkpt lat="44.81971" lon="5.57009">
        <ele>1073</ele>
        <time>2013-09-14T15:42:34.001Z</time>
      </trkpt>
      <trkpt lat="44.81974" lon="5.56996">
        <ele>1074</ele>
        <time>2013-09-14T15:42:40.001Z</time>
      </trkpt>
      <trkpt lat="44.81976" lon="5.56988">
        <ele>1074</ele>
        <time>2013-09-14T15:42:42.001Z</time>
      </trkpt>
      <trkpt lat="44.81979" lon="5.56979">
        <ele>1074</ele>
        <time>2013-09-14T15:42:44.001Z</time>
      </trkpt>
      <trkpt lat="44.81983" lon="5.56972">
        <ele>1074</ele>
        <time>2013-09-14T15:42:46.001Z</time>
      </trkpt>
      <trkpt lat="44.81986" lon="5.56966">
        <ele>1076</ele>
        <time>2013-09-14T15:42:47.001Z</time>
      </trkpt>
      <trkpt lat="44.81992" lon="5.56953">
        <ele>1078</ele>
        <time>2013-09-14T15:42:49.001Z</time>
      </trkpt>
      <trkpt lat="44.81992" lon="5.56947">
        <ele>1079</ele>
        <time>2013-09-14T15:42:50.001Z</time>
      </trkpt>
      <trkpt lat="44.81992" lon="5.5694">
        <ele>1079</ele>
        <time>2013-09-14T15:42:51.001Z</time>
      </trkpt>
      <trkpt lat="44.81992" lon="5.56932">
        <ele>1079</ele>
        <time>2013-09-14T15:42:52.001Z</time>
      </trkpt>
      <trkpt lat="44.81993" lon="5.56921">
        <ele>1080</ele>
        <time>2013-09-14T15:42:53.001Z</time>
      </trkpt>
      <trkpt lat="44.81994" lon="5.56912">
        <ele>1080</ele>
        <time>2013-09-14T15:42:54.001Z</time>
      </trkpt>
      <trkpt lat="44.81994" lon="5.56912">
        <ele>1080</ele>
        <time>2013-09-14T15:42:54.001Z</time>
      </trkpt>
      <trkpt lat="44.81994" lon="5.56912">
        <ele>1080</ele>
        <time>2013-09-14T15:42:56.001Z</time>
      </trkpt>
      <trkpt lat="44.81994" lon="5.56895">
        <ele>1080</ele>
        <time>2013-09-14T15:42:57.001Z</time>
      </trkpt>
      <trkpt lat="44.81994" lon="5.56895">
        <ele>1080</ele>
        <time>2013-09-14T15:42:57.001Z</time>
      </trkpt>
      <trkpt lat="44.81994" lon="5.56895">
        <ele>1080</ele>
        <time>2013-09-14T15:43:00.001Z</time>
      </trkpt>
      <trkpt lat="44.81999" lon="5.56882">
        <ele>1081</ele>
        <time>2013-09-14T15:43:01.001Z</time>
      </trkpt>
      <trkpt lat="44.81999" lon="5.56882">
        <ele>1081</ele>
        <time>2013-09-14T15:43:01.001Z</time>
      </trkpt>
      <trkpt lat="44.81999" lon="5.56882">
        <ele>1081</ele>
        <time>2013-09-14T15:43:09.001Z</time>
      </trkpt>
      <trkpt lat="44.82009" lon="5.56882">
        <ele>1082</ele>
        <time>2013-09-14T15:43:10.001Z</time>
      </trkpt>
      <trkpt lat="44.82014" lon="5.56889">
        <ele>1082</ele>
        <time>2013-09-14T15:43:13.001Z</time>
      </trkpt>
      <trkpt lat="44.8202" lon="5.56893">
        <ele>1082</ele>
        <time>2013-09-14T15:43:16.001Z</time>
      </trkpt>
      <trkpt lat="44.82024" lon="5.569">
        <ele>1082</ele>
        <time>2013-09-14T15:43:19.001Z</time>
      </trkpt>
      <trkpt lat="44.82028" lon="5.56902">
        <ele>1082</ele>
        <time>2013-09-14T15:43:21.001Z</time>
      </trkpt>
      <trkpt lat="44.82031" lon="5.56906">
        <ele>1082</ele>
        <time>2013-09-14T15:43:23.001Z</time>
      </trkpt>
      <trkpt lat="44.82038" lon="5.56912">
        <ele>1081</ele>
        <time>2013-09-14T15:43:27.001Z</time>
      </trkpt>
      <trkpt lat="44.82045" lon="5.56914">
        <ele>1079</ele>
        <time>2013-09-14T15:43:29.001Z</time>
      </trkpt>
      <trkpt lat="44.8205" lon="5.56917">
        <ele>1077</ele>
        <time>2013-09-14T15:43:30.001Z</time>
      </trkpt>
      <trkpt lat="44.82054" lon="5.56919">
        <ele>1074</ele>
        <time>2013-09-14T15:43:31.001Z</time>
      </trkpt>
      <trkpt lat="44.8206" lon="5.56917">
        <ele>1070</ele>
        <time>2013-09-14T15:43:32.001Z</time>
      </trkpt>
      <trkpt lat="44.82067" lon="5.56917">
        <ele>1065</ele>
        <time>2013-09-14T15:43:33.001Z</time>
      </trkpt>
      <trkpt lat="44.82073" lon="5.56914">
        <ele>1061</ele>
        <time>2013-09-14T15:43:34.001Z</time>
      </trkpt>
      <trkpt lat="44.82078" lon="5.56912">
        <ele>1057</ele>
        <time>2013-09-14T15:43:35.001Z</time>
      </trkpt>
      <trkpt lat="44.82084" lon="5.5691">
        <ele>1055</ele>
        <time>2013-09-14T15:43:36.001Z</time>
      </trkpt>
      <trkpt lat="44.82091" lon="5.56912">
        <ele>1054</ele>
        <time>2013-09-14T15:43:38.001Z</time>
      </trkpt>
      <trkpt lat="44.82091" lon="5.56912">
        <ele>1054</ele>
        <time>2013-09-14T15:43:38.001Z</time>
      </trkpt>
      <trkpt lat="44.82091" lon="5.56912">
        <ele>1054</ele>
        <time>2013-09-14T15:43:55.001Z</time>
      </trkpt>
      <trkpt lat="44.821" lon="5.56917">
        <ele>1048</ele>
        <time>2013-09-14T15:43:56.001Z</time>
      </trkpt>
      <trkpt lat="44.821" lon="5.56917">
        <ele>1048</ele>
        <time>2013-09-14T15:43:56.001Z</time>
      </trkpt>
      <trkpt lat="44.821" lon="5.56917">
        <ele>1048</ele>
        <time>2013-09-14T15:44:00.001Z</time>
      </trkpt>
      <trkpt lat="44.82104" lon="5.56921">
        <ele>1046</ele>
        <time>2013-09-14T15:44:01.001Z</time>
      </trkpt>
      <trkpt lat="44.82108" lon="5.56925">
        <ele>1043</ele>
        <time>2013-09-14T15:44:06.001Z</time>
      </trkpt>
      <trkpt lat="44.82112" lon="5.5693">
        <ele>1042</ele>
        <time>2013-09-14T15:44:09.001Z</time>
      </trkpt>
      <trkpt lat="44.82116" lon="5.56934">
        <ele>1041</ele>
        <time>2013-09-14T15:44:13.001Z</time>
      </trkpt>
      <trkpt lat="44.8212" lon="5.56938">
        <ele>1040</ele>
        <time>2013-09-14T15:44:17.001Z</time>
      </trkpt>
      <trkpt lat="44.82124" lon="5.56942">
        <ele>1039</ele>
        <time>2013-09-14T15:44:20.001Z</time>
      </trkpt>
      <trkpt lat="44.82133" lon="5.56949">
        <ele>1036</ele>
        <time>2013-09-14T15:44:31.001Z</time>
      </trkpt>
      <trkpt lat="44.82133" lon="5.56949">
        <ele>1036</ele>
        <time>2013-09-14T15:44:31.001Z</time>
      </trkpt>
      <trkpt lat="44.82133" lon="5.56949">
        <ele>1036</ele>
        <time>2013-09-14T15:45:15.001Z</time>
      </trkpt>
      <trkpt lat="44.82138" lon="5.56964">
        <ele>1031</ele>
        <time>2013-09-14T15:45:16.001Z</time>
      </trkpt>
      <trkpt lat="44.82138" lon="5.56964">
        <ele>1031</ele>
        <time>2013-09-14T15:45:16.001Z</time>
      </trkpt>
      <trkpt lat="44.82138" lon="5.56964">
        <ele>1031</ele>
        <time>2013-09-14T15:45:19.001Z</time>
      </trkpt>
      <trkpt lat="44.82145" lon="5.56972">
        <ele>1029</ele>
        <time>2013-09-14T15:45:20.001Z</time>
      </trkpt>
      <trkpt lat="44.82152" lon="5.56979">
        <ele>1028</ele>
        <time>2013-09-14T15:45:22.001Z</time>
      </trkpt>
      <trkpt lat="44.82157" lon="5.56983">
        <ele>1028</ele>
        <time>2013-09-14T15:45:24.001Z</time>
      </trkpt>
      <trkpt lat="44.82161" lon="5.5699">
        <ele>1027</ele>
        <time>2013-09-14T15:45:26.001Z</time>
      </trkpt>
      <trkpt lat="44.82165" lon="5.56996">
        <ele>1026</ele>
        <time>2013-09-14T15:45:28.001Z</time>
      </trkpt>
      <trkpt lat="44.82171" lon="5.57005">
        <ele>1025</ele>
        <time>2013-09-14T15:45:30.001Z</time>
      </trkpt>
      <trkpt lat="44.82176" lon="5.57011">
        <ele>1025</ele>
        <time>2013-09-14T15:45:32.001Z</time>
      </trkpt>
      <trkpt lat="44.8218" lon="5.57018">
        <ele>1024</ele>
        <time>2013-09-14T15:45:34.001Z</time>
      </trkpt>
      <trkpt lat="44.82187" lon="5.57022">
        <ele>1023</ele>
        <time>2013-09-14T15:45:36.001Z</time>
      </trkpt>
      <trkpt lat="44.82192" lon="5.57028">
        <ele>1023</ele>
        <time>2013-09-14T15:45:38.001Z</time>
      </trkpt>
      <trkpt lat="44.82195" lon="5.57032">
        <ele>1022</ele>
        <time>2013-09-14T15:45:39.001Z</time>
      </trkpt>
      <trkpt lat="44.82201" lon="5.57039">
        <ele>1022</ele>
        <time>2013-09-14T15:45:41.001Z</time>
      </trkpt>
      <trkpt lat="44.82206" lon="5.57045">
        <ele>1021</ele>
        <time>2013-09-14T15:45:43.001Z</time>
      </trkpt>
      <trkpt lat="44.8221" lon="5.57052">
        <ele>1021</ele>
        <time>2013-09-14T15:45:45.001Z</time>
      </trkpt>
      <trkpt lat="44.82216" lon="5.57058">
        <ele>1020</ele>
        <time>2013-09-14T15:45:47.001Z</time>
      </trkpt>
      <trkpt lat="44.8222" lon="5.57063">
        <ele>1020</ele>
        <time>2013-09-14T15:45:49.001Z</time>
      </trkpt>
      <trkpt lat="44.82223" lon="5.57067">
        <ele>1020</ele>
        <time>2013-09-14T15:45:50.001Z</time>
      </trkpt>
      <trkpt lat="44.82229" lon="5.57071">
        <ele>1019</ele>
        <time>2013-09-14T15:45:52.001Z</time>
      </trkpt>
      <trkpt lat="44.82235" lon="5.57078">
        <ele>1019</ele>
        <time>2013-09-14T15:45:54.001Z</time>
      </trkpt>
      <trkpt lat="44.82242" lon="5.57084">
        <ele>1018</ele>
        <time>2013-09-14T15:45:56.001Z</time>
      </trkpt>
      <trkpt lat="44.82249" lon="5.5709">
        <ele>1018</ele>
        <time>2013-09-14T15:45:58.001Z</time>
      </trkpt>
      <trkpt lat="44.82253" lon="5.57095">
        <ele>1018</ele>
        <time>2013-09-14T15:45:59.001Z</time>
      </trkpt>
      <trkpt lat="44.82258" lon="5.57097">
        <ele>1018</ele>
        <time>2013-09-14T15:46:00.001Z</time>
      </trkpt>
      <trkpt lat="44.82262" lon="5.57101">
        <ele>1018</ele>
        <time>2013-09-14T15:46:01.001Z</time>
      </trkpt>
      <trkpt lat="44.8227" lon="5.57108">
        <ele>1017</ele>
        <time>2013-09-14T15:46:03.001Z</time>
      </trkpt>
      <trkpt lat="44.82277" lon="5.57112">
        <ele>1017</ele>
        <time>2013-09-14T15:46:05.001Z</time>
      </trkpt>
      <trkpt lat="44.8228" lon="5.57116">
        <ele>1017</ele>
        <time>2013-09-14T15:46:06.001Z</time>
      </trkpt>
      <trkpt lat="44.82287" lon="5.5712">
        <ele>1017</ele>
        <time>2013-09-14T15:46:08.001Z</time>
      </trkpt>
      <trkpt lat="44.82293" lon="5.57125">
        <ele>1017</ele>
        <time>2013-09-14T15:46:10.001Z</time>
      </trkpt>
      <trkpt lat="44.82297" lon="5.57129">
        <ele>1016</ele>
        <time>2013-09-14T15:46:12.001Z</time>
      </trkpt>
      <trkpt lat="44.82302" lon="5.57131">
        <ele>1016</ele>
        <time>2013-09-14T15:46:14.001Z</time>
      </trkpt>
      <trkpt lat="44.82307" lon="5.57136">
        <ele>1016</ele>
        <time>2013-09-14T15:46:16.001Z</time>
      </trkpt>
      <trkpt lat="44.82314" lon="5.57142">
        <ele>1016</ele>
        <time>2013-09-14T15:46:18.001Z</time>
      </trkpt>
      <trkpt lat="44.8232" lon="5.57146">
        <ele>1016</ele>
        <time>2013-09-14T15:46:20.001Z</time>
      </trkpt>
      <trkpt lat="44.82327" lon="5.57153">
        <ele>1016</ele>
        <time>2013-09-14T15:46:22.001Z</time>
      </trkpt>
      <trkpt lat="44.82334" lon="5.57159">
        <ele>1016</ele>
        <time>2013-09-14T15:46:24.001Z</time>
      </trkpt>
      <trkpt lat="44.82338" lon="5.57161">
        <ele>1016</ele>
        <time>2013-09-14T15:46:25.001Z</time>
      </trkpt>
      <trkpt lat="44.82341" lon="5.57166">
        <ele>1016</ele>
        <time>2013-09-14T15:46:26.001Z</time>
      </trkpt>
      <trkpt lat="44.82349" lon="5.57172">
        <ele>1015</ele>
        <time>2013-09-14T15:46:28.001Z</time>
      </trkpt>
      <trkpt lat="44.82355" lon="5.57176">
        <ele>1015</ele>
        <time>2013-09-14T15:46:30.001Z</time>
      </trkpt>
      <trkpt lat="44.82361" lon="5.57181">
        <ele>1015</ele>
        <time>2013-09-14T15:46:32.001Z</time>
      </trkpt>
      <trkpt lat="44.82366" lon="5.57185">
        <ele>1015</ele>
        <time>2013-09-14T15:46:34.001Z</time>
      </trkpt>
      <trkpt lat="44.8237" lon="5.57189">
        <ele>1015</ele>
        <time>2013-09-14T15:46:36.001Z</time>
      </trkpt>
      <trkpt lat="44.82376" lon="5.57194">
        <ele>1015</ele>
        <time>2013-09-14T15:46:38.001Z</time>
      </trkpt>
      <trkpt lat="44.8238" lon="5.57198">
        <ele>1015</ele>
        <time>2013-09-14T15:46:40.001Z</time>
      </trkpt>
      <trkpt lat="44.82384" lon="5.57202">
        <ele>1015</ele>
        <time>2013-09-14T15:46:42.001Z</time>
      </trkpt>
      <trkpt lat="44.82389" lon="5.57206">
        <ele>1015</ele>
        <time>2013-09-14T15:46:44.001Z</time>
      </trkpt>
      <trkpt lat="44.82393" lon="5.57211">
        <ele>1015</ele>
        <time>2013-09-14T15:46:46.001Z</time>
      </trkpt>
      <trkpt lat="44.82397" lon="5.57213">
        <ele>1015</ele>
        <time>2013-09-14T15:46:48.001Z</time>
      </trkpt>
      <trkpt lat="44.82401" lon="5.57215">
        <ele>1014</ele>
        <time>2013-09-14T15:46:50.001Z</time>
      </trkpt>
      <trkpt lat="44.82406" lon="5.57219">
        <ele>1014</ele>
        <time>2013-09-14T15:46:52.001Z</time>
      </trkpt>
      <trkpt lat="44.82406" lon="5.57219">
        <ele>1014</ele>
        <time>2013-09-14T15:46:52.001Z</time>
      </trkpt>
      <trkpt lat="44.82406" lon="5.57219">
        <ele>1014</ele>
        <time>2013-09-14T15:46:54.001Z</time>
      </trkpt>
      <trkpt lat="44.8241" lon="5.57221">
        <ele>1014</ele>
        <time>2013-09-14T15:46:55.001Z</time>
      </trkpt>
      <trkpt lat="44.8241" lon="5.57221">
        <ele>1014</ele>
        <time>2013-09-14T15:46:55.001Z</time>
      </trkpt>
      <trkpt lat="44.8241" lon="5.57221">
        <ele>1014</ele>
        <time>2013-09-14T15:47:00.001Z</time>
      </trkpt>
      <trkpt lat="44.8242" lon="5.57228">
        <ele>1014</ele>
        <time>2013-09-14T15:47:01.001Z</time>
      </trkpt>
      <trkpt lat="44.8242" lon="5.57228">
        <ele>1014</ele>
        <time>2013-09-14T15:47:01.001Z</time>
      </trkpt>
      <trkpt lat="44.8242" lon="5.57228">
        <ele>1014</ele>
        <time>2013-09-14T15:47:07.001Z</time>
      </trkpt>
      <trkpt lat="44.82429" lon="5.57232">
        <ele>1014</ele>
        <time>2013-09-14T15:47:08.001Z</time>
      </trkpt>
      <trkpt lat="44.82429" lon="5.57232">
        <ele>1014</ele>
        <time>2013-09-14T15:47:08.001Z</time>
      </trkpt>
      <trkpt lat="44.82429" lon="5.57232">
        <ele>1014</ele>
        <time>2013-09-14T15:47:15.001Z</time>
      </trkpt>
      <trkpt lat="44.82439" lon="5.57234">
        <ele>1014</ele>
        <time>2013-09-14T15:47:16.001Z</time>
      </trkpt>
      <trkpt lat="44.82439" lon="5.57234">
        <ele>1014</ele>
        <time>2013-09-14T15:47:16.001Z</time>
      </trkpt>
      <trkpt lat="44.82439" lon="5.57234">
        <ele>1014</ele>
        <time>2013-09-14T15:47:19.001Z</time>
      </trkpt>
      <trkpt lat="44.82443" lon="5.57238">
        <ele>1014</ele>
        <time>2013-09-14T15:47:20.001Z</time>
      </trkpt>
      <trkpt lat="44.82443" lon="5.57238">
        <ele>1014</ele>
        <time>2013-09-14T15:47:20.001Z</time>
      </trkpt>
      <trkpt lat="44.82443" lon="5.57238">
        <ele>1014</ele>
        <time>2013-09-14T15:47:22.001Z</time>
      </trkpt>
      <trkpt lat="44.82448" lon="5.57241">
        <ele>1014</ele>
        <time>2013-09-14T15:47:23.001Z</time>
      </trkpt>
      <trkpt lat="44.82448" lon="5.57241">
        <ele>1014</ele>
        <time>2013-09-14T15:47:23.001Z</time>
      </trkpt>
      <trkpt lat="44.82448" lon="5.57241">
        <ele>1014</ele>
        <time>2013-09-14T15:47:24.001Z</time>
      </trkpt>
      <trkpt lat="44.82455" lon="5.57247">
        <ele>1014</ele>
        <time>2013-09-14T15:47:29.001Z</time>
      </trkpt>
      <trkpt lat="44.82455" lon="5.57247">
        <ele>1014</ele>
        <time>2013-09-14T15:47:29.001Z</time>
      </trkpt>
      <trkpt lat="44.82455" lon="5.57247">
        <ele>1014</ele>
        <time>2013-09-14T15:47:32.001Z</time>
      </trkpt>
      <trkpt lat="44.82457" lon="5.57254">
        <ele>1015</ele>
        <time>2013-09-14T15:47:33.001Z</time>
      </trkpt>
      <trkpt lat="44.82457" lon="5.57254">
        <ele>1015</ele>
        <time>2013-09-14T15:47:33.001Z</time>
      </trkpt>
      <trkpt lat="44.82457" lon="5.57254">
        <ele>1015</ele>
        <time>2013-09-14T15:47:39.001Z</time>
      </trkpt>
      <trkpt lat="44.82457" lon="5.57269">
        <ele>1015</ele>
        <time>2013-09-14T15:47:40.001Z</time>
      </trkpt>
      <trkpt lat="44.82455" lon="5.57277">
        <ele>1015</ele>
        <time>2013-09-14T15:47:45.001Z</time>
      </trkpt>
      <trkpt lat="44.82455" lon="5.57277">
        <ele>1015</ele>
        <time>2013-09-14T15:47:45.001Z</time>
      </trkpt>
      <trkpt lat="44.82455" lon="5.57277">
        <ele>1015</ele>
        <time>2013-09-14T15:47:48.001Z</time>
      </trkpt>
      <trkpt lat="44.82454" lon="5.57286">
        <ele>1016</ele>
        <time>2013-09-14T15:47:49.001Z</time>
      </trkpt>
      <trkpt lat="44.82454" lon="5.57286">
        <ele>1016</ele>
        <time>2013-09-14T15:47:49.001Z</time>
      </trkpt>
      <trkpt lat="44.82454" lon="5.57286">
        <ele>1016</ele>
        <time>2013-09-14T15:47:53.001Z</time>
      </trkpt>
      <trkpt lat="44.82453" lon="5.57292">
        <ele>1016</ele>
        <time>2013-09-14T15:47:54.001Z</time>
      </trkpt>
      <trkpt lat="44.82453" lon="5.57292">
        <ele>1016</ele>
        <time>2013-09-14T15:47:54.001Z</time>
      </trkpt>
      <trkpt lat="44.82453" lon="5.57292">
        <ele>1016</ele>
        <time>2013-09-14T15:47:58.001Z</time>
      </trkpt>
      <trkpt lat="44.82452" lon="5.57301">
        <ele>1017</ele>
        <time>2013-09-14T15:47:59.001Z</time>
      </trkpt>
      <trkpt lat="44.82452" lon="5.57301">
        <ele>1017</ele>
        <time>2013-09-14T15:47:59.001Z</time>
      </trkpt>
      <trkpt lat="44.82452" lon="5.57301">
        <ele>1017</ele>
        <time>2013-09-14T15:48:03.001Z</time>
      </trkpt>
      <trkpt lat="44.82451" lon="5.57307">
        <ele>1017</ele>
        <time>2013-09-14T15:48:04.001Z</time>
      </trkpt>
      <trkpt lat="44.82451" lon="5.57307">
        <ele>1017</ele>
        <time>2013-09-14T15:48:04.001Z</time>
      </trkpt>
      <trkpt lat="44.82451" lon="5.57307">
        <ele>1017</ele>
        <time>2013-09-14T15:48:07.001Z</time>
      </trkpt>
      <trkpt lat="44.8245" lon="5.57314">
        <ele>1018</ele>
        <time>2013-09-14T15:48:08.001Z</time>
      </trkpt>
      <trkpt lat="44.8245" lon="5.57314">
        <ele>1018</ele>
        <time>2013-09-14T15:48:08.001Z</time>
      </trkpt>
      <trkpt lat="44.8245" lon="5.57314">
        <ele>1018</ele>
        <time>2013-09-14T15:48:12.001Z</time>
      </trkpt>
      <trkpt lat="44.8245" lon="5.57322">
        <ele>1018</ele>
        <time>2013-09-14T15:48:13.001Z</time>
      </trkpt>
      <trkpt lat="44.82452" lon="5.57329">
        <ele>1019</ele>
        <time>2013-09-14T15:48:17.001Z</time>
      </trkpt>
      <trkpt lat="44.82452" lon="5.57329">
        <ele>1019</ele>
        <time>2013-09-14T15:48:17.001Z</time>
      </trkpt>
      <trkpt lat="44.82452" lon="5.57329">
        <ele>1019</ele>
        <time>2013-09-14T15:48:21.001Z</time>
      </trkpt>
      <trkpt lat="44.82457" lon="5.57333">
        <ele>1019</ele>
        <time>2013-09-14T15:48:22.001Z</time>
      </trkpt>
      <trkpt lat="44.82457" lon="5.57333">
        <ele>1019</ele>
        <time>2013-09-14T15:48:22.001Z</time>
      </trkpt>
      <trkpt lat="44.82457" lon="5.57333">
        <ele>1019</ele>
        <time>2013-09-14T15:48:27.001Z</time>
      </trkpt>
      <trkpt lat="44.82465" lon="5.57335">
        <ele>1020</ele>
        <time>2013-09-14T15:48:28.001Z</time>
      </trkpt>
      <trkpt lat="44.82465" lon="5.57335">
        <ele>1020</ele>
        <time>2013-09-14T15:48:28.001Z</time>
      </trkpt>
      <trkpt lat="44.82465" lon="5.57335">
        <ele>1020</ele>
        <time>2013-09-14T15:48:34.001Z</time>
      </trkpt>
      <trkpt lat="44.82474" lon="5.57333">
        <ele>1021</ele>
        <time>2013-09-14T15:48:35.001Z</time>
      </trkpt>
      <trkpt lat="44.82474" lon="5.57333">
        <ele>1021</ele>
        <time>2013-09-14T15:48:35.001Z</time>
      </trkpt>
      <trkpt lat="44.82474" lon="5.57333">
        <ele>1021</ele>
        <time>2013-09-14T15:48:38.001Z</time>
      </trkpt>
      <trkpt lat="44.8248" lon="5.57333">
        <ele>1021</ele>
        <time>2013-09-14T15:48:39.001Z</time>
      </trkpt>
      <trkpt lat="44.8248" lon="5.57333">
        <ele>1021</ele>
        <time>2013-09-14T15:48:39.001Z</time>
      </trkpt>
      <trkpt lat="44.8248" lon="5.57333">
        <ele>1021</ele>
        <time>2013-09-14T15:48:45.001Z</time>
      </trkpt>
      <trkpt lat="44.82488" lon="5.57331">
        <ele>1022</ele>
        <time>2013-09-14T15:48:46.001Z</time>
      </trkpt>
      <trkpt lat="44.82488" lon="5.57331">
        <ele>1022</ele>
        <time>2013-09-14T15:48:46.001Z</time>
      </trkpt>
      <trkpt lat="44.82488" lon="5.57331">
        <ele>1022</ele>
        <time>2013-09-14T15:48:54.001Z</time>
      </trkpt>
      <trkpt lat="44.82498" lon="5.57326">
        <ele>1024</ele>
        <time>2013-09-14T15:48:55.001Z</time>
      </trkpt>
      <trkpt lat="44.82498" lon="5.57326">
        <ele>1024</ele>
        <time>2013-09-14T15:48:55.001Z</time>
      </trkpt>
      <trkpt lat="44.82498" lon="5.57326">
        <ele>1024</ele>
        <time>2013-09-14T15:48:59.001Z</time>
      </trkpt>
      <trkpt lat="44.82503" lon="5.57324">
        <ele>1025</ele>
        <time>2013-09-14T15:49:00.001Z</time>
      </trkpt>
      <trkpt lat="44.82503" lon="5.57324">
        <ele>1025</ele>
        <time>2013-09-14T15:49:00.001Z</time>
      </trkpt>
      <trkpt lat="44.82503" lon="5.57324">
        <ele>1025</ele>
        <time>2013-09-14T15:49:02.001Z</time>
      </trkpt>
      <trkpt lat="44.82511" lon="5.57324">
        <ele>1027</ele>
        <time>2013-09-14T15:49:09.001Z</time>
      </trkpt>
      <trkpt lat="44.82511" lon="5.57324">
        <ele>1027</ele>
        <time>2013-09-14T15:49:09.001Z</time>
      </trkpt>
      <trkpt lat="44.82511" lon="5.57324">
        <ele>1027</ele>
        <time>2013-09-14T15:49:13.001Z</time>
      </trkpt>
      <trkpt lat="44.82516" lon="5.57324">
        <ele>1027</ele>
        <time>2013-09-14T15:49:14.001Z</time>
      </trkpt>
      <trkpt lat="44.82516" lon="5.57324">
        <ele>1027</ele>
        <time>2013-09-14T15:49:14.001Z</time>
      </trkpt>
      <trkpt lat="44.82516" lon="5.57324">
        <ele>1027</ele>
        <time>2013-09-14T15:49:17.001Z</time>
      </trkpt>
      <trkpt lat="44.8252" lon="5.57326">
        <ele>1028</ele>
        <time>2013-09-14T15:49:18.001Z</time>
      </trkpt>
      <trkpt lat="44.8252" lon="5.57326">
        <ele>1028</ele>
        <time>2013-09-14T15:49:18.001Z</time>
      </trkpt>
      <trkpt lat="44.8252" lon="5.57326">
        <ele>1028</ele>
        <time>2013-09-14T15:49:22.001Z</time>
      </trkpt>
      <trkpt lat="44.82525" lon="5.57329">
        <ele>1029</ele>
        <time>2013-09-14T15:49:23.001Z</time>
      </trkpt>
      <trkpt lat="44.82525" lon="5.57329">
        <ele>1029</ele>
        <time>2013-09-14T15:49:23.001Z</time>
      </trkpt>
      <trkpt lat="44.82525" lon="5.57329">
        <ele>1029</ele>
        <time>2013-09-14T15:49:27.001Z</time>
      </trkpt>
      <trkpt lat="44.82525" lon="5.57337">
        <ele>1030</ele>
        <time>2013-09-14T15:49:28.001Z</time>
      </trkpt>
      <trkpt lat="44.82525" lon="5.57337">
        <ele>1030</ele>
        <time>2013-09-14T15:49:28.001Z</time>
      </trkpt>
      <trkpt lat="44.82525" lon="5.57337">
        <ele>1030</ele>
        <time>2013-09-14T15:49:29.001Z</time>
      </trkpt>
      <trkpt lat="44.82524" lon="5.57344">
        <ele>1031</ele>
        <time>2013-09-14T15:49:32.001Z</time>
      </trkpt>
      <trkpt lat="44.82525" lon="5.5735">
        <ele>1031</ele>
        <time>2013-09-14T15:49:35.001Z</time>
      </trkpt>
      <trkpt lat="44.82528" lon="5.57356">
        <ele>1032</ele>
        <time>2013-09-14T15:49:39.001Z</time>
      </trkpt>
      <trkpt lat="44.82528" lon="5.57356">
        <ele>1032</ele>
        <time>2013-09-14T15:49:39.001Z</time>
      </trkpt>
      <trkpt lat="44.82528" lon="5.57356">
        <ele>1032</ele>
        <time>2013-09-14T15:49:40.001Z</time>
      </trkpt>
      <trkpt lat="44.82531" lon="5.57361">
        <ele>1033</ele>
        <time>2013-09-14T15:49:43.001Z</time>
      </trkpt>
      <trkpt lat="44.82534" lon="5.57367">
        <ele>1033</ele>
        <time>2013-09-14T15:49:47.001Z</time>
      </trkpt>
      <trkpt lat="44.82539" lon="5.57374">
        <ele>1034</ele>
        <time>2013-09-14T15:49:53.001Z</time>
      </trkpt>
      <trkpt lat="44.82539" lon="5.57374">
        <ele>1034</ele>
        <time>2013-09-14T15:49:53.001Z</time>
      </trkpt>
      <trkpt lat="44.82539" lon="5.57374">
        <ele>1034</ele>
        <time>2013-09-14T15:49:54.001Z</time>
      </trkpt>
      <trkpt lat="44.82541" lon="5.5738">
        <ele>1035</ele>
        <time>2013-09-14T15:49:58.001Z</time>
      </trkpt>
      <trkpt lat="44.82544" lon="5.57384">
        <ele>1036</ele>
        <time>2013-09-14T15:50:02.001Z</time>
      </trkpt>
      <trkpt lat="44.82544" lon="5.57384">
        <ele>1036</ele>
        <time>2013-09-14T15:50:02.001Z</time>
      </trkpt>
      <trkpt lat="44.82544" lon="5.57384">
        <ele>1036</ele>
        <time>2013-09-14T15:50:03.001Z</time>
      </trkpt>
      <trkpt lat="44.82547" lon="5.57389">
        <ele>1036</ele>
        <time>2013-09-14T15:50:06.001Z</time>
      </trkpt>
      <trkpt lat="44.82552" lon="5.57395">
        <ele>1037</ele>
        <time>2013-09-14T15:50:11.001Z</time>
      </trkpt>
      <trkpt lat="44.82556" lon="5.574">
        <ele>1038</ele>
        <time>2013-09-14T15:50:15.001Z</time>
      </trkpt>
      <trkpt lat="44.82559" lon="5.57404">
        <ele>1038</ele>
        <time>2013-09-14T15:50:18.001Z</time>
      </trkpt>
      <trkpt lat="44.82563" lon="5.57408">
        <ele>1039</ele>
        <time>2013-09-14T15:50:21.001Z</time>
      </trkpt>
      <trkpt lat="44.82563" lon="5.57408">
        <ele>1039</ele>
        <time>2013-09-14T15:50:21.001Z</time>
      </trkpt>
      <trkpt lat="44.82563" lon="5.57408">
        <ele>1039</ele>
        <time>2013-09-14T15:50:22.001Z</time>
      </trkpt>
      <trkpt lat="44.82568" lon="5.5741">
        <ele>1039</ele>
        <time>2013-09-14T15:50:26.001Z</time>
      </trkpt>
      <trkpt lat="44.82573" lon="5.57412">
        <ele>1039</ele>
        <time>2013-09-14T15:50:29.001Z</time>
      </trkpt>
      <trkpt lat="44.82577" lon="5.57417">
        <ele>1040</ele>
        <time>2013-09-14T15:50:33.001Z</time>
      </trkpt>
      <trkpt lat="44.82583" lon="5.57419">
        <ele>1040</ele>
        <time>2013-09-14T15:50:37.001Z</time>
      </trkpt>
      <trkpt lat="44.82587" lon="5.57423">
        <ele>1040</ele>
        <time>2013-09-14T15:50:40.001Z</time>
      </trkpt>
      <trkpt lat="44.82592" lon="5.57425">
        <ele>1041</ele>
        <time>2013-09-14T15:50:43.001Z</time>
      </trkpt>
      <trkpt lat="44.82598" lon="5.57427">
        <ele>1041</ele>
        <time>2013-09-14T15:50:46.001Z</time>
      </trkpt>
      <trkpt lat="44.82602" lon="5.5743">
        <ele>1041</ele>
        <time>2013-09-14T15:50:49.001Z</time>
      </trkpt>
      <trkpt lat="44.82607" lon="5.57434">
        <ele>1042</ele>
        <time>2013-09-14T15:50:52.001Z</time>
      </trkpt>
      <trkpt lat="44.82612" lon="5.57436">
        <ele>1042</ele>
        <time>2013-09-14T15:50:55.001Z</time>
      </trkpt>
      <trkpt lat="44.82615" lon="5.5744">
        <ele>1042</ele>
        <time>2013-09-14T15:50:57.001Z</time>
      </trkpt>
      <trkpt lat="44.82619" lon="5.57444">
        <ele>1043</ele>
        <time>2013-09-14T15:51:00.001Z</time>
      </trkpt>
      <trkpt lat="44.82622" lon="5.57449">
        <ele>1043</ele>
        <time>2013-09-14T15:51:02.001Z</time>
      </trkpt>
      <trkpt lat="44.82628" lon="5.57453">
        <ele>1043</ele>
        <time>2013-09-14T15:51:04.001Z</time>
      </trkpt>
      <trkpt lat="44.82633" lon="5.57457">
        <ele>1044</ele>
        <time>2013-09-14T15:51:06.001Z</time>
      </trkpt>
      <trkpt lat="44.82638" lon="5.57462">
        <ele>1044</ele>
        <time>2013-09-14T15:51:08.001Z</time>
      </trkpt>
      <trkpt lat="44.82643" lon="5.57468">
        <ele>1045</ele>
        <time>2013-09-14T15:51:11.001Z</time>
      </trkpt>
      <trkpt lat="44.82646" lon="5.57472">
        <ele>1045</ele>
        <time>2013-09-14T15:51:13.001Z</time>
      </trkpt>
      <trkpt lat="44.82649" lon="5.57479">
        <ele>1045</ele>
        <time>2013-09-14T15:51:16.001Z</time>
      </trkpt>
      <trkpt lat="44.82654" lon="5.57483">
        <ele>1046</ele>
        <time>2013-09-14T15:51:19.001Z</time>
      </trkpt>
      <trkpt lat="44.82658" lon="5.57487">
        <ele>1047</ele>
        <time>2013-09-14T15:51:23.001Z</time>
      </trkpt>
      <trkpt lat="44.82658" lon="5.57487">
        <ele>1047</ele>
        <time>2013-09-14T15:51:23.001Z</time>
      </trkpt>
      <trkpt lat="44.82658" lon="5.57487">
        <ele>1047</ele>
        <time>2013-09-14T15:51:24.001Z</time>
      </trkpt>
      <trkpt lat="44.82661" lon="5.57494">
        <ele>1047</ele>
        <time>2013-09-14T15:51:27.001Z</time>
      </trkpt>
      <trkpt lat="44.82661" lon="5.57494">
        <ele>1047</ele>
        <time>2013-09-14T15:51:27.001Z</time>
      </trkpt>
      <trkpt lat="44.82661" lon="5.57494">
        <ele>1047</ele>
        <time>2013-09-14T15:51:28.001Z</time>
      </trkpt>
      <trkpt lat="44.82662" lon="5.575">
        <ele>1048</ele>
        <time>2013-09-14T15:51:33.001Z</time>
      </trkpt>
      <trkpt lat="44.82662" lon="5.57507">
        <ele>1048</ele>
        <time>2013-09-14T15:51:48.001Z</time>
      </trkpt>
      <trkpt lat="44.82662" lon="5.57507">
        <ele>1048</ele>
        <time>2013-09-14T15:51:48.001Z</time>
      </trkpt>
      <trkpt lat="44.82662" lon="5.57507">
        <ele>1049</ele>
        <time>2013-09-14T15:51:56.001Z</time>
      </trkpt>
      <trkpt lat="44.82658" lon="5.57509">
        <ele>1049</ele>
        <time>2013-09-14T15:52:15.001Z</time>
      </trkpt>
      <trkpt lat="44.82658" lon="5.57509">
        <ele>1049</ele>
        <time>2013-09-14T15:52:15.001Z</time>
      </trkpt>
      <trkpt lat="44.82658" lon="5.57509">
        <ele>1050</ele>
        <time>2013-09-14T15:52:25.001Z</time>
      </trkpt>
      <trkpt lat="44.82663" lon="5.57509">
        <ele>1051</ele>
        <time>2013-09-14T15:52:28.001Z</time>
      </trkpt>
      <trkpt lat="44.8267" lon="5.57509">
        <ele>1051</ele>
        <time>2013-09-14T15:52:30.001Z</time>
      </trkpt>
      <trkpt lat="44.82676" lon="5.57507">
        <ele>1052</ele>
        <time>2013-09-14T15:52:32.001Z</time>
      </trkpt>
      <trkpt lat="44.82682" lon="5.575">
        <ele>1052</ele>
        <time>2013-09-14T15:52:34.001Z</time>
      </trkpt>
      <trkpt lat="44.82687" lon="5.57496">
        <ele>1053</ele>
        <time>2013-09-14T15:52:36.001Z</time>
      </trkpt>
      <trkpt lat="44.82691" lon="5.57492">
        <ele>1053</ele>
        <time>2013-09-14T15:52:40.001Z</time>
      </trkpt>
      <trkpt lat="44.82695" lon="5.57487">
        <ele>1053</ele>
        <time>2013-09-14T15:52:48.001Z</time>
      </trkpt>
      <trkpt lat="44.82699" lon="5.57481">
        <ele>1054</ele>
        <time>2013-09-14T15:52:55.001Z</time>
      </trkpt>
      <trkpt lat="44.82703" lon="5.57479">
        <ele>1054</ele>
        <time>2013-09-14T15:53:03.001Z</time>
      </trkpt>
      <trkpt lat="44.82707" lon="5.57475">
        <ele>1054</ele>
        <time>2013-09-14T15:53:15.001Z</time>
      </trkpt>
      <trkpt lat="44.82707" lon="5.57475">
        <ele>1054</ele>
        <time>2013-09-14T15:53:15.001Z</time>
      </trkpt>
      <trkpt lat="44.82707" lon="5.57475">
        <ele>1054</ele>
        <time>2013-09-14T15:53:20.001Z</time>
      </trkpt>
      <trkpt lat="44.82703" lon="5.57477">
        <ele>1054</ele>
        <time>2013-09-14T15:53:44.001Z</time>
      </trkpt>
      <trkpt lat="44.82703" lon="5.57477">
        <ele>1054</ele>
        <time>2013-09-14T15:53:44.001Z</time>
      </trkpt>
      <trkpt lat="44.82703" lon="5.57477">
        <ele>1054</ele>
        <time>2013-09-14T15:53:47.001Z</time>
      </trkpt>
      <trkpt lat="44.82706" lon="5.57481">
        <ele>1055</ele>
        <time>2013-09-14T15:54:00.001Z</time>
      </trkpt>
      <trkpt lat="44.8271" lon="5.57479">
        <ele>1055</ele>
        <time>2013-09-14T15:54:06.001Z</time>
      </trkpt>
      <trkpt lat="44.8271" lon="5.57479">
        <ele>1055</ele>
        <time>2013-09-14T15:54:06.001Z</time>
      </trkpt>
      <trkpt lat="44.8271" lon="5.57479">
        <ele>1055</ele>
        <time>2013-09-14T15:54:07.001Z</time>
      </trkpt>
      <trkpt lat="44.82716" lon="5.57479">
        <ele>1055</ele>
        <time>2013-09-14T15:54:19.001Z</time>
      </trkpt>
      <trkpt lat="44.82716" lon="5.57479">
        <ele>1055</ele>
        <time>2013-09-14T15:54:19.001Z</time>
      </trkpt>
      <trkpt lat="44.82716" lon="5.57479">
        <ele>1055</ele>
        <time>2013-09-14T15:54:23.001Z</time>
      </trkpt>
      <trkpt lat="44.82718" lon="5.57472">
        <ele>1056</ele>
        <time>2013-09-14T15:54:34.001Z</time>
      </trkpt>
      <trkpt lat="44.82718" lon="5.57472">
        <ele>1056</ele>
        <time>2013-09-14T15:54:34.001Z</time>
      </trkpt>
      <trkpt lat="44.82718" lon="5.57472">
        <ele>1056</ele>
        <time>2013-09-14T15:54:35.001Z</time>
      </trkpt>
      <trkpt lat="44.82719" lon="5.57466">
        <ele>1056</ele>
        <time>2013-09-14T15:54:41.001Z</time>
      </trkpt>
      <trkpt lat="44.82719" lon="5.57466">
        <ele>1056</ele>
        <time>2013-09-14T15:54:41.001Z</time>
      </trkpt>
      <trkpt lat="44.82719" lon="5.57466">
        <ele>1056</ele>
        <time>2013-09-14T15:54:43.001Z</time>
      </trkpt>
      <trkpt lat="44.82719" lon="5.5746">
        <ele>1056</ele>
        <time>2013-09-14T15:54:50.001Z</time>
      </trkpt>
      <trkpt lat="44.82719" lon="5.5746">
        <ele>1056</ele>
        <time>2013-09-14T15:54:50.001Z</time>
      </trkpt>
      <trkpt lat="44.82719" lon="5.5746">
        <ele>1056</ele>
        <time>2013-09-14T15:54:53.001Z</time>
      </trkpt>
      <trkpt lat="44.82715" lon="5.57464">
        <ele>1056</ele>
        <time>2013-09-14T15:55:43.001Z</time>
      </trkpt>
      <trkpt lat="44.8271" lon="5.57466">
        <ele>1057</ele>
        <time>2013-09-14T15:55:53.001Z</time>
      </trkpt>
      <trkpt lat="44.8271" lon="5.57466">
        <ele>1057</ele>
        <time>2013-09-14T15:55:53.001Z</time>
      </trkpt>
      <trkpt lat="44.8271" lon="5.57466">
        <ele>1057</ele>
        <time>2013-09-14T15:55:57.001Z</time>
      </trkpt>
      <trkpt lat="44.82707" lon="5.57472">
        <ele>1057</ele>
        <time>2013-09-14T15:56:11.001Z</time>
      </trkpt>
      <trkpt lat="44.82705" lon="5.57481">
        <ele>1057</ele>
        <time>2013-09-14T15:56:23.001Z</time>
      </trkpt>
      <trkpt lat="44.82707" lon="5.5749">
        <ele>1057</ele>
        <time>2013-09-14T15:56:25.001Z</time>
      </trkpt>
      <trkpt lat="44.82708" lon="5.57496">
        <ele>1057</ele>
        <time>2013-09-14T15:56:26.001Z</time>
      </trkpt>
      <trkpt lat="44.82712" lon="5.57507">
        <ele>1058</ele>
        <time>2013-09-14T15:56:28.001Z</time>
      </trkpt>
      <trkpt lat="44.82714" lon="5.57513">
        <ele>1058</ele>
        <time>2013-09-14T15:56:29.001Z</time>
      </trkpt>
      <trkpt lat="44.82717" lon="5.57518">
        <ele>1059</ele>
        <time>2013-09-14T15:56:30.001Z</time>
      </trkpt>
      <trkpt lat="44.8272" lon="5.57524">
        <ele>1059</ele>
        <time>2013-09-14T15:56:31.001Z</time>
      </trkpt>
      <trkpt lat="44.82728" lon="5.5753">
        <ele>1060</ele>
        <time>2013-09-14T15:56:33.001Z</time>
      </trkpt>
      <trkpt lat="44.82736" lon="5.57537">
        <ele>1060</ele>
        <time>2013-09-14T15:56:37.001Z</time>
      </trkpt>
      <trkpt lat="44.82744" lon="5.57539">
        <ele>1060</ele>
        <time>2013-09-14T15:56:39.001Z</time>
      </trkpt>
      <trkpt lat="44.82748" lon="5.57543">
        <ele>1061</ele>
        <time>2013-09-14T15:56:40.001Z</time>
      </trkpt>
      <trkpt lat="44.82754" lon="5.57548">
        <ele>1062</ele>
        <time>2013-09-14T15:56:42.001Z</time>
      </trkpt>
      <trkpt lat="44.82759" lon="5.57552">
        <ele>1062</ele>
        <time>2013-09-14T15:56:44.001Z</time>
      </trkpt>
      <trkpt lat="44.82759" lon="5.57552">
        <ele>1062</ele>
        <time>2013-09-14T15:56:44.001Z</time>
      </trkpt>
      <trkpt lat="44.82759" lon="5.57552">
        <ele>1062</ele>
        <time>2013-09-14T15:56:46.001Z</time>
      </trkpt>
      <trkpt lat="44.82769" lon="5.57558">
        <ele>1062</ele>
        <time>2013-09-14T15:56:47.001Z</time>
      </trkpt>
      <trkpt lat="44.82775" lon="5.5756">
        <ele>1061</ele>
        <time>2013-09-14T15:56:48.001Z</time>
      </trkpt>
      <trkpt lat="44.82783" lon="5.57562">
        <ele>1061</ele>
        <time>2013-09-14T15:56:50.001Z</time>
      </trkpt>
      <trkpt lat="44.82789" lon="5.57567">
        <ele>1058</ele>
        <time>2013-09-14T15:56:51.001Z</time>
      </trkpt>
      <trkpt lat="44.82794" lon="5.57571">
        <ele>1056</ele>
        <time>2013-09-14T15:56:52.001Z</time>
      </trkpt>
      <trkpt lat="44.82798" lon="5.57575">
        <ele>1054</ele>
        <time>2013-09-14T15:56:53.001Z</time>
      </trkpt>
      <trkpt lat="44.82802" lon="5.5758">
        <ele>1053</ele>
        <time>2013-09-14T15:56:54.001Z</time>
      </trkpt>
      <trkpt lat="44.82806" lon="5.57584">
        <ele>1051</ele>
        <time>2013-09-14T15:56:55.001Z</time>
      </trkpt>
      <trkpt lat="44.8281" lon="5.5759">
        <ele>1050</ele>
        <time>2013-09-14T15:56:56.001Z</time>
      </trkpt>
      <trkpt lat="44.82816" lon="5.57595">
        <ele>1049</ele>
        <time>2013-09-14T15:56:57.001Z</time>
      </trkpt>
      <trkpt lat="44.8282" lon="5.57601">
        <ele>1048</ele>
        <time>2013-09-14T15:56:58.001Z</time>
      </trkpt>
      <trkpt lat="44.82824" lon="5.57606">
        <ele>1047</ele>
        <time>2013-09-14T15:56:59.001Z</time>
      </trkpt>
      <trkpt lat="44.8283" lon="5.57612">
        <ele>1047</ele>
        <time>2013-09-14T15:57:00.001Z</time>
      </trkpt>
      <trkpt lat="44.82835" lon="5.57614">
        <ele>1046</ele>
        <time>2013-09-14T15:57:01.001Z</time>
      </trkpt>
      <trkpt lat="44.82841" lon="5.57618">
        <ele>1046</ele>
        <time>2013-09-14T15:57:02.001Z</time>
      </trkpt>
      <trkpt lat="44.82848" lon="5.5762">
        <ele>1045</ele>
        <time>2013-09-14T15:57:03.001Z</time>
      </trkpt>
      <trkpt lat="44.82853" lon="5.57623">
        <ele>1045</ele>
        <time>2013-09-14T15:57:04.001Z</time>
      </trkpt>
      <trkpt lat="44.8286" lon="5.57627">
        <ele>1045</ele>
        <time>2013-09-14T15:57:05.001Z</time>
      </trkpt>
      <trkpt lat="44.82865" lon="5.57629">
        <ele>1044</ele>
        <time>2013-09-14T15:57:06.001Z</time>
      </trkpt>
      <trkpt lat="44.82869" lon="5.57631">
        <ele>1044</ele>
        <time>2013-09-14T15:57:07.001Z</time>
      </trkpt>
      <trkpt lat="44.82875" lon="5.57636">
        <ele>1043</ele>
        <time>2013-09-14T15:57:08.001Z</time>
      </trkpt>
      <trkpt lat="44.82879" lon="5.57638">
        <ele>1043</ele>
        <time>2013-09-14T15:57:09.001Z</time>
      </trkpt>
      <trkpt lat="44.82883" lon="5.5764">
        <ele>1043</ele>
        <time>2013-09-14T15:57:10.001Z</time>
      </trkpt>
      <trkpt lat="44.82888" lon="5.57644">
        <ele>1043</ele>
        <time>2013-09-14T15:57:11.001Z</time>
      </trkpt>
      <trkpt lat="44.82892" lon="5.57646">
        <ele>1042</ele>
        <time>2013-09-14T15:57:12.001Z</time>
      </trkpt>
      <trkpt lat="44.82896" lon="5.5765">
        <ele>1042</ele>
        <time>2013-09-14T15:57:13.001Z</time>
      </trkpt>
      <trkpt lat="44.829" lon="5.57655">
        <ele>1041</ele>
        <time>2013-09-14T15:57:14.001Z</time>
      </trkpt>
      <trkpt lat="44.82905" lon="5.57659">
        <ele>1041</ele>
        <time>2013-09-14T15:57:15.001Z</time>
      </trkpt>
      <trkpt lat="44.82909" lon="5.57661">
        <ele>1041</ele>
        <time>2013-09-14T15:57:16.001Z</time>
      </trkpt>
      <trkpt lat="44.82912" lon="5.57666">
        <ele>1041</ele>
        <time>2013-09-14T15:57:17.001Z</time>
      </trkpt>
      <trkpt lat="44.82919" lon="5.57672">
        <ele>1041</ele>
        <time>2013-09-14T15:57:19.001Z</time>
      </trkpt>
      <trkpt lat="44.82923" lon="5.57674">
        <ele>1041</ele>
        <time>2013-09-14T15:57:20.001Z</time>
      </trkpt>
      <trkpt lat="44.8293" lon="5.57678">
        <ele>1040</ele>
        <time>2013-09-14T15:57:22.001Z</time>
      </trkpt>
      <trkpt lat="44.82938" lon="5.57685">
        <ele>1040</ele>
        <time>2013-09-14T15:57:24.001Z</time>
      </trkpt>
      <trkpt lat="44.82944" lon="5.57689">
        <ele>1040</ele>
        <time>2013-09-14T15:57:26.001Z</time>
      </trkpt>
      <trkpt lat="44.82948" lon="5.57693">
        <ele>1040</ele>
        <time>2013-09-14T15:57:27.001Z</time>
      </trkpt>
      <trkpt lat="44.82954" lon="5.57698">
        <ele>1040</ele>
        <time>2013-09-14T15:57:29.001Z</time>
      </trkpt>
      <trkpt lat="44.82962" lon="5.57704">
        <ele>1040</ele>
        <time>2013-09-14T15:57:31.001Z</time>
      </trkpt>
      <trkpt lat="44.82968" lon="5.57711">
        <ele>1040</ele>
        <time>2013-09-14T15:57:33.001Z</time>
      </trkpt>
      <trkpt lat="44.82972" lon="5.57715">
        <ele>1041</ele>
        <time>2013-09-14T15:57:34.001Z</time>
      </trkpt>
      <trkpt lat="44.8298" lon="5.57721">
        <ele>1041</ele>
        <time>2013-09-14T15:57:36.001Z</time>
      </trkpt>
      <trkpt lat="44.82987" lon="5.57726">
        <ele>1041</ele>
        <time>2013-09-14T15:57:38.001Z</time>
      </trkpt>
      <trkpt lat="44.82992" lon="5.5773">
        <ele>1041</ele>
        <time>2013-09-14T15:57:39.001Z</time>
      </trkpt>
      <trkpt lat="44.82996" lon="5.57732">
        <ele>1041</ele>
        <time>2013-09-14T15:57:40.001Z</time>
      </trkpt>
      <trkpt lat="44.83" lon="5.57734">
        <ele>1041</ele>
        <time>2013-09-14T15:57:41.001Z</time>
      </trkpt>
      <trkpt lat="44.83008" lon="5.57736">
        <ele>1040</ele>
        <time>2013-09-14T15:57:43.001Z</time>
      </trkpt>
      <trkpt lat="44.83012" lon="5.57738">
        <ele>1040</ele>
        <time>2013-09-14T15:57:44.001Z</time>
      </trkpt>
      <trkpt lat="44.83016" lon="5.57741">
        <ele>1040</ele>
        <time>2013-09-14T15:57:45.001Z</time>
      </trkpt>
      <trkpt lat="44.83024" lon="5.57743">
        <ele>1039</ele>
        <time>2013-09-14T15:57:47.001Z</time>
      </trkpt>
      <trkpt lat="44.83031" lon="5.57747">
        <ele>1039</ele>
        <time>2013-09-14T15:57:49.001Z</time>
      </trkpt>
      <trkpt lat="44.83038" lon="5.57751">
        <ele>1039</ele>
        <time>2013-09-14T15:57:51.001Z</time>
      </trkpt>
      <trkpt lat="44.83044" lon="5.57754">
        <ele>1039</ele>
        <time>2013-09-14T15:57:53.001Z</time>
      </trkpt>
      <trkpt lat="44.83048" lon="5.5776">
        <ele>1039</ele>
        <time>2013-09-14T15:57:55.001Z</time>
      </trkpt>
      <trkpt lat="44.83053" lon="5.57764">
        <ele>1039</ele>
        <time>2013-09-14T15:57:57.001Z</time>
      </trkpt>
      <trkpt lat="44.83058" lon="5.57771">
        <ele>1039</ele>
        <time>2013-09-14T15:57:59.001Z</time>
      </trkpt>
      <trkpt lat="44.83062" lon="5.57777">
        <ele>1039</ele>
        <time>2013-09-14T15:58:01.001Z</time>
      </trkpt>
      <trkpt lat="44.83067" lon="5.57784">
        <ele>1039</ele>
        <time>2013-09-14T15:58:03.001Z</time>
      </trkpt>
      <trkpt lat="44.83072" lon="5.57792">
        <ele>1039</ele>
        <time>2013-09-14T15:58:05.001Z</time>
      </trkpt>
      <trkpt lat="44.83076" lon="5.57801">
        <ele>1039</ele>
        <time>2013-09-14T15:58:07.001Z</time>
      </trkpt>
      <trkpt lat="44.83082" lon="5.57809">
        <ele>1039</ele>
        <time>2013-09-14T15:58:09.001Z</time>
      </trkpt>
      <trkpt lat="44.83087" lon="5.57818">
        <ele>1039</ele>
        <time>2013-09-14T15:58:11.001Z</time>
      </trkpt>
      <trkpt lat="44.83094" lon="5.57826">
        <ele>1038</ele>
        <time>2013-09-14T15:58:13.001Z</time>
      </trkpt>
      <trkpt lat="44.83097" lon="5.57833">
        <ele>1038</ele>
        <time>2013-09-14T15:58:14.001Z</time>
      </trkpt>
      <trkpt lat="44.83104" lon="5.57842">
        <ele>1037</ele>
        <time>2013-09-14T15:58:16.001Z</time>
      </trkpt>
      <trkpt lat="44.83112" lon="5.57852">
        <ele>1036</ele>
        <time>2013-09-14T15:58:18.001Z</time>
      </trkpt>
      <trkpt lat="44.83118" lon="5.57859">
        <ele>1036</ele>
        <time>2013-09-14T15:58:20.001Z</time>
      </trkpt>
      <trkpt lat="44.83122" lon="5.57863">
        <ele>1036</ele>
        <time>2013-09-14T15:58:21.001Z</time>
      </trkpt>
      <trkpt lat="44.83126" lon="5.57867">
        <ele>1036</ele>
        <time>2013-09-14T15:58:22.001Z</time>
      </trkpt>
      <trkpt lat="44.8313" lon="5.57869">
        <ele>1036</ele>
        <time>2013-09-14T15:58:23.001Z</time>
      </trkpt>
      <trkpt lat="44.83135" lon="5.57876">
        <ele>1036</ele>
        <time>2013-09-14T15:58:25.001Z</time>
      </trkpt>
      <trkpt lat="44.83138" lon="5.5788">
        <ele>1037</ele>
        <time>2013-09-14T15:58:26.001Z</time>
      </trkpt>
      <trkpt lat="44.83144" lon="5.57889">
        <ele>1037</ele>
        <time>2013-09-14T15:58:28.001Z</time>
      </trkpt>
      <trkpt lat="44.83148" lon="5.57897">
        <ele>1037</ele>
        <time>2013-09-14T15:58:30.001Z</time>
      </trkpt>
      <trkpt lat="44.83152" lon="5.57906">
        <ele>1037</ele>
        <time>2013-09-14T15:58:32.001Z</time>
      </trkpt>
      <trkpt lat="44.83158" lon="5.57914">
        <ele>1039</ele>
        <time>2013-09-14T15:58:34.001Z</time>
      </trkpt>
      <trkpt lat="44.83165" lon="5.57921">
        <ele>1040</ele>
        <time>2013-09-14T15:58:36.001Z</time>
      </trkpt>
      <trkpt lat="44.83169" lon="5.57925">
        <ele>1041</ele>
        <time>2013-09-14T15:58:37.001Z</time>
      </trkpt>
      <trkpt lat="44.83174" lon="5.5793">
        <ele>1041</ele>
        <time>2013-09-14T15:58:39.001Z</time>
      </trkpt>
      <trkpt lat="44.83179" lon="5.57936">
        <ele>1041</ele>
        <time>2013-09-14T15:58:42.001Z</time>
      </trkpt>
      <trkpt lat="44.83184" lon="5.5794">
        <ele>1041</ele>
        <time>2013-09-14T15:58:45.001Z</time>
      </trkpt>
      <trkpt lat="44.83188" lon="5.57942">
        <ele>1041</ele>
        <time>2013-09-14T15:58:47.001Z</time>
      </trkpt>
      <trkpt lat="44.83198" lon="5.57944">
        <ele>1041</ele>
        <time>2013-09-14T15:58:52.001Z</time>
      </trkpt>
      <trkpt lat="44.83198" lon="5.57944">
        <ele>1041</ele>
        <time>2013-09-14T15:58:52.001Z</time>
      </trkpt>
      <trkpt lat="44.83198" lon="5.57944">
        <ele>1041</ele>
        <time>2013-09-14T15:58:54.001Z</time>
      </trkpt>
      <trkpt lat="44.83203" lon="5.57947">
        <ele>1041</ele>
        <time>2013-09-14T15:58:55.001Z</time>
      </trkpt>
      <trkpt lat="44.83203" lon="5.57947">
        <ele>1041</ele>
        <time>2013-09-14T15:58:55.001Z</time>
      </trkpt>
      <trkpt lat="44.83203" lon="5.57947">
        <ele>1041</ele>
        <time>2013-09-14T15:58:59.001Z</time>
      </trkpt>
      <trkpt lat="44.83208" lon="5.57951">
        <ele>1041</ele>
        <time>2013-09-14T15:59:00.001Z</time>
      </trkpt>
      <trkpt lat="44.83214" lon="5.57953">
        <ele>1041</ele>
        <time>2013-09-14T15:59:02.001Z</time>
      </trkpt>
      <trkpt lat="44.8322" lon="5.57957">
        <ele>1041</ele>
        <time>2013-09-14T15:59:04.001Z</time>
      </trkpt>
      <trkpt lat="44.83228" lon="5.57962">
        <ele>1041</ele>
        <time>2013-09-14T15:59:06.001Z</time>
      </trkpt>
      <trkpt lat="44.83234" lon="5.57962">
        <ele>1041</ele>
        <time>2013-09-14T15:59:08.001Z</time>
      </trkpt>
      <trkpt lat="44.8324" lon="5.57962">
        <ele>1041</ele>
        <time>2013-09-14T15:59:10.001Z</time>
      </trkpt>
      <trkpt lat="44.83246" lon="5.57957">
        <ele>1041</ele>
        <time>2013-09-14T15:59:12.001Z</time>
      </trkpt>
      <trkpt lat="44.8325" lon="5.57953">
        <ele>1041</ele>
        <time>2013-09-14T15:59:13.001Z</time>
      </trkpt>
      <trkpt lat="44.83254" lon="5.57949">
        <ele>1041</ele>
        <time>2013-09-14T15:59:14.001Z</time>
      </trkpt>
      <trkpt lat="44.83259" lon="5.57944">
        <ele>1041</ele>
        <time>2013-09-14T15:59:15.001Z</time>
      </trkpt>
      <trkpt lat="44.83263" lon="5.5794">
        <ele>1041</ele>
        <time>2013-09-14T15:59:16.001Z</time>
      </trkpt>
      <trkpt lat="44.8327" lon="5.5794">
        <ele>1041</ele>
        <time>2013-09-14T15:59:18.001Z</time>
      </trkpt>
      <trkpt lat="44.8327" lon="5.5794">
        <ele>1041</ele>
        <time>2013-09-14T15:59:18.001Z</time>
      </trkpt>
      <trkpt lat="44.8327" lon="5.5794">
        <ele>1041</ele>
        <time>2013-09-14T15:59:21.001Z</time>
      </trkpt>
      <trkpt lat="44.83277" lon="5.57938">
        <ele>1041</ele>
        <time>2013-09-14T15:59:22.001Z</time>
      </trkpt>
      <trkpt lat="44.83277" lon="5.57938">
        <ele>1041</ele>
        <time>2013-09-14T15:59:22.001Z</time>
      </trkpt>
      <trkpt lat="44.83277" lon="5.57938">
        <ele>1041</ele>
        <time>2013-09-14T16:00:21.001Z</time>
      </trkpt>
      <trkpt lat="44.83281" lon="5.57934">
        <ele>1040</ele>
        <time>2013-09-14T16:00:22.001Z</time>
      </trkpt>
      <trkpt lat="44.83281" lon="5.57934">
        <ele>1040</ele>
        <time>2013-09-14T16:00:22.001Z</time>
      </trkpt>
      <trkpt lat="44.83281" lon="5.57934">
        <ele>1040</ele>
        <time>2013-09-14T16:00:52.001Z</time>
      </trkpt>
      <trkpt lat="44.83284" lon="5.57927">
        <ele>1038</ele>
        <time>2013-09-14T16:00:53.001Z</time>
      </trkpt>
      <trkpt lat="44.83289" lon="5.57921">
        <ele>1038</ele>
        <time>2013-09-14T16:00:54.001Z</time>
      </trkpt>
      <trkpt lat="44.83289" lon="5.57921">
        <ele>1038</ele>
        <time>2013-09-14T16:00:54.001Z</time>
      </trkpt>
      <trkpt lat="44.83289" lon="5.57921">
        <ele>1038</ele>
        <time>2013-09-14T16:00:55.001Z</time>
      </trkpt>
      <trkpt lat="44.83296" lon="5.57908">
        <ele>1037</ele>
        <time>2013-09-14T16:00:56.001Z</time>
      </trkpt>
      <trkpt lat="44.83296" lon="5.57908">
        <ele>1037</ele>
        <time>2013-09-14T16:00:56.001Z</time>
      </trkpt>
      <trkpt lat="44.83296" lon="5.57908">
        <ele>1037</ele>
        <time>2013-09-14T16:00:58.001Z</time>
      </trkpt>
      <trkpt lat="44.83306" lon="5.57902">
        <ele>1036</ele>
        <time>2013-09-14T16:00:59.001Z</time>
      </trkpt>
      <trkpt lat="44.83306" lon="5.57902">
        <ele>1036</ele>
        <time>2013-09-14T16:00:59.001Z</time>
      </trkpt>
      <trkpt lat="44.83306" lon="5.57902">
        <ele>1036</ele>
        <time>2013-09-14T16:01:00.001Z</time>
      </trkpt>
      <trkpt lat="44.83316" lon="5.57904">
        <ele>1035</ele>
        <time>2013-09-14T16:01:03.001Z</time>
      </trkpt>
      <trkpt lat="44.83316" lon="5.57904">
        <ele>1035</ele>
        <time>2013-09-14T16:01:03.001Z</time>
      </trkpt>
      <trkpt lat="44.83316" lon="5.57904">
        <ele>1035</ele>
        <time>2013-09-14T16:01:04.001Z</time>
      </trkpt>
      <trkpt lat="44.8332" lon="5.57906">
        <ele>1034</ele>
        <time>2013-09-14T16:01:05.001Z</time>
      </trkpt>
      <trkpt lat="44.8332" lon="5.57906">
        <ele>1034</ele>
        <time>2013-09-14T16:01:05.001Z</time>
      </trkpt>
      <trkpt lat="44.8332" lon="5.57906">
        <ele>1034</ele>
        <time>2013-09-14T16:01:08.001Z</time>
      </trkpt>
      <trkpt lat="44.83328" lon="5.57908">
        <ele>1033</ele>
        <time>2013-09-14T16:01:09.001Z</time>
      </trkpt>
      <trkpt lat="44.83328" lon="5.57908">
        <ele>1033</ele>
        <time>2013-09-14T16:01:09.001Z</time>
      </trkpt>
      <trkpt lat="44.83328" lon="5.57908">
        <ele>1033</ele>
        <time>2013-09-14T16:01:10.001Z</time>
      </trkpt>
      <trkpt lat="44.83334" lon="5.57908">
        <ele>1033</ele>
        <time>2013-09-14T16:01:11.001Z</time>
      </trkpt>
      <trkpt lat="44.83334" lon="5.57908">
        <ele>1033</ele>
        <time>2013-09-14T16:01:11.001Z</time>
      </trkpt>
      <trkpt lat="44.83334" lon="5.57908">
        <ele>1033</ele>
        <time>2013-09-14T16:01:15.001Z</time>
      </trkpt>
      <trkpt lat="44.83344" lon="5.57908">
        <ele>1031</ele>
        <time>2013-09-14T16:01:16.001Z</time>
      </trkpt>
      <trkpt lat="44.83344" lon="5.57908">
        <ele>1031</ele>
        <time>2013-09-14T16:01:16.001Z</time>
      </trkpt>
      <trkpt lat="44.83344" lon="5.57908">
        <ele>1031</ele>
        <time>2013-09-14T16:01:20.001Z</time>
      </trkpt>
      <trkpt lat="44.8335" lon="5.57919">
        <ele>1030</ele>
        <time>2013-09-14T16:01:21.001Z</time>
      </trkpt>
      <trkpt lat="44.8335" lon="5.57919">
        <ele>1030</ele>
        <time>2013-09-14T16:01:21.001Z</time>
      </trkpt>
      <trkpt lat="44.8335" lon="5.57919">
        <ele>1030</ele>
        <time>2013-09-14T16:01:24.001Z</time>
      </trkpt>
      <trkpt lat="44.83355" lon="5.5793">
        <ele>1029</ele>
        <time>2013-09-14T16:01:25.001Z</time>
      </trkpt>
      <trkpt lat="44.83355" lon="5.5793">
        <ele>1029</ele>
        <time>2013-09-14T16:01:25.001Z</time>
      </trkpt>
      <trkpt lat="44.83355" lon="5.5793">
        <ele>1029</ele>
        <time>2013-09-14T16:01:28.001Z</time>
      </trkpt>
      <trkpt lat="44.83362" lon="5.5794">
        <ele>1029</ele>
        <time>2013-09-14T16:01:29.001Z</time>
      </trkpt>
      <trkpt lat="44.83362" lon="5.5794">
        <ele>1029</ele>
        <time>2013-09-14T16:01:29.001Z</time>
      </trkpt>
      <trkpt lat="44.83362" lon="5.5794">
        <ele>1029</ele>
        <time>2013-09-14T16:01:30.001Z</time>
      </trkpt>
      <trkpt lat="44.83366" lon="5.57944">
        <ele>1029</ele>
        <time>2013-09-14T16:01:31.001Z</time>
      </trkpt>
      <trkpt lat="44.8337" lon="5.57947">
        <ele>1029</ele>
        <time>2013-09-14T16:01:33.001Z</time>
      </trkpt>
      <trkpt lat="44.8338" lon="5.57953">
        <ele>1029</ele>
        <time>2013-09-14T16:01:37.001Z</time>
      </trkpt>
      <trkpt lat="44.8338" lon="5.57953">
        <ele>1029</ele>
        <time>2013-09-14T16:01:37.001Z</time>
      </trkpt>
      <trkpt lat="44.8338" lon="5.57953">
        <ele>1029</ele>
        <time>2013-09-14T16:01:38.001Z</time>
      </trkpt>
      <trkpt lat="44.83384" lon="5.57955">
        <ele>1029</ele>
        <time>2013-09-14T16:01:39.001Z</time>
      </trkpt>
      <trkpt lat="44.83384" lon="5.57955">
        <ele>1029</ele>
        <time>2013-09-14T16:01:39.001Z</time>
      </trkpt>
      <trkpt lat="44.83384" lon="5.57955">
        <ele>1029</ele>
        <time>2013-09-14T16:01:41.001Z</time>
      </trkpt>
      <trkpt lat="44.83391" lon="5.57957">
        <ele>1029</ele>
        <time>2013-09-14T16:01:42.001Z</time>
      </trkpt>
      <trkpt lat="44.83391" lon="5.57957">
        <ele>1029</ele>
        <time>2013-09-14T16:01:42.001Z</time>
      </trkpt>
      <trkpt lat="44.83391" lon="5.57957">
        <ele>1029</ele>
        <time>2013-09-14T16:01:46.001Z</time>
      </trkpt>
      <trkpt lat="44.834" lon="5.5796">
        <ele>1029</ele>
        <time>2013-09-14T16:01:47.001Z</time>
      </trkpt>
      <trkpt lat="44.834" lon="5.5796">
        <ele>1029</ele>
        <time>2013-09-14T16:01:47.001Z</time>
      </trkpt>
      <trkpt lat="44.834" lon="5.5796">
        <ele>1029</ele>
        <time>2013-09-14T16:01:49.001Z</time>
      </trkpt>
      <trkpt lat="44.83406" lon="5.57962">
        <ele>1029</ele>
        <time>2013-09-14T16:01:50.001Z</time>
      </trkpt>
      <trkpt lat="44.83406" lon="5.57962">
        <ele>1029</ele>
        <time>2013-09-14T16:01:50.001Z</time>
      </trkpt>
      <trkpt lat="44.83406" lon="5.57962">
        <ele>1029</ele>
        <time>2013-09-14T16:01:52.001Z</time>
      </trkpt>
      <trkpt lat="44.8341" lon="5.57966">
        <ele>1029</ele>
        <time>2013-09-14T16:01:53.001Z</time>
      </trkpt>
      <trkpt lat="44.8341" lon="5.57966">
        <ele>1029</ele>
        <time>2013-09-14T16:01:53.001Z</time>
      </trkpt>
      <trkpt lat="44.8341" lon="5.57966">
        <ele>1029</ele>
        <time>2013-09-14T16:01:57.001Z</time>
      </trkpt>
      <trkpt lat="44.83416" lon="5.5797">
        <ele>1029</ele>
        <time>2013-09-14T16:01:58.001Z</time>
      </trkpt>
      <trkpt lat="44.83416" lon="5.5797">
        <ele>1029</ele>
        <time>2013-09-14T16:01:58.001Z</time>
      </trkpt>
      <trkpt lat="44.83416" lon="5.5797">
        <ele>1029</ele>
        <time>2013-09-14T16:02:05.001Z</time>
      </trkpt>
      <trkpt lat="44.83423" lon="5.57974">
        <ele>1029</ele>
        <time>2013-09-14T16:02:06.001Z</time>
      </trkpt>
      <trkpt lat="44.83423" lon="5.57974">
        <ele>1029</ele>
        <time>2013-09-14T16:02:06.001Z</time>
      </trkpt>
      <trkpt lat="44.83423" lon="5.57974">
        <ele>1029</ele>
        <time>2013-09-14T16:02:11.001Z</time>
      </trkpt>
      <trkpt lat="44.83428" lon="5.57977">
        <ele>1030</ele>
        <time>2013-09-14T16:02:12.001Z</time>
      </trkpt>
      <trkpt lat="44.83428" lon="5.57977">
        <ele>1030</ele>
        <time>2013-09-14T16:02:12.001Z</time>
      </trkpt>
      <trkpt lat="44.83428" lon="5.57977">
        <ele>1030</ele>
        <time>2013-09-14T16:02:14.001Z</time>
      </trkpt>
      <trkpt lat="44.83432" lon="5.57979">
        <ele>1031</ele>
        <time>2013-09-14T16:02:18.001Z</time>
      </trkpt>
      <trkpt lat="44.83437" lon="5.57981">
        <ele>1032</ele>
        <time>2013-09-14T16:02:24.001Z</time>
      </trkpt>
      <trkpt lat="44.83441" lon="5.57985">
        <ele>1033</ele>
        <time>2013-09-14T16:02:31.001Z</time>
      </trkpt>
      <trkpt lat="44.83445" lon="5.57987">
        <ele>1034</ele>
        <time>2013-09-14T16:02:37.001Z</time>
      </trkpt>
      <trkpt lat="44.83445" lon="5.57987">
        <ele>1034</ele>
        <time>2013-09-14T16:02:37.001Z</time>
      </trkpt>
      <trkpt lat="44.83445" lon="5.57987">
        <ele>1034</ele>
        <time>2013-09-14T16:02:40.001Z</time>
      </trkpt>
      <trkpt lat="44.8345" lon="5.57992">
        <ele>1035</ele>
        <time>2013-09-14T16:02:50.001Z</time>
      </trkpt>
      <trkpt lat="44.8345" lon="5.57992">
        <ele>1035</ele>
        <time>2013-09-14T16:02:50.001Z</time>
      </trkpt>
      <trkpt lat="44.8345" lon="5.57992">
        <ele>1036</ele>
        <time>2013-09-14T16:02:51.001Z</time>
      </trkpt>
      <trkpt lat="44.83453" lon="5.57996">
        <ele>1036</ele>
        <time>2013-09-14T16:02:56.001Z</time>
      </trkpt>
      <trkpt lat="44.83453" lon="5.57996">
        <ele>1036</ele>
        <time>2013-09-14T16:02:56.001Z</time>
      </trkpt>
      <trkpt lat="44.83453" lon="5.57996">
        <ele>1036</ele>
        <time>2013-09-14T16:02:57.001Z</time>
      </trkpt>
      <trkpt lat="44.83457" lon="5.57998">
        <ele>1037</ele>
        <time>2013-09-14T16:03:05.001Z</time>
      </trkpt>
      <trkpt lat="44.83457" lon="5.57998">
        <ele>1037</ele>
        <time>2013-09-14T16:03:05.001Z</time>
      </trkpt>
      <trkpt lat="44.83457" lon="5.57998">
        <ele>1037</ele>
        <time>2013-09-14T16:03:06.001Z</time>
      </trkpt>
      <trkpt lat="44.83459" lon="5.57992">
        <ele>1037</ele>
        <time>2013-09-14T16:03:17.001Z</time>
      </trkpt>
      <trkpt lat="44.83464" lon="5.57987">
        <ele>1038</ele>
        <time>2013-09-14T16:03:28.001Z</time>
      </trkpt>
      <trkpt lat="44.83464" lon="5.57987">
        <ele>1038</ele>
        <time>2013-09-14T16:03:28.001Z</time>
      </trkpt>
      <trkpt lat="44.83464" lon="5.57987">
        <ele>1038</ele>
        <time>2013-09-14T16:03:31.001Z</time>
      </trkpt>
      <trkpt lat="44.83465" lon="5.57994">
        <ele>1038</ele>
        <time>2013-09-14T16:03:35.001Z</time>
      </trkpt>
      <trkpt lat="44.83466" lon="5.58">
        <ele>1039</ele>
        <time>2013-09-14T16:03:38.001Z</time>
      </trkpt>
      <trkpt lat="44.83466" lon="5.58007">
        <ele>1039</ele>
        <time>2013-09-14T16:03:41.001Z</time>
      </trkpt>
      <trkpt lat="44.83464" lon="5.58013">
        <ele>1039</ele>
        <time>2013-09-14T16:03:44.001Z</time>
      </trkpt>
      <trkpt lat="44.8346" lon="5.5802">
        <ele>1039</ele>
        <time>2013-09-14T16:03:47.001Z</time>
      </trkpt>
      <trkpt lat="44.83455" lon="5.58026">
        <ele>1040</ele>
        <time>2013-09-14T16:03:51.001Z</time>
      </trkpt>
      <trkpt lat="44.83452" lon="5.58032">
        <ele>1040</ele>
        <time>2013-09-14T16:03:54.001Z</time>
      </trkpt>
      <trkpt lat="44.83449" lon="5.58041">
        <ele>1040</ele>
        <time>2013-09-14T16:03:57.001Z</time>
      </trkpt>
      <trkpt lat="44.83449" lon="5.58048">
        <ele>1040</ele>
        <time>2013-09-14T16:04:00.001Z</time>
      </trkpt>
      <trkpt lat="44.83452" lon="5.58056">
        <ele>1040</ele>
        <time>2013-09-14T16:04:03.001Z</time>
      </trkpt>
      <trkpt lat="44.83457" lon="5.5806">
        <ele>1041</ele>
        <time>2013-09-14T16:04:06.001Z</time>
      </trkpt>
      <trkpt lat="44.83462" lon="5.58062">
        <ele>1041</ele>
        <time>2013-09-14T16:04:08.001Z</time>
      </trkpt>
      <trkpt lat="44.83468" lon="5.58062">
        <ele>1041</ele>
        <time>2013-09-14T16:04:10.001Z</time>
      </trkpt>
      <trkpt lat="44.83472" lon="5.58065">
        <ele>1041</ele>
        <time>2013-09-14T16:04:12.001Z</time>
      </trkpt>
      <trkpt lat="44.83476" lon="5.58067">
        <ele>1041</ele>
        <time>2013-09-14T16:04:14.001Z</time>
      </trkpt>
      <trkpt lat="44.83481" lon="5.58069">
        <ele>1042</ele>
        <time>2013-09-14T16:04:16.001Z</time>
      </trkpt>
      <trkpt lat="44.83485" lon="5.58073">
        <ele>1042</ele>
        <time>2013-09-14T16:04:19.001Z</time>
      </trkpt>
      <trkpt lat="44.83489" lon="5.5808">
        <ele>1042</ele>
        <time>2013-09-14T16:04:22.001Z</time>
      </trkpt>
      <trkpt lat="44.83493" lon="5.58088">
        <ele>1042</ele>
        <time>2013-09-14T16:04:25.001Z</time>
      </trkpt>
      <trkpt lat="44.83495" lon="5.58095">
        <ele>1043</ele>
        <time>2013-09-14T16:04:28.001Z</time>
      </trkpt>
      <trkpt lat="44.83497" lon="5.58101">
        <ele>1043</ele>
        <time>2013-09-14T16:04:30.001Z</time>
      </trkpt>
      <trkpt lat="44.83501" lon="5.58108">
        <ele>1043</ele>
        <time>2013-09-14T16:04:33.001Z</time>
      </trkpt>
      <trkpt lat="44.83506" lon="5.58112">
        <ele>1043</ele>
        <time>2013-09-14T16:04:36.001Z</time>
      </trkpt>
      <trkpt lat="44.83511" lon="5.58114">
        <ele>1043</ele>
        <time>2013-09-14T16:04:38.001Z</time>
      </trkpt>
      <trkpt lat="44.83515" lon="5.58116">
        <ele>1043</ele>
        <time>2013-09-14T16:04:40.001Z</time>
      </trkpt>
      <trkpt lat="44.8352" lon="5.58116">
        <ele>1043</ele>
        <time>2013-09-14T16:04:42.001Z</time>
      </trkpt>
      <trkpt lat="44.83525" lon="5.58112">
        <ele>1043</ele>
        <time>2013-09-14T16:04:44.001Z</time>
      </trkpt>
      <trkpt lat="44.8353" lon="5.58108">
        <ele>1043</ele>
        <time>2013-09-14T16:04:47.001Z</time>
      </trkpt>
      <trkpt lat="44.83536" lon="5.58103">
        <ele>1043</ele>
        <time>2013-09-14T16:04:50.001Z</time>
      </trkpt>
      <trkpt lat="44.8354" lon="5.58097">
        <ele>1044</ele>
        <time>2013-09-14T16:04:53.001Z</time>
      </trkpt>
      <trkpt lat="44.83545" lon="5.5809">
        <ele>1044</ele>
        <time>2013-09-14T16:04:56.001Z</time>
      </trkpt>
      <trkpt lat="44.83549" lon="5.58084">
        <ele>1044</ele>
        <time>2013-09-14T16:04:59.001Z</time>
      </trkpt>
      <trkpt lat="44.83554" lon="5.5808">
        <ele>1044</ele>
        <time>2013-09-14T16:05:01.001Z</time>
      </trkpt>
      <trkpt lat="44.83558" lon="5.58075">
        <ele>1044</ele>
        <time>2013-09-14T16:05:04.001Z</time>
      </trkpt>
      <trkpt lat="44.83563" lon="5.58069">
        <ele>1045</ele>
        <time>2013-09-14T16:05:07.001Z</time>
      </trkpt>
      <trkpt lat="44.83569" lon="5.58065">
        <ele>1045</ele>
        <time>2013-09-14T16:05:10.001Z</time>
      </trkpt>
      <trkpt lat="44.83573" lon="5.5806">
        <ele>1045</ele>
        <time>2013-09-14T16:05:13.001Z</time>
      </trkpt>
      <trkpt lat="44.83578" lon="5.58056">
        <ele>1045</ele>
        <time>2013-09-14T16:05:16.001Z</time>
      </trkpt>
      <trkpt lat="44.83584" lon="5.58054">
        <ele>1046</ele>
        <time>2013-09-14T16:05:19.001Z</time>
      </trkpt>
      <trkpt lat="44.83589" lon="5.58052">
        <ele>1046</ele>
        <time>2013-09-14T16:05:22.001Z</time>
      </trkpt>
      <trkpt lat="44.83594" lon="5.5805">
        <ele>1046</ele>
        <time>2013-09-14T16:05:25.001Z</time>
      </trkpt>
      <trkpt lat="44.836" lon="5.58048">
        <ele>1047</ele>
        <time>2013-09-14T16:05:28.001Z</time>
      </trkpt>
      <trkpt lat="44.83605" lon="5.58043">
        <ele>1047</ele>
        <time>2013-09-14T16:05:31.001Z</time>
      </trkpt>
      <trkpt lat="44.83611" lon="5.58041">
        <ele>1047</ele>
        <time>2013-09-14T16:05:34.001Z</time>
      </trkpt>
      <trkpt lat="44.83617" lon="5.58041">
        <ele>1048</ele>
        <time>2013-09-14T16:05:37.001Z</time>
      </trkpt>
      <trkpt lat="44.83621" lon="5.58039">
        <ele>1048</ele>
        <time>2013-09-14T16:05:39.001Z</time>
      </trkpt>
      <trkpt lat="44.83628" lon="5.58039">
        <ele>1048</ele>
        <time>2013-09-14T16:05:42.001Z</time>
      </trkpt>
      <trkpt lat="44.83635" lon="5.58039">
        <ele>1049</ele>
        <time>2013-09-14T16:05:45.001Z</time>
      </trkpt>
      <trkpt lat="44.83642" lon="5.58039">
        <ele>1049</ele>
        <time>2013-09-14T16:05:48.001Z</time>
      </trkpt>
      <trkpt lat="44.83647" lon="5.58039">
        <ele>1049</ele>
        <time>2013-09-14T16:05:50.001Z</time>
      </trkpt>
      <trkpt lat="44.83655" lon="5.58039">
        <ele>1049</ele>
        <time>2013-09-14T16:05:53.001Z</time>
      </trkpt>
      <trkpt lat="44.83661" lon="5.58039">
        <ele>1050</ele>
        <time>2013-09-14T16:05:56.001Z</time>
      </trkpt>
      <trkpt lat="44.83666" lon="5.58039">
        <ele>1050</ele>
        <time>2013-09-14T16:05:58.001Z</time>
      </trkpt>
      <trkpt lat="44.83673" lon="5.58041">
        <ele>1050</ele>
        <time>2013-09-14T16:06:01.001Z</time>
      </trkpt>
      <trkpt lat="44.83678" lon="5.58043">
        <ele>1050</ele>
        <time>2013-09-14T16:06:04.001Z</time>
      </trkpt>
      <trkpt lat="44.83682" lon="5.58045">
        <ele>1050</ele>
        <time>2013-09-14T16:06:06.001Z</time>
      </trkpt>
      <trkpt lat="44.83687" lon="5.5805">
        <ele>1051</ele>
        <time>2013-09-14T16:06:09.001Z</time>
      </trkpt>
      <trkpt lat="44.83692" lon="5.58054">
        <ele>1051</ele>
        <time>2013-09-14T16:06:12.001Z</time>
      </trkpt>
      <trkpt lat="44.83696" lon="5.58058">
        <ele>1051</ele>
        <time>2013-09-14T16:06:15.001Z</time>
      </trkpt>
      <trkpt lat="44.837" lon="5.58062">
        <ele>1051</ele>
        <time>2013-09-14T16:06:17.001Z</time>
      </trkpt>
      <trkpt lat="44.83703" lon="5.58067">
        <ele>1051</ele>
        <time>2013-09-14T16:06:19.001Z</time>
      </trkpt>
      <trkpt lat="44.83706" lon="5.58071">
        <ele>1051</ele>
        <time>2013-09-14T16:06:21.001Z</time>
      </trkpt>
      <trkpt lat="44.83711" lon="5.58075">
        <ele>1051</ele>
        <time>2013-09-14T16:06:24.001Z</time>
      </trkpt>
      <trkpt lat="44.83717" lon="5.58078">
        <ele>1052</ele>
        <time>2013-09-14T16:06:27.001Z</time>
      </trkpt>
      <trkpt lat="44.83721" lon="5.5808">
        <ele>1052</ele>
        <time>2013-09-14T16:06:29.001Z</time>
      </trkpt>
      <trkpt lat="44.83726" lon="5.5808">
        <ele>1052</ele>
        <time>2013-09-14T16:06:31.001Z</time>
      </trkpt>
      <trkpt lat="44.83733" lon="5.5808">
        <ele>1052</ele>
        <time>2013-09-14T16:06:34.001Z</time>
      </trkpt>
      <trkpt lat="44.83737" lon="5.58075">
        <ele>1052</ele>
        <time>2013-09-14T16:06:36.001Z</time>
      </trkpt>
      <trkpt lat="44.83742" lon="5.58071">
        <ele>1052</ele>
        <time>2013-09-14T16:06:38.001Z</time>
      </trkpt>
      <trkpt lat="44.83746" lon="5.58065">
        <ele>1052</ele>
        <time>2013-09-14T16:06:40.001Z</time>
      </trkpt>
      <trkpt lat="44.83748" lon="5.58058">
        <ele>1052</ele>
        <time>2013-09-14T16:06:42.001Z</time>
      </trkpt>
      <trkpt lat="44.8375" lon="5.58052">
        <ele>1053</ele>
        <time>2013-09-14T16:06:44.001Z</time>
      </trkpt>
      <trkpt lat="44.83751" lon="5.58045">
        <ele>1053</ele>
        <time>2013-09-14T16:06:46.001Z</time>
      </trkpt>
      <trkpt lat="44.83752" lon="5.58039">
        <ele>1053</ele>
        <time>2013-09-14T16:06:48.001Z</time>
      </trkpt>
      <trkpt lat="44.83753" lon="5.5803">
        <ele>1053</ele>
        <time>2013-09-14T16:06:50.001Z</time>
      </trkpt>
      <trkpt lat="44.83753" lon="5.58024">
        <ele>1053</ele>
        <time>2013-09-14T16:06:52.001Z</time>
      </trkpt>
      <trkpt lat="44.83753" lon="5.58015">
        <ele>1053</ele>
        <time>2013-09-14T16:06:54.001Z</time>
      </trkpt>
      <trkpt lat="44.83752" lon="5.58009">
        <ele>1053</ele>
        <time>2013-09-14T16:06:56.001Z</time>
      </trkpt>
      <trkpt lat="44.83751" lon="5.58002">
        <ele>1053</ele>
        <time>2013-09-14T16:06:58.001Z</time>
      </trkpt>
      <trkpt lat="44.83749" lon="5.57996">
        <ele>1053</ele>
        <time>2013-09-14T16:07:00.001Z</time>
      </trkpt>
      <trkpt lat="44.83747" lon="5.57987">
        <ele>1053</ele>
        <time>2013-09-14T16:07:03.001Z</time>
      </trkpt>
      <trkpt lat="44.83746" lon="5.57981">
        <ele>1053</ele>
        <time>2013-09-14T16:07:05.001Z</time>
      </trkpt>
      <trkpt lat="44.83745" lon="5.57974">
        <ele>1053</ele>
        <time>2013-09-14T16:07:07.001Z</time>
      </trkpt>
      <trkpt lat="44.83745" lon="5.57968">
        <ele>1053</ele>
        <time>2013-09-14T16:07:09.001Z</time>
      </trkpt>
      <trkpt lat="44.83745" lon="5.57962">
        <ele>1053</ele>
        <time>2013-09-14T16:07:11.001Z</time>
      </trkpt>
      <trkpt lat="44.83746" lon="5.57955">
        <ele>1053</ele>
        <time>2013-09-14T16:07:13.001Z</time>
      </trkpt>
      <trkpt lat="44.83747" lon="5.57949">
        <ele>1053</ele>
        <time>2013-09-14T16:07:15.001Z</time>
      </trkpt>
      <trkpt lat="44.8375" lon="5.5794">
        <ele>1053</ele>
        <time>2013-09-14T16:07:18.001Z</time>
      </trkpt>
      <trkpt lat="44.83754" lon="5.57938">
        <ele>1053</ele>
        <time>2013-09-14T16:07:35.001Z</time>
      </trkpt>
      <trkpt lat="44.83754" lon="5.57938">
        <ele>1053</ele>
        <time>2013-09-14T16:07:35.001Z</time>
      </trkpt>
      <trkpt lat="44.83754" lon="5.57938">
        <ele>1053</ele>
        <time>2013-09-14T16:07:36.001Z</time>
      </trkpt>
      <trkpt lat="44.83759" lon="5.57932">
        <ele>1055</ele>
        <time>2013-09-14T16:07:42.001Z</time>
      </trkpt>
      <trkpt lat="44.83761" lon="5.57925">
        <ele>1056</ele>
        <time>2013-09-14T16:07:55.001Z</time>
      </trkpt>
      <trkpt lat="44.83765" lon="5.57921">
        <ele>1057</ele>
        <time>2013-09-14T16:07:57.001Z</time>
      </trkpt>
      <trkpt lat="44.83769" lon="5.57917">
        <ele>1057</ele>
        <time>2013-09-14T16:07:59.001Z</time>
      </trkpt>
      <trkpt lat="44.83774" lon="5.57912">
        <ele>1058</ele>
        <time>2013-09-14T16:08:01.001Z</time>
      </trkpt>
      <trkpt lat="44.83779" lon="5.57904">
        <ele>1058</ele>
        <time>2013-09-14T16:08:04.001Z</time>
      </trkpt>
      <trkpt lat="44.83784" lon="5.57897">
        <ele>1059</ele>
        <time>2013-09-14T16:08:07.001Z</time>
      </trkpt>
      <trkpt lat="44.83789" lon="5.57893">
        <ele>1060</ele>
        <time>2013-09-14T16:08:09.001Z</time>
      </trkpt>
      <trkpt lat="44.83794" lon="5.57889">
        <ele>1060</ele>
        <time>2013-09-14T16:08:12.001Z</time>
      </trkpt>
      <trkpt lat="44.83799" lon="5.57884">
        <ele>1061</ele>
        <time>2013-09-14T16:08:15.001Z</time>
      </trkpt>
      <trkpt lat="44.83805" lon="5.57882">
        <ele>1062</ele>
        <time>2013-09-14T16:08:18.001Z</time>
      </trkpt>
      <trkpt lat="44.8381" lon="5.5788">
        <ele>1063</ele>
        <time>2013-09-14T16:08:21.001Z</time>
      </trkpt>
      <trkpt lat="44.83816" lon="5.5788">
        <ele>1064</ele>
        <time>2013-09-14T16:08:24.001Z</time>
      </trkpt>
      <trkpt lat="44.83822" lon="5.5788">
        <ele>1064</ele>
        <time>2013-09-14T16:08:27.001Z</time>
      </trkpt>
      <trkpt lat="44.83828" lon="5.5788">
        <ele>1065</ele>
        <time>2013-09-14T16:08:30.001Z</time>
      </trkpt>
      <trkpt lat="44.83834" lon="5.57882">
        <ele>1065</ele>
        <time>2013-09-14T16:08:32.001Z</time>
      </trkpt>
      <trkpt lat="44.83839" lon="5.57882">
        <ele>1065</ele>
        <time>2013-09-14T16:08:34.001Z</time>
      </trkpt>
      <trkpt lat="44.83844" lon="5.57884">
        <ele>1066</ele>
        <time>2013-09-14T16:08:36.001Z</time>
      </trkpt>
      <trkpt lat="44.8385" lon="5.57884">
        <ele>1066</ele>
        <time>2013-09-14T16:08:38.001Z</time>
      </trkpt>
      <trkpt lat="44.83854" lon="5.57887">
        <ele>1066</ele>
        <time>2013-09-14T16:08:40.001Z</time>
      </trkpt>
      <trkpt lat="44.83858" lon="5.57889">
        <ele>1067</ele>
        <time>2013-09-14T16:08:42.001Z</time>
      </trkpt>
      <trkpt lat="44.83864" lon="5.57891">
        <ele>1067</ele>
        <time>2013-09-14T16:08:44.001Z</time>
      </trkpt>
      <trkpt lat="44.83868" lon="5.57893">
        <ele>1067</ele>
        <time>2013-09-14T16:08:46.001Z</time>
      </trkpt>
      <trkpt lat="44.83873" lon="5.57895">
        <ele>1068</ele>
        <time>2013-09-14T16:08:48.001Z</time>
      </trkpt>
      <trkpt lat="44.8388" lon="5.57897">
        <ele>1068</ele>
        <time>2013-09-14T16:08:50.001Z</time>
      </trkpt>
      <trkpt lat="44.83886" lon="5.57899">
        <ele>1068</ele>
        <time>2013-09-14T16:08:52.001Z</time>
      </trkpt>
      <trkpt lat="44.83893" lon="5.57902">
        <ele>1068</ele>
        <time>2013-09-14T16:08:54.001Z</time>
      </trkpt>
      <trkpt lat="44.83898" lon="5.57904">
        <ele>1069</ele>
        <time>2013-09-14T16:08:56.001Z</time>
      </trkpt>
      <trkpt lat="44.83904" lon="5.57904">
        <ele>1069</ele>
        <time>2013-09-14T16:08:58.001Z</time>
      </trkpt>
      <trkpt lat="44.8391" lon="5.57906">
        <ele>1069</ele>
        <time>2013-09-14T16:09:00.001Z</time>
      </trkpt>
      <trkpt lat="44.83916" lon="5.57906">
        <ele>1069</ele>
        <time>2013-09-14T16:09:03.001Z</time>
      </trkpt>
      <trkpt lat="44.83921" lon="5.57908">
        <ele>1070</ele>
        <time>2013-09-14T16:09:05.001Z</time>
      </trkpt>
      <trkpt lat="44.83926" lon="5.5791">
        <ele>1070</ele>
        <time>2013-09-14T16:09:07.001Z</time>
      </trkpt>
      <trkpt lat="44.83932" lon="5.57917">
        <ele>1071</ele>
        <time>2013-09-14T16:09:09.001Z</time>
      </trkpt>
      <trkpt lat="44.8394" lon="5.57921">
        <ele>1072</ele>
        <time>2013-09-14T16:09:11.001Z</time>
      </trkpt>
      <trkpt lat="44.83944" lon="5.57923">
        <ele>1073</ele>
        <time>2013-09-14T16:09:12.001Z</time>
      </trkpt>
      <trkpt lat="44.83952" lon="5.57927">
        <ele>1074</ele>
        <time>2013-09-14T16:09:14.001Z</time>
      </trkpt>
      <trkpt lat="44.83956" lon="5.5793">
        <ele>1074</ele>
        <time>2013-09-14T16:09:15.001Z</time>
      </trkpt>
      <trkpt lat="44.8396" lon="5.57932">
        <ele>1075</ele>
        <time>2013-09-14T16:09:16.001Z</time>
      </trkpt>
      <trkpt lat="44.83965" lon="5.57934">
        <ele>1075</ele>
        <time>2013-09-14T16:09:17.001Z</time>
      </trkpt>
      <trkpt lat="44.83969" lon="5.57936">
        <ele>1074</ele>
        <time>2013-09-14T16:09:18.001Z</time>
      </trkpt>
      <trkpt lat="44.83973" lon="5.57938">
        <ele>1074</ele>
        <time>2013-09-14T16:09:19.001Z</time>
      </trkpt>
      <trkpt lat="44.83978" lon="5.5794">
        <ele>1074</ele>
        <time>2013-09-14T16:09:20.001Z</time>
      </trkpt>
      <trkpt lat="44.83982" lon="5.57942">
        <ele>1074</ele>
        <time>2013-09-14T16:09:21.001Z</time>
      </trkpt>
      <trkpt lat="44.83986" lon="5.57947">
        <ele>1074</ele>
        <time>2013-09-14T16:09:22.001Z</time>
      </trkpt>
      <trkpt lat="44.8399" lon="5.57949">
        <ele>1074</ele>
        <time>2013-09-14T16:09:23.001Z</time>
      </trkpt>
      <trkpt lat="44.83996" lon="5.57951">
        <ele>1074</ele>
        <time>2013-09-14T16:09:24.001Z</time>
      </trkpt>
      <trkpt lat="44.84001" lon="5.57953">
        <ele>1073</ele>
        <time>2013-09-14T16:09:25.001Z</time>
      </trkpt>
      <trkpt lat="44.84005" lon="5.57955">
        <ele>1073</ele>
        <time>2013-09-14T16:09:26.001Z</time>
      </trkpt>
      <trkpt lat="44.84011" lon="5.5796">
        <ele>1073</ele>
        <time>2013-09-14T16:09:27.001Z</time>
      </trkpt>
      <trkpt lat="44.84016" lon="5.57966">
        <ele>1073</ele>
        <time>2013-09-14T16:09:28.001Z</time>
      </trkpt>
      <trkpt lat="44.8402" lon="5.5797">
        <ele>1073</ele>
        <time>2013-09-14T16:09:29.001Z</time>
      </trkpt>
      <trkpt lat="44.84026" lon="5.57974">
        <ele>1073</ele>
        <time>2013-09-14T16:09:30.001Z</time>
      </trkpt>
      <trkpt lat="44.8403" lon="5.57981">
        <ele>1073</ele>
        <time>2013-09-14T16:09:31.001Z</time>
      </trkpt>
      <trkpt lat="44.84035" lon="5.57985">
        <ele>1072</ele>
        <time>2013-09-14T16:09:32.001Z</time>
      </trkpt>
      <trkpt lat="44.8404" lon="5.5799">
        <ele>1072</ele>
        <time>2013-09-14T16:09:33.001Z</time>
      </trkpt>
      <trkpt lat="44.84045" lon="5.57994">
        <ele>1072</ele>
        <time>2013-09-14T16:09:34.001Z</time>
      </trkpt>
      <trkpt lat="44.84049" lon="5.57998">
        <ele>1072</ele>
        <time>2013-09-14T16:09:35.001Z</time>
      </trkpt>
      <trkpt lat="44.84055" lon="5.58002">
        <ele>1072</ele>
        <time>2013-09-14T16:09:36.001Z</time>
      </trkpt>
      <trkpt lat="44.84059" lon="5.58007">
        <ele>1072</ele>
        <time>2013-09-14T16:09:37.001Z</time>
      </trkpt>
      <trkpt lat="44.84064" lon="5.58009">
        <ele>1071</ele>
        <time>2013-09-14T16:09:38.001Z</time>
      </trkpt>
      <trkpt lat="44.84069" lon="5.58013">
        <ele>1071</ele>
        <time>2013-09-14T16:09:39.001Z</time>
      </trkpt>
      <trkpt lat="44.84074" lon="5.58017">
        <ele>1072</ele>
        <time>2013-09-14T16:09:40.001Z</time>
      </trkpt>
      <trkpt lat="44.84078" lon="5.58022">
        <ele>1071</ele>
        <time>2013-09-14T16:09:41.001Z</time>
      </trkpt>
      <trkpt lat="44.84084" lon="5.58026">
        <ele>1071</ele>
        <time>2013-09-14T16:09:42.001Z</time>
      </trkpt>
      <trkpt lat="44.84088" lon="5.58028">
        <ele>1071</ele>
        <time>2013-09-14T16:09:43.001Z</time>
      </trkpt>
      <trkpt lat="44.84093" lon="5.58032">
        <ele>1071</ele>
        <time>2013-09-14T16:09:44.001Z</time>
      </trkpt>
      <trkpt lat="44.84099" lon="5.58037">
        <ele>1070</ele>
        <time>2013-09-14T16:09:45.001Z</time>
      </trkpt>
      <trkpt lat="44.84104" lon="5.58041">
        <ele>1070</ele>
        <time>2013-09-14T16:09:46.001Z</time>
      </trkpt>
      <trkpt lat="44.8411" lon="5.58045">
        <ele>1070</ele>
        <time>2013-09-14T16:09:47.001Z</time>
      </trkpt>
      <trkpt lat="44.84116" lon="5.5805">
        <ele>1069</ele>
        <time>2013-09-14T16:09:48.001Z</time>
      </trkpt>
      <trkpt lat="44.84121" lon="5.58052">
        <ele>1070</ele>
        <time>2013-09-14T16:09:49.001Z</time>
      </trkpt>
      <trkpt lat="44.84128" lon="5.58056">
        <ele>1070</ele>
        <time>2013-09-14T16:09:50.001Z</time>
      </trkpt>
      <trkpt lat="44.84133" lon="5.58058">
        <ele>1070</ele>
        <time>2013-09-14T16:09:51.001Z</time>
      </trkpt>
      <trkpt lat="44.8414" lon="5.58062">
        <ele>1070</ele>
        <time>2013-09-14T16:09:52.001Z</time>
      </trkpt>
      <trkpt lat="44.84146" lon="5.58065">
        <ele>1070</ele>
        <time>2013-09-14T16:09:53.001Z</time>
      </trkpt>
      <trkpt lat="44.84154" lon="5.58067">
        <ele>1070</ele>
        <time>2013-09-14T16:09:54.001Z</time>
      </trkpt>
      <trkpt lat="44.8416" lon="5.58069">
        <ele>1069</ele>
        <time>2013-09-14T16:09:55.001Z</time>
      </trkpt>
      <trkpt lat="44.84166" lon="5.58071">
        <ele>1069</ele>
        <time>2013-09-14T16:09:56.001Z</time>
      </trkpt>
      <trkpt lat="44.84174" lon="5.58075">
        <ele>1069</ele>
        <time>2013-09-14T16:09:57.001Z</time>
      </trkpt>
      <trkpt lat="44.84181" lon="5.58078">
        <ele>1069</ele>
        <time>2013-09-14T16:09:58.001Z</time>
      </trkpt>
      <trkpt lat="44.8419" lon="5.5808">
        <ele>1069</ele>
        <time>2013-09-14T16:09:59.001Z</time>
      </trkpt>
      <trkpt lat="44.84198" lon="5.58084">
        <ele>1068</ele>
        <time>2013-09-14T16:10:00.001Z</time>
      </trkpt>
      <trkpt lat="44.84207" lon="5.58086">
        <ele>1068</ele>
        <time>2013-09-14T16:10:01.001Z</time>
      </trkpt>
      <trkpt lat="44.84215" lon="5.58088">
        <ele>1068</ele>
        <time>2013-09-14T16:10:02.001Z</time>
      </trkpt>
      <trkpt lat="44.84223" lon="5.5809">
        <ele>1068</ele>
        <time>2013-09-14T16:10:03.001Z</time>
      </trkpt>
      <trkpt lat="44.84232" lon="5.5809">
        <ele>1068</ele>
        <time>2013-09-14T16:10:04.001Z</time>
      </trkpt>
      <trkpt lat="44.8424" lon="5.58092">
        <ele>1068</ele>
        <time>2013-09-14T16:10:05.001Z</time>
      </trkpt>
      <trkpt lat="44.84249" lon="5.58092">
        <ele>1069</ele>
        <time>2013-09-14T16:10:06.001Z</time>
      </trkpt>
      <trkpt lat="44.84256" lon="5.58092">
        <ele>1069</ele>
        <time>2013-09-14T16:10:07.001Z</time>
      </trkpt>
      <trkpt lat="44.84265" lon="5.58092">
        <ele>1069</ele>
        <time>2013-09-14T16:10:08.001Z</time>
      </trkpt>
      <trkpt lat="44.84272" lon="5.5809">
        <ele>1070</ele>
        <time>2013-09-14T16:10:09.001Z</time>
      </trkpt>
      <trkpt lat="44.8428" lon="5.58088">
        <ele>1070</ele>
        <time>2013-09-14T16:10:10.001Z</time>
      </trkpt>
      <trkpt lat="44.84288" lon="5.58084">
        <ele>1070</ele>
        <time>2013-09-14T16:10:11.001Z</time>
      </trkpt>
      <trkpt lat="44.84294" lon="5.5808">
        <ele>1071</ele>
        <time>2013-09-14T16:10:12.001Z</time>
      </trkpt>
      <trkpt lat="44.84302" lon="5.58075">
        <ele>1071</ele>
        <time>2013-09-14T16:10:13.001Z</time>
      </trkpt>
      <trkpt lat="44.84309" lon="5.58073">
        <ele>1071</ele>
        <time>2013-09-14T16:10:14.001Z</time>
      </trkpt>
      <trkpt lat="44.84316" lon="5.58071">
        <ele>1071</ele>
        <time>2013-09-14T16:10:15.001Z</time>
      </trkpt>
      <trkpt lat="44.84323" lon="5.58071">
        <ele>1072</ele>
        <time>2013-09-14T16:10:16.001Z</time>
      </trkpt>
      <trkpt lat="44.8433" lon="5.58071">
        <ele>1072</ele>
        <time>2013-09-14T16:10:17.001Z</time>
      </trkpt>
      <trkpt lat="44.84338" lon="5.58071">
        <ele>1072</ele>
        <time>2013-09-14T16:10:18.001Z</time>
      </trkpt>
      <trkpt lat="44.84344" lon="5.58071">
        <ele>1072</ele>
        <time>2013-09-14T16:10:19.001Z</time>
      </trkpt>
      <trkpt lat="44.84351" lon="5.58069">
        <ele>1072</ele>
        <time>2013-09-14T16:10:20.001Z</time>
      </trkpt>
      <trkpt lat="44.84357" lon="5.58069">
        <ele>1072</ele>
        <time>2013-09-14T16:10:21.001Z</time>
      </trkpt>
      <trkpt lat="44.84364" lon="5.58067">
        <ele>1073</ele>
        <time>2013-09-14T16:10:22.001Z</time>
      </trkpt>
      <trkpt lat="44.8437" lon="5.58067">
        <ele>1073</ele>
        <time>2013-09-14T16:10:23.001Z</time>
      </trkpt>
      <trkpt lat="44.84377" lon="5.58065">
        <ele>1074</ele>
        <time>2013-09-14T16:10:24.001Z</time>
      </trkpt>
      <trkpt lat="44.84383" lon="5.5806">
        <ele>1074</ele>
        <time>2013-09-14T16:10:25.001Z</time>
      </trkpt>
      <trkpt lat="44.84388" lon="5.58058">
        <ele>1074</ele>
        <time>2013-09-14T16:10:26.001Z</time>
      </trkpt>
      <trkpt lat="44.84394" lon="5.58054">
        <ele>1074</ele>
        <time>2013-09-14T16:10:27.001Z</time>
      </trkpt>
      <trkpt lat="44.84399" lon="5.58052">
        <ele>1074</ele>
        <time>2013-09-14T16:10:28.001Z</time>
      </trkpt>
      <trkpt lat="44.84403" lon="5.58048">
        <ele>1074</ele>
        <time>2013-09-14T16:10:29.001Z</time>
      </trkpt>
      <trkpt lat="44.84409" lon="5.58043">
        <ele>1074</ele>
        <time>2013-09-14T16:10:30.001Z</time>
      </trkpt>
      <trkpt lat="44.84413" lon="5.58041">
        <ele>1074</ele>
        <time>2013-09-14T16:10:31.001Z</time>
      </trkpt>
      <trkpt lat="44.84417" lon="5.58039">
        <ele>1074</ele>
        <time>2013-09-14T16:10:32.001Z</time>
      </trkpt>
      <trkpt lat="44.84423" lon="5.58035">
        <ele>1074</ele>
        <time>2013-09-14T16:10:33.001Z</time>
      </trkpt>
      <trkpt lat="44.84427" lon="5.58032">
        <ele>1074</ele>
        <time>2013-09-14T16:10:34.001Z</time>
      </trkpt>
      <trkpt lat="44.84431" lon="5.58028">
        <ele>1074</ele>
        <time>2013-09-14T16:10:35.001Z</time>
      </trkpt>
      <trkpt lat="44.84436" lon="5.58026">
        <ele>1074</ele>
        <time>2013-09-14T16:10:36.001Z</time>
      </trkpt>
      <trkpt lat="44.8444" lon="5.58024">
        <ele>1074</ele>
        <time>2013-09-14T16:10:37.001Z</time>
      </trkpt>
      <trkpt lat="44.84444" lon="5.58022">
        <ele>1074</ele>
        <time>2013-09-14T16:10:38.001Z</time>
      </trkpt>
      <trkpt lat="44.84452" lon="5.58022">
        <ele>1074</ele>
        <time>2013-09-14T16:10:40.001Z</time>
      </trkpt>
      <trkpt lat="44.84457" lon="5.58022">
        <ele>1074</ele>
        <time>2013-09-14T16:10:42.001Z</time>
      </trkpt>
      <trkpt lat="44.84464" lon="5.58022">
        <ele>1074</ele>
        <time>2013-09-14T16:10:44.001Z</time>
      </trkpt>
      <trkpt lat="44.84469" lon="5.58024">
        <ele>1075</ele>
        <time>2013-09-14T16:10:46.001Z</time>
      </trkpt>
      <trkpt lat="44.84474" lon="5.58024">
        <ele>1075</ele>
        <time>2013-09-14T16:10:48.001Z</time>
      </trkpt>
      <trkpt lat="44.84481" lon="5.58026">
        <ele>1075</ele>
        <time>2013-09-14T16:10:50.001Z</time>
      </trkpt>
      <trkpt lat="44.84486" lon="5.58026">
        <ele>1075</ele>
        <time>2013-09-14T16:10:52.001Z</time>
      </trkpt>
      <trkpt lat="44.84491" lon="5.58028">
        <ele>1075</ele>
        <time>2013-09-14T16:10:54.001Z</time>
      </trkpt>
      <trkpt lat="44.84497" lon="5.5803">
        <ele>1074</ele>
        <time>2013-09-14T16:10:56.001Z</time>
      </trkpt>
      <trkpt lat="44.84501" lon="5.58028">
        <ele>1074</ele>
        <time>2013-09-14T16:10:58.001Z</time>
      </trkpt>
      <trkpt lat="44.84506" lon="5.58028">
        <ele>1074</ele>
        <time>2013-09-14T16:11:00.001Z</time>
      </trkpt>
      <trkpt lat="44.84512" lon="5.58026">
        <ele>1074</ele>
        <time>2013-09-14T16:11:02.001Z</time>
      </trkpt>
      <trkpt lat="44.84517" lon="5.58024">
        <ele>1074</ele>
        <time>2013-09-14T16:11:04.001Z</time>
      </trkpt>
      <trkpt lat="44.84522" lon="5.5802">
        <ele>1074</ele>
        <time>2013-09-14T16:11:06.001Z</time>
      </trkpt>
      <trkpt lat="44.84526" lon="5.58015">
        <ele>1075</ele>
        <time>2013-09-14T16:11:08.001Z</time>
      </trkpt>
      <trkpt lat="44.8453" lon="5.58009">
        <ele>1075</ele>
        <time>2013-09-14T16:11:10.001Z</time>
      </trkpt>
      <trkpt lat="44.84533" lon="5.58002">
        <ele>1075</ele>
        <time>2013-09-14T16:11:12.001Z</time>
      </trkpt>
      <trkpt lat="44.84538" lon="5.57994">
        <ele>1075</ele>
        <time>2013-09-14T16:11:15.001Z</time>
      </trkpt>
      <trkpt lat="44.84541" lon="5.57987">
        <ele>1075</ele>
        <time>2013-09-14T16:11:17.001Z</time>
      </trkpt>
      <trkpt lat="44.8455" lon="5.57974">
        <ele>1075</ele>
        <time>2013-09-14T16:11:24.001Z</time>
      </trkpt>
      <trkpt lat="44.84555" lon="5.57972">
        <ele>1075</ele>
        <time>2013-09-14T16:11:26.001Z</time>
      </trkpt>
      <trkpt lat="44.8456" lon="5.5797">
        <ele>1075</ele>
        <time>2013-09-14T16:11:28.001Z</time>
      </trkpt>
      <trkpt lat="44.84564" lon="5.57968">
        <ele>1075</ele>
        <time>2013-09-14T16:11:30.001Z</time>
      </trkpt>
      <trkpt lat="44.84571" lon="5.57968">
        <ele>1075</ele>
        <time>2013-09-14T16:11:33.001Z</time>
      </trkpt>
      <trkpt lat="44.84576" lon="5.57968">
        <ele>1075</ele>
        <time>2013-09-14T16:11:35.001Z</time>
      </trkpt>
      <trkpt lat="44.84583" lon="5.57966">
        <ele>1075</ele>
        <time>2013-09-14T16:11:37.001Z</time>
      </trkpt>
      <trkpt lat="44.84589" lon="5.57966">
        <ele>1075</ele>
        <time>2013-09-14T16:11:39.001Z</time>
      </trkpt>
      <trkpt lat="44.84596" lon="5.57964">
        <ele>1075</ele>
        <time>2013-09-14T16:11:41.001Z</time>
      </trkpt>
      <trkpt lat="44.84602" lon="5.57964">
        <ele>1075</ele>
        <time>2013-09-14T16:11:43.001Z</time>
      </trkpt>
      <trkpt lat="44.84608" lon="5.57964">
        <ele>1075</ele>
        <time>2013-09-14T16:11:45.001Z</time>
      </trkpt>
      <trkpt lat="44.84614" lon="5.57964">
        <ele>1075</ele>
        <time>2013-09-14T16:11:47.001Z</time>
      </trkpt>
      <trkpt lat="44.84619" lon="5.57964">
        <ele>1075</ele>
        <time>2013-09-14T16:11:49.001Z</time>
      </trkpt>
      <trkpt lat="44.84623" lon="5.57968">
        <ele>1075</ele>
        <time>2013-09-14T16:11:51.001Z</time>
      </trkpt>
      <trkpt lat="44.84626" lon="5.57974">
        <ele>1075</ele>
        <time>2013-09-14T16:11:53.001Z</time>
      </trkpt>
      <trkpt lat="44.84627" lon="5.57981">
        <ele>1075</ele>
        <time>2013-09-14T16:11:55.001Z</time>
      </trkpt>
      <trkpt lat="44.84628" lon="5.57987">
        <ele>1075</ele>
        <time>2013-09-14T16:11:57.001Z</time>
      </trkpt>
      <trkpt lat="44.84629" lon="5.57994">
        <ele>1075</ele>
        <time>2013-09-14T16:11:59.001Z</time>
      </trkpt>
      <trkpt lat="44.84631" lon="5.58">
        <ele>1075</ele>
        <time>2013-09-14T16:12:01.001Z</time>
      </trkpt>
      <trkpt lat="44.84635" lon="5.58005">
        <ele>1075</ele>
        <time>2013-09-14T16:12:03.001Z</time>
      </trkpt>
      <trkpt lat="44.8464" lon="5.58007">
        <ele>1075</ele>
        <time>2013-09-14T16:12:05.001Z</time>
      </trkpt>
      <trkpt lat="44.84645" lon="5.58009">
        <ele>1075</ele>
        <time>2013-09-14T16:12:07.001Z</time>
      </trkpt>
      <trkpt lat="44.8465" lon="5.58009">
        <ele>1075</ele>
        <time>2013-09-14T16:12:09.001Z</time>
      </trkpt>
      <trkpt lat="44.84656" lon="5.58011">
        <ele>1075</ele>
        <time>2013-09-14T16:12:11.001Z</time>
      </trkpt>
      <trkpt lat="44.84661" lon="5.58009">
        <ele>1075</ele>
        <time>2013-09-14T16:12:13.001Z</time>
      </trkpt>
      <trkpt lat="44.84666" lon="5.58009">
        <ele>1075</ele>
        <time>2013-09-14T16:12:15.001Z</time>
      </trkpt>
      <trkpt lat="44.84672" lon="5.58009">
        <ele>1075</ele>
        <time>2013-09-14T16:12:17.001Z</time>
      </trkpt>
      <trkpt lat="44.84679" lon="5.58009">
        <ele>1075</ele>
        <time>2013-09-14T16:12:20.001Z</time>
      </trkpt>
      <trkpt lat="44.84687" lon="5.58007">
        <ele>1075</ele>
        <time>2013-09-14T16:12:23.001Z</time>
      </trkpt>
      <trkpt lat="44.847" lon="5.58007">
        <ele>1075</ele>
        <time>2013-09-14T16:12:28.001Z</time>
      </trkpt>
      <trkpt lat="44.847" lon="5.58007">
        <ele>1075</ele>
        <time>2013-09-14T16:12:28.001Z</time>
      </trkpt>
      <trkpt lat="44.847" lon="5.58007">
        <ele>1075</ele>
        <time>2013-09-14T16:12:30.001Z</time>
      </trkpt>
      <trkpt lat="44.84706" lon="5.58005">
        <ele>1076</ele>
        <time>2013-09-14T16:12:31.001Z</time>
      </trkpt>
      <trkpt lat="44.84706" lon="5.58005">
        <ele>1076</ele>
        <time>2013-09-14T16:12:31.001Z</time>
      </trkpt>
      <trkpt lat="44.84706" lon="5.58005">
        <ele>1076</ele>
        <time>2013-09-14T16:12:35.001Z</time>
      </trkpt>
      <trkpt lat="44.84717" lon="5.58002">
        <ele>1076</ele>
        <time>2013-09-14T16:12:36.001Z</time>
      </trkpt>
      <trkpt lat="44.84717" lon="5.58002">
        <ele>1076</ele>
        <time>2013-09-14T16:12:36.001Z</time>
      </trkpt>
      <trkpt lat="44.84717" lon="5.58002">
        <ele>1076</ele>
        <time>2013-09-14T16:12:38.001Z</time>
      </trkpt>
      <trkpt lat="44.84723" lon="5.58">
        <ele>1076</ele>
        <time>2013-09-14T16:12:39.001Z</time>
      </trkpt>
      <trkpt lat="44.84723" lon="5.58">
        <ele>1076</ele>
        <time>2013-09-14T16:12:39.001Z</time>
      </trkpt>
      <trkpt lat="44.84723" lon="5.58">
        <ele>1076</ele>
        <time>2013-09-14T16:12:43.001Z</time>
      </trkpt>
      <trkpt lat="44.84733" lon="5.57994">
        <ele>1077</ele>
        <time>2013-09-14T16:12:44.001Z</time>
      </trkpt>
      <trkpt lat="44.84733" lon="5.57994">
        <ele>1077</ele>
        <time>2013-09-14T16:12:44.001Z</time>
      </trkpt>
      <trkpt lat="44.84733" lon="5.57994">
        <ele>1077</ele>
        <time>2013-09-14T16:12:48.001Z</time>
      </trkpt>
      <trkpt lat="44.84741" lon="5.5799">
        <ele>1077</ele>
        <time>2013-09-14T16:12:49.001Z</time>
      </trkpt>
      <trkpt lat="44.84741" lon="5.5799">
        <ele>1077</ele>
        <time>2013-09-14T16:12:49.001Z</time>
      </trkpt>
      <trkpt lat="44.84741" lon="5.5799">
        <ele>1077</ele>
        <time>2013-09-14T16:12:53.001Z</time>
      </trkpt>
      <trkpt lat="44.8475" lon="5.57987">
        <ele>1077</ele>
        <time>2013-09-14T16:12:54.001Z</time>
      </trkpt>
      <trkpt lat="44.8475" lon="5.57987">
        <ele>1077</ele>
        <time>2013-09-14T16:12:54.001Z</time>
      </trkpt>
      <trkpt lat="44.8475" lon="5.57987">
        <ele>1077</ele>
        <time>2013-09-14T16:12:59.001Z</time>
      </trkpt>
      <trkpt lat="44.84761" lon="5.57985">
        <ele>1077</ele>
        <time>2013-09-14T16:13:00.001Z</time>
      </trkpt>
      <trkpt lat="44.84761" lon="5.57985">
        <ele>1077</ele>
        <time>2013-09-14T16:13:00.001Z</time>
      </trkpt>
      <trkpt lat="44.84761" lon="5.57985">
        <ele>1077</ele>
        <time>2013-09-14T16:13:04.001Z</time>
      </trkpt>
      <trkpt lat="44.8477" lon="5.57983">
        <ele>1077</ele>
        <time>2013-09-14T16:13:05.001Z</time>
      </trkpt>
      <trkpt lat="44.8477" lon="5.57983">
        <ele>1077</ele>
        <time>2013-09-14T16:13:05.001Z</time>
      </trkpt>
      <trkpt lat="44.8477" lon="5.57983">
        <ele>1077</ele>
        <time>2013-09-14T16:13:09.001Z</time>
      </trkpt>
      <trkpt lat="44.84779" lon="5.57979">
        <ele>1077</ele>
        <time>2013-09-14T16:13:10.001Z</time>
      </trkpt>
      <trkpt lat="44.84779" lon="5.57979">
        <ele>1077</ele>
        <time>2013-09-14T16:13:10.001Z</time>
      </trkpt>
      <trkpt lat="44.84779" lon="5.57979">
        <ele>1077</ele>
        <time>2013-09-14T16:13:14.001Z</time>
      </trkpt>
      <trkpt lat="44.84789" lon="5.57977">
        <ele>1077</ele>
        <time>2013-09-14T16:13:15.001Z</time>
      </trkpt>
      <trkpt lat="44.84789" lon="5.57977">
        <ele>1077</ele>
        <time>2013-09-14T16:13:15.001Z</time>
      </trkpt>
      <trkpt lat="44.84789" lon="5.57977">
        <ele>1077</ele>
        <time>2013-09-14T16:13:21.001Z</time>
      </trkpt>
      <trkpt lat="44.84797" lon="5.57974">
        <ele>1077</ele>
        <time>2013-09-14T16:13:22.001Z</time>
      </trkpt>
      <trkpt lat="44.84805" lon="5.57981">
        <ele>1077</ele>
        <time>2013-09-14T16:13:28.001Z</time>
      </trkpt>
      <trkpt lat="44.84805" lon="5.57981">
        <ele>1077</ele>
        <time>2013-09-14T16:13:28.001Z</time>
      </trkpt>
      <trkpt lat="44.84805" lon="5.57981">
        <ele>1077</ele>
        <time>2013-09-14T16:13:36.001Z</time>
      </trkpt>
      <trkpt lat="44.84812" lon="5.57987">
        <ele>1077</ele>
        <time>2013-09-14T16:13:37.001Z</time>
      </trkpt>
      <trkpt lat="44.84812" lon="5.57987">
        <ele>1077</ele>
        <time>2013-09-14T16:13:37.001Z</time>
      </trkpt>
      <trkpt lat="44.84812" lon="5.57987">
        <ele>1077</ele>
        <time>2013-09-14T16:13:39.001Z</time>
      </trkpt>
      <trkpt lat="44.84815" lon="5.57992">
        <ele>1077</ele>
        <time>2013-09-14T16:13:41.001Z</time>
      </trkpt>
      <trkpt lat="44.8482" lon="5.57994">
        <ele>1077</ele>
        <time>2013-09-14T16:13:47.001Z</time>
      </trkpt>
      <trkpt lat="44.84823" lon="5.57998">
        <ele>1078</ele>
        <time>2013-09-14T16:13:55.001Z</time>
      </trkpt>
      <trkpt lat="44.84823" lon="5.57998">
        <ele>1078</ele>
        <time>2013-09-14T16:13:55.001Z</time>
      </trkpt>
      <trkpt lat="44.84823" lon="5.57998">
        <ele>1078</ele>
        <time>2013-09-14T16:13:56.001Z</time>
      </trkpt>
      <trkpt lat="44.84827" lon="5.58002">
        <ele>1078</ele>
        <time>2013-09-14T16:14:03.001Z</time>
      </trkpt>
      <trkpt lat="44.84833" lon="5.58007">
        <ele>1079</ele>
        <time>2013-09-14T16:14:06.001Z</time>
      </trkpt>
      <trkpt lat="44.84836" lon="5.58011">
        <ele>1079</ele>
        <time>2013-09-14T16:14:11.001Z</time>
      </trkpt>
      <trkpt lat="44.84839" lon="5.58015">
        <ele>1079</ele>
        <time>2013-09-14T16:14:18.001Z</time>
      </trkpt>
      <trkpt lat="44.84839" lon="5.58015">
        <ele>1079</ele>
        <time>2013-09-14T16:14:18.001Z</time>
      </trkpt>
      <trkpt lat="44.84839" lon="5.58015">
        <ele>1079</ele>
        <time>2013-09-14T16:14:19.001Z</time>
      </trkpt>
      <trkpt lat="44.84843" lon="5.58017">
        <ele>1079</ele>
        <time>2013-09-14T16:14:29.001Z</time>
      </trkpt>
      <trkpt lat="44.84846" lon="5.58022">
        <ele>1080</ele>
        <time>2013-09-14T16:14:34.001Z</time>
      </trkpt>
      <trkpt lat="44.84846" lon="5.58022">
        <ele>1080</ele>
        <time>2013-09-14T16:14:34.001Z</time>
      </trkpt>
      <trkpt lat="44.84846" lon="5.58022">
        <ele>1080</ele>
        <time>2013-09-14T16:14:35.001Z</time>
      </trkpt>
      <trkpt lat="44.84851" lon="5.58024">
        <ele>1081</ele>
        <time>2013-09-14T16:14:41.001Z</time>
      </trkpt>
      <trkpt lat="44.84851" lon="5.58024">
        <ele>1081</ele>
        <time>2013-09-14T16:14:41.001Z</time>
      </trkpt>
      <trkpt lat="44.84851" lon="5.58024">
        <ele>1081</ele>
        <time>2013-09-14T16:14:42.001Z</time>
      </trkpt>
      <trkpt lat="44.84856" lon="5.58024">
        <ele>1082</ele>
        <time>2013-09-14T16:14:50.001Z</time>
      </trkpt>
      <trkpt lat="44.84856" lon="5.58024">
        <ele>1082</ele>
        <time>2013-09-14T16:14:50.001Z</time>
      </trkpt>
      <trkpt lat="44.84856" lon="5.58024">
        <ele>1082</ele>
        <time>2013-09-14T16:14:53.001Z</time>
      </trkpt>
      <trkpt lat="44.8486" lon="5.58022">
        <ele>1082</ele>
        <time>2013-09-14T16:15:02.001Z</time>
      </trkpt>
      <trkpt lat="44.84865" lon="5.58024">
        <ele>1083</ele>
        <time>2013-09-14T16:15:06.001Z</time>
      </trkpt>
      <trkpt lat="44.8487" lon="5.58024">
        <ele>1083</ele>
        <time>2013-09-14T16:15:12.001Z</time>
      </trkpt>
      <trkpt lat="44.84876" lon="5.58024">
        <ele>1084</ele>
        <time>2013-09-14T16:15:17.001Z</time>
      </trkpt>
      <trkpt lat="44.8488" lon="5.58026">
        <ele>1084</ele>
        <time>2013-09-14T16:15:22.001Z</time>
      </trkpt>
      <trkpt lat="44.8488" lon="5.58026">
        <ele>1084</ele>
        <time>2013-09-14T16:15:22.001Z</time>
      </trkpt>
      <trkpt lat="44.8488" lon="5.58026">
        <ele>1085</ele>
        <time>2013-09-14T16:15:23.001Z</time>
      </trkpt>
      <trkpt lat="44.84884" lon="5.58028">
        <ele>1085</ele>
        <time>2013-09-14T16:15:28.001Z</time>
      </trkpt>
      <trkpt lat="44.84884" lon="5.58028">
        <ele>1085</ele>
        <time>2013-09-14T16:15:28.001Z</time>
      </trkpt>
      <trkpt lat="44.84884" lon="5.58028">
        <ele>1085</ele>
        <time>2013-09-14T16:15:29.001Z</time>
      </trkpt>
      <trkpt lat="44.8489" lon="5.58028">
        <ele>1086</ele>
        <time>2013-09-14T16:15:35.001Z</time>
      </trkpt>
      <trkpt lat="44.8489" lon="5.58028">
        <ele>1086</ele>
        <time>2013-09-14T16:15:35.001Z</time>
      </trkpt>
      <trkpt lat="44.8489" lon="5.58028">
        <ele>1086</ele>
        <time>2013-09-14T16:15:36.001Z</time>
      </trkpt>
      <trkpt lat="44.84895" lon="5.58028">
        <ele>1087</ele>
        <time>2013-09-14T16:15:44.001Z</time>
      </trkpt>
      <trkpt lat="44.84895" lon="5.58028">
        <ele>1087</ele>
        <time>2013-09-14T16:15:44.001Z</time>
      </trkpt>
      <trkpt lat="44.84895" lon="5.58028">
        <ele>1087</ele>
        <time>2013-09-14T16:15:45.001Z</time>
      </trkpt>
      <trkpt lat="44.849" lon="5.58028">
        <ele>1088</ele>
        <time>2013-09-14T16:15:55.001Z</time>
      </trkpt>
      <trkpt lat="44.849" lon="5.58028">
        <ele>1088</ele>
        <time>2013-09-14T16:15:55.001Z</time>
      </trkpt>
      <trkpt lat="44.849" lon="5.58028">
        <ele>1088</ele>
        <time>2013-09-14T16:15:56.001Z</time>
      </trkpt>
      <trkpt lat="44.84904" lon="5.58026">
        <ele>1089</ele>
        <time>2013-09-14T16:16:02.001Z</time>
      </trkpt>
      <trkpt lat="44.84909" lon="5.58028">
        <ele>1090</ele>
        <time>2013-09-14T16:16:06.001Z</time>
      </trkpt>
      <trkpt lat="44.84914" lon="5.58028">
        <ele>1091</ele>
        <time>2013-09-14T16:16:12.001Z</time>
      </trkpt>
      <trkpt lat="44.84914" lon="5.58028">
        <ele>1091</ele>
        <time>2013-09-14T16:16:12.001Z</time>
      </trkpt>
      <trkpt lat="44.84914" lon="5.58028">
        <ele>1091</ele>
        <time>2013-09-14T16:16:13.001Z</time>
      </trkpt>
      <trkpt lat="44.84918" lon="5.5803">
        <ele>1091</ele>
        <time>2013-09-14T16:16:18.001Z</time>
      </trkpt>
      <trkpt lat="44.84924" lon="5.5803">
        <ele>1092</ele>
        <time>2013-09-14T16:16:23.001Z</time>
      </trkpt>
      <trkpt lat="44.84928" lon="5.58032">
        <ele>1093</ele>
        <time>2013-09-14T16:16:27.001Z</time>
      </trkpt>
      <trkpt lat="44.84933" lon="5.5803">
        <ele>1094</ele>
        <time>2013-09-14T16:16:32.001Z</time>
      </trkpt>
      <trkpt lat="44.84939" lon="5.5803">
        <ele>1094</ele>
        <time>2013-09-14T16:16:37.001Z</time>
      </trkpt>
      <trkpt lat="44.84943" lon="5.58028">
        <ele>1095</ele>
        <time>2013-09-14T16:16:42.001Z</time>
      </trkpt>
      <trkpt lat="44.84943" lon="5.58028">
        <ele>1095</ele>
        <time>2013-09-14T16:16:42.001Z</time>
      </trkpt>
      <trkpt lat="44.84943" lon="5.58028">
        <ele>1095</ele>
        <time>2013-09-14T16:16:43.001Z</time>
      </trkpt>
      <trkpt lat="44.84948" lon="5.58028">
        <ele>1096</ele>
        <time>2013-09-14T16:16:49.001Z</time>
      </trkpt>
      <trkpt lat="44.84954" lon="5.58028">
        <ele>1097</ele>
        <time>2013-09-14T16:17:01.001Z</time>
      </trkpt>
      <trkpt lat="44.84958" lon="5.58026">
        <ele>1098</ele>
        <time>2013-09-14T16:17:10.001Z</time>
      </trkpt>
      <trkpt lat="44.84964" lon="5.58026">
        <ele>1099</ele>
        <time>2013-09-14T16:17:17.001Z</time>
      </trkpt>
      <trkpt lat="44.84964" lon="5.58026">
        <ele>1099</ele>
        <time>2013-09-14T16:17:17.001Z</time>
      </trkpt>
      <trkpt lat="44.84964" lon="5.58026">
        <ele>1099</ele>
        <time>2013-09-14T16:17:18.001Z</time>
      </trkpt>
      <trkpt lat="44.84968" lon="5.58028">
        <ele>1099</ele>
        <time>2013-09-14T16:17:26.001Z</time>
      </trkpt>
      <trkpt lat="44.84968" lon="5.58028">
        <ele>1099</ele>
        <time>2013-09-14T16:17:26.001Z</time>
      </trkpt>
      <trkpt lat="44.84968" lon="5.58028">
        <ele>1099</ele>
        <time>2013-09-14T16:17:27.001Z</time>
      </trkpt>
      <trkpt lat="44.84972" lon="5.58032">
        <ele>1100</ele>
        <time>2013-09-14T16:17:34.001Z</time>
      </trkpt>
      <trkpt lat="44.84972" lon="5.58032">
        <ele>1100</ele>
        <time>2013-09-14T16:17:34.001Z</time>
      </trkpt>
      <trkpt lat="44.84972" lon="5.58032">
        <ele>1100</ele>
        <time>2013-09-14T16:17:35.001Z</time>
      </trkpt>
      <trkpt lat="44.84976" lon="5.58035">
        <ele>1100</ele>
        <time>2013-09-14T16:17:44.001Z</time>
      </trkpt>
      <trkpt lat="44.84976" lon="5.58035">
        <ele>1100</ele>
        <time>2013-09-14T16:17:44.001Z</time>
      </trkpt>
      <trkpt lat="44.84976" lon="5.58035">
        <ele>1100</ele>
        <time>2013-09-14T16:17:45.001Z</time>
      </trkpt>
      <trkpt lat="44.84981" lon="5.58039">
        <ele>1101</ele>
        <time>2013-09-14T16:17:51.001Z</time>
      </trkpt>
      <trkpt lat="44.84981" lon="5.58039">
        <ele>1101</ele>
        <time>2013-09-14T16:17:51.001Z</time>
      </trkpt>
      <trkpt lat="44.84981" lon="5.58039">
        <ele>1101</ele>
        <time>2013-09-14T16:17:52.001Z</time>
      </trkpt>
      <trkpt lat="44.84985" lon="5.58041">
        <ele>1102</ele>
        <time>2013-09-14T16:17:59.001Z</time>
      </trkpt>
      <trkpt lat="44.84988" lon="5.58045">
        <ele>1103</ele>
        <time>2013-09-14T16:18:08.001Z</time>
      </trkpt>
      <trkpt lat="44.84992" lon="5.5805">
        <ele>1103</ele>
        <time>2013-09-14T16:18:22.001Z</time>
      </trkpt>
      <trkpt lat="44.84992" lon="5.5805">
        <ele>1103</ele>
        <time>2013-09-14T16:18:22.001Z</time>
      </trkpt>
      <trkpt lat="44.84992" lon="5.5805">
        <ele>1103</ele>
        <time>2013-09-14T16:18:26.001Z</time>
      </trkpt>
      <trkpt lat="44.84997" lon="5.58048">
        <ele>1104</ele>
        <time>2013-09-14T16:18:53.001Z</time>
      </trkpt>
      <trkpt lat="44.84997" lon="5.58048">
        <ele>1104</ele>
        <time>2013-09-14T16:18:53.001Z</time>
      </trkpt>
      <trkpt lat="44.84997" lon="5.58048">
        <ele>1105</ele>
        <time>2013-09-14T16:18:59.001Z</time>
      </trkpt>
      <trkpt lat="44.85" lon="5.58052">
        <ele>1105</ele>
        <time>2013-09-14T16:19:08.001Z</time>
      </trkpt>
      <trkpt lat="44.85" lon="5.58052">
        <ele>1105</ele>
        <time>2013-09-14T16:19:08.001Z</time>
      </trkpt>
      <trkpt lat="44.85" lon="5.58052">
        <ele>1105</ele>
        <time>2013-09-14T16:19:10.001Z</time>
      </trkpt>
      <trkpt lat="44.85004" lon="5.58054">
        <ele>1105</ele>
        <time>2013-09-14T16:19:17.001Z</time>
      </trkpt>
      <trkpt lat="44.8501" lon="5.58054">
        <ele>1106</ele>
        <time>2013-09-14T16:19:39.001Z</time>
      </trkpt>
      <trkpt lat="44.85004" lon="5.58052">
        <ele>1108</ele>
        <time>2013-09-14T16:20:33.001Z</time>
      </trkpt>
      <trkpt lat="44.85004" lon="5.58052">
        <ele>1108</ele>
        <time>2013-09-14T16:20:33.001Z</time>
      </trkpt>
      <trkpt lat="44.85004" lon="5.58052">
        <ele>1108</ele>
        <time>2013-09-14T16:20:34.001Z</time>
      </trkpt>
      <trkpt lat="44.85008" lon="5.58058">
        <ele>1110</ele>
        <time>2013-09-14T16:20:46.001Z</time>
      </trkpt>
      <trkpt lat="44.85008" lon="5.58058">
        <ele>1110</ele>
        <time>2013-09-14T16:20:46.001Z</time>
      </trkpt>
      <trkpt lat="44.85008" lon="5.58058">
        <ele>1111</ele>
        <time>2013-09-14T16:20:47.001Z</time>
      </trkpt>
      <trkpt lat="44.85012" lon="5.58062">
        <ele>1112</ele>
        <time>2013-09-14T16:20:53.001Z</time>
      </trkpt>
      <trkpt lat="44.85012" lon="5.58062">
        <ele>1112</ele>
        <time>2013-09-14T16:20:53.001Z</time>
      </trkpt>
      <trkpt lat="44.85012" lon="5.58062">
        <ele>1112</ele>
        <time>2013-09-14T16:20:54.001Z</time>
      </trkpt>
      <trkpt lat="44.85016" lon="5.58067">
        <ele>1112</ele>
        <time>2013-09-14T16:21:01.001Z</time>
      </trkpt>
      <trkpt lat="44.85016" lon="5.58067">
        <ele>1112</ele>
        <time>2013-09-14T16:21:01.001Z</time>
      </trkpt>
      <trkpt lat="44.85016" lon="5.58067">
        <ele>1112</ele>
        <time>2013-09-14T16:21:02.001Z</time>
      </trkpt>
      <trkpt lat="44.8502" lon="5.58069">
        <ele>1113</ele>
        <time>2013-09-14T16:21:06.001Z</time>
      </trkpt>
      <trkpt lat="44.8502" lon="5.58069">
        <ele>1113</ele>
        <time>2013-09-14T16:21:06.001Z</time>
      </trkpt>
      <trkpt lat="44.8502" lon="5.58069">
        <ele>1114</ele>
        <time>2013-09-14T16:21:07.001Z</time>
      </trkpt>
      <trkpt lat="44.85025" lon="5.58071">
        <ele>1114</ele>
        <time>2013-09-14T16:21:11.001Z</time>
      </trkpt>
      <trkpt lat="44.85028" lon="5.58075">
        <ele>1114</ele>
        <time>2013-09-14T16:21:16.001Z</time>
      </trkpt>
      <trkpt lat="44.85032" lon="5.5808">
        <ele>1118</ele>
        <time>2013-09-14T16:21:34.001Z</time>
      </trkpt>
      <trkpt lat="44.85032" lon="5.5808">
        <ele>1118</ele>
        <time>2013-09-14T16:21:34.001Z</time>
      </trkpt>
      <trkpt lat="44.85032" lon="5.5808">
        <ele>1118</ele>
        <time>2013-09-14T16:21:35.001Z</time>
      </trkpt>
      <trkpt lat="44.85036" lon="5.58082">
        <ele>1120</ele>
        <time>2013-09-14T16:21:40.001Z</time>
      </trkpt>
      <trkpt lat="44.8504" lon="5.58086">
        <ele>1121</ele>
        <time>2013-09-14T16:21:45.001Z</time>
      </trkpt>
      <trkpt lat="44.85044" lon="5.58088">
        <ele>1122</ele>
        <time>2013-09-14T16:21:59.001Z</time>
      </trkpt>
      <trkpt lat="44.85044" lon="5.58088">
        <ele>1122</ele>
        <time>2013-09-14T16:21:59.001Z</time>
      </trkpt>
      <trkpt lat="44.85044" lon="5.58088">
        <ele>1122</ele>
        <time>2013-09-14T16:22:02.001Z</time>
      </trkpt>
      <trkpt lat="44.85048" lon="5.58092">
        <ele>1123</ele>
        <time>2013-09-14T16:22:11.001Z</time>
      </trkpt>
      <trkpt lat="44.85048" lon="5.58092">
        <ele>1123</ele>
        <time>2013-09-14T16:22:11.001Z</time>
      </trkpt>
      <trkpt lat="44.85048" lon="5.58092">
        <ele>1123</ele>
        <time>2013-09-14T16:22:13.001Z</time>
      </trkpt>
      <trkpt lat="44.85052" lon="5.58097">
        <ele>1123</ele>
        <time>2013-09-14T16:22:21.001Z</time>
      </trkpt>
      <trkpt lat="44.85057" lon="5.58099">
        <ele>1124</ele>
        <time>2013-09-14T16:22:28.001Z</time>
      </trkpt>
      <trkpt lat="44.8506" lon="5.58103">
        <ele>1124</ele>
        <time>2013-09-14T16:22:35.001Z</time>
      </trkpt>
      <trkpt lat="44.8506" lon="5.58103">
        <ele>1124</ele>
        <time>2013-09-14T16:22:35.001Z</time>
      </trkpt>
      <trkpt lat="44.8506" lon="5.58103">
        <ele>1124</ele>
        <time>2013-09-14T16:22:36.001Z</time>
      </trkpt>
      <trkpt lat="44.85064" lon="5.58105">
        <ele>1124</ele>
        <time>2013-09-14T16:22:44.001Z</time>
      </trkpt>
      <trkpt lat="44.85064" lon="5.58105">
        <ele>1124</ele>
        <time>2013-09-14T16:22:44.001Z</time>
      </trkpt>
      <trkpt lat="44.85064" lon="5.58105">
        <ele>1124</ele>
        <time>2013-09-14T16:22:46.001Z</time>
      </trkpt>
      <trkpt lat="44.85069" lon="5.58108">
        <ele>1125</ele>
        <time>2013-09-14T16:22:55.001Z</time>
      </trkpt>
      <trkpt lat="44.85072" lon="5.58112">
        <ele>1127</ele>
        <time>2013-09-14T16:23:00.001Z</time>
      </trkpt>
      <trkpt lat="44.85072" lon="5.58112">
        <ele>1127</ele>
        <time>2013-09-14T16:23:00.001Z</time>
      </trkpt>
      <trkpt lat="44.85072" lon="5.58112">
        <ele>1128</ele>
        <time>2013-09-14T16:23:01.001Z</time>
      </trkpt>
      <trkpt lat="44.85076" lon="5.58114">
        <ele>1130</ele>
        <time>2013-09-14T16:23:07.001Z</time>
      </trkpt>
      <trkpt lat="44.85076" lon="5.58114">
        <ele>1130</ele>
        <time>2013-09-14T16:23:07.001Z</time>
      </trkpt>
      <trkpt lat="44.85076" lon="5.58114">
        <ele>1130</ele>
        <time>2013-09-14T16:23:08.001Z</time>
      </trkpt>
      <trkpt lat="44.8508" lon="5.58116">
        <ele>1131</ele>
        <time>2013-09-14T16:23:20.001Z</time>
      </trkpt>
      <trkpt lat="44.8508" lon="5.58116">
        <ele>1131</ele>
        <time>2013-09-14T16:23:20.001Z</time>
      </trkpt>
      <trkpt lat="44.8508" lon="5.58116">
        <ele>1131</ele>
        <time>2013-09-14T16:23:22.001Z</time>
      </trkpt>
      <trkpt lat="44.85085" lon="5.58118">
        <ele>1133</ele>
        <time>2013-09-14T16:23:31.001Z</time>
      </trkpt>
      <trkpt lat="44.85088" lon="5.58123">
        <ele>1134</ele>
        <time>2013-09-14T16:23:36.001Z</time>
      </trkpt>
      <trkpt lat="44.85088" lon="5.58123">
        <ele>1134</ele>
        <time>2013-09-14T16:23:36.001Z</time>
      </trkpt>
      <trkpt lat="44.85088" lon="5.58123">
        <ele>1134</ele>
        <time>2013-09-14T16:23:38.001Z</time>
      </trkpt>
      <trkpt lat="44.85091" lon="5.58127">
        <ele>1136</ele>
        <time>2013-09-14T16:23:44.001Z</time>
      </trkpt>
      <trkpt lat="44.85096" lon="5.58131">
        <ele>1137</ele>
        <time>2013-09-14T16:23:51.001Z</time>
      </trkpt>
      <trkpt lat="44.85096" lon="5.58131">
        <ele>1137</ele>
        <time>2013-09-14T16:23:51.001Z</time>
      </trkpt>
      <trkpt lat="44.85096" lon="5.58131">
        <ele>1138</ele>
        <time>2013-09-14T16:23:52.001Z</time>
      </trkpt>
      <trkpt lat="44.85099" lon="5.58138">
        <ele>1139</ele>
        <time>2013-09-14T16:24:01.001Z</time>
      </trkpt>
      <trkpt lat="44.85099" lon="5.58138">
        <ele>1139</ele>
        <time>2013-09-14T16:24:01.001Z</time>
      </trkpt>
      <trkpt lat="44.85099" lon="5.58138">
        <ele>1139</ele>
        <time>2013-09-14T16:24:02.001Z</time>
      </trkpt>
      <trkpt lat="44.85102" lon="5.58144">
        <ele>1140</ele>
        <time>2013-09-14T16:24:09.001Z</time>
      </trkpt>
      <trkpt lat="44.85105" lon="5.58148">
        <ele>1140</ele>
        <time>2013-09-14T16:24:14.001Z</time>
      </trkpt>
      <trkpt lat="44.85109" lon="5.5815">
        <ele>1141</ele>
        <time>2013-09-14T16:24:19.001Z</time>
      </trkpt>
      <trkpt lat="44.85114" lon="5.58155">
        <ele>1142</ele>
        <time>2013-09-14T16:24:24.001Z</time>
      </trkpt>
      <trkpt lat="44.85116" lon="5.58161">
        <ele>1143</ele>
        <time>2013-09-14T16:24:31.001Z</time>
      </trkpt>
      <trkpt lat="44.85119" lon="5.58168">
        <ele>1145</ele>
        <time>2013-09-14T16:24:38.001Z</time>
      </trkpt>
      <trkpt lat="44.85119" lon="5.58168">
        <ele>1145</ele>
        <time>2013-09-14T16:24:38.001Z</time>
      </trkpt>
      <trkpt lat="44.85119" lon="5.58168">
        <ele>1145</ele>
        <time>2013-09-14T16:24:40.001Z</time>
      </trkpt>
      <trkpt lat="44.8512" lon="5.58174">
        <ele>1146</ele>
        <time>2013-09-14T16:24:48.001Z</time>
      </trkpt>
      <trkpt lat="44.8512" lon="5.58174">
        <ele>1146</ele>
        <time>2013-09-14T16:24:48.001Z</time>
      </trkpt>
      <trkpt lat="44.8512" lon="5.58174">
        <ele>1147</ele>
        <time>2013-09-14T16:24:49.001Z</time>
      </trkpt>
      <trkpt lat="44.85123" lon="5.5818">
        <ele>1147</ele>
        <time>2013-09-14T16:24:54.001Z</time>
      </trkpt>
      <trkpt lat="44.85123" lon="5.5818">
        <ele>1147</ele>
        <time>2013-09-14T16:24:54.001Z</time>
      </trkpt>
      <trkpt lat="44.85123" lon="5.5818">
        <ele>1147</ele>
        <time>2013-09-14T16:24:55.001Z</time>
      </trkpt>
      <trkpt lat="44.85128" lon="5.58183">
        <ele>1148</ele>
        <time>2013-09-14T16:25:03.001Z</time>
      </trkpt>
      <trkpt lat="44.85128" lon="5.58183">
        <ele>1148</ele>
        <time>2013-09-14T16:25:03.001Z</time>
      </trkpt>
      <trkpt lat="44.85128" lon="5.58183">
        <ele>1148</ele>
        <time>2013-09-14T16:25:04.001Z</time>
      </trkpt>
      <trkpt lat="44.85133" lon="5.58183">
        <ele>1148</ele>
        <time>2013-09-14T16:25:30.001Z</time>
      </trkpt>
      <trkpt lat="44.85132" lon="5.58189">
        <ele>1151</ele>
        <time>2013-09-14T16:26:25.001Z</time>
      </trkpt>
      <trkpt lat="44.85128" lon="5.58193">
        <ele>1153</ele>
        <time>2013-09-14T16:26:29.001Z</time>
      </trkpt>
      <trkpt lat="44.85122" lon="5.58193">
        <ele>1153</ele>
        <time>2013-09-14T16:26:33.001Z</time>
      </trkpt>
      <trkpt lat="44.85118" lon="5.58196">
        <ele>1154</ele>
        <time>2013-09-14T16:26:36.001Z</time>
      </trkpt>
      <trkpt lat="44.85113" lon="5.58198">
        <ele>1155</ele>
        <time>2013-09-14T16:26:40.001Z</time>
      </trkpt>
      <trkpt lat="44.85108" lon="5.582">
        <ele>1156</ele>
        <time>2013-09-14T16:26:44.001Z</time>
      </trkpt>
      <trkpt lat="44.85104" lon="5.58202">
        <ele>1157</ele>
        <time>2013-09-14T16:26:47.001Z</time>
      </trkpt>
      <trkpt lat="44.851" lon="5.58206">
        <ele>1157</ele>
        <time>2013-09-14T16:26:50.001Z</time>
      </trkpt>
      <trkpt lat="44.85094" lon="5.58211">
        <ele>1158</ele>
        <time>2013-09-14T16:26:55.001Z</time>
      </trkpt>
      <trkpt lat="44.8509" lon="5.58217">
        <ele>1159</ele>
        <time>2013-09-14T16:26:59.001Z</time>
      </trkpt>
      <trkpt lat="44.85086" lon="5.58221">
        <ele>1160</ele>
        <time>2013-09-14T16:27:03.001Z</time>
      </trkpt>
      <trkpt lat="44.85083" lon="5.58228">
        <ele>1160</ele>
        <time>2013-09-14T16:27:06.001Z</time>
      </trkpt>
      <trkpt lat="44.85078" lon="5.58232">
        <ele>1161</ele>
        <time>2013-09-14T16:27:09.001Z</time>
      </trkpt>
      <trkpt lat="44.85073" lon="5.58238">
        <ele>1161</ele>
        <time>2013-09-14T16:27:13.001Z</time>
      </trkpt>
      <trkpt lat="44.85069" lon="5.58243">
        <ele>1162</ele>
        <time>2013-09-14T16:27:17.001Z</time>
      </trkpt>
      <trkpt lat="44.85064" lon="5.58245">
        <ele>1162</ele>
        <time>2013-09-14T16:27:20.001Z</time>
      </trkpt>
      <trkpt lat="44.85059" lon="5.58247">
        <ele>1163</ele>
        <time>2013-09-14T16:27:24.001Z</time>
      </trkpt>
      <trkpt lat="44.85055" lon="5.58249">
        <ele>1164</ele>
        <time>2013-09-14T16:27:27.001Z</time>
      </trkpt>
      <trkpt lat="44.85048" lon="5.58247">
        <ele>1165</ele>
        <time>2013-09-14T16:27:32.001Z</time>
      </trkpt>
      <trkpt lat="44.85043" lon="5.58247">
        <ele>1166</ele>
        <time>2013-09-14T16:27:37.001Z</time>
      </trkpt>
      <trkpt lat="44.85039" lon="5.58243">
        <ele>1167</ele>
        <time>2013-09-14T16:27:41.001Z</time>
      </trkpt>
      <trkpt lat="44.85033" lon="5.58243">
        <ele>1167</ele>
        <time>2013-09-14T16:27:45.001Z</time>
      </trkpt>
      <trkpt lat="44.85028" lon="5.58241">
        <ele>1168</ele>
        <time>2013-09-14T16:27:49.001Z</time>
      </trkpt>
      <trkpt lat="44.85024" lon="5.58243">
        <ele>1169</ele>
        <time>2013-09-14T16:27:52.001Z</time>
      </trkpt>
      <trkpt lat="44.85019" lon="5.58245">
        <ele>1169</ele>
        <time>2013-09-14T16:27:55.001Z</time>
      </trkpt>
      <trkpt lat="44.85015" lon="5.58251">
        <ele>1170</ele>
        <time>2013-09-14T16:27:59.001Z</time>
      </trkpt>
      <trkpt lat="44.85013" lon="5.58258">
        <ele>1170</ele>
        <time>2013-09-14T16:28:02.001Z</time>
      </trkpt>
      <trkpt lat="44.85013" lon="5.58264">
        <ele>1170</ele>
        <time>2013-09-14T16:28:05.001Z</time>
      </trkpt>
      <trkpt lat="44.85015" lon="5.58271">
        <ele>1170</ele>
        <time>2013-09-14T16:28:08.001Z</time>
      </trkpt>
      <trkpt lat="44.85019" lon="5.58273">
        <ele>1170</ele>
        <time>2013-09-14T16:28:11.001Z</time>
      </trkpt>
      <trkpt lat="44.85024" lon="5.58275">
        <ele>1171</ele>
        <time>2013-09-14T16:28:13.001Z</time>
      </trkpt>
      <trkpt lat="44.85029" lon="5.58277">
        <ele>1171</ele>
        <time>2013-09-14T16:28:16.001Z</time>
      </trkpt>
      <trkpt lat="44.85034" lon="5.58277">
        <ele>1171</ele>
        <time>2013-09-14T16:28:19.001Z</time>
      </trkpt>
      <trkpt lat="44.85041" lon="5.58277">
        <ele>1171</ele>
        <time>2013-09-14T16:28:23.001Z</time>
      </trkpt>
      <trkpt lat="44.85046" lon="5.58277">
        <ele>1171</ele>
        <time>2013-09-14T16:28:27.001Z</time>
      </trkpt>
      <trkpt lat="44.85052" lon="5.58277">
        <ele>1171</ele>
        <time>2013-09-14T16:28:31.001Z</time>
      </trkpt>
      <trkpt lat="44.85056" lon="5.58281">
        <ele>1171</ele>
        <time>2013-09-14T16:28:35.001Z</time>
      </trkpt>
      <trkpt lat="44.8506" lon="5.58286">
        <ele>1171</ele>
        <time>2013-09-14T16:28:39.001Z</time>
      </trkpt>
      <trkpt lat="44.85063" lon="5.5829">
        <ele>1171</ele>
        <time>2013-09-14T16:28:42.001Z</time>
      </trkpt>
      <trkpt lat="44.85068" lon="5.58292">
        <ele>1171</ele>
        <time>2013-09-14T16:28:45.001Z</time>
      </trkpt>
      <trkpt lat="44.85073" lon="5.58296">
        <ele>1171</ele>
        <time>2013-09-14T16:28:49.001Z</time>
      </trkpt>
      <trkpt lat="44.85077" lon="5.58301">
        <ele>1171</ele>
        <time>2013-09-14T16:28:53.001Z</time>
      </trkpt>
      <trkpt lat="44.85082" lon="5.58303">
        <ele>1172</ele>
        <time>2013-09-14T16:28:56.001Z</time>
      </trkpt>
      <trkpt lat="44.85086" lon="5.58305">
        <ele>1172</ele>
        <time>2013-09-14T16:28:59.001Z</time>
      </trkpt>
      <trkpt lat="44.8509" lon="5.58307">
        <ele>1172</ele>
        <time>2013-09-14T16:29:02.001Z</time>
      </trkpt>
      <trkpt lat="44.85096" lon="5.58309">
        <ele>1172</ele>
        <time>2013-09-14T16:29:06.001Z</time>
      </trkpt>
      <trkpt lat="44.85103" lon="5.58309">
        <ele>1173</ele>
        <time>2013-09-14T16:29:10.001Z</time>
      </trkpt>
      <trkpt lat="44.85108" lon="5.58309">
        <ele>1173</ele>
        <time>2013-09-14T16:29:14.001Z</time>
      </trkpt>
      <trkpt lat="44.85113" lon="5.58307">
        <ele>1173</ele>
        <time>2013-09-14T16:29:17.001Z</time>
      </trkpt>
      <trkpt lat="44.85117" lon="5.58305">
        <ele>1173</ele>
        <time>2013-09-14T16:29:20.001Z</time>
      </trkpt>
      <trkpt lat="44.85122" lon="5.58303">
        <ele>1174</ele>
        <time>2013-09-14T16:29:24.001Z</time>
      </trkpt>
      <trkpt lat="44.85128" lon="5.58303">
        <ele>1174</ele>
        <time>2013-09-14T16:29:28.001Z</time>
      </trkpt>
      <trkpt lat="44.85133" lon="5.58301">
        <ele>1174</ele>
        <time>2013-09-14T16:29:32.001Z</time>
      </trkpt>
      <trkpt lat="44.85137" lon="5.58298">
        <ele>1174</ele>
        <time>2013-09-14T16:29:36.001Z</time>
      </trkpt>
      <trkpt lat="44.85142" lon="5.58294">
        <ele>1175</ele>
        <time>2013-09-14T16:29:40.001Z</time>
      </trkpt>
      <trkpt lat="44.85146" lon="5.5829">
        <ele>1175</ele>
        <time>2013-09-14T16:29:43.001Z</time>
      </trkpt>
      <trkpt lat="44.8515" lon="5.58286">
        <ele>1176</ele>
        <time>2013-09-14T16:29:47.001Z</time>
      </trkpt>
      <trkpt lat="44.85154" lon="5.58281">
        <ele>1176</ele>
        <time>2013-09-14T16:29:50.001Z</time>
      </trkpt>
      <trkpt lat="44.85159" lon="5.58279">
        <ele>1176</ele>
        <time>2013-09-14T16:29:53.001Z</time>
      </trkpt>
      <trkpt lat="44.85163" lon="5.58275">
        <ele>1177</ele>
        <time>2013-09-14T16:29:57.001Z</time>
      </trkpt>
      <trkpt lat="44.85167" lon="5.58271">
        <ele>1177</ele>
        <time>2013-09-14T16:30:00.001Z</time>
      </trkpt>
      <trkpt lat="44.85172" lon="5.58268">
        <ele>1177</ele>
        <time>2013-09-14T16:30:03.001Z</time>
      </trkpt>
      <trkpt lat="44.85176" lon="5.58264">
        <ele>1178</ele>
        <time>2013-09-14T16:30:06.001Z</time>
      </trkpt>
      <trkpt lat="44.8518" lon="5.58262">
        <ele>1178</ele>
        <time>2013-09-14T16:30:09.001Z</time>
      </trkpt>
      <trkpt lat="44.85184" lon="5.5826">
        <ele>1179</ele>
        <time>2013-09-14T16:30:12.001Z</time>
      </trkpt>
      <trkpt lat="44.85189" lon="5.58256">
        <ele>1179</ele>
        <time>2013-09-14T16:30:15.001Z</time>
      </trkpt>
      <trkpt lat="44.85195" lon="5.58254">
        <ele>1180</ele>
        <time>2013-09-14T16:30:19.001Z</time>
      </trkpt>
      <trkpt lat="44.85201" lon="5.58254">
        <ele>1180</ele>
        <time>2013-09-14T16:30:22.001Z</time>
      </trkpt>
      <trkpt lat="44.85206" lon="5.58251">
        <ele>1181</ele>
        <time>2013-09-14T16:30:25.001Z</time>
      </trkpt>
      <trkpt lat="44.8521" lon="5.58249">
        <ele>1181</ele>
        <time>2013-09-14T16:30:28.001Z</time>
      </trkpt>
      <trkpt lat="44.85214" lon="5.58247">
        <ele>1181</ele>
        <time>2013-09-14T16:30:30.001Z</time>
      </trkpt>
      <trkpt lat="44.8522" lon="5.58245">
        <ele>1182</ele>
        <time>2013-09-14T16:30:33.001Z</time>
      </trkpt>
      <trkpt lat="44.85226" lon="5.58243">
        <ele>1182</ele>
        <time>2013-09-14T16:30:37.001Z</time>
      </trkpt>
      <trkpt lat="44.85232" lon="5.58241">
        <ele>1183</ele>
        <time>2013-09-14T16:30:41.001Z</time>
      </trkpt>
      <trkpt lat="44.85237" lon="5.58241">
        <ele>1184</ele>
        <time>2013-09-14T16:30:44.001Z</time>
      </trkpt>
      <trkpt lat="44.85242" lon="5.58241">
        <ele>1184</ele>
        <time>2013-09-14T16:30:48.001Z</time>
      </trkpt>
      <trkpt lat="44.85248" lon="5.58243">
        <ele>1185</ele>
        <time>2013-09-14T16:30:52.001Z</time>
      </trkpt>
      <trkpt lat="44.85251" lon="5.58247">
        <ele>1185</ele>
        <time>2013-09-14T16:30:55.001Z</time>
      </trkpt>
      <trkpt lat="44.85254" lon="5.58251">
        <ele>1186</ele>
        <time>2013-09-14T16:30:58.001Z</time>
      </trkpt>
      <trkpt lat="44.85258" lon="5.58256">
        <ele>1186</ele>
        <time>2013-09-14T16:31:01.001Z</time>
      </trkpt>
      <trkpt lat="44.85262" lon="5.5826">
        <ele>1187</ele>
        <time>2013-09-14T16:31:05.001Z</time>
      </trkpt>
      <trkpt lat="44.85265" lon="5.58264">
        <ele>1187</ele>
        <time>2013-09-14T16:31:09.001Z</time>
      </trkpt>
      <trkpt lat="44.85269" lon="5.58271">
        <ele>1188</ele>
        <time>2013-09-14T16:31:13.001Z</time>
      </trkpt>
      <trkpt lat="44.85274" lon="5.58273">
        <ele>1189</ele>
        <time>2013-09-14T16:31:16.001Z</time>
      </trkpt>
      <trkpt lat="44.85278" lon="5.58275">
        <ele>1189</ele>
        <time>2013-09-14T16:31:19.001Z</time>
      </trkpt>
      <trkpt lat="44.85282" lon="5.58277">
        <ele>1189</ele>
        <time>2013-09-14T16:31:22.001Z</time>
      </trkpt>
      <trkpt lat="44.85286" lon="5.58279">
        <ele>1190</ele>
        <time>2013-09-14T16:31:25.001Z</time>
      </trkpt>
      <trkpt lat="44.85291" lon="5.58281">
        <ele>1190</ele>
        <time>2013-09-14T16:31:28.001Z</time>
      </trkpt>
      <trkpt lat="44.85295" lon="5.58284">
        <ele>1191</ele>
        <time>2013-09-14T16:31:31.001Z</time>
      </trkpt>
      <trkpt lat="44.85299" lon="5.58286">
        <ele>1191</ele>
        <time>2013-09-14T16:31:34.001Z</time>
      </trkpt>
      <trkpt lat="44.85305" lon="5.58286">
        <ele>1191</ele>
        <time>2013-09-14T16:31:38.001Z</time>
      </trkpt>
      <trkpt lat="44.8531" lon="5.58288">
        <ele>1192</ele>
        <time>2013-09-14T16:31:42.001Z</time>
      </trkpt>
      <trkpt lat="44.85315" lon="5.58288">
        <ele>1192</ele>
        <time>2013-09-14T16:31:46.001Z</time>
      </trkpt>
      <trkpt lat="44.85321" lon="5.58288">
        <ele>1193</ele>
        <time>2013-09-14T16:31:50.001Z</time>
      </trkpt>
      <trkpt lat="44.85326" lon="5.5829">
        <ele>1194</ele>
        <time>2013-09-14T16:31:54.001Z</time>
      </trkpt>
      <trkpt lat="44.85332" lon="5.58292">
        <ele>1194</ele>
        <time>2013-09-14T16:31:58.001Z</time>
      </trkpt>
      <trkpt lat="44.85337" lon="5.58294">
        <ele>1195</ele>
        <time>2013-09-14T16:32:02.001Z</time>
      </trkpt>
      <trkpt lat="44.85341" lon="5.58296">
        <ele>1196</ele>
        <time>2013-09-14T16:32:06.001Z</time>
      </trkpt>
      <trkpt lat="44.85345" lon="5.58301">
        <ele>1196</ele>
        <time>2013-09-14T16:32:09.001Z</time>
      </trkpt>
      <trkpt lat="44.85351" lon="5.58305">
        <ele>1197</ele>
        <time>2013-09-14T16:32:13.001Z</time>
      </trkpt>
      <trkpt lat="44.85355" lon="5.58307">
        <ele>1197</ele>
        <time>2013-09-14T16:32:16.001Z</time>
      </trkpt>
      <trkpt lat="44.8536" lon="5.58311">
        <ele>1198</ele>
        <time>2013-09-14T16:32:20.001Z</time>
      </trkpt>
      <trkpt lat="44.85365" lon="5.58316">
        <ele>1199</ele>
        <time>2013-09-14T16:32:24.001Z</time>
      </trkpt>
      <trkpt lat="44.85369" lon="5.58318">
        <ele>1199</ele>
        <time>2013-09-14T16:32:27.001Z</time>
      </trkpt>
      <trkpt lat="44.85373" lon="5.58322">
        <ele>1200</ele>
        <time>2013-09-14T16:32:31.001Z</time>
      </trkpt>
      <trkpt lat="44.85378" lon="5.58324">
        <ele>1200</ele>
        <time>2013-09-14T16:32:34.001Z</time>
      </trkpt>
      <trkpt lat="44.85382" lon="5.58326">
        <ele>1201</ele>
        <time>2013-09-14T16:32:38.001Z</time>
      </trkpt>
      <trkpt lat="44.85386" lon="5.58329">
        <ele>1201</ele>
        <time>2013-09-14T16:32:41.001Z</time>
      </trkpt>
      <trkpt lat="44.8539" lon="5.58333">
        <ele>1202</ele>
        <time>2013-09-14T16:32:46.001Z</time>
      </trkpt>
      <trkpt lat="44.85396" lon="5.58333">
        <ele>1203</ele>
        <time>2013-09-14T16:32:51.001Z</time>
      </trkpt>
      <trkpt lat="44.854" lon="5.58331">
        <ele>1203</ele>
        <time>2013-09-14T16:32:56.001Z</time>
      </trkpt>
      <trkpt lat="44.85406" lon="5.58333">
        <ele>1204</ele>
        <time>2013-09-14T16:33:00.001Z</time>
      </trkpt>
      <trkpt lat="44.85411" lon="5.58333">
        <ele>1205</ele>
        <time>2013-09-14T16:33:05.001Z</time>
      </trkpt>
      <trkpt lat="44.85416" lon="5.58333">
        <ele>1205</ele>
        <time>2013-09-14T16:33:09.001Z</time>
      </trkpt>
      <trkpt lat="44.85422" lon="5.58333">
        <ele>1206</ele>
        <time>2013-09-14T16:33:13.001Z</time>
      </trkpt>
      <trkpt lat="44.85428" lon="5.58333">
        <ele>1206</ele>
        <time>2013-09-14T16:33:17.001Z</time>
      </trkpt>
      <trkpt lat="44.85433" lon="5.58333">
        <ele>1207</ele>
        <time>2013-09-14T16:33:21.001Z</time>
      </trkpt>
      <trkpt lat="44.85439" lon="5.58331">
        <ele>1207</ele>
        <time>2013-09-14T16:33:25.001Z</time>
      </trkpt>
      <trkpt lat="44.85444" lon="5.58331">
        <ele>1208</ele>
        <time>2013-09-14T16:33:29.001Z</time>
      </trkpt>
      <trkpt lat="44.85448" lon="5.58326">
        <ele>1208</ele>
        <time>2013-09-14T16:33:39.001Z</time>
      </trkpt>
      <trkpt lat="44.85448" lon="5.58326">
        <ele>1208</ele>
        <time>2013-09-14T16:33:39.001Z</time>
      </trkpt>
      <trkpt lat="44.85448" lon="5.58326">
        <ele>1208</ele>
        <time>2013-09-14T16:33:40.001Z</time>
      </trkpt>
      <trkpt lat="44.85453" lon="5.58322">
        <ele>1208</ele>
        <time>2013-09-14T16:33:48.001Z</time>
      </trkpt>
      <trkpt lat="44.85453" lon="5.58322">
        <ele>1208</ele>
        <time>2013-09-14T16:33:48.001Z</time>
      </trkpt>
      <trkpt lat="44.85453" lon="5.58322">
        <ele>1208</ele>
        <time>2013-09-14T16:33:50.001Z</time>
      </trkpt>
      <trkpt lat="44.85457" lon="5.58318">
        <ele>1208</ele>
        <time>2013-09-14T16:34:07.001Z</time>
      </trkpt>
      <trkpt lat="44.85457" lon="5.58318">
        <ele>1208</ele>
        <time>2013-09-14T16:34:07.001Z</time>
      </trkpt>
      <trkpt lat="44.85457" lon="5.58318">
        <ele>1208</ele>
        <time>2013-09-14T16:34:10.001Z</time>
      </trkpt>
      <trkpt lat="44.85464" lon="5.58318">
        <ele>1209</ele>
        <time>2013-09-14T16:34:15.001Z</time>
      </trkpt>
      <trkpt lat="44.85469" lon="5.58318">
        <ele>1209</ele>
        <time>2013-09-14T16:34:19.001Z</time>
      </trkpt>
      <trkpt lat="44.85473" lon="5.58316">
        <ele>1210</ele>
        <time>2013-09-14T16:34:23.001Z</time>
      </trkpt>
      <trkpt lat="44.85473" lon="5.58316">
        <ele>1210</ele>
        <time>2013-09-14T16:34:23.001Z</time>
      </trkpt>
      <trkpt lat="44.85473" lon="5.58316">
        <ele>1210</ele>
        <time>2013-09-14T16:34:24.001Z</time>
      </trkpt>
      <trkpt lat="44.85477" lon="5.58314">
        <ele>1210</ele>
        <time>2013-09-14T16:34:28.001Z</time>
      </trkpt>
      <trkpt lat="44.85482" lon="5.58311">
        <ele>1211</ele>
        <time>2013-09-14T16:34:33.001Z</time>
      </trkpt>
      <trkpt lat="44.85486" lon="5.58309">
        <ele>1211</ele>
        <time>2013-09-14T16:34:37.001Z</time>
      </trkpt>
      <trkpt lat="44.8549" lon="5.58307">
        <ele>1212</ele>
        <time>2013-09-14T16:34:41.001Z</time>
      </trkpt>
      <trkpt lat="44.85495" lon="5.58305">
        <ele>1213</ele>
        <time>2013-09-14T16:34:45.001Z</time>
      </trkpt>
      <trkpt lat="44.85499" lon="5.58303">
        <ele>1213</ele>
        <time>2013-09-14T16:34:48.001Z</time>
      </trkpt>
      <trkpt lat="44.85504" lon="5.58301">
        <ele>1214</ele>
        <time>2013-09-14T16:34:51.001Z</time>
      </trkpt>
      <trkpt lat="44.8551" lon="5.58301">
        <ele>1214</ele>
        <time>2013-09-14T16:34:54.001Z</time>
      </trkpt>
      <trkpt lat="44.85515" lon="5.58296">
        <ele>1215</ele>
        <time>2013-09-14T16:34:57.001Z</time>
      </trkpt>
      <trkpt lat="44.8552" lon="5.58294">
        <ele>1216</ele>
        <time>2013-09-14T16:35:00.001Z</time>
      </trkpt>
      <trkpt lat="44.85525" lon="5.58292">
        <ele>1216</ele>
        <time>2013-09-14T16:35:02.001Z</time>
      </trkpt>
      <trkpt lat="44.8553" lon="5.58292">
        <ele>1217</ele>
        <time>2013-09-14T16:35:05.001Z</time>
      </trkpt>
      <trkpt lat="44.85535" lon="5.58292">
        <ele>1217</ele>
        <time>2013-09-14T16:35:08.001Z</time>
      </trkpt>
      <trkpt lat="44.8554" lon="5.58296">
        <ele>1218</ele>
        <time>2013-09-14T16:35:11.001Z</time>
      </trkpt>
      <trkpt lat="44.85542" lon="5.58303">
        <ele>1218</ele>
        <time>2013-09-14T16:35:14.001Z</time>
      </trkpt>
      <trkpt lat="44.85542" lon="5.58309">
        <ele>1220</ele>
        <time>2013-09-14T16:35:21.001Z</time>
      </trkpt>
      <trkpt lat="44.85538" lon="5.58311">
        <ele>1221</ele>
        <time>2013-09-14T16:35:26.001Z</time>
      </trkpt>
      <trkpt lat="44.85533" lon="5.58314">
        <ele>1222</ele>
        <time>2013-09-14T16:35:30.001Z</time>
      </trkpt>
      <trkpt lat="44.85529" lon="5.58316">
        <ele>1223</ele>
        <time>2013-09-14T16:35:34.001Z</time>
      </trkpt>
      <trkpt lat="44.85525" lon="5.58318">
        <ele>1224</ele>
        <time>2013-09-14T16:35:37.001Z</time>
      </trkpt>
      <trkpt lat="44.8552" lon="5.5832">
        <ele>1225</ele>
        <time>2013-09-14T16:35:41.001Z</time>
      </trkpt>
      <trkpt lat="44.85516" lon="5.58324">
        <ele>1226</ele>
        <time>2013-09-14T16:35:45.001Z</time>
      </trkpt>
      <trkpt lat="44.85512" lon="5.58329">
        <ele>1227</ele>
        <time>2013-09-14T16:35:49.001Z</time>
      </trkpt>
      <trkpt lat="44.85507" lon="5.58335">
        <ele>1228</ele>
        <time>2013-09-14T16:35:54.001Z</time>
      </trkpt>
      <trkpt lat="44.85507" lon="5.58335">
        <ele>1228</ele>
        <time>2013-09-14T16:35:54.001Z</time>
      </trkpt>
      <trkpt lat="44.85507" lon="5.58335">
        <ele>1228</ele>
        <time>2013-09-14T16:35:55.001Z</time>
      </trkpt>
      <trkpt lat="44.85504" lon="5.58342">
        <ele>1229</ele>
        <time>2013-09-14T16:35:59.001Z</time>
      </trkpt>
      <trkpt lat="44.85501" lon="5.58348">
        <ele>1230</ele>
        <time>2013-09-14T16:36:03.001Z</time>
      </trkpt>
      <trkpt lat="44.85501" lon="5.58348">
        <ele>1230</ele>
        <time>2013-09-14T16:36:03.001Z</time>
      </trkpt>
      <trkpt lat="44.85501" lon="5.58348">
        <ele>1230</ele>
        <time>2013-09-14T16:36:04.001Z</time>
      </trkpt>
      <trkpt lat="44.85499" lon="5.58354">
        <ele>1231</ele>
        <time>2013-09-14T16:36:07.001Z</time>
      </trkpt>
      <trkpt lat="44.85496" lon="5.58361">
        <ele>1231</ele>
        <time>2013-09-14T16:36:11.001Z</time>
      </trkpt>
      <trkpt lat="44.85492" lon="5.58367">
        <ele>1232</ele>
        <time>2013-09-14T16:36:14.001Z</time>
      </trkpt>
      <trkpt lat="44.85488" lon="5.58372">
        <ele>1232</ele>
        <time>2013-09-14T16:36:17.001Z</time>
      </trkpt>
      <trkpt lat="44.85484" lon="5.58376">
        <ele>1233</ele>
        <time>2013-09-14T16:36:21.001Z</time>
      </trkpt>
      <trkpt lat="44.85478" lon="5.5838">
        <ele>1234</ele>
        <time>2013-09-14T16:36:25.001Z</time>
      </trkpt>
      <trkpt lat="44.85473" lon="5.58384">
        <ele>1235</ele>
        <time>2013-09-14T16:36:29.001Z</time>
      </trkpt>
      <trkpt lat="44.85469" lon="5.58389">
        <ele>1236</ele>
        <time>2013-09-14T16:36:33.001Z</time>
      </trkpt>
      <trkpt lat="44.85464" lon="5.58391">
        <ele>1236</ele>
        <time>2013-09-14T16:36:37.001Z</time>
      </trkpt>
      <trkpt lat="44.85459" lon="5.58393">
        <ele>1237</ele>
        <time>2013-09-14T16:36:41.001Z</time>
      </trkpt>
      <trkpt lat="44.85455" lon="5.58395">
        <ele>1238</ele>
        <time>2013-09-14T16:36:44.001Z</time>
      </trkpt>
      <trkpt lat="44.85451" lon="5.58397">
        <ele>1238</ele>
        <time>2013-09-14T16:36:47.001Z</time>
      </trkpt>
      <trkpt lat="44.85445" lon="5.58399">
        <ele>1239</ele>
        <time>2013-09-14T16:36:51.001Z</time>
      </trkpt>
      <trkpt lat="44.85441" lon="5.58402">
        <ele>1240</ele>
        <time>2013-09-14T16:36:54.001Z</time>
      </trkpt>
      <trkpt lat="44.85434" lon="5.58402">
        <ele>1241</ele>
        <time>2013-09-14T16:36:59.001Z</time>
      </trkpt>
      <trkpt lat="44.85429" lon="5.58404">
        <ele>1242</ele>
        <time>2013-09-14T16:37:03.001Z</time>
      </trkpt>
      <trkpt lat="44.85424" lon="5.58406">
        <ele>1243</ele>
        <time>2013-09-14T16:37:08.001Z</time>
      </trkpt>
      <trkpt lat="44.85418" lon="5.58406">
        <ele>1243</ele>
        <time>2013-09-14T16:37:12.001Z</time>
      </trkpt>
      <trkpt lat="44.85414" lon="5.58408">
        <ele>1244</ele>
        <time>2013-09-14T16:37:15.001Z</time>
      </trkpt>
      <trkpt lat="44.85409" lon="5.58408">
        <ele>1244</ele>
        <time>2013-09-14T16:37:19.001Z</time>
      </trkpt>
      <trkpt lat="44.85409" lon="5.58408">
        <ele>1244</ele>
        <time>2013-09-14T16:37:19.001Z</time>
      </trkpt>
      <trkpt lat="44.85409" lon="5.58408">
        <ele>1244</ele>
        <time>2013-09-14T16:37:20.001Z</time>
      </trkpt>
      <trkpt lat="44.85406" lon="5.58414">
        <ele>1245</ele>
        <time>2013-09-14T16:37:35.001Z</time>
      </trkpt>
      <trkpt lat="44.85404" lon="5.58421">
        <ele>1245</ele>
        <time>2013-09-14T16:37:42.001Z</time>
      </trkpt>
      <trkpt lat="44.85404" lon="5.58421">
        <ele>1245</ele>
        <time>2013-09-14T16:37:42.001Z</time>
      </trkpt>
      <trkpt lat="44.85404" lon="5.58421">
        <ele>1246</ele>
        <time>2013-09-14T16:38:15.001Z</time>
      </trkpt>
      <trkpt lat="44.85399" lon="5.58423">
        <ele>1246</ele>
        <time>2013-09-14T16:38:26.001Z</time>
      </trkpt>
      <trkpt lat="44.85399" lon="5.58423">
        <ele>1246</ele>
        <time>2013-09-14T16:38:26.001Z</time>
      </trkpt>
      <trkpt lat="44.85399" lon="5.58423">
        <ele>1246</ele>
        <time>2013-09-14T16:38:34.001Z</time>
      </trkpt>
      <trkpt lat="44.85394" lon="5.58423">
        <ele>1248</ele>
        <time>2013-09-14T16:38:45.001Z</time>
      </trkpt>
      <trkpt lat="44.85389" lon="5.58427">
        <ele>1248</ele>
        <time>2013-09-14T16:38:49.001Z</time>
      </trkpt>
      <trkpt lat="44.85384" lon="5.58429">
        <ele>1249</ele>
        <time>2013-09-14T16:38:53.001Z</time>
      </trkpt>
      <trkpt lat="44.8538" lon="5.58436">
        <ele>1250</ele>
        <time>2013-09-14T16:38:57.001Z</time>
      </trkpt>
      <trkpt lat="44.85376" lon="5.58442">
        <ele>1250</ele>
        <time>2013-09-14T16:39:01.001Z</time>
      </trkpt>
      <trkpt lat="44.85376" lon="5.58442">
        <ele>1250</ele>
        <time>2013-09-14T16:39:01.001Z</time>
      </trkpt>
      <trkpt lat="44.85376" lon="5.58442">
        <ele>1250</ele>
        <time>2013-09-14T16:39:02.001Z</time>
      </trkpt>
      <trkpt lat="44.85374" lon="5.58449">
        <ele>1251</ele>
        <time>2013-09-14T16:39:05.001Z</time>
      </trkpt>
      <trkpt lat="44.85374" lon="5.58455">
        <ele>1251</ele>
        <time>2013-09-14T16:39:08.001Z</time>
      </trkpt>
      <trkpt lat="44.85378" lon="5.58462">
        <ele>1252</ele>
        <time>2013-09-14T16:39:12.001Z</time>
      </trkpt>
      <trkpt lat="44.85381" lon="5.58466">
        <ele>1253</ele>
        <time>2013-09-14T16:39:15.001Z</time>
      </trkpt>
      <trkpt lat="44.85387" lon="5.58466">
        <ele>1253</ele>
        <time>2013-09-14T16:39:19.001Z</time>
      </trkpt>
      <trkpt lat="44.85394" lon="5.58466">
        <ele>1254</ele>
        <time>2013-09-14T16:39:23.001Z</time>
      </trkpt>
      <trkpt lat="44.85398" lon="5.58464">
        <ele>1254</ele>
        <time>2013-09-14T16:39:26.001Z</time>
      </trkpt>
      <trkpt lat="44.85402" lon="5.58462">
        <ele>1254</ele>
        <time>2013-09-14T16:39:29.001Z</time>
      </trkpt>
      <trkpt lat="44.85407" lon="5.58457">
        <ele>1254</ele>
        <time>2013-09-14T16:39:33.001Z</time>
      </trkpt>
      <trkpt lat="44.85412" lon="5.58457">
        <ele>1254</ele>
        <time>2013-09-14T16:39:37.001Z</time>
      </trkpt>
      <trkpt lat="44.85417" lon="5.58455">
        <ele>1254</ele>
        <time>2013-09-14T16:39:40.001Z</time>
      </trkpt>
      <trkpt lat="44.85422" lon="5.58457">
        <ele>1255</ele>
        <time>2013-09-14T16:39:43.001Z</time>
      </trkpt>
      <trkpt lat="44.85426" lon="5.5846">
        <ele>1255</ele>
        <time>2013-09-14T16:39:47.001Z</time>
      </trkpt>
      <trkpt lat="44.85431" lon="5.58462">
        <ele>1255</ele>
        <time>2013-09-14T16:39:51.001Z</time>
      </trkpt>
      <trkpt lat="44.85438" lon="5.58462">
        <ele>1256</ele>
        <time>2013-09-14T16:39:56.001Z</time>
      </trkpt>
      <trkpt lat="44.85443" lon="5.58464">
        <ele>1256</ele>
        <time>2013-09-14T16:40:00.001Z</time>
      </trkpt>
      <trkpt lat="44.85448" lon="5.58464">
        <ele>1256</ele>
        <time>2013-09-14T16:40:04.001Z</time>
      </trkpt>
      <trkpt lat="44.85454" lon="5.58466">
        <ele>1257</ele>
        <time>2013-09-14T16:40:08.001Z</time>
      </trkpt>
      <trkpt lat="44.85459" lon="5.58466">
        <ele>1257</ele>
        <time>2013-09-14T16:40:12.001Z</time>
      </trkpt>
      <trkpt lat="44.85464" lon="5.58468">
        <ele>1257</ele>
        <time>2013-09-14T16:40:16.001Z</time>
      </trkpt>
      <trkpt lat="44.8547" lon="5.5847">
        <ele>1258</ele>
        <time>2013-09-14T16:40:20.001Z</time>
      </trkpt>
      <trkpt lat="44.85475" lon="5.5847">
        <ele>1258</ele>
        <time>2013-09-14T16:40:24.001Z</time>
      </trkpt>
      <trkpt lat="44.85481" lon="5.5847">
        <ele>1258</ele>
        <time>2013-09-14T16:40:28.001Z</time>
      </trkpt>
      <trkpt lat="44.85485" lon="5.58468">
        <ele>1258</ele>
        <time>2013-09-14T16:40:31.001Z</time>
      </trkpt>
      <trkpt lat="44.85491" lon="5.58468">
        <ele>1259</ele>
        <time>2013-09-14T16:40:35.001Z</time>
      </trkpt>
      <trkpt lat="44.85497" lon="5.58468">
        <ele>1259</ele>
        <time>2013-09-14T16:40:39.001Z</time>
      </trkpt>
      <trkpt lat="44.85501" lon="5.5847">
        <ele>1259</ele>
        <time>2013-09-14T16:40:42.001Z</time>
      </trkpt>
      <trkpt lat="44.85505" lon="5.58472">
        <ele>1260</ele>
        <time>2013-09-14T16:40:45.001Z</time>
      </trkpt>
      <trkpt lat="44.8551" lon="5.58474">
        <ele>1260</ele>
        <time>2013-09-14T16:40:48.001Z</time>
      </trkpt>
      <trkpt lat="44.85515" lon="5.58474">
        <ele>1260</ele>
        <time>2013-09-14T16:40:51.001Z</time>
      </trkpt>
      <trkpt lat="44.85519" lon="5.58477">
        <ele>1260</ele>
        <time>2013-09-14T16:40:54.001Z</time>
      </trkpt>
      <trkpt lat="44.85525" lon="5.58479">
        <ele>1261</ele>
        <time>2013-09-14T16:40:58.001Z</time>
      </trkpt>
      <trkpt lat="44.8553" lon="5.58479">
        <ele>1261</ele>
        <time>2013-09-14T16:41:01.001Z</time>
      </trkpt>
      <trkpt lat="44.85534" lon="5.58481">
        <ele>1261</ele>
        <time>2013-09-14T16:41:04.001Z</time>
      </trkpt>
      <trkpt lat="44.8554" lon="5.58481">
        <ele>1261</ele>
        <time>2013-09-14T16:41:08.001Z</time>
      </trkpt>
      <trkpt lat="44.85544" lon="5.58483">
        <ele>1262</ele>
        <time>2013-09-14T16:41:11.001Z</time>
      </trkpt>
      <trkpt lat="44.85549" lon="5.58483">
        <ele>1262</ele>
        <time>2013-09-14T16:41:14.001Z</time>
      </trkpt>
      <trkpt lat="44.85555" lon="5.58483">
        <ele>1262</ele>
        <time>2013-09-14T16:41:18.001Z</time>
      </trkpt>
      <trkpt lat="44.8556" lon="5.58483">
        <ele>1262</ele>
        <time>2013-09-14T16:41:21.001Z</time>
      </trkpt>
      <trkpt lat="44.85565" lon="5.58483">
        <ele>1263</ele>
        <time>2013-09-14T16:41:25.001Z</time>
      </trkpt>
      <trkpt lat="44.85571" lon="5.58483">
        <ele>1263</ele>
        <time>2013-09-14T16:41:28.001Z</time>
      </trkpt>
      <trkpt lat="44.85575" lon="5.58481">
        <ele>1263</ele>
        <time>2013-09-14T16:41:31.001Z</time>
      </trkpt>
      <trkpt lat="44.85582" lon="5.58481">
        <ele>1263</ele>
        <time>2013-09-14T16:41:35.001Z</time>
      </trkpt>
      <trkpt lat="44.85586" lon="5.58479">
        <ele>1264</ele>
        <time>2013-09-14T16:41:38.001Z</time>
      </trkpt>
      <trkpt lat="44.85591" lon="5.58479">
        <ele>1264</ele>
        <time>2013-09-14T16:41:41.001Z</time>
      </trkpt>
      <trkpt lat="44.85595" lon="5.58474">
        <ele>1264</ele>
        <time>2013-09-14T16:41:44.001Z</time>
      </trkpt>
      <trkpt lat="44.856" lon="5.58472">
        <ele>1264</ele>
        <time>2013-09-14T16:41:47.001Z</time>
      </trkpt>
      <trkpt lat="44.85604" lon="5.58468">
        <ele>1264</ele>
        <time>2013-09-14T16:41:50.001Z</time>
      </trkpt>
      <trkpt lat="44.85608" lon="5.58464">
        <ele>1265</ele>
        <time>2013-09-14T16:41:54.001Z</time>
      </trkpt>
      <trkpt lat="44.85614" lon="5.58462">
        <ele>1265</ele>
        <time>2013-09-14T16:41:58.001Z</time>
      </trkpt>
      <trkpt lat="44.85619" lon="5.58462">
        <ele>1265</ele>
        <time>2013-09-14T16:42:02.001Z</time>
      </trkpt>
      <trkpt lat="44.85624" lon="5.58462">
        <ele>1265</ele>
        <time>2013-09-14T16:42:05.001Z</time>
      </trkpt>
      <trkpt lat="44.85631" lon="5.5846">
        <ele>1266</ele>
        <time>2013-09-14T16:42:09.001Z</time>
      </trkpt>
      <trkpt lat="44.85636" lon="5.5846">
        <ele>1266</ele>
        <time>2013-09-14T16:42:13.001Z</time>
      </trkpt>
      <trkpt lat="44.85642" lon="5.58457">
        <ele>1266</ele>
        <time>2013-09-14T16:42:16.001Z</time>
      </trkpt>
      <trkpt lat="44.85646" lon="5.58455">
        <ele>1266</ele>
        <time>2013-09-14T16:42:19.001Z</time>
      </trkpt>
      <trkpt lat="44.85652" lon="5.58455">
        <ele>1267</ele>
        <time>2013-09-14T16:42:22.001Z</time>
      </trkpt>
      <trkpt lat="44.85658" lon="5.58453">
        <ele>1267</ele>
        <time>2013-09-14T16:42:25.001Z</time>
      </trkpt>
      <trkpt lat="44.85662" lon="5.58451">
        <ele>1267</ele>
        <time>2013-09-14T16:42:28.001Z</time>
      </trkpt>
      <trkpt lat="44.85666" lon="5.58447">
        <ele>1267</ele>
        <time>2013-09-14T16:42:32.001Z</time>
      </trkpt>
      <trkpt lat="44.8567" lon="5.58442">
        <ele>1268</ele>
        <time>2013-09-14T16:42:36.001Z</time>
      </trkpt>
      <trkpt lat="44.85675" lon="5.58438">
        <ele>1268</ele>
        <time>2013-09-14T16:42:40.001Z</time>
      </trkpt>
      <trkpt lat="44.85679" lon="5.58432">
        <ele>1268</ele>
        <time>2013-09-14T16:42:45.001Z</time>
      </trkpt>
      <trkpt lat="44.85683" lon="5.58429">
        <ele>1268</ele>
        <time>2013-09-14T16:42:48.001Z</time>
      </trkpt>
      <trkpt lat="44.85688" lon="5.58427">
        <ele>1269</ele>
        <time>2013-09-14T16:42:51.001Z</time>
      </trkpt>
      <trkpt lat="44.85692" lon="5.58425">
        <ele>1269</ele>
        <time>2013-09-14T16:42:54.001Z</time>
      </trkpt>
      <trkpt lat="44.85696" lon="5.58421">
        <ele>1269</ele>
        <time>2013-09-14T16:42:57.001Z</time>
      </trkpt>
      <trkpt lat="44.85701" lon="5.58419">
        <ele>1269</ele>
        <time>2013-09-14T16:43:00.001Z</time>
      </trkpt>
      <trkpt lat="44.85705" lon="5.58417">
        <ele>1270</ele>
        <time>2013-09-14T16:43:03.001Z</time>
      </trkpt>
      <trkpt lat="44.85709" lon="5.58414">
        <ele>1270</ele>
        <time>2013-09-14T16:43:06.001Z</time>
      </trkpt>
      <trkpt lat="44.85713" lon="5.5841">
        <ele>1270</ele>
        <time>2013-09-14T16:43:09.001Z</time>
      </trkpt>
      <trkpt lat="44.85718" lon="5.58406">
        <ele>1271</ele>
        <time>2013-09-14T16:43:12.001Z</time>
      </trkpt>
      <trkpt lat="44.85722" lon="5.58402">
        <ele>1271</ele>
        <time>2013-09-14T16:43:15.001Z</time>
      </trkpt>
      <trkpt lat="44.85726" lon="5.58397">
        <ele>1271</ele>
        <time>2013-09-14T16:43:18.001Z</time>
      </trkpt>
      <trkpt lat="44.85731" lon="5.58393">
        <ele>1272</ele>
        <time>2013-09-14T16:43:21.001Z</time>
      </trkpt>
      <trkpt lat="44.85735" lon="5.58389">
        <ele>1272</ele>
        <time>2013-09-14T16:43:24.001Z</time>
      </trkpt>
      <trkpt lat="44.8574" lon="5.58382">
        <ele>1273</ele>
        <time>2013-09-14T16:43:28.001Z</time>
      </trkpt>
      <trkpt lat="44.85744" lon="5.58376">
        <ele>1274</ele>
        <time>2013-09-14T16:43:32.001Z</time>
      </trkpt>
      <trkpt lat="44.85748" lon="5.58369">
        <ele>1274</ele>
        <time>2013-09-14T16:43:36.001Z</time>
      </trkpt>
      <trkpt lat="44.8575" lon="5.58363">
        <ele>1275</ele>
        <time>2013-09-14T16:43:39.001Z</time>
      </trkpt>
      <trkpt lat="44.85752" lon="5.58356">
        <ele>1275</ele>
        <time>2013-09-14T16:43:42.001Z</time>
      </trkpt>
      <trkpt lat="44.85753" lon="5.5835">
        <ele>1276</ele>
        <time>2013-09-14T16:43:45.001Z</time>
      </trkpt>
      <trkpt lat="44.85754" lon="5.58344">
        <ele>1276</ele>
        <time>2013-09-14T16:43:48.001Z</time>
      </trkpt>
      <trkpt lat="44.85756" lon="5.58337">
        <ele>1277</ele>
        <time>2013-09-14T16:43:51.001Z</time>
      </trkpt>
      <trkpt lat="44.85758" lon="5.58331">
        <ele>1277</ele>
        <time>2013-09-14T16:43:54.001Z</time>
      </trkpt>
      <trkpt lat="44.85758" lon="5.58331">
        <ele>1277</ele>
        <time>2013-09-14T16:43:54.001Z</time>
      </trkpt>
      <trkpt lat="44.85758" lon="5.58331">
        <ele>1278</ele>
        <time>2013-09-14T16:43:55.001Z</time>
      </trkpt>
      <trkpt lat="44.85761" lon="5.58324">
        <ele>1278</ele>
        <time>2013-09-14T16:44:01.001Z</time>
      </trkpt>
      <trkpt lat="44.85761" lon="5.58324">
        <ele>1278</ele>
        <time>2013-09-14T16:44:01.001Z</time>
      </trkpt>
      <trkpt lat="44.85761" lon="5.58324">
        <ele>1278</ele>
        <time>2013-09-14T16:44:02.001Z</time>
      </trkpt>
      <trkpt lat="44.85761" lon="5.58318">
        <ele>1278</ele>
        <time>2013-09-14T16:44:09.001Z</time>
      </trkpt>
      <trkpt lat="44.85761" lon="5.58318">
        <ele>1278</ele>
        <time>2013-09-14T16:44:09.001Z</time>
      </trkpt>
      <trkpt lat="44.85761" lon="5.58318">
        <ele>1278</ele>
        <time>2013-09-14T16:44:24.001Z</time>
      </trkpt>
      <trkpt lat="44.85762" lon="5.58311">
        <ele>1279</ele>
        <time>2013-09-14T16:45:02.001Z</time>
      </trkpt>
      <trkpt lat="44.85762" lon="5.58311">
        <ele>1279</ele>
        <time>2013-09-14T16:45:02.001Z</time>
      </trkpt>
      <trkpt lat="44.85762" lon="5.58311">
        <ele>1279</ele>
        <time>2013-09-14T16:45:05.001Z</time>
      </trkpt>
      <trkpt lat="44.85764" lon="5.58305">
        <ele>1279</ele>
        <time>2013-09-14T16:45:11.001Z</time>
      </trkpt>
      <trkpt lat="44.85766" lon="5.58298">
        <ele>1279</ele>
        <time>2013-09-14T16:45:14.001Z</time>
      </trkpt>
      <trkpt lat="44.85769" lon="5.58292">
        <ele>1279</ele>
        <time>2013-09-14T16:45:17.001Z</time>
      </trkpt>
      <trkpt lat="44.85771" lon="5.58286">
        <ele>1280</ele>
        <time>2013-09-14T16:45:22.001Z</time>
      </trkpt>
      <trkpt lat="44.85774" lon="5.58279">
        <ele>1280</ele>
        <time>2013-09-14T16:45:26.001Z</time>
      </trkpt>
      <trkpt lat="44.85777" lon="5.58273">
        <ele>1280</ele>
        <time>2013-09-14T16:45:30.001Z</time>
      </trkpt>
      <trkpt lat="44.8578" lon="5.58266">
        <ele>1281</ele>
        <time>2013-09-14T16:45:34.001Z</time>
      </trkpt>
      <trkpt lat="44.85782" lon="5.5826">
        <ele>1281</ele>
        <time>2013-09-14T16:45:38.001Z</time>
      </trkpt>
      <trkpt lat="44.85784" lon="5.58254">
        <ele>1281</ele>
        <time>2013-09-14T16:45:42.001Z</time>
      </trkpt>
      <trkpt lat="44.85785" lon="5.58247">
        <ele>1282</ele>
        <time>2013-09-14T16:45:45.001Z</time>
      </trkpt>
      <trkpt lat="44.85786" lon="5.58241">
        <ele>1282</ele>
        <time>2013-09-14T16:45:48.001Z</time>
      </trkpt>
      <trkpt lat="44.85786" lon="5.58234">
        <ele>1282</ele>
        <time>2013-09-14T16:45:50.001Z</time>
      </trkpt>
      <trkpt lat="44.85786" lon="5.58228">
        <ele>1283</ele>
        <time>2013-09-14T16:45:53.001Z</time>
      </trkpt>
      <trkpt lat="44.85786" lon="5.58221">
        <ele>1283</ele>
        <time>2013-09-14T16:45:55.001Z</time>
      </trkpt>
      <trkpt lat="44.85788" lon="5.58215">
        <ele>1284</ele>
        <time>2013-09-14T16:45:58.001Z</time>
      </trkpt>
      <trkpt lat="44.85788" lon="5.58206">
        <ele>1284</ele>
        <time>2013-09-14T16:46:01.001Z</time>
      </trkpt>
      <trkpt lat="44.85788" lon="5.582">
        <ele>1285</ele>
        <time>2013-09-14T16:46:04.001Z</time>
      </trkpt>
      <trkpt lat="44.85788" lon="5.58193">
        <ele>1285</ele>
        <time>2013-09-14T16:46:07.001Z</time>
      </trkpt>
      <trkpt lat="44.85788" lon="5.58187">
        <ele>1285</ele>
        <time>2013-09-14T16:46:10.001Z</time>
      </trkpt>
      <trkpt lat="44.85788" lon="5.5818">
        <ele>1286</ele>
        <time>2013-09-14T16:46:12.001Z</time>
      </trkpt>
      <trkpt lat="44.85788" lon="5.58174">
        <ele>1286</ele>
        <time>2013-09-14T16:46:15.001Z</time>
      </trkpt>
      <trkpt lat="44.85788" lon="5.58168">
        <ele>1287</ele>
        <time>2013-09-14T16:46:18.001Z</time>
      </trkpt>
      <trkpt lat="44.85788" lon="5.58161">
        <ele>1287</ele>
        <time>2013-09-14T16:46:21.001Z</time>
      </trkpt>
      <trkpt lat="44.85788" lon="5.58153">
        <ele>1288</ele>
        <time>2013-09-14T16:46:24.001Z</time>
      </trkpt>
      <trkpt lat="44.85788" lon="5.58146">
        <ele>1289</ele>
        <time>2013-09-14T16:46:27.001Z</time>
      </trkpt>
      <trkpt lat="44.85788" lon="5.5814">
        <ele>1290</ele>
        <time>2013-09-14T16:46:30.001Z</time>
      </trkpt>
      <trkpt lat="44.85788" lon="5.58133">
        <ele>1290</ele>
        <time>2013-09-14T16:46:32.001Z</time>
      </trkpt>
      <trkpt lat="44.85788" lon="5.58127">
        <ele>1291</ele>
        <time>2013-09-14T16:46:35.001Z</time>
      </trkpt>
      <trkpt lat="44.85788" lon="5.5812">
        <ele>1292</ele>
        <time>2013-09-14T16:46:38.001Z</time>
      </trkpt>
      <trkpt lat="44.85788" lon="5.58114">
        <ele>1292</ele>
        <time>2013-09-14T16:46:41.001Z</time>
      </trkpt>
      <trkpt lat="44.8579" lon="5.58108">
        <ele>1293</ele>
        <time>2013-09-14T16:46:43.001Z</time>
      </trkpt>
      <trkpt lat="44.8579" lon="5.58101">
        <ele>1294</ele>
        <time>2013-09-14T16:46:46.001Z</time>
      </trkpt>
      <trkpt lat="44.85792" lon="5.58092">
        <ele>1294</ele>
        <time>2013-09-14T16:46:49.001Z</time>
      </trkpt>
      <trkpt lat="44.85792" lon="5.58086">
        <ele>1295</ele>
        <time>2013-09-14T16:46:52.001Z</time>
      </trkpt>
      <trkpt lat="44.85793" lon="5.5808">
        <ele>1296</ele>
        <time>2013-09-14T16:46:55.001Z</time>
      </trkpt>
      <trkpt lat="44.85793" lon="5.58073">
        <ele>1297</ele>
        <time>2013-09-14T16:46:58.001Z</time>
      </trkpt>
      <trkpt lat="44.85793" lon="5.58067">
        <ele>1297</ele>
        <time>2013-09-14T16:47:00.001Z</time>
      </trkpt>
      <trkpt lat="44.85793" lon="5.5806">
        <ele>1298</ele>
        <time>2013-09-14T16:47:03.001Z</time>
      </trkpt>
      <trkpt lat="44.85793" lon="5.58054">
        <ele>1299</ele>
        <time>2013-09-14T16:47:06.001Z</time>
      </trkpt>
      <trkpt lat="44.85793" lon="5.58048">
        <ele>1300</ele>
        <time>2013-09-14T16:47:08.001Z</time>
      </trkpt>
      <trkpt lat="44.85793" lon="5.58041">
        <ele>1301</ele>
        <time>2013-09-14T16:47:11.001Z</time>
      </trkpt>
      <trkpt lat="44.85792" lon="5.58035">
        <ele>1302</ele>
        <time>2013-09-14T16:47:14.001Z</time>
      </trkpt>
      <trkpt lat="44.85791" lon="5.58028">
        <ele>1302</ele>
        <time>2013-09-14T16:47:17.001Z</time>
      </trkpt>
      <trkpt lat="44.85791" lon="5.58022">
        <ele>1303</ele>
        <time>2013-09-14T16:47:19.001Z</time>
      </trkpt>
      <trkpt lat="44.8579" lon="5.58015">
        <ele>1303</ele>
        <time>2013-09-14T16:47:22.001Z</time>
      </trkpt>
      <trkpt lat="44.85788" lon="5.58007">
        <ele>1304</ele>
        <time>2013-09-14T16:47:25.001Z</time>
      </trkpt>
      <trkpt lat="44.85788" lon="5.57998">
        <ele>1304</ele>
        <time>2013-09-14T16:47:28.001Z</time>
      </trkpt>
      <trkpt lat="44.85788" lon="5.5799">
        <ele>1305</ele>
        <time>2013-09-14T16:47:31.001Z</time>
      </trkpt>
      <trkpt lat="44.85788" lon="5.57983">
        <ele>1306</ele>
        <time>2013-09-14T16:47:33.001Z</time>
      </trkpt>
      <trkpt lat="44.85788" lon="5.57977">
        <ele>1306</ele>
        <time>2013-09-14T16:47:35.001Z</time>
      </trkpt>
      <trkpt lat="44.85788" lon="5.57968">
        <ele>1307</ele>
        <time>2013-09-14T16:47:38.001Z</time>
      </trkpt>
      <trkpt lat="44.85788" lon="5.57962">
        <ele>1308</ele>
        <time>2013-09-14T16:47:40.001Z</time>
      </trkpt>
      <trkpt lat="44.85788" lon="5.57955">
        <ele>1308</ele>
        <time>2013-09-14T16:47:42.001Z</time>
      </trkpt>
      <trkpt lat="44.8579" lon="5.57949">
        <ele>1309</ele>
        <time>2013-09-14T16:47:44.001Z</time>
      </trkpt>
      <trkpt lat="44.85791" lon="5.5794">
        <ele>1309</ele>
        <time>2013-09-14T16:47:47.001Z</time>
      </trkpt>
      <trkpt lat="44.85792" lon="5.57932">
        <ele>1310</ele>
        <time>2013-09-14T16:47:50.001Z</time>
      </trkpt>
      <trkpt lat="44.85792" lon="5.57925">
        <ele>1310</ele>
        <time>2013-09-14T16:47:52.001Z</time>
      </trkpt>
      <trkpt lat="44.85793" lon="5.57917">
        <ele>1311</ele>
        <time>2013-09-14T16:47:55.001Z</time>
      </trkpt>
      <trkpt lat="44.85794" lon="5.57908">
        <ele>1311</ele>
        <time>2013-09-14T16:47:58.001Z</time>
      </trkpt>
      <trkpt lat="44.85794" lon="5.57899">
        <ele>1312</ele>
        <time>2013-09-14T16:48:01.001Z</time>
      </trkpt>
      <trkpt lat="44.85793" lon="5.57893">
        <ele>1312</ele>
        <time>2013-09-14T16:48:04.001Z</time>
      </trkpt>
      <trkpt lat="44.85793" lon="5.57887">
        <ele>1313</ele>
        <time>2013-09-14T16:48:06.001Z</time>
      </trkpt>
      <trkpt lat="44.85793" lon="5.5788">
        <ele>1313</ele>
        <time>2013-09-14T16:48:09.001Z</time>
      </trkpt>
      <trkpt lat="44.85793" lon="5.57874">
        <ele>1313</ele>
        <time>2013-09-14T16:48:11.001Z</time>
      </trkpt>
      <trkpt lat="44.85793" lon="5.57867">
        <ele>1314</ele>
        <time>2013-09-14T16:48:14.001Z</time>
      </trkpt>
      <trkpt lat="44.85793" lon="5.57861">
        <ele>1314</ele>
        <time>2013-09-14T16:48:16.001Z</time>
      </trkpt>
      <trkpt lat="44.85793" lon="5.57854">
        <ele>1315</ele>
        <time>2013-09-14T16:48:19.001Z</time>
      </trkpt>
      <trkpt lat="44.85793" lon="5.57848">
        <ele>1315</ele>
        <time>2013-09-14T16:48:21.001Z</time>
      </trkpt>
      <trkpt lat="44.85794" lon="5.57842">
        <ele>1316</ele>
        <time>2013-09-14T16:48:24.001Z</time>
      </trkpt>
      <trkpt lat="44.85795" lon="5.57833">
        <ele>1316</ele>
        <time>2013-09-14T16:48:27.001Z</time>
      </trkpt>
      <trkpt lat="44.85795" lon="5.57826">
        <ele>1317</ele>
        <time>2013-09-14T16:48:30.001Z</time>
      </trkpt>
      <trkpt lat="44.85796" lon="5.5782">
        <ele>1317</ele>
        <time>2013-09-14T16:48:32.001Z</time>
      </trkpt>
      <trkpt lat="44.85797" lon="5.57814">
        <ele>1318</ele>
        <time>2013-09-14T16:48:35.001Z</time>
      </trkpt>
      <trkpt lat="44.85797" lon="5.57807">
        <ele>1319</ele>
        <time>2013-09-14T16:48:38.001Z</time>
      </trkpt>
      <trkpt lat="44.85797" lon="5.57801">
        <ele>1319</ele>
        <time>2013-09-14T16:48:40.001Z</time>
      </trkpt>
      <trkpt lat="44.85797" lon="5.57792">
        <ele>1320</ele>
        <time>2013-09-14T16:48:43.001Z</time>
      </trkpt>
      <trkpt lat="44.85798" lon="5.57784">
        <ele>1321</ele>
        <time>2013-09-14T16:48:46.001Z</time>
      </trkpt>
      <trkpt lat="44.85798" lon="5.57777">
        <ele>1321</ele>
        <time>2013-09-14T16:48:49.001Z</time>
      </trkpt>
      <trkpt lat="44.85799" lon="5.57771">
        <ele>1322</ele>
        <time>2013-09-14T16:48:51.001Z</time>
      </trkpt>
      <trkpt lat="44.858" lon="5.57764">
        <ele>1323</ele>
        <time>2013-09-14T16:48:54.001Z</time>
      </trkpt>
      <trkpt lat="44.85801" lon="5.57756">
        <ele>1324</ele>
        <time>2013-09-14T16:48:57.001Z</time>
      </trkpt>
      <trkpt lat="44.85804" lon="5.57749">
        <ele>1325</ele>
        <time>2013-09-14T16:49:00.001Z</time>
      </trkpt>
      <trkpt lat="44.85805" lon="5.57743">
        <ele>1325</ele>
        <time>2013-09-14T16:49:03.001Z</time>
      </trkpt>
      <trkpt lat="44.85806" lon="5.57736">
        <ele>1326</ele>
        <time>2013-09-14T16:49:05.001Z</time>
      </trkpt>
      <trkpt lat="44.85807" lon="5.5773">
        <ele>1326</ele>
        <time>2013-09-14T16:49:08.001Z</time>
      </trkpt>
      <trkpt lat="44.85808" lon="5.57721">
        <ele>1327</ele>
        <time>2013-09-14T16:49:11.001Z</time>
      </trkpt>
      <trkpt lat="44.85809" lon="5.57715">
        <ele>1327</ele>
        <time>2013-09-14T16:49:13.001Z</time>
      </trkpt>
      <trkpt lat="44.85809" lon="5.57706">
        <ele>1327</ele>
        <time>2013-09-14T16:49:16.001Z</time>
      </trkpt>
      <trkpt lat="44.85809" lon="5.577">
        <ele>1327</ele>
        <time>2013-09-14T16:49:18.001Z</time>
      </trkpt>
      <trkpt lat="44.85809" lon="5.57691">
        <ele>1327</ele>
        <time>2013-09-14T16:49:21.001Z</time>
      </trkpt>
      <trkpt lat="44.85809" lon="5.57685">
        <ele>1328</ele>
        <time>2013-09-14T16:49:24.001Z</time>
      </trkpt>
      <trkpt lat="44.85809" lon="5.57678">
        <ele>1328</ele>
        <time>2013-09-14T16:49:27.001Z</time>
      </trkpt>
      <trkpt lat="44.85808" lon="5.57672">
        <ele>1328</ele>
        <time>2013-09-14T16:49:30.001Z</time>
      </trkpt>
      <trkpt lat="44.85808" lon="5.57672">
        <ele>1328</ele>
        <time>2013-09-14T16:49:30.001Z</time>
      </trkpt>
      <trkpt lat="44.85808" lon="5.57672">
        <ele>1328</ele>
        <time>2013-09-14T16:49:31.001Z</time>
      </trkpt>
      <trkpt lat="44.85807" lon="5.57666">
        <ele>1329</ele>
        <time>2013-09-14T16:49:34.001Z</time>
      </trkpt>
      <trkpt lat="44.85807" lon="5.57659">
        <ele>1329</ele>
        <time>2013-09-14T16:49:37.001Z</time>
      </trkpt>
      <trkpt lat="44.85807" lon="5.57653">
        <ele>1329</ele>
        <time>2013-09-14T16:49:40.001Z</time>
      </trkpt>
      <trkpt lat="44.85806" lon="5.57646">
        <ele>1329</ele>
        <time>2013-09-14T16:49:43.001Z</time>
      </trkpt>
      <trkpt lat="44.85805" lon="5.5764">
        <ele>1329</ele>
        <time>2013-09-14T16:49:46.001Z</time>
      </trkpt>
      <trkpt lat="44.85804" lon="5.57633">
        <ele>1329</ele>
        <time>2013-09-14T16:49:50.001Z</time>
      </trkpt>
      <trkpt lat="44.85802" lon="5.57627">
        <ele>1329</ele>
        <time>2013-09-14T16:49:53.001Z</time>
      </trkpt>
      <trkpt lat="44.858" lon="5.5762">
        <ele>1329</ele>
        <time>2013-09-14T16:49:56.001Z</time>
      </trkpt>
      <trkpt lat="44.85799" lon="5.57614">
        <ele>1329</ele>
        <time>2013-09-14T16:49:59.001Z</time>
      </trkpt>
      <trkpt lat="44.85798" lon="5.57608">
        <ele>1330</ele>
        <time>2013-09-14T16:50:02.001Z</time>
      </trkpt>
      <trkpt lat="44.85797" lon="5.57601">
        <ele>1330</ele>
        <time>2013-09-14T16:50:06.001Z</time>
      </trkpt>
      <trkpt lat="44.85796" lon="5.57595">
        <ele>1331</ele>
        <time>2013-09-14T16:50:09.001Z</time>
      </trkpt>
      <trkpt lat="44.85796" lon="5.57588">
        <ele>1332</ele>
        <time>2013-09-14T16:50:13.001Z</time>
      </trkpt>
      <trkpt lat="44.85796" lon="5.57582">
        <ele>1332</ele>
        <time>2013-09-14T16:50:16.001Z</time>
      </trkpt>
      <trkpt lat="44.85796" lon="5.57575">
        <ele>1333</ele>
        <time>2013-09-14T16:50:19.001Z</time>
      </trkpt>
      <trkpt lat="44.85796" lon="5.57569">
        <ele>1333</ele>
        <time>2013-09-14T16:50:23.001Z</time>
      </trkpt>
      <trkpt lat="44.85796" lon="5.57562">
        <ele>1334</ele>
        <time>2013-09-14T16:50:25.001Z</time>
      </trkpt>
      <trkpt lat="44.85795" lon="5.57556">
        <ele>1334</ele>
        <time>2013-09-14T16:50:28.001Z</time>
      </trkpt>
      <trkpt lat="44.85795" lon="5.5755">
        <ele>1334</ele>
        <time>2013-09-14T16:50:30.001Z</time>
      </trkpt>
      <trkpt lat="44.85794" lon="5.57543">
        <ele>1334</ele>
        <time>2013-09-14T16:50:33.001Z</time>
      </trkpt>
      <trkpt lat="44.85793" lon="5.57537">
        <ele>1334</ele>
        <time>2013-09-14T16:50:36.001Z</time>
      </trkpt>
      <trkpt lat="44.85793" lon="5.57528">
        <ele>1334</ele>
        <time>2013-09-14T16:50:40.001Z</time>
      </trkpt>
      <trkpt lat="44.85793" lon="5.57522">
        <ele>1335</ele>
        <time>2013-09-14T16:50:43.001Z</time>
      </trkpt>
      <trkpt lat="44.85792" lon="5.57515">
        <ele>1335</ele>
        <time>2013-09-14T16:50:46.001Z</time>
      </trkpt>
      <trkpt lat="44.85791" lon="5.57509">
        <ele>1335</ele>
        <time>2013-09-14T16:50:48.001Z</time>
      </trkpt>
      <trkpt lat="44.85788" lon="5.57502">
        <ele>1336</ele>
        <time>2013-09-14T16:50:51.001Z</time>
      </trkpt>
      <trkpt lat="44.85788" lon="5.57494">
        <ele>1337</ele>
        <time>2013-09-14T16:50:54.001Z</time>
      </trkpt>
      <trkpt lat="44.85788" lon="5.57487">
        <ele>1337</ele>
        <time>2013-09-14T16:50:56.001Z</time>
      </trkpt>
      <trkpt lat="44.85788" lon="5.57481">
        <ele>1337</ele>
        <time>2013-09-14T16:50:58.001Z</time>
      </trkpt>
      <trkpt lat="44.85788" lon="5.57472">
        <ele>1338</ele>
        <time>2013-09-14T16:51:00.001Z</time>
      </trkpt>
      <trkpt lat="44.85791" lon="5.57464">
        <ele>1339</ele>
        <time>2013-09-14T16:51:03.001Z</time>
      </trkpt>
      <trkpt lat="44.85791" lon="5.57457">
        <ele>1340</ele>
        <time>2013-09-14T16:51:06.001Z</time>
      </trkpt>
      <trkpt lat="44.85792" lon="5.57451">
        <ele>1340</ele>
        <time>2013-09-14T16:51:08.001Z</time>
      </trkpt>
      <trkpt lat="44.85792" lon="5.57444">
        <ele>1341</ele>
        <time>2013-09-14T16:51:11.001Z</time>
      </trkpt>
      <trkpt lat="44.85792" lon="5.57438">
        <ele>1342</ele>
        <time>2013-09-14T16:51:13.001Z</time>
      </trkpt>
      <trkpt lat="44.85793" lon="5.57432">
        <ele>1342</ele>
        <time>2013-09-14T16:51:16.001Z</time>
      </trkpt>
      <trkpt lat="44.85793" lon="5.57423">
        <ele>1343</ele>
        <time>2013-09-14T16:51:19.001Z</time>
      </trkpt>
      <trkpt lat="44.85794" lon="5.57417">
        <ele>1344</ele>
        <time>2013-09-14T16:51:22.001Z</time>
      </trkpt>
      <trkpt lat="44.85794" lon="5.5741">
        <ele>1344</ele>
        <time>2013-09-14T16:51:25.001Z</time>
      </trkpt>
      <trkpt lat="44.85796" lon="5.57402">
        <ele>1345</ele>
        <time>2013-09-14T16:51:28.001Z</time>
      </trkpt>
      <trkpt lat="44.85797" lon="5.57395">
        <ele>1346</ele>
        <time>2013-09-14T16:51:31.001Z</time>
      </trkpt>
      <trkpt lat="44.85798" lon="5.57389">
        <ele>1346</ele>
        <time>2013-09-14T16:51:34.001Z</time>
      </trkpt>
      <trkpt lat="44.85798" lon="5.57382">
        <ele>1346</ele>
        <time>2013-09-14T16:51:37.001Z</time>
      </trkpt>
      <trkpt lat="44.85799" lon="5.57376">
        <ele>1347</ele>
        <time>2013-09-14T16:51:40.001Z</time>
      </trkpt>
      <trkpt lat="44.85799" lon="5.57367">
        <ele>1347</ele>
        <time>2013-09-14T16:51:43.001Z</time>
      </trkpt>
      <trkpt lat="44.858" lon="5.57361">
        <ele>1348</ele>
        <time>2013-09-14T16:51:46.001Z</time>
      </trkpt>
      <trkpt lat="44.85801" lon="5.57354">
        <ele>1348</ele>
        <time>2013-09-14T16:51:49.001Z</time>
      </trkpt>
      <trkpt lat="44.85801" lon="5.57348">
        <ele>1348</ele>
        <time>2013-09-14T16:51:51.001Z</time>
      </trkpt>
      <trkpt lat="44.85802" lon="5.57342">
        <ele>1348</ele>
        <time>2013-09-14T16:51:54.001Z</time>
      </trkpt>
      <trkpt lat="44.85804" lon="5.57335">
        <ele>1349</ele>
        <time>2013-09-14T16:51:57.001Z</time>
      </trkpt>
      <trkpt lat="44.85805" lon="5.57329">
        <ele>1349</ele>
        <time>2013-09-14T16:52:00.001Z</time>
      </trkpt>
      <trkpt lat="44.85805" lon="5.57322">
        <ele>1349</ele>
        <time>2013-09-14T16:52:03.001Z</time>
      </trkpt>
      <trkpt lat="44.85806" lon="5.57316">
        <ele>1349</ele>
        <time>2013-09-14T16:52:07.001Z</time>
      </trkpt>
      <trkpt lat="44.85807" lon="5.57309">
        <ele>1349</ele>
        <time>2013-09-14T16:52:11.001Z</time>
      </trkpt>
      <trkpt lat="44.85808" lon="5.57303">
        <ele>1350</ele>
        <time>2013-09-14T16:52:14.001Z</time>
      </trkpt>
      <trkpt lat="44.85809" lon="5.57296">
        <ele>1350</ele>
        <time>2013-09-14T16:52:17.001Z</time>
      </trkpt>
      <trkpt lat="44.85809" lon="5.57296">
        <ele>1350</ele>
        <time>2013-09-14T16:52:17.001Z</time>
      </trkpt>
      <trkpt lat="44.85809" lon="5.57296">
        <ele>1350</ele>
        <time>2013-09-14T16:52:18.001Z</time>
      </trkpt>
      <trkpt lat="44.8581" lon="5.5729">
        <ele>1350</ele>
        <time>2013-09-14T16:52:21.001Z</time>
      </trkpt>
      <trkpt lat="44.85811" lon="5.57284">
        <ele>1350</ele>
        <time>2013-09-14T16:52:24.001Z</time>
      </trkpt>
      <trkpt lat="44.8581" lon="5.57277">
        <ele>1351</ele>
        <time>2013-09-14T16:52:28.001Z</time>
      </trkpt>
      <trkpt lat="44.8581" lon="5.57271">
        <ele>1351</ele>
        <time>2013-09-14T16:52:31.001Z</time>
      </trkpt>
      <trkpt lat="44.8581" lon="5.57264">
        <ele>1351</ele>
        <time>2013-09-14T16:52:34.001Z</time>
      </trkpt>
      <trkpt lat="44.8581" lon="5.57258">
        <ele>1352</ele>
        <time>2013-09-14T16:52:38.001Z</time>
      </trkpt>
      <trkpt lat="44.85809" lon="5.57251">
        <ele>1352</ele>
        <time>2013-09-14T16:52:41.001Z</time>
      </trkpt>
      <trkpt lat="44.85807" lon="5.57245">
        <ele>1353</ele>
        <time>2013-09-14T16:52:45.001Z</time>
      </trkpt>
      <trkpt lat="44.85805" lon="5.57238">
        <ele>1353</ele>
        <time>2013-09-14T16:52:48.001Z</time>
      </trkpt>
      <trkpt lat="44.85801" lon="5.57232">
        <ele>1354</ele>
        <time>2013-09-14T16:52:52.001Z</time>
      </trkpt>
      <trkpt lat="44.858" lon="5.57226">
        <ele>1354</ele>
        <time>2013-09-14T16:52:55.001Z</time>
      </trkpt>
      <trkpt lat="44.85798" lon="5.57219">
        <ele>1355</ele>
        <time>2013-09-14T16:52:58.001Z</time>
      </trkpt>
      <trkpt lat="44.85796" lon="5.57213">
        <ele>1355</ele>
        <time>2013-09-14T16:53:02.001Z</time>
      </trkpt>
      <trkpt lat="44.85794" lon="5.57206">
        <ele>1356</ele>
        <time>2013-09-14T16:53:05.001Z</time>
      </trkpt>
      <trkpt lat="44.85792" lon="5.572">
        <ele>1356</ele>
        <time>2013-09-14T16:53:09.001Z</time>
      </trkpt>
      <trkpt lat="44.8579" lon="5.57194">
        <ele>1357</ele>
        <time>2013-09-14T16:53:12.001Z</time>
      </trkpt>
      <trkpt lat="44.85786" lon="5.57187">
        <ele>1357</ele>
        <time>2013-09-14T16:53:17.001Z</time>
      </trkpt>
      <trkpt lat="44.85784" lon="5.57181">
        <ele>1357</ele>
        <time>2013-09-14T16:53:20.001Z</time>
      </trkpt>
      <trkpt lat="44.85782" lon="5.57174">
        <ele>1357</ele>
        <time>2013-09-14T16:53:28.001Z</time>
      </trkpt>
      <trkpt lat="44.85782" lon="5.57174">
        <ele>1357</ele>
        <time>2013-09-14T16:53:28.001Z</time>
      </trkpt>
      <trkpt lat="44.85782" lon="5.57174">
        <ele>1357</ele>
        <time>2013-09-14T16:53:30.001Z</time>
      </trkpt>
      <trkpt lat="44.8578" lon="5.57168">
        <ele>1357</ele>
        <time>2013-09-14T16:53:34.001Z</time>
      </trkpt>
      <trkpt lat="44.85778" lon="5.57161">
        <ele>1357</ele>
        <time>2013-09-14T16:53:37.001Z</time>
      </trkpt>
      <trkpt lat="44.85777" lon="5.57155">
        <ele>1357</ele>
        <time>2013-09-14T16:53:40.001Z</time>
      </trkpt>
      <trkpt lat="44.85775" lon="5.57148">
        <ele>1356</ele>
        <time>2013-09-14T16:53:43.001Z</time>
      </trkpt>
      <trkpt lat="44.85771" lon="5.57142">
        <ele>1356</ele>
        <time>2013-09-14T16:53:47.001Z</time>
      </trkpt>
      <trkpt lat="44.85769" lon="5.57136">
        <ele>1356</ele>
        <time>2013-09-14T16:53:51.001Z</time>
      </trkpt>
      <trkpt lat="44.85767" lon="5.57129">
        <ele>1357</ele>
        <time>2013-09-14T16:53:55.001Z</time>
      </trkpt>
      <trkpt lat="44.85765" lon="5.57123">
        <ele>1357</ele>
        <time>2013-09-14T16:53:59.001Z</time>
      </trkpt>
      <trkpt lat="44.85764" lon="5.57116">
        <ele>1357</ele>
        <time>2013-09-14T16:54:02.001Z</time>
      </trkpt>
      <trkpt lat="44.85761" lon="5.5711">
        <ele>1358</ele>
        <time>2013-09-14T16:54:06.001Z</time>
      </trkpt>
      <trkpt lat="44.85757" lon="5.57103">
        <ele>1358</ele>
        <time>2013-09-14T16:54:10.001Z</time>
      </trkpt>
      <trkpt lat="44.85754" lon="5.57097">
        <ele>1359</ele>
        <time>2013-09-14T16:54:14.001Z</time>
      </trkpt>
      <trkpt lat="44.85751" lon="5.5709">
        <ele>1359</ele>
        <time>2013-09-14T16:54:18.001Z</time>
      </trkpt>
      <trkpt lat="44.85748" lon="5.57084">
        <ele>1360</ele>
        <time>2013-09-14T16:54:22.001Z</time>
      </trkpt>
      <trkpt lat="44.85746" lon="5.57078">
        <ele>1360</ele>
        <time>2013-09-14T16:54:26.001Z</time>
      </trkpt>
      <trkpt lat="44.85741" lon="5.57071">
        <ele>1361</ele>
        <time>2013-09-14T16:54:30.001Z</time>
      </trkpt>
      <trkpt lat="44.85741" lon="5.57071">
        <ele>1361</ele>
        <time>2013-09-14T16:54:30.001Z</time>
      </trkpt>
      <trkpt lat="44.85741" lon="5.57071">
        <ele>1361</ele>
        <time>2013-09-14T16:54:31.001Z</time>
      </trkpt>
      <trkpt lat="44.85738" lon="5.57065">
        <ele>1361</ele>
        <time>2013-09-14T16:54:34.001Z</time>
      </trkpt>
      <trkpt lat="44.85738" lon="5.57065">
        <ele>1361</ele>
        <time>2013-09-14T16:54:34.001Z</time>
      </trkpt>
      <trkpt lat="44.85738" lon="5.57065">
        <ele>1361</ele>
        <time>2013-09-14T16:54:35.001Z</time>
      </trkpt>
      <trkpt lat="44.85735" lon="5.57058">
        <ele>1362</ele>
        <time>2013-09-14T16:54:39.001Z</time>
      </trkpt>
      <trkpt lat="44.85732" lon="5.57052">
        <ele>1362</ele>
        <time>2013-09-14T16:54:43.001Z</time>
      </trkpt>
      <trkpt lat="44.85727" lon="5.57045">
        <ele>1363</ele>
        <time>2013-09-14T16:54:48.001Z</time>
      </trkpt>
      <trkpt lat="44.85724" lon="5.57039">
        <ele>1363</ele>
        <time>2013-09-14T16:54:52.001Z</time>
      </trkpt>
      <trkpt lat="44.85721" lon="5.57032">
        <ele>1364</ele>
        <time>2013-09-14T16:54:56.001Z</time>
      </trkpt>
      <trkpt lat="44.85717" lon="5.57028">
        <ele>1364</ele>
        <time>2013-09-14T16:55:00.001Z</time>
      </trkpt>
      <trkpt lat="44.85714" lon="5.57022">
        <ele>1364</ele>
        <time>2013-09-14T16:55:03.001Z</time>
      </trkpt>
      <trkpt lat="44.8571" lon="5.57018">
        <ele>1365</ele>
        <time>2013-09-14T16:55:06.001Z</time>
      </trkpt>
      <trkpt lat="44.85706" lon="5.57011">
        <ele>1365</ele>
        <time>2013-09-14T16:55:10.001Z</time>
      </trkpt>
      <trkpt lat="44.85701" lon="5.57007">
        <ele>1365</ele>
        <time>2013-09-14T16:55:14.001Z</time>
      </trkpt>
      <trkpt lat="44.85698" lon="5.57">
        <ele>1366</ele>
        <time>2013-09-14T16:55:17.001Z</time>
      </trkpt>
      <trkpt lat="44.85694" lon="5.56996">
        <ele>1366</ele>
        <time>2013-09-14T16:55:21.001Z</time>
      </trkpt>
      <trkpt lat="44.85691" lon="5.5699">
        <ele>1366</ele>
        <time>2013-09-14T16:55:25.001Z</time>
      </trkpt>
      <trkpt lat="44.85687" lon="5.56983">
        <ele>1367</ele>
        <time>2013-09-14T16:55:29.001Z</time>
      </trkpt>
      <trkpt lat="44.85683" lon="5.56977">
        <ele>1367</ele>
        <time>2013-09-14T16:55:33.001Z</time>
      </trkpt>
      <trkpt lat="44.8568" lon="5.5697">
        <ele>1368</ele>
        <time>2013-09-14T16:55:37.001Z</time>
      </trkpt>
      <trkpt lat="44.85678" lon="5.56964">
        <ele>1368</ele>
        <time>2013-09-14T16:55:41.001Z</time>
      </trkpt>
      <trkpt lat="44.85676" lon="5.56957">
        <ele>1368</ele>
        <time>2013-09-14T16:55:44.001Z</time>
      </trkpt>
      <trkpt lat="44.85673" lon="5.56951">
        <ele>1369</ele>
        <time>2013-09-14T16:55:48.001Z</time>
      </trkpt>
      <trkpt lat="44.85673" lon="5.56951">
        <ele>1369</ele>
        <time>2013-09-14T16:55:48.001Z</time>
      </trkpt>
      <trkpt lat="44.85673" lon="5.56951">
        <ele>1369</ele>
        <time>2013-09-14T16:55:49.001Z</time>
      </trkpt>
      <trkpt lat="44.8567" lon="5.56945">
        <ele>1369</ele>
        <time>2013-09-14T16:55:52.001Z</time>
      </trkpt>
      <trkpt lat="44.85667" lon="5.56938">
        <ele>1370</ele>
        <time>2013-09-14T16:55:56.001Z</time>
      </trkpt>
      <trkpt lat="44.85663" lon="5.56934">
        <ele>1371</ele>
        <time>2013-09-14T16:56:13.001Z</time>
      </trkpt>
      <trkpt lat="44.85663" lon="5.56934">
        <ele>1371</ele>
        <time>2013-09-14T16:56:13.001Z</time>
      </trkpt>
      <trkpt lat="44.85663" lon="5.56934">
        <ele>1371</ele>
        <time>2013-09-14T16:56:14.001Z</time>
      </trkpt>
      <trkpt lat="44.85659" lon="5.56936">
        <ele>1371</ele>
        <time>2013-09-14T16:56:29.001Z</time>
      </trkpt>
      <trkpt lat="44.85659" lon="5.56936">
        <ele>1371</ele>
        <time>2013-09-14T16:56:29.001Z</time>
      </trkpt>
      <trkpt lat="44.85659" lon="5.56936">
        <ele>1372</ele>
        <time>2013-09-14T16:56:31.001Z</time>
      </trkpt>
      <trkpt lat="44.85657" lon="5.5693">
        <ele>1375</ele>
        <time>2013-09-14T16:57:40.001Z</time>
      </trkpt>
      <trkpt lat="44.85657" lon="5.5693">
        <ele>1375</ele>
        <time>2013-09-14T16:57:40.001Z</time>
      </trkpt>
      <trkpt lat="44.85657" lon="5.5693">
        <ele>1376</ele>
        <time>2013-09-14T16:58:08.001Z</time>
      </trkpt>
      <trkpt lat="44.85652" lon="5.56934">
        <ele>1379</ele>
        <time>2013-09-14T16:59:57.001Z</time>
      </trkpt>
      <trkpt lat="44.85648" lon="5.56932">
        <ele>1379</ele>
        <time>2013-09-14T16:59:59.001Z</time>
      </trkpt>
      <trkpt lat="44.85643" lon="5.56932">
        <ele>1379</ele>
        <time>2013-09-14T17:00:02.001Z</time>
      </trkpt>
      <trkpt lat="44.85637" lon="5.5693">
        <ele>1379</ele>
        <time>2013-09-14T17:00:06.001Z</time>
      </trkpt>
      <trkpt lat="44.85631" lon="5.56925">
        <ele>1379</ele>
        <time>2013-09-14T17:00:10.001Z</time>
      </trkpt>
      <trkpt lat="44.85622" lon="5.56919">
        <ele>1380</ele>
        <time>2013-09-14T17:00:12.001Z</time>
      </trkpt>
      <trkpt lat="44.85616" lon="5.56914">
        <ele>1380</ele>
        <time>2013-09-14T17:00:13.001Z</time>
      </trkpt>
      <trkpt lat="44.85609" lon="5.56912">
        <ele>1379</ele>
        <time>2013-09-14T17:00:14.001Z</time>
      </trkpt>
      <trkpt lat="44.85604" lon="5.5691">
        <ele>1379</ele>
        <time>2013-09-14T17:00:15.001Z</time>
      </trkpt>
      <trkpt lat="44.85599" lon="5.56908">
        <ele>1379</ele>
        <time>2013-09-14T17:00:16.001Z</time>
      </trkpt>
      <trkpt lat="44.85592" lon="5.56906">
        <ele>1379</ele>
        <time>2013-09-14T17:00:20.001Z</time>
      </trkpt>
      <trkpt lat="44.85586" lon="5.56906">
        <ele>1378</ele>
        <time>2013-09-14T17:00:24.001Z</time>
      </trkpt>
      <trkpt lat="44.8558" lon="5.56902">
        <ele>1378</ele>
        <time>2013-09-14T17:00:28.001Z</time>
      </trkpt>
      <trkpt lat="44.85582" lon="5.56893">
        <ele>1378</ele>
        <time>2013-09-14T17:00:30.001Z</time>
      </trkpt>
      <trkpt lat="44.85587" lon="5.56884">
        <ele>1378</ele>
        <time>2013-09-14T17:00:32.001Z</time>
      </trkpt>
      <trkpt lat="44.85591" lon="5.56878">
        <ele>1378</ele>
        <time>2013-09-14T17:00:34.001Z</time>
      </trkpt>
      <trkpt lat="44.85591" lon="5.56878">
        <ele>1378</ele>
        <time>2013-09-14T17:00:34.001Z</time>
      </trkpt>
      <trkpt lat="44.85591" lon="5.56878">
        <ele>1378</ele>
        <time>2013-09-14T17:00:36.001Z</time>
      </trkpt>
      <trkpt lat="44.85595" lon="5.56874">
        <ele>1378</ele>
        <time>2013-09-14T17:00:37.001Z</time>
      </trkpt>
      <trkpt lat="44.85595" lon="5.56874">
        <ele>1378</ele>
        <time>2013-09-14T17:00:37.001Z</time>
      </trkpt>
      <trkpt lat="44.85595" lon="5.56874">
        <ele>1378</ele>
        <time>2013-09-14T17:00:39.001Z</time>
      </trkpt>
      <trkpt lat="44.85594" lon="5.56861">
        <ele>1377</ele>
        <time>2013-09-14T17:00:46.001Z</time>
      </trkpt>
      <trkpt lat="44.85594" lon="5.56861">
        <ele>1377</ele>
        <time>2013-09-14T17:00:46.001Z</time>
      </trkpt>
      <trkpt lat="44.85594" lon="5.56861">
        <ele>1377</ele>
        <time>2013-09-14T17:00:49.001Z</time>
      </trkpt>
      <trkpt lat="44.85591" lon="5.56854">
        <ele>1376</ele>
        <time>2013-09-14T17:00:50.001Z</time>
      </trkpt>
      <trkpt lat="44.85591" lon="5.56854">
        <ele>1376</ele>
        <time>2013-09-14T17:00:50.001Z</time>
      </trkpt>
      <trkpt lat="44.85591" lon="5.56854">
        <ele>1376</ele>
        <time>2013-09-14T17:00:55.001Z</time>
      </trkpt>
      <trkpt lat="44.85586" lon="5.56842">
        <ele>1376</ele>
        <time>2013-09-14T17:00:56.001Z</time>
      </trkpt>
      <trkpt lat="44.85586" lon="5.56842">
        <ele>1376</ele>
        <time>2013-09-14T17:00:56.001Z</time>
      </trkpt>
      <trkpt lat="44.85586" lon="5.56842">
        <ele>1376</ele>
        <time>2013-09-14T17:00:59.001Z</time>
      </trkpt>
      <trkpt lat="44.85582" lon="5.56831">
        <ele>1376</ele>
        <time>2013-09-14T17:01:00.001Z</time>
      </trkpt>
      <trkpt lat="44.85582" lon="5.56831">
        <ele>1376</ele>
        <time>2013-09-14T17:01:00.001Z</time>
      </trkpt>
      <trkpt lat="44.85582" lon="5.56831">
        <ele>1376</ele>
        <time>2013-09-14T17:01:03.001Z</time>
      </trkpt>
      <trkpt lat="44.8558" lon="5.56818">
        <ele>1375</ele>
        <time>2013-09-14T17:01:04.001Z</time>
      </trkpt>
      <trkpt lat="44.8558" lon="5.56818">
        <ele>1375</ele>
        <time>2013-09-14T17:01:04.001Z</time>
      </trkpt>
      <trkpt lat="44.8558" lon="5.56818">
        <ele>1375</ele>
        <time>2013-09-14T17:01:07.001Z</time>
      </trkpt>
      <trkpt lat="44.8558" lon="5.56803">
        <ele>1375</ele>
        <time>2013-09-14T17:01:08.001Z</time>
      </trkpt>
      <trkpt lat="44.8558" lon="5.56803">
        <ele>1375</ele>
        <time>2013-09-14T17:01:08.001Z</time>
      </trkpt>
      <trkpt lat="44.8558" lon="5.56803">
        <ele>1375</ele>
        <time>2013-09-14T17:01:09.001Z</time>
      </trkpt>
      <trkpt lat="44.8558" lon="5.56794">
        <ele>1375</ele>
        <time>2013-09-14T17:01:10.001Z</time>
      </trkpt>
      <trkpt lat="44.8558" lon="5.56788">
        <ele>1375</ele>
        <time>2013-09-14T17:01:11.001Z</time>
      </trkpt>
      <trkpt lat="44.8558" lon="5.56782">
        <ele>1374</ele>
        <time>2013-09-14T17:01:12.001Z</time>
      </trkpt>
      <trkpt lat="44.85586" lon="5.56766">
        <ele>1374</ele>
        <time>2013-09-14T17:01:16.001Z</time>
      </trkpt>
      <trkpt lat="44.85586" lon="5.56766">
        <ele>1374</ele>
        <time>2013-09-14T17:01:16.001Z</time>
      </trkpt>
      <trkpt lat="44.85586" lon="5.56766">
        <ele>1374</ele>
        <time>2013-09-14T17:01:20.001Z</time>
      </trkpt>
      <trkpt lat="44.85587" lon="5.56754">
        <ele>1373</ele>
        <time>2013-09-14T17:01:21.001Z</time>
      </trkpt>
      <trkpt lat="44.85587" lon="5.56754">
        <ele>1373</ele>
        <time>2013-09-14T17:01:21.001Z</time>
      </trkpt>
      <trkpt lat="44.85587" lon="5.56754">
        <ele>1373</ele>
        <time>2013-09-14T17:01:24.001Z</time>
      </trkpt>
      <trkpt lat="44.85585" lon="5.56741">
        <ele>1372</ele>
        <time>2013-09-14T17:01:25.001Z</time>
      </trkpt>
      <trkpt lat="44.85585" lon="5.5673">
        <ele>1372</ele>
        <time>2013-09-14T17:01:27.001Z</time>
      </trkpt>
      <trkpt lat="44.85585" lon="5.56719">
        <ele>1371</ele>
        <time>2013-09-14T17:01:29.001Z</time>
      </trkpt>
      <trkpt lat="44.85586" lon="5.56708">
        <ele>1371</ele>
        <time>2013-09-14T17:01:31.001Z</time>
      </trkpt>
      <trkpt lat="44.85589" lon="5.56698">
        <ele>1370</ele>
        <time>2013-09-14T17:01:33.001Z</time>
      </trkpt>
      <trkpt lat="44.85591" lon="5.56691">
        <ele>1366</ele>
        <time>2013-09-14T17:01:34.001Z</time>
      </trkpt>
      <trkpt lat="44.85596" lon="5.56681">
        <ele>1359</ele>
        <time>2013-09-14T17:01:36.001Z</time>
      </trkpt>
      <trkpt lat="44.85603" lon="5.5667">
        <ele>1352</ele>
        <time>2013-09-14T17:01:38.001Z</time>
      </trkpt>
      <trkpt lat="44.85607" lon="5.56659">
        <ele>1347</ele>
        <time>2013-09-14T17:01:40.001Z</time>
      </trkpt>
      <trkpt lat="44.85609" lon="5.56653">
        <ele>1344</ele>
        <time>2013-09-14T17:01:41.001Z</time>
      </trkpt>
      <trkpt lat="44.85612" lon="5.56644">
        <ele>1342</ele>
        <time>2013-09-14T17:01:43.001Z</time>
      </trkpt>
      <trkpt lat="44.85613" lon="5.56638">
        <ele>1340</ele>
        <time>2013-09-14T17:01:44.001Z</time>
      </trkpt>
      <trkpt lat="44.85615" lon="5.56631">
        <ele>1339</ele>
        <time>2013-09-14T17:01:45.001Z</time>
      </trkpt>
      <trkpt lat="44.85617" lon="5.56625">
        <ele>1338</ele>
        <time>2013-09-14T17:01:46.001Z</time>
      </trkpt>
      <trkpt lat="44.85618" lon="5.56618">
        <ele>1336</ele>
        <time>2013-09-14T17:01:47.001Z</time>
      </trkpt>
      <trkpt lat="44.85622" lon="5.56608">
        <ele>1335</ele>
        <time>2013-09-14T17:01:49.001Z</time>
      </trkpt>
      <trkpt lat="44.85626" lon="5.56599">
        <ele>1335</ele>
        <time>2013-09-14T17:01:51.001Z</time>
      </trkpt>
      <trkpt lat="44.8563" lon="5.56593">
        <ele>1334</ele>
        <time>2013-09-14T17:01:53.001Z</time>
      </trkpt>
      <trkpt lat="44.85633" lon="5.56584">
        <ele>1334</ele>
        <time>2013-09-14T17:01:55.001Z</time>
      </trkpt>
      <trkpt lat="44.85635" lon="5.56578">
        <ele>1334</ele>
        <time>2013-09-14T17:01:56.001Z</time>
      </trkpt>
      <trkpt lat="44.85637" lon="5.56571">
        <ele>1332</ele>
        <time>2013-09-14T17:01:57.001Z</time>
      </trkpt>
      <trkpt lat="44.85639" lon="5.56565">
        <ele>1330</ele>
        <time>2013-09-14T17:01:58.001Z</time>
      </trkpt>
      <trkpt lat="44.85642" lon="5.56558">
        <ele>1327</ele>
        <time>2013-09-14T17:01:59.001Z</time>
      </trkpt>
      <trkpt lat="44.85646" lon="5.5655">
        <ele>1325</ele>
        <time>2013-09-14T17:02:01.001Z</time>
      </trkpt>
      <trkpt lat="44.85652" lon="5.56543">
        <ele>1323</ele>
        <time>2013-09-14T17:02:03.001Z</time>
      </trkpt>
      <trkpt lat="44.85658" lon="5.56539">
        <ele>1322</ele>
        <time>2013-09-14T17:02:04.001Z</time>
      </trkpt>
      <trkpt lat="44.85663" lon="5.56533">
        <ele>1320</ele>
        <time>2013-09-14T17:02:05.001Z</time>
      </trkpt>
      <trkpt lat="44.85669" lon="5.56524">
        <ele>1319</ele>
        <time>2013-09-14T17:02:06.001Z</time>
      </trkpt>
      <trkpt lat="44.85676" lon="5.56518">
        <ele>1318</ele>
        <time>2013-09-14T17:02:07.001Z</time>
      </trkpt>
      <trkpt lat="44.85682" lon="5.56511">
        <ele>1317</ele>
        <time>2013-09-14T17:02:08.001Z</time>
      </trkpt>
      <trkpt lat="44.85689" lon="5.56502">
        <ele>1316</ele>
        <time>2013-09-14T17:02:09.001Z</time>
      </trkpt>
      <trkpt lat="44.85693" lon="5.56498">
        <ele>1315</ele>
        <time>2013-09-14T17:02:10.001Z</time>
      </trkpt>
      <trkpt lat="44.85693" lon="5.56498">
        <ele>1315</ele>
        <time>2013-09-14T17:02:10.001Z</time>
      </trkpt>
      <trkpt lat="44.85693" lon="5.56498">
        <ele>1315</ele>
        <time>2013-09-14T17:02:21.001Z</time>
      </trkpt>
      <trkpt lat="44.85697" lon="5.56494">
        <ele>1314</ele>
        <time>2013-09-14T17:02:22.001Z</time>
      </trkpt>
      <trkpt lat="44.85697" lon="5.56494">
        <ele>1314</ele>
        <time>2013-09-14T17:02:22.001Z</time>
      </trkpt>
      <trkpt lat="44.85697" lon="5.56494">
        <ele>1314</ele>
        <time>2013-09-14T17:02:29.001Z</time>
      </trkpt>
      <trkpt lat="44.85702" lon="5.5649">
        <ele>1312</ele>
        <time>2013-09-14T17:02:31.001Z</time>
      </trkpt>
      <trkpt lat="44.85706" lon="5.56483">
        <ele>1311</ele>
        <time>2013-09-14T17:02:33.001Z</time>
      </trkpt>
      <trkpt lat="44.85708" lon="5.56477">
        <ele>1310</ele>
        <time>2013-09-14T17:02:35.001Z</time>
      </trkpt>
      <trkpt lat="44.85714" lon="5.56468">
        <ele>1299</ele>
        <time>2013-09-14T17:02:37.001Z</time>
      </trkpt>
      <trkpt lat="44.85722" lon="5.5646">
        <ele>1293</ele>
        <time>2013-09-14T17:02:39.001Z</time>
      </trkpt>
      <trkpt lat="44.85728" lon="5.56453">
        <ele>1290</ele>
        <time>2013-09-14T17:02:41.001Z</time>
      </trkpt>
      <trkpt lat="44.85733" lon="5.56445">
        <ele>1288</ele>
        <time>2013-09-14T17:02:43.001Z</time>
      </trkpt>
      <trkpt lat="44.85739" lon="5.56438">
        <ele>1284</ele>
        <time>2013-09-14T17:02:45.001Z</time>
      </trkpt>
      <trkpt lat="44.85747" lon="5.5643">
        <ele>1282</ele>
        <time>2013-09-14T17:02:47.001Z</time>
      </trkpt>
      <trkpt lat="44.85751" lon="5.56425">
        <ele>1281</ele>
        <time>2013-09-14T17:02:48.001Z</time>
      </trkpt>
      <trkpt lat="44.85755" lon="5.56421">
        <ele>1280</ele>
        <time>2013-09-14T17:02:49.001Z</time>
      </trkpt>
      <trkpt lat="44.8576" lon="5.56417">
        <ele>1279</ele>
        <time>2013-09-14T17:02:50.001Z</time>
      </trkpt>
      <trkpt lat="44.85764" lon="5.56412">
        <ele>1279</ele>
        <time>2013-09-14T17:02:51.001Z</time>
      </trkpt>
      <trkpt lat="44.85768" lon="5.56408">
        <ele>1278</ele>
        <time>2013-09-14T17:02:52.001Z</time>
      </trkpt>
      <trkpt lat="44.85774" lon="5.56404">
        <ele>1278</ele>
        <time>2013-09-14T17:02:54.001Z</time>
      </trkpt>
      <trkpt lat="44.85779" lon="5.56402">
        <ele>1278</ele>
        <time>2013-09-14T17:03:02.001Z</time>
      </trkpt>
      <trkpt lat="44.85785" lon="5.564">
        <ele>1277</ele>
        <time>2013-09-14T17:03:06.001Z</time>
      </trkpt>
      <trkpt lat="44.8579" lon="5.56395">
        <ele>1277</ele>
        <time>2013-09-14T17:03:08.001Z</time>
      </trkpt>
      <trkpt lat="44.85794" lon="5.56391">
        <ele>1277</ele>
        <time>2013-09-14T17:03:10.001Z</time>
      </trkpt>
      <trkpt lat="44.85799" lon="5.56384">
        <ele>1276</ele>
        <time>2013-09-14T17:03:13.001Z</time>
      </trkpt>
      <trkpt lat="44.85802" lon="5.56378">
        <ele>1275</ele>
        <time>2013-09-14T17:03:26.001Z</time>
      </trkpt>
      <trkpt lat="44.85806" lon="5.56372">
        <ele>1274</ele>
        <time>2013-09-14T17:03:34.001Z</time>
      </trkpt>
      <trkpt lat="44.85809" lon="5.56365">
        <ele>1274</ele>
        <time>2013-09-14T17:03:36.001Z</time>
      </trkpt>
      <trkpt lat="44.85811" lon="5.56357">
        <ele>1274</ele>
        <time>2013-09-14T17:03:38.001Z</time>
      </trkpt>
      <trkpt lat="44.85815" lon="5.5635">
        <ele>1273</ele>
        <time>2013-09-14T17:03:40.001Z</time>
      </trkpt>
      <trkpt lat="44.85819" lon="5.56342">
        <ele>1273</ele>
        <time>2013-09-14T17:03:42.001Z</time>
      </trkpt>
      <trkpt lat="44.85821" lon="5.56333">
        <ele>1273</ele>
        <time>2013-09-14T17:03:44.001Z</time>
      </trkpt>
      <trkpt lat="44.85822" lon="5.56327">
        <ele>1271</ele>
        <time>2013-09-14T17:03:45.001Z</time>
      </trkpt>
      <trkpt lat="44.85825" lon="5.56316">
        <ele>1269</ele>
        <time>2013-09-14T17:03:47.001Z</time>
      </trkpt>
      <trkpt lat="44.85826" lon="5.56309">
        <ele>1269</ele>
        <time>2013-09-14T17:03:48.001Z</time>
      </trkpt>
      <trkpt lat="44.8583" lon="5.56301">
        <ele>1268</ele>
        <time>2013-09-14T17:03:50.001Z</time>
      </trkpt>
      <trkpt lat="44.85834" lon="5.56292">
        <ele>1268</ele>
        <time>2013-09-14T17:03:52.001Z</time>
      </trkpt>
      <trkpt lat="44.85838" lon="5.56288">
        <ele>1268</ele>
        <time>2013-09-14T17:03:54.001Z</time>
      </trkpt>
      <trkpt lat="44.85848" lon="5.56277">
        <ele>1267</ele>
        <time>2013-09-14T17:03:58.001Z</time>
      </trkpt>
      <trkpt lat="44.85852" lon="5.56273">
        <ele>1266</ele>
        <time>2013-09-14T17:03:59.001Z</time>
      </trkpt>
      <trkpt lat="44.85858" lon="5.56266">
        <ele>1266</ele>
        <time>2013-09-14T17:04:01.001Z</time>
      </trkpt>
      <trkpt lat="44.85866" lon="5.56262">
        <ele>1265</ele>
        <time>2013-09-14T17:04:03.001Z</time>
      </trkpt>
      <trkpt lat="44.8587" lon="5.5626">
        <ele>1265</ele>
        <time>2013-09-14T17:04:04.001Z</time>
      </trkpt>
      <trkpt lat="44.85874" lon="5.56258">
        <ele>1264</ele>
        <time>2013-09-14T17:04:05.001Z</time>
      </trkpt>
      <trkpt lat="44.85883" lon="5.56256">
        <ele>1264</ele>
        <time>2013-09-14T17:04:07.001Z</time>
      </trkpt>
      <trkpt lat="44.85893" lon="5.56254">
        <ele>1260</ele>
        <time>2013-09-14T17:04:09.001Z</time>
      </trkpt>
      <trkpt lat="44.85902" lon="5.56252">
        <ele>1259</ele>
        <time>2013-09-14T17:04:11.001Z</time>
      </trkpt>
      <trkpt lat="44.85907" lon="5.56249">
        <ele>1259</ele>
        <time>2013-09-14T17:04:12.001Z</time>
      </trkpt>
      <trkpt lat="44.85914" lon="5.56247">
        <ele>1258</ele>
        <time>2013-09-14T17:04:14.001Z</time>
      </trkpt>
      <trkpt lat="44.85922" lon="5.56243">
        <ele>1258</ele>
        <time>2013-09-14T17:04:16.001Z</time>
      </trkpt>
      <trkpt lat="44.85928" lon="5.56243">
        <ele>1257</ele>
        <time>2013-09-14T17:04:18.001Z</time>
      </trkpt>
      <trkpt lat="44.85934" lon="5.56241">
        <ele>1257</ele>
        <time>2013-09-14T17:04:20.001Z</time>
      </trkpt>
      <trkpt lat="44.85943" lon="5.56239">
        <ele>1256</ele>
        <time>2013-09-14T17:04:22.001Z</time>
      </trkpt>
      <trkpt lat="44.8595" lon="5.56236">
        <ele>1255</ele>
        <time>2013-09-14T17:04:24.001Z</time>
      </trkpt>
      <trkpt lat="44.8595" lon="5.56236">
        <ele>1255</ele>
        <time>2013-09-14T17:04:24.001Z</time>
      </trkpt>
      <trkpt lat="44.8595" lon="5.56236">
        <ele>1255</ele>
        <time>2013-09-14T17:04:28.001Z</time>
      </trkpt>
      <trkpt lat="44.85961" lon="5.56236">
        <ele>1254</ele>
        <time>2013-09-14T17:04:29.001Z</time>
      </trkpt>
      <trkpt lat="44.85961" lon="5.56236">
        <ele>1254</ele>
        <time>2013-09-14T17:04:29.001Z</time>
      </trkpt>
      <trkpt lat="44.85961" lon="5.56236">
        <ele>1254</ele>
        <time>2013-09-14T17:04:31.001Z</time>
      </trkpt>
      <trkpt lat="44.85969" lon="5.56234">
        <ele>1253</ele>
        <time>2013-09-14T17:04:32.001Z</time>
      </trkpt>
      <trkpt lat="44.85976" lon="5.56232">
        <ele>1252</ele>
        <time>2013-09-14T17:04:34.001Z</time>
      </trkpt>
      <trkpt lat="44.85984" lon="5.56228">
        <ele>1251</ele>
        <time>2013-09-14T17:04:36.001Z</time>
      </trkpt>
      <trkpt lat="44.8599" lon="5.56224">
        <ele>1250</ele>
        <time>2013-09-14T17:04:38.001Z</time>
      </trkpt>
      <trkpt lat="44.85997" lon="5.56217">
        <ele>1249</ele>
        <time>2013-09-14T17:04:40.001Z</time>
      </trkpt>
      <trkpt lat="44.86001" lon="5.56215">
        <ele>1249</ele>
        <time>2013-09-14T17:04:41.001Z</time>
      </trkpt>
      <trkpt lat="44.86005" lon="5.56211">
        <ele>1248</ele>
        <time>2013-09-14T17:04:42.001Z</time>
      </trkpt>
      <trkpt lat="44.8601" lon="5.56206">
        <ele>1247</ele>
        <time>2013-09-14T17:04:43.001Z</time>
      </trkpt>
      <trkpt lat="44.86014" lon="5.56202">
        <ele>1247</ele>
        <time>2013-09-14T17:04:44.001Z</time>
      </trkpt>
      <trkpt lat="44.86019" lon="5.56196">
        <ele>1246</ele>
        <time>2013-09-14T17:04:46.001Z</time>
      </trkpt>
      <trkpt lat="44.86019" lon="5.56196">
        <ele>1246</ele>
        <time>2013-09-14T17:04:46.001Z</time>
      </trkpt>
      <trkpt lat="44.86019" lon="5.56196">
        <ele>1246</ele>
        <time>2013-09-14T17:05:57.001Z</time>
      </trkpt>
      <trkpt lat="44.86024" lon="5.56187">
        <ele>1236</ele>
        <time>2013-09-14T17:05:59.001Z</time>
      </trkpt>
      <trkpt lat="44.86024" lon="5.56178">
        <ele>1235</ele>
        <time>2013-09-14T17:06:00.001Z</time>
      </trkpt>
      <trkpt lat="44.86025" lon="5.56172">
        <ele>1235</ele>
        <time>2013-09-14T17:06:01.001Z</time>
      </trkpt>
      <trkpt lat="44.86027" lon="5.56166">
        <ele>1234</ele>
        <time>2013-09-14T17:06:02.001Z</time>
      </trkpt>
      <trkpt lat="44.8603" lon="5.56155">
        <ele>1233</ele>
        <time>2013-09-14T17:06:04.001Z</time>
      </trkpt>
      <trkpt lat="44.86032" lon="5.56148">
        <ele>1232</ele>
        <time>2013-09-14T17:06:05.001Z</time>
      </trkpt>
      <trkpt lat="44.86034" lon="5.56142">
        <ele>1226</ele>
        <time>2013-09-14T17:06:06.001Z</time>
      </trkpt>
      <trkpt lat="44.86035" lon="5.56136">
        <ele>1221</ele>
        <time>2013-09-14T17:06:07.001Z</time>
      </trkpt>
      <trkpt lat="44.86037" lon="5.56129">
        <ele>1217</ele>
        <time>2013-09-14T17:06:08.001Z</time>
      </trkpt>
      <trkpt lat="44.86044" lon="5.56123">
        <ele>1216</ele>
        <time>2013-09-14T17:06:12.001Z</time>
      </trkpt>
      <trkpt lat="44.86048" lon="5.56125">
        <ele>1215</ele>
        <time>2013-09-14T17:06:13.001Z</time>
      </trkpt>
      <trkpt lat="44.86054" lon="5.56125">
        <ele>1212</ele>
        <time>2013-09-14T17:06:14.001Z</time>
      </trkpt>
      <trkpt lat="44.86061" lon="5.56127">
        <ele>1209</ele>
        <time>2013-09-14T17:06:15.001Z</time>
      </trkpt>
      <trkpt lat="44.86069" lon="5.56131">
        <ele>1206</ele>
        <time>2013-09-14T17:06:16.001Z</time>
      </trkpt>
      <trkpt lat="44.86074" lon="5.56134">
        <ele>1204</ele>
        <time>2013-09-14T17:06:17.001Z</time>
      </trkpt>
      <trkpt lat="44.8608" lon="5.56138">
        <ele>1202</ele>
        <time>2013-09-14T17:06:18.001Z</time>
      </trkpt>
      <trkpt lat="44.86086" lon="5.5614">
        <ele>1200</ele>
        <time>2013-09-14T17:06:19.001Z</time>
      </trkpt>
      <trkpt lat="44.86091" lon="5.56144">
        <ele>1199</ele>
        <time>2013-09-14T17:06:20.001Z</time>
      </trkpt>
      <trkpt lat="44.86096" lon="5.56148">
        <ele>1197</ele>
        <time>2013-09-14T17:06:21.001Z</time>
      </trkpt>
      <trkpt lat="44.86102" lon="5.56153">
        <ele>1196</ele>
        <time>2013-09-14T17:06:22.001Z</time>
      </trkpt>
      <trkpt lat="44.86107" lon="5.56155">
        <ele>1196</ele>
        <time>2013-09-14T17:06:25.001Z</time>
      </trkpt>
      <trkpt lat="44.86107" lon="5.56155">
        <ele>1196</ele>
        <time>2013-09-14T17:06:25.001Z</time>
      </trkpt>
      <trkpt lat="44.86107" lon="5.56155">
        <ele>1196</ele>
        <time>2013-09-14T17:06:51.001Z</time>
      </trkpt>
      <trkpt lat="44.86114" lon="5.56161">
        <ele>1193</ele>
        <time>2013-09-14T17:06:52.001Z</time>
      </trkpt>
      <trkpt lat="44.86121" lon="5.56166">
        <ele>1192</ele>
        <time>2013-09-14T17:06:54.001Z</time>
      </trkpt>
      <trkpt lat="44.86128" lon="5.56168">
        <ele>1191</ele>
        <time>2013-09-14T17:06:56.001Z</time>
      </trkpt>
      <trkpt lat="44.86133" lon="5.5617">
        <ele>1187</ele>
        <time>2013-09-14T17:06:57.001Z</time>
      </trkpt>
      <trkpt lat="44.86137" lon="5.56174">
        <ele>1183</ele>
        <time>2013-09-14T17:06:58.001Z</time>
      </trkpt>
      <trkpt lat="44.8614" lon="5.56178">
        <ele>1180</ele>
        <time>2013-09-14T17:06:59.001Z</time>
      </trkpt>
      <trkpt lat="44.86144" lon="5.56183">
        <ele>1178</ele>
        <time>2013-09-14T17:07:00.001Z</time>
      </trkpt>
      <trkpt lat="44.86147" lon="5.56189">
        <ele>1176</ele>
        <time>2013-09-14T17:07:01.001Z</time>
      </trkpt>
      <trkpt lat="44.86151" lon="5.56196">
        <ele>1175</ele>
        <time>2013-09-14T17:07:02.001Z</time>
      </trkpt>
      <trkpt lat="44.86156" lon="5.56202">
        <ele>1174</ele>
        <time>2013-09-14T17:07:03.001Z</time>
      </trkpt>
      <trkpt lat="44.86162" lon="5.56209">
        <ele>1174</ele>
        <time>2013-09-14T17:07:05.001Z</time>
      </trkpt>
      <trkpt lat="44.86168" lon="5.56206">
        <ele>1173</ele>
        <time>2013-09-14T17:07:13.001Z</time>
      </trkpt>
      <trkpt lat="44.86174" lon="5.562">
        <ele>1173</ele>
        <time>2013-09-14T17:07:15.001Z</time>
      </trkpt>
      <trkpt lat="44.8618" lon="5.56194">
        <ele>1169</ele>
        <time>2013-09-14T17:07:17.001Z</time>
      </trkpt>
      <trkpt lat="44.86186" lon="5.56183">
        <ele>1167</ele>
        <time>2013-09-14T17:07:19.001Z</time>
      </trkpt>
      <trkpt lat="44.86191" lon="5.56176">
        <ele>1166</ele>
        <time>2013-09-14T17:07:21.001Z</time>
      </trkpt>
      <trkpt lat="44.86194" lon="5.56168">
        <ele>1166</ele>
        <time>2013-09-14T17:07:23.001Z</time>
      </trkpt>
      <trkpt lat="44.86196" lon="5.56155">
        <ele>1165</ele>
        <time>2013-09-14T17:07:25.001Z</time>
      </trkpt>
      <trkpt lat="44.86197" lon="5.56148">
        <ele>1165</ele>
        <time>2013-09-14T17:07:26.001Z</time>
      </trkpt>
      <trkpt lat="44.86199" lon="5.56142">
        <ele>1165</ele>
        <time>2013-09-14T17:07:29.001Z</time>
      </trkpt>
      <trkpt lat="44.86199" lon="5.56142">
        <ele>1165</ele>
        <time>2013-09-14T17:07:29.001Z</time>
      </trkpt>
      <trkpt lat="44.86199" lon="5.56142">
        <ele>1165</ele>
        <time>2013-09-14T17:07:30.001Z</time>
      </trkpt>
      <trkpt lat="44.86194" lon="5.56136">
        <ele>1165</ele>
        <time>2013-09-14T17:07:32.001Z</time>
      </trkpt>
      <trkpt lat="44.86188" lon="5.56127">
        <ele>1165</ele>
        <time>2013-09-14T17:07:34.001Z</time>
      </trkpt>
      <trkpt lat="44.86187" lon="5.56118">
        <ele>1165</ele>
        <time>2013-09-14T17:07:35.001Z</time>
      </trkpt>
      <trkpt lat="44.86184" lon="5.5611">
        <ele>1165</ele>
        <time>2013-09-14T17:07:36.001Z</time>
      </trkpt>
      <trkpt lat="44.86182" lon="5.56103">
        <ele>1165</ele>
        <time>2013-09-14T17:07:37.001Z</time>
      </trkpt>
      <trkpt lat="44.86178" lon="5.56095">
        <ele>1164</ele>
        <time>2013-09-14T17:07:38.001Z</time>
      </trkpt>
      <trkpt lat="44.86174" lon="5.56086">
        <ele>1164</ele>
        <time>2013-09-14T17:07:39.001Z</time>
      </trkpt>
      <trkpt lat="44.86169" lon="5.5608">
        <ele>1164</ele>
        <time>2013-09-14T17:07:40.001Z</time>
      </trkpt>
      <trkpt lat="44.86165" lon="5.56076">
        <ele>1163</ele>
        <time>2013-09-14T17:07:41.001Z</time>
      </trkpt>
      <trkpt lat="44.8616" lon="5.56071">
        <ele>1162</ele>
        <time>2013-09-14T17:07:42.001Z</time>
      </trkpt>
      <trkpt lat="44.86154" lon="5.56065">
        <ele>1162</ele>
        <time>2013-09-14T17:07:43.001Z</time>
      </trkpt>
      <trkpt lat="44.86148" lon="5.5606">
        <ele>1162</ele>
        <time>2013-09-14T17:07:44.001Z</time>
      </trkpt>
      <trkpt lat="44.86144" lon="5.56056">
        <ele>1161</ele>
        <time>2013-09-14T17:07:45.001Z</time>
      </trkpt>
      <trkpt lat="44.86137" lon="5.56048">
        <ele>1161</ele>
        <time>2013-09-14T17:07:47.001Z</time>
      </trkpt>
      <trkpt lat="44.8613" lon="5.56041">
        <ele>1162</ele>
        <time>2013-09-14T17:07:49.001Z</time>
      </trkpt>
      <trkpt lat="44.86125" lon="5.56033">
        <ele>1163</ele>
        <time>2013-09-14T17:07:51.001Z</time>
      </trkpt>
      <trkpt lat="44.86121" lon="5.56024">
        <ele>1163</ele>
        <time>2013-09-14T17:07:53.001Z</time>
      </trkpt>
      <trkpt lat="44.86119" lon="5.56013">
        <ele>1163</ele>
        <time>2013-09-14T17:07:55.001Z</time>
      </trkpt>
      <trkpt lat="44.86119" lon="5.56007">
        <ele>1164</ele>
        <time>2013-09-14T17:07:56.001Z</time>
      </trkpt>
      <trkpt lat="44.86121" lon="5.56">
        <ele>1164</ele>
        <time>2013-09-14T17:07:57.001Z</time>
      </trkpt>
      <trkpt lat="44.86122" lon="5.55992">
        <ele>1164</ele>
        <time>2013-09-14T17:07:58.001Z</time>
      </trkpt>
      <trkpt lat="44.86124" lon="5.55985">
        <ele>1165</ele>
        <time>2013-09-14T17:07:59.001Z</time>
      </trkpt>
      <trkpt lat="44.86126" lon="5.55975">
        <ele>1165</ele>
        <time>2013-09-14T17:08:01.001Z</time>
      </trkpt>
      <trkpt lat="44.86134" lon="5.55964">
        <ele>1165</ele>
        <time>2013-09-14T17:08:11.001Z</time>
      </trkpt>
      <trkpt lat="44.86134" lon="5.55964">
        <ele>1165</ele>
        <time>2013-09-14T17:08:11.001Z</time>
      </trkpt>
      <trkpt lat="44.86134" lon="5.55964">
        <ele>1165</ele>
        <time>2013-09-14T17:08:15.001Z</time>
      </trkpt>
      <trkpt lat="44.86137" lon="5.55958">
        <ele>1164</ele>
        <time>2013-09-14T17:08:16.001Z</time>
      </trkpt>
      <trkpt lat="44.86137" lon="5.55958">
        <ele>1164</ele>
        <time>2013-09-14T17:08:16.001Z</time>
      </trkpt>
      <trkpt lat="44.86137" lon="5.55958">
        <ele>1164</ele>
        <time>2013-09-14T17:09:11.001Z</time>
      </trkpt>
      <trkpt lat="44.86136" lon="5.55945">
        <ele>1160</ele>
        <time>2013-09-14T17:09:12.001Z</time>
      </trkpt>
      <trkpt lat="44.86136" lon="5.55945">
        <ele>1160</ele>
        <time>2013-09-14T17:09:12.001Z</time>
      </trkpt>
      <trkpt lat="44.86136" lon="5.55945">
        <ele>1160</ele>
        <time>2013-09-14T17:11:01.001Z</time>
      </trkpt>
      <trkpt lat="44.86135" lon="5.55938">
        <ele>1157</ele>
        <time>2013-09-14T17:11:05.001Z</time>
      </trkpt>
      <trkpt lat="44.8613" lon="5.55934">
        <ele>1157</ele>
        <time>2013-09-14T17:11:09.001Z</time>
      </trkpt>
      <trkpt lat="44.86129" lon="5.55928">
        <ele>1156</ele>
        <time>2013-09-14T17:11:20.001Z</time>
      </trkpt>
      <trkpt lat="44.86129" lon="5.55928">
        <ele>1156</ele>
        <time>2013-09-14T17:11:20.001Z</time>
      </trkpt>
      <trkpt lat="44.86129" lon="5.55928">
        <ele>1156</ele>
        <time>2013-09-14T17:11:21.001Z</time>
      </trkpt>
      <trkpt lat="44.86133" lon="5.55925">
        <ele>1156</ele>
        <time>2013-09-14T17:11:28.001Z</time>
      </trkpt>
      <trkpt lat="44.86133" lon="5.55925">
        <ele>1156</ele>
        <time>2013-09-14T17:11:28.001Z</time>
      </trkpt>
      <trkpt lat="44.86133" lon="5.55925">
        <ele>1156</ele>
        <time>2013-09-14T17:11:30.001Z</time>
      </trkpt>
      <trkpt lat="44.86128" lon="5.5593">
        <ele>1156</ele>
        <time>2013-09-14T17:12:05.001Z</time>
      </trkpt>
      <trkpt lat="44.86123" lon="5.55932">
        <ele>1156</ele>
        <time>2013-09-14T17:12:08.001Z</time>
      </trkpt>
      <trkpt lat="44.86118" lon="5.5593">
        <ele>1156</ele>
        <time>2013-09-14T17:12:12.001Z</time>
      </trkpt>
      <trkpt lat="44.86114" lon="5.55932">
        <ele>1156</ele>
        <time>2013-09-14T17:12:16.001Z</time>
      </trkpt>
      <trkpt lat="44.86107" lon="5.55932">
        <ele>1155</ele>
        <time>2013-09-14T17:12:20.001Z</time>
      </trkpt>
      <trkpt lat="44.86102" lon="5.55932">
        <ele>1155</ele>
        <time>2013-09-14T17:12:24.001Z</time>
      </trkpt>
      <trkpt lat="44.86096" lon="5.55932">
        <ele>1154</ele>
        <time>2013-09-14T17:12:28.001Z</time>
      </trkpt>
      <trkpt lat="44.86091" lon="5.55932">
        <ele>1154</ele>
        <time>2013-09-14T17:12:32.001Z</time>
      </trkpt>
      <trkpt lat="44.86086" lon="5.5593">
        <ele>1153</ele>
        <time>2013-09-14T17:12:36.001Z</time>
      </trkpt>
      <trkpt lat="44.8608" lon="5.5593">
        <ele>1153</ele>
        <time>2013-09-14T17:12:39.001Z</time>
      </trkpt>
      <trkpt lat="44.86075" lon="5.55928">
        <ele>1153</ele>
        <time>2013-09-14T17:12:42.001Z</time>
      </trkpt>
      <trkpt lat="44.86071" lon="5.55925">
        <ele>1153</ele>
        <time>2013-09-14T17:12:45.001Z</time>
      </trkpt>
      <trkpt lat="44.86065" lon="5.55925">
        <ele>1153</ele>
        <time>2013-09-14T17:12:49.001Z</time>
      </trkpt>
      <trkpt lat="44.8606" lon="5.55923">
        <ele>1152</ele>
        <time>2013-09-14T17:12:54.001Z</time>
      </trkpt>
      <trkpt lat="44.86055" lon="5.55921">
        <ele>1152</ele>
        <time>2013-09-14T17:12:58.001Z</time>
      </trkpt>
      <trkpt lat="44.86049" lon="5.55921">
        <ele>1152</ele>
        <time>2013-09-14T17:13:01.001Z</time>
      </trkpt>
      <trkpt lat="44.86044" lon="5.55921">
        <ele>1152</ele>
        <time>2013-09-14T17:13:05.001Z</time>
      </trkpt>
      <trkpt lat="44.8604" lon="5.55919">
        <ele>1151</ele>
        <time>2013-09-14T17:13:08.001Z</time>
      </trkpt>
      <trkpt lat="44.86034" lon="5.55917">
        <ele>1151</ele>
        <time>2013-09-14T17:13:11.001Z</time>
      </trkpt>
      <trkpt lat="44.86029" lon="5.55915">
        <ele>1151</ele>
        <time>2013-09-14T17:13:14.001Z</time>
      </trkpt>
      <trkpt lat="44.86024" lon="5.55912">
        <ele>1152</ele>
        <time>2013-09-14T17:13:17.001Z</time>
      </trkpt>
      <trkpt lat="44.86018" lon="5.55908">
        <ele>1152</ele>
        <time>2013-09-14T17:13:21.001Z</time>
      </trkpt>
      <trkpt lat="44.86013" lon="5.55906">
        <ele>1152</ele>
        <time>2013-09-14T17:13:25.001Z</time>
      </trkpt>
      <trkpt lat="44.86008" lon="5.55902">
        <ele>1152</ele>
        <time>2013-09-14T17:13:28.001Z</time>
      </trkpt>
      <trkpt lat="44.86004" lon="5.559">
        <ele>1152</ele>
        <time>2013-09-14T17:13:32.001Z</time>
      </trkpt>
      <trkpt lat="44.86" lon="5.55895">
        <ele>1152</ele>
        <time>2013-09-14T17:13:36.001Z</time>
      </trkpt>
      <trkpt lat="44.85996" lon="5.55891">
        <ele>1153</ele>
        <time>2013-09-14T17:13:40.001Z</time>
      </trkpt>
      <trkpt lat="44.85991" lon="5.55887">
        <ele>1153</ele>
        <time>2013-09-14T17:13:44.001Z</time>
      </trkpt>
      <trkpt lat="44.85987" lon="5.55882">
        <ele>1153</ele>
        <time>2013-09-14T17:13:47.001Z</time>
      </trkpt>
      <trkpt lat="44.85983" lon="5.55876">
        <ele>1154</ele>
        <time>2013-09-14T17:13:51.001Z</time>
      </trkpt>
      <trkpt lat="44.85978" lon="5.55872">
        <ele>1154</ele>
        <time>2013-09-14T17:13:55.001Z</time>
      </trkpt>
      <trkpt lat="44.85973" lon="5.55865">
        <ele>1154</ele>
        <time>2013-09-14T17:13:59.001Z</time>
      </trkpt>
      <trkpt lat="44.85971" lon="5.55859">
        <ele>1154</ele>
        <time>2013-09-14T17:14:03.001Z</time>
      </trkpt>
      <trkpt lat="44.85968" lon="5.55852">
        <ele>1154</ele>
        <time>2013-09-14T17:14:07.001Z</time>
      </trkpt>
      <trkpt lat="44.85967" lon="5.55846">
        <ele>1154</ele>
        <time>2013-09-14T17:14:10.001Z</time>
      </trkpt>
      <trkpt lat="44.8597" lon="5.5584">
        <ele>1155</ele>
        <time>2013-09-14T17:14:13.001Z</time>
      </trkpt>
      <trkpt lat="44.85974" lon="5.55835">
        <ele>1155</ele>
        <time>2013-09-14T17:14:16.001Z</time>
      </trkpt>
      <trkpt lat="44.85978" lon="5.55833">
        <ele>1155</ele>
        <time>2013-09-14T17:14:19.001Z</time>
      </trkpt>
      <trkpt lat="44.85983" lon="5.55831">
        <ele>1155</ele>
        <time>2013-09-14T17:14:22.001Z</time>
      </trkpt>
      <trkpt lat="44.85988" lon="5.55829">
        <ele>1156</ele>
        <time>2013-09-14T17:14:25.001Z</time>
      </trkpt>
      <trkpt lat="44.85992" lon="5.55824">
        <ele>1156</ele>
        <time>2013-09-14T17:14:28.001Z</time>
      </trkpt>
      <trkpt lat="44.85997" lon="5.55822">
        <ele>1156</ele>
        <time>2013-09-14T17:14:32.001Z</time>
      </trkpt>
      <trkpt lat="44.86001" lon="5.55818">
        <ele>1156</ele>
        <time>2013-09-14T17:14:36.001Z</time>
      </trkpt>
      <trkpt lat="44.86006" lon="5.55816">
        <ele>1157</ele>
        <time>2013-09-14T17:14:40.001Z</time>
      </trkpt>
      <trkpt lat="44.86012" lon="5.55816">
        <ele>1157</ele>
        <time>2013-09-14T17:14:44.001Z</time>
      </trkpt>
      <trkpt lat="44.86016" lon="5.55814">
        <ele>1157</ele>
        <time>2013-09-14T17:14:48.001Z</time>
      </trkpt>
      <trkpt lat="44.86021" lon="5.55814">
        <ele>1158</ele>
        <time>2013-09-14T17:14:52.001Z</time>
      </trkpt>
      <trkpt lat="44.86027" lon="5.55814">
        <ele>1158</ele>
        <time>2013-09-14T17:14:56.001Z</time>
      </trkpt>
      <trkpt lat="44.86032" lon="5.55814">
        <ele>1159</ele>
        <time>2013-09-14T17:15:00.001Z</time>
      </trkpt>
      <trkpt lat="44.86037" lon="5.55818">
        <ele>1159</ele>
        <time>2013-09-14T17:15:04.001Z</time>
      </trkpt>
      <trkpt lat="44.86043" lon="5.55818">
        <ele>1160</ele>
        <time>2013-09-14T17:15:07.001Z</time>
      </trkpt>
      <trkpt lat="44.86047" lon="5.5582">
        <ele>1160</ele>
        <time>2013-09-14T17:15:10.001Z</time>
      </trkpt>
      <trkpt lat="44.86051" lon="5.55822">
        <ele>1161</ele>
        <time>2013-09-14T17:15:13.001Z</time>
      </trkpt>
      <trkpt lat="44.86057" lon="5.55822">
        <ele>1161</ele>
        <time>2013-09-14T17:15:17.001Z</time>
      </trkpt>
      <trkpt lat="44.86062" lon="5.55822">
        <ele>1162</ele>
        <time>2013-09-14T17:15:22.001Z</time>
      </trkpt>
      <trkpt lat="44.86068" lon="5.55824">
        <ele>1163</ele>
        <time>2013-09-14T17:15:26.001Z</time>
      </trkpt>
      <trkpt lat="44.86073" lon="5.55824">
        <ele>1164</ele>
        <time>2013-09-14T17:15:31.001Z</time>
      </trkpt>
      <trkpt lat="44.86079" lon="5.55824">
        <ele>1164</ele>
        <time>2013-09-14T17:15:35.001Z</time>
      </trkpt>
      <trkpt lat="44.86084" lon="5.55822">
        <ele>1164</ele>
        <time>2013-09-14T17:15:38.001Z</time>
      </trkpt>
      <trkpt lat="44.86089" lon="5.55822">
        <ele>1164</ele>
        <time>2013-09-14T17:15:42.001Z</time>
      </trkpt>
      <trkpt lat="44.86093" lon="5.5582">
        <ele>1164</ele>
        <time>2013-09-14T17:15:45.001Z</time>
      </trkpt>
      <trkpt lat="44.86098" lon="5.55818">
        <ele>1164</ele>
        <time>2013-09-14T17:15:48.001Z</time>
      </trkpt>
      <trkpt lat="44.86102" lon="5.55814">
        <ele>1164</ele>
        <time>2013-09-14T17:15:51.001Z</time>
      </trkpt>
      <trkpt lat="44.86106" lon="5.55812">
        <ele>1165</ele>
        <time>2013-09-14T17:15:55.001Z</time>
      </trkpt>
      <trkpt lat="44.8611" lon="5.55807">
        <ele>1165</ele>
        <time>2013-09-14T17:15:59.001Z</time>
      </trkpt>
      <trkpt lat="44.86115" lon="5.55805">
        <ele>1165</ele>
        <time>2013-09-14T17:16:02.001Z</time>
      </trkpt>
      <trkpt lat="44.86119" lon="5.55803">
        <ele>1165</ele>
        <time>2013-09-14T17:16:06.001Z</time>
      </trkpt>
      <trkpt lat="44.86123" lon="5.55799">
        <ele>1166</ele>
        <time>2013-09-14T17:16:10.001Z</time>
      </trkpt>
      <trkpt lat="44.86128" lon="5.55794">
        <ele>1167</ele>
        <time>2013-09-14T17:16:14.001Z</time>
      </trkpt>
      <trkpt lat="44.86131" lon="5.55788">
        <ele>1167</ele>
        <time>2013-09-14T17:16:19.001Z</time>
      </trkpt>
      <trkpt lat="44.86135" lon="5.55784">
        <ele>1169</ele>
        <time>2013-09-14T17:16:24.001Z</time>
      </trkpt>
      <trkpt lat="44.86135" lon="5.55784">
        <ele>1169</ele>
        <time>2013-09-14T17:16:24.001Z</time>
      </trkpt>
      <trkpt lat="44.86135" lon="5.55784">
        <ele>1169</ele>
        <time>2013-09-14T17:16:25.001Z</time>
      </trkpt>
      <trkpt lat="44.86138" lon="5.55777">
        <ele>1170</ele>
        <time>2013-09-14T17:16:30.001Z</time>
      </trkpt>
      <trkpt lat="44.8614" lon="5.55771">
        <ele>1171</ele>
        <time>2013-09-14T17:16:34.001Z</time>
      </trkpt>
      <trkpt lat="44.86143" lon="5.55764">
        <ele>1172</ele>
        <time>2013-09-14T17:16:37.001Z</time>
      </trkpt>
      <trkpt lat="44.86145" lon="5.55758">
        <ele>1173</ele>
        <time>2013-09-14T17:16:41.001Z</time>
      </trkpt>
      <trkpt lat="44.86146" lon="5.55752">
        <ele>1174</ele>
        <time>2013-09-14T17:16:44.001Z</time>
      </trkpt>
      <trkpt lat="44.86147" lon="5.55745">
        <ele>1174</ele>
        <time>2013-09-14T17:16:47.001Z</time>
      </trkpt>
      <trkpt lat="44.86148" lon="5.55739">
        <ele>1175</ele>
        <time>2013-09-14T17:16:51.001Z</time>
      </trkpt>
      <trkpt lat="44.86148" lon="5.55732">
        <ele>1176</ele>
        <time>2013-09-14T17:16:55.001Z</time>
      </trkpt>
      <trkpt lat="44.86148" lon="5.55726">
        <ele>1177</ele>
        <time>2013-09-14T17:16:59.001Z</time>
      </trkpt>
      <trkpt lat="44.86149" lon="5.55719">
        <ele>1177</ele>
        <time>2013-09-14T17:17:03.001Z</time>
      </trkpt>
      <trkpt lat="44.86149" lon="5.55719">
        <ele>1177</ele>
        <time>2013-09-14T17:17:03.001Z</time>
      </trkpt>
      <trkpt lat="44.86149" lon="5.55719">
        <ele>1178</ele>
        <time>2013-09-14T17:17:04.001Z</time>
      </trkpt>
      <trkpt lat="44.86149" lon="5.55713">
        <ele>1179</ele>
        <time>2013-09-14T17:17:08.001Z</time>
      </trkpt>
      <trkpt lat="44.8615" lon="5.55706">
        <ele>1180</ele>
        <time>2013-09-14T17:17:12.001Z</time>
      </trkpt>
      <trkpt lat="44.86148" lon="5.557">
        <ele>1180</ele>
        <time>2013-09-14T17:17:15.001Z</time>
      </trkpt>
      <trkpt lat="44.86148" lon="5.55694">
        <ele>1181</ele>
        <time>2013-09-14T17:17:18.001Z</time>
      </trkpt>
      <trkpt lat="44.86149" lon="5.55687">
        <ele>1181</ele>
        <time>2013-09-14T17:17:22.001Z</time>
      </trkpt>
      <trkpt lat="44.86152" lon="5.55681">
        <ele>1182</ele>
        <time>2013-09-14T17:17:25.001Z</time>
      </trkpt>
      <trkpt lat="44.86158" lon="5.55674">
        <ele>1182</ele>
        <time>2013-09-14T17:17:29.001Z</time>
      </trkpt>
      <trkpt lat="44.86162" lon="5.5567">
        <ele>1183</ele>
        <time>2013-09-14T17:17:32.001Z</time>
      </trkpt>
      <trkpt lat="44.86166" lon="5.55668">
        <ele>1183</ele>
        <time>2013-09-14T17:17:35.001Z</time>
      </trkpt>
      <trkpt lat="44.86173" lon="5.55666">
        <ele>1184</ele>
        <time>2013-09-14T17:17:39.001Z</time>
      </trkpt>
      <trkpt lat="44.86179" lon="5.55666">
        <ele>1185</ele>
        <time>2013-09-14T17:17:43.001Z</time>
      </trkpt>
      <trkpt lat="44.86186" lon="5.55666">
        <ele>1185</ele>
        <time>2013-09-14T17:17:48.001Z</time>
      </trkpt>
      <trkpt lat="44.86191" lon="5.55666">
        <ele>1186</ele>
        <time>2013-09-14T17:17:52.001Z</time>
      </trkpt>
      <trkpt lat="44.86195" lon="5.55668">
        <ele>1187</ele>
        <time>2013-09-14T17:17:55.001Z</time>
      </trkpt>
      <trkpt lat="44.862" lon="5.55668">
        <ele>1187</ele>
        <time>2013-09-14T17:17:59.001Z</time>
      </trkpt>
      <trkpt lat="44.86205" lon="5.5567">
        <ele>1188</ele>
        <time>2013-09-14T17:18:02.001Z</time>
      </trkpt>
      <trkpt lat="44.8621" lon="5.55672">
        <ele>1189</ele>
        <time>2013-09-14T17:18:06.001Z</time>
      </trkpt>
      <trkpt lat="44.86214" lon="5.55674">
        <ele>1189</ele>
        <time>2013-09-14T17:18:10.001Z</time>
      </trkpt>
      <trkpt lat="44.86219" lon="5.55676">
        <ele>1190</ele>
        <time>2013-09-14T17:18:14.001Z</time>
      </trkpt>
      <trkpt lat="44.86223" lon="5.55679">
        <ele>1191</ele>
        <time>2013-09-14T17:18:18.001Z</time>
      </trkpt>
      <trkpt lat="44.86227" lon="5.55681">
        <ele>1192</ele>
        <time>2013-09-14T17:18:22.001Z</time>
      </trkpt>
      <trkpt lat="44.86231" lon="5.55685">
        <ele>1193</ele>
        <time>2013-09-14T17:18:25.001Z</time>
      </trkpt>
      <trkpt lat="44.86235" lon="5.55689">
        <ele>1194</ele>
        <time>2013-09-14T17:18:29.001Z</time>
      </trkpt>
      <trkpt lat="44.86239" lon="5.55691">
        <ele>1195</ele>
        <time>2013-09-14T17:18:33.001Z</time>
      </trkpt>
      <trkpt lat="44.86243" lon="5.55694">
        <ele>1195</ele>
        <time>2013-09-14T17:18:36.001Z</time>
      </trkpt>
      <trkpt lat="44.86247" lon="5.55698">
        <ele>1196</ele>
        <time>2013-09-14T17:18:39.001Z</time>
      </trkpt>
      <trkpt lat="44.86251" lon="5.55702">
        <ele>1197</ele>
        <time>2013-09-14T17:18:43.001Z</time>
      </trkpt>
      <trkpt lat="44.86255" lon="5.55704">
        <ele>1197</ele>
        <time>2013-09-14T17:18:46.001Z</time>
      </trkpt>
      <trkpt lat="44.86258" lon="5.55709">
        <ele>1198</ele>
        <time>2013-09-14T17:18:49.001Z</time>
      </trkpt>
      <trkpt lat="44.86263" lon="5.55711">
        <ele>1198</ele>
        <time>2013-09-14T17:18:52.001Z</time>
      </trkpt>
      <trkpt lat="44.86266" lon="5.55715">
        <ele>1199</ele>
        <time>2013-09-14T17:18:55.001Z</time>
      </trkpt>
      <trkpt lat="44.8627" lon="5.55719">
        <ele>1200</ele>
        <time>2013-09-14T17:18:58.001Z</time>
      </trkpt>
      <trkpt lat="44.86276" lon="5.55724">
        <ele>1201</ele>
        <time>2013-09-14T17:19:02.001Z</time>
      </trkpt>
      <trkpt lat="44.86279" lon="5.55728">
        <ele>1201</ele>
        <time>2013-09-14T17:19:05.001Z</time>
      </trkpt>
      <trkpt lat="44.86283" lon="5.5573">
        <ele>1202</ele>
        <time>2013-09-14T17:19:09.001Z</time>
      </trkpt>
      <trkpt lat="44.86286" lon="5.55736">
        <ele>1203</ele>
        <time>2013-09-14T17:19:13.001Z</time>
      </trkpt>
      <trkpt lat="44.86291" lon="5.55741">
        <ele>1204</ele>
        <time>2013-09-14T17:19:16.001Z</time>
      </trkpt>
      <trkpt lat="44.86294" lon="5.55745">
        <ele>1204</ele>
        <time>2013-09-14T17:19:19.001Z</time>
      </trkpt>
      <trkpt lat="44.86298" lon="5.55752">
        <ele>1205</ele>
        <time>2013-09-14T17:19:22.001Z</time>
      </trkpt>
      <trkpt lat="44.86304" lon="5.55758">
        <ele>1206</ele>
        <time>2013-09-14T17:19:26.001Z</time>
      </trkpt>
      <trkpt lat="44.86307" lon="5.55762">
        <ele>1206</ele>
        <time>2013-09-14T17:19:29.001Z</time>
      </trkpt>
      <trkpt lat="44.8631" lon="5.55766">
        <ele>1206</ele>
        <time>2013-09-14T17:19:31.001Z</time>
      </trkpt>
      <trkpt lat="44.86314" lon="5.55771">
        <ele>1207</ele>
        <time>2013-09-14T17:19:34.001Z</time>
      </trkpt>
      <trkpt lat="44.86318" lon="5.55775">
        <ele>1207</ele>
        <time>2013-09-14T17:19:37.001Z</time>
      </trkpt>
      <trkpt lat="44.86323" lon="5.55779">
        <ele>1207</ele>
        <time>2013-09-14T17:19:40.001Z</time>
      </trkpt>
      <trkpt lat="44.86325" lon="5.55786">
        <ele>1207</ele>
        <time>2013-09-14T17:19:43.001Z</time>
      </trkpt>
      <trkpt lat="44.86328" lon="5.5579">
        <ele>1208</ele>
        <time>2013-09-14T17:19:46.001Z</time>
      </trkpt>
      <trkpt lat="44.86331" lon="5.55797">
        <ele>1208</ele>
        <time>2013-09-14T17:19:49.001Z</time>
      </trkpt>
      <trkpt lat="44.86336" lon="5.55801">
        <ele>1208</ele>
        <time>2013-09-14T17:19:52.001Z</time>
      </trkpt>
      <trkpt lat="44.8634" lon="5.55807">
        <ele>1208</ele>
        <time>2013-09-14T17:19:56.001Z</time>
      </trkpt>
      <trkpt lat="44.86344" lon="5.55812">
        <ele>1208</ele>
        <time>2013-09-14T17:19:59.001Z</time>
      </trkpt>
      <trkpt lat="44.86348" lon="5.55818">
        <ele>1208</ele>
        <time>2013-09-14T17:20:03.001Z</time>
      </trkpt>
      <trkpt lat="44.86352" lon="5.55822">
        <ele>1208</ele>
        <time>2013-09-14T17:20:07.001Z</time>
      </trkpt>
      <trkpt lat="44.86355" lon="5.55827">
        <ele>1208</ele>
        <time>2013-09-14T17:20:10.001Z</time>
      </trkpt>
      <trkpt lat="44.86358" lon="5.55833">
        <ele>1209</ele>
        <time>2013-09-14T17:20:13.001Z</time>
      </trkpt>
      <trkpt lat="44.86362" lon="5.5584">
        <ele>1209</ele>
        <time>2013-09-14T17:20:18.001Z</time>
      </trkpt>
      <trkpt lat="44.86364" lon="5.55846">
        <ele>1209</ele>
        <time>2013-09-14T17:20:21.001Z</time>
      </trkpt>
      <trkpt lat="44.86365" lon="5.55852">
        <ele>1209</ele>
        <time>2013-09-14T17:20:24.001Z</time>
      </trkpt>
      <trkpt lat="44.86369" lon="5.55859">
        <ele>1210</ele>
        <time>2013-09-14T17:20:28.001Z</time>
      </trkpt>
      <trkpt lat="44.86372" lon="5.55865">
        <ele>1210</ele>
        <time>2013-09-14T17:20:32.001Z</time>
      </trkpt>
      <trkpt lat="44.86376" lon="5.5587">
        <ele>1211</ele>
        <time>2013-09-14T17:20:36.001Z</time>
      </trkpt>
      <trkpt lat="44.86381" lon="5.55874">
        <ele>1211</ele>
        <time>2013-09-14T17:20:40.001Z</time>
      </trkpt>
      <trkpt lat="44.86385" lon="5.55878">
        <ele>1212</ele>
        <time>2013-09-14T17:20:44.001Z</time>
      </trkpt>
      <trkpt lat="44.8639" lon="5.55878">
        <ele>1213</ele>
        <time>2013-09-14T17:20:47.001Z</time>
      </trkpt>
      <trkpt lat="44.86397" lon="5.5588">
        <ele>1214</ele>
        <time>2013-09-14T17:20:51.001Z</time>
      </trkpt>
      <trkpt lat="44.86402" lon="5.5588">
        <ele>1214</ele>
        <time>2013-09-14T17:20:54.001Z</time>
      </trkpt>
      <trkpt lat="44.86408" lon="5.5588">
        <ele>1215</ele>
        <time>2013-09-14T17:20:57.001Z</time>
      </trkpt>
      <trkpt lat="44.86413" lon="5.55882">
        <ele>1216</ele>
        <time>2013-09-14T17:21:01.001Z</time>
      </trkpt>
      <trkpt lat="44.86418" lon="5.55882">
        <ele>1216</ele>
        <time>2013-09-14T17:21:05.001Z</time>
      </trkpt>
      <trkpt lat="44.86425" lon="5.55882">
        <ele>1217</ele>
        <time>2013-09-14T17:21:09.001Z</time>
      </trkpt>
      <trkpt lat="44.8643" lon="5.55882">
        <ele>1218</ele>
        <time>2013-09-14T17:21:12.001Z</time>
      </trkpt>
      <trkpt lat="44.86437" lon="5.55882">
        <ele>1218</ele>
        <time>2013-09-14T17:21:15.001Z</time>
      </trkpt>
      <trkpt lat="44.86442" lon="5.55884">
        <ele>1219</ele>
        <time>2013-09-14T17:21:17.001Z</time>
      </trkpt>
      <trkpt lat="44.86447" lon="5.55884">
        <ele>1219</ele>
        <time>2013-09-14T17:21:19.001Z</time>
      </trkpt>
      <trkpt lat="44.86454" lon="5.55884">
        <ele>1219</ele>
        <time>2013-09-14T17:21:21.001Z</time>
      </trkpt>
      <trkpt lat="44.8646" lon="5.55884">
        <ele>1219</ele>
        <time>2013-09-14T17:21:23.001Z</time>
      </trkpt>
      <trkpt lat="44.86467" lon="5.55884">
        <ele>1219</ele>
        <time>2013-09-14T17:21:25.001Z</time>
      </trkpt>
      <trkpt lat="44.86472" lon="5.55884">
        <ele>1220</ele>
        <time>2013-09-14T17:21:26.001Z</time>
      </trkpt>
      <trkpt lat="44.8648" lon="5.55884">
        <ele>1220</ele>
        <time>2013-09-14T17:21:28.001Z</time>
      </trkpt>
      <trkpt lat="44.86488" lon="5.55884">
        <ele>1221</ele>
        <time>2013-09-14T17:21:30.001Z</time>
      </trkpt>
      <trkpt lat="44.86496" lon="5.5588">
        <ele>1221</ele>
        <time>2013-09-14T17:21:32.001Z</time>
      </trkpt>
      <trkpt lat="44.86501" lon="5.55874">
        <ele>1221</ele>
        <time>2013-09-14T17:21:34.001Z</time>
      </trkpt>
      <trkpt lat="44.86508" lon="5.55865">
        <ele>1221</ele>
        <time>2013-09-14T17:21:36.001Z</time>
      </trkpt>
      <trkpt lat="44.86513" lon="5.55861">
        <ele>1221</ele>
        <time>2013-09-14T17:21:37.001Z</time>
      </trkpt>
      <trkpt lat="44.86517" lon="5.55857">
        <ele>1221</ele>
        <time>2013-09-14T17:21:38.001Z</time>
      </trkpt>
      <trkpt lat="44.86522" lon="5.55852">
        <ele>1221</ele>
        <time>2013-09-14T17:21:39.001Z</time>
      </trkpt>
      <trkpt lat="44.86528" lon="5.5585">
        <ele>1221</ele>
        <time>2013-09-14T17:21:40.001Z</time>
      </trkpt>
      <trkpt lat="44.86535" lon="5.55848">
        <ele>1221</ele>
        <time>2013-09-14T17:21:41.001Z</time>
      </trkpt>
      <trkpt lat="44.86543" lon="5.55846">
        <ele>1220</ele>
        <time>2013-09-14T17:21:42.001Z</time>
      </trkpt>
      <trkpt lat="44.8655" lon="5.55844">
        <ele>1220</ele>
        <time>2013-09-14T17:21:43.001Z</time>
      </trkpt>
      <trkpt lat="44.86558" lon="5.55844">
        <ele>1220</ele>
        <time>2013-09-14T17:21:44.001Z</time>
      </trkpt>
      <trkpt lat="44.86562" lon="5.55846">
        <ele>1220</ele>
        <time>2013-09-14T17:21:45.001Z</time>
      </trkpt>
      <trkpt lat="44.86567" lon="5.55848">
        <ele>1219</ele>
        <time>2013-09-14T17:21:46.001Z</time>
      </trkpt>
      <trkpt lat="44.8657" lon="5.55854">
        <ele>1219</ele>
        <time>2013-09-14T17:21:47.001Z</time>
      </trkpt>
      <trkpt lat="44.86566" lon="5.55861">
        <ele>1220</ele>
        <time>2013-09-14T17:21:48.001Z</time>
      </trkpt>
      <trkpt lat="44.86561" lon="5.55867">
        <ele>1220</ele>
        <time>2013-09-14T17:21:49.001Z</time>
      </trkpt>
      <trkpt lat="44.86555" lon="5.55874">
        <ele>1220</ele>
        <time>2013-09-14T17:21:50.001Z</time>
      </trkpt>
      <trkpt lat="44.86551" lon="5.55882">
        <ele>1219</ele>
        <time>2013-09-14T17:21:51.001Z</time>
      </trkpt>
      <trkpt lat="44.86548" lon="5.55891">
        <ele>1216</ele>
        <time>2013-09-14T17:21:52.001Z</time>
      </trkpt>
      <trkpt lat="44.86548" lon="5.55902">
        <ele>1213</ele>
        <time>2013-09-14T17:21:53.001Z</time>
      </trkpt>
      <trkpt lat="44.86548" lon="5.55915">
        <ele>1211</ele>
        <time>2013-09-14T17:21:54.001Z</time>
      </trkpt>
      <trkpt lat="44.8655" lon="5.55925">
        <ele>1211</ele>
        <time>2013-09-14T17:21:55.001Z</time>
      </trkpt>
      <trkpt lat="44.86552" lon="5.55936">
        <ele>1211</ele>
        <time>2013-09-14T17:21:56.001Z</time>
      </trkpt>
      <trkpt lat="44.86558" lon="5.55947">
        <ele>1211</ele>
        <time>2013-09-14T17:21:57.001Z</time>
      </trkpt>
      <trkpt lat="44.86563" lon="5.55955">
        <ele>1211</ele>
        <time>2013-09-14T17:21:58.001Z</time>
      </trkpt>
      <trkpt lat="44.86568" lon="5.55966">
        <ele>1211</ele>
        <time>2013-09-14T17:21:59.001Z</time>
      </trkpt>
      <trkpt lat="44.86574" lon="5.55977">
        <ele>1211</ele>
        <time>2013-09-14T17:22:00.001Z</time>
      </trkpt>
      <trkpt lat="44.86585" lon="5.55979">
        <ele>1211</ele>
        <time>2013-09-14T17:22:01.001Z</time>
      </trkpt>
      <trkpt lat="44.86593" lon="5.55985">
        <ele>1211</ele>
        <time>2013-09-14T17:22:02.001Z</time>
      </trkpt>
      <trkpt lat="44.86602" lon="5.55985">
        <ele>1210</ele>
        <time>2013-09-14T17:22:03.001Z</time>
      </trkpt>
      <trkpt lat="44.86608" lon="5.55985">
        <ele>1209</ele>
        <time>2013-09-14T17:22:04.001Z</time>
      </trkpt>
      <trkpt lat="44.86614" lon="5.55985">
        <ele>1208</ele>
        <time>2013-09-14T17:22:05.001Z</time>
      </trkpt>
      <trkpt lat="44.86619" lon="5.55981">
        <ele>1207</ele>
        <time>2013-09-14T17:22:06.001Z</time>
      </trkpt>
      <trkpt lat="44.86624" lon="5.55979">
        <ele>1206</ele>
        <time>2013-09-14T17:22:07.001Z</time>
      </trkpt>
      <trkpt lat="44.8663" lon="5.55975">
        <ele>1205</ele>
        <time>2013-09-14T17:22:08.001Z</time>
      </trkpt>
      <trkpt lat="44.86635" lon="5.55966">
        <ele>1204</ele>
        <time>2013-09-14T17:22:10.001Z</time>
      </trkpt>
      <trkpt lat="44.86635" lon="5.55958">
        <ele>1204</ele>
        <time>2013-09-14T17:22:12.001Z</time>
      </trkpt>
      <trkpt lat="44.86635" lon="5.55951">
        <ele>1204</ele>
        <time>2013-09-14T17:22:14.001Z</time>
      </trkpt>
      <trkpt lat="44.86634" lon="5.55945">
        <ele>1204</ele>
        <time>2013-09-14T17:22:16.001Z</time>
      </trkpt>
      <trkpt lat="44.86634" lon="5.55945">
        <ele>1204</ele>
        <time>2013-09-14T17:22:16.001Z</time>
      </trkpt>
      <trkpt lat="44.86634" lon="5.55945">
        <ele>1204</ele>
        <time>2013-09-14T17:23:41.001Z</time>
      </trkpt>
      <trkpt lat="44.8663" lon="5.55932">
        <ele>1204</ele>
        <time>2013-09-14T17:24:07.001Z</time>
      </trkpt>
      <trkpt lat="44.8663" lon="5.55932">
        <ele>1204</ele>
        <time>2013-09-14T17:24:07.001Z</time>
      </trkpt>
      <trkpt lat="44.8663" lon="5.55932">
        <ele>1204</ele>
        <time>2013-09-14T17:24:17.001Z</time>
      </trkpt>
      <trkpt lat="44.86625" lon="5.5593">
        <ele>1203</ele>
        <time>2013-09-14T17:24:18.001Z</time>
      </trkpt>
      <trkpt lat="44.86625" lon="5.5593">
        <ele>1203</ele>
        <time>2013-09-14T17:24:18.001Z</time>
      </trkpt>
      <trkpt lat="44.86625" lon="5.5593">
        <ele>1203</ele>
        <time>2013-09-14T17:24:23.001Z</time>
      </trkpt>
      <trkpt lat="44.86619" lon="5.55928">
        <ele>1202</ele>
        <time>2013-09-14T17:24:24.001Z</time>
      </trkpt>
      <trkpt lat="44.86619" lon="5.55928">
        <ele>1202</ele>
        <time>2013-09-14T17:24:24.001Z</time>
      </trkpt>
    </trkseg>
  </trk>
</gpx>